Date Heure Message   (17926)
30/08/2026 23h 59' 59" On a tout sauvé !
30/08/2026 23h 59' 57" Ping reçu, 829
30/08/2026 23h 59' 50" cPing.
30/08/2026 23h 59' 48" Ping reçu, 827
30/08/2026 23h 59' 39" Ping reçu,         825
30/08/2026 23h 59' 31" Ping reçu, 823
30/08/2026 23h 59' 27" Ping reçu, 822
30/08/2026 23h 59' 20" Enregistrement de l'éclairement (345.6 lux & 0 lux )
30/08/2026 23h 59' 20" Ping reçu,         820
30/08/2026 23h 59' 14" Ping reçu, 819
30/08/2026 23h 58' 54" cPing.
30/08/2026 23h 58' 49" Ping reçu, 813
30/08/2026 23h 58' 45" Ping reçu, 812
30/08/2026 23h 58' 36" Ping reçu,         810
30/08/2026 23h 58' 27" Ping reçu, 808
30/08/2026 23h 58' 23" Ping reçu, 807
30/08/2026 23h 58' 19" Ping reçu, 806
30/08/2026 23h 58' 15" Ping reçu,         805
30/08/2026 23h 58' 14" Enregistrement de l'éclairement (345.6 lux & 0 lux )
30/08/2026 23h 58' 12" Ping reçu, 804
30/08/2026 23h 58' 08" Ping reçu, 803
30/08/2026 23h 58' 04" Ping reçu, 802
30/08/2026 23h 57' 59" cPing.
30/08/2026 23h 57' 56" Enregistrement de la hauteur d'eau (783,640 mm @ 99,8%)
30/08/2026 23h 57' 56" Pressions pluviométriques (32,07 & 64,00)
30/08/2026 23h 57' 56" Ping reçu,         800
30/08/2026 23h 57' 55" Enregistrement des paramètres du vent (49.1° @ 0 m/s)
30/08/2026 23h 57' 42" Ping reçu, 797
30/08/2026 23h 57' 33" Ping reçu,         795
30/08/2026 23h 57' 24" Ping reçu, 793
30/08/2026 23h 57' 20" Ping reçu, 792
30/08/2026 23h 57' 16" Ping reçu, 791
30/08/2026 23h 57' 12" Ping reçu,         790
30/08/2026 23h 57' 09" Ping reçu, 789
30/08/2026 23h 57' 05" Ping reçu, 788
30/08/2026 23h 57' 02" cPing.
30/08/2026 23h 56' 52" Ping reçu,         785
30/08/2026 23h 56' 44" ERR. Ther. 14 HS.
30/08/2026 23h 56' 42" Ping reçu, 783
30/08/2026 23h 56' 32" Enregistrement de la température (19,642 °C)
30/08/2026 23h 56' 30" Ping reçu,         780
30/08/2026 23h 56' 17" Ping reçu, 777
30/08/2026 23h 56' 07" cPing.
30/08/2026 23h 55' 58" Enregistrement de l'éclairement (345.6 lux & 0 lux )
30/08/2026 23h 55' 51" Ping reçu, 771
30/08/2026 23h 55' 35" Ping reçu, 767
30/08/2026 23h 55' 31" Ping reçu, 766
30/08/2026 23h 55' 27" Ping reçu,         765
30/08/2026 23h 55' 22" Enregistrement de l'Arduino : (24,5 °C)
30/08/2026 23h 55' 15" Ping reçu, 763
30/08/2026 23h 55' 10" cPing.
30/08/2026 23h 55' 06" Ping reçu, 761
30/08/2026 23h 54' 59" Ping reçu, 759
30/08/2026 23h 54' 47" Ping reçu, 756
30/08/2026 23h 54' 38" Ping reçu, 754
30/08/2026 23h 54' 33" Ping reçu, 753
30/08/2026 23h 54' 29" Ping reçu, 752
30/08/2026 23h 54' 16" Ping reçu, 749
30/08/2026 23h 54' 15" cPing.
30/08/2026 23h 54' 09" Ping reçu, 747
30/08/2026 23h 54' 05" Ping reçu, 746
30/08/2026 23h 54' 01" Ping reçu,         745
30/08/2026 23h 53' 52" Ping reçu, 743
30/08/2026 23h 53' 42" Enregistrement de l'éclairement (345.6 lux & 0 lux )
30/08/2026 23h 53' 39" Ping reçu,         740
30/08/2026 23h 53' 35" Ping reçu, 739
30/08/2026 23h 53' 26" Ping reçu, 737
30/08/2026 23h 53' 18" cPing.
30/08/2026 23h 53' 17" Ping reçu,         735
30/08/2026 23h 53' 13" Ping reçu, 734
30/08/2026 23h 53' 06" Ping reçu, 732
30/08/2026 23h 52' 58" Ping reçu,         730
30/08/2026 23h 52' 53" Ping reçu, 729
30/08/2026 23h 52' 45" ERR. Ther. 1 HS.
30/08/2026 23h 52' 45" ERR. Ther. 14 HS.
30/08/2026 23h 52' 44" Ping reçu, 727
30/08/2026 23h 52' 40" Ping reçu, 726
30/08/2026 23h 52' 36" Ping reçu,         725
30/08/2026 23h 52' 32" Enregistrement de l'éclairement (345.6 lux & 0 lux )
30/08/2026 23h 52' 27" Ping reçu, 723
30/08/2026 23h 52' 23" cPing.
30/08/2026 23h 52' 14" Enregistrement des paramètres du vent (49.1° @ 0 m/s)
30/08/2026 23h 52' 14" Ping reçu,         720
30/08/2026 23h 52' 09" Ping reçu, 719
30/08/2026 23h 52' 05" Ping reçu, 718
30/08/2026 23h 52' 00" Ping reçu, 717
30/08/2026 23h 51' 56" Ping reçu, 716
30/08/2026 23h 51' 52" Ping reçu,         715
30/08/2026 23h 51' 48" Ping reçu, 714
30/08/2026 23h 51' 44" Ping reçu, 713
30/08/2026 23h 51' 41" Ping reçu, 712
30/08/2026 23h 51' 37" Ping reçu, 711
30/08/2026 23h 51' 32" Ping reçu,         710
30/08/2026 23h 51' 27" cPing.
30/08/2026 23h 51' 25" Enregistrement de l'éclairement (345.6 lux & 0 lux )
30/08/2026 23h 51' 20" Ping reçu, 707
30/08/2026 23h 51' 06" Ping reçu, 704
30/08/2026 23h 51' 02" Ping reçu, 703
30/08/2026 23h 50' 58" Ping reçu, 702
30/08/2026 23h 50' 54" Ping reçu, 701
30/08/2026 23h 50' 51" Ping reçu,         700
30/08/2026 23h 50' 45" Ping reçu, 699
30/08/2026 23h 50' 42" Ping reçu, 698
30/08/2026 23h 50' 38" Ping reçu, 697
30/08/2026 23h 50' 30" cPing.
30/08/2026 23h 50' 29" Ping reçu,         695
30/08/2026 23h 50' 25" Ping reçu, 694
30/08/2026 23h 50' 12" Ping reçu, 692
30/08/2026 23h 50' 08" Ping reçu, 691
30/08/2026 23h 50' 04" Ping reçu,         690
30/08/2026 23h 50' 00" Ping reçu, 689
30/08/2026 23h 49' 56" Ping reçu, 688
30/08/2026 23h 49' 51" Ping reçu, 687
30/08/2026 23h 49' 35" Ping reçu, 683
30/08/2026 23h 49' 35" cPing.
30/08/2026 23h 49' 27" Ping reçu, 681
30/08/2026 23h 49' 23" Ping reçu,         680
30/08/2026 23h 49' 18" Ping reçu, 679
30/08/2026 23h 49' 14" Ping reçu, 678
30/08/2026 23h 49' 10" Ping reçu, 677
30/08/2026 23h 49' 09" Enregistrement de l'éclairement (345.6 lux & 0 lux )
30/08/2026 23h 49' 06" Ping reçu, 676
30/08/2026 23h 49' 01" Ping reçu,         675
30/08/2026 23h 48' 50" Ping reçu, 672
30/08/2026 23h 48' 46" ERR. Ther. 1 HS.
30/08/2026 23h 48' 44" Ping reçu, 671
30/08/2026 23h 48' 41" Ping reçu,         670
30/08/2026 23h 48' 38" cPing.
30/08/2026 23h 48' 37" Ping reçu, 669
30/08/2026 23h 48' 32" Ping reçu, 668
30/08/2026 23h 48' 28" Ping reçu, 667
30/08/2026 23h 48' 24" Ping reçu, 666
30/08/2026 23h 48' 20" Ping reçu,         665
30/08/2026 23h 48' 11" Ping reçu, 663
30/08/2026 23h 48' 06" Ping reçu, 662
30/08/2026 23h 48' 02" Ping reçu, 661
30/08/2026 23h 47' 58" Ping reçu,         660
30/08/2026 23h 47' 45" Ping reçu, 657
30/08/2026 23h 47' 43" cPing.
30/08/2026 23h 47' 42" Ping reçu, 656
30/08/2026 23h 47' 36" Ping reçu,         655
30/08/2026 23h 47' 32" Ping reçu, 654
30/08/2026 23h 47' 29" Ping reçu, 653
30/08/2026 23h 47' 26" Ping reçu, 652
30/08/2026 23h 47' 21" Ping reçu, 651
30/08/2026 23h 47' 17" Ping reçu,         650
30/08/2026 23h 47' 12" Ping reçu, 649
30/08/2026 23h 47' 08" Ping reçu, 648
30/08/2026 23h 47' 04" Ping reçu, 647
30/08/2026 23h 47' 00" Ping reçu, 646
30/08/2026 23h 46' 56" Ping reçu,         645
30/08/2026 23h 46' 53" Ping reçu, 644
30/08/2026 23h 46' 46" cPing.
30/08/2026 23h 46' 40" Ping reçu, 641
30/08/2026 23h 46' 36" Pressions pluviométriques (32,07 & 64,00)
30/08/2026 23h 46' 35" Enregistrement des paramètres du vent (49.1° @ 0 m/s)
30/08/2026 23h 46' 29" Ping reçu, 639
30/08/2026 23h 46' 26" Ping reçu, 638
30/08/2026 23h 46' 22" Ping reçu, 637
30/08/2026 23h 46' 18" Ping reçu, 1
30/08/2026 23h 46' 18" Ping reçu, 636
30/08/2026 23h 46' 14" Ping reçu,         635
30/08/2026 23h 46' 05" Ping reçu, 633
30/08/2026 23h 46' 00" Ping reçu, 632
30/08/2026 23h 45' 56" On a tout sauvé !
30/08/2026 23h 45' 51" cPing.
30/08/2026 23h 45' 42" Ping reçu, 628
30/08/2026 23h 45' 38" Ping reçu, 627
30/08/2026 23h 45' 34" Ping reçu, 626
30/08/2026 23h 45' 27" Ping reçu, 624
30/08/2026 23h 45' 17" Ping reçu, 622
30/08/2026 23h 45' 14" Ping reçu, 621
30/08/2026 23h 45' 10" Ping reçu,         620
30/08/2026 23h 45' 02" Ping reçu, 618
30/08/2026 23h 44' 57" Ping reçu, 617
30/08/2026 23h 44' 53" cPing.
30/08/2026 23h 44' 53" Ping reçu, 616
30/08/2026 23h 44' 49" ERR. Ther. 1 HS.
30/08/2026 23h 44' 49" ERR. Ther. 14 HS.
30/08/2026 23h 44' 48" Ping reçu,         615
30/08/2026 23h 44' 39" Ping reçu, 613
30/08/2026 23h 44' 35" Ping reçu, 612
30/08/2026 23h 44' 31" Ping reçu, 611
30/08/2026 23h 44' 27" Ping reçu,         610
30/08/2026 23h 44' 23" Ping reçu, 609
30/08/2026 23h 44' 14" Ping reçu, 607
30/08/2026 23h 44' 11" Ping reçu, 606
30/08/2026 23h 44' 07" Ping reçu,         605
30/08/2026 23h 43' 59" Ping reçu, 603
30/08/2026 23h 43' 58" cPing.
30/08/2026 23h 43' 45" Ping reçu,         600
30/08/2026 23h 43' 41" Ping reçu, 599
30/08/2026 23h 43' 32" Ping reçu, 597
30/08/2026 23h 43' 28" Ping reçu, 596
30/08/2026 23h 43' 24" Ping reçu,         595
30/08/2026 23h 43' 17" Ping reçu, 593
30/08/2026 23h 43' 13" Ping reçu, 592
30/08/2026 23h 43' 04" Ping reçu,         590
30/08/2026 23h 43' 01" cPing.
30/08/2026 23h 43' 00" Ping reçu, 589
30/08/2026 23h 42' 56" Ping reçu, 588
30/08/2026 23h 42' 51" Ping reçu, 587
30/08/2026 23h 42' 42" Ping reçu,         585
30/08/2026 23h 42' 38" Ping reçu, 584
30/08/2026 23h 42' 30" Ping reçu, 582
30/08/2026 23h 42' 24" Enregistrement de l'éclairement (345.6 lux & 0 lux )
30/08/2026 23h 42' 21" Ping reçu,         580
30/08/2026 23h 42' 10" Ping reçu, 577
30/08/2026 23h 42' 06" Ping reçu, 576
30/08/2026 23h 42' 06" cPing.
30/08/2026 23h 42' 01" Ping reçu,         575
30/08/2026 23h 41' 45" Ping reçu, 572
30/08/2026 23h 41' 38" Ping reçu,         570
30/08/2026 23h 41' 34" Ping reçu, 569
30/08/2026 23h 41' 29" Ping reçu, 568
30/08/2026 23h 41' 26" Ping reçu, 567
30/08/2026 23h 41' 21" Ping reçu, 566
30/08/2026 23h 41' 17" Ping reçu,         565
30/08/2026 23h 41' 16" Enregistrement de l'éclairement (345.6 lux & 0 lux )
30/08/2026 23h 41' 12" Ping reçu, 564
30/08/2026 23h 41' 09" cPing.
30/08/2026 23h 41' 04" Ping reçu, 562
30/08/2026 23h 41' 00" Ping reçu, 561
30/08/2026 23h 40' 56" Enregistrement de l'humidité (92,34 %)
30/08/2026 23h 40' 55" Enregistrement des paramètres du vent (49.1° @ 0 m/s)
30/08/2026 23h 40' 53" ERR. Ther. 14 HS.
30/08/2026 23h 40' 51" ERR. Ther. 1 HS.
30/08/2026 23h 40' 50" Ping reçu, 559
30/08/2026 23h 40' 41" Ping reçu, 557
30/08/2026 23h 40' 37" Ping reçu, 556
30/08/2026 23h 40' 29" Ping reçu, 554
30/08/2026 23h 40' 26" Ping reçu, 553
30/08/2026 23h 40' 22" Ping reçu, 552
30/08/2026 23h 40' 18" Ping reçu, 551
30/08/2026 23h 40' 14" cPing.
30/08/2026 23h 40' 09" Ping reçu, 549
30/08/2026 23h 40' 05" Ping reçu, 548
30/08/2026 23h 39' 56" Ping reçu, 546
30/08/2026 23h 39' 52" Ping reçu,         545
30/08/2026 23h 39' 48" Ping reçu, 544
30/08/2026 23h 39' 43" Ping reçu, 543
30/08/2026 23h 39' 39" Ping reçu, 542
30/08/2026 23h 39' 36" Ping reçu, 541
30/08/2026 23h 39' 21" Ping reçu, 538
30/08/2026 23h 39' 19" Ping reçu, 537
30/08/2026 23h 39' 18" cPing.
30/08/2026 23h 39' 14" Ping reçu, 536
30/08/2026 23h 39' 05" Ping reçu, 534
30/08/2026 23h 39' 01" Ping reçu, 533
30/08/2026 23h 38' 48" Ping reçu,         530
30/08/2026 23h 38' 39" Ping reçu, 528
30/08/2026 23h 38' 35" Ping reçu, 527
30/08/2026 23h 38' 26" Ping reçu,         525
30/08/2026 23h 38' 22" Ping reçu, 524
30/08/2026 23h 38' 21" cPing.
30/08/2026 23h 38' 14" Ping reçu, 522
30/08/2026 23h 38' 06" Ping reçu,         520
30/08/2026 23h 38' 02" Enregistrement Température du pluviometre : (23,0 °C)
30/08/2026 23h 37' 59" Ping reçu, 519
30/08/2026 23h 37' 50" Ping reçu, 517
30/08/2026 23h 37' 42" Ping reçu,         515
30/08/2026 23h 37' 39" Ping reçu, 514
30/08/2026 23h 37' 26" cPing.
30/08/2026 23h 37' 22" Ping reçu,         510
30/08/2026 23h 37' 14" Ping reçu, 508
30/08/2026 23h 37' 09" Ping reçu, 507
30/08/2026 23h 37' 05" Ping reçu, 506
30/08/2026 23h 37' 00" Ping reçu,         505
30/08/2026 23h 36' 53" ERR. Ther. 1 HS.
30/08/2026 23h 36' 53" ERR. Ther. 14 HS.
30/08/2026 23h 36' 52" Ping reçu, 503
30/08/2026 23h 36' 43" Ping reçu, 501
30/08/2026 23h 36' 39" Ping reçu,         500
30/08/2026 23h 36' 35" Ping reçu, 499
30/08/2026 23h 36' 29" cPing.
30/08/2026 23h 36' 28" Ping reçu, 497
30/08/2026 23h 36' 24" Ping reçu, 496
30/08/2026 23h 36' 11" Ping reçu, 493
30/08/2026 23h 36' 02" Ping reçu, 491
30/08/2026 23h 35' 58" Ping reçu,         490
30/08/2026 23h 35' 47" Ping reçu, 487
30/08/2026 23h 35' 34" cPing.
30/08/2026 23h 35' 33" Enregistrement de l'éclairement (345.6 lux & 0 lux )
30/08/2026 23h 35' 25" Ping reçu, 482
30/08/2026 23h 35' 21" Ping reçu, 481
30/08/2026 23h 35' 14" Enregistrement des paramètres du vent (49.1° @ 0 m/s)
30/08/2026 23h 35' 00" Ping reçu, 477
30/08/2026 23h 34' 56" Ping reçu, 476
30/08/2026 23h 34' 53" Ping reçu,         475
30/08/2026 23h 34' 49" Ping reçu, 474
30/08/2026 23h 34' 45" Ping reçu, 473
30/08/2026 23h 34' 41" Ping reçu, 472
30/08/2026 23h 34' 37" cPing.
30/08/2026 23h 34' 32" Ping reçu,         470
30/08/2026 23h 34' 24" Enregistrement de l'éclairement (345.6 lux & 0 lux )
30/08/2026 23h 34' 10" Ping reçu,         465
30/08/2026 23h 33' 59" Ping reçu, 462
30/08/2026 23h 33' 55" Ping reçu, 461
30/08/2026 23h 33' 51" Ping reçu,         460
30/08/2026 23h 33' 47" Ping reçu, 459
30/08/2026 23h 33' 42" cPing.
30/08/2026 23h 33' 38" Ping reçu, 457
30/08/2026 23h 33' 33" Ping reçu, 456
30/08/2026 23h 33' 12" Ping reçu, 451
30/08/2026 23h 33' 08" Ping reçu,         450
30/08/2026 23h 33' 05" Ping reçu, 449
30/08/2026 23h 33' 01" Ping reçu, 448
30/08/2026 23h 32' 57" ERR. Ther. 1 HS.
30/08/2026 23h 32' 52" Ping reçu, 446
30/08/2026 23h 32' 47" Ping reçu,         445
30/08/2026 23h 32' 45" cPing.
30/08/2026 23h 32' 39" Ping reçu, 443
30/08/2026 23h 32' 35" Ping reçu, 442
30/08/2026 23h 32' 30" Ping reçu, 441
30/08/2026 23h 32' 26" Ping reçu,         440
30/08/2026 23h 32' 22" Ping reçu, 439
30/08/2026 23h 32' 17" Ping reçu, 438
30/08/2026 23h 32' 09" Ping reçu, 436
30/08/2026 23h 32' 05" Ping reçu,         435
30/08/2026 23h 31' 56" Ping reçu, 433
30/08/2026 23h 31' 53" Ping reçu, 432
30/08/2026 23h 31' 50" cPing.
30/08/2026 23h 31' 48" Ping reçu, 431
30/08/2026 23h 31' 44" Ping reçu,         430
30/08/2026 23h 31' 31" On a tout sauvé !
30/08/2026 23h 31' 26" Ping reçu, 426
30/08/2026 23h 31' 22" Ping reçu,         425
30/08/2026 23h 31' 18" Ping reçu, 424
30/08/2026 23h 31' 13" Ping reçu, 423
30/08/2026 23h 31' 09" Ping reçu, 422
30/08/2026 23h 31' 05" Ping reçu, 421
30/08/2026 23h 31' 02" Enregistrement de la température (19,881 °C)
30/08/2026 23h 30' 54" cPing.
30/08/2026 23h 30' 47" Ping reçu, 417
30/08/2026 23h 30' 42" Ping reçu, 416
30/08/2026 23h 30' 38" Ping reçu,         415
30/08/2026 23h 30' 34" Ping reçu, 414
30/08/2026 23h 30' 29" Ping reçu, 413
30/08/2026 23h 30' 21" Ping reçu, 411
30/08/2026 23h 30' 17" Ping reçu,         410
30/08/2026 23h 30' 14" Ping reçu, 409
30/08/2026 23h 30' 10" Ping reçu, 408
30/08/2026 23h 30' 02" Ping reçu, 406
30/08/2026 23h 29' 57" cPing.
30/08/2026 23h 29' 48" Ping reçu, 403
30/08/2026 23h 29' 36" Ping reçu,         400
30/08/2026 23h 29' 35" Enregistrement des paramètres du vent (49.1° @ 0 m/s)
30/08/2026 23h 29' 30" Ping reçu, 399
30/08/2026 23h 29' 26" Ping reçu, 398
30/08/2026 23h 29' 13" Ping reçu,         395
30/08/2026 23h 29' 00" Ping reçu, 392
30/08/2026 23h 29' 00" cPing.
30/08/2026 23h 28' 48" Ping reçu, 389
30/08/2026 23h 28' 45" Enregistrement de l'éclairement (345.6 lux & 0 lux )
30/08/2026 23h 28' 44" Ping reçu, 388
30/08/2026 23h 28' 40" Ping reçu, 387
30/08/2026 23h 28' 36" Ping reçu, 386
30/08/2026 23h 28' 27" Ping reçu, 384
30/08/2026 23h 28' 23" Ping reçu, 383
30/08/2026 23h 28' 19" Enregistrement de l'Arduino : (24,8 °C)
30/08/2026 23h 28' 17" Ping reçu, 382
30/08/2026 23h 28' 13" Ping reçu, 381
30/08/2026 23h 28' 05" Ping reçu, 379
30/08/2026 23h 28' 05" cPing.
30/08/2026 23h 28' 00" Ping reçu, 378
30/08/2026 23h 27' 56" Ping reçu, 377
30/08/2026 23h 27' 51" Ping reçu, 376
30/08/2026 23h 27' 43" Ping reçu, 374
30/08/2026 23h 27' 39" Ping reçu, 373
30/08/2026 23h 27' 19" Ping reçu, 368
30/08/2026 23h 27' 10" Ping reçu, 366
30/08/2026 23h 27' 09" cPing.
30/08/2026 23h 27' 06" Ping reçu,         365
30/08/2026 23h 27' 01" Ping reçu, 364
30/08/2026 23h 26' 53" Ping reçu, 362
30/08/2026 23h 26' 48" Ping reçu, 361
30/08/2026 23h 26' 48" Enregistrement de la température (19,917 °C)
30/08/2026 23h 26' 44" Ping reçu,         360
30/08/2026 23h 26' 44" Enregistrement de la Pression atmosphérique (1027,076 hPa)
30/08/2026 23h 26' 39" Ping reçu, 359
30/08/2026 23h 26' 35" Ping reçu, 358
30/08/2026 23h 26' 31" Ping reçu, 357
30/08/2026 23h 26' 30" Enregistrement de l'éclairement (345.6 lux & 0 lux )
30/08/2026 23h 26' 27" Ping reçu, 356
30/08/2026 23h 26' 14" Ping reçu, 353
30/08/2026 23h 26' 12" cPing.
30/08/2026 23h 26' 02" Ping reçu,         350
30/08/2026 23h 25' 54" Ping reçu, 348
30/08/2026 23h 25' 44" Enregistrement Température du pluviometre : (23,1 °C)
30/08/2026 23h 25' 41" Ping reçu, 346
30/08/2026 23h 25' 29" Ping reçu, 343
30/08/2026 23h 25' 26" Ping reçu, 342
30/08/2026 23h 25' 18" Enregistrement de l'éclairement (345.6 lux & 0 lux )
30/08/2026 23h 25' 17" cPing.
30/08/2026 23h 25' 09" Ping reçu, 338
30/08/2026 23h 25' 00" Ping reçu, 336
30/08/2026 23h 24' 56" ERR. Ther. 1 HS.
30/08/2026 23h 24' 56" ERR. Ther. 14 HS.
30/08/2026 23h 24' 47" Ping reçu, 333
30/08/2026 23h 24' 38" Ping reçu, 331
30/08/2026 23h 24' 34" Ping reçu,         330
30/08/2026 23h 24' 25" Ping reçu, 328
30/08/2026 23h 24' 21" Ping reçu, 327
30/08/2026 23h 24' 20" cPing.
30/08/2026 23h 24' 18" Ping reçu, 326
30/08/2026 23h 24' 15" Ping reçu,         325
30/08/2026 23h 24' 11" Enregistrement de l'éclairement (345.6 lux & 0 lux )
30/08/2026 23h 24' 11" Ping reçu, 324
30/08/2026 23h 24' 06" Ping reçu, 323
30/08/2026 23h 24' 02" Ping reçu, 322
30/08/2026 23h 23' 58" Ping reçu, 321
30/08/2026 23h 23' 54" Ping reçu,         320
30/08/2026 23h 23' 54" Pressions pluviométriques (32,05 & 64,00)
30/08/2026 23h 23' 53" Enregistrement des paramètres du vent (49.1° @ 0 m/s)
30/08/2026 23h 23' 48" Ping reçu, 319
30/08/2026 23h 23' 44" Ping reçu, 318
30/08/2026 23h 23' 35" Ping reçu, 316
30/08/2026 23h 23' 31" Ping reçu,         315
30/08/2026 23h 23' 26" Ping reçu, 314
30/08/2026 23h 23' 25" cPing.
30/08/2026 23h 23' 22" Ping reçu, 313
30/08/2026 23h 23' 18" Ping reçu, 312
30/08/2026 23h 23' 11" Ping reçu,         310
30/08/2026 23h 23' 07" Ping reçu, 309
30/08/2026 23h 23' 04" Enregistrement de l'éclairement (345.6 lux & 0 lux )
30/08/2026 23h 23' 03" Ping reçu, 308
30/08/2026 23h 22' 59" Ping reçu, 307
30/08/2026 23h 22' 54" Ping reçu, 306
30/08/2026 23h 22' 46" Ping reçu, 304
30/08/2026 23h 22' 37" Ping reçu, 302
30/08/2026 23h 22' 33" Ping reçu, 301
30/08/2026 23h 22' 32" Enregistrement de la température (19,994 °C)
30/08/2026 23h 22' 29" Ping reçu,         300
30/08/2026 23h 22' 28" cPing.
30/08/2026 23h 22' 26" Ping reçu, 299
30/08/2026 23h 22' 22" Ping reçu, 298
30/08/2026 23h 22' 09" Ping reçu,         295
30/08/2026 23h 22' 09" Rw SD-card.
30/08/2026 23h 22' 05" Ping reçu, 294
30/08/2026 23h 21' 57" Enregistrement de l'éclairement (345.6 lux & 0 lux )
30/08/2026 23h 21' 51" Ping reçu, 291
30/08/2026 23h 21' 47" Ping reçu,         290
30/08/2026 23h 21' 34" Ping reçu, 287
30/08/2026 23h 21' 33" cPing.
30/08/2026 23h 21' 30" Ping reçu, 286
30/08/2026 23h 21' 23" Ping reçu, 284
30/08/2026 23h 21' 19" Ping reçu, 283
30/08/2026 23h 21' 15" Ping reçu, 282
30/08/2026 23h 21' 07" Enregistrement de l'humidité (90,71 %)
30/08/2026 23h 21' 06" Ping reçu,         280
30/08/2026 23h 21' 03" ERR. Ther. 14 HS.
30/08/2026 23h 21' 01" Ping reçu, 279
30/08/2026 23h 20' 39" Ping reçu, 274
30/08/2026 23h 20' 36" cPing.
30/08/2026 23h 20' 35" Ping reçu, 273
30/08/2026 23h 20' 17" Ping reçu, 269
30/08/2026 23h 20' 13" Ping reçu, 268
30/08/2026 23h 20' 09" Ping reçu, 267
30/08/2026 23h 20' 00" Ping reçu,         265
30/08/2026 23h 19' 51" Ping reçu, 263
30/08/2026 23h 19' 49" Ping reçu, 262
30/08/2026 23h 19' 45" Ping reçu, 261
30/08/2026 23h 19' 41" cPing.
30/08/2026 23h 19' 36" Ping reçu, 259
30/08/2026 23h 19' 32" Ping reçu, 258
30/08/2026 23h 19' 27" Ping reçu, 257
30/08/2026 23h 19' 23" Ping reçu, 256
30/08/2026 23h 19' 18" Ping reçu,         255
30/08/2026 23h 19' 14" Ping reçu, 254
30/08/2026 23h 19' 10" Ping reçu, 253
30/08/2026 23h 19' 06" Ping reçu, 252
30/08/2026 23h 19' 02" Ping reçu, 251
30/08/2026 23h 18' 55" Ping reçu, 249
30/08/2026 23h 18' 51" Ping reçu, 248
30/08/2026 23h 18' 47" Ping reçu, 247
30/08/2026 23h 18' 44" cPing.
30/08/2026 23h 18' 42" Ping reçu, 246
30/08/2026 23h 18' 38" Ping reçu,         245
30/08/2026 23h 18' 34" Ping reçu, 244
30/08/2026 23h 18' 34" Enregistrement de l'éclairement (345.6 lux & 0 lux )
30/08/2026 23h 18' 25" Ping reçu, 242
30/08/2026 23h 18' 21" Ping reçu, 241
30/08/2026 23h 18' 17" Enregistrement des paramètres du vent (49.1° @ 0 m/s)
30/08/2026 23h 18' 11" Ping reçu, 239
30/08/2026 23h 18' 07" Ping reçu, 238
30/08/2026 23h 17' 54" Ping reçu,         235
30/08/2026 23h 17' 50" Ping reçu, 234
30/08/2026 23h 17' 48" cPing.
30/08/2026 23h 17' 47" Ping reçu, 233
30/08/2026 23h 17' 43" Ping reçu, 232
30/08/2026 23h 17' 35" Ping reçu,         230
30/08/2026 23h 17' 30" Ping reçu, 229
30/08/2026 23h 17' 27" Enregistrement de l'éclairement (345.6 lux & 0 lux )
30/08/2026 23h 17' 22" Ping reçu, 227
30/08/2026 23h 17' 18" Ping reçu, 226
30/08/2026 23h 17' 07" ERR. Ther. 1 HS.
30/08/2026 23h 17' 07" ERR. Ther. 14 HS.
30/08/2026 23h 17' 04" Ping reçu, 223
30/08/2026 23h 17' 00" Ping reçu, 222
30/08/2026 23h 16' 56" Ping reçu, 221
30/08/2026 23h 16' 56" On a tout sauvé !
30/08/2026 23h 16' 53" cPing.
30/08/2026 23h 16' 51" Ping reçu,         220
30/08/2026 23h 16' 48" Ping reçu, 219
30/08/2026 23h 16' 44" Ping reçu, 218
30/08/2026 23h 16' 40" Ping reçu, 217
30/08/2026 23h 16' 36" Ping reçu, 216
30/08/2026 23h 16' 32" Ping reçu,         215
30/08/2026 23h 16' 27" Ping reçu, 214
30/08/2026 23h 16' 19" Ping reçu, 212
30/08/2026 23h 16' 10" Ping reçu,         210
30/08/2026 23h 16' 06" Ping reçu, 209
30/08/2026 23h 15' 57" Ping reçu, 207
30/08/2026 23h 15' 56" cPing.
30/08/2026 23h 15' 54" Ping reçu, 206
30/08/2026 23h 15' 46" Ping reçu, 204
30/08/2026 23h 15' 41" Ping reçu, 203
30/08/2026 23h 15' 37" Ping reçu, 202
30/08/2026 23h 15' 33" Ping reçu, 201
30/08/2026 23h 15' 29" Ping reçu,         200
30/08/2026 23h 15' 24" Ping reçu, 199
30/08/2026 23h 15' 20" Ping reçu, 198
30/08/2026 23h 15' 16" Ping reçu, 197
30/08/2026 23h 15' 15" Enregistrement de l'éclairement (345.6 lux & 0 lux )
30/08/2026 23h 15' 12" Ping reçu, 196
30/08/2026 23h 15' 09" Ping reçu,         195
30/08/2026 23h 15' 01" Ping reçu, 193
30/08/2026 23h 15' 01" cPing.
30/08/2026 23h 14' 57" Ping reçu, 192
30/08/2026 23h 14' 52" Enregistrement de l'Arduino : (25,0 °C)
30/08/2026 23h 14' 49" Ping reçu, 191
30/08/2026 23h 14' 45" Ping reçu,         190
30/08/2026 23h 14' 42" Ping reçu, 189
30/08/2026 23h 14' 38" Ping reçu, 188
30/08/2026 23h 14' 34" Ping reçu, 187
30/08/2026 23h 14' 30" Ping reçu, 186
30/08/2026 23h 14' 26" Ping reçu,         185
30/08/2026 23h 14' 21" Ping reçu, 184
30/08/2026 23h 14' 17" Ping reçu, 183
30/08/2026 23h 14' 12" Ping reçu, 182
30/08/2026 23h 14' 08" Ping reçu, 181
30/08/2026 23h 14' 08" Enregistrement de la température (20,109 °C)
30/08/2026 23h 14' 07" Enregistrement de l'éclairement (345.6 lux & 0 lux )
30/08/2026 23h 14' 05" Ping reçu,         180
30/08/2026 23h 14' 04" cPing.
30/08/2026 23h 13' 57" Ping reçu, 178
30/08/2026 23h 13' 53" Ping reçu, 177
30/08/2026 23h 13' 32" Ping reçu, 173
30/08/2026 23h 13' 27" Ping reçu, 172
30/08/2026 23h 13' 19" Ping reçu,         170
30/08/2026 23h 13' 15" Ping reçu, 169
30/08/2026 23h 13' 10" Ping reçu, 168
30/08/2026 23h 13' 08" ERR. Ther. 1 HS.
30/08/2026 23h 13' 08" ERR. Ther. 14 HS.
30/08/2026 23h 13' 08" cPing.
30/08/2026 23h 13' 06" Ping reçu, 167
30/08/2026 23h 13' 01" Ping reçu, 166
30/08/2026 23h 12' 56" Enregistrement de l'éclairement (345.6 lux & 0 lux )
30/08/2026 23h 12' 50" Ping reçu, 163
30/08/2026 23h 12' 46" Ping reçu, 162
30/08/2026 23h 12' 42" Ping reçu, 161
30/08/2026 23h 12' 38" Enregistrement de la hauteur d'eau (783,630 mm @ 99,7%)
30/08/2026 23h 12' 38" Pressions pluviométriques (32,07 & 64,00)
30/08/2026 23h 12' 38" Ping reçu,         160
30/08/2026 23h 12' 37" Enregistrement des paramètres du vent (49.1° @ 0 m/s)
30/08/2026 23h 12' 23" Ping reçu, 157
30/08/2026 23h 12' 11" cPing.
30/08/2026 23h 12' 11" Ping reçu, 154
30/08/2026 23h 12' 06" Ping reçu, 153
30/08/2026 23h 12' 02" Ping reçu, 152
30/08/2026 23h 11' 57" Ping reçu, 151
30/08/2026 23h 11' 49" Ping reçu, 149
30/08/2026 23h 11' 48" Enregistrement de l'éclairement (345.6 lux & 0 lux )
30/08/2026 23h 11' 45" Ping reçu, 148
30/08/2026 23h 11' 38" Ping reçu, 146
30/08/2026 23h 11' 34" Ping reçu,         145
30/08/2026 23h 11' 30" Ping reçu, 144
30/08/2026 23h 11' 25" Ping reçu, 143
30/08/2026 23h 11' 21" Ping reçu, 142
30/08/2026 23h 11' 16" cPing.
30/08/2026 23h 11' 13" Enregistrement de l'humidité (89,66 %)
30/08/2026 23h 11' 12" Ping reçu,         140
30/08/2026 23h 11' 08" Ping reçu, 139
30/08/2026 23h 11' 04" Ping reçu, 138
30/08/2026 23h 11' 00" Ping reçu, 137
30/08/2026 23h 10' 56" Ping reçu, 136
30/08/2026 23h 10' 53" Ping reçu,         135
30/08/2026 23h 10' 49" Ping reçu, 134
30/08/2026 23h 10' 45" Ping reçu, 133
30/08/2026 23h 10' 41" Enregistrement de l'éclairement (345.6 lux & 0 lux )
30/08/2026 23h 10' 40" Ping reçu, 132
30/08/2026 23h 10' 32" Ping reçu,         130
30/08/2026 23h 10' 27" Ping reçu, 129
30/08/2026 23h 10' 19" cPing.
30/08/2026 23h 10' 09" Ping reçu,         125
30/08/2026 23h 10' 05" Ping reçu, 124
30/08/2026 23h 10' 01" Ping reçu, 123
30/08/2026 23h 09' 57" Ping reçu, 122
30/08/2026 23h 09' 52" Enregistrement de la température (20,149 °C)
30/08/2026 23h 09' 51" Enregistrement de la Pression atmosphérique (1027,046 hPa)
30/08/2026 23h 09' 48" Ping reçu,         120
30/08/2026 23h 09' 41" Ping reçu, 118
30/08/2026 23h 09' 37" Ping reçu, 117
30/08/2026 23h 09' 33" Ping reçu, 116
30/08/2026 23h 09' 28" Ping reçu,         115
30/08/2026 23h 09' 24" cPing.
30/08/2026 23h 09' 15" Ping reçu, 112
30/08/2026 23h 09' 11" ERR. Ther. 1 HS.
30/08/2026 23h 09' 11" ERR. Ther. 14 HS.
30/08/2026 23h 09' 10" Ping reçu, 111
30/08/2026 23h 09' 02" Ping reçu, 109
30/08/2026 23h 08' 57" Ping reçu, 108
30/08/2026 23h 08' 53" Ping reçu, 107
30/08/2026 23h 08' 49" Ping reçu, 106
30/08/2026 23h 08' 45" Ping reçu,         105
30/08/2026 23h 08' 42" Ping reçu, 104
30/08/2026 23h 08' 38" Ping reçu, 103
30/08/2026 23h 08' 30" Ping reçu, 101
30/08/2026 23h 08' 27" Enregistrement de l'éclairement (345.6 lux & 0 lux )
30/08/2026 23h 08' 27" cPing.
30/08/2026 23h 08' 21" Ping reçu, 99
30/08/2026 23h 08' 12" Ping reçu, 97
30/08/2026 23h 08' 03" Ping reçu,         95
30/08/2026 23h 07' 59" Ping reçu, 94
30/08/2026 23h 07' 55" Ping reçu, 93
30/08/2026 23h 07' 51" Ping reçu, 92
30/08/2026 23h 07' 47" Ping reçu, 91
30/08/2026 23h 07' 44" Ping reçu,         90
30/08/2026 23h 07' 35" Ping reçu, 88
30/08/2026 23h 07' 32" cPing.
30/08/2026 23h 07' 27" Ping reçu, 86
30/08/2026 23h 07' 23" Ping reçu,         85
30/08/2026 23h 07' 18" Ping reçu, 84
30/08/2026 23h 07' 14" Ping reçu, 83
30/08/2026 23h 07' 10" Ping reçu, 82
30/08/2026 23h 07' 02" Ping reçu,         80
30/08/2026 23h 07' 01" Enregistrement des paramètres du vent (49.1° @ 0 m/s)
30/08/2026 23h 06' 56" Ping reçu, 79
30/08/2026 23h 06' 52" Ping reçu, 78
30/08/2026 23h 06' 48" Ping reçu, 77
30/08/2026 23h 06' 44" Ping reçu, 76
30/08/2026 23h 06' 37" Ping reçu, 74
30/08/2026 23h 06' 35" cPing.
30/08/2026 23h 06' 29" Ping reçu, 72
30/08/2026 23h 06' 20" Ping reçu,         70
30/08/2026 23h 06' 16" Ping reçu, 69
30/08/2026 23h 06' 14" Enregistrement de l'éclairement (345.6 lux & 0 lux )
30/08/2026 23h 06' 03" Ping reçu, 66
30/08/2026 23h 06' 00" Ping reçu,         65
30/08/2026 23h 05' 51" Ping reçu, 63
30/08/2026 23h 05' 47" Ping reçu, 62
30/08/2026 23h 05' 43" Ping reçu, 61
30/08/2026 23h 05' 42" Enregistrement de la température (20,183 °C)
30/08/2026 23h 05' 39" cPing.
30/08/2026 23h 05' 39" Ping reçu,         60
30/08/2026 23h 05' 30" Ping reçu, 58
30/08/2026 23h 05' 26" Ping reçu, 57
30/08/2026 23h 05' 22" Ping reçu, 56
30/08/2026 23h 05' 20" ERR. Ther. 14 HS.
30/08/2026 23h 05' 18" ERR. Ther. 1 HS.
30/08/2026 23h 05' 17" Ping reçu,         55
30/08/2026 23h 05' 13" Ping reçu, 54
30/08/2026 23h 05' 09" Ping reçu, 53
30/08/2026 23h 05' 08" Enregistrement de l'éclairement (345.6 lux & 0 lux )
30/08/2026 23h 05' 06" Ping reçu, 52
30/08/2026 23h 05' 02" Ping reçu, 51
30/08/2026 23h 04' 53" Ping reçu, 49
30/08/2026 23h 04' 49" Ping reçu, 48
30/08/2026 23h 04' 45" Ping reçu, 47
30/08/2026 23h 04' 44" cPing.
30/08/2026 23h 04' 41" Ping reçu, 46
30/08/2026 23h 04' 36" Ping reçu,         45
30/08/2026 23h 04' 32" Ping reçu, 44
30/08/2026 23h 04' 28" Ping reçu, 43
30/08/2026 23h 04' 24" Ping reçu, 42
30/08/2026 23h 04' 15" Ping reçu,         40
30/08/2026 23h 04' 12" Ping reçu, 39
30/08/2026 23h 04' 04" Ping reçu, 37
30/08/2026 23h 04' 01" Enregistrement de l'éclairement (345.6 lux & 0 lux )
30/08/2026 23h 04' 00" Ping reçu, 36
30/08/2026 23h 03' 56" Ping reçu,         35
30/08/2026 23h 03' 47" cPing.
30/08/2026 23h 03' 47" Ping reçu, 33
30/08/2026 23h 03' 42" Ping reçu, 32
30/08/2026 23h 03' 38" Ping reçu, 31
30/08/2026 23h 03' 34" Ping reçu,         30
30/08/2026 23h 03' 25" Ping reçu, 28
30/08/2026 23h 03' 20" Ping reçu, 27
30/08/2026 23h 03' 16" Ping reçu, 26
30/08/2026 23h 03' 12" Ping reçu,         25
30/08/2026 23h 03' 05" Ping reçu, 23
30/08/2026 23h 03' 01" Ping reçu, 22
30/08/2026 23h 02' 57" Ping reçu, 21
30/08/2026 23h 02' 54" Enregistrement de l'éclairement (345.6 lux & 0 lux )
30/08/2026 23h 02' 53" Ping reçu,         20
30/08/2026 23h 02' 52" cPing.
30/08/2026 23h 02' 44" Ping reçu, 1
30/08/2026 23h 02' 44" Ping reçu, 18
30/08/2026 23h 02' 35" Ping reçu, 16
30/08/2026 23h 02' 30" Ping reçu,         15
30/08/2026 23h 02' 26" Ping reçu, 14
30/08/2026 23h 02' 21" Ping reçu, 13
30/08/2026 23h 02' 21" On a tout sauvé !
30/08/2026 23h 02' 12" Ping reçu, 11
30/08/2026 23h 02' 08" Ping reçu,         10
30/08/2026 23h 02' 03" Ping reçu, 9
30/08/2026 23h 01' 59" Ping reçu, 8
30/08/2026 23h 01' 55" cPing.
30/08/2026 23h 01' 51" Ping reçu, 6
30/08/2026 23h 01' 48" Ping reçu,         5
30/08/2026 23h 01' 41" Ping reçu, 3
30/08/2026 23h 01' 39" Ping reçu, 2
30/08/2026 23h 01' 26" 15New turn with Version 3.14.
30/08/2026 23h 01' 25" End Cycle en 4.2384 s par tour (moy).
30/08/2026 23h 01' 22" Enregistrement Température du pluviometre : (23,4 °C)
30/08/2026 23h 01' 19" Ping reçu,         3360
30/08/2026 23h 01' 18" Enregistrement des paramètres du vent (49.1° @ 0 m/s)
30/08/2026 23h 01' 18" Enregistrement de l'humidité (88,57 %)
30/08/2026 23h 01' 14" ERR. Ther. 1 HS.
30/08/2026 23h 01' 14" ERR. Ther. 14 HS.
30/08/2026 23h 01' 12" Ping reçu, 3359
30/08/2026 23h 01' 08" Ping reçu, 3358
30/08/2026 23h 01' 04" Ping reçu, 3357
30/08/2026 23h 01' 00" Ping reçu, 3356
30/08/2026 23h 01' 00" cPing.
30/08/2026 23h 00' 56" Ping reçu,         3355
30/08/2026 23h 00' 51" Ping reçu, 3354
30/08/2026 23h 00' 47" Ping reçu, 3353
30/08/2026 23h 00' 43" Ping reçu, 3352
30/08/2026 23h 00' 36" Ping reçu,         3350
30/08/2026 23h 00' 34" On purge les valeurs du crystal...
30/08/2026 23h 00' 32" Ping reçu, 3349
30/08/2026 23h 00' 32" Enregistrement de l'éclairement (345.6 lux & 0 lux )
30/08/2026 23h 00' 25" On purge les valeurs du crystal...
30/08/2026 23h 00' 23" Ping reçu, 3347
30/08/2026 23h 00' 19" Ping reçu, 3346
30/08/2026 23h 00' 16" On purge les valeurs du crystal...
30/08/2026 23h 00' 15" Ping reçu,         3345
30/08/2026 23h 00' 11" Ping reçu, 3344
30/08/2026 23h 00' 06" Ping reçu, 3343
30/08/2026 23h 00' 03" cPing.
30/08/2026 23h 00' 02" Ping reçu, 3342
30/08/2026 22h 59' 53" Ping reçu,         3340
30/08/2026 22h 59' 49" Ping reçu, 3339
30/08/2026 22h 59' 45" Ping reçu, 3338
30/08/2026 22h 59' 42" Ping reçu, 3337
30/08/2026 22h 59' 34" Ping reçu,         3335
30/08/2026 22h 59' 26" Ping reçu, 3333
30/08/2026 22h 59' 21" Ping reçu, 3332
30/08/2026 22h 59' 17" Ping reçu, 3331
30/08/2026 22h 59' 13" Ping reçu,         3330
30/08/2026 22h 59' 08" Ping reçu, 3329
30/08/2026 22h 59' 08" cPing.
30/08/2026 22h 59' 04" Ping reçu, 3328
30/08/2026 22h 58' 55" Ping reçu, 3326
30/08/2026 22h 58' 51" Ping reçu,         3325
30/08/2026 22h 58' 44" Ping reçu, 3323
30/08/2026 22h 58' 40" Ping reçu, 3322
30/08/2026 22h 58' 32" Ping reçu,         3320
30/08/2026 22h 58' 27" Ping reçu, 3319
30/08/2026 22h 58' 23" Ping reçu, 3318
30/08/2026 22h 58' 18" Ping reçu, 3317
30/08/2026 22h 58' 10" Ping reçu,         3315
30/08/2026 22h 58' 10" cPing.
30/08/2026 22h 57' 52" Ping reçu, 3311
30/08/2026 22h 57' 48" Ping reçu,         3310
30/08/2026 22h 57' 44" Ping reçu, 3309
30/08/2026 22h 57' 24" Ping reçu, 3304
30/08/2026 22h 57' 20" ERR. Ther. 1 HS.
30/08/2026 22h 57' 20" ERR. Ther. 14 HS.
30/08/2026 22h 57' 20" Ping reçu, 3303
30/08/2026 22h 57' 15" Ping reçu, 3302
30/08/2026 22h 57' 15" cPing.
30/08/2026 22h 57' 07" Enregistrement de l'éclairement (345.6 lux & 0 lux )
30/08/2026 22h 57' 06" Ping reçu,         3300
30/08/2026 22h 56' 53" Ping reçu, 3297
30/08/2026 22h 56' 49" Ping reçu, 3296
30/08/2026 22h 56' 44" Ping reçu,         3295
30/08/2026 22h 56' 40" Ping reçu, 3294
30/08/2026 22h 56' 32" Ping reçu, 3292
30/08/2026 22h 56' 29" Ping reçu, 3291
30/08/2026 22h 56' 25" Ping reçu,         3290
30/08/2026 22h 56' 21" Ping reçu, 3289
30/08/2026 22h 56' 18" cPing.
30/08/2026 22h 56' 17" Ping reçu, 3288
30/08/2026 22h 56' 13" Enregistrement Température du pluviometre : (23,4 °C)
30/08/2026 22h 56' 09" Ping reçu, 3287
30/08/2026 22h 56' 05" Ping reçu, 3286
30/08/2026 22h 56' 02" Ping reçu,         3285
30/08/2026 22h 55' 59" Enregistrement de l'éclairement (345.6 lux & 0 lux )
30/08/2026 22h 55' 58" Ping reçu, 3284
30/08/2026 22h 55' 54" Ping reçu, 3283
30/08/2026 22h 55' 40" Enregistrement des paramètres du vent (49.1° @ 0 m/s)
30/08/2026 22h 55' 23" Ping reçu, 3276
30/08/2026 22h 55' 23" cPing.
30/08/2026 22h 55' 18" Ping reçu,         3275
30/08/2026 22h 55' 14" Ping reçu, 3274
30/08/2026 22h 55' 06" Ping reçu, 3272
30/08/2026 22h 55' 02" Ping reçu, 3271
30/08/2026 22h 54' 57" Ping reçu,         3270
30/08/2026 22h 54' 54" Ping reçu, 3269
30/08/2026 22h 54' 50" Ping reçu, 3268
30/08/2026 22h 54' 50" Enregistrement de l'éclairement (345.6 lux & 0 lux )
30/08/2026 22h 54' 42" Ping reçu, 3266
30/08/2026 22h 54' 28" Ping reçu, 3263
30/08/2026 22h 54' 27" cPing.
30/08/2026 22h 54' 24" Ping reçu, 3262
30/08/2026 22h 54' 15" Ping reçu,         3260
30/08/2026 22h 54' 06" Ping reçu, 3258
30/08/2026 22h 54' 02" Ping reçu, 3257
30/08/2026 22h 53' 53" Ping reçu,         3255
30/08/2026 22h 53' 45" Ping reçu, 3253
30/08/2026 22h 53' 44" Enregistrement de l'éclairement (345.6 lux & 0 lux )
30/08/2026 22h 53' 42" Ping reçu, 3252
30/08/2026 22h 53' 32" Ping reçu,         3250
30/08/2026 22h 53' 30" cPing.
30/08/2026 22h 53' 24" Ping reçu, 3248
30/08/2026 22h 53' 21" ERR. Ther. 14 HS.
30/08/2026 22h 53' 20" Enregistrement de l'Arduino : (25,5 °C)
30/08/2026 22h 53' 08" Ping reçu,         3245
30/08/2026 22h 53' 08" Rw SD-card.
30/08/2026 22h 52' 59" Ping reçu, 3243
30/08/2026 22h 52' 55" Ping reçu, 3242
30/08/2026 22h 52' 50" Enregistrement de la température (20,402 °C)
30/08/2026 22h 52' 47" Ping reçu,         3240
30/08/2026 22h 52' 42" Ping reçu, 3239
30/08/2026 22h 52' 39" Ping reçu, 3238
30/08/2026 22h 52' 35" cPing.
30/08/2026 22h 52' 33" Enregistrement de l'éclairement (345.6 lux & 0 lux )
30/08/2026 22h 52' 31" Ping reçu, 3236
30/08/2026 22h 52' 27" Ping reçu,         3235
30/08/2026 22h 52' 23" Ping reçu, 3234
30/08/2026 22h 52' 14" Ping reçu, 3232
30/08/2026 22h 52' 09" Ping reçu, 3231
30/08/2026 22h 52' 05" Ping reçu,         3230
30/08/2026 22h 52' 00" Ping reçu, 3229
30/08/2026 22h 51' 56" Ping reçu, 3228
30/08/2026 22h 51' 52" Ping reçu, 3227
30/08/2026 22h 51' 44" Ping reçu,         3225
30/08/2026 22h 51' 41" Ping reçu, 3224
30/08/2026 22h 51' 38" cPing.
30/08/2026 22h 51' 37" Ping reçu, 3223
30/08/2026 22h 51' 33" Ping reçu, 3222
30/08/2026 22h 51' 25" Enregistrement de l'humidité (88,35 %)
30/08/2026 22h 51' 24" Ping reçu,         3220
30/08/2026 22h 51' 20" Ping reçu, 3219
30/08/2026 22h 51' 11" Ping reçu, 3217
30/08/2026 22h 51' 02" Ping reçu,         3215
30/08/2026 22h 50' 58" Ping reçu, 3214
30/08/2026 22h 50' 54" Ping reçu, 3213
30/08/2026 22h 50' 43" cPing.
30/08/2026 22h 50' 42" Ping reçu,         3210
30/08/2026 22h 50' 38" Ping reçu, 3209
30/08/2026 22h 50' 34" Ping reçu, 3208
30/08/2026 22h 50' 26" Ping reçu, 3206
30/08/2026 22h 50' 17" Enregistrement de l'éclairement (345.6 lux & 0 lux )
30/08/2026 22h 50' 08" Ping reçu, 3202
30/08/2026 22h 50' 00" Ping reçu,         3200
30/08/2026 22h 49' 54" Ping reçu, 3199
30/08/2026 22h 49' 50" Ping reçu, 3198
30/08/2026 22h 49' 46" cPing.
30/08/2026 22h 49' 37" Ping reçu,         3195
30/08/2026 22h 49' 33" Ping reçu, 3194
30/08/2026 22h 49' 29" Ping reçu, 3193
30/08/2026 22h 49' 26" Ping reçu, 3192
30/08/2026 22h 49' 23" ERR. Ther. 14 HS.
30/08/2026 22h 49' 22" ERR. Ther. 1 HS.
30/08/2026 22h 49' 21" Ping reçu, 3191
30/08/2026 22h 49' 17" Ping reçu,         3190
30/08/2026 22h 49' 13" Ping reçu, 3189
30/08/2026 22h 49' 00" Ping reçu, 3186
30/08/2026 22h 48' 56" Ping reçu,         3185
30/08/2026 22h 48' 51" Ping reçu, 3184
30/08/2026 22h 48' 51" cPing.
30/08/2026 22h 48' 47" Ping reçu, 3183
30/08/2026 22h 48' 30" Ping reçu, 3179
30/08/2026 22h 48' 21" Ping reçu, 3177
30/08/2026 22h 48' 19" Ping reçu, 3176
30/08/2026 22h 48' 15" Ping reçu,         3175
30/08/2026 22h 48' 11" Ping reçu, 3174
30/08/2026 22h 48' 10" Ping reçu, 1
30/08/2026 22h 48' 06" Ping reçu, 3173
30/08/2026 22h 47' 57" Ping reçu, 3171
30/08/2026 22h 47' 54" cPing.
30/08/2026 22h 47' 49" On a tout sauvé !
30/08/2026 22h 47' 48" Ping reçu, 3169
30/08/2026 22h 47' 44" Ping reçu, 3168
30/08/2026 22h 47' 35" Ping reçu, 3166
30/08/2026 22h 47' 26" Ping reçu, 3164
30/08/2026 22h 47' 22" Ping reçu, 3163
30/08/2026 22h 47' 18" Ping reçu, 3162
30/08/2026 22h 47' 14" Ping reçu, 3161
30/08/2026 22h 47' 11" Ping reçu,         3160
30/08/2026 22h 47' 07" Ping reçu, 3159
30/08/2026 22h 46' 59" Ping reçu, 3157
30/08/2026 22h 46' 59" cPing.
30/08/2026 22h 46' 58" Enregistrement de l'éclairement (345.6 lux & 0 lux )
30/08/2026 22h 46' 54" Ping reçu, 3156
30/08/2026 22h 46' 36" Ping reçu, 3152
30/08/2026 22h 46' 32" Ping reçu, 3151
30/08/2026 22h 46' 28" Ping reçu,         3150
30/08/2026 22h 46' 24" Ping reçu, 3149
30/08/2026 22h 46' 15" Ping reçu, 3147
30/08/2026 22h 46' 13" Ping reçu, 3146
30/08/2026 22h 46' 04" Ping reçu, 3144
30/08/2026 22h 46' 02" cPing.
30/08/2026 22h 45' 51" Ping reçu, 3141
30/08/2026 22h 45' 50" Enregistrement de l'éclairement (345.6 lux & 0 lux )
30/08/2026 22h 45' 47" Ping reçu,         3140
30/08/2026 22h 45' 38" Ping reçu, 3138
30/08/2026 22h 45' 34" Ping reçu, 3137
30/08/2026 22h 45' 30" Ping reçu, 3136
30/08/2026 22h 45' 27" ERR. Ther. 1 HS.
30/08/2026 22h 45' 25" Ping reçu,         3135
30/08/2026 22h 45' 17" Ping reçu, 3133
30/08/2026 22h 45' 12" Ping reçu, 3132
30/08/2026 22h 45' 09" Ping reçu, 3131
30/08/2026 22h 45' 06" cPing.
30/08/2026 22h 45' 05" Ping reçu,         3130
30/08/2026 22h 45' 01" Ping reçu, 3129
30/08/2026 22h 44' 57" Ping reçu, 3128
30/08/2026 22h 44' 53" Ping reçu, 3127
30/08/2026 22h 44' 48" Ping reçu, 3126
30/08/2026 22h 44' 42" Enregistrement de l'éclairement (345.6 lux & 0 lux )
30/08/2026 22h 44' 40" Ping reçu, 3124
30/08/2026 22h 44' 36" Ping reçu, 3123
30/08/2026 22h 44' 23" Enregistrement de la Pression atmosphérique (1026,816 hPa)
30/08/2026 22h 44' 23" Enregistrement des paramètres du vent (49.1° @ 0 m/s)
30/08/2026 22h 44' 23" Ping reçu,         3120
30/08/2026 22h 44' 13" Ping reçu, 3118
30/08/2026 22h 44' 11" cPing.
30/08/2026 22h 44' 04" Ping reçu, 3116
30/08/2026 22h 44' 00" Ping reçu,         3115
30/08/2026 22h 43' 58" Enregistrement Température du pluviometre : (23,5 °C)
30/08/2026 22h 43' 54" Ping reçu, 3114
30/08/2026 22h 43' 50" Ping reçu, 3113
30/08/2026 22h 43' 45" Ping reçu, 3112
30/08/2026 22h 43' 41" Ping reçu, 3111
30/08/2026 22h 43' 37" Ping reçu,         3110
30/08/2026 22h 43' 33" Ping reçu, 3109
30/08/2026 22h 43' 28" Ping reçu, 3108
30/08/2026 22h 43' 21" Ping reçu, 3106
30/08/2026 22h 43' 17" Ping reçu,         3105
30/08/2026 22h 43' 14" cPing.
30/08/2026 22h 43' 08" Ping reçu, 3103
30/08/2026 22h 43' 04" Ping reçu, 3102
30/08/2026 22h 42' 55" Ping reçu,         3100
30/08/2026 22h 42' 51" Ping reçu, 3099
30/08/2026 22h 42' 47" Ping reçu, 3098
30/08/2026 22h 42' 42" Ping reçu, 3097
30/08/2026 22h 42' 38" Ping reçu, 3096
30/08/2026 22h 42' 29" Ping reçu, 3094
30/08/2026 22h 42' 25" Ping reçu, 3093
30/08/2026 22h 42' 24" Enregistrement de l'éclairement (345.6 lux & 0 lux )
30/08/2026 22h 42' 21" Ping reçu, 3092
30/08/2026 22h 42' 17" cPing.
30/08/2026 22h 42' 12" Ping reçu,         3090
30/08/2026 22h 42' 09" Ping reçu, 3089
30/08/2026 22h 42' 05" Ping reçu, 3088
30/08/2026 22h 42' 01" Ping reçu, 3087
30/08/2026 22h 41' 48" Ping reçu, 3084
30/08/2026 22h 41' 44" Ping reçu, 3083
30/08/2026 22h 41' 32" Enregistrement de l'humidité (88,62 %)
30/08/2026 22h 41' 31" Ping reçu,         3080
30/08/2026 22h 41' 29" ERR. Ther. 14 HS.
30/08/2026 22h 41' 27" ERR. Ther. 1 HS.
30/08/2026 22h 41' 21" cPing.
30/08/2026 22h 41' 17" Ping reçu, 3077
30/08/2026 22h 41' 17" Enregistrement de l'éclairement (345.6 lux & 0 lux )
30/08/2026 22h 41' 09" Ping reçu,         3075
30/08/2026 22h 41' 05" Ping reçu, 3074
30/08/2026 22h 40' 58" Ping reçu, 3072
30/08/2026 22h 40' 54" Ping reçu, 3071
30/08/2026 22h 40' 50" Ping reçu,         3070
30/08/2026 22h 40' 45" Ping reçu, 3069
30/08/2026 22h 40' 41" Ping reçu, 3068
30/08/2026 22h 40' 37" Ping reçu, 3067
30/08/2026 22h 40' 26" cPing.
30/08/2026 22h 40' 24" Ping reçu, 3064
30/08/2026 22h 40' 20" Ping reçu, 3063
30/08/2026 22h 40' 12" Ping reçu, 3061
30/08/2026 22h 40' 08" Ping reçu,         3060
30/08/2026 22h 40' 06" Enregistrement de l'éclairement (345.6 lux & 0 lux )
30/08/2026 22h 40' 04" Ping reçu, 3059
30/08/2026 22h 40' 00" Ping reçu, 3058
30/08/2026 22h 39' 56" Ping reçu, 3057
30/08/2026 22h 39' 48" Ping reçu, 3056
30/08/2026 22h 39' 29" cPing.
30/08/2026 22h 39' 23" Ping reçu,         3050
30/08/2026 22h 39' 19" Ping reçu, 3049
30/08/2026 22h 39' 06" Ping reçu, 3046
30/08/2026 22h 38' 53" Ping reçu, 3043
30/08/2026 22h 38' 42" Enregistrement de la hauteur d'eau (783,580 mm @ 99,7%)
30/08/2026 22h 38' 42" Pressions pluviométriques (32,07 & 64,00)
30/08/2026 22h 38' 34" cPing.
30/08/2026 22h 38' 30" Ping reçu, 3038
30/08/2026 22h 38' 27" Ping reçu, 3037
30/08/2026 22h 38' 24" Ping reçu, 3036
30/08/2026 22h 38' 18" Ping reçu,         3035
30/08/2026 22h 38' 14" Ping reçu, 3034
30/08/2026 22h 38' 12" Ping reçu, 3033
30/08/2026 22h 38' 03" Ping reçu, 3031
30/08/2026 22h 37' 59" Ping reçu,         3030
30/08/2026 22h 37' 54" Ping reçu, 3029
30/08/2026 22h 37' 53" Enregistrement de l'éclairement (345.6 lux & 0 lux )
30/08/2026 22h 37' 46" Ping reçu, 3027
30/08/2026 22h 37' 37" cPing.
30/08/2026 22h 37' 35" Ping reçu, 3024
30/08/2026 22h 37' 31" ERR. Ther. 1 HS.
30/08/2026 22h 37' 31" ERR. Ther. 14 HS.
30/08/2026 22h 37' 29" Ping reçu, 3023
30/08/2026 22h 37' 20" Ping reçu, 3021
30/08/2026 22h 37' 13" Ping reçu, 3019
30/08/2026 22h 37' 05" Ping reçu, 3017
30/08/2026 22h 37' 00" Ping reçu, 3016
30/08/2026 22h 36' 51" Ping reçu, 3014
30/08/2026 22h 36' 47" Enregistrement de l'éclairement (345.6 lux & 0 lux )
30/08/2026 22h 36' 42" Ping reçu, 3012
30/08/2026 22h 36' 42" cPing.
30/08/2026 22h 36' 38" Ping reçu, 3011
30/08/2026 22h 36' 34" Ping reçu,         3010
30/08/2026 22h 36' 30" Ping reçu, 3009
30/08/2026 22h 36' 27" Ping reçu, 3008
30/08/2026 22h 36' 19" Ping reçu, 3006
30/08/2026 22h 36' 10" Ping reçu, 3004
30/08/2026 22h 35' 57" Ping reçu, 3001
30/08/2026 22h 35' 53" Ping reçu,         3000
30/08/2026 22h 35' 53" Enregistrement de la Pression atmosphérique (1026,754 hPa)
30/08/2026 22h 35' 45" cPing.
30/08/2026 22h 35' 39" Ping reçu, 2997
30/08/2026 22h 35' 35" Enregistrement de l'éclairement (345.6 lux & 0 lux )
30/08/2026 22h 35' 30" Ping reçu,         2995
30/08/2026 22h 35' 17" Ping reçu, 2992
30/08/2026 22h 35' 13" Ping reçu, 2991
30/08/2026 22h 35' 06" Ping reçu, 2989
30/08/2026 22h 35' 02" Ping reçu, 2988
30/08/2026 22h 34' 58" Ping reçu, 2987
30/08/2026 22h 34' 53" Ping reçu, 2986
30/08/2026 22h 34' 50" cPing.
30/08/2026 22h 34' 40" Ping reçu, 2983
30/08/2026 22h 34' 36" Ping reçu, 2982
30/08/2026 22h 34' 32" Ping reçu, 2981
30/08/2026 22h 34' 27" Ping reçu,         2980
30/08/2026 22h 34' 23" Ping reçu, 2979
30/08/2026 22h 34' 19" Ping reçu, 2978
30/08/2026 22h 34' 12" Ping reçu, 2976
30/08/2026 22h 34' 08" Ping reçu,         2975
30/08/2026 22h 34' 04" Ping reçu, 2974
30/08/2026 22h 34' 00" Ping reçu, 2973
30/08/2026 22h 33' 56" Ping reçu, 2972
30/08/2026 22h 33' 54" cPing.
30/08/2026 22h 33' 47" Ping reçu,         2970
30/08/2026 22h 33' 38" Ping reçu, 2968
30/08/2026 22h 33' 35" ERR. Ther. 1 HS.
30/08/2026 22h 33' 33" Ping reçu, 2967
30/08/2026 22h 33' 25" Ping reçu,         2965
30/08/2026 22h 33' 17" On a tout sauvé !
30/08/2026 22h 33' 16" Ping reçu, 2963
30/08/2026 22h 33' 12" Ping reçu, 2962
30/08/2026 22h 33' 08" Ping reçu, 2961
30/08/2026 22h 33' 05" Ping reçu,         2960
30/08/2026 22h 33' 00" Ping reçu, 2959
30/08/2026 22h 32' 57" cPing.
30/08/2026 22h 32' 56" Ping reçu, 2958
30/08/2026 22h 32' 47" Ping reçu, 2956
30/08/2026 22h 32' 39" Ping reçu, 2954
30/08/2026 22h 32' 26" Ping reçu, 2951
30/08/2026 22h 32' 17" Ping reçu, 2949
30/08/2026 22h 32' 12" Ping reçu, 2948
30/08/2026 22h 32' 08" Ping reçu, 2947
30/08/2026 22h 32' 04" Ping reçu, 2946
30/08/2026 22h 32' 02" cPing.
30/08/2026 22h 32' 00" Ping reçu,         2945
30/08/2026 22h 31' 56" Ping reçu, 2944
30/08/2026 22h 31' 51" Ping reçu, 2943
30/08/2026 22h 31' 44" Enregistrement Température du pluviometre : (23,5 °C)
30/08/2026 22h 31' 37" Enregistrement de la température (20,662 °C)
30/08/2026 22h 31' 31" Ping reçu, 2939
30/08/2026 22h 31' 27" Ping reçu, 2938
30/08/2026 22h 31' 23" Ping reçu, 2937
30/08/2026 22h 31' 14" Ping reçu,         2935
30/08/2026 22h 31' 10" Ping reçu, 2934
30/08/2026 22h 31' 05" Ping reçu, 2933
30/08/2026 22h 31' 05" cPing.
30/08/2026 22h 31' 05" Enregistrement de l'éclairement (345.6 lux & 0 lux )
30/08/2026 22h 31' 01" Ping reçu, 2932
30/08/2026 22h 30' 57" Ping reçu, 2931
30/08/2026 22h 30' 54" Ping reçu,         2930
30/08/2026 22h 30' 50" Ping reçu, 2929
30/08/2026 22h 30' 41" Ping reçu, 2927
30/08/2026 22h 30' 37" Ping reçu, 2926
30/08/2026 22h 30' 29" Ping reçu, 2924
30/08/2026 22h 30' 20" Ping reçu, 2922
30/08/2026 22h 30' 16" Ping reçu, 2921
30/08/2026 22h 30' 12" Ping reçu,         2920
30/08/2026 22h 30' 10" cPing.
30/08/2026 22h 30' 07" Ping reçu, 2919
30/08/2026 22h 30' 03" Ping reçu, 2918
30/08/2026 22h 29' 52" Ping reçu,         2915
30/08/2026 22h 29' 48" Ping reçu, 2914
30/08/2026 22h 29' 44" Ping reçu, 2913
30/08/2026 22h 29' 35" ERR. Ther. 14 HS.
30/08/2026 22h 29' 34" Ping reçu, 2911
30/08/2026 22h 29' 30" Ping reçu,         2910
30/08/2026 22h 29' 26" Ping reçu, 2909
30/08/2026 22h 29' 21" Ping reçu, 2908
30/08/2026 22h 29' 17" Ping reçu, 2907
30/08/2026 22h 29' 13" Ping reçu, 2906
30/08/2026 22h 29' 13" cPing.
30/08/2026 22h 28' 57" Ping reçu, 2902
30/08/2026 22h 28' 53" Ping reçu, 2901
30/08/2026 22h 28' 44" Ping reçu, 2899
30/08/2026 22h 28' 40" Ping reçu, 2898
30/08/2026 22h 28' 36" Ping reçu, 2897
30/08/2026 22h 28' 31" Ping reçu, 2896
30/08/2026 22h 28' 27" Ping reçu,         2895
30/08/2026 22h 28' 23" Ping reçu, 2894
30/08/2026 22h 28' 17" cPing.
30/08/2026 22h 28' 14" Ping reçu, 2892
30/08/2026 22h 28' 09" Ping reçu, 2891
30/08/2026 22h 28' 05" Ping reçu,         2890
30/08/2026 22h 28' 01" Ping reçu, 2889
30/08/2026 22h 27' 54" Ping reçu, 2887
30/08/2026 22h 27' 50" Ping reçu, 2886
30/08/2026 22h 27' 42" Enregistrement de l'éclairement (345.6 lux & 0 lux )
30/08/2026 22h 27' 42" Ping reçu, 2884
30/08/2026 22h 27' 33" Ping reçu, 2882
30/08/2026 22h 27' 23" Enregistrement de la Pression atmosphérique (1026,724 hPa)
30/08/2026 22h 27' 20" cPing.
30/08/2026 22h 27' 16" Ping reçu, 2879
30/08/2026 22h 27' 12" Ping reçu, 2878
30/08/2026 22h 27' 03" Ping reçu, 2876
30/08/2026 22h 26' 59" Ping reçu,         2875
30/08/2026 22h 26' 56" Ping reçu, 2874
30/08/2026 22h 26' 52" Ping reçu, 2873
30/08/2026 22h 26' 48" Ping reçu, 2872
30/08/2026 22h 26' 44" Ping reçu, 2871
30/08/2026 22h 26' 39" Ping reçu,         2870
30/08/2026 22h 26' 35" Ping reçu, 2869
30/08/2026 22h 26' 32" Enregistrement de l'éclairement (345.6 lux & 0 lux )
30/08/2026 22h 26' 26" Ping reçu, 2867
30/08/2026 22h 26' 25" cPing.
30/08/2026 22h 26' 22" Ping reçu, 2866
30/08/2026 22h 26' 20" Enregistrement de l'Arduino : (26,0 °C)
30/08/2026 22h 26' 17" Ping reçu,         2865
30/08/2026 22h 26' 12" Ping reçu, 2864
30/08/2026 22h 25' 59" Ping reçu, 2861
30/08/2026 22h 25' 55" Ping reçu,         2860
30/08/2026 22h 25' 51" Ping reçu, 2859
30/08/2026 22h 25' 47" Ping reçu, 2858
30/08/2026 22h 25' 44" Ping reçu, 2857
30/08/2026 22h 25' 40" Ping reçu, 2856
30/08/2026 22h 25' 36" ERR. Ther. 1 HS.
30/08/2026 22h 25' 35" Ping reçu,         2855
30/08/2026 22h 25' 28" cPing.
30/08/2026 22h 25' 27" Ping reçu, 2853
30/08/2026 22h 25' 23" Enregistrement de l'éclairement (345.6 lux & 0 lux )
30/08/2026 22h 25' 18" Ping reçu, 2851
30/08/2026 22h 25' 09" Ping reçu, 2849
30/08/2026 22h 25' 05" Ping reçu, 2848
30/08/2026 22h 24' 56" Ping reçu, 2846
30/08/2026 22h 24' 51" Ping reçu,         2845
30/08/2026 22h 24' 43" Ping reçu, 2843
30/08/2026 22h 24' 39" Ping reçu, 2842
30/08/2026 22h 24' 36" Ping reçu, 2841
30/08/2026 22h 24' 33" cPing.
30/08/2026 22h 24' 28" Ping reçu, 2839
30/08/2026 22h 24' 23" Ping reçu, 2838
30/08/2026 22h 24' 20" Ping reçu, 2837
30/08/2026 22h 24' 18" Enregistrement de l'éclairement (345.6 lux & 0 lux )
30/08/2026 22h 24' 15" Ping reçu, 2836
30/08/2026 22h 24' 06" Ping reçu, 2834
30/08/2026 22h 23' 58" Ping reçu, 2832
30/08/2026 22h 23' 53" Ping reçu, 2831
30/08/2026 22h 23' 49" Ping reçu,         2830
30/08/2026 22h 23' 45" Ping reçu, 2829
30/08/2026 22h 23' 42" Ping reçu, 2828
30/08/2026 22h 23' 36" cPing.
30/08/2026 22h 23' 30" Ping reçu,         2825
30/08/2026 22h 23' 25" Ping reçu, 2824
30/08/2026 22h 23' 21" Ping reçu, 2823
30/08/2026 22h 23' 14" Ping reçu,         2820
30/08/2026 22h 23' 12" Ping reçu, 2819
30/08/2026 22h 23' 11" Ping reçu, 2818
30/08/2026 22h 23' 09" Ping reçu, 2817
30/08/2026 22h 23' 08" Ping reçu, 2814
30/08/2026 22h 23' 08" Ping reçu,         2815
30/08/2026 22h 23' 08" Ping reçu, 2816
30/08/2026 22h 23' 08" Ping reçu, 2813
30/08/2026 22h 23' 08" cPing.
30/08/2026 22h 23' 07" Ping reçu, 2812
30/08/2026 22h 23' 03" Ping reçu, 2811
30/08/2026 22h 22' 59" Ping reçu, 2809
30/08/2026 22h 22' 08" Ping reçu, 2789
30/08/2026 22h 21' 56" Ping reçu, 2788
30/08/2026 22h 21' 47" Ping reçu, 2787
30/08/2026 22h 21' 46" cPing.
30/08/2026 22h 21' 38" Ping reçu, 2786
30/08/2026 22h 21' 01" Ping reçu, 2783
30/08/2026 22h 20' 52" Ping reçu, 2782
30/08/2026 22h 20' 39" Ping reçu,         2780
30/08/2026 22h 20' 27" Ping reçu, 2777
30/08/2026 22h 20' 22" Ping reçu, 2776
30/08/2026 22h 20' 20" Enregistrement de l'éclairement (345.6 lux & 0 lux )
30/08/2026 22h 20' 09" Ping reçu,         2775
30/08/2026 22h 20' 03" Ping reçu, 2774
30/08/2026 22h 19' 54" cPing.
30/08/2026 22h 19' 54" Ping reçu, 2773
30/08/2026 22h 19' 45" Ping reçu, 2771
30/08/2026 22h 19' 41" Ping reçu,         2770
30/08/2026 22h 19' 37" Ping reçu, 2769
30/08/2026 22h 19' 37" Enregistrement Température du pluviometre : (23,6 °C)
30/08/2026 22h 19' 33" Ping reçu, 2768
30/08/2026 22h 19' 32" Ping reçu, 2767
30/08/2026 22h 19' 31" Ping reçu, 2766
30/08/2026 22h 19' 29" Ping reçu,         2765
30/08/2026 22h 19' 27" Enregistrement de la température (20,865 °C)
30/08/2026 22h 19' 26" Ping reçu, 2764
30/08/2026 22h 19' 19" Ping reçu, 2762
30/08/2026 22h 19' 18" Enregistrement de la Pression atmosphérique (1026,695 hPa)
30/08/2026 22h 19' 17" cPing.
30/08/2026 22h 19' 10" Ping reçu,         2760
30/08/2026 22h 19' 01" Ping reçu, 2758
30/08/2026 22h 18' 56" On a tout sauvé !
30/08/2026 22h 18' 50" Ping reçu, 2757
30/08/2026 22h 18' 42" Ping reçu, 2756
30/08/2026 22h 18' 35" Ping reçu,         2755
30/08/2026 22h 18' 33" Ping reçu, 2754
30/08/2026 22h 18' 25" Ping reçu, 2753
30/08/2026 22h 18' 19" Ping reçu, 2752
30/08/2026 22h 18' 12" Ping reçu, 2751
30/08/2026 22h 18' 10" Ping reçu,         2750
30/08/2026 22h 18' 01" Ping reçu, 2748
30/08/2026 22h 18' 01" Enregistrement de l'éclairement (345.6 lux & 0 lux )
30/08/2026 22h 18' 01" cPing.
30/08/2026 22h 17' 56" Ping reçu, 2747
30/08/2026 22h 17' 48" Ping reçu,         2745
30/08/2026 22h 17' 44" Ping reçu, 2744
30/08/2026 22h 17' 40" ERR. Ther. 14 HS.
30/08/2026 22h 17' 35" Ping reçu, 2742
30/08/2026 22h 17' 26" Ping reçu,         2740
30/08/2026 22h 17' 17" Ping reçu, 2738
30/08/2026 22h 17' 08" Ping reçu, 2736
30/08/2026 22h 17' 04" Ping reçu,         2735
30/08/2026 22h 17' 04" cPing.
30/08/2026 22h 17' 00" Ping reçu, 2734
30/08/2026 22h 16' 56" Ping reçu, 2733
30/08/2026 22h 16' 48" Ping reçu, 2731
30/08/2026 22h 16' 44" Ping reçu,         2730
30/08/2026 22h 16' 40" Ping reçu, 2729
30/08/2026 22h 16' 36" Ping reçu, 2728
30/08/2026 22h 16' 32" Ping reçu, 2727
30/08/2026 22h 16' 27" Ping reçu, 2726
30/08/2026 22h 16' 23" Ping reçu,         2725
30/08/2026 22h 16' 19" Ping reçu, 2724
30/08/2026 22h 16' 15" Ping reçu, 2723
30/08/2026 22h 16' 12" Ping reçu, 2722
30/08/2026 22h 16' 09" cPing.
30/08/2026 22h 16' 08" Ping reçu, 2721
30/08/2026 22h 16' 04" Pressions pluviométriques (32,07 & 64,00)
30/08/2026 22h 16' 01" Enregistrement des paramètres du vent (49.1° @ 0 m/s)
30/08/2026 22h 15' 56" Ping reçu, 2719
30/08/2026 22h 15' 44" Ping reçu, 2716
30/08/2026 22h 15' 39" Ping reçu,         2715
30/08/2026 22h 15' 36" Ping reçu, 2714
30/08/2026 22h 15' 32" Ping reçu, 2713
30/08/2026 22h 15' 28" Ping reçu, 2712
30/08/2026 22h 15' 24" Ping reçu, 2711
30/08/2026 22h 15' 15" Enregistrement de l'éclairement (345.6 lux & 0 lux )
30/08/2026 22h 15' 15" Ping reçu, 2709
30/08/2026 22h 15' 12" cPing.
30/08/2026 22h 15' 11" Ping reçu, 2708
30/08/2026 22h 15' 06" Ping reçu, 2707
30/08/2026 22h 15' 02" Ping reçu, 2706
30/08/2026 22h 14' 54" Ping reçu, 2704
30/08/2026 22h 14' 42" Ping reçu, 2701
30/08/2026 22h 14' 40" Enregistrement de la température (20,954 °C)
30/08/2026 22h 14' 38" Ping reçu,         2700
30/08/2026 22h 14' 32" Ping reçu, 2699
30/08/2026 22h 14' 25" Ping reçu, 2697
30/08/2026 22h 14' 21" Ping reçu, 2696
30/08/2026 22h 14' 17" Ping reçu,         2695
30/08/2026 22h 14' 17" cPing.
30/08/2026 22h 14' 08" Ping reçu, 2693
30/08/2026 22h 14' 07" Enregistrement de l'éclairement (345.6 lux & 0 lux )
30/08/2026 22h 14' 04" Ping reçu, 2692
30/08/2026 22h 14' 00" Ping reçu, 2691
30/08/2026 22h 13' 51" Ping reçu, 2689
30/08/2026 22h 13' 44" ERR. Ther. 1 HS.
30/08/2026 22h 13' 44" ERR. Ther. 14 HS.
30/08/2026 22h 13' 42" Ping reçu, 2687
30/08/2026 22h 13' 30" Ping reçu, 2684
30/08/2026 22h 13' 26" Ping reçu, 2683
30/08/2026 22h 13' 22" Ping reçu, 2682
30/08/2026 22h 13' 19" cPing.
30/08/2026 22h 13' 17" Ping reçu, 2681
30/08/2026 22h 13' 13" Ping reçu,         2680
30/08/2026 22h 13' 10" Enregistrement de l'éclairement (345.6 lux & 0 lux )
30/08/2026 22h 13' 05" Ping reçu, 2678
30/08/2026 22h 12' 56" Ping reçu, 2676
30/08/2026 22h 12' 51" Ping reçu,         2675
30/08/2026 22h 12' 50" Enregistrement de l'Arduino : (26,0 °C)
30/08/2026 22h 12' 46" Ping reçu, 2674
30/08/2026 22h 12' 38" Ping reçu, 2672
30/08/2026 22h 12' 33" Ping reçu, 2671
30/08/2026 22h 12' 29" Ping reçu,         2670
30/08/2026 22h 12' 24" Ping reçu, 2669
30/08/2026 22h 12' 24" cPing.
30/08/2026 22h 12' 20" Ping reçu, 2668
30/08/2026 22h 12' 16" Ping reçu, 2667
30/08/2026 22h 12' 12" Ping reçu, 2666
30/08/2026 22h 12' 09" Ping reçu,         2665
30/08/2026 22h 12' 01" Ping reçu, 2663
30/08/2026 22h 11' 57" Ping reçu, 2662
30/08/2026 22h 11' 53" Ping reçu, 2661
30/08/2026 22h 11' 48" Ping reçu,         2660
30/08/2026 22h 11' 39" Ping reçu, 2658
30/08/2026 22h 11' 35" Ping reçu, 2657
30/08/2026 22h 11' 31" Ping reçu, 2656
30/08/2026 22h 11' 27" cPing.
30/08/2026 22h 11' 26" Ping reçu,         2655
30/08/2026 22h 11' 26" Rw SD-card.
30/08/2026 22h 11' 05" Ping reçu,         2650
30/08/2026 22h 11' 02" Ping reçu, 2649
30/08/2026 22h 10' 56" Ping reçu, 2648
30/08/2026 22h 10' 53" Ping reçu, 2647
30/08/2026 22h 10' 49" Ping reçu, 2646
30/08/2026 22h 10' 45" Enregistrement de l'éclairement (345.6 lux & 0 lux )
30/08/2026 22h 10' 45" Ping reçu,         2645
30/08/2026 22h 10' 41" Ping reçu, 2644
30/08/2026 22h 10' 32" cPing.
30/08/2026 22h 10' 28" Ping reçu, 2641
30/08/2026 22h 10' 28" Enregistrement de la température (21,054 °C)
30/08/2026 22h 10' 26" Enregistrement de la Pression atmosphérique (1026,669 hPa)
30/08/2026 22h 10' 18" Ping reçu, 2639
30/08/2026 22h 10' 14" Ping reçu, 2638
30/08/2026 22h 10' 05" Ping reçu, 2636
30/08/2026 22h 10' 01" Ping reçu,         2635
30/08/2026 22h 09' 57" Ping reçu, 2634
30/08/2026 22h 09' 54" Ping reçu, 2633
30/08/2026 22h 09' 50" Ping reçu, 2632
30/08/2026 22h 09' 41" Ping reçu,         2630
30/08/2026 22h 09' 37" Enregistrement de l'éclairement (345.6 lux & 0 lux )
30/08/2026 22h 09' 36" cPing.
30/08/2026 22h 09' 33" Ping reçu, 2628
30/08/2026 22h 09' 24" Ping reçu, 2626
30/08/2026 22h 09' 20" Ping reçu,         2625
30/08/2026 22h 09' 16" Ping reçu, 2624
30/08/2026 22h 09' 12" Ping reçu, 2623
30/08/2026 22h 09' 05" Ping reçu, 2621
30/08/2026 22h 08' 56" Ping reçu, 2619
30/08/2026 22h 08' 52" Ping reçu, 2618
30/08/2026 22h 08' 39" cPing.
30/08/2026 22h 08' 35" Ping reçu, 2614
30/08/2026 22h 08' 30" Ping reçu, 2613
30/08/2026 22h 08' 22" Ping reçu, 2611
30/08/2026 22h 08' 08" Ping reçu, 2608
30/08/2026 22h 08' 04" Ping reçu, 2607
30/08/2026 22h 08' 00" Ping reçu, 2606
30/08/2026 22h 07' 56" Ping reçu,         2605
30/08/2026 22h 07' 51" Ping reçu, 2604
30/08/2026 22h 07' 49" Ping reçu, 2603
30/08/2026 22h 07' 44" Ping reçu, 2602
30/08/2026 22h 07' 44" cPing.
30/08/2026 22h 07' 40" Ping reçu, 2601
30/08/2026 22h 07' 36" Ping reçu,         2600
30/08/2026 22h 07' 27" Ping reçu, 2598
30/08/2026 22h 07' 23" Ping reçu, 2597
30/08/2026 22h 07' 18" Enregistrement de l'éclairement (345.6 lux & 0 lux )
30/08/2026 22h 07' 18" Ping reçu, 2596
30/08/2026 22h 07' 15" Enregistrement Température du pluviometre : (23,8 °C)
30/08/2026 22h 07' 06" Ping reçu, 2594
30/08/2026 22h 07' 02" Ping reçu, 2593
30/08/2026 22h 06' 59" Ping reçu, 2592
30/08/2026 22h 06' 50" Ping reçu,         2590
30/08/2026 22h 06' 47" cPing.
30/08/2026 22h 06' 47" Ping reçu, 2589
30/08/2026 22h 06' 42" Ping reçu, 2588
30/08/2026 22h 06' 38" Ping reçu, 2587
30/08/2026 22h 06' 33" Ping reçu, 2586
30/08/2026 22h 06' 29" Ping reçu,         2585
30/08/2026 22h 06' 25" Ping reçu, 2584
30/08/2026 22h 06' 21" Ping reçu, 2583
30/08/2026 22h 06' 14" Ping reçu, 2581
30/08/2026 22h 06' 12" Enregistrement de la température (21,157 °C)
30/08/2026 22h 06' 12" Enregistrement de l'éclairement (345.6 lux & 0 lux )
30/08/2026 22h 06' 10" Ping reçu,         2580
30/08/2026 22h 06' 06" Ping reçu, 2579
30/08/2026 22h 06' 01" Ping reçu, 2578
30/08/2026 22h 05' 57" Ping reçu, 2577
30/08/2026 22h 05' 53" Ping reçu, 2576
30/08/2026 22h 05' 52" cPing.
30/08/2026 22h 05' 49" ERR. Ther. 1 HS.
30/08/2026 22h 05' 48" Ping reçu,         2575
30/08/2026 22h 05' 44" Ping reçu, 2574
30/08/2026 22h 05' 35" Ping reçu, 2572
30/08/2026 22h 05' 31" Ping reçu, 2571
30/08/2026 22h 05' 27" Ping reçu,         2570
30/08/2026 22h 05' 18" Enregistrement de l'éclairement (345.6 lux & 0 lux )
30/08/2026 22h 05' 17" Ping reçu, 2568
30/08/2026 22h 05' 09" Ping reçu, 2566
30/08/2026 22h 04' 58" Ping reçu, 2563
30/08/2026 22h 04' 55" cPing.
30/08/2026 22h 04' 53" Ping reçu, 2562
30/08/2026 22h 04' 46" Pressions pluviométriques (32,07 & 64,00)
30/08/2026 22h 04' 44" Enregistrement des paramètres du vent (49.1° @ 0 m/s)
30/08/2026 22h 04' 39" Ping reçu, 2559
30/08/2026 22h 04' 35" Ping reçu, 2558
30/08/2026 22h 04' 31" Ping reçu, 2557
30/08/2026 22h 04' 27" Ping reçu, 1
30/08/2026 22h 04' 27" Ping reçu, 2556
30/08/2026 22h 04' 18" Ping reçu, 1
30/08/2026 22h 04' 05" Ping reçu, 2551
30/08/2026 22h 04' 05" On a tout sauvé !
30/08/2026 22h 04' 00" Ping reçu,         2550
30/08/2026 22h 04' 00" cPing.
30/08/2026 22h 03' 56" Ping reçu, 2549
30/08/2026 22h 03' 56" Enregistrement de l'éclairement (345.6 lux & 0 lux )
30/08/2026 22h 03' 52" Ping reçu, 2548
30/08/2026 22h 03' 39" Ping reçu,         2545
30/08/2026 22h 03' 35" Ping reçu, 2544
30/08/2026 22h 03' 32" Ping reçu, 2543
30/08/2026 22h 03' 28" Ping reçu, 2542
30/08/2026 22h 03' 20" Ping reçu,         2540
30/08/2026 22h 03' 15" Ping reçu, 2539
30/08/2026 22h 03' 11" Ping reçu, 2538
30/08/2026 22h 03' 07" Ping reçu, 2537
30/08/2026 22h 03' 03" Ping reçu, 2536
30/08/2026 22h 03' 03" cPing.
30/08/2026 22h 03' 00" Ping reçu,         2535
30/08/2026 22h 02' 56" Ping reçu, 2534
30/08/2026 22h 02' 52" Ping reçu, 2533
30/08/2026 22h 02' 47" Ping reçu, 2532
30/08/2026 22h 02' 25" Ping reçu, 2527
30/08/2026 22h 02' 21" Ping reçu, 2526
30/08/2026 22h 02' 17" Ping reçu,         2525
30/08/2026 22h 02' 08" Ping reçu, 2523
30/08/2026 22h 02' 08" cPing.
30/08/2026 22h 01' 59" Enregistrement de la température (21,198 °C)
30/08/2026 22h 01' 59" Ping reçu, 2521
30/08/2026 22h 01' 56" Ping reçu,         2520
30/08/2026 22h 01' 56" Enregistrement de la Pression atmosphérique (1026,653 hPa)
30/08/2026 22h 01' 56" Enregistrement de l'humidité (86,57 %)
30/08/2026 22h 01' 51" ERR. Ther. 1 HS.
30/08/2026 22h 01' 51" ERR. Ther. 14 HS.
30/08/2026 22h 01' 50" Ping reçu, 2519
30/08/2026 22h 01' 37" Ping reçu, 2516
30/08/2026 22h 01' 33" Ping reçu,         2515
30/08/2026 22h 01' 21" Ping reçu, 2512
30/08/2026 22h 01' 12" Ping reçu,         2510
30/08/2026 22h 01' 12" cPing.
30/08/2026 22h 01' 08" Ping reçu, 2509
30/08/2026 22h 01' 04" Ping reçu, 2508
30/08/2026 22h 00' 56" Ping reçu, 2506
30/08/2026 22h 00' 43" Enregistrement de l'éclairement (345.6 lux & 0 lux )
30/08/2026 22h 00' 42" Ping reçu, 2503
30/08/2026 22h 00' 42" On purge les valeurs du crystal...
30/08/2026 22h 00' 38" Ping reçu, 2502
30/08/2026 22h 00' 34" Ping reçu, 2501
30/08/2026 22h 00' 30" Ping reçu,         2500
30/08/2026 22h 00' 29" On purge les valeurs du crystal...
30/08/2026 22h 00' 27" Ping reçu, 2499
30/08/2026 22h 00' 16" On purge les valeurs du crystal...
30/08/2026 22h 00' 15" cPing.
30/08/2026 22h 00' 14" Ping reçu, 2496
30/08/2026 22h 00' 10" Ping reçu,         2495
30/08/2026 22h 00' 06" Ping reçu, 2494
30/08/2026 22h 00' 02" Ping reçu, 2493
30/08/2026 21h 59' 53" Ping reçu, 2491
30/08/2026 21h 59' 49" Ping reçu,         2490
30/08/2026 21h 59' 45" Ping reçu, 2489
30/08/2026 21h 59' 40" Ping reçu, 2488
30/08/2026 21h 59' 36" Ping reçu, 2487
30/08/2026 21h 59' 32" Ping reçu, 2486
30/08/2026 21h 59' 25" Enregistrement de l'éclairement (345.6 lux & 0 lux )
30/08/2026 21h 59' 20" Enregistrement de l'Arduino : (26,3 °C)
30/08/2026 21h 59' 20" cPing.
30/08/2026 21h 59' 12" Ping reçu, 2482
30/08/2026 21h 58' 50" Ping reçu, 2477
30/08/2026 21h 58' 42" Ping reçu,         2475
30/08/2026 21h 58' 39" Ping reçu, 2474
30/08/2026 21h 58' 35" Ping reçu, 2473
30/08/2026 21h 58' 31" Ping reçu, 2472
30/08/2026 21h 58' 27" Ping reçu, 2471
30/08/2026 21h 58' 23" cPing.
30/08/2026 21h 58' 23" Ping reçu,         2470
30/08/2026 21h 58' 18" Ping reçu, 2469
30/08/2026 21h 58' 18" Enregistrement de l'éclairement (345.6 lux & 0 lux )
30/08/2026 21h 58' 14" Ping reçu, 2468
30/08/2026 21h 58' 03" Ping reçu,         2465
30/08/2026 21h 57' 59" Ping reçu, 2464
30/08/2026 21h 57' 55" ERR. Ther. 14 HS.
30/08/2026 21h 57' 43" Ping reçu, 2461
30/08/2026 21h 57' 42" Enregistrement de la température (21,276 °C)
30/08/2026 21h 57' 39" Ping reçu,         2460
30/08/2026 21h 57' 36" Ping reçu, 2459
30/08/2026 21h 57' 32" Ping reçu, 2458
30/08/2026 21h 57' 28" Ping reçu, 2457
30/08/2026 21h 57' 27" cPing.
30/08/2026 21h 57' 24" Ping reçu, 2456
30/08/2026 21h 57' 20" Ping reçu,         2455
30/08/2026 21h 57' 06" Ping reçu, 2452
30/08/2026 21h 57' 02" Ping reçu, 2451
30/08/2026 21h 56' 54" Ping reçu, 2449
30/08/2026 21h 56' 51" Ping reçu, 2448
30/08/2026 21h 56' 45" Ping reçu, 2447
30/08/2026 21h 56' 42" Ping reçu, 2446
30/08/2026 21h 56' 30" cPing.
30/08/2026 21h 56' 30" Ping reçu, 2443
30/08/2026 21h 56' 17" Ping reçu,         2440
30/08/2026 21h 56' 13" Ping reçu, 2439
30/08/2026 21h 56' 08" Ping reçu, 2438
30/08/2026 21h 56' 04" Ping reçu, 2437
30/08/2026 21h 56' 00" Ping reçu, 2436
30/08/2026 21h 55' 53" Ping reçu, 2434
30/08/2026 21h 55' 45" Ping reçu, 2432
30/08/2026 21h 55' 35" Ping reçu,         2430
30/08/2026 21h 55' 35" cPing.
30/08/2026 21h 55' 27" Ping reçu, 2428
30/08/2026 21h 55' 23" Ping reçu, 2427
30/08/2026 21h 55' 18" Ping reçu, 2426
30/08/2026 21h 55' 14" Ping reçu,         2425
30/08/2026 21h 55' 10" Ping reçu, 2424
30/08/2026 21h 55' 06" Ping reçu, 2423
30/08/2026 21h 54' 59" Ping reçu, 2422
30/08/2026 21h 54' 55" Ping reçu, 2421
30/08/2026 21h 54' 54" Enregistrement de l'éclairement (345.6 lux & 0 lux )
30/08/2026 21h 54' 51" Ping reçu,         2420
30/08/2026 21h 54' 38" Ping reçu, 2417
30/08/2026 21h 54' 38" cPing.
30/08/2026 21h 54' 33" Ping reçu, 2416
30/08/2026 21h 54' 29" Ping reçu,         2415
30/08/2026 21h 54' 25" Ping reçu, 2414
30/08/2026 21h 54' 21" Ping reçu, 2413
30/08/2026 21h 54' 18" Ping reçu, 2412
30/08/2026 21h 54' 10" Ping reçu,         2410
30/08/2026 21h 54' 01" Ping reçu, 2408
30/08/2026 21h 53' 57" ERR. Ther. 1 HS.
30/08/2026 21h 53' 57" ERR. Ther. 14 HS.
30/08/2026 21h 53' 57" Ping reçu, 2407
30/08/2026 21h 53' 53" Ping reçu, 2406
30/08/2026 21h 53' 47" Enregistrement de l'éclairement (345.6 lux & 0 lux )
30/08/2026 21h 53' 43" cPing.
30/08/2026 21h 53' 39" Ping reçu, 2403
30/08/2026 21h 53' 30" Ping reçu, 2401
30/08/2026 21h 53' 29" Pressions pluviométriques (32,07 & 64,00)
30/08/2026 21h 53' 29" Enregistrement de la température (21,309 °C)
30/08/2026 21h 53' 26" Enregistrement de la Pression atmosphérique (1026,634 hPa)
30/08/2026 21h 53' 21" Ping reçu, 2399
30/08/2026 21h 53' 12" Ping reçu, 2397
30/08/2026 21h 52' 59" Ping reçu, 2394
30/08/2026 21h 52' 50" Ping reçu, 2392
30/08/2026 21h 52' 46" Ping reçu, 2391
30/08/2026 21h 52' 46" cPing.
30/08/2026 21h 52' 42" Ping reçu,         2390
30/08/2026 21h 52' 37" Ping reçu, 2389
30/08/2026 21h 52' 33" Ping reçu, 2388
30/08/2026 21h 52' 24" Ping reçu, 2386
30/08/2026 21h 52' 17" Ping reçu, 2384
30/08/2026 21h 52' 12" Ping reçu, 2383
30/08/2026 21h 52' 04" Ping reçu, 2381
30/08/2026 21h 51' 55" Ping reçu, 2379
30/08/2026 21h 51' 51" Ping reçu, 2378
30/08/2026 21h 51' 51" cPing.
30/08/2026 21h 51' 47" Ping reçu, 2377
30/08/2026 21h 51' 42" Ping reçu, 2376
30/08/2026 21h 51' 38" Ping reçu,         2375
30/08/2026 21h 51' 34" Ping reçu, 2374
30/08/2026 21h 51' 29" Ping reçu, 2373
30/08/2026 21h 51' 25" Ping reçu, 2372
30/08/2026 21h 51' 23" Ping reçu, 2371
30/08/2026 21h 51' 19" Ping reçu,         2370
30/08/2026 21h 51' 14" Ping reçu, 2369
30/08/2026 21h 51' 05" Ping reçu, 2367
30/08/2026 21h 51' 01" Ping reçu, 2366
30/08/2026 21h 50' 54" cPing.
30/08/2026 21h 50' 53" Ping reçu, 2364
30/08/2026 21h 50' 48" Ping reçu, 2363
30/08/2026 21h 50' 40" Ping reçu, 2361
30/08/2026 21h 50' 36" Ping reçu,         2360
30/08/2026 21h 50' 33" Ping reçu, 2359
30/08/2026 21h 50' 24" Ping reçu, 2357
30/08/2026 21h 50' 22" Enregistrement de l'éclairement (345.6 lux & 0 lux )
30/08/2026 21h 50' 12" Ping reçu, 2354
30/08/2026 21h 50' 03" Ping reçu, 2352
30/08/2026 21h 49' 59" cPing.
30/08/2026 21h 49' 59" ERR. Ther. 1 HS.
30/08/2026 21h 49' 58" Ping reçu, 2351
30/08/2026 21h 49' 54" Ping reçu, 1
30/08/2026 21h 49' 50" Ping reçu, 2349
30/08/2026 21h 49' 45" Ping reçu, 2348
30/08/2026 21h 49' 41" Ping reçu, 2347
30/08/2026 21h 49' 32" Ping reçu,         2345
30/08/2026 21h 49' 32" On a tout sauvé !
30/08/2026 21h 49' 27" Ping reçu, 2344
30/08/2026 21h 49' 23" Ping reçu, 2343
30/08/2026 21h 49' 19" Ping reçu, 2342
30/08/2026 21h 49' 15" Ping reçu, 2341
30/08/2026 21h 49' 14" Enregistrement de l'éclairement (345.6 lux & 0 lux )
30/08/2026 21h 49' 12" Ping reçu,         2340
30/08/2026 21h 49' 06" Ping reçu, 2339
30/08/2026 21h 49' 02" cPing.
30/08/2026 21h 48' 55" Ping reçu, 2336
30/08/2026 21h 48' 46" Ping reçu, 2334
30/08/2026 21h 48' 42" Ping reçu, 2333
30/08/2026 21h 48' 24" Ping reçu, 2329
30/08/2026 21h 48' 20" Ping reçu, 2328
30/08/2026 21h 48' 16" Ping reçu, 2327
30/08/2026 21h 48' 08" Ping reçu,         2325
30/08/2026 21h 48' 06" cPing.
30/08/2026 21h 48' 05" Ping reçu, 2324
30/08/2026 21h 48' 00" Ping reçu, 2323
30/08/2026 21h 47' 56" Ping reçu, 2322
30/08/2026 21h 47' 52" Ping reçu, 2321
30/08/2026 21h 47' 48" Enregistrement des paramètres du vent (49.1° @ 0 m/s)
30/08/2026 21h 47' 39" Ping reçu, 2318
30/08/2026 21h 47' 35" Ping reçu, 2317
30/08/2026 21h 47' 30" Ping reçu, 2316
30/08/2026 21h 47' 26" Ping reçu,         2315
30/08/2026 21h 47' 21" Ping reçu, 2314
30/08/2026 21h 47' 17" Ping reçu, 2313
30/08/2026 21h 47' 13" Ping reçu, 2312
30/08/2026 21h 47' 11" cPing.
30/08/2026 21h 47' 09" Ping reçu, 2311
30/08/2026 21h 47' 05" Ping reçu,         2310
30/08/2026 21h 47' 02" Ping reçu, 2309
30/08/2026 21h 46' 58" Ping reçu, 2308
30/08/2026 21h 46' 45" Ping reçu,         2305
30/08/2026 21h 46' 32" Ping reçu, 2302
30/08/2026 21h 46' 27" Ping reçu, 2301
30/08/2026 21h 46' 23" Ping reçu,         2300
30/08/2026 21h 46' 19" Ping reçu, 2299
30/08/2026 21h 46' 15" Ping reçu, 2298
30/08/2026 21h 46' 14" cPing.
30/08/2026 21h 46' 12" Ping reçu, 2297
30/08/2026 21h 46' 08" Ping reçu, 2296
30/08/2026 21h 46' 05" ERR. Ther. 1 HS.
30/08/2026 21h 46' 05" ERR. Ther. 14 HS.
30/08/2026 21h 46' 00" Ping reçu, 2294
30/08/2026 21h 45' 51" Enregistrement de l'éclairement (345.6 lux & 0 lux )
30/08/2026 21h 45' 50" Enregistrement de l'Arduino : (26,3 °C)
30/08/2026 21h 45' 43" Ping reçu, 2291
30/08/2026 21h 45' 39" Ping reçu,         2290
30/08/2026 21h 45' 32" Ping reçu, 2288
30/08/2026 21h 45' 28" Ping reçu, 2287
30/08/2026 21h 45' 20" Ping reçu,         2285
30/08/2026 21h 45' 19" cPing.
30/08/2026 21h 45' 15" Ping reçu, 2284
30/08/2026 21h 45' 11" Ping reçu, 2283
30/08/2026 21h 45' 06" Ping reçu, 2282
30/08/2026 21h 45' 03" Ping reçu, 2281
30/08/2026 21h 45' 02" Enregistrement de la température (21,470 °C)
30/08/2026 21h 45' 00" Ping reçu,         2280
30/08/2026 21h 45' 00" Enregistrement de la Pression atmosphérique (1026,628 hPa)
30/08/2026 21h 44' 50" Ping reçu, 2278
30/08/2026 21h 44' 47" Ping reçu, 2277
30/08/2026 21h 44' 44" Enregistrement de l'éclairement (345.6 lux & 0 lux )
30/08/2026 21h 44' 22" cPing.
30/08/2026 21h 44' 21" Ping reçu, 2271
30/08/2026 21h 44' 12" Ping reçu, 2269
30/08/2026 21h 44' 08" Ping reçu, 2268
30/08/2026 21h 44' 03" Ping reçu, 2267
30/08/2026 21h 43' 50" Ping reçu, 2264
30/08/2026 21h 43' 42" Ping reçu, 2262
30/08/2026 21h 43' 33" Ping reçu,         2260
30/08/2026 21h 43' 26" Ping reçu, 2258
30/08/2026 21h 43' 26" cPing.
30/08/2026 21h 43' 22" Ping reçu, 2257
30/08/2026 21h 43' 18" Ping reçu, 2256
30/08/2026 21h 43' 05" Ping reçu, 2253
30/08/2026 21h 43' 00" Ping reçu, 2252
30/08/2026 21h 42' 56" Ping reçu, 2251
30/08/2026 21h 42' 52" Ping reçu,         2250
30/08/2026 21h 42' 46" Ping reçu, 2249
30/08/2026 21h 42' 37" Ping reçu, 2247
30/08/2026 21h 42' 29" Enregistrement de l'éclairement (345.6 lux & 0 lux )
30/08/2026 21h 42' 29" cPing.
30/08/2026 21h 42' 29" Ping reçu,         2245
30/08/2026 21h 42' 20" Ping reçu, 2243
30/08/2026 21h 42' 11" Pressions pluviométriques (32,07 & 64,00)
30/08/2026 21h 42' 11" Enregistrement de la hauteur d'eau (783,560 mm @ 99,8%)
30/08/2026 21h 42' 09" Ping reçu,         2240
30/08/2026 21h 42' 07" Enregistrement de l'humidité (83,83 %)
30/08/2026 21h 42' 06" Enregistrement des paramètres du vent (49.1° @ 0 m/s)
30/08/2026 21h 42' 02" ERR. Ther. 1 HS.
30/08/2026 21h 42' 02" Ping reçu, 2239
30/08/2026 21h 41' 39" Ping reçu, 2234
30/08/2026 21h 41' 34" cPing.
30/08/2026 21h 41' 14" Ping reçu, 2228
30/08/2026 21h 41' 05" Ping reçu, 2226
30/08/2026 21h 41' 02" Ping reçu,         2225
30/08/2026 21h 40' 58" Ping reçu, 2224
30/08/2026 21h 40' 49" Ping reçu, 2222
30/08/2026 21h 40' 45" Ping reçu, 2221
30/08/2026 21h 40' 44" Enregistrement de la température (21,553 °C)
30/08/2026 21h 40' 41" Ping reçu,         2220
30/08/2026 21h 40' 37" cPing.
30/08/2026 21h 40' 36" Ping reçu, 2219
30/08/2026 21h 40' 32" Ping reçu, 2218
30/08/2026 21h 40' 27" Ping reçu, 2217
30/08/2026 21h 40' 23" Ping reçu, 2216
30/08/2026 21h 40' 19" Ping reçu,         2215
30/08/2026 21h 40' 15" Ping reçu, 2214
30/08/2026 21h 40' 08" Ping reçu, 2212
30/08/2026 21h 39' 59" Ping reçu,         2210
30/08/2026 21h 39' 55" Ping reçu, 2209
30/08/2026 21h 39' 46" Ping reçu, 2207
30/08/2026 21h 39' 42" cPing.
30/08/2026 21h 39' 38" Ping reçu,         2205
30/08/2026 21h 39' 33" Ping reçu, 2204
30/08/2026 21h 39' 29" Ping reçu, 2203
30/08/2026 21h 39' 20" Ping reçu, 2201
30/08/2026 21h 39' 16" Ping reçu,         2200
30/08/2026 21h 39' 09" Ping reçu, 2198
30/08/2026 21h 39' 05" Ping reçu, 2197
30/08/2026 21h 39' 01" Ping reçu, 2196
30/08/2026 21h 38' 52" Ping reçu, 2194
30/08/2026 21h 38' 48" Ping reçu, 2193
30/08/2026 21h 38' 45" cPing.
30/08/2026 21h 38' 44" Ping reçu, 2192
30/08/2026 21h 38' 39" Ping reçu, 2191
30/08/2026 21h 38' 35" Ping reçu,         2190
30/08/2026 21h 38' 30" Ping reçu, 2189
30/08/2026 21h 38' 22" Ping reçu, 2187
30/08/2026 21h 38' 14" Ping reçu,         2185
30/08/2026 21h 38' 09" Ping reçu, 2184
30/08/2026 21h 38' 07" ERR. Ther. 1 HS.
30/08/2026 21h 38' 06" Ping reçu, 2183
30/08/2026 21h 37' 56" Ping reçu, 2181
30/08/2026 21h 37' 55" Enregistrement de l'éclairement (345.6 lux & 0 lux )
30/08/2026 21h 37' 53" Ping reçu,         2180
30/08/2026 21h 37' 50" Ping reçu, 2179
30/08/2026 21h 37' 50" cPing.
30/08/2026 21h 37' 41" Ping reçu, 2177
30/08/2026 21h 37' 36" Ping reçu, 2176
30/08/2026 21h 37' 32" Ping reçu,         2175
30/08/2026 21h 37' 28" Ping reçu, 2174
30/08/2026 21h 37' 24" Ping reçu, 2173
30/08/2026 21h 37' 12" Ping reçu,         2170
30/08/2026 21h 37' 08" Ping reçu, 2169
30/08/2026 21h 37' 04" Ping reçu, 2168
30/08/2026 21h 37' 00" Ping reçu, 2167
30/08/2026 21h 36' 56" Ping reçu, 2166
30/08/2026 21h 36' 53" cPing.
30/08/2026 21h 36' 48" Enregistrement de l'éclairement (345.6 lux & 0 lux )
30/08/2026 21h 36' 42" Ping reçu, 2163
30/08/2026 21h 36' 38" Ping reçu, 2162
30/08/2026 21h 36' 34" Ping reçu, 2161
30/08/2026 21h 36' 33" Enregistrement de la température (21,641 °C)
30/08/2026 21h 36' 30" Ping reçu,         2160
30/08/2026 21h 36' 30" Enregistrement de la Pression atmosphérique (1026,615 hPa)
30/08/2026 21h 36' 24" Ping reçu, 2159
30/08/2026 21h 36' 16" Ping reçu, 2157
30/08/2026 21h 36' 12" Ping reçu, 2156
30/08/2026 21h 36' 08" Ping reçu,         2155
30/08/2026 21h 35' 57" cPing.
30/08/2026 21h 35' 56" Ping reçu, 2152
30/08/2026 21h 35' 52" Ping reçu, 2151
30/08/2026 21h 35' 48" Ping reçu,         2150
30/08/2026 21h 35' 43" Ping reçu, 2149
30/08/2026 21h 35' 35" Ping reçu, 2147
30/08/2026 21h 35' 30" Ping reçu, 2146
30/08/2026 21h 35' 22" Ping reçu, 2144
30/08/2026 21h 35' 22" Ping reçu, 1
30/08/2026 21h 35' 17" Ping reçu, 2143
30/08/2026 21h 35' 13" Ping reçu, 2142
30/08/2026 21h 35' 09" On a tout sauvé !
30/08/2026 21h 35' 08" Ping reçu, 2141
30/08/2026 21h 35' 04" Ping reçu,         2140
30/08/2026 21h 35' 02" cPing.
30/08/2026 21h 35' 00" Ping reçu, 2139
30/08/2026 21h 34' 55" Ping reçu, 2138
30/08/2026 21h 34' 51" Ping reçu, 2137
30/08/2026 21h 34' 39" Ping reçu, 2134
30/08/2026 21h 34' 35" Ping reçu, 2133
30/08/2026 21h 34' 33" Enregistrement de l'éclairement (345.6 lux & 0 lux )
30/08/2026 21h 34' 31" Ping reçu, 2132
30/08/2026 21h 34' 23" Ping reçu,         2130
30/08/2026 21h 34' 18" Ping reçu, 2129
30/08/2026 21h 34' 14" Ping reçu, 2128
30/08/2026 21h 34' 10" ERR. Ther. 1 HS.
30/08/2026 21h 34' 09" Ping reçu, 2127
30/08/2026 21h 34' 05" cPing.
30/08/2026 21h 34' 05" Ping reçu, 2126
30/08/2026 21h 33' 56" Ping reçu, 2124
30/08/2026 21h 33' 52" Ping reçu, 2123
30/08/2026 21h 33' 48" Ping reçu, 2122
30/08/2026 21h 33' 39" Ping reçu,         2120
30/08/2026 21h 33' 32" Ping reçu, 2118
30/08/2026 21h 33' 28" Ping reçu, 2117
30/08/2026 21h 33' 20" Ping reçu,         2115
30/08/2026 21h 33' 15" Ping reçu, 2114
30/08/2026 21h 33' 10" cPing.
30/08/2026 21h 33' 07" Ping reçu, 2112
30/08/2026 21h 32' 58" Ping reçu,         2110
30/08/2026 21h 32' 54" Ping reçu, 2109
30/08/2026 21h 32' 45" Ping reçu, 2107
30/08/2026 21h 32' 38" Ping reçu,         2105
30/08/2026 21h 32' 34" Ping reçu, 2104
30/08/2026 21h 32' 20" Enregistrement de l'Arduino : (26,3 °C)
30/08/2026 21h 32' 17" Enregistrement de l'éclairement (345.6 lux & 0 lux )
30/08/2026 21h 32' 16" Enregistrement de l'humidité (82,19 %)
30/08/2026 21h 32' 14" Ping reçu,         2100
30/08/2026 21h 32' 13" cPing.
30/08/2026 21h 32' 09" Ping reçu, 2099
30/08/2026 21h 32' 05" Ping reçu, 2098
30/08/2026 21h 32' 02" Ping reçu, 2097
30/08/2026 21h 31' 58" Ping reçu, 2096
30/08/2026 21h 31' 53" Ping reçu,         2095
30/08/2026 21h 31' 44" Ping reçu, 2093
30/08/2026 21h 31' 36" Ping reçu, 2091
30/08/2026 21h 31' 32" Ping reçu,         2090
30/08/2026 21h 31' 18" Ping reçu, 2087
30/08/2026 21h 31' 18" cPing.
30/08/2026 21h 31' 10" Ping reçu,         2085
30/08/2026 21h 31' 06" Enregistrement de l'éclairement (345.6 lux & 0 lux )
30/08/2026 21h 31' 02" Ping reçu, 2083
30/08/2026 21h 30' 59" Ping reçu, 2082
30/08/2026 21h 30' 50" Enregistrement de la hauteur d'eau (783,250 mm @ 99,8%)
30/08/2026 21h 30' 43" Ping reçu, 2079
30/08/2026 21h 30' 39" Ping reçu, 2078
30/08/2026 21h 30' 36" Ping reçu, 2077
30/08/2026 21h 30' 32" Enregistrement Température du pluviometre : (24,0 °C)
30/08/2026 21h 30' 24" Ping reçu,         2075
30/08/2026 21h 30' 21" cPing.
30/08/2026 21h 30' 20" Ping reçu, 2074
30/08/2026 21h 30' 11" Ping reçu, 2072
30/08/2026 21h 30' 09" ERR. Ther. 1 HS.
30/08/2026 21h 30' 09" ERR. Ther. 14 HS.
30/08/2026 21h 30' 02" Ping reçu,         2070
30/08/2026 21h 29' 58" Ping reçu, 2069
30/08/2026 21h 29' 57" Enregistrement de l'éclairement (345.6 lux & 0 lux )
30/08/2026 21h 29' 54" Ping reçu, 2068
30/08/2026 21h 29' 50" Ping reçu, 2067
30/08/2026 21h 29' 43" Ping reçu,         2065
30/08/2026 21h 29' 43" Rw SD-card.
30/08/2026 21h 29' 38" Ping reçu, 2064
30/08/2026 21h 29' 29" Ping reçu, 2062
30/08/2026 21h 29' 26" cPing.
30/08/2026 21h 29' 25" Ping reçu, 2061
30/08/2026 21h 29' 17" Ping reçu, 2059
30/08/2026 21h 28' 59" Ping reçu,         2055
30/08/2026 21h 28' 37" Ping reçu,         2050
30/08/2026 21h 28' 30" Ping reçu, 2048
30/08/2026 21h 28' 28" cPing.
30/08/2026 21h 28' 26" Ping reçu, 2047
30/08/2026 21h 28' 22" Ping reçu, 2046
30/08/2026 21h 28' 14" Ping reçu, 2044
30/08/2026 21h 28' 09" Ping reçu, 2043
30/08/2026 21h 28' 05" Ping reçu, 2042
30/08/2026 21h 28' 01" Ping reçu, 2041
30/08/2026 21h 28' 00" Enregistrement de la température (21,814 °C)
30/08/2026 21h 27' 51" Ping reçu, 2039
30/08/2026 21h 27' 43" Ping reçu, 2037
30/08/2026 21h 27' 42" Enregistrement de l'éclairement (345.6 lux & 0 lux )
30/08/2026 21h 27' 36" Ping reçu,         2035
30/08/2026 21h 27' 33" cPing.
30/08/2026 21h 27' 28" Ping reçu, 2033
30/08/2026 21h 27' 24" Ping reçu, 2032
30/08/2026 21h 27' 19" Ping reçu, 2031
30/08/2026 21h 27' 15" Ping reçu,         2030
30/08/2026 21h 26' 57" Ping reçu, 2026
30/08/2026 21h 26' 53" Ping reçu,         2025
30/08/2026 21h 26' 48" Ping reçu, 2024
30/08/2026 21h 26' 36" cPing.
30/08/2026 21h 26' 35" Enregistrement de l'éclairement (345.6 lux & 0 lux )
30/08/2026 21h 26' 27" Ping reçu, 2019
30/08/2026 21h 26' 24" Ping reçu, 2018
30/08/2026 21h 26' 20" Ping reçu, 2017
30/08/2026 21h 26' 16" Ping reçu, 2016
30/08/2026 21h 26' 12" ERR. Ther. 1 HS.
30/08/2026 21h 26' 11" Ping reçu,         2015
30/08/2026 21h 26' 07" Ping reçu, 2014
30/08/2026 21h 26' 03" Ping reçu, 2013
30/08/2026 21h 25' 59" Ping reçu, 2012
30/08/2026 21h 25' 54" Ping reçu, 2011
30/08/2026 21h 25' 50" Ping reçu,         2010
30/08/2026 21h 25' 41" cPing.
30/08/2026 21h 25' 37" Ping reçu, 2007
30/08/2026 21h 25' 33" Ping reçu, 2006
30/08/2026 21h 25' 29" Ping reçu,         2005
30/08/2026 21h 25' 27" Enregistrement de l'éclairement (345.6 lux & 0 lux )
30/08/2026 21h 25' 26" Ping reçu, 2004
30/08/2026 21h 25' 22" Ping reçu, 2003
30/08/2026 21h 25' 17" Ping reçu, 2002
30/08/2026 21h 25' 13" Ping reçu, 2001
30/08/2026 21h 25' 04" Ping reçu, 1999
30/08/2026 21h 25' 00" Ping reçu, 1998
30/08/2026 21h 24' 56" Ping reçu, 1997
30/08/2026 21h 24' 45" cPing.
30/08/2026 21h 24' 38" Ping reçu, 1993
30/08/2026 21h 24' 34" Ping reçu, 1992
30/08/2026 21h 24' 30" Ping reçu, 1991
30/08/2026 21h 24' 27" Ping reçu,         1990
30/08/2026 21h 24' 21" Ping reçu, 1989
30/08/2026 21h 24' 20" Enregistrement de l'éclairement (345.6 lux & 0 lux )
30/08/2026 21h 24' 18" Ping reçu, 1988
30/08/2026 21h 24' 14" Ping reçu, 1987
30/08/2026 21h 24' 06" Ping reçu,         1985
30/08/2026 21h 24' 02" Ping reçu, 1984
30/08/2026 21h 23' 57" Ping reçu, 1983
30/08/2026 21h 23' 53" Ping reçu, 1982
30/08/2026 21h 23' 48" cPing.
30/08/2026 21h 23' 39" Ping reçu, 1979
30/08/2026 21h 23' 35" Ping reçu, 1978
30/08/2026 21h 23' 31" Ping reçu, 1977
30/08/2026 21h 23' 27" Ping reçu, 1976
30/08/2026 21h 23' 24" Ping reçu,         1975
30/08/2026 21h 23' 14" Ping reçu, 1973
30/08/2026 21h 23' 11" Ping reçu, 1972
30/08/2026 21h 23' 07" Ping reçu, 1971
30/08/2026 21h 22' 53" cPing.
30/08/2026 21h 22' 49" Ping reçu, 1967
30/08/2026 21h 22' 41" Ping reçu,         1965
30/08/2026 21h 22' 36" Ping reçu, 1964
30/08/2026 21h 22' 32" Ping reçu, 1963
30/08/2026 21h 22' 20" Enregistrement de l'humidité (80,04 %)
30/08/2026 21h 22' 19" Ping reçu,         1960
30/08/2026 21h 22' 17" ERR. Ther. 14 HS.
30/08/2026 21h 22' 15" ERR. Ther. 1 HS.
30/08/2026 21h 22' 10" Ping reçu, 1958
30/08/2026 21h 22' 06" Ping reçu, 1957
30/08/2026 21h 21' 59" Ping reçu,         1955
30/08/2026 21h 21' 56" cPing.
30/08/2026 21h 21' 35" Ping reçu,         1950
30/08/2026 21h 21' 32" Ping reçu, 1949
30/08/2026 21h 21' 23" Ping reçu, 1947
30/08/2026 21h 21' 19" Ping reçu, 1946
30/08/2026 21h 21' 15" Ping reçu,         1945
30/08/2026 21h 21' 11" Ping reçu, 1944
30/08/2026 21h 21' 02" Ping reçu, 1942
30/08/2026 21h 21' 01" cPing.
30/08/2026 21h 20' 57" Ping reçu, 1941
30/08/2026 21h 20' 54" Enregistrement de l'éclairement (345.6 lux & 0 lux )
30/08/2026 21h 20' 53" Ping reçu,         1940
30/08/2026 21h 20' 45" Ping reçu, 1938
30/08/2026 21h 20' 42" Ping reçu, 1937
30/08/2026 21h 20' 31" Ping reçu,         1935
30/08/2026 21h 20' 27" Ping reçu, 1934
30/08/2026 21h 20' 24" Ping reçu, 1933
30/08/2026 21h 20' 20" Ping reçu, 1932
30/08/2026 21h 20' 16" Ping reçu, 1931
30/08/2026 21h 20' 12" Ping reçu,         1930
30/08/2026 21h 20' 08" Ping reçu, 1929
30/08/2026 21h 20' 04" cPing.
30/08/2026 21h 19' 59" Ping reçu, 1927
30/08/2026 21h 19' 54" Ping reçu, 1926
30/08/2026 21h 19' 49" Enregistrement de l'éclairement (345.6 lux & 0 lux )
30/08/2026 21h 19' 42" Ping reçu, 1923
30/08/2026 21h 19' 32" Enregistrement de la température (21,989 °C)
30/08/2026 21h 19' 32" Pressions pluviométriques (32,07 & 64,00)
30/08/2026 21h 19' 31" Ping reçu,         1920
30/08/2026 21h 19' 31" Enregistrement de la hauteur d'eau (782,930 mm @ 99,8%)
30/08/2026 21h 19' 29" Enregistrement de la Pression atmosphérique (1026,452 hPa)
30/08/2026 21h 19' 14" Ping reçu, 1917
30/08/2026 21h 19' 10" Ping reçu, 1916
30/08/2026 21h 19' 09" cPing.
30/08/2026 21h 19' 06" Ping reçu,         1915
30/08/2026 21h 19' 02" Ping reçu, 1914
30/08/2026 21h 18' 55" Ping reçu, 1912
30/08/2026 21h 18' 51" Ping reçu, 1911
30/08/2026 21h 18' 46" Enregistrement de l'Arduino : (26,5 °C)
30/08/2026 21h 18' 44" Ping reçu,         1910
30/08/2026 21h 18' 41" Ping reçu, 1909
30/08/2026 21h 18' 38" Enregistrement de l'éclairement (345.6 lux & 0 lux )
30/08/2026 21h 18' 37" Ping reçu, 1908
30/08/2026 21h 18' 29" Ping reçu, 1906
30/08/2026 21h 18' 24" Ping reçu,         1905
30/08/2026 21h 18' 20" Ping reçu, 1904
30/08/2026 21h 18' 16" ERR. Ther. 1 HS.
30/08/2026 21h 18' 16" ERR. Ther. 14 HS.
30/08/2026 21h 18' 14" Enregistrement Température du pluviometre : (24,1 °C)
30/08/2026 21h 18' 12" cPing.
30/08/2026 21h 18' 07" Ping reçu, 1902
30/08/2026 21h 18' 03" Ping reçu, 1901
30/08/2026 21h 18' 00" Ping reçu,         1900
30/08/2026 21h 17' 52" Ping reçu, 1898
30/08/2026 21h 17' 43" Ping reçu, 1896
30/08/2026 21h 17' 39" Ping reçu,         1895
30/08/2026 21h 17' 35" Ping reçu, 1894
30/08/2026 21h 17' 30" Ping reçu, 1893
30/08/2026 21h 17' 30" Enregistrement de l'éclairement (345.6 lux & 0 lux )
30/08/2026 21h 17' 26" Ping reçu, 1892
30/08/2026 21h 17' 22" Ping reçu, 1891
30/08/2026 21h 17' 18" Ping reçu,         1890
30/08/2026 21h 17' 17" cPing.
30/08/2026 21h 17' 14" Ping reçu, 1889
30/08/2026 21h 17' 09" Ping reçu, 1888
30/08/2026 21h 17' 02" Ping reçu, 1886
30/08/2026 21h 16' 56" Ping reçu,         1885
30/08/2026 21h 16' 49" Ping reçu, 1883
30/08/2026 21h 16' 45" Ping reçu, 1882
30/08/2026 21h 16' 36" Ping reçu,         1880
30/08/2026 21h 16' 32" Ping reçu, 1879
30/08/2026 21h 16' 23" Ping reçu, 1877
30/08/2026 21h 16' 21" cPing.
30/08/2026 21h 16' 19" Ping reçu, 1876
30/08/2026 21h 16' 15" Ping reçu,         1875
30/08/2026 21h 16' 12" Ping reçu, 1874
30/08/2026 21h 16' 06" Ping reçu, 1873
30/08/2026 21h 15' 57" Ping reçu, 1871
30/08/2026 21h 15' 54" Ping reçu,         1870
30/08/2026 21h 15' 42" Ping reçu, 1867
30/08/2026 21h 15' 38" Ping reçu, 1866
30/08/2026 21h 15' 33" Ping reçu,         1865
30/08/2026 21h 15' 29" Ping reçu, 1864
30/08/2026 21h 15' 25" Ping reçu, 1863
30/08/2026 21h 15' 24" cPing.
30/08/2026 21h 15' 21" Ping reçu, 1862
30/08/2026 21h 15' 17" Enregistrement de l'éclairement (345.6 lux & 0 lux )
30/08/2026 21h 15' 16" Enregistrement de la température (22,092 °C)
30/08/2026 21h 15' 09" Ping reçu, 1859
30/08/2026 21h 15' 05" Ping reçu, 1858
30/08/2026 21h 15' 01" Ping reçu, 1857
30/08/2026 21h 14' 57" Ping reçu, 1856
30/08/2026 21h 14' 53" Ping reçu,         1855
30/08/2026 21h 14' 48" Ping reçu, 1854
30/08/2026 21h 14' 44" Ping reçu, 1853
30/08/2026 21h 14' 40" Ping reçu, 1852
30/08/2026 21h 14' 36" Ping reçu, 1851
30/08/2026 21h 14' 32" Ping reçu,         1850
30/08/2026 21h 14' 29" Ping reçu, 1849
30/08/2026 21h 14' 29" cPing.
30/08/2026 21h 14' 25" Ping reçu, 1848
30/08/2026 21h 14' 21" ERR. Ther. 14 HS.
30/08/2026 21h 14' 07" Ping reçu, 1844
30/08/2026 21h 13' 58" Ping reçu, 1842
30/08/2026 21h 13' 54" Ping reçu, 1841
30/08/2026 21h 13' 50" Ping reçu,         1840
30/08/2026 21h 13' 45" Ping reçu, 1839
30/08/2026 21h 13' 41" Ping reçu, 1838
30/08/2026 21h 13' 36" Ping reçu, 1837
30/08/2026 21h 13' 32" Ping reçu, 1836
30/08/2026 21h 13' 32" cPing.
30/08/2026 21h 13' 15" Ping reçu, 1832
30/08/2026 21h 13' 12" Ping reçu, 1831
30/08/2026 21h 13' 04" Ping reçu, 1829
30/08/2026 21h 13' 01" Enregistrement de l'éclairement (345.6 lux & 0 lux )
30/08/2026 21h 13' 00" Ping reçu, 1828
30/08/2026 21h 12' 51" Ping reçu, 1826
30/08/2026 21h 12' 47" Ping reçu,         1825
30/08/2026 21h 12' 36" cPing.
30/08/2026 21h 12' 29" Ping reçu, 1821
30/08/2026 21h 12' 20" Ping reçu, 1819
30/08/2026 21h 12' 09" Ping reçu, 1816
30/08/2026 21h 12' 05" Ping reçu,         1815
30/08/2026 21h 12' 01" Ping reçu, 1814
30/08/2026 21h 11' 53" Enregistrement de l'éclairement (345.6 lux & 0 lux )
30/08/2026 21h 11' 52" Ping reçu, 1812
30/08/2026 21h 11' 48" Ping reçu, 1811
30/08/2026 21h 11' 44" Ping reçu,         1810
30/08/2026 21h 11' 39" cPing.
30/08/2026 21h 11' 35" Ping reçu, 1808
30/08/2026 21h 11' 30" Ping reçu, 1807
30/08/2026 21h 11' 26" Ping reçu, 1806
30/08/2026 21h 11' 22" Ping reçu,         1805
30/08/2026 21h 11' 18" Ping reçu, 1804
30/08/2026 21h 11' 14" Ping reçu, 1803
30/08/2026 21h 11' 11" Ping reçu, 1802
30/08/2026 21h 11' 05" Ping reçu, 1801
30/08/2026 21h 11' 03" Enregistrement de la température (22,198 °C)
30/08/2026 21h 11' 02" Enregistrement de la Pression atmosphérique (1026,358 hPa)
30/08/2026 21h 10' 56" Ping reçu, 1799
30/08/2026 21h 10' 47" Ping reçu, 1797
30/08/2026 21h 10' 44" cPing.
30/08/2026 21h 10' 40" Ping reçu,         1795
30/08/2026 21h 10' 36" Ping reçu, 1794
30/08/2026 21h 10' 27" Ping reçu, 1792
30/08/2026 21h 10' 23" Ping reçu, 1791
30/08/2026 21h 10' 18" Ping reçu,         1790
30/08/2026 21h 10' 14" Ping reçu, 1789
30/08/2026 21h 10' 01" Ping reçu, 1786
30/08/2026 21h 09' 59" Ping reçu,         1785
30/08/2026 21h 09' 54" Ping reçu, 1784
30/08/2026 21h 09' 50" Ping reçu, 1783
30/08/2026 21h 09' 47" cPing.
30/08/2026 21h 09' 46" Ping reçu, 1782
30/08/2026 21h 09' 38" Ping reçu,         1780
30/08/2026 21h 09' 20" Ping reçu, 1776
30/08/2026 21h 09' 11" Ping reçu, 1774
30/08/2026 21h 09' 07" Ping reçu, 1773
30/08/2026 21h 09' 03" Ping reçu, 1772
30/08/2026 21h 08' 54" Ping reçu,         1770
30/08/2026 21h 08' 52" cPing.
30/08/2026 21h 08' 51" Ping reçu, 1769
30/08/2026 21h 08' 47" Ping reçu, 1768
30/08/2026 21h 08' 43" Ping reçu, 1767
30/08/2026 21h 08' 39" Ping reçu, 1766
30/08/2026 21h 08' 35" Ping reçu,         1765
30/08/2026 21h 08' 30" Ping reçu, 1764
30/08/2026 21h 08' 22" Ping reçu, 1762
30/08/2026 21h 08' 18" Ping reçu, 1761
30/08/2026 21h 08' 14" Enregistrement de la hauteur d'eau (783,030 mm @ 99,8%)
30/08/2026 21h 08' 12" Enregistrement des paramètres du vent (49.1° @ 0 m/s)
30/08/2026 21h 08' 08" Ping reçu, 1759
30/08/2026 21h 08' 00" Ping reçu, 1757
30/08/2026 21h 07' 55" Ping reçu, 1756
30/08/2026 21h 07' 55" cPing.
30/08/2026 21h 07' 51" Ping reçu,         1755
30/08/2026 21h 07' 40" Ping reçu, 1752
30/08/2026 21h 07' 36" Ping reçu, 1751
30/08/2026 21h 07' 27" Ping reçu, 1749
30/08/2026 21h 07' 14" Ping reçu, 1746
30/08/2026 21h 07' 05" Ping reçu, 1744
30/08/2026 21h 07' 00" Ping reçu, 1743
30/08/2026 21h 07' 00" cPing.
30/08/2026 21h 06' 43" Ping reçu, 1739
30/08/2026 21h 06' 39" Ping reçu, 1738
30/08/2026 21h 06' 32" Ping reçu, 1736
30/08/2026 21h 06' 29" ERR. Ther. 14 HS.
30/08/2026 21h 06' 27" Ping reçu,         1735
30/08/2026 21h 06' 19" Ping reçu, 1733
30/08/2026 21h 06' 11" On a tout sauvé !
30/08/2026 21h 06' 10" Ping reçu, 1731
30/08/2026 21h 06' 03" cPing.
30/08/2026 21h 06' 02" Ping reçu,         1730
30/08/2026 21h 05' 57" Ping reçu, 1729
30/08/2026 21h 05' 44" Ping reçu, 1726
30/08/2026 21h 05' 39" Ping reçu,         1725
30/08/2026 21h 05' 35" Ping reçu, 1724
30/08/2026 21h 05' 31" Ping reçu, 1723
30/08/2026 21h 05' 27" Ping reçu, 1722
30/08/2026 21h 05' 24" Ping reçu, 1721
30/08/2026 21h 05' 20" Ping reçu,         1720
30/08/2026 21h 05' 16" Enregistrement de l'Arduino : (26,5 °C)
30/08/2026 21h 05' 08" Ping reçu, 1718
30/08/2026 21h 05' 08" cPing.
30/08/2026 21h 05' 04" Enregistrement de l'éclairement (345.6 lux & 0 lux )
30/08/2026 21h 05' 04" Ping reçu, 1717
30/08/2026 21h 05' 00" Ping reçu, 1716
30/08/2026 21h 04' 51" Ping reçu, 1714
30/08/2026 21h 04' 47" Ping reçu, 1713
30/08/2026 21h 04' 44" Ping reçu, 1712
30/08/2026 21h 04' 40" Ping reçu, 1711
30/08/2026 21h 04' 36" Ping reçu,         1710
30/08/2026 21h 04' 27" Ping reçu, 1708
30/08/2026 21h 04' 23" Ping reçu, 1707
30/08/2026 21h 04' 18" Ping reçu, 1706
30/08/2026 21h 04' 14" Ping reçu,         1705
30/08/2026 21h 04' 12" Ping reçu, 1704
30/08/2026 21h 04' 12" cPing.
30/08/2026 21h 04' 08" Ping reçu, 1703
30/08/2026 21h 04' 04" Ping reçu, 1702
30/08/2026 21h 03' 59" Ping reçu, 1701
30/08/2026 21h 03' 57" Enregistrement de l'éclairement (345.6 lux & 0 lux )
30/08/2026 21h 03' 42" Ping reçu, 1697
30/08/2026 21h 03' 38" Ping reçu, 1696
30/08/2026 21h 03' 34" I2C : 21h 3m 32s. Désynchro. de 1 sec..
30/08/2026 21h 03' 33" NTP : 21h 3m 33s.
30/08/2026 21h 03' 29" Ping reçu, 1694
30/08/2026 21h 03' 24" Ping reçu, 1693
30/08/2026 21h 03' 20" Ping reçu, 1692
30/08/2026 21h 03' 15" cPing.
30/08/2026 21h 03' 07" Ping reçu, 1689
30/08/2026 21h 03' 03" Ping reçu, 1688
30/08/2026 21h 02' 58" Ping reçu, 1687
30/08/2026 21h 02' 54" Ping reçu, 1686
30/08/2026 21h 02' 50" Ping reçu,         1685
30/08/2026 21h 02' 39" Ping reçu, 1682
30/08/2026 21h 02' 34" Ping reçu, 1681
30/08/2026 21h 02' 32" Enregistrement de la température (22,348 °C)
30/08/2026 21h 02' 30" Enregistrement de la Pression atmosphérique (1026,281 hPa)
30/08/2026 21h 02' 30" Enregistrement des paramètres du vent (49.1° @ 0 m/s)
30/08/2026 21h 02' 30" Ping reçu,         1680
30/08/2026 21h 02' 25" ERR. Ther. 1 HS.
30/08/2026 21h 02' 25" ERR. Ther. 14 HS.
30/08/2026 21h 02' 20" Ping reçu, 1678
30/08/2026 21h 02' 20" cPing.
30/08/2026 21h 02' 16" Ping reçu, 1677
30/08/2026 21h 02' 12" Ping reçu, 1676
30/08/2026 21h 02' 07" Ping reçu,         1675
30/08/2026 21h 01' 59" Ping reçu, 1673
30/08/2026 21h 01' 54" Ping reçu, 1672
30/08/2026 21h 01' 50" Ping reçu, 1671
30/08/2026 21h 01' 41" Enregistrement de l'éclairement (345.6 lux & 0 lux )
30/08/2026 21h 01' 41" Ping reçu, 1669
30/08/2026 21h 01' 37" Ping reçu, 1668
30/08/2026 21h 01' 33" Ping reçu, 1667
30/08/2026 21h 01' 29" Ping reçu, 1666
30/08/2026 21h 01' 26" Ping reçu,         1665
30/08/2026 21h 01' 23" cPing.
30/08/2026 21h 01' 22" Ping reçu, 1664
30/08/2026 21h 01' 14" Ping reçu, 1662
30/08/2026 21h 01' 05" Ping reçu,         1660
30/08/2026 21h 00' 56" Ping reçu, 1658
30/08/2026 21h 00' 44" Ping reçu,         1655
30/08/2026 21h 00' 37" Ping reçu, 1653
30/08/2026 21h 00' 37" Enregistrement de l'éclairement (345.6 lux & 0 lux )
30/08/2026 21h 00' 28" Ping reçu, 1651
30/08/2026 21h 00' 28" cPing.
30/08/2026 21h 00' 24" Ping reçu,         1650
30/08/2026 21h 00' 20" Ping reçu, 1649
30/08/2026 21h 00' 20" On purge les valeurs du crystal...
30/08/2026 21h 00' 17" Ping reçu, 1648
30/08/2026 21h 00' 07" Ping reçu, 1646
30/08/2026 20h 59' 54" Ping reçu, 1643
30/08/2026 20h 59' 50" Ping reçu, 1642
30/08/2026 20h 59' 39" Ping reçu, 1639
30/08/2026 20h 59' 31" cPing.
30/08/2026 20h 59' 30" Ping reçu, 1637
30/08/2026 20h 59' 29" Enregistrement de l'éclairement (345.6 lux & 0 lux )
30/08/2026 20h 59' 26" Ping reçu, 1636
30/08/2026 20h 59' 21" Ping reçu,         1635
30/08/2026 20h 59' 17" Ping reçu, 1634
30/08/2026 20h 59' 13" Ping reçu, 1633
30/08/2026 20h 59' 09" Ping reçu, 1632
30/08/2026 20h 59' 04" Ping reçu, 1631
30/08/2026 20h 59' 00" Ping reçu,         1630
30/08/2026 20h 58' 57" Ping reçu, 1629
30/08/2026 20h 58' 49" Ping reçu, 1627
30/08/2026 20h 58' 45" Ping reçu, 1626
30/08/2026 20h 58' 36" cPing.
30/08/2026 20h 58' 33" ERR. Ther. 14 HS.
30/08/2026 20h 58' 22" Enregistrement de la température (22,451 °C)
30/08/2026 20h 58' 21" Enregistrement de l'éclairement (345.6 lux & 0 lux )
30/08/2026 20h 58' 14" Ping reçu, 1619
30/08/2026 20h 58' 05" Ping reçu, 1617
30/08/2026 20h 58' 00" Ping reçu, 1616
30/08/2026 20h 57' 56" Ping reçu,         1615
30/08/2026 20h 57' 47" Ping reçu, 1613
30/08/2026 20h 57' 39" Ping reçu, 1611
30/08/2026 20h 57' 38" cPing.
30/08/2026 20h 57' 36" Ping reçu,         1610
30/08/2026 20h 57' 23" Ping reçu, 1607
30/08/2026 20h 57' 20" Ping reçu, 1606
30/08/2026 20h 57' 12" Enregistrement de l'éclairement (345.6 lux & 0 lux )
30/08/2026 20h 57' 11" Ping reçu, 1604
30/08/2026 20h 57' 06" Ping reçu, 1603
30/08/2026 20h 56' 58" Ping reçu, 1601
30/08/2026 20h 56' 53" Enregistrement des paramètres du vent (51.9° @ 0 m/s)
30/08/2026 20h 56' 48" Ping reçu, 1599
30/08/2026 20h 56' 43" cPing.
30/08/2026 20h 56' 35" Ping reçu, 1596
30/08/2026 20h 56' 31" Ping reçu,         1595
30/08/2026 20h 56' 27" Ping reçu, 1594
30/08/2026 20h 56' 20" Ping reçu, 1592
30/08/2026 20h 56' 07" Ping reçu, 1589
30/08/2026 20h 56' 03" Ping reçu, 1588
30/08/2026 20h 55' 59" Ping reçu, 1587
30/08/2026 20h 55' 50" Ping reçu,         1585
30/08/2026 20h 55' 46" cPing.
30/08/2026 20h 55' 41" Ping reçu, 1583
30/08/2026 20h 55' 37" Ping reçu, 1582
30/08/2026 20h 55' 33" Ping reçu, 1581
30/08/2026 20h 55' 29" Ping reçu,         1580
30/08/2026 20h 55' 26" Ping reçu, 1579
30/08/2026 20h 55' 17" Ping reçu, 1577
30/08/2026 20h 55' 13" Ping reçu, 1576
30/08/2026 20h 55' 08" Ping reçu,         1575
30/08/2026 20h 55' 04" Ping reçu, 1574
30/08/2026 20h 55' 00" Ping reçu, 1573
30/08/2026 20h 54' 59" Enregistrement de l'éclairement (345.6 lux & 0 lux )
30/08/2026 20h 54' 56" Ping reçu, 1572
30/08/2026 20h 54' 51" Ping reçu, 1571
30/08/2026 20h 54' 51" cPing.
30/08/2026 20h 54' 47" Ping reçu,         1570
30/08/2026 20h 54' 43" Ping reçu, 1569
30/08/2026 20h 54' 39" Ping reçu, 1568
30/08/2026 20h 54' 37" ERR. Ther. 14 HS.
30/08/2026 20h 54' 34" Ping reçu, 1567
30/08/2026 20h 54' 30" Ping reçu, 1566
30/08/2026 20h 54' 27" Ping reçu,         1565
30/08/2026 20h 54' 23" Ping reçu, 1564
30/08/2026 20h 54' 19" Ping reçu, 1563
30/08/2026 20h 54' 11" Ping reçu, 1561
30/08/2026 20h 54' 06" Enregistrement de la Pression atmosphérique (1026,172 hPa)
30/08/2026 20h 54' 02" Ping reçu, 1559
30/08/2026 20h 53' 54" cPing.
30/08/2026 20h 53' 48" Enregistrement de l'éclairement (345.6 lux & 0 lux )
30/08/2026 20h 53' 44" Ping reçu, 1556
30/08/2026 20h 53' 40" Ping reçu,         1555
30/08/2026 20h 53' 32" Ping reçu, 1553
30/08/2026 20h 53' 29" Ping reçu, 1552
30/08/2026 20h 53' 25" Ping reçu, 1551
30/08/2026 20h 53' 20" Ping reçu,         1550
30/08/2026 20h 53' 12" Ping reçu, 1548
30/08/2026 20h 53' 08" Ping reçu, 1547
30/08/2026 20h 52' 59" Ping reçu,         1545
30/08/2026 20h 52' 59" cPing.
30/08/2026 20h 52' 54" Ping reçu, 1544
30/08/2026 20h 52' 50" Ping reçu, 1543
30/08/2026 20h 52' 42" Ping reçu, 1541
30/08/2026 20h 52' 39" Ping reçu,         1540
30/08/2026 20h 52' 39" Enregistrement de l'humidité (73,79 %)
30/08/2026 20h 52' 33" Ping reçu, 1539
30/08/2026 20h 52' 28" Ping reçu, 1538
30/08/2026 20h 52' 26" Ping reçu, 1537
30/08/2026 20h 52' 22" Ping reçu, 1536
30/08/2026 20h 52' 17" Ping reçu,         1535
30/08/2026 20h 52' 02" cPing.
30/08/2026 20h 52' 00" Ping reçu, 1531
30/08/2026 20h 51' 56" Ping reçu,         1530
30/08/2026 20h 51' 51" Ping reçu, 1529
30/08/2026 20h 51' 46" Enregistrement de l'Arduino : (26,8 °C)
30/08/2026 20h 51' 44" Ping reçu, 1528
30/08/2026 20h 51' 41" Ping reçu, 1527
30/08/2026 20h 51' 37" Ping reçu, 1526
30/08/2026 20h 51' 33" Ping reçu,         1525
30/08/2026 20h 51' 30" Enregistrement de l'éclairement (345.6 lux & 0 lux )
30/08/2026 20h 51' 28" Ping reçu, 1524
30/08/2026 20h 51' 24" On a tout sauvé !
30/08/2026 20h 51' 24" Ping reçu, 1523
30/08/2026 20h 51' 20" Ping reçu, 1522
30/08/2026 20h 51' 15" Ping reçu, 1521
30/08/2026 20h 51' 11" Ping reçu,         1520
30/08/2026 20h 51' 11" Enregistrement des paramètres du vent (49.1° @ 0 m/s)
30/08/2026 20h 51' 06" cPing.
30/08/2026 20h 51' 02" Ping reçu, 1518
30/08/2026 20h 50' 58" Ping reçu, 1517
30/08/2026 20h 50' 54" Ping reçu, 1516
30/08/2026 20h 50' 51" Ping reçu,         1515
30/08/2026 20h 50' 45" Ping reçu, 1514
30/08/2026 20h 50' 38" Ping reçu, 1512
30/08/2026 20h 50' 35" ERR. Ther. 1 HS.
30/08/2026 20h 50' 35" ERR. Ther. 14 HS.
30/08/2026 20h 50' 25" Ping reçu, 1509
30/08/2026 20h 50' 24" Enregistrement de l'éclairement (345.6 lux & 0 lux )
30/08/2026 20h 50' 21" Ping reçu, 1508
30/08/2026 20h 50' 17" Ping reçu, 1507
30/08/2026 20h 50' 11" cPing.
30/08/2026 20h 50' 08" Ping reçu,         1505
30/08/2026 20h 50' 04" Ping reçu, 1504
30/08/2026 20h 49' 50" Enregistrement de la température (22,564 °C)
30/08/2026 20h 49' 47" Ping reçu,         1500
30/08/2026 20h 49' 42" Ping reçu, 1499
30/08/2026 20h 49' 39" Ping reçu, 1498
30/08/2026 20h 49' 35" Ping reçu, 1497
30/08/2026 20h 49' 31" Ping reçu, 1496
30/08/2026 20h 49' 27" Ping reçu,         1495
30/08/2026 20h 49' 18" Ping reçu, 1493
30/08/2026 20h 49' 14" Ping reçu, 1492
30/08/2026 20h 49' 14" cPing.
30/08/2026 20h 49' 09" Ping reçu, 1491
30/08/2026 20h 49' 05" Ping reçu,         1490
30/08/2026 20h 49' 02" Ping reçu, 1489
30/08/2026 20h 48' 57" Ping reçu, 1488
30/08/2026 20h 48' 50" Ping reçu, 1486
30/08/2026 20h 48' 41" Ping reçu, 1484
30/08/2026 20h 48' 37" Ping reçu, 1483
30/08/2026 20h 48' 33" Ping reçu, 1482
30/08/2026 20h 48' 29" Ping reçu, 1481
30/08/2026 20h 48' 24" Ping reçu,         1480
30/08/2026 20h 48' 20" Ping reçu, 1479
30/08/2026 20h 48' 19" cPing.
30/08/2026 20h 48' 11" Ping reçu, 1477
30/08/2026 20h 48' 08" Enregistrement de l'éclairement (345.6 lux & 0 lux )
30/08/2026 20h 48' 03" Rw SD-card.
30/08/2026 20h 48' 02" Ping reçu,         1475
30/08/2026 20h 47' 54" Ping reçu, 1473
30/08/2026 20h 47' 50" Ping reçu, 1472
30/08/2026 20h 47' 47" Ping reçu, 1471
30/08/2026 20h 47' 38" Ping reçu, 1469
30/08/2026 20h 47' 22" cPing.
30/08/2026 20h 47' 20" Ping reçu,         1465
30/08/2026 20h 47' 08" Ping reçu, 1462
30/08/2026 20h 47' 03" Ping reçu, 1461
30/08/2026 20h 47' 00" Enregistrement de l'éclairement (345.6 lux & 0 lux )
30/08/2026 20h 46' 59" Ping reçu,         1460
30/08/2026 20h 46' 42" Ping reçu, 1456
30/08/2026 20h 46' 40" ERR. Ther. 14 HS.
30/08/2026 20h 46' 33" Ping reçu, 1454
30/08/2026 20h 46' 29" Ping reçu, 1453
30/08/2026 20h 46' 27" cPing.
30/08/2026 20h 46' 26" Ping reçu, 1452
30/08/2026 20h 46' 22" Ping reçu, 1451
30/08/2026 20h 46' 13" Ping reçu, 1449
30/08/2026 20h 46' 09" Ping reçu, 1448
30/08/2026 20h 46' 00" Ping reçu, 1446
30/08/2026 20h 45' 56" Ping reçu,         1445
30/08/2026 20h 45' 52" Ping reçu, 1444
30/08/2026 20h 45' 48" Ping reçu, 1443
30/08/2026 20h 45' 41" Ping reçu, 1441
30/08/2026 20h 45' 37" Pressions pluviométriques (32,07 & 64,00)
30/08/2026 20h 45' 34" Enregistrement de la Pression atmosphérique (1026,093 hPa)
30/08/2026 20h 45' 30" cPing.
30/08/2026 20h 45' 29" Ping reçu, 1439
30/08/2026 20h 45' 24" Ping reçu, 1438
30/08/2026 20h 45' 20" Ping reçu, 1437
30/08/2026 20h 45' 12" Ping reçu,         1435
30/08/2026 20h 45' 07" Ping reçu, 1434
30/08/2026 20h 45' 00" Ping reçu, 1432
30/08/2026 20h 44' 56" Ping reçu, 1431
30/08/2026 20h 44' 52" Ping reçu,         1430
30/08/2026 20h 44' 48" Ping reçu, 1429
30/08/2026 20h 44' 47" Enregistrement de l'éclairement (345.6 lux & 0 lux )
30/08/2026 20h 44' 44" Ping reçu, 1428
30/08/2026 20h 44' 35" cPing.
30/08/2026 20h 44' 31" Ping reçu,         1425
30/08/2026 20h 44' 22" Ping reçu, 1423
30/08/2026 20h 44' 18" Ping reçu, 1422
30/08/2026 20h 44' 14" Ping reçu, 1421
30/08/2026 20h 44' 07" Ping reçu, 1419
30/08/2026 20h 44' 03" Ping reçu, 1418
30/08/2026 20h 43' 58" Ping reçu, 1417
30/08/2026 20h 43' 54" Ping reçu, 1416
30/08/2026 20h 43' 50" Ping reçu,         1415
30/08/2026 20h 43' 45" Ping reçu, 1414
30/08/2026 20h 43' 41" Enregistrement de l'éclairement (345.6 lux & 0 lux )
30/08/2026 20h 43' 39" cPing.
30/08/2026 20h 43' 37" Ping reçu, 1412
30/08/2026 20h 43' 33" Ping reçu, 1411
30/08/2026 20h 43' 30" Ping reçu,         1410
30/08/2026 20h 43' 26" Ping reçu, 1409
30/08/2026 20h 43' 22" Ping reçu, 1408
30/08/2026 20h 43' 18" Ping reçu, 1407
30/08/2026 20h 43' 05" Ping reçu, 1404
30/08/2026 20h 43' 00" Ping reçu, 1403
30/08/2026 20h 42' 56" Ping reçu, 1402
30/08/2026 20h 42' 52" Ping reçu, 1401
30/08/2026 20h 42' 50" Enregistrement de l'humidité (73,15 %)
30/08/2026 20h 42' 44" ERR. Ther. 1 HS.
30/08/2026 20h 42' 42" cPing.
30/08/2026 20h 42' 38" Ping reçu, 1398
30/08/2026 20h 42' 34" Ping reçu, 1397
30/08/2026 20h 42' 33" Enregistrement de l'éclairement (345.6 lux & 0 lux )
30/08/2026 20h 42' 27" Ping reçu,         1395
30/08/2026 20h 42' 23" Ping reçu, 1394
30/08/2026 20h 42' 19" Ping reçu, 1393
30/08/2026 20h 42' 11" Ping reçu, 1391
30/08/2026 20h 42' 06" Ping reçu,         1390
30/08/2026 20h 42' 02" Ping reçu, 1389
30/08/2026 20h 41' 58" Ping reçu, 1388
30/08/2026 20h 41' 54" Ping reçu, 1387
30/08/2026 20h 41' 45" Ping reçu,         1385
30/08/2026 20h 41' 45" cPing.
30/08/2026 20h 41' 39" Ping reçu, 1384
30/08/2026 20h 41' 26" Ping reçu, 1381
30/08/2026 20h 41' 25" Enregistrement de l'éclairement (345.6 lux & 0 lux )
30/08/2026 20h 41' 25" Enregistrement de la température (22,695 °C)
30/08/2026 20h 41' 21" Ping reçu,         1380
30/08/2026 20h 41' 17" Ping reçu, 1379
30/08/2026 20h 41' 08" Ping reçu, 1377
30/08/2026 20h 41' 04" Ping reçu, 1376
30/08/2026 20h 41' 00" Ping reçu,         1375
30/08/2026 20h 40' 53" Ping reçu, 1373
30/08/2026 20h 40' 50" cPing.
30/08/2026 20h 40' 47" Ping reçu, 1372
30/08/2026 20h 40' 40" Ping reçu,         1370
30/08/2026 20h 40' 36" Ping reçu, 1369
30/08/2026 20h 40' 27" Ping reçu, 1367
30/08/2026 20h 40' 23" Ping reçu, 1366
30/08/2026 20h 40' 19" Ping reçu,         1365
30/08/2026 20h 40' 08" Ping reçu, 1362
30/08/2026 20h 40' 04" Ping reçu, 1361
30/08/2026 20h 40' 00" Ping reçu,         1360
30/08/2026 20h 39' 59" Enregistrement des paramètres du vent (49.1° @ 0 m/s)
30/08/2026 20h 39' 55" Ping reçu, 1359
30/08/2026 20h 39' 54" cPing.
30/08/2026 20h 39' 47" Ping reçu, 1357
30/08/2026 20h 39' 42" Ping reçu, 1356
30/08/2026 20h 39' 38" Ping reçu,         1355
30/08/2026 20h 39' 33" Ping reçu, 1354
30/08/2026 20h 39' 29" Ping reçu, 1353
30/08/2026 20h 39' 21" Ping reçu, 1351
30/08/2026 20h 39' 20" Enregistrement de l'éclairement (345.6 lux & 0 lux )
30/08/2026 20h 39' 18" Ping reçu,         1350
30/08/2026 20h 39' 09" Ping reçu, 1348
30/08/2026 20h 38' 57" cPing.
30/08/2026 20h 38' 49" ERR. Ther. 14 HS.
30/08/2026 20h 38' 48" ERR. Ther. 1 HS.
30/08/2026 20h 38' 47" Ping reçu, 1343
30/08/2026 20h 38' 39" Ping reçu, 1341
30/08/2026 20h 38' 30" Ping reçu, 1339
30/08/2026 20h 38' 26" Ping reçu, 1338
30/08/2026 20h 38' 24" Enregistrement de l'Arduino : (26,8 °C)
30/08/2026 20h 38' 21" Ping reçu, 1337
30/08/2026 20h 38' 17" Ping reçu, 1336
30/08/2026 20h 38' 12" Ping reçu,         1335
30/08/2026 20h 38' 08" Ping reçu, 1334
30/08/2026 20h 38' 03" Ping reçu, 1333
30/08/2026 20h 38' 03" Enregistrement de l'éclairement (345.6 lux & 0 lux )
30/08/2026 20h 38' 02" cPing.
30/08/2026 20h 37' 59" Ping reçu, 1332
30/08/2026 20h 37' 55" Ping reçu, 1331
30/08/2026 20h 37' 51" Ping reçu,         1330
30/08/2026 20h 37' 27" Ping reçu, 1324
30/08/2026 20h 37' 23" Ping reçu, 1323
30/08/2026 20h 37' 18" Ping reçu, 1322
30/08/2026 20h 37' 14" Ping reçu, 1321
30/08/2026 20h 37' 13" Enregistrement de la température (22,763 °C)
30/08/2026 20h 37' 10" Ping reçu,         1320
30/08/2026 20h 37' 09" Ping reçu, 1
30/08/2026 20h 37' 05" cPing.
30/08/2026 20h 37' 00" Ping reçu, 1318
30/08/2026 20h 36' 56" Ping reçu, 1317
30/08/2026 20h 36' 53" Enregistrement de l'éclairement (345.6 lux & 0 lux )
30/08/2026 20h 36' 47" On a tout sauvé !
30/08/2026 20h 36' 42" Ping reçu, 1314
30/08/2026 20h 36' 38" Ping reçu, 1313
30/08/2026 20h 36' 30" Ping reçu, 1311
30/08/2026 20h 36' 27" Ping reçu,         1310
30/08/2026 20h 36' 23" Ping reçu, 1309
30/08/2026 20h 36' 10" cPing.
30/08/2026 20h 36' 06" Ping reçu,         1305
30/08/2026 20h 36' 02" Ping reçu, 1304
30/08/2026 20h 35' 53" Ping reçu, 1302
30/08/2026 20h 35' 48" Ping reçu, 1301
30/08/2026 20h 35' 35" Ping reçu, 1298
30/08/2026 20h 35' 31" Ping reçu, 1297
30/08/2026 20h 35' 27" Ping reçu, 1296
30/08/2026 20h 35' 18" Ping reçu, 1294
30/08/2026 20h 35' 14" Ping reçu, 1293
30/08/2026 20h 35' 13" cPing.
30/08/2026 20h 35' 11" Ping reçu, 1292
30/08/2026 20h 34' 59" Ping reçu, 1289
30/08/2026 20h 34' 50" ERR. Ther. 1 HS.
30/08/2026 20h 34' 50" ERR. Ther. 14 HS.
30/08/2026 20h 34' 50" Ping reçu, 1287
30/08/2026 20h 34' 41" Ping reçu,         1285
30/08/2026 20h 34' 37" Enregistrement de l'éclairement (345.6 lux & 0 lux )
30/08/2026 20h 34' 36" Ping reçu, 1284
30/08/2026 20h 34' 32" Ping reçu, 1283
30/08/2026 20h 34' 23" Ping reçu, 1281
30/08/2026 20h 34' 19" Ping reçu,         1280
30/08/2026 20h 34' 18" Enregistrement des paramètres du vent (49.1° @ 0 m/s)
30/08/2026 20h 34' 18" cPing.
30/08/2026 20h 34' 09" Ping reçu, 1278
30/08/2026 20h 34' 00" Ping reçu, 1276
30/08/2026 20h 33' 52" Ping reçu, 1274
30/08/2026 20h 33' 48" Ping reçu, 1273
30/08/2026 20h 33' 44" Ping reçu, 1272
30/08/2026 20h 33' 41" Ping reçu, 1271
30/08/2026 20h 33' 37" Ping reçu,         1270
30/08/2026 20h 33' 32" Ping reçu, 1269
30/08/2026 20h 33' 21" cPing.
30/08/2026 20h 33' 20" Ping reçu, 1266
30/08/2026 20h 33' 15" Ping reçu,         1265
30/08/2026 20h 33' 11" Ping reçu, 1264
30/08/2026 20h 33' 06" Ping reçu, 1263
30/08/2026 20h 33' 02" Ping reçu, 1262
30/08/2026 20h 32' 58" Ping reçu, 1261
30/08/2026 20h 32' 57" Enregistrement de la température (22,831 °C)
30/08/2026 20h 32' 56" Enregistrement de l'humidité (72,50 %)
30/08/2026 20h 32' 54" Ping reçu,         1260
30/08/2026 20h 32' 49" Ping reçu, 1259
30/08/2026 20h 32' 45" Ping reçu, 1258
30/08/2026 20h 32' 36" Ping reçu, 1256
30/08/2026 20h 32' 32" Ping reçu,         1255
30/08/2026 20h 32' 29" Ping reçu, 1254
30/08/2026 20h 32' 26" cPing.
30/08/2026 20h 32' 25" Ping reçu, 1253
30/08/2026 20h 32' 22" Enregistrement de l'éclairement (345.6 lux & 0 lux )
30/08/2026 20h 32' 21" Ping reçu, 1252
30/08/2026 20h 32' 08" Ping reçu, 1249
30/08/2026 20h 32' 03" Ping reçu, 1248
30/08/2026 20h 31' 59" Ping reçu, 1247
30/08/2026 20h 31' 55" Ping reçu, 1246
30/08/2026 20h 31' 46" Ping reçu, 1244
30/08/2026 20h 31' 39" Ping reçu, 1242
30/08/2026 20h 31' 35" Ping reçu, 1241
30/08/2026 20h 31' 31" Ping reçu,         1240
30/08/2026 20h 31' 29" cPing.
30/08/2026 20h 31' 27" Ping reçu, 1239
30/08/2026 20h 31' 23" Ping reçu, 1238
30/08/2026 20h 31' 14" Ping reçu, 1236
30/08/2026 20h 31' 09" Ping reçu,         1235
30/08/2026 20h 31' 05" Ping reçu, 1234
30/08/2026 20h 30' 57" Ping reçu, 1232
30/08/2026 20h 30' 54" ERR. Ther. 1 HS.
30/08/2026 20h 30' 52" Ping reçu, 1231
30/08/2026 20h 30' 48" Ping reçu,         1230
30/08/2026 20h 30' 39" Ping reçu, 1228
30/08/2026 20h 30' 36" Ping reçu, 1227
30/08/2026 20h 30' 33" cPing.
30/08/2026 20h 30' 32" Ping reçu, 1226
30/08/2026 20h 30' 28" Ping reçu,         1225
30/08/2026 20h 30' 20" Ping reçu, 1223
30/08/2026 20h 30' 11" Ping reçu, 1221
30/08/2026 20h 30' 10" Enregistrement de l'éclairement (341.3 lux & 0 lux )
30/08/2026 20h 29' 58" Ping reçu, 1218
30/08/2026 20h 29' 54" Ping reçu, 1217
30/08/2026 20h 29' 50" Ping reçu, 1216
30/08/2026 20h 29' 45" Ping reçu,         1215
30/08/2026 20h 29' 42" Ping reçu, 1214
30/08/2026 20h 29' 38" Ping reçu, 1213
30/08/2026 20h 29' 38" cPing.
30/08/2026 20h 29' 34" Ping reçu, 1212
30/08/2026 20h 29' 31" Enregistrement Température du pluviometre : (24,6 °C)
30/08/2026 20h 29' 26" Ping reçu, 1211
30/08/2026 20h 29' 22" Ping reçu,         1210
30/08/2026 20h 29' 18" Ping reçu, 1209
30/08/2026 20h 29' 14" Ping reçu, 1208
30/08/2026 20h 29' 07" Ping reçu, 1206
30/08/2026 20h 28' 58" Ping reçu, 1204
30/08/2026 20h 28' 54" Ping reçu, 1203
30/08/2026 20h 28' 45" Ping reçu, 1201
30/08/2026 20h 28' 45" Enregistrement de la température (22,903 °C)
30/08/2026 20h 28' 41" Enregistrement de la Pression atmosphérique (1026,055 hPa)
30/08/2026 20h 28' 41" cPing.
30/08/2026 20h 28' 41" Enregistrement des paramètres du vent (49.1° @ 0 m/s)
30/08/2026 20h 28' 36" Ping reçu, 1199
30/08/2026 20h 28' 32" Ping reçu, 1198
30/08/2026 20h 28' 27" Ping reçu, 1197
30/08/2026 20h 28' 23" Ping reçu, 1196
30/08/2026 20h 28' 15" Ping reçu, 1194
30/08/2026 20h 28' 06" Ping reçu, 1192
30/08/2026 20h 28' 03" Ping reçu, 1191
30/08/2026 20h 27' 59" Ping reçu,         1190
30/08/2026 20h 27' 55" Ping reçu, 1189
30/08/2026 20h 27' 54" Enregistrement de l'éclairement (345.6 lux & 0 lux )
30/08/2026 20h 27' 51" Ping reçu, 1188
30/08/2026 20h 27' 47" Ping reçu, 1187
30/08/2026 20h 27' 46" cPing.
30/08/2026 20h 27' 42" Ping reçu, 1186
30/08/2026 20h 27' 38" Ping reçu,         1185
30/08/2026 20h 27' 34" Ping reçu, 1184
30/08/2026 20h 27' 30" Ping reçu, 1183
30/08/2026 20h 27' 21" Ping reçu, 1181
30/08/2026 20h 27' 17" Ping reçu,         1180
30/08/2026 20h 27' 10" Ping reçu, 1178
30/08/2026 20h 27' 06" Ping reçu, 1177
30/08/2026 20h 26' 58" ERR. Ther. 1 HS.
30/08/2026 20h 26' 53" Ping reçu, 1174
30/08/2026 20h 26' 48" cPing.
30/08/2026 20h 26' 47" Enregistrement de l'éclairement (345.6 lux & 0 lux )
30/08/2026 20h 26' 44" Ping reçu, 1172
30/08/2026 20h 26' 40" Ping reçu, 1171
30/08/2026 20h 26' 31" Ping reçu, 1169
30/08/2026 20h 26' 27" Ping reçu, 1168
30/08/2026 20h 26' 24" Ping reçu, 1167
30/08/2026 20h 26' 20" Ping reçu, 1166
30/08/2026 20h 26' 16" Ping reçu,         1165
30/08/2026 20h 26' 12" Ping reçu, 1164
30/08/2026 20h 26' 08" Ping reçu, 1163
30/08/2026 20h 26' 03" Ping reçu, 1162
30/08/2026 20h 25' 59" Ping reçu, 1161
30/08/2026 20h 25' 53" cPing.
30/08/2026 20h 25' 46" Ping reçu, 1158
30/08/2026 20h 25' 42" Ping reçu, 1157
30/08/2026 20h 25' 41" Enregistrement de l'éclairement (345.6 lux & 0 lux )
30/08/2026 20h 25' 35" Ping reçu,         1155
30/08/2026 20h 25' 31" Ping reçu, 1154
30/08/2026 20h 25' 22" Ping reçu, 1152
30/08/2026 20h 25' 05" Ping reçu, 1148
30/08/2026 20h 24' 56" cPing.
30/08/2026 20h 24' 39" Ping reçu, 1143
30/08/2026 20h 24' 36" Ping reçu, 1142
30/08/2026 20h 24' 32" Ping reçu, 1141
30/08/2026 20h 24' 28" Ping reçu,         1140
30/08/2026 20h 24' 21" Ping reçu, 1139
30/08/2026 20h 24' 18" Ping reçu, 1138
30/08/2026 20h 24' 14" Ping reçu, 1137
30/08/2026 20h 24' 10" Ping reçu, 1136
30/08/2026 20h 24' 01" Ping reçu, 1134
30/08/2026 20h 24' 01" cPing.
30/08/2026 20h 23' 53" Ping reçu, 1132
30/08/2026 20h 23' 48" Ping reçu, 1131
30/08/2026 20h 23' 44" Ping reçu,         1130
30/08/2026 20h 23' 40" Ping reçu, 1129
30/08/2026 20h 23' 31" Ping reçu, 1127
30/08/2026 20h 23' 27" Ping reçu, 1126
30/08/2026 20h 23' 21" Enregistrement de l'éclairement (345.6 lux & 0 lux )
30/08/2026 20h 23' 20" Ping reçu, 1124
30/08/2026 20h 23' 07" Ping reçu, 1121
30/08/2026 20h 23' 04" cPing.
30/08/2026 20h 23' 03" Enregistrement de la hauteur d'eau (782,870 mm @ 99,7%)
30/08/2026 20h 23' 03" Ping reçu,         1120
30/08/2026 20h 23' 02" Enregistrement des paramètres du vent (49.1° @ 0 m/s)
30/08/2026 20h 22' 58" ERR. Ther. 1 HS.
30/08/2026 20h 22' 58" ERR. Ther. 14 HS.
30/08/2026 20h 22' 47" Ping reçu, 1117
30/08/2026 20h 22' 40" Ping reçu,         1115
30/08/2026 20h 22' 36" Ping reçu, 1114
30/08/2026 20h 22' 32" On a tout sauvé !
30/08/2026 20h 22' 18" Ping reçu,         1110
30/08/2026 20h 22' 14" Ping reçu, 1109
30/08/2026 20h 22' 12" Enregistrement de l'éclairement (345.6 lux & 0 lux )
30/08/2026 20h 22' 09" cPing.
30/08/2026 20h 22' 05" Ping reçu, 1107
30/08/2026 20h 22' 00" Ping reçu, 1106
30/08/2026 20h 21' 56" Ping reçu,         1105
30/08/2026 20h 21' 52" Ping reçu, 1104
30/08/2026 20h 21' 44" Ping reçu, 1102
30/08/2026 20h 21' 37" Ping reçu,         1100
30/08/2026 20h 21' 32" Ping reçu, 1099
30/08/2026 20h 21' 24" Ping reçu, 1097
30/08/2026 20h 21' 20" Ping reçu, 1096
30/08/2026 20h 21' 12" cPing.
30/08/2026 20h 21' 11" Ping reçu, 1094
30/08/2026 20h 21' 06" Enregistrement de l'éclairement (345.6 lux & 0 lux )
30/08/2026 20h 21' 03" Ping reçu, 1092
30/08/2026 20h 21' 00" Ping reçu, 1091
30/08/2026 20h 20' 56" Ping reçu,         1090
30/08/2026 20h 20' 47" Ping reçu, 1088
30/08/2026 20h 20' 43" Ping reçu, 1087
30/08/2026 20h 20' 38" Ping reçu, 1086
30/08/2026 20h 20' 34" Ping reçu,         1085
30/08/2026 20h 20' 30" Ping reçu, 1084
30/08/2026 20h 20' 26" Ping reçu, 1083
30/08/2026 20h 20' 21" Ping reçu, 1082
30/08/2026 20h 20' 18" Ping reçu, 1081
30/08/2026 20h 20' 17" Enregistrement de la température (23,093 °C)
30/08/2026 20h 20' 17" cPing.
30/08/2026 20h 20' 14" Enregistrement de la Pression atmosphérique (1026,075 hPa)
30/08/2026 20h 20' 08" Ping reçu, 1079
30/08/2026 20h 20' 04" Ping reçu, 1078
30/08/2026 20h 19' 59" Enregistrement de l'éclairement (345.6 lux & 0 lux )
30/08/2026 20h 19' 56" Ping reçu, 1076
30/08/2026 20h 19' 47" Ping reçu, 1074
30/08/2026 20h 19' 44" Ping reçu, 1073
30/08/2026 20h 19' 40" Ping reçu, 1072
30/08/2026 20h 19' 36" Ping reçu, 1071
30/08/2026 20h 19' 32" Ping reçu,         1070
30/08/2026 20h 19' 27" Ping reçu, 1069
30/08/2026 20h 19' 23" Ping reçu, 1068
30/08/2026 20h 19' 21" cPing.
30/08/2026 20h 19' 14" Ping reçu, 1066
30/08/2026 20h 19' 10" Ping reçu,         1065
30/08/2026 20h 19' 02" ERR. Ther. 1 HS.
30/08/2026 20h 19' 01" Ping reçu, 1063
30/08/2026 20h 18' 57" Ping reçu, 1062
30/08/2026 20h 18' 54" Ping reçu, 1061
30/08/2026 20h 18' 51" Enregistrement de l'éclairement (345.6 lux & 0 lux )
30/08/2026 20h 18' 41" Ping reçu, 1058
30/08/2026 20h 18' 37" Ping reçu, 1057
30/08/2026 20h 18' 33" Ping reçu, 1056
30/08/2026 20h 18' 24" cPing.
30/08/2026 20h 18' 24" Ping reçu, 1054
30/08/2026 20h 17' 58" Ping reçu, 1048
30/08/2026 20h 17' 54" Ping reçu, 1047
30/08/2026 20h 17' 50" Ping reçu, 1046
30/08/2026 20h 17' 45" Ping reçu,         1045
30/08/2026 20h 17' 43" Ping reçu, 1044
30/08/2026 20h 17' 39" Ping reçu, 1043
30/08/2026 20h 17' 29" cPing.
30/08/2026 20h 17' 26" Enregistrement des paramètres du vent (49.1° @ 0 m/s)
30/08/2026 20h 17' 16" Enregistrement Température du pluviometre : (24,8 °C)
30/08/2026 20h 17' 13" Ping reçu, 1038
30/08/2026 20h 17' 09" Ping reçu, 1037
30/08/2026 20h 16' 58" Ping reçu, 1034
30/08/2026 20h 16' 54" Ping reçu, 1033
30/08/2026 20h 16' 50" Ping reçu, 1032
30/08/2026 20h 16' 45" Ping reçu, 1031
30/08/2026 20h 16' 41" Ping reçu,         1030
30/08/2026 20h 16' 36" Enregistrement de l'éclairement (345.6 lux & 0 lux )
30/08/2026 20h 16' 32" Ping reçu, 1028
30/08/2026 20h 16' 32" cPing.
30/08/2026 20h 16' 28" Ping reçu, 1027
30/08/2026 20h 16' 26" Ping reçu, 1026
30/08/2026 20h 16' 21" Ping reçu,         1025
30/08/2026 20h 16' 17" Ping reçu, 1024
30/08/2026 20h 16' 13" Ping reçu, 1023
30/08/2026 20h 16' 09" Ping reçu, 1022
30/08/2026 20h 16' 05" Ping reçu, 1021
30/08/2026 20h 16' 00" Ping reçu,         1020
30/08/2026 20h 15' 56" Ping reçu, 1019
30/08/2026 20h 15' 47" Ping reçu, 1017
30/08/2026 20h 15' 43" Ping reçu, 1016
30/08/2026 20h 15' 37" cPing.
30/08/2026 20h 15' 36" Ping reçu, 1014
30/08/2026 20h 15' 23" Ping reçu, 1011
30/08/2026 20h 15' 19" Ping reçu,         1010
30/08/2026 20h 15' 11" Ping reçu, 1008
30/08/2026 20h 15' 06" ERR. Ther. 1 HS.
30/08/2026 20h 14' 57" Ping reçu,         1005
30/08/2026 20h 14' 53" Ping reçu, 1004
30/08/2026 20h 14' 44" Ping reçu, 1002
30/08/2026 20h 14' 40" Ping reçu, 1001
30/08/2026 20h 14' 40" cPing.
30/08/2026 20h 14' 36" Ping reçu,         1000
30/08/2026 20h 14' 29" Ping reçu, 998
30/08/2026 20h 14' 25" Ping reçu, 997
30/08/2026 20h 14' 21" Enregistrement de l'éclairement (345.6 lux & 0 lux )
30/08/2026 20h 14' 20" Ping reçu, 996
30/08/2026 20h 14' 16" Ping reçu,         995
30/08/2026 20h 14' 12" Ping reçu, 994
30/08/2026 20h 14' 08" Ping reçu, 993
30/08/2026 20h 14' 03" Ping reçu, 992
30/08/2026 20h 13' 59" Ping reçu, 991
30/08/2026 20h 13' 54" Ping reçu,         990
30/08/2026 20h 13' 50" Ping reçu, 989
30/08/2026 20h 13' 46" Ping reçu, 988
30/08/2026 20h 13' 45" cPing.
30/08/2026 20h 13' 37" Ping reçu, 986
30/08/2026 20h 13' 33" Ping reçu,         985
30/08/2026 20h 13' 30" Ping reçu, 984
30/08/2026 20h 13' 22" Ping reçu, 982
30/08/2026 20h 13' 18" Ping reçu, 981
30/08/2026 20h 13' 14" Enregistrement de l'éclairement (345.6 lux & 0 lux )
30/08/2026 20h 13' 14" Ping reçu,         980
30/08/2026 20h 13' 09" Ping reçu, 979
30/08/2026 20h 13' 00" Ping reçu, 977
30/08/2026 20h 12' 51" Ping reçu,         975
30/08/2026 20h 12' 48" cPing.
30/08/2026 20h 12' 47" Ping reçu, 974
30/08/2026 20h 12' 39" Ping reçu, 972
30/08/2026 20h 12' 36" Ping reçu, 971
30/08/2026 20h 12' 32" Ping reçu,         970
30/08/2026 20h 12' 28" Ping reçu, 969
30/08/2026 20h 12' 20" Ping reçu, 967
30/08/2026 20h 12' 06" Ping reçu, 964
30/08/2026 20h 12' 02" Ping reçu, 963
30/08/2026 20h 11' 58" Ping reçu, 962
30/08/2026 20h 11' 53" Enregistrement de la température (23,334 °C)
30/08/2026 20h 11' 52" cPing.
30/08/2026 20h 11' 51" Ping reçu,         960
30/08/2026 20h 11' 49" Enregistrement de la Pression atmosphérique (1026,070 hPa)
30/08/2026 20h 11' 49" Enregistrement des paramètres du vent (49.1° @ 0 m/s)
30/08/2026 20h 11' 44" Ping reçu, 959
30/08/2026 20h 11' 39" Ping reçu, 958
30/08/2026 20h 11' 35" Ping reçu, 957
30/08/2026 20h 11' 27" Enregistrement de l'Arduino : (27,0 °C)
30/08/2026 20h 11' 20" Ping reçu, 954
30/08/2026 20h 11' 12" Ping reçu, 952
30/08/2026 20h 11' 08" ERR. Ther. 1 HS.
30/08/2026 20h 11' 08" ERR. Ther. 14 HS.
30/08/2026 20h 11' 08" ERR. Ther. 10 HS.
30/08/2026 20h 11' 02" Ping reçu,         950
30/08/2026 20h 10' 58" Ping reçu, 949
30/08/2026 20h 10' 55" Enregistrement de l'éclairement (345.6 lux & 0 lux )
30/08/2026 20h 10' 55" cPing.
30/08/2026 20h 10' 45" Ping reçu, 946
30/08/2026 20h 10' 41" Ping reçu,         945
30/08/2026 20h 10' 32" Ping reçu, 943
30/08/2026 20h 10' 28" Ping reçu, 942
30/08/2026 20h 10' 24" Ping reçu, 941
30/08/2026 20h 10' 20" Ping reçu,         940
30/08/2026 20h 10' 17" Ping reçu, 939
30/08/2026 20h 10' 13" Ping reçu, 938
30/08/2026 20h 10' 05" Ping reçu, 936
30/08/2026 20h 10' 00" Ping reçu,         935
30/08/2026 20h 10' 00" cPing.
30/08/2026 20h 09' 56" Ping reçu, 934
30/08/2026 20h 09' 51" Ping reçu, 933
30/08/2026 20h 09' 47" Ping reçu, 932
30/08/2026 20h 09' 43" Ping reçu, 931
30/08/2026 20h 09' 39" Ping reçu,         930
30/08/2026 20h 09' 23" Ping reçu, 926
30/08/2026 20h 09' 19" Ping reçu,         925
30/08/2026 20h 09' 15" Ping reçu, 924
30/08/2026 20h 09' 11" Ping reçu, 923
30/08/2026 20h 09' 03" cPing.
30/08/2026 20h 08' 57" Ping reçu,         920
30/08/2026 20h 08' 49" Ping reçu, 918
30/08/2026 20h 08' 45" Ping reçu, 917
30/08/2026 20h 08' 43" Enregistrement de l'éclairement (345.6 lux & 0 lux )
30/08/2026 20h 08' 36" Ping reçu,         915
30/08/2026 20h 08' 32" Ping reçu, 914
30/08/2026 20h 08' 25" Ping reçu, 912
30/08/2026 20h 08' 08" cPing.
30/08/2026 20h 08' 03" Ping reçu, 907
30/08/2026 20h 07' 54" On a tout sauvé !
30/08/2026 20h 07' 54" Ping reçu,         905
30/08/2026 20h 07' 50" Ping reçu, 904
30/08/2026 20h 07' 45" Ping reçu, 903
30/08/2026 20h 07' 35" Enregistrement de la température (23,448 °C)
30/08/2026 20h 07' 33" Enregistrement de l'éclairement (345.6 lux & 0 lux )
30/08/2026 20h 07' 32" Ping reçu,         900
30/08/2026 20h 07' 19" Ping reçu, 897
30/08/2026 20h 07' 14" Ping reçu, 896
30/08/2026 20h 07' 12" ERR. Ther. 14 HS.
30/08/2026 20h 07' 12" cPing.
30/08/2026 20h 07' 10" ERR. Ther. 1 HS.
30/08/2026 20h 07' 09" Ping reçu,         895
30/08/2026 20h 07' 01" Ping reçu, 893
30/08/2026 20h 06' 57" Ping reçu, 892
30/08/2026 20h 06' 44" Ping reçu, 889
30/08/2026 20h 06' 42" Ping reçu, 888
30/08/2026 20h 06' 38" Ping reçu, 887
30/08/2026 20h 06' 33" Ping reçu, 886
30/08/2026 20h 06' 29" Rw SD-card.
30/08/2026 20h 06' 29" Ping reçu,         885
30/08/2026 20h 06' 16" Ping reçu, 882
30/08/2026 20h 06' 15" cPing.
30/08/2026 20h 06' 12" Ping reçu, 881
30/08/2026 20h 06' 03" Ping reçu, 879
30/08/2026 20h 05' 58" Ping reçu, 878
30/08/2026 20h 05' 54" Ping reçu, 877
30/08/2026 20h 05' 51" Ping reçu, 876
30/08/2026 20h 05' 47" Ping reçu,         875
30/08/2026 20h 05' 35" Ping reçu, 872
30/08/2026 20h 05' 30" Ping reçu, 871
30/08/2026 20h 05' 26" Ping reçu,         870
30/08/2026 20h 05' 22" Ping reçu, 869
30/08/2026 20h 05' 20" cPing.
30/08/2026 20h 05' 18" Ping reçu, 868
30/08/2026 20h 05' 14" Ping reçu, 867
30/08/2026 20h 05' 03" Ping reçu,         865
30/08/2026 20h 04' 59" Ping reçu, 864
30/08/2026 20h 04' 54" Ping reçu, 863
30/08/2026 20h 04' 45" Ping reçu, 861
30/08/2026 20h 04' 41" Ping reçu,         860
30/08/2026 20h 04' 37" Ping reçu, 859
30/08/2026 20h 04' 33" Ping reçu, 858
30/08/2026 20h 04' 23" cPing.
30/08/2026 20h 04' 22" Ping reçu,         855
30/08/2026 20h 04' 17" Ping reçu, 854
30/08/2026 20h 04' 10" Enregistrement de l'éclairement (345.6 lux & 0 lux )
30/08/2026 20h 04' 05" Ping reçu, 851
30/08/2026 20h 04' 00" Ping reçu,         850
30/08/2026 20h 03' 56" Ping reçu, 849
30/08/2026 20h 03' 52" Ping reçu, 848
30/08/2026 20h 03' 47" Ping reçu, 847
30/08/2026 20h 03' 43" Ping reçu, 846
30/08/2026 20h 03' 39" Ping reçu,         845
30/08/2026 20h 03' 28" cPing.
30/08/2026 20h 03' 23" Ping reçu, 841
30/08/2026 20h 03' 21" Enregistrement de la température (23,652 °C)
30/08/2026 20h 03' 20" Enregistrement de l'humidité (66,52 %)
30/08/2026 20h 03' 19" Ping reçu,         840
30/08/2026 20h 03' 15" ERR. Ther. 1 HS.
30/08/2026 20h 03' 12" Ping reçu, 839
30/08/2026 20h 03' 08" Ping reçu, 838
30/08/2026 20h 03' 05" Ping reçu, 837
30/08/2026 20h 03' 02" Enregistrement de l'éclairement (345.6 lux & 0 lux )
30/08/2026 20h 03' 01" Ping reçu, 836
30/08/2026 20h 02' 53" Ping reçu, 834
30/08/2026 20h 02' 44" Ping reçu, 832
30/08/2026 20h 02' 31" cPing.
30/08/2026 20h 02' 26" Ping reçu, 828
30/08/2026 20h 02' 18" Ping reçu, 826
30/08/2026 20h 02' 14" Ping reçu,         825
30/08/2026 20h 02' 11" Ping reçu, 824
30/08/2026 20h 02' 03" Ping reçu, 822
30/08/2026 20h 01' 59" Ping reçu, 821
30/08/2026 20h 01' 56" Enregistrement de l'éclairement (341.3 lux & 0 lux )
30/08/2026 20h 01' 41" Ping reçu, 817
30/08/2026 20h 01' 36" cPing.
30/08/2026 20h 01' 33" Ping reçu,         815
30/08/2026 20h 01' 29" Ping reçu, 814
30/08/2026 20h 01' 26" Ping reçu, 813
30/08/2026 20h 01' 22" Ping reçu, 812
30/08/2026 20h 01' 18" Ping reçu, 811
30/08/2026 20h 01' 05" Ping reçu, 808
30/08/2026 20h 00' 56" Ping reçu, 806
30/08/2026 20h 00' 47" Ping reçu, 804
30/08/2026 20h 00' 47" Enregistrement de l'éclairement (341.3 lux & 0 lux )
30/08/2026 20h 00' 43" Ping reçu, 803
30/08/2026 20h 00' 39" Ping reçu, 802
30/08/2026 20h 00' 39" cPing.
30/08/2026 20h 00' 30" On purge les valeurs du crystal...
30/08/2026 20h 00' 30" Pressions pluviométriques (32,07 & 64,00)
30/08/2026 20h 00' 29" Ping reçu,         800
30/08/2026 20h 00' 29" Enregistrement des paramètres du vent (49.1° @ 0 m/s)
30/08/2026 20h 00' 24" Ping reçu, 799
30/08/2026 20h 00' 23" On purge les valeurs du crystal...
30/08/2026 20h 00' 20" Ping reçu, 798
30/08/2026 20h 00' 16" Ping reçu, 797
30/08/2026 20h 00' 12" On purge les valeurs du crystal...
30/08/2026 20h 00' 07" Ping reçu,         795
30/08/2026 20h 00' 03" Ping reçu, 794
30/08/2026 20h 00' 00" Ping reçu, 793
30/08/2026 19h 59' 56" Ping reçu, 792
30/08/2026 19h 59' 44" cPing.
30/08/2026 19h 59' 43" Ping reçu, 789
30/08/2026 19h 59' 40" Enregistrement de l'éclairement (345.6 lux & 0 lux )
30/08/2026 19h 59' 39" Ping reçu, 788
30/08/2026 19h 59' 30" Ping reçu, 786
30/08/2026 19h 59' 18" ERR. Ther. 1 HS.
30/08/2026 19h 59' 18" ERR. Ther. 14 HS.
30/08/2026 19h 59' 17" Ping reçu, 783
30/08/2026 19h 59' 12" Ping reçu, 782
30/08/2026 19h 59' 08" Ping reçu, 781
30/08/2026 19h 59' 07" Enregistrement de la température (23,947 °C)
30/08/2026 19h 58' 57" Ping reçu, 778
30/08/2026 19h 58' 53" Ping reçu, 777
30/08/2026 19h 58' 49" Ping reçu, 776
30/08/2026 19h 58' 48" cPing.
30/08/2026 19h 58' 45" Ping reçu,         775
30/08/2026 19h 58' 36" Ping reçu, 773
30/08/2026 19h 58' 35" Enregistrement de l'éclairement (345.6 lux & 0 lux )
30/08/2026 19h 58' 27" Ping reçu, 771
30/08/2026 19h 58' 23" Ping reçu,         770
30/08/2026 19h 58' 19" Ping reçu, 769
30/08/2026 19h 58' 15" Ping reçu, 768
30/08/2026 19h 58' 10" Ping reçu, 767
30/08/2026 19h 58' 06" Ping reçu, 766
30/08/2026 19h 57' 57" Enregistrement de l'Arduino : (27,0 °C)
30/08/2026 19h 57' 51" Ping reçu, 763
30/08/2026 19h 57' 51" cPing.
30/08/2026 19h 57' 43" Ping reçu, 761
30/08/2026 19h 57' 36" Ping reçu, 759
30/08/2026 19h 57' 32" Ping reçu, 758
30/08/2026 19h 57' 28" Ping reçu, 757
30/08/2026 19h 57' 27" Enregistrement de l'éclairement (216 lux & 0 lux )
30/08/2026 19h 57' 24" Ping reçu, 756
30/08/2026 19h 57' 20" Ping reçu,         755
30/08/2026 19h 57' 15" Ping reçu, 754
30/08/2026 19h 57' 11" Ping reçu, 753
30/08/2026 19h 57' 06" Ping reçu, 752
30/08/2026 19h 57' 02" Ping reçu, 751
30/08/2026 19h 56' 58" Ping reçu,         750
30/08/2026 19h 56' 54" Ping reçu, 749
30/08/2026 19h 56' 54" cPing.
30/08/2026 19h 56' 47" Ping reçu, 747
30/08/2026 19h 56' 34" Ping reçu, 744
30/08/2026 19h 56' 30" Ping reçu, 743
30/08/2026 19h 56' 26" Ping reçu, 742
30/08/2026 19h 56' 20" Enregistrement de l'éclairement (246.3 lux & 0 lux )
30/08/2026 19h 56' 17" Ping reçu,         740
30/08/2026 19h 56' 12" Ping reçu, 739
30/08/2026 19h 56' 08" Ping reçu, 738
30/08/2026 19h 56' 04" Ping reçu, 737
30/08/2026 19h 55' 59" cPing.
30/08/2026 19h 55' 53" Ping reçu, 734
30/08/2026 19h 55' 47" Ping reçu, 733
30/08/2026 19h 55' 44" Ping reçu, 732
30/08/2026 19h 55' 41" Ping reçu, 731
30/08/2026 19h 55' 32" Ping reçu, 729
30/08/2026 19h 55' 27" Ping reçu, 728
30/08/2026 19h 55' 26" ERR. Ther. 14 HS.
30/08/2026 19h 55' 24" ERR. Ther. 1 HS.
30/08/2026 19h 55' 23" Ping reçu, 727
30/08/2026 19h 55' 15" Ping reçu,         725
30/08/2026 19h 55' 13" Enregistrement de l'éclairement (272.2 lux & 0 lux )
30/08/2026 19h 55' 06" Ping reçu, 723
30/08/2026 19h 55' 02" cPing.
30/08/2026 19h 54' 56" Enregistrement de la température (24,071 °C)
30/08/2026 19h 54' 55" Ping reçu,         720
30/08/2026 19h 54' 54" Enregistrement des paramètres du vent (49.1° @ 0 m/s)
30/08/2026 19h 54' 48" Ping reçu, 719
30/08/2026 19h 54' 45" Ping reçu, 718
30/08/2026 19h 54' 41" Ping reçu, 717
30/08/2026 19h 54' 33" Ping reçu,         715
30/08/2026 19h 54' 20" Ping reçu, 712
30/08/2026 19h 54' 11" Ping reçu,         710
30/08/2026 19h 54' 06" Ping reçu, 709
30/08/2026 19h 54' 06" cPing.
30/08/2026 19h 54' 06" Enregistrement de l'éclairement (250.6 lux & 0 lux )
30/08/2026 19h 54' 02" Ping reçu, 708
30/08/2026 19h 53' 58" Ping reçu, 707
30/08/2026 19h 53' 54" Ping reçu, 706
30/08/2026 19h 53' 51" Ping reçu,         705
30/08/2026 19h 53' 47" Ping reçu, 704
30/08/2026 19h 53' 43" Ping reçu, 703
30/08/2026 19h 53' 39" Ping reçu, 702
30/08/2026 19h 53' 35" Ping reçu, 701
30/08/2026 19h 53' 31" Enregistrement de l'humidité (62,16 %)
30/08/2026 19h 53' 30" Ping reçu,         700
30/08/2026 19h 53' 26" On a tout sauvé !
30/08/2026 19h 53' 26" Ping reçu, 699
30/08/2026 19h 53' 21" Ping reçu, 698
30/08/2026 19h 53' 17" Ping reçu, 697
30/08/2026 19h 53' 11" cPing.
30/08/2026 19h 53' 08" Ping reçu,         695
30/08/2026 19h 53' 04" Ping reçu, 694
30/08/2026 19h 52' 58" Enregistrement Température du pluviometre : (24,9 °C)
30/08/2026 19h 52' 56" Enregistrement de l'éclairement (203.1 lux & 0 lux )
30/08/2026 19h 52' 54" Ping reçu, 692
30/08/2026 19h 52' 50" Ping reçu, 691
30/08/2026 19h 52' 45" Ping reçu,         690
30/08/2026 19h 52' 36" Ping reçu, 688
30/08/2026 19h 52' 32" Ping reçu, 687
30/08/2026 19h 52' 19" Ping reçu, 684
30/08/2026 19h 52' 15" Ping reçu, 683
30/08/2026 19h 52' 14" cPing.
30/08/2026 19h 52' 06" Ping reçu, 681
30/08/2026 19h 52' 02" Ping reçu,         680
30/08/2026 19h 51' 59" Ping reçu, 679
30/08/2026 19h 51' 55" Ping reçu, 678
30/08/2026 19h 51' 51" Ping reçu, 677
30/08/2026 19h 51' 48" Enregistrement de l'éclairement (328.4 lux & 0 lux )
30/08/2026 19h 51' 42" Ping reçu,         675
30/08/2026 19h 51' 38" Ping reçu, 674
30/08/2026 19h 51' 33" Ping reçu, 673
30/08/2026 19h 51' 29" Ping reçu, 672
30/08/2026 19h 51' 27" ERR. Ther. 14 HS.
30/08/2026 19h 51' 20" Ping reçu,         670
30/08/2026 19h 51' 19" cPing.
30/08/2026 19h 51' 16" Ping reçu, 669
30/08/2026 19h 51' 12" Ping reçu, 668
30/08/2026 19h 51' 08" Ping reçu, 667
30/08/2026 19h 51' 01" Ping reçu,         665
30/08/2026 19h 50' 56" Ping reçu, 664
30/08/2026 19h 50' 52" Ping reçu, 663
30/08/2026 19h 50' 43" Enregistrement de la température (24,158 °C)
30/08/2026 19h 50' 39" Ping reçu,         660
30/08/2026 19h 50' 30" Ping reçu, 658
30/08/2026 19h 50' 22" cPing.
30/08/2026 19h 50' 17" Ping reçu,         655
30/08/2026 19h 50' 12" Ping reçu, 654
30/08/2026 19h 50' 08" Ping reçu, 653
30/08/2026 19h 50' 00" Ping reçu, 651
30/08/2026 19h 49' 56" Ping reçu,         650
30/08/2026 19h 49' 44" Ping reçu, 647
30/08/2026 19h 49' 40" Ping reçu, 646
30/08/2026 19h 49' 36" Ping reçu,         645
30/08/2026 19h 49' 32" Enregistrement de l'éclairement (341.3 lux & 0 lux )
30/08/2026 19h 49' 32" Ping reçu, 644
30/08/2026 19h 49' 27" Ping reçu, 643
30/08/2026 19h 49' 27" cPing.
30/08/2026 19h 49' 18" Ping reçu, 641
30/08/2026 19h 49' 15" Enregistrement de la hauteur d'eau (783,000 mm @ 99,9%)
30/08/2026 19h 49' 14" Enregistrement des paramètres du vent (49.1° @ 0 m/s)
30/08/2026 19h 49' 05" Ping reçu, 638
30/08/2026 19h 49' 00" Ping reçu, 637
30/08/2026 19h 48' 56" Ping reçu, 636
30/08/2026 19h 48' 52" Ping reçu,         635
30/08/2026 19h 48' 48" Ping reçu, 634
30/08/2026 19h 48' 44" Ping reçu, 633
30/08/2026 19h 48' 41" Ping reçu, 632
30/08/2026 19h 48' 35" Ping reçu, 631
30/08/2026 19h 48' 32" Ping reçu,         630
30/08/2026 19h 48' 30" cPing.
30/08/2026 19h 48' 28" Ping reçu, 629
30/08/2026 19h 48' 24" Ping reçu, 628
30/08/2026 19h 48' 20" Ping reçu, 627
30/08/2026 19h 48' 15" Ping reçu, 626
30/08/2026 19h 48' 11" Ping reçu,         625
30/08/2026 19h 48' 07" Ping reçu, 624
30/08/2026 19h 48' 02" Ping reçu, 623
30/08/2026 19h 47' 58" Ping reçu, 622
30/08/2026 19h 47' 54" Ping reçu, 621
30/08/2026 19h 47' 47" Ping reçu, 619
30/08/2026 19h 47' 35" cPing.
30/08/2026 19h 47' 34" Ping reçu, 616
30/08/2026 19h 47' 30" ERR. Ther. 1 HS.
30/08/2026 19h 47' 30" ERR. Ther. 14 HS.
30/08/2026 19h 47' 30" Ping reçu,         615
30/08/2026 19h 47' 25" Ping reçu, 614
30/08/2026 19h 47' 21" Ping reçu, 613
30/08/2026 19h 47' 17" Ping reçu, 612
30/08/2026 19h 47' 08" Ping reçu,         610
30/08/2026 19h 47' 05" Ping reçu, 609
30/08/2026 19h 47' 02" Ping reçu, 608
30/08/2026 19h 46' 55" Ping reçu, 607
30/08/2026 19h 46' 51" Ping reçu, 606
30/08/2026 19h 46' 48" Ping reçu,         605
30/08/2026 19h 46' 40" Ping reçu, 603
30/08/2026 19h 46' 39" cPing.
30/08/2026 19h 46' 36" Ping reçu, 602
30/08/2026 19h 46' 32" Ping reçu, 601
30/08/2026 19h 46' 31" Enregistrement de la température (24,199 °C)
30/08/2026 19h 46' 28" Enregistrement de la Pression atmosphérique (1026,077 hPa)
30/08/2026 19h 46' 27" Ping reçu,         600
30/08/2026 19h 46' 23" Ping reçu, 599
30/08/2026 19h 46' 12" Enregistrement de l'éclairement (285.1 lux & 0 lux )
30/08/2026 19h 46' 09" Ping reçu, 596
30/08/2026 19h 46' 01" Ping reçu, 594
30/08/2026 19h 45' 56" Ping reçu, 593
30/08/2026 19h 45' 54" Ping reçu, 592
30/08/2026 19h 45' 43" Ping reçu,         590
30/08/2026 19h 45' 42" cPing.
30/08/2026 19h 45' 34" Ping reçu, 588
30/08/2026 19h 45' 27" Ping reçu, 586
30/08/2026 19h 45' 19" Ping reçu, 584
30/08/2026 19h 45' 10" Ping reçu, 582
30/08/2026 19h 44' 57" Ping reçu, 579
30/08/2026 19h 44' 53" Ping reçu, 578
30/08/2026 19h 44' 48" Ping reçu, 577
30/08/2026 19h 44' 47" cPing.
30/08/2026 19h 44' 44" Ping reçu, 576
30/08/2026 19h 44' 39" Ping reçu,         575
30/08/2026 19h 44' 35" Ping reçu, 574
30/08/2026 19h 44' 31" Enregistrement de l'Arduino : (27,0 °C)
30/08/2026 19h 44' 29" Ping reçu, 573
30/08/2026 19h 44' 25" Ping reçu, 572
30/08/2026 19h 44' 21" Ping reçu, 571
30/08/2026 19h 44' 17" Ping reçu,         570
30/08/2026 19h 44' 12" Ping reçu, 569
30/08/2026 19h 44' 08" Ping reçu, 568
30/08/2026 19h 44' 04" Ping reçu, 567
30/08/2026 19h 44' 00" Ping reçu, 566
30/08/2026 19h 43' 57" Ping reçu,         565
30/08/2026 19h 43' 54" Enregistrement de l'éclairement (345.6 lux & 0 lux )
30/08/2026 19h 43' 50" cPing.
30/08/2026 19h 43' 49" Ping reçu, 563
30/08/2026 19h 43' 40" Ping reçu, 561
30/08/2026 19h 43' 36" Enregistrement des paramètres du vent (49.1° @ 0 m/s)
30/08/2026 19h 43' 36" Ping reçu,         560
30/08/2026 19h 43' 32" ERR. Ther. 1 HS.
30/08/2026 19h 43' 32" ERR. Ther. 14 HS.
30/08/2026 19h 43' 30" Ping reçu, 559
30/08/2026 19h 43' 22" Ping reçu, 557
30/08/2026 19h 43' 18" Ping reçu, 556
30/08/2026 19h 43' 05" Ping reçu, 553
30/08/2026 19h 42' 55" cPing.
30/08/2026 19h 42' 51" Ping reçu,         550
30/08/2026 19h 42' 47" Enregistrement de l'éclairement (337 lux & 0 lux )
30/08/2026 19h 42' 43" Ping reçu, 548
30/08/2026 19h 42' 34" Ping reçu, 546
30/08/2026 19h 42' 30" Ping reçu,         545
30/08/2026 19h 42' 27" Ping reçu, 544
30/08/2026 19h 42' 21" Ping reçu, 543
30/08/2026 19h 42' 14" Ping reçu, 541
30/08/2026 19h 42' 10" Ping reçu,         540
30/08/2026 19h 42' 05" Ping reçu, 539
30/08/2026 19h 42' 01" Ping reçu, 538
30/08/2026 19h 41' 57" cPing.
30/08/2026 19h 41' 57" Ping reçu, 537
30/08/2026 19h 41' 48" Ping reçu,         535
30/08/2026 19h 41' 38" Enregistrement de l'éclairement (306.8 lux & 0 lux )
30/08/2026 19h 41' 35" Ping reçu, 532
30/08/2026 19h 41' 31" Ping reçu, 531
30/08/2026 19h 41' 27" Ping reçu,         530
30/08/2026 19h 41' 24" Ping reçu, 529
30/08/2026 19h 41' 11" Ping reçu, 526
30/08/2026 19h 41' 07" Ping reçu,         525
30/08/2026 19h 41' 03" Ping reçu, 524
30/08/2026 19h 41' 02" cPing.
30/08/2026 19h 40' 59" Ping reçu, 523
30/08/2026 19h 40' 54" Ping reçu, 522
30/08/2026 19h 40' 50" Ping reçu, 521
30/08/2026 19h 40' 45" Ping reçu,         520
30/08/2026 19h 40' 35" Ping reçu, 518
30/08/2026 19h 40' 31" Ping reçu, 517
30/08/2026 19h 40' 27" Ping reçu, 516
30/08/2026 19h 40' 18" Ping reçu, 514
30/08/2026 19h 40' 05" Ping reçu, 511
30/08/2026 19h 40' 05" cPing.
30/08/2026 19h 40' 01" Ping reçu,         510
30/08/2026 19h 39' 52" Ping reçu, 508
30/08/2026 19h 39' 39" Ping reçu,         505
30/08/2026 19h 39' 36" Ping reçu, 504
30/08/2026 19h 39' 33" ERR. Ther. 1 HS.
30/08/2026 19h 39' 28" Ping reçu, 502
30/08/2026 19h 39' 24" Ping reçu, 501
30/08/2026 19h 39' 20" Enregistrement de l'éclairement (229 lux & 0 lux )
30/08/2026 19h 39' 19" Ping reçu,         500
30/08/2026 19h 39' 10" cPing.
30/08/2026 19h 39' 06" Ping reçu, 497
30/08/2026 19h 38' 57" Ping reçu,         495
30/08/2026 19h 38' 44" Ping reçu, 492
30/08/2026 19h 38' 40" On a tout sauvé !
30/08/2026 19h 38' 31" Ping reçu, 489
30/08/2026 19h 38' 24" Ping reçu, 487
30/08/2026 19h 38' 20" Ping reçu, 486
30/08/2026 19h 38' 13" cPing.
30/08/2026 19h 38' 12" Enregistrement de l'éclairement (285.1 lux & 0 lux )
30/08/2026 19h 38' 12" Ping reçu, 484
30/08/2026 19h 38' 08" Ping reçu, 483
30/08/2026 19h 38' 03" Ping reçu, 482
30/08/2026 19h 37' 58" Enregistrement de la température (24,339 °C)
30/08/2026 19h 37' 56" Enregistrement de la hauteur d'eau (783,090 mm @ 99,9%)
30/08/2026 19h 37' 54" Enregistrement de la Pression atmosphérique (1026,068 hPa)
30/08/2026 19h 37' 54" Ping reçu,         480
30/08/2026 19h 37' 54" Enregistrement des paramètres du vent (49.1° @ 0 m/s)
30/08/2026 19h 37' 49" Ping reçu, 479
30/08/2026 19h 37' 45" Ping reçu, 478
30/08/2026 19h 37' 41" Ping reçu, 477
30/08/2026 19h 37' 32" Ping reçu,         475
30/08/2026 19h 37' 28" Ping reçu, 474
30/08/2026 19h 37' 18" cPing.
30/08/2026 19h 37' 15" Ping reçu, 471
30/08/2026 19h 37' 08" Ping reçu, 469
30/08/2026 19h 37' 05" Enregistrement de l'éclairement (250.6 lux & 0 lux )
30/08/2026 19h 37' 04" Ping reçu, 468
30/08/2026 19h 37' 00" Ping reçu, 467
30/08/2026 19h 36' 56" Ping reçu, 466
30/08/2026 19h 36' 51" Ping reçu,         465
30/08/2026 19h 36' 47" Ping reçu, 464
30/08/2026 19h 36' 38" Ping reçu, 462
30/08/2026 19h 36' 30" Ping reçu,         460
30/08/2026 19h 36' 27" Ping reçu, 459
30/08/2026 19h 36' 23" Ping reçu, 458
30/08/2026 19h 36' 21" cPing.
30/08/2026 19h 36' 19" Ping reçu, 457
30/08/2026 19h 36' 15" Ping reçu, 456
30/08/2026 19h 36' 11" Ping reçu,         455
30/08/2026 19h 35' 58" Enregistrement de l'éclairement (298.1 lux & 0 lux )
30/08/2026 19h 35' 44" Ping reçu, 449
30/08/2026 19h 35' 40" Ping reçu, 448
30/08/2026 19h 35' 31" Ping reçu, 446
30/08/2026 19h 35' 27" Ping reçu,         445
30/08/2026 19h 35' 26" cPing.
30/08/2026 19h 35' 24" Ping reçu, 444
30/08/2026 19h 35' 20" Ping reçu, 443
30/08/2026 19h 35' 16" Ping reçu, 442
30/08/2026 19h 35' 12" Ping reçu, 441
30/08/2026 19h 35' 03" Ping reçu, 439
30/08/2026 19h 34' 50" Ping reçu, 436
30/08/2026 19h 34' 46" Ping reçu,         435
30/08/2026 19h 34' 39" Ping reçu, 433
30/08/2026 19h 34' 33" Ping reçu, 432
30/08/2026 19h 34' 29" cPing.
30/08/2026 19h 34' 21" Ping reçu, 429
30/08/2026 19h 34' 17" Ping reçu, 428
30/08/2026 19h 34' 13" Ping reçu, 427
30/08/2026 19h 34' 09" Ping reçu, 426
30/08/2026 19h 34' 00" Ping reçu, 424
30/08/2026 19h 33' 56" Ping reçu, 423
30/08/2026 19h 33' 47" Ping reçu, 421
30/08/2026 19h 33' 44" Enregistrement de l'éclairement (289.5 lux & 0 lux )
30/08/2026 19h 33' 43" Ping reçu,         420
30/08/2026 19h 33' 43" Enregistrement de l'humidité (60,56 %)
30/08/2026 19h 33' 34" Ping reçu, 418
30/08/2026 19h 33' 33" cPing.
30/08/2026 19h 33' 30" Ping reçu, 417
30/08/2026 19h 33' 21" Ping reçu,         415
30/08/2026 19h 33' 10" Ping reçu, 412
30/08/2026 19h 32' 53" Ping reçu, 408
30/08/2026 19h 32' 48" Ping reçu, 407
30/08/2026 19h 32' 44" Ping reçu, 406
30/08/2026 19h 32' 39" Ping reçu,         405
30/08/2026 19h 32' 38" Enregistrement de l'éclairement (263.5 lux & 0 lux )
30/08/2026 19h 32' 38" cPing.
30/08/2026 19h 32' 31" Ping reçu, 403
30/08/2026 19h 32' 27" Ping reçu, 402
30/08/2026 19h 32' 23" Ping reçu, 401
30/08/2026 19h 32' 20" Ping reçu,         400
30/08/2026 19h 32' 18" Enregistrement des paramètres du vent (49.3° @ 0 m/s)
30/08/2026 19h 32' 14" Ping reçu, 399
30/08/2026 19h 32' 11" Ping reçu, 398
30/08/2026 19h 32' 07" Ping reçu, 397
30/08/2026 19h 32' 03" Ping reçu, 396
30/08/2026 19h 31' 59" Ping reçu,         395
30/08/2026 19h 31' 54" Ping reçu, 394
30/08/2026 19h 31' 45" Ping reçu, 392
30/08/2026 19h 31' 42" ERR. Ther. 1 HS.
30/08/2026 19h 31' 41" cPing.
30/08/2026 19h 31' 33" Ping reçu, 389
30/08/2026 19h 31' 29" Ping reçu, 388
30/08/2026 19h 31' 24" Ping reçu, 387
30/08/2026 19h 31' 13" Ping reçu, 384
30/08/2026 19h 31' 00" Ping reçu, 382
30/08/2026 19h 30' 56" Ping reçu, 381
30/08/2026 19h 30' 51" Ping reçu,         380
30/08/2026 19h 30' 47" Ping reçu, 379
30/08/2026 19h 30' 46" cPing.
30/08/2026 19h 30' 39" Ping reçu, 377
30/08/2026 19h 30' 36" Ping reçu, 376
30/08/2026 19h 30' 19" Ping reçu, 372
30/08/2026 19h 30' 15" Ping reçu, 371
30/08/2026 19h 29' 57" Ping reçu, 367
30/08/2026 19h 29' 53" Ping reçu, 366
30/08/2026 19h 29' 49" cPing.
30/08/2026 19h 29' 48" Ping reçu,         365
30/08/2026 19h 29' 44" Ping reçu, 364
30/08/2026 19h 29' 42" Ping reçu, 363
30/08/2026 19h 29' 38" Ping reçu, 362
30/08/2026 19h 29' 34" Ping reçu, 361
30/08/2026 19h 29' 31" Enregistrement de la température (24,309 °C)
30/08/2026 19h 29' 30" Enregistrement de la Pression atmosphérique (1026,106 hPa)
30/08/2026 19h 29' 23" Ping reçu, 359
30/08/2026 19h 29' 14" Ping reçu, 357
30/08/2026 19h 29' 12" Enregistrement de l'éclairement (337 lux & 0 lux )
30/08/2026 19h 29' 11" Ping reçu, 356
30/08/2026 19h 29' 07" Ping reçu,         355
30/08/2026 19h 28' 59" Ping reçu, 353
30/08/2026 19h 28' 54" Ping reçu, 352
30/08/2026 19h 28' 54" cPing.
30/08/2026 19h 28' 50" Ping reçu, 351
30/08/2026 19h 28' 32" Ping reçu, 347
30/08/2026 19h 28' 24" Ping reçu, 346
30/08/2026 19h 28' 21" Ping reçu,         345
30/08/2026 19h 28' 17" Ping reçu, 344
30/08/2026 19h 28' 04" Ping reçu, 341
30/08/2026 19h 28' 00" Ping reçu,         340
30/08/2026 19h 27' 57" cPing.
30/08/2026 19h 27' 55" Ping reçu, 339
30/08/2026 19h 27' 51" Ping reçu, 338
30/08/2026 19h 27' 42" Ping reçu, 336
30/08/2026 19h 27' 38" Ping reçu,         335
30/08/2026 19h 27' 33" Ping reçu, 334
30/08/2026 19h 27' 21" Ping reçu, 331
30/08/2026 19h 27' 09" Ping reçu, 328
30/08/2026 19h 27' 05" Ping reçu, 327
30/08/2026 19h 27' 02" cPing.
30/08/2026 19h 27' 01" Ping reçu, 326
30/08/2026 19h 26' 53" Enregistrement de l'éclairement (345.6 lux & 0 lux )
30/08/2026 19h 26' 53" Ping reçu, 324
30/08/2026 19h 26' 48" Ping reçu, 323
30/08/2026 19h 26' 44" Ping reçu, 322
30/08/2026 19h 26' 39" Ping reçu, 321
30/08/2026 19h 26' 36" Pressions pluviométriques (32,07 & 64,00)
30/08/2026 19h 26' 35" Enregistrement des paramètres du vent (49.3° @ 0 m/s)
30/08/2026 19h 26' 30" Ping reçu, 319
30/08/2026 19h 26' 26" Ping reçu, 318
30/08/2026 19h 26' 21" Ping reçu, 317
30/08/2026 19h 26' 04" cPing.
30/08/2026 19h 26' 00" Ping reçu, 312
30/08/2026 19h 25' 53" Ping reçu,         310
30/08/2026 19h 25' 49" Ping reçu, 309
30/08/2026 19h 25' 45" Enregistrement de l'éclairement (345.6 lux & 0 lux )
30/08/2026 19h 25' 45" Ping reçu, 308
30/08/2026 19h 25' 41" Ping reçu, 307
30/08/2026 19h 25' 27" Ping reçu, 304
30/08/2026 19h 25' 23" Ping reçu, 303
30/08/2026 19h 25' 18" Ping reçu, 302
30/08/2026 19h 25' 14" Ping reçu, 301
30/08/2026 19h 25' 10" Ping reçu,         300
30/08/2026 19h 25' 09" cPing.
30/08/2026 19h 25' 01" Ping reçu, 298
30/08/2026 19h 24' 54" Ping reçu, 296
30/08/2026 19h 24' 48" Rw SD-card.
30/08/2026 19h 24' 45" Ping reçu, 294
30/08/2026 19h 24' 38" Enregistrement de l'éclairement (345.6 lux & 0 lux )
30/08/2026 19h 24' 36" Ping reçu, 292
30/08/2026 19h 24' 33" Ping reçu, 291
30/08/2026 19h 24' 28" Ping reçu, 1
30/08/2026 19h 24' 28" Ping reçu,         290
30/08/2026 19h 24' 24" Ping reçu, 289
30/08/2026 19h 24' 19" Ping reçu, 1
30/08/2026 19h 24' 15" Ping reçu, 287
30/08/2026 19h 24' 12" cPing.
30/08/2026 19h 24' 10" Ping reçu, 286
30/08/2026 19h 24' 06" On a tout sauvé !
30/08/2026 19h 24' 06" Ping reçu,         285
30/08/2026 19h 24' 02" Ping reçu, 284
30/08/2026 19h 23' 57" Ping reçu, 283
30/08/2026 19h 23' 53" Ping reçu, 282
30/08/2026 19h 23' 45" Ping reçu,         280
30/08/2026 19h 23' 42" ERR. Ther. 1 HS.
30/08/2026 19h 23' 32" Ping reçu, 277
30/08/2026 19h 23' 30" Enregistrement de l'éclairement (345.6 lux & 0 lux )
30/08/2026 19h 23' 25" Ping reçu,         275
30/08/2026 19h 23' 17" cPing.
30/08/2026 19h 23' 07" Ping reçu, 271
30/08/2026 19h 22' 59" Ping reçu, 269
30/08/2026 19h 22' 54" Ping reçu, 268
30/08/2026 19h 22' 50" Ping reçu, 267
30/08/2026 19h 22' 46" Ping reçu, 266
30/08/2026 19h 22' 42" Ping reçu,         265
30/08/2026 19h 22' 39" Ping reçu, 264
30/08/2026 19h 22' 35" Ping reçu, 263
30/08/2026 19h 22' 31" Ping reçu, 262
30/08/2026 19h 22' 27" Ping reçu, 261
30/08/2026 19h 22' 23" Ping reçu,         260
30/08/2026 19h 22' 20" cPing.
30/08/2026 19h 22' 18" Ping reçu, 259
30/08/2026 19h 22' 09" Ping reçu, 257
30/08/2026 19h 22' 05" Ping reçu, 256
30/08/2026 19h 22' 01" Ping reçu,         255
30/08/2026 19h 21' 53" Ping reçu, 253
30/08/2026 19h 21' 48" Ping reçu, 252
30/08/2026 19h 21' 39" Ping reçu,         250
30/08/2026 19h 21' 37" Ping reçu, 249
30/08/2026 19h 21' 28" Ping reçu, 247
30/08/2026 19h 21' 24" cPing.
30/08/2026 19h 21' 24" Ping reçu, 246
30/08/2026 19h 21' 11" Ping reçu, 243
30/08/2026 19h 21' 06" Ping reçu, 242
30/08/2026 19h 21' 02" Ping reçu, 241
30/08/2026 19h 21' 00" Ping reçu,         240
30/08/2026 19h 20' 58" Enregistrement de la Pression atmosphérique (1026,171 hPa)
30/08/2026 19h 20' 58" Enregistrement des paramètres du vent (49.2° @ 0 m/s)
30/08/2026 19h 20' 53" Ping reçu, 239
30/08/2026 19h 20' 48" Ping reçu, 238
30/08/2026 19h 20' 44" Ping reçu, 237
30/08/2026 19h 20' 40" Ping reçu, 236
30/08/2026 19h 20' 36" Ping reçu,         235
30/08/2026 19h 20' 29" cPing.
30/08/2026 19h 20' 27" Ping reçu, 233
30/08/2026 19h 20' 25" Ping reçu, 232
30/08/2026 19h 20' 12" Ping reçu, 229
30/08/2026 19h 20' 09" Enregistrement de l'éclairement (345.6 lux & 0 lux )
30/08/2026 19h 20' 03" Ping reçu, 227
30/08/2026 19h 19' 59" Ping reçu, 226
30/08/2026 19h 19' 54" Ping reçu,         225
30/08/2026 19h 19' 47" ERR. Ther. 1 HS.
30/08/2026 19h 19' 33" Ping reçu,         220
30/08/2026 19h 19' 32" cPing.
30/08/2026 19h 19' 29" Ping reçu, 219
30/08/2026 19h 19' 26" Ping reçu, 218
30/08/2026 19h 19' 18" Ping reçu, 216
30/08/2026 19h 19' 14" Ping reçu,         215
30/08/2026 19h 19' 09" Ping reçu, 214
30/08/2026 19h 19' 05" Ping reçu, 213
30/08/2026 19h 19' 01" Enregistrement de l'éclairement (345.6 lux & 0 lux )
30/08/2026 19h 19' 00" Ping reçu, 212
30/08/2026 19h 18' 47" Ping reçu, 209
30/08/2026 19h 18' 43" Ping reçu, 208
30/08/2026 19h 18' 37" cPing.
30/08/2026 19h 18' 35" Ping reçu, 206
30/08/2026 19h 18' 23" Ping reçu, 203
30/08/2026 19h 18' 15" Ping reçu, 201
30/08/2026 19h 18' 11" Ping reçu,         200
30/08/2026 19h 17' 57" Ping reçu, 197
30/08/2026 19h 17' 45" Ping reçu, 194
30/08/2026 19h 17' 40" cPing.
30/08/2026 19h 17' 36" Ping reçu, 192
30/08/2026 19h 17' 30" Ping reçu, 191
30/08/2026 19h 17' 26" Ping reçu,         190
30/08/2026 19h 17' 17" Ping reçu, 188
30/08/2026 19h 17' 09" Ping reçu, 186
30/08/2026 19h 17' 00" Ping reçu, 184
30/08/2026 19h 16' 56" Ping reçu, 183
30/08/2026 19h 16' 48" Enregistrement de la température (24,435 °C)
30/08/2026 19h 16' 48" Enregistrement de l'éclairement (345.6 lux & 0 lux )
30/08/2026 19h 16' 45" Ping reçu,         180
30/08/2026 19h 16' 45" cPing.
30/08/2026 19h 16' 41" Ping reçu, 179
30/08/2026 19h 16' 36" Ping reçu, 178
30/08/2026 19h 16' 32" Ping reçu, 177
30/08/2026 19h 16' 27" Ping reçu, 176
30/08/2026 19h 16' 15" Enregistrement Température du pluviometre : (24,8 °C)
30/08/2026 19h 16' 08" Ping reçu, 172
30/08/2026 19h 16' 04" Ping reçu, 171
30/08/2026 19h 16' 00" Ping reçu,         170
30/08/2026 19h 15' 51" Ping reçu, 168
30/08/2026 19h 15' 48" ERR. Ther. 1 HS.
30/08/2026 19h 15' 48" cPing.
30/08/2026 19h 15' 47" Ping reçu, 167
30/08/2026 19h 15' 43" Ping reçu, 166
30/08/2026 19h 15' 39" Ping reçu,         165
30/08/2026 19h 15' 38" Enregistrement de l'éclairement (345.6 lux & 0 lux )
30/08/2026 19h 15' 30" Ping reçu, 163
30/08/2026 19h 15' 23" Ping reçu, 161
30/08/2026 19h 15' 20" Pressions pluviométriques (32,07 & 64,00)
30/08/2026 19h 15' 19" Ping reçu,         160
30/08/2026 19h 15' 09" Ping reçu, 158
30/08/2026 19h 15' 05" Ping reçu, 157
30/08/2026 19h 14' 56" Ping reçu,         155
30/08/2026 19h 14' 53" cPing.
30/08/2026 19h 14' 52" Ping reçu, 154
30/08/2026 19h 14' 48" Ping reçu, 153
30/08/2026 19h 14' 44" Ping reçu, 152
30/08/2026 19h 14' 39" Ping reçu, 151
30/08/2026 19h 14' 35" Ping reçu,         150
30/08/2026 19h 14' 29" Enregistrement de l'éclairement (345.6 lux & 0 lux )
30/08/2026 19h 14' 27" Ping reçu, 148
30/08/2026 19h 14' 18" Ping reçu, 146
30/08/2026 19h 14' 14" Ping reçu,         145
30/08/2026 19h 14' 07" Ping reçu, 143
30/08/2026 19h 13' 57" cPing.
30/08/2026 19h 13' 54" Enregistrement de l'humidité (59,95 %)
30/08/2026 19h 13' 45" Ping reçu, 138
30/08/2026 19h 13' 41" Ping reçu, 137
30/08/2026 19h 13' 36" Ping reçu, 136
30/08/2026 19h 13' 33" Ping reçu,         135
30/08/2026 19h 13' 28" Ping reçu, 134
30/08/2026 19h 13' 12" Ping reçu,         130
30/08/2026 19h 13' 08" Ping reçu, 129
30/08/2026 19h 13' 00" cPing.
30/08/2026 19h 12' 59" Ping reçu, 127
30/08/2026 19h 12' 55" Ping reçu, 126
30/08/2026 19h 12' 47" Ping reçu, 124
30/08/2026 19h 12' 42" Ping reçu, 123
30/08/2026 19h 12' 38" Ping reçu, 122
30/08/2026 19h 12' 33" Ping reçu, 121
30/08/2026 19h 12' 33" Enregistrement de la température (24,391 °C)
30/08/2026 19h 12' 30" Enregistrement de la Pression atmosphérique (1026,173 hPa)
30/08/2026 19h 12' 14" Enregistrement de l'éclairement (345.6 lux & 0 lux )
30/08/2026 19h 12' 11" Ping reçu, 116
30/08/2026 19h 12' 07" Ping reçu,         115
30/08/2026 19h 12' 05" cPing.
30/08/2026 19h 11' 59" Ping reçu, 113
30/08/2026 19h 11' 56" Ping reçu, 112
30/08/2026 19h 11' 53" ERR. Ther. 1 HS.
30/08/2026 19h 11' 52" Ping reçu, 111
30/08/2026 19h 11' 47" Ping reçu,         110
30/08/2026 19h 11' 35" Ping reçu, 107
30/08/2026 19h 11' 30" Ping reçu, 106
30/08/2026 19h 11' 22" Ping reçu, 104
30/08/2026 19h 11' 18" Ping reçu, 103
30/08/2026 19h 11' 14" Ping reçu, 102
30/08/2026 19h 11' 08" Enregistrement de l'éclairement (345.6 lux & 0 lux )
30/08/2026 19h 11' 08" cPing.
30/08/2026 19h 11' 02" Ping reçu, 99
30/08/2026 19h 10' 58" Ping reçu, 98
30/08/2026 19h 10' 53" Ping reçu, 97
30/08/2026 19h 10' 45" Ping reçu,         95
30/08/2026 19h 10' 41" Ping reçu, 94
30/08/2026 19h 10' 36" Ping reçu, 93
30/08/2026 19h 10' 32" Ping reçu, 92
30/08/2026 19h 10' 28" Ping reçu, 91
30/08/2026 19h 10' 24" Ping reçu,         90
30/08/2026 19h 10' 17" Ping reçu, 88
30/08/2026 19h 10' 13" Ping reçu, 87
30/08/2026 19h 10' 12" cPing.
30/08/2026 19h 10' 04" Ping reçu,         85
30/08/2026 19h 10' 01" Enregistrement de l'éclairement (345.6 lux & 0 lux )
30/08/2026 19h 10' 00" Ping reçu, 84
30/08/2026 19h 09' 51" Ping reçu, 82
30/08/2026 19h 09' 48" On a tout sauvé !
30/08/2026 19h 09' 47" Ping reçu, 81
30/08/2026 19h 09' 15" cPing.
30/08/2026 19h 09' 15" Ping reçu, 74
30/08/2026 19h 09' 06" Ping reçu, 72
30/08/2026 19h 09' 02" Ping reçu, 71
30/08/2026 19h 08' 45" Ping reçu, 67
30/08/2026 19h 08' 38" Ping reçu,         65
30/08/2026 19h 08' 34" Ping reçu, 64
30/08/2026 19h 08' 29" Ping reçu, 63
30/08/2026 19h 08' 25" Ping reçu, 62
30/08/2026 19h 08' 21" Ping reçu, 61
30/08/2026 19h 08' 20" cPing.
30/08/2026 19h 08' 18" Enregistrement de la température (24,247 °C)
30/08/2026 19h 08' 17" Ping reçu,         60
30/08/2026 19h 08' 07" Ping reçu, 58
30/08/2026 19h 08' 03" Ping reçu, 57
30/08/2026 19h 07' 55" ERR. Ther. 1 HS.
30/08/2026 19h 07' 54" Ping reçu,         55
30/08/2026 19h 07' 50" Ping reçu, 54
30/08/2026 19h 07' 29" Ping reçu, 49
30/08/2026 19h 07' 24" Ping reçu, 48
30/08/2026 19h 07' 23" cPing.
30/08/2026 19h 07' 19" Ping reçu, 47
30/08/2026 19h 07' 06" Ping reçu, 44
30/08/2026 19h 06' 59" Ping reçu, 42
30/08/2026 19h 06' 55" Ping reçu, 41
30/08/2026 19h 06' 50" Ping reçu,         40
30/08/2026 19h 06' 46" Ping reçu, 39
30/08/2026 19h 06' 42" Ping reçu, 38
30/08/2026 19h 06' 35" Enregistrement de l'éclairement (345.6 lux & 0 lux )
30/08/2026 19h 06' 33" Ping reçu, 36
30/08/2026 19h 06' 28" cPing.
30/08/2026 19h 06' 16" Ping reçu, 32
30/08/2026 19h 06' 08" Ping reçu,         30
30/08/2026 19h 06' 05" Ping reçu, 29
30/08/2026 19h 06' 01" Ping reçu, 28
30/08/2026 19h 05' 57" Ping reçu, 27
30/08/2026 19h 05' 53" Ping reçu, 26
30/08/2026 19h 05' 48" Ping reçu,         25
30/08/2026 19h 05' 44" Ping reçu, 24
30/08/2026 19h 05' 39" Ping reçu, 23
30/08/2026 19h 05' 35" Ping reçu, 22
30/08/2026 19h 05' 31" Enregistrement de l'éclairement (345.6 lux & 0 lux )
30/08/2026 19h 05' 31" Ping reçu, 21
30/08/2026 19h 05' 31" cPing.
30/08/2026 19h 05' 27" Ping reçu,         20
30/08/2026 19h 05' 20" Ping reçu, 18
30/08/2026 19h 05' 07" Ping reçu,         15
30/08/2026 19h 04' 58" Ping reçu, 13
30/08/2026 19h 04' 54" Ping reçu, 12
30/08/2026 19h 04' 45" Ping reçu,         10
30/08/2026 19h 04' 41" Ping reçu, 9
30/08/2026 19h 04' 36" cPing.
30/08/2026 19h 04' 33" Ping reçu, 7
30/08/2026 19h 04' 29" Ping reçu, 6
30/08/2026 19h 04' 24" Ping reçu,         5
30/08/2026 19h 04' 19" Ping reçu, 3
30/08/2026 19h 04' 15" Ping reçu, 2
30/08/2026 19h 04' 12" Ping reçu, 1
30/08/2026 19h 04' 02" End Cycle en 4.2253 s par tour (moy).
30/08/2026 19h 03' 57" Ping reçu,         3360
30/08/2026 19h 03' 51" ERR. Ther. 1 HS.
30/08/2026 19h 03' 50" Ping reçu, 3359
30/08/2026 19h 03' 46" Ping reçu, 3358
30/08/2026 19h 03' 42" Ping reçu, 3357
30/08/2026 19h 03' 39" cPing.
30/08/2026 19h 03' 33" Ping reçu,         3355
30/08/2026 19h 03' 29" Ping reçu, 3354
30/08/2026 19h 03' 20" Ping reçu, 3352
30/08/2026 19h 03' 15" Ping reçu, 3351
30/08/2026 19h 03' 11" Ping reçu,         3350
30/08/2026 19h 03' 07" Ping reçu, 3349
30/08/2026 19h 02' 56" Ping reçu, 3346
30/08/2026 19h 02' 48" Ping reçu, 3344
30/08/2026 19h 02' 44" cPing.
30/08/2026 19h 02' 39" Ping reçu, 3342
30/08/2026 19h 02' 35" Ping reçu, 3341
30/08/2026 19h 02' 30" Ping reçu,         3340
30/08/2026 19h 02' 26" Ping reçu, 3339
30/08/2026 19h 02' 18" Ping reçu, 3337
30/08/2026 19h 02' 14" Ping reçu, 3336
30/08/2026 19h 02' 11" Ping reçu,         3335
30/08/2026 19h 01' 58" Ping reçu, 3332
30/08/2026 19h 01' 54" Ping reçu, 3331
30/08/2026 19h 01' 48" cPing.
30/08/2026 19h 01' 45" Ping reçu, 3329
30/08/2026 19h 01' 27" Ping reçu,         3325
30/08/2026 19h 01' 23" Ping reçu, 3324
30/08/2026 19h 01' 19" Ping reçu, 3323
30/08/2026 19h 01' 15" Ping reçu, 3322
30/08/2026 19h 01' 12" Ping reçu, 3321
30/08/2026 19h 00' 59" Ping reçu, 3318
30/08/2026 19h 00' 52" Enregistrement de l'éclairement (345.6 lux & 0 lux )
30/08/2026 19h 00' 51" cPing.
30/08/2026 19h 00' 51" Ping reçu, 3316
30/08/2026 19h 00' 47" Ping reçu,         3315
30/08/2026 19h 00' 38" Ping reçu, 3313
30/08/2026 19h 00' 33" Ping reçu, 3312
30/08/2026 19h 00' 25" Ping reçu,         3310
30/08/2026 19h 00' 20" Ping reçu, 3309
30/08/2026 19h 00' 12" Ping reçu, 3307
30/08/2026 18h 59' 57" ERR. Ther. 1 HS.
30/08/2026 18h 59' 56" Ping reçu, 3303
30/08/2026 18h 59' 56" cPing.
30/08/2026 18h 59' 45" Enregistrement de l'éclairement (345.6 lux & 0 lux )
30/08/2026 18h 59' 45" Enregistrement de la température (24,067 °C)
30/08/2026 18h 59' 39" Ping reçu, 3299
30/08/2026 18h 59' 35" Ping reçu, 3298
30/08/2026 18h 59' 30" Ping reçu, 3297
30/08/2026 18h 59' 26" Ping reçu, 3296
30/08/2026 18h 59' 22" Ping reçu,         3295
30/08/2026 18h 59' 18" Ping reçu, 3294
30/08/2026 18h 59' 14" Ping reçu, 3293
30/08/2026 18h 59' 03" Ping reçu,         3290
30/08/2026 18h 58' 59" cPing.
30/08/2026 18h 58' 58" Ping reçu, 3289
30/08/2026 18h 58' 54" Ping reçu, 3288
30/08/2026 18h 58' 51" Enregistrement Température du pluviometre : (24,9 °C)
30/08/2026 18h 58' 46" Ping reçu, 3287
30/08/2026 18h 58' 42" Ping reçu, 3286
30/08/2026 18h 58' 39" Ping reçu,         3285
30/08/2026 18h 58' 31" Ping reçu, 3283
30/08/2026 18h 58' 27" Ping reçu, 3282
30/08/2026 18h 58' 23" Ping reçu, 3281
30/08/2026 18h 58' 18" Enregistrement des paramètres du vent (49.1° @ 0 m/s)
30/08/2026 18h 58' 18" Ping reçu,         3280
30/08/2026 18h 58' 14" Ping reçu, 3279
30/08/2026 18h 58' 04" cPing.
30/08/2026 18h 58' 00" Ping reçu, 3276
30/08/2026 18h 57' 56" Ping reçu,         3275
30/08/2026 18h 57' 44" Ping reçu, 3272
30/08/2026 18h 57' 41" Ping reçu, 3271
30/08/2026 18h 57' 37" Ping reçu,         3270
30/08/2026 18h 57' 33" Ping reçu, 3269
30/08/2026 18h 57' 32" Enregistrement de l'éclairement (345.6 lux & 0 lux )
30/08/2026 18h 57' 29" Ping reçu, 3268
30/08/2026 18h 57' 24" Ping reçu, 3267
30/08/2026 18h 57' 20" Ping reçu, 3266
30/08/2026 18h 57' 16" Ping reçu,         3265
30/08/2026 18h 57' 09" Ping reçu, 3263
30/08/2026 18h 57' 07" cPing.
30/08/2026 18h 57' 03" Ping reçu, 3262
30/08/2026 18h 56' 59" Ping reçu, 3261
30/08/2026 18h 56' 56" Ping reçu,         3260
30/08/2026 18h 56' 52" Ping reçu, 3259
30/08/2026 18h 56' 44" Ping reçu, 3257
30/08/2026 18h 56' 39" Ping reçu, 3256
30/08/2026 18h 56' 30" Ping reçu, 3254
30/08/2026 18h 56' 21" Ping reçu, 3252
30/08/2026 18h 56' 18" Ping reçu, 3251
30/08/2026 18h 56' 13" Ping reçu,         3250
30/08/2026 18h 56' 12" cPing.
30/08/2026 18h 56' 09" Ping reçu, 3249
30/08/2026 18h 56' 03" ERR. Ther. 1 HS.
30/08/2026 18h 56' 02" Enregistrement de l'Arduino : (27,3 °C)
30/08/2026 18h 55' 59" Ping reçu, 3247
30/08/2026 18h 55' 54" Ping reçu, 3246
30/08/2026 18h 55' 46" Ping reçu, 3244
30/08/2026 18h 55' 41" Ping reçu, 3243
30/08/2026 18h 55' 31" Enregistrement de la température (24,069 °C)
30/08/2026 18h 55' 28" Enregistrement de la Pression atmosphérique (1026,184 hPa)
30/08/2026 18h 55' 23" Ping reçu, 3239
30/08/2026 18h 55' 19" Ping reçu, 3238
30/08/2026 18h 55' 15" Ping reçu, 3237
30/08/2026 18h 55' 14" cPing.
30/08/2026 18h 55' 10" Enregistrement de l'éclairement (345.6 lux & 0 lux )
30/08/2026 18h 54' 57" On a tout sauvé !
30/08/2026 18h 54' 56" Ping reçu, 3233
30/08/2026 18h 54' 52" Ping reçu, 3232
30/08/2026 18h 54' 47" Ping reçu, 3231
30/08/2026 18h 54' 34" Ping reçu, 3228
30/08/2026 18h 54' 30" Ping reçu, 3227
30/08/2026 18h 54' 27" Ping reçu, 3226
30/08/2026 18h 54' 23" Ping reçu,         3225
30/08/2026 18h 54' 19" Ping reçu, 3224
30/08/2026 18h 54' 19" cPing.
30/08/2026 18h 54' 15" Ping reçu, 3223
30/08/2026 18h 54' 03" Enregistrement de l'éclairement (345.6 lux & 0 lux )
30/08/2026 18h 54' 03" Enregistrement de l'humidité (59,62 %)
30/08/2026 18h 54' 02" Ping reçu,         3220
30/08/2026 18h 53' 40" Ping reçu,         3215
30/08/2026 18h 53' 35" Ping reçu, 3214
30/08/2026 18h 53' 31" Ping reçu, 3213
30/08/2026 18h 53' 22" cPing.
30/08/2026 18h 53' 18" Ping reçu,         3210
30/08/2026 18h 53' 14" Ping reçu, 3209
30/08/2026 18h 53' 07" Ping reçu, 3207
30/08/2026 18h 53' 03" Ping reçu, 3206
30/08/2026 18h 52' 59" Ping reçu,         3205
30/08/2026 18h 52' 56" Enregistrement de l'éclairement (345.6 lux & 0 lux )
30/08/2026 18h 52' 54" Ping reçu, 3204
30/08/2026 18h 52' 46" Ping reçu, 3202
30/08/2026 18h 52' 42" Ping reçu, 3201
30/08/2026 18h 52' 41" Pressions pluviométriques (32,07 & 64,00)
30/08/2026 18h 52' 40" Ping reçu,         3200
30/08/2026 18h 52' 40" Enregistrement de la hauteur d'eau (782,920 mm @ 99,8%)
30/08/2026 18h 52' 37" Enregistrement des paramètres du vent (49.1° @ 0 m/s)
30/08/2026 18h 52' 33" Ping reçu, 3199
30/08/2026 18h 52' 29" Ping reçu, 3198
30/08/2026 18h 52' 27" cPing.
30/08/2026 18h 52' 26" Ping reçu, 3197
30/08/2026 18h 52' 22" Ping reçu, 3196
30/08/2026 18h 52' 14" Ping reçu, 3194
30/08/2026 18h 52' 09" Ping reçu, 3193
30/08/2026 18h 52' 00" Ping reçu, 3191
30/08/2026 18h 51' 56" Ping reçu,         3190
30/08/2026 18h 51' 51" Enregistrement de l'éclairement (345.6 lux & 0 lux )
30/08/2026 18h 51' 47" Ping reçu, 3188
30/08/2026 18h 51' 44" Ping reçu, 3187
30/08/2026 18h 51' 41" Ping reçu, 3186
30/08/2026 18h 51' 37" Ping reçu,         3185
30/08/2026 18h 51' 33" Ping reçu, 3184
30/08/2026 18h 51' 30" cPing.
30/08/2026 18h 51' 28" Ping reçu, 3183
30/08/2026 18h 51' 17" Enregistrement de la température (24,107 °C)
30/08/2026 18h 51' 15" Ping reçu,         3180
30/08/2026 18h 51' 11" Ping reçu, 3179
30/08/2026 18h 51' 07" Ping reçu, 3178
30/08/2026 18h 51' 00" Ping reçu, 3176
30/08/2026 18h 50' 47" Ping reçu, 3173
30/08/2026 18h 50' 45" Enregistrement de l'éclairement (345.6 lux & 0 lux )
30/08/2026 18h 50' 43" Ping reçu, 3172
30/08/2026 18h 50' 39" Ping reçu, 3171
30/08/2026 18h 50' 35" Ping reçu,         3170
30/08/2026 18h 50' 35" cPing.
30/08/2026 18h 50' 30" Ping reçu, 3169
30/08/2026 18h 50' 26" Ping reçu, 3168
30/08/2026 18h 50' 22" Ping reçu, 3167
30/08/2026 18h 50' 18" Ping reçu, 3166
30/08/2026 18h 50' 09" Ping reçu, 3164
30/08/2026 18h 50' 07" Ping reçu, 3163
30/08/2026 18h 49' 54" Ping reçu,         3160
30/08/2026 18h 49' 45" Ping reçu, 3158
30/08/2026 18h 49' 39" Enregistrement de l'éclairement (345.6 lux & 0 lux )
30/08/2026 18h 49' 39" cPing.
30/08/2026 18h 49' 36" Ping reçu, 3156
30/08/2026 18h 49' 28" Ping reçu, 3154
30/08/2026 18h 49' 24" Ping reçu, 3153
30/08/2026 18h 49' 21" Ping reçu, 3152
30/08/2026 18h 49' 15" Ping reçu, 3151
30/08/2026 18h 49' 12" Ping reçu,         3150
30/08/2026 18h 49' 08" Ping reçu, 3149
30/08/2026 18h 49' 04" Ping reçu, 3148
30/08/2026 18h 49' 00" Ping reçu, 3147
30/08/2026 18h 48' 56" Ping reçu, 3146
30/08/2026 18h 48' 42" cPing.
30/08/2026 18h 48' 42" Ping reçu, 3143
30/08/2026 18h 48' 33" Ping reçu, 3141
30/08/2026 18h 48' 29" Ping reçu,         3140
30/08/2026 18h 48' 24" Ping reçu, 3139
30/08/2026 18h 48' 15" Ping reçu, 3137
30/08/2026 18h 48' 11" Ping reçu, 3136
30/08/2026 18h 48' 06" Ping reçu,         3135
30/08/2026 18h 48' 02" Ping reçu, 3134
30/08/2026 18h 47' 57" Ping reçu, 3133
30/08/2026 18h 47' 53" Ping reçu, 3132
30/08/2026 18h 47' 49" Ping reçu, 3131
30/08/2026 18h 47' 47" cPing.
30/08/2026 18h 47' 45" Ping reçu,         3130
30/08/2026 18h 47' 42" Ping reçu, 3129
30/08/2026 18h 47' 30" Ping reçu, 3126
30/08/2026 18h 47' 26" Ping reçu,         3125
30/08/2026 18h 47' 23" Enregistrement de l'éclairement (345.6 lux & 0 lux )
30/08/2026 18h 47' 21" Ping reçu, 3124
30/08/2026 18h 47' 12" Ping reçu, 3122
30/08/2026 18h 47' 08" Ping reçu, 3121
30/08/2026 18h 47' 04" Enregistrement des paramètres du vent (49.1° @ 0 m/s)
30/08/2026 18h 47' 04" Enregistrement de la Pression atmosphérique (1026,198 hPa)
30/08/2026 18h 47' 04" Ping reçu,         3120
30/08/2026 18h 46' 59" Ping reçu, 3119
30/08/2026 18h 46' 54" Ping reçu, 3118
30/08/2026 18h 46' 50" Ping reçu, 3117
30/08/2026 18h 46' 50" cPing.
30/08/2026 18h 46' 46" Ping reçu, 3116
30/08/2026 18h 46' 42" Ping reçu,         3115
30/08/2026 18h 46' 40" Enregistrement Température du pluviometre : (25,0 °C)
30/08/2026 18h 46' 22" Ping reçu, 3111
30/08/2026 18h 46' 18" Ping reçu,         3110
30/08/2026 18h 46' 13" Enregistrement de l'éclairement (345.6 lux & 0 lux )
30/08/2026 18h 46' 09" Ping reçu, 3108
30/08/2026 18h 46' 00" Ping reçu, 3106
30/08/2026 18h 45' 56" Ping reçu,         3105
30/08/2026 18h 45' 55" cPing.
30/08/2026 18h 45' 52" Ping reçu, 3104
30/08/2026 18h 45' 48" Ping reçu, 3103
30/08/2026 18h 45' 37" Ping reçu,         3100
30/08/2026 18h 45' 32" Ping reçu, 3099
30/08/2026 18h 45' 28" Ping reçu, 3098
30/08/2026 18h 45' 24" Ping reçu, 3097
30/08/2026 18h 45' 15" Ping reçu,         3095
30/08/2026 18h 45' 06" Ping reçu, 3093
30/08/2026 18h 45' 05" Enregistrement de l'éclairement (345.6 lux & 0 lux )
30/08/2026 18h 45' 02" Ping reçu, 3092
30/08/2026 18h 44' 58" cPing.
30/08/2026 18h 44' 57" Ping reçu, 3091
30/08/2026 18h 44' 53" Ping reçu,         3090
30/08/2026 18h 44' 49" Ping reçu, 3089
30/08/2026 18h 44' 44" Ping reçu, 3088
30/08/2026 18h 44' 36" Ping reçu, 3086
30/08/2026 18h 44' 31" Ping reçu,         3085
30/08/2026 18h 44' 27" Ping reçu, 3084
30/08/2026 18h 44' 23" Ping reçu, 3083
30/08/2026 18h 44' 16" Ping reçu, 3081
30/08/2026 18h 44' 08" ERR. Ther. 1 HS.
30/08/2026 18h 44' 03" cPing.
30/08/2026 18h 44' 02" Ping reçu, 3078
30/08/2026 18h 43' 58" Ping reçu, 3077
30/08/2026 18h 43' 50" Ping reçu,         3075
30/08/2026 18h 43' 45" Ping reçu, 3074
30/08/2026 18h 43' 41" Ping reçu, 3073
30/08/2026 18h 43' 36" Ping reçu, 3072
30/08/2026 18h 43' 28" Ping reçu,         3070
30/08/2026 18h 43' 21" Ping reçu, 3068
30/08/2026 18h 43' 17" Ping reçu, 3067
30/08/2026 18h 43' 13" Ping reçu, 3066
30/08/2026 18h 43' 09" Ping reçu,         3065
30/08/2026 18h 43' 06" cPing.
30/08/2026 18h 43' 05" Ping reçu, 3064
30/08/2026 18h 42' 56" Ping reçu, 3062
30/08/2026 18h 42' 50" Enregistrement de la température (24,208 °C)
30/08/2026 18h 42' 38" Ping reçu, 3058
30/08/2026 18h 42' 32" Enregistrement de l'Arduino : (27,3 °C)
30/08/2026 18h 42' 28" Ping reçu, 3056
30/08/2026 18h 42' 24" Ping reçu,         3055
30/08/2026 18h 42' 15" Ping reçu, 3053
30/08/2026 18h 42' 11" Ping reçu, 3052
30/08/2026 18h 42' 11" cPing.
30/08/2026 18h 42' 02" Ping reçu,         3050
30/08/2026 18h 41' 54" Ping reçu, 3048
30/08/2026 18h 41' 51" Ping reçu, 3047
30/08/2026 18h 41' 42" Ping reçu,         3045
30/08/2026 18h 41' 39" Enregistrement de l'éclairement (345.6 lux & 0 lux )
30/08/2026 18h 41' 38" Ping reçu, 3044
30/08/2026 18h 41' 34" Ping reçu, 3043
30/08/2026 18h 41' 30" Ping reçu, 3042
30/08/2026 18h 41' 26" Ping reçu, 3041
30/08/2026 18h 41' 22" Pressions pluviométriques (32,07 & 64,00)
30/08/2026 18h 41' 21" Ping reçu,         3040
30/08/2026 18h 41' 13" cPing.
30/08/2026 18h 41' 12" Ping reçu, 3038
30/08/2026 18h 41' 03" Ping reçu, 3036
30/08/2026 18h 40' 54" Ping reçu, 3034
30/08/2026 18h 40' 50" Ping reçu, 3033
30/08/2026 18h 40' 47" Ping reçu, 1
30/08/2026 18h 40' 46" Ping reçu, 3032
30/08/2026 18h 40' 42" Ping reçu, 3031
30/08/2026 18h 40' 38" Ping reçu, 1
30/08/2026 18h 40' 32" Enregistrement de l'éclairement (345.6 lux & 0 lux )
30/08/2026 18h 40' 29" Ping reçu, 3028
30/08/2026 18h 40' 26" On a tout sauvé !
30/08/2026 18h 40' 24" Ping reçu, 3027
30/08/2026 18h 40' 18" cPing.
30/08/2026 18h 40' 15" Ping reçu,         3025
30/08/2026 18h 40' 12" Ping reçu, 3024
30/08/2026 18h 40' 09" ERR. Ther. 1 HS.
30/08/2026 18h 40' 08" Ping reçu, 3023
30/08/2026 18h 39' 59" Ping reçu, 3021
30/08/2026 18h 39' 55" Ping reçu,         3020
30/08/2026 18h 39' 51" Ping reçu, 3019
30/08/2026 18h 39' 38" Ping reçu, 3016
30/08/2026 18h 39' 33" Ping reçu,         3015
30/08/2026 18h 39' 29" Ping reçu, 3014
30/08/2026 18h 39' 25" Ping reçu, 3013
30/08/2026 18h 39' 24" Enregistrement de l'éclairement (345.6 lux & 0 lux )
30/08/2026 18h 39' 21" Ping reçu, 3012
30/08/2026 18h 39' 21" cPing.
30/08/2026 18h 39' 18" Ping reçu, 3011
30/08/2026 18h 39' 14" Ping reçu,         3010
30/08/2026 18h 39' 10" Ping reçu, 3009
30/08/2026 18h 39' 01" Ping reçu, 3007
30/08/2026 18h 38' 35" Ping reçu, 3001
30/08/2026 18h 38' 34" Enregistrement de la température (24,190 °C)
30/08/2026 18h 38' 32" Enregistrement de la Pression atmosphérique (1026,260 hPa)
30/08/2026 18h 38' 31" Ping reçu,         3000
30/08/2026 18h 38' 26" Ping reçu, 2999
30/08/2026 18h 38' 26" cPing.
30/08/2026 18h 38' 22" Ping reçu, 2998
30/08/2026 18h 38' 16" Enregistrement de l'éclairement (345.6 lux & 0 lux )
30/08/2026 18h 38' 09" Ping reçu,         2995
30/08/2026 18h 37' 56" Ping reçu, 2992
30/08/2026 18h 37' 53" Ping reçu, 2991
30/08/2026 18h 37' 47" Ping reçu,         2990
30/08/2026 18h 37' 44" Ping reçu, 2989
30/08/2026 18h 37' 36" Ping reçu, 2987
30/08/2026 18h 37' 32" Ping reçu, 2986
30/08/2026 18h 37' 29" cPing.
30/08/2026 18h 37' 27" Ping reçu,         2985
30/08/2026 18h 37' 06" Ping reçu,         2980
30/08/2026 18h 37' 02" Ping reçu, 2979
30/08/2026 18h 36' 59" Ping reçu, 2978
30/08/2026 18h 36' 55" Ping reçu, 2977
30/08/2026 18h 36' 51" Ping reçu, 2976
30/08/2026 18h 36' 47" Ping reçu,         2975
30/08/2026 18h 36' 42" Ping reçu, 2974
30/08/2026 18h 36' 38" Ping reçu, 2973
30/08/2026 18h 36' 33" cPing.
30/08/2026 18h 36' 29" Ping reçu, 2971
30/08/2026 18h 36' 25" Ping reçu,         2970
30/08/2026 18h 36' 17" Ping reçu, 2968
30/08/2026 18h 36' 14" Ping reçu, 2967
30/08/2026 18h 36' 05" Ping reçu,         2965
30/08/2026 18h 36' 02" Enregistrement de l'éclairement (345.6 lux & 0 lux )
30/08/2026 18h 35' 44" Enregistrement des paramètres du vent (49.1° @ 0 m/s)
30/08/2026 18h 35' 44" Ping reçu,         2960
30/08/2026 18h 35' 38" cPing.
30/08/2026 18h 35' 30" Ping reçu, 2957
30/08/2026 18h 35' 26" Ping reçu, 2956
30/08/2026 18h 35' 21" Ping reçu,         2955
30/08/2026 18h 35' 17" Ping reçu, 2954
30/08/2026 18h 35' 13" Ping reçu, 2953
30/08/2026 18h 35' 06" Ping reçu, 2951
30/08/2026 18h 34' 53" Ping reçu, 2948
30/08/2026 18h 34' 49" Ping reçu, 2947
30/08/2026 18h 34' 41" cPing.
30/08/2026 18h 34' 41" Ping reçu,         2945
30/08/2026 18h 34' 36" Ping reçu, 2944
30/08/2026 18h 34' 32" Ping reçu, 2943
30/08/2026 18h 34' 27" Ping reçu, 2942
30/08/2026 18h 34' 22" Enregistrement Température du pluviometre : (25,0 °C)
30/08/2026 18h 34' 21" Ping reçu, 2941
30/08/2026 18h 34' 19" Enregistrement de la température (24,219 °C)
30/08/2026 18h 34' 18" Enregistrement de l'humidité (58,94 %)
30/08/2026 18h 34' 12" Ping reçu, 2939
30/08/2026 18h 34' 04" Ping reçu, 2937
30/08/2026 18h 34' 00" Ping reçu, 2936
30/08/2026 18h 33' 56" Ping reçu,         2935
30/08/2026 18h 33' 46" cPing.
30/08/2026 18h 33' 42" Ping reçu, 2932
30/08/2026 18h 33' 34" Ping reçu,         2930
30/08/2026 18h 33' 30" Ping reçu, 2929
30/08/2026 18h 33' 27" Ping reçu, 2928
30/08/2026 18h 33' 17" Ping reçu, 2926
30/08/2026 18h 33' 14" Ping reçu,         2925
30/08/2026 18h 33' 10" Ping reçu, 2924
30/08/2026 18h 33' 02" Ping reçu, 2922
30/08/2026 18h 32' 57" Ping reçu, 2921
30/08/2026 18h 32' 49" cPing.
30/08/2026 18h 32' 44" Ping reçu, 2918
30/08/2026 18h 32' 40" Ping reçu, 2917
30/08/2026 18h 32' 39" Enregistrement de l'éclairement (345.6 lux & 0 lux )
30/08/2026 18h 32' 32" Ping reçu,         2915
30/08/2026 18h 32' 29" Ping reçu, 2914
30/08/2026 18h 32' 17" ERR. Ther. 1 HS.
30/08/2026 18h 32' 03" Ping reçu, 2908
30/08/2026 18h 31' 54" Ping reçu, 2906
30/08/2026 18h 31' 54" cPing.
30/08/2026 18h 31' 50" Ping reçu,         2905
30/08/2026 18h 31' 46" Ping reçu, 2904
30/08/2026 18h 31' 42" Ping reçu, 2903
30/08/2026 18h 31' 39" Ping reçu, 2902
30/08/2026 18h 31' 31" Ping reçu,         2900
30/08/2026 18h 31' 31" Enregistrement de l'éclairement (345.6 lux & 0 lux )
30/08/2026 18h 31' 04" Ping reçu, 2894
30/08/2026 18h 31' 00" Ping reçu, 2893
30/08/2026 18h 30' 57" cPing.
30/08/2026 18h 30' 56" Ping reçu, 2892
30/08/2026 18h 30' 51" Ping reçu, 2891
30/08/2026 18h 30' 47" Ping reçu,         2890
30/08/2026 18h 30' 42" Ping reçu, 2889
30/08/2026 18h 30' 38" Ping reçu, 2888
30/08/2026 18h 30' 34" Ping reçu, 2887
30/08/2026 18h 30' 27" Ping reçu,         2885
30/08/2026 18h 30' 24" Enregistrement de l'éclairement (345.6 lux & 0 lux )
30/08/2026 18h 30' 17" Ping reçu, 2883
30/08/2026 18h 30' 14" Ping reçu, 2882
30/08/2026 18h 30' 10" Ping reçu, 2881
30/08/2026 18h 30' 07" Enregistrement de la température (24,302 °C)
30/08/2026 18h 30' 06" Pressions pluviométriques (32,07 & 64,00)
30/08/2026 18h 30' 06" Ping reçu,         2880
30/08/2026 18h 30' 05" Enregistrement des paramètres du vent (49.1° @ 0 m/s)
30/08/2026 18h 30' 05" Enregistrement de la Pression atmosphérique (1026,270 hPa)
30/08/2026 18h 30' 02" cPing.
30/08/2026 18h 30' 00" Ping reçu, 2879
30/08/2026 18h 29' 54" Ping reçu, 2878
30/08/2026 18h 29' 47" Ping reçu, 2876
30/08/2026 18h 29' 43" Ping reçu,         2875
30/08/2026 18h 29' 39" Ping reçu, 2874
30/08/2026 18h 29' 35" Ping reçu, 2873
30/08/2026 18h 29' 30" Ping reçu, 2872
30/08/2026 18h 29' 26" Ping reçu, 2871
30/08/2026 18h 29' 18" Ping reçu, 2869
30/08/2026 18h 29' 14" Ping reçu, 2868
30/08/2026 18h 29' 13" Enregistrement de l'éclairement (345.6 lux & 0 lux )
30/08/2026 18h 29' 05" cPing.
30/08/2026 18h 29' 02" Enregistrement de l'Arduino : (27,3 °C)
30/08/2026 18h 28' 59" Ping reçu,         2865
30/08/2026 18h 28' 54" Ping reçu, 2864
30/08/2026 18h 28' 50" Ping reçu, 2863
30/08/2026 18h 28' 46" Ping reçu, 2862
30/08/2026 18h 28' 42" Ping reçu, 2861
30/08/2026 18h 28' 39" Ping reçu,         2860
30/08/2026 18h 28' 35" Ping reçu, 2859
30/08/2026 18h 28' 31" Ping reçu, 2858
30/08/2026 18h 28' 27" Ping reçu, 2857
30/08/2026 18h 28' 18" ERR. Ther. 1 HS.
30/08/2026 18h 28' 18" Ping reçu,         2855
30/08/2026 18h 28' 09" Ping reçu, 2853
30/08/2026 18h 28' 09" cPing.
30/08/2026 18h 28' 08" Enregistrement de l'éclairement (345.6 lux & 0 lux )
30/08/2026 18h 28' 05" Ping reçu, 2852
30/08/2026 18h 28' 01" Ping reçu, 2851
30/08/2026 18h 27' 52" Ping reçu, 2849
30/08/2026 18h 27' 48" Ping reçu, 2848
30/08/2026 18h 27' 44" Ping reçu, 2847
30/08/2026 18h 27' 41" Ping reçu, 2846
30/08/2026 18h 27' 37" Ping reçu,         2845
30/08/2026 18h 27' 29" Ping reçu, 2843
30/08/2026 18h 27' 24" Ping reçu, 2842
30/08/2026 18h 27' 15" Ping reçu,         2840
30/08/2026 18h 27' 14" cPing.
30/08/2026 18h 27' 11" Ping reçu, 2839
30/08/2026 18h 27' 03" Ping reçu, 2837
30/08/2026 18h 26' 56" Ping reçu,         2835
30/08/2026 18h 26' 51" Ping reçu, 2834
30/08/2026 18h 26' 47" Ping reçu, 2833
30/08/2026 18h 26' 43" Ping reçu, 2832
30/08/2026 18h 26' 39" Ping reçu, 2831
30/08/2026 18h 26' 35" Ping reçu,         2830
30/08/2026 18h 26' 17" cPing.
30/08/2026 18h 26' 12" On a tout sauvé !
30/08/2026 18h 26' 08" Ping reçu, 2824
30/08/2026 18h 25' 59" Ping reçu, 2822
30/08/2026 18h 25' 54" Ping reçu, 2821
30/08/2026 18h 25' 50" Ping reçu,         2820
30/08/2026 18h 25' 45" Ping reçu, 2819
30/08/2026 18h 25' 41" Ping reçu, 2818
30/08/2026 18h 25' 32" Ping reçu, 2816
30/08/2026 18h 25' 28" Ping reçu,         2815
30/08/2026 18h 25' 23" Ping reçu, 2814
30/08/2026 18h 25' 20" Ping reçu, 2813
30/08/2026 18h 25' 20" cPing.
30/08/2026 18h 25' 15" Ping reçu, 2812
30/08/2026 18h 25' 00" Ping reçu, 2808
30/08/2026 18h 24' 56" Ping reçu, 2807
30/08/2026 18h 24' 47" Ping reçu,         2805
30/08/2026 18h 24' 43" Enregistrement de l'éclairement (302.4 lux & 0 lux )
30/08/2026 18h 24' 25" Enregistrement de l'humidité (58,44 %)
30/08/2026 18h 24' 25" Enregistrement des paramètres du vent (49.1° @ 0 m/s)
30/08/2026 18h 24' 24" cPing.
30/08/2026 18h 24' 21" ERR. Ther. 1 HS.
30/08/2026 18h 24' 20" Ping reçu, 2799
30/08/2026 18h 24' 11" Ping reçu, 2797
30/08/2026 18h 24' 03" Ping reçu,         2795
30/08/2026 18h 23' 58" Ping reçu, 2794
30/08/2026 18h 23' 47" Ping reçu, 2791
30/08/2026 18h 23' 43" Ping reçu,         2790
30/08/2026 18h 23' 39" Ping reçu, 2789
30/08/2026 18h 23' 35" Enregistrement de l'éclairement (341.3 lux & 0 lux )
30/08/2026 18h 23' 35" Ping reçu, 2788
30/08/2026 18h 23' 30" Ping reçu, 2787
30/08/2026 18h 23' 29" cPing.
30/08/2026 18h 23' 26" Ping reçu, 2786
30/08/2026 18h 23' 12" Ping reçu, 2783
30/08/2026 18h 23' 03" Ping reçu, 2781
30/08/2026 18h 23' 00" Ping reçu,         2780
30/08/2026 18h 22' 47" Ping reçu, 2777
30/08/2026 18h 22' 42" Ping reçu, 2776
30/08/2026 18h 22' 39" Ping reçu,         2775
30/08/2026 18h 22' 32" cPing.
30/08/2026 18h 22' 31" Ping reçu, 2773
30/08/2026 18h 22' 27" Ping reçu, 2772
30/08/2026 18h 22' 23" Ping reçu, 2771
30/08/2026 18h 22' 18" Ping reçu,         2770
30/08/2026 18h 22' 14" Ping reçu, 2769
30/08/2026 18h 22' 12" Enregistrement Température du pluviometre : (25,1 °C)
30/08/2026 18h 22' 08" Ping reçu, 2768
30/08/2026 18h 22' 02" Ping reçu, 2767
30/08/2026 18h 21' 55" Ping reçu,         2765
30/08/2026 18h 21' 51" Ping reçu, 2764
30/08/2026 18h 21' 47" Ping reçu, 2763
30/08/2026 18h 21' 37" cPing.
30/08/2026 18h 21' 34" Ping reçu,         2760
30/08/2026 18h 21' 29" Ping reçu, 2759
30/08/2026 18h 21' 24" Ping reçu, 2758
30/08/2026 18h 21' 20" Ping reçu, 2757
30/08/2026 18h 21' 16" Enregistrement de l'éclairement (345.6 lux & 0 lux )
30/08/2026 18h 21' 11" Ping reçu,         2755
30/08/2026 18h 20' 58" Ping reçu, 2752
30/08/2026 18h 20' 54" Ping reçu, 2751
30/08/2026 18h 20' 51" Ping reçu,         2750
30/08/2026 18h 20' 45" Ping reçu, 2749
30/08/2026 18h 20' 42" Ping reçu, 2748
30/08/2026 18h 20' 40" cPing.
30/08/2026 18h 20' 38" Ping reçu, 2747
30/08/2026 18h 20' 34" Ping reçu, 2746
30/08/2026 18h 20' 30" Ping reçu,         2745
30/08/2026 18h 20' 22" ERR. Ther. 1 HS.
30/08/2026 18h 20' 21" Ping reçu, 2743
30/08/2026 18h 20' 17" Ping reçu, 2742
30/08/2026 18h 20' 13" Ping reçu, 2741
30/08/2026 18h 20' 08" Ping reçu,         2740
30/08/2026 18h 20' 04" Ping reçu, 2739
30/08/2026 18h 20' 00" Ping reçu, 2738
30/08/2026 18h 19' 56" Ping reçu, 2737
30/08/2026 18h 19' 53" Ping reçu, 2736
30/08/2026 18h 19' 47" Ping reçu,         2735
30/08/2026 18h 19' 45" cPing.
30/08/2026 18h 19' 40" Ping reçu, 2733
30/08/2026 18h 19' 36" Ping reçu, 2732
30/08/2026 18h 19' 32" Ping reçu, 2731
30/08/2026 18h 19' 27" Ping reçu,         2730
30/08/2026 18h 19' 23" Ping reçu, 2729
30/08/2026 18h 19' 19" Ping reçu, 2728
30/08/2026 18h 19' 10" Ping reçu, 2726
30/08/2026 18h 19' 06" Ping reçu,         2725
30/08/2026 18h 18' 59" Ping reçu, 2723
30/08/2026 18h 18' 55" Ping reçu, 2722
30/08/2026 18h 18' 51" Ping reçu, 2721
30/08/2026 18h 18' 48" cPing.
30/08/2026 18h 18' 47" Enregistrement de la hauteur d'eau (782,890 mm @ 99,8%)
30/08/2026 18h 18' 47" Ping reçu,         2720
30/08/2026 18h 18' 46" Enregistrement des paramètres du vent (49.1° @ 0 m/s)
30/08/2026 18h 18' 41" Ping reçu, 2719
30/08/2026 18h 18' 37" Ping reçu, 2718
30/08/2026 18h 18' 20" Ping reçu, 2714
30/08/2026 18h 18' 15" Ping reçu, 2713
30/08/2026 18h 18' 11" Ping reçu, 2712
30/08/2026 18h 18' 03" Ping reçu,         2710
30/08/2026 18h 18' 00" Ping reçu, 2709
30/08/2026 18h 17' 58" Enregistrement de l'éclairement (345.6 lux & 0 lux )
30/08/2026 18h 17' 53" cPing.
30/08/2026 18h 17' 50" Ping reçu, 2707
30/08/2026 18h 17' 48" Ping reçu, 2706
30/08/2026 18h 17' 43" Ping reçu,         2705
30/08/2026 18h 17' 39" Ping reçu, 2704
30/08/2026 18h 17' 35" Ping reçu, 2703
30/08/2026 18h 17' 30" Ping reçu, 2702
30/08/2026 18h 17' 25" Enregistrement de la température (24,370 °C)
30/08/2026 18h 17' 17" Ping reçu, 2699
30/08/2026 18h 17' 13" Ping reçu, 2698
30/08/2026 18h 17' 08" Ping reçu, 2697
30/08/2026 18h 17' 00" Ping reçu,         2695
30/08/2026 18h 16' 56" cPing.
30/08/2026 18h 16' 53" Ping reçu, 2693
30/08/2026 18h 16' 49" Ping reçu, 2692
30/08/2026 18h 16' 45" Ping reçu, 2691
30/08/2026 18h 16' 41" Ping reçu,         2690
30/08/2026 18h 16' 36" Ping reçu, 2689
30/08/2026 18h 16' 28" ERR. Ther. 1 HS.
30/08/2026 18h 16' 27" Ping reçu, 2687
30/08/2026 18h 16' 19" Ping reçu,         2685
30/08/2026 18h 16' 10" Ping reçu, 2683
30/08/2026 18h 16' 06" Ping reçu, 2682
30/08/2026 18h 16' 02" Ping reçu, 2681
30/08/2026 18h 16' 00" cPing.
30/08/2026 18h 15' 54" Ping reçu, 2679
30/08/2026 18h 15' 46" Ping reçu, 2677
30/08/2026 18h 15' 42" Enregistrement de l'éclairement (345.6 lux & 0 lux )
30/08/2026 18h 15' 42" Ping reçu, 2676
30/08/2026 18h 15' 38" Ping reçu,         2675
30/08/2026 18h 15' 32" Ping reçu, 2674
30/08/2026 18h 15' 28" Ping reçu, 2673
30/08/2026 18h 15' 17" Ping reçu, 2671
30/08/2026 18h 15' 14" Ping reçu,         2670
30/08/2026 18h 15' 06" Ping reçu, 2668
30/08/2026 18h 15' 05" cPing.
30/08/2026 18h 15' 02" Ping reçu, 2667
30/08/2026 18h 14' 57" Ping reçu, 2666
30/08/2026 18h 14' 44" Ping reçu, 2663
30/08/2026 18h 14' 40" Ping reçu, 2662
30/08/2026 18h 14' 36" Ping reçu, 2661
30/08/2026 18h 14' 34" Enregistrement de l'humidité (57,69 %)
30/08/2026 18h 14' 32" Ping reçu,         2660
30/08/2026 18h 14' 27" Ping reçu, 2659
30/08/2026 18h 14' 23" Ping reçu, 2658
30/08/2026 18h 14' 20" Ping reçu, 2657
30/08/2026 18h 14' 11" Ping reçu,         2655
30/08/2026 18h 14' 11" Rw SD-card.
30/08/2026 18h 14' 08" cPing.
30/08/2026 18h 13' 58" Ping reçu, 2652
30/08/2026 18h 13' 54" Ping reçu, 2651
30/08/2026 18h 13' 50" Ping reçu,         2650
30/08/2026 18h 13' 41" Ping reçu, 2648
30/08/2026 18h 13' 37" Ping reçu, 2647
30/08/2026 18h 13' 27" Enregistrement de l'éclairement (345.6 lux & 0 lux )
30/08/2026 18h 13' 26" Ping reçu, 2644
30/08/2026 18h 13' 21" Ping reçu, 2643
30/08/2026 18h 13' 17" Ping reçu, 2642
30/08/2026 18h 13' 13" cPing.
30/08/2026 18h 13' 10" Enregistrement de la température (24,374 °C)
30/08/2026 18h 13' 09" Ping reçu,         2640
30/08/2026 18h 13' 03" Ping reçu, 2639
30/08/2026 18h 12' 59" Ping reçu, 2638
30/08/2026 18h 12' 55" Ping reçu, 2637
30/08/2026 18h 12' 42" Ping reçu, 2634
30/08/2026 18h 12' 33" Ping reçu, 2632
30/08/2026 18h 12' 30" ERR. Ther. 1 HS.
30/08/2026 18h 12' 29" Ping reçu, 2631
30/08/2026 18h 12' 25" Ping reçu,         2630
30/08/2026 18h 12' 20" Ping reçu, 2629
30/08/2026 18h 12' 16" cPing.
30/08/2026 18h 12' 06" Ping reçu, 2626
30/08/2026 18h 12' 02" Ping reçu,         2625
30/08/2026 18h 11' 49" Ping reçu, 2622
30/08/2026 18h 11' 45" Ping reçu, 2621
30/08/2026 18h 11' 42" Ping reçu,         2620
30/08/2026 18h 11' 41" Ping reçu, 1
30/08/2026 18h 11' 38" Ping reçu, 2619
30/08/2026 18h 11' 32" Ping reçu, 2618
30/08/2026 18h 11' 24" Ping reçu, 2616
30/08/2026 18h 11' 20" On a tout sauvé !
30/08/2026 18h 11' 20" cPing.
30/08/2026 18h 11' 11" Ping reçu, 2613
30/08/2026 18h 11' 08" Enregistrement de l'éclairement (345.6 lux & 0 lux )
30/08/2026 18h 11' 07" Ping reçu, 2612
30/08/2026 18h 10' 59" Ping reçu,         2610
30/08/2026 18h 10' 45" Ping reçu, 2607
30/08/2026 18h 10' 41" Ping reçu, 2606
30/08/2026 18h 10' 36" Ping reçu,         2605
30/08/2026 18h 10' 32" Ping reçu, 2604
30/08/2026 18h 10' 23" cPing.
30/08/2026 18h 10' 20" Ping reçu, 2601
30/08/2026 18h 10' 15" Ping reçu,         2600
30/08/2026 18h 10' 04" Ping reçu, 2597
30/08/2026 18h 10' 00" Ping reçu, 2596
30/08/2026 18h 09' 57" Enregistrement de l'éclairement (345.6 lux & 0 lux )
30/08/2026 18h 09' 51" Ping reçu,         2595
30/08/2026 18h 09' 47" Ping reçu, 2594
30/08/2026 18h 09' 43" Ping reçu, 2593
30/08/2026 18h 09' 39" Ping reçu, 2592
30/08/2026 18h 09' 34" Ping reçu, 2591
30/08/2026 18h 09' 30" Ping reçu,         2590
30/08/2026 18h 09' 28" cPing.
30/08/2026 18h 09' 27" Ping reçu, 2589
30/08/2026 18h 09' 23" Ping reçu, 2588
30/08/2026 18h 09' 20" Ping reçu, 2587
30/08/2026 18h 09' 15" Ping reçu, 2586
30/08/2026 18h 09' 11" Ping reçu,         2585
30/08/2026 18h 09' 02" Ping reçu, 2583
30/08/2026 18h 08' 58" Ping reçu, 2582
30/08/2026 18h 08' 52" Enregistrement de la température (24,405 °C)
30/08/2026 18h 08' 45" Ping reçu, 2579
30/08/2026 18h 08' 32" Ping reçu, 2576
30/08/2026 18h 08' 31" cPing.
30/08/2026 18h 08' 29" ERR. Ther. 1 HS.
30/08/2026 18h 08' 27" Ping reçu,         2575
30/08/2026 18h 08' 14" Ping reçu, 2572
30/08/2026 18h 08' 11" Ping reçu, 2571
30/08/2026 18h 08' 07" Ping reçu,         2570
30/08/2026 18h 07' 59" Ping reçu, 2568
30/08/2026 18h 07' 54" Ping reçu, 2567
30/08/2026 18h 07' 50" Ping reçu, 2566
30/08/2026 18h 07' 46" Ping reçu,         2565
30/08/2026 18h 07' 45" Enregistrement de l'éclairement (345.6 lux & 0 lux )
30/08/2026 18h 07' 41" Ping reçu, 2564
30/08/2026 18h 07' 37" Ping reçu, 2563
30/08/2026 18h 07' 36" cPing.
30/08/2026 18h 07' 33" Ping reçu, 2562
30/08/2026 18h 07' 27" Pressions pluviométriques (32,07 & 64,00)
30/08/2026 18h 07' 27" Enregistrement de la hauteur d'eau (782,820 mm @ 99,9%)
30/08/2026 18h 07' 26" Ping reçu,         2560
30/08/2026 18h 07' 24" Enregistrement des paramètres du vent (49.1° @ 0 m/s)
30/08/2026 18h 07' 20" Ping reçu, 2559
30/08/2026 18h 07' 12" Ping reçu, 2557
30/08/2026 18h 07' 08" Ping reçu, 2556
30/08/2026 18h 07' 04" Ping reçu,         2555
30/08/2026 18h 06' 56" Ping reçu, 2553
30/08/2026 18h 06' 51" Ping reçu, 2552
30/08/2026 18h 06' 47" Ping reçu, 2551
30/08/2026 18h 06' 42" Ping reçu,         2550
30/08/2026 18h 06' 39" cPing.
30/08/2026 18h 06' 38" Ping reçu, 2549
30/08/2026 18h 06' 34" Ping reçu, 2548
30/08/2026 18h 06' 30" Ping reçu, 2547
30/08/2026 18h 06' 27" Ping reçu, 2546
30/08/2026 18h 06' 23" Ping reçu,         2545
30/08/2026 18h 06' 19" Ping reçu, 2544
30/08/2026 18h 06' 10" Ping reçu, 2542
30/08/2026 18h 06' 06" Ping reçu, 2541
30/08/2026 18h 05' 57" Ping reçu, 2539
30/08/2026 18h 05' 49" Ping reçu, 2537
30/08/2026 18h 05' 45" Ping reçu, 2536
30/08/2026 18h 05' 44" cPing.
30/08/2026 18h 05' 40" Ping reçu,         2535
30/08/2026 18h 05' 36" Ping reçu, 2534
30/08/2026 18h 05' 30" Enregistrement de l'éclairement (345.6 lux & 0 lux )
30/08/2026 18h 05' 29" Ping reçu, 2532
30/08/2026 18h 05' 14" Ping reçu, 2529
30/08/2026 18h 05' 12" Ping reçu, 2528
30/08/2026 18h 05' 02" Ping reçu, 2526
30/08/2026 18h 04' 59" Ping reçu,         2525
30/08/2026 18h 04' 54" Ping reçu, 2524
30/08/2026 18h 04' 50" Ping reçu, 2523
30/08/2026 18h 04' 47" cPing.
30/08/2026 18h 04' 45" Ping reçu, 2522
30/08/2026 18h 04' 41" Ping reçu, 2521
30/08/2026 18h 04' 37" Enregistrement de l'humidité (57,41 %)
30/08/2026 18h 04' 32" Ping reçu, 2519
30/08/2026 18h 04' 27" Ping reçu, 2518
30/08/2026 18h 04' 23" Ping reçu, 2517
30/08/2026 18h 04' 23" Enregistrement de l'éclairement (345.6 lux & 0 lux )
30/08/2026 18h 04' 19" Ping reçu, 2516
30/08/2026 18h 04' 12" Ping reçu, 2514
30/08/2026 18h 04' 08" Ping reçu, 2513
30/08/2026 18h 04' 04" Ping reçu, 2512
30/08/2026 18h 03' 59" Ping reçu, 2511
30/08/2026 18h 03' 56" Ping reçu,         2510
30/08/2026 18h 03' 51" Ping reçu, 2509
30/08/2026 18h 03' 51" cPing.
30/08/2026 18h 03' 47" Ping reçu, 2508
30/08/2026 18h 03' 42" Ping reçu, 2507
30/08/2026 18h 03' 38" Ping reçu, 2506
30/08/2026 18h 03' 34" Ping reçu,         2505
30/08/2026 18h 03' 30" Ping reçu, 2504
30/08/2026 18h 03' 27" Ping reçu, 2503
30/08/2026 18h 03' 23" Ping reçu, 2502
30/08/2026 18h 03' 19" Ping reçu, 2501
30/08/2026 18h 03' 16" Enregistrement de l'éclairement (345.6 lux & 0 lux )
30/08/2026 18h 03' 11" Ping reçu, 2499
30/08/2026 18h 03' 06" Ping reçu, 2498
30/08/2026 18h 02' 57" Ping reçu, 2496
30/08/2026 18h 02' 56" cPing.
30/08/2026 18h 02' 49" Ping reçu, 2494
30/08/2026 18h 02' 45" Ping reçu, 2493
30/08/2026 18h 02' 38" Ping reçu, 2491
30/08/2026 18h 02' 23" Ping reçu, 2488
30/08/2026 18h 02' 20" Ping reçu, 2487
30/08/2026 18h 02' 16" Ping reçu, 2486
30/08/2026 18h 02' 12" Ping reçu,         2485
30/08/2026 18h 02' 08" Enregistrement de l'éclairement (345.6 lux & 0 lux )
30/08/2026 18h 02' 08" Ping reçu, 2484
30/08/2026 18h 02' 00" Ping reçu, 2483
30/08/2026 18h 01' 59" cPing.
30/08/2026 18h 01' 53" Ping reçu, 2481
30/08/2026 18h 01' 49" Ping reçu,         2480
30/08/2026 18h 01' 44" Ping reçu, 2479
30/08/2026 18h 01' 40" Ping reçu, 2478
30/08/2026 18h 01' 36" Ping reçu, 2477
30/08/2026 18h 01' 32" Ping reçu, 2476
30/08/2026 18h 01' 27" Ping reçu,         2475
30/08/2026 18h 01' 23" Ping reçu, 2474
30/08/2026 18h 01' 19" Ping reçu, 2473
30/08/2026 18h 01' 10" Ping reçu, 2471
30/08/2026 18h 01' 04" cPing.
30/08/2026 18h 01' 01" Ping reçu, 2469
30/08/2026 18h 01' 00" Enregistrement de l'éclairement (345.6 lux & 0 lux )
30/08/2026 18h 00' 57" Ping reçu, 2468
30/08/2026 18h 00' 54" Ping reçu, 2467
30/08/2026 18h 00' 50" Ping reçu, 2466
30/08/2026 18h 00' 46" Ping reçu,         2465
30/08/2026 18h 00' 42" Ping reçu, 2464
30/08/2026 18h 00' 38" ERR. Ther. 1 HS.
30/08/2026 18h 00' 34" On purge les valeurs du crystal...
30/08/2026 18h 00' 28" Enregistrement de la température (24,410 °C)
30/08/2026 18h 00' 28" Ping reçu, 2461
30/08/2026 18h 00' 27" On purge les valeurs du crystal...
30/08/2026 18h 00' 16" On purge les valeurs du crystal...
30/08/2026 18h 00' 07" cPing.
30/08/2026 18h 00' 06" Ping reçu, 2456
30/08/2026 18h 00' 02" Ping reçu,         2455
30/08/2026 17h 59' 58" Ping reçu, 2454
30/08/2026 17h 59' 54" Ping reçu, 2453
30/08/2026 17h 59' 53" Enregistrement de l'éclairement (345.6 lux & 0 lux )
30/08/2026 17h 59' 50" Ping reçu, 2452
30/08/2026 17h 59' 47" Ping reçu, 2451
30/08/2026 17h 59' 42" Ping reçu,         2450
30/08/2026 17h 59' 34" Ping reçu, 2448
30/08/2026 17h 59' 30" Ping reçu, 2447
30/08/2026 17h 59' 26" Ping reçu, 2446
30/08/2026 17h 59' 21" Ping reçu,         2445
30/08/2026 17h 59' 12" Ping reçu, 2443
30/08/2026 17h 59' 12" cPing.
30/08/2026 17h 59' 08" Ping reçu, 2442
30/08/2026 17h 58' 59" Ping reçu,         2440
30/08/2026 17h 58' 45" Enregistrement de l'éclairement (345.6 lux & 0 lux )
30/08/2026 17h 58' 42" Ping reçu, 2436
30/08/2026 17h 58' 39" Ping reçu,         2435
30/08/2026 17h 58' 30" Ping reçu, 2433
30/08/2026 17h 58' 26" Ping reçu, 2432
30/08/2026 17h 58' 22" Ping reçu, 2431
30/08/2026 17h 58' 18" Ping reçu,         2430
30/08/2026 17h 58' 15" cPing.
30/08/2026 17h 58' 13" Ping reçu, 2429
30/08/2026 17h 58' 05" Ping reçu, 2427
30/08/2026 17h 58' 00" Ping reçu, 2426
30/08/2026 17h 57' 56" Ping reçu,         2425
30/08/2026 17h 57' 51" Ping reçu, 2424
30/08/2026 17h 57' 47" Ping reçu, 2423
30/08/2026 17h 57' 43" Enregistrement Température du pluviometre : (25,2 °C)
30/08/2026 17h 57' 41" Ping reçu, 2422
30/08/2026 17h 57' 33" Ping reçu,         2420
30/08/2026 17h 57' 29" Ping reçu, 2419
30/08/2026 17h 57' 20" Ping reçu, 2417
30/08/2026 17h 57' 20" cPing.
30/08/2026 17h 57' 11" Ping reçu,         2415
30/08/2026 17h 57' 07" Ping reçu, 2414
30/08/2026 17h 57' 03" Ping reçu, 2413
30/08/2026 17h 56' 59" Ping reçu, 1
30/08/2026 17h 56' 58" Ping reçu, 2412
30/08/2026 17h 56' 54" Ping reçu, 2411
30/08/2026 17h 56' 51" Ping reçu,         2410
30/08/2026 17h 56' 48" On a tout sauvé !
30/08/2026 17h 56' 47" Ping reçu, 2409
30/08/2026 17h 56' 38" Ping reçu, 2407
30/08/2026 17h 56' 34" Ping reçu, 2406
30/08/2026 17h 56' 30" Ping reçu,         2405
30/08/2026 17h 56' 27" Enregistrement de l'éclairement (345.6 lux & 0 lux )
30/08/2026 17h 56' 22" cPing.
30/08/2026 17h 56' 12" Ping reçu, 2401
30/08/2026 17h 56' 11" Pressions pluviométriques (32,07 & 64,00)
30/08/2026 17h 56' 11" Enregistrement de la hauteur d'eau (782,840 mm @ 99,8%)
30/08/2026 17h 56' 11" Enregistrement de la température (24,509 °C)
30/08/2026 17h 56' 09" Ping reçu,         2400
30/08/2026 17h 56' 08" Enregistrement des paramètres du vent (49.1° @ 0 m/s)
30/08/2026 17h 56' 08" Enregistrement de la Pression atmosphérique (1026,464 hPa)
30/08/2026 17h 56' 03" Ping reçu, 2399
30/08/2026 17h 55' 59" Ping reçu, 2398
30/08/2026 17h 55' 54" Ping reçu, 2397
30/08/2026 17h 55' 50" Ping reçu, 2396
30/08/2026 17h 55' 42" Ping reçu, 2394
30/08/2026 17h 55' 38" Ping reçu, 2393
30/08/2026 17h 55' 35" Ping reçu, 2392
30/08/2026 17h 55' 31" Ping reçu, 2391
30/08/2026 17h 55' 27" cPing.
30/08/2026 17h 55' 22" Ping reçu, 2389
30/08/2026 17h 55' 18" Enregistrement de l'éclairement (345.6 lux & 0 lux )
30/08/2026 17h 55' 18" Ping reçu, 2388
30/08/2026 17h 55' 09" Ping reçu, 2386
30/08/2026 17h 54' 56" Ping reçu, 2383
30/08/2026 17h 54' 51" Ping reçu, 2382
30/08/2026 17h 54' 45" Enregistrement de l'humidité (57,34 %)
30/08/2026 17h 54' 43" Ping reçu,         2380
30/08/2026 17h 54' 38" Ping reçu, 2379
30/08/2026 17h 54' 34" Ping reçu, 2378
30/08/2026 17h 54' 30" Ping reçu, 2377
30/08/2026 17h 54' 30" cPing.
30/08/2026 17h 54' 27" Ping reçu, 2376
30/08/2026 17h 54' 18" Ping reçu, 2374
30/08/2026 17h 54' 10" Ping reçu, 2372
30/08/2026 17h 54' 06" Ping reçu, 2371
30/08/2026 17h 54' 02" Ping reçu,         2370
30/08/2026 17h 53' 57" Ping reçu, 2369
30/08/2026 17h 53' 53" Ping reçu, 2368
30/08/2026 17h 53' 48" Ping reçu, 2367
30/08/2026 17h 53' 36" Ping reçu, 2364
30/08/2026 17h 53' 35" cPing.
30/08/2026 17h 53' 32" Ping reçu, 2363
30/08/2026 17h 53' 25" Ping reçu, 2361
30/08/2026 17h 53' 21" Ping reçu,         2360
30/08/2026 17h 53' 17" Ping reçu, 2359
30/08/2026 17h 53' 12" Ping reçu, 2358
30/08/2026 17h 53' 08" Ping reçu, 2357
30/08/2026 17h 53' 08" Enregistrement de l'éclairement (345.6 lux & 0 lux )
30/08/2026 17h 53' 04" Ping reçu, 2356
30/08/2026 17h 53' 00" Ping reçu,         2355
30/08/2026 17h 52' 56" Ping reçu, 2354
30/08/2026 17h 52' 53" Ping reçu, 2353
30/08/2026 17h 52' 45" ERR. Ther. 1 HS.
30/08/2026 17h 52' 40" Ping reçu,         2350
30/08/2026 17h 52' 39" cPing.
30/08/2026 17h 52' 36" Ping reçu, 2349
30/08/2026 17h 52' 32" Ping reçu, 2348
30/08/2026 17h 52' 27" Ping reçu, 2347
30/08/2026 17h 52' 23" Ping reçu, 2346
30/08/2026 17h 52' 19" Ping reçu,         2345
30/08/2026 17h 52' 15" Ping reçu, 2344
30/08/2026 17h 52' 04" Ping reçu, 2341
30/08/2026 17h 52' 02" Enregistrement de la température (24,562 °C)
30/08/2026 17h 52' 00" Ping reçu,         2340
30/08/2026 17h 51' 56" Ping reçu, 2339
30/08/2026 17h 51' 47" Ping reçu, 2337
30/08/2026 17h 51' 42" Ping reçu, 2336
30/08/2026 17h 51' 42" cPing.
30/08/2026 17h 51' 29" Ping reçu, 2333
30/08/2026 17h 51' 25" Ping reçu, 2332
30/08/2026 17h 51' 17" Ping reçu,         2330
30/08/2026 17h 51' 08" Ping reçu, 2328
30/08/2026 17h 51' 06" Ping reçu, 2327
30/08/2026 17h 50' 57" Ping reçu,         2325
30/08/2026 17h 50' 56" Enregistrement de l'éclairement (345.6 lux & 0 lux )
30/08/2026 17h 50' 47" cPing.
30/08/2026 17h 50' 44" Ping reçu, 2322
30/08/2026 17h 50' 39" Ping reçu, 2321
30/08/2026 17h 50' 35" Enregistrement des paramètres du vent (49.1° @ 0 m/s)
30/08/2026 17h 50' 35" Ping reçu,         2320
30/08/2026 17h 50' 14" Ping reçu,         2315
30/08/2026 17h 50' 11" Ping reçu, 2314
30/08/2026 17h 50' 03" Ping reçu, 2312
30/08/2026 17h 49' 59" Ping reçu, 2311
30/08/2026 17h 49' 54" Ping reçu,         2310
30/08/2026 17h 49' 50" Ping reçu, 2309
30/08/2026 17h 49' 50" cPing.
30/08/2026 17h 49' 46" Ping reçu, 2308
30/08/2026 17h 49' 37" Ping reçu, 2306
30/08/2026 17h 49' 29" Ping reçu, 2304
30/08/2026 17h 49' 26" Ping reçu, 2303
30/08/2026 17h 49' 21" Ping reçu, 2302
30/08/2026 17h 49' 13" Ping reçu,         2300
30/08/2026 17h 49' 09" Ping reçu, 2299
30/08/2026 17h 49' 05" Ping reçu, 2298
30/08/2026 17h 49' 00" Ping reçu, 2297
30/08/2026 17h 48' 56" Ping reçu, 2296
30/08/2026 17h 48' 55" cPing.
30/08/2026 17h 48' 47" Ping reçu, 2294
30/08/2026 17h 48' 39" Enregistrement de l'éclairement (345.6 lux & 0 lux )
30/08/2026 17h 48' 39" Enregistrement de l'Arduino : (27,5 °C)
30/08/2026 17h 48' 29" Ping reçu,         2290
30/08/2026 17h 48' 24" Ping reçu, 2289
30/08/2026 17h 48' 15" Ping reçu, 2287
30/08/2026 17h 48' 11" Ping reçu, 2286
30/08/2026 17h 48' 03" Ping reçu, 2284
30/08/2026 17h 47' 58" cPing.
30/08/2026 17h 47' 56" Ping reçu, 2282
30/08/2026 17h 47' 48" Ping reçu,         2280
30/08/2026 17h 47' 48" Enregistrement de la Pression atmosphérique (1026,506 hPa)
30/08/2026 17h 47' 43" Ping reçu, 2279
30/08/2026 17h 47' 39" Ping reçu, 2278
30/08/2026 17h 47' 35" Ping reçu, 2277
30/08/2026 17h 47' 31" Enregistrement de l'éclairement (345.6 lux & 0 lux )
30/08/2026 17h 47' 30" Ping reçu, 2276
30/08/2026 17h 47' 21" Ping reçu, 2274
30/08/2026 17h 47' 17" Ping reçu, 2273
30/08/2026 17h 47' 04" Ping reçu,         2270
30/08/2026 17h 47' 03" cPing.
30/08/2026 17h 46' 56" Ping reçu, 2268
30/08/2026 17h 46' 53" Ping reçu, 2267
30/08/2026 17h 46' 49" Ping reçu, 2266
30/08/2026 17h 46' 45" Ping reçu,         2265
30/08/2026 17h 46' 41" Ping reçu, 2264
30/08/2026 17h 46' 32" Ping reçu, 2262
30/08/2026 17h 46' 28" Ping reçu, 2261
30/08/2026 17h 46' 27" Enregistrement de l'éclairement (345.6 lux & 0 lux )
30/08/2026 17h 46' 24" Ping reçu,         2260
30/08/2026 17h 46' 21" Ping reçu, 2259
30/08/2026 17h 46' 17" Ping reçu, 2258
30/08/2026 17h 46' 13" Ping reçu, 2257
30/08/2026 17h 46' 06" cPing.
30/08/2026 17h 46' 05" Ping reçu,         2255
30/08/2026 17h 45' 56" Ping reçu, 2253
30/08/2026 17h 45' 51" Ping reçu, 2252
30/08/2026 17h 45' 47" Ping reçu, 2251
30/08/2026 17h 45' 39" Enregistrement Température du pluviometre : (25,3 °C)
30/08/2026 17h 45' 19" Ping reçu,         2245
30/08/2026 17h 45' 15" Ping reçu, 2244
30/08/2026 17h 45' 11" Ping reçu, 2243
30/08/2026 17h 45' 11" cPing.
30/08/2026 17h 45' 06" Ping reçu, 2242
30/08/2026 17h 45' 02" Ping reçu, 2241
30/08/2026 17h 45' 00" Pressions pluviométriques (32,07 & 64,00)
30/08/2026 17h 44' 58" Enregistrement de la hauteur d'eau (782,870 mm @ 99,9%)
30/08/2026 17h 44' 57" Enregistrement des paramètres du vent (49.1° @ 0 m/s)
30/08/2026 17h 44' 57" Enregistrement de l'humidité (57,76 %)
30/08/2026 17h 44' 53" ERR. Ther. 1 HS.
30/08/2026 17h 44' 53" Ping reçu, 2239
30/08/2026 17h 44' 48" Ping reçu, 2238
30/08/2026 17h 44' 40" Ping reçu, 2236
30/08/2026 17h 44' 36" Ping reçu,         2235
30/08/2026 17h 44' 32" Ping reçu, 2234
30/08/2026 17h 44' 29" Ping reçu, 2233
30/08/2026 17h 44' 25" Ping reçu, 2232
30/08/2026 17h 44' 14" cPing.
30/08/2026 17h 44' 12" Enregistrement de l'éclairement (345.6 lux & 0 lux )
30/08/2026 17h 44' 08" Ping reçu, 2228
30/08/2026 17h 44' 04" Ping reçu, 2227
30/08/2026 17h 43' 51" Ping reçu, 2224
30/08/2026 17h 43' 48" Ping reçu, 2223
30/08/2026 17h 43' 42" Ping reçu, 2222
30/08/2026 17h 43' 40" Ping reçu, 2221
30/08/2026 17h 43' 37" Enregistrement de la température (24,564 °C)
30/08/2026 17h 43' 35" Ping reçu,         2220
30/08/2026 17h 43' 22" Ping reçu, 2217
30/08/2026 17h 43' 18" cPing.
30/08/2026 17h 43' 05" Ping reçu, 2213
30/08/2026 17h 43' 04" Enregistrement de l'éclairement (345.6 lux & 0 lux )
30/08/2026 17h 42' 56" Ping reçu, 2211
30/08/2026 17h 42' 52" Ping reçu,         2210
30/08/2026 17h 42' 48" Ping reçu, 2209
30/08/2026 17h 42' 44" Ping reçu, 2208
30/08/2026 17h 42' 39" Ping reçu, 2207
30/08/2026 17h 42' 36" Ping reçu, 1
30/08/2026 17h 42' 36" Ping reçu, 2206
30/08/2026 17h 42' 32" Ping reçu,         2205
30/08/2026 17h 42' 27" Ping reçu, 1
30/08/2026 17h 42' 27" Ping reçu, 2204
30/08/2026 17h 42' 24" Ping reçu, 2203
30/08/2026 17h 42' 23" cPing.
30/08/2026 17h 42' 19" Ping reçu, 2202
30/08/2026 17h 42' 15" On a tout sauvé !
30/08/2026 17h 42' 15" Ping reçu, 2201
30/08/2026 17h 42' 11" Ping reçu,         2200
30/08/2026 17h 42' 06" Ping reçu, 2199
30/08/2026 17h 42' 02" Ping reçu, 2198
30/08/2026 17h 41' 48" Ping reçu,         2195
30/08/2026 17h 41' 44" Ping reçu, 2194
30/08/2026 17h 41' 40" Ping reçu, 2193
30/08/2026 17h 41' 31" Ping reçu, 2191
30/08/2026 17h 41' 27" Ping reçu,         2190
30/08/2026 17h 41' 26" cPing.
30/08/2026 17h 41' 24" Ping reçu, 2189
30/08/2026 17h 41' 20" Ping reçu, 2188
30/08/2026 17h 41' 16" Ping reçu, 2187
30/08/2026 17h 41' 12" Ping reçu, 2186
30/08/2026 17h 41' 08" Ping reçu,         2185
30/08/2026 17h 41' 03" Ping reçu, 2184
30/08/2026 17h 41' 00" ERR. Ther. 1 HS.
30/08/2026 17h 40' 59" Ping reçu, 2183
30/08/2026 17h 40' 55" Ping reçu, 2182
30/08/2026 17h 40' 51" Ping reçu, 2181
30/08/2026 17h 40' 47" Ping reçu,         2180
30/08/2026 17h 40' 44" Ping reçu, 2179
30/08/2026 17h 40' 40" Ping reçu, 2178
30/08/2026 17h 40' 36" Ping reçu, 2177
30/08/2026 17h 40' 32" Ping reçu, 2176
30/08/2026 17h 40' 29" cPing.
30/08/2026 17h 40' 27" Ping reçu,         2175
30/08/2026 17h 40' 18" Ping reçu, 2173
30/08/2026 17h 40' 09" Ping reçu, 2171
30/08/2026 17h 40' 05" Ping reçu,         2170
30/08/2026 17h 40' 01" Ping reçu, 2169
30/08/2026 17h 39' 57" Ping reçu, 2168
30/08/2026 17h 39' 54" Ping reçu, 2167
30/08/2026 17h 39' 48" Ping reçu, 2166
30/08/2026 17h 39' 45" Ping reçu,         2165
30/08/2026 17h 39' 42" Enregistrement de l'éclairement (345.6 lux & 0 lux )
30/08/2026 17h 39' 41" Ping reçu, 2164
30/08/2026 17h 39' 33" cPing.
30/08/2026 17h 39' 24" Enregistrement des paramètres du vent (49.2° @ 0 m/s)
30/08/2026 17h 39' 24" Enregistrement de la Pression atmosphérique (1026,495 hPa)
30/08/2026 17h 39' 24" Ping reçu,         2160
30/08/2026 17h 39' 18" Ping reçu, 2159
30/08/2026 17h 39' 14" Ping reçu, 2158
30/08/2026 17h 39' 06" Ping reçu, 2156
30/08/2026 17h 38' 57" Ping reçu, 2154
30/08/2026 17h 38' 53" Ping reçu, 2153
30/08/2026 17h 38' 49" Ping reçu, 2152
30/08/2026 17h 38' 45" Ping reçu, 2151
30/08/2026 17h 38' 42" Ping reçu,         2150
30/08/2026 17h 38' 38" Ping reçu, 2149
30/08/2026 17h 38' 38" cPing.
30/08/2026 17h 38' 35" Enregistrement de l'éclairement (345.6 lux & 0 lux )
30/08/2026 17h 38' 21" Ping reçu,         2145
30/08/2026 17h 38' 17" Ping reçu, 2144
30/08/2026 17h 38' 12" Ping reçu, 2143
30/08/2026 17h 37' 59" Ping reçu,         2140
30/08/2026 17h 37' 50" Ping reçu, 2138
30/08/2026 17h 37' 47" Ping reçu, 2137
30/08/2026 17h 37' 42" Ping reçu, 2136
30/08/2026 17h 37' 41" cPing.
30/08/2026 17h 37' 39" Ping reçu,         2135
30/08/2026 17h 37' 35" Ping reçu, 2134
30/08/2026 17h 37' 31" Ping reçu, 2133
30/08/2026 17h 37' 28" Enregistrement de l'éclairement (345.6 lux & 0 lux )
30/08/2026 17h 37' 27" Ping reçu, 2132
30/08/2026 17h 37' 23" Ping reçu, 2131
30/08/2026 17h 37' 14" Ping reçu, 2129
30/08/2026 17h 37' 10" Ping reçu, 2128
30/08/2026 17h 37' 08" ERR. Ther. 1 HS.
30/08/2026 17h 37' 06" Ping reçu, 2127
30/08/2026 17h 37' 01" Ping reçu, 2126
30/08/2026 17h 36' 53" Ping reçu, 2124
30/08/2026 17h 36' 50" Ping reçu, 2123
30/08/2026 17h 36' 46" Ping reçu, 2122
30/08/2026 17h 36' 46" cPing.
30/08/2026 17h 36' 42" Ping reçu, 2121
30/08/2026 17h 36' 29" Ping reçu, 2118
30/08/2026 17h 36' 24" Ping reçu, 2117
30/08/2026 17h 36' 23" Enregistrement de l'éclairement (345.6 lux & 0 lux )
30/08/2026 17h 36' 20" Ping reçu, 2116
30/08/2026 17h 36' 16" Ping reçu,         2115
30/08/2026 17h 36' 08" Ping reçu, 2113
30/08/2026 17h 36' 03" Ping reçu, 2112
30/08/2026 17h 36' 00" Ping reçu, 2111
30/08/2026 17h 35' 56" Ping reçu,         2110
30/08/2026 17h 35' 52" Ping reçu, 2109
30/08/2026 17h 35' 49" cPing.
30/08/2026 17h 35' 48" Ping reçu, 2108
30/08/2026 17h 35' 39" Ping reçu, 2106
30/08/2026 17h 35' 35" Ping reçu,         2105
30/08/2026 17h 35' 30" Ping reçu, 2104
30/08/2026 17h 35' 26" Ping reçu, 2103
30/08/2026 17h 35' 22" Ping reçu, 2102
30/08/2026 17h 35' 20" Enregistrement de l'Arduino : (27,5 °C)
30/08/2026 17h 35' 16" Ping reçu, 2101
30/08/2026 17h 35' 14" Enregistrement de la température (24,605 °C)
30/08/2026 17h 35' 13" Enregistrement de l'éclairement (345.6 lux & 0 lux )
30/08/2026 17h 35' 12" Ping reçu,         2100
30/08/2026 17h 35' 07" Ping reçu, 2099
30/08/2026 17h 35' 03" Ping reçu, 2098
30/08/2026 17h 34' 59" Ping reçu, 2097
30/08/2026 17h 34' 54" Ping reçu, 2096
30/08/2026 17h 34' 54" cPing.
30/08/2026 17h 34' 50" Ping reçu,         2095
30/08/2026 17h 34' 46" Ping reçu, 2094
30/08/2026 17h 34' 37" Ping reçu, 2092
30/08/2026 17h 34' 29" Ping reçu,         2090
30/08/2026 17h 34' 26" Ping reçu, 2089
30/08/2026 17h 34' 22" Ping reçu, 2088
30/08/2026 17h 34' 14" Ping reçu, 2086
30/08/2026 17h 34' 09" Ping reçu,         2085
30/08/2026 17h 34' 05" Enregistrement de l'éclairement (345.6 lux & 0 lux )
30/08/2026 17h 34' 00" Ping reçu, 2083
30/08/2026 17h 33' 57" cPing.
30/08/2026 17h 33' 52" Ping reçu, 2081
30/08/2026 17h 33' 50" Pressions pluviométriques (32,07 & 64,00)
30/08/2026 17h 33' 48" Ping reçu,         2080
30/08/2026 17h 33' 48" Enregistrement de la hauteur d'eau (783,010 mm @ 99,8%)
30/08/2026 17h 33' 42" Ping reçu, 2079
30/08/2026 17h 33' 38" Ping reçu, 2078
30/08/2026 17h 33' 21" Ping reçu,         2075
30/08/2026 17h 33' 10" Ping reçu, 2072
30/08/2026 17h 33' 06" ERR. Ther. 1 HS.
30/08/2026 17h 33' 06" Ping reçu, 2071
30/08/2026 17h 33' 02" Ping reçu,         2070
30/08/2026 17h 33' 02" cPing.
30/08/2026 17h 32' 56" Enregistrement de l'éclairement (345.6 lux & 0 lux )
30/08/2026 17h 32' 53" Ping reçu, 2068
30/08/2026 17h 32' 45" Ping reçu, 2066
30/08/2026 17h 32' 42" Rw SD-card.
30/08/2026 17h 32' 40" Ping reçu,         2065
30/08/2026 17h 32' 36" Ping reçu, 2064
30/08/2026 17h 32' 27" Ping reçu, 2062
30/08/2026 17h 32' 20" Ping reçu,         2060
30/08/2026 17h 32' 14" Ping reçu, 2059
30/08/2026 17h 32' 11" Ping reçu, 2058
30/08/2026 17h 32' 07" Ping reçu, 2057
30/08/2026 17h 32' 05" cPing.
30/08/2026 17h 31' 59" Ping reçu,         2055
30/08/2026 17h 31' 50" Ping reçu, 2053
30/08/2026 17h 31' 45" Ping reçu, 2052
30/08/2026 17h 31' 41" Ping reçu, 2051
30/08/2026 17h 31' 37" Ping reçu,         2050
30/08/2026 17h 31' 33" Ping reçu, 2049
30/08/2026 17h 31' 29" Ping reçu, 2048
30/08/2026 17h 31' 24" Ping reçu, 2047
30/08/2026 17h 31' 22" Ping reçu, 2046
30/08/2026 17h 31' 18" Ping reçu,         2045
30/08/2026 17h 31' 14" Ping reçu, 2044
30/08/2026 17h 31' 09" cPing.
30/08/2026 17h 31' 09" Ping reçu, 2043
30/08/2026 17h 31' 05" Ping reçu, 2042
30/08/2026 17h 30' 56" Ping reçu,         2040
30/08/2026 17h 30' 47" Ping reçu, 2038
30/08/2026 17h 30' 42" Ping reçu, 2037
30/08/2026 17h 30' 41" Enregistrement de l'éclairement (345.6 lux & 0 lux )
30/08/2026 17h 30' 38" Ping reçu, 2036
30/08/2026 17h 30' 34" Ping reçu,         2035
30/08/2026 17h 30' 30" Ping reçu, 2034
30/08/2026 17h 30' 23" Ping reçu, 2032
30/08/2026 17h 30' 19" Ping reçu, 2031
30/08/2026 17h 30' 14" Ping reçu,         2030
30/08/2026 17h 30' 14" cPing.
30/08/2026 17h 30' 11" Ping reçu, 2029
30/08/2026 17h 30' 06" Ping reçu, 2028
30/08/2026 17h 30' 02" Ping reçu, 2027
30/08/2026 17h 29' 57" Ping reçu, 2026
30/08/2026 17h 29' 53" Ping reçu,         2025
30/08/2026 17h 29' 49" Ping reçu, 2024
30/08/2026 17h 29' 44" Ping reçu, 2023
30/08/2026 17h 29' 40" Ping reçu, 2022
30/08/2026 17h 29' 36" Ping reçu, 2021
30/08/2026 17h 29' 35" Enregistrement de l'éclairement (345.6 lux & 0 lux )
30/08/2026 17h 29' 29" Ping reçu, 2019
30/08/2026 17h 29' 25" Ping reçu, 2018
30/08/2026 17h 29' 21" Ping reçu, 2017
30/08/2026 17h 29' 17" cPing.
30/08/2026 17h 29' 12" ERR. Ther. 1 HS.
30/08/2026 17h 29' 08" Ping reçu, 2014
30/08/2026 17h 29' 03" Ping reçu, 2013
30/08/2026 17h 28' 59" Ping reçu, 2012
30/08/2026 17h 28' 50" Ping reçu,         2010
30/08/2026 17h 28' 46" Ping reçu, 2009
30/08/2026 17h 28' 42" Ping reçu, 2008
30/08/2026 17h 28' 39" Ping reçu, 2007
30/08/2026 17h 28' 31" Ping reçu,         2005
30/08/2026 17h 28' 27" Ping reçu, 2004
30/08/2026 17h 28' 23" Ping reçu, 2003
30/08/2026 17h 28' 21" cPing.
30/08/2026 17h 28' 18" Ping reçu, 2002
30/08/2026 17h 28' 14" Ping reçu, 2001
30/08/2026 17h 28' 10" Enregistrement des paramètres du vent (49.1° @ 0 m/s)
30/08/2026 17h 28' 05" Ping reçu, 1999
30/08/2026 17h 28' 01" Ping reçu, 1
30/08/2026 17h 27' 57" Ping reçu, 1997
30/08/2026 17h 27' 54" Ping reçu, 1996
30/08/2026 17h 27' 48" Ping reçu,         1995
30/08/2026 17h 27' 44" Ping reçu, 1994
30/08/2026 17h 27' 41" On a tout sauvé !
30/08/2026 17h 27' 36" Ping reçu, 1992
30/08/2026 17h 27' 32" Ping reçu, 1991
30/08/2026 17h 27' 24" cPing.
30/08/2026 17h 27' 24" Ping reçu, 1989
30/08/2026 17h 27' 15" Ping reçu, 1987
30/08/2026 17h 27' 11" Ping reçu, 1986
30/08/2026 17h 27' 06" Ping reçu,         1985
30/08/2026 17h 26' 58" Ping reçu, 1983
30/08/2026 17h 26' 51" Ping reçu, 1981
30/08/2026 17h 26' 48" Enregistrement de la température (24,774 °C)
30/08/2026 17h 26' 32" Ping reçu, 1977
30/08/2026 17h 26' 29" Ping reçu, 1976
30/08/2026 17h 26' 29" cPing.
30/08/2026 17h 26' 20" Ping reçu, 1974
30/08/2026 17h 26' 13" Enregistrement de l'éclairement (345.6 lux & 0 lux )
30/08/2026 17h 26' 12" Ping reçu, 1972
30/08/2026 17h 26' 03" Ping reçu,         1970
30/08/2026 17h 25' 59" Ping reçu, 1969
30/08/2026 17h 25' 55" Ping reçu, 1968
30/08/2026 17h 25' 46" Ping reçu, 1966
30/08/2026 17h 25' 38" Ping reçu, 1964
30/08/2026 17h 25' 35" Ping reçu, 1963
30/08/2026 17h 25' 32" cPing.
30/08/2026 17h 25' 26" Ping reçu, 1961
30/08/2026 17h 25' 23" Enregistrement de l'humidité (58,61 %)
30/08/2026 17h 25' 22" Ping reçu,         1960
30/08/2026 17h 25' 18" ERR. Ther. 1 HS.
30/08/2026 17h 25' 09" Enregistrement de l'éclairement (345.6 lux & 0 lux )
30/08/2026 17h 25' 09" Ping reçu, 1957
30/08/2026 17h 25' 05" Ping reçu, 1956
30/08/2026 17h 25' 00" Ping reçu,         1955
30/08/2026 17h 24' 56" Ping reçu, 1954
30/08/2026 17h 24' 52" Ping reçu, 1953
30/08/2026 17h 24' 37" cPing.
30/08/2026 17h 24' 36" Ping reçu, 1949
30/08/2026 17h 24' 32" Ping reçu, 1948
30/08/2026 17h 24' 28" Ping reçu, 1947
30/08/2026 17h 24' 24" Ping reçu, 1946
30/08/2026 17h 24' 15" Ping reçu, 1944
30/08/2026 17h 24' 11" Ping reçu, 1943
30/08/2026 17h 24' 07" Ping reçu, 1942
30/08/2026 17h 24' 02" Enregistrement de l'éclairement (345.6 lux & 0 lux )
30/08/2026 17h 23' 59" Ping reçu,         1940
30/08/2026 17h 23' 47" Ping reçu, 1937
30/08/2026 17h 23' 43" Ping reçu, 1936
30/08/2026 17h 23' 40" cPing.
30/08/2026 17h 23' 30" Ping reçu, 1933
30/08/2026 17h 23' 21" Ping reçu, 1931
30/08/2026 17h 23' 13" Ping reçu, 1929
30/08/2026 17h 23' 09" Ping reçu, 1928
30/08/2026 17h 23' 06" Ping reçu, 1927
30/08/2026 17h 23' 02" Ping reçu, 1926
30/08/2026 17h 22' 58" Ping reçu,         1925
30/08/2026 17h 22' 45" Ping reçu, 1922
30/08/2026 17h 22' 45" cPing.
30/08/2026 17h 22' 41" Ping reçu, 1921
30/08/2026 17h 22' 37" Enregistrement de la température (24,823 °C)
30/08/2026 17h 22' 36" Ping reçu,         1920
30/08/2026 17h 22' 35" Enregistrement de la Pression atmosphérique (1026,545 hPa)
30/08/2026 17h 22' 35" Enregistrement des paramètres du vent (49.1° @ 0 m/s)
30/08/2026 17h 22' 26" Ping reçu, 1918
30/08/2026 17h 22' 17" Ping reçu, 1916
30/08/2026 17h 21' 56" Ping reçu, 1911
30/08/2026 17h 21' 48" cPing.
30/08/2026 17h 21' 44" Ping reçu, 1909
30/08/2026 17h 21' 42" Enregistrement de l'éclairement (345.6 lux & 0 lux )
30/08/2026 17h 21' 41" Ping reçu, 1908
30/08/2026 17h 21' 37" Ping reçu, 1907
30/08/2026 17h 21' 32" Ping reçu, 1906
30/08/2026 17h 21' 28" Ping reçu,         1905
30/08/2026 17h 21' 21" Enregistrement Température du pluviometre : (25,5 °C)
30/08/2026 17h 21' 20" ERR. Ther. 1 HS.
30/08/2026 17h 21' 15" Ping reçu, 1903
30/08/2026 17h 21' 11" Ping reçu, 1902
30/08/2026 17h 21' 08" Ping reçu, 1901
30/08/2026 17h 21' 03" Ping reçu,         1900
30/08/2026 17h 20' 56" Ping reçu, 1898
30/08/2026 17h 20' 53" cPing.
30/08/2026 17h 20' 52" Ping reçu, 1897
30/08/2026 17h 20' 48" Ping reçu, 1896
30/08/2026 17h 20' 43" Ping reçu,         1895
30/08/2026 17h 20' 39" Ping reçu, 1894
30/08/2026 17h 20' 35" Ping reçu, 1893
30/08/2026 17h 20' 31" Enregistrement de l'éclairement (345.6 lux & 0 lux )
30/08/2026 17h 20' 30" Ping reçu, 1892
30/08/2026 17h 20' 26" Ping reçu, 1891
30/08/2026 17h 20' 21" Ping reçu,         1890
30/08/2026 17h 20' 13" Ping reçu, 1888
30/08/2026 17h 20' 08" Ping reçu, 1887
30/08/2026 17h 20' 04" Ping reçu, 1886
30/08/2026 17h 20' 00" Ping reçu,         1885
30/08/2026 17h 19' 56" Ping reçu, 1884
30/08/2026 17h 19' 56" cPing.
30/08/2026 17h 19' 31" Ping reçu, 1878
30/08/2026 17h 19' 27" Ping reçu, 1877
30/08/2026 17h 19' 24" Enregistrement de l'éclairement (345.6 lux & 0 lux )
30/08/2026 17h 19' 23" Ping reçu, 1876
30/08/2026 17h 19' 18" Ping reçu,         1875
30/08/2026 17h 19' 10" Ping reçu, 1873
30/08/2026 17h 19' 01" Ping reçu, 1871
30/08/2026 17h 19' 00" cPing.
30/08/2026 17h 18' 57" Ping reçu,         1870
30/08/2026 17h 18' 54" Ping reçu, 1869
30/08/2026 17h 18' 50" Ping reçu, 1868
30/08/2026 17h 18' 46" Ping reçu, 1867
30/08/2026 17h 18' 41" Ping reçu, 1866
30/08/2026 17h 18' 33" Ping reçu, 1864
30/08/2026 17h 18' 29" Ping reçu, 1863
30/08/2026 17h 18' 24" Ping reçu, 1862
30/08/2026 17h 18' 20" Ping reçu, 1861
30/08/2026 17h 18' 20" Enregistrement de la température (24,797 °C)
30/08/2026 17h 18' 19" Enregistrement de l'éclairement (345.6 lux & 0 lux )
30/08/2026 17h 18' 16" Ping reçu,         1860
30/08/2026 17h 18' 07" Ping reçu, 1858
30/08/2026 17h 18' 05" cPing.
30/08/2026 17h 18' 03" Ping reçu, 1857
30/08/2026 17h 18' 00" Ping reçu, 1856
30/08/2026 17h 17' 52" Ping reçu, 1854
30/08/2026 17h 17' 47" Ping reçu, 1853
30/08/2026 17h 17' 43" Ping reçu, 1852
30/08/2026 17h 17' 39" Ping reçu, 1851
30/08/2026 17h 17' 35" Ping reçu,         1850
30/08/2026 17h 17' 30" Ping reçu, 1849
30/08/2026 17h 17' 21" Ping reçu, 1847
30/08/2026 17h 17' 13" Ping reçu,         1845
30/08/2026 17h 17' 12" Enregistrement de l'éclairement (345.6 lux & 0 lux )
30/08/2026 17h 17' 09" Ping reçu, 1844
30/08/2026 17h 17' 08" cPing.
30/08/2026 17h 16' 53" Enregistrement des paramètres du vent (49.1° @ 0 m/s)
30/08/2026 17h 16' 48" Ping reçu, 1839
30/08/2026 17h 16' 44" Ping reçu, 1838
30/08/2026 17h 16' 40" Ping reçu, 1837
30/08/2026 17h 16' 36" Ping reçu, 1836
30/08/2026 17h 16' 32" Ping reçu,         1835
30/08/2026 17h 16' 18" Ping reçu, 1832
30/08/2026 17h 16' 14" Ping reçu, 1831
30/08/2026 17h 16' 13" cPing.
30/08/2026 17h 16' 10" Ping reçu,         1830
30/08/2026 17h 16' 06" Ping reçu, 1829
30/08/2026 17h 15' 59" Ping reçu, 1827
30/08/2026 17h 15' 50" Ping reçu,         1825
30/08/2026 17h 15' 46" Ping reçu, 1824
30/08/2026 17h 15' 42" Ping reçu, 1823
30/08/2026 17h 15' 37" Ping reçu, 1822
30/08/2026 17h 15' 33" Ping reçu, 1821
30/08/2026 17h 15' 29" Enregistrement de l'humidité (59,11 %)
30/08/2026 17h 15' 24" Ping reçu, 1819
30/08/2026 17h 15' 20" Ping reçu, 1818
30/08/2026 17h 15' 16" cPing.
30/08/2026 17h 15' 12" Ping reçu, 1816
30/08/2026 17h 15' 00" Ping reçu, 1813
30/08/2026 17h 14' 57" Enregistrement de l'éclairement (345.6 lux & 0 lux )
30/08/2026 17h 14' 52" Ping reçu, 1811
30/08/2026 17h 14' 48" Ping reçu,         1810
30/08/2026 17h 14' 39" Ping reçu, 1808
30/08/2026 17h 14' 35" Ping reçu, 1807
30/08/2026 17h 14' 30" Ping reçu, 1806
30/08/2026 17h 14' 20" cPing.
30/08/2026 17h 14' 17" Ping reçu, 1803
30/08/2026 17h 14' 13" Ping reçu, 1802
30/08/2026 17h 14' 08" Enregistrement de la température (24,666 °C)
30/08/2026 17h 14' 05" Enregistrement de la Pression atmosphérique (1026,595 hPa)
30/08/2026 17h 13' 55" Ping reçu, 1798
30/08/2026 17h 13' 51" Ping reçu, 1797
30/08/2026 17h 13' 49" Enregistrement de l'éclairement (345.6 lux & 0 lux )
30/08/2026 17h 13' 39" Ping reçu, 1794
30/08/2026 17h 13' 35" Ping reçu, 1793
30/08/2026 17h 13' 27" ERR. Ther. 1 HS.
30/08/2026 17h 13' 27" Ping reçu, 1791
30/08/2026 17h 13' 23" cPing.
30/08/2026 17h 13' 22" Ping reçu,         1790
30/08/2026 17h 13' 18" Ping reçu, 1789
30/08/2026 17h 13' 14" Ping reçu, 1788
30/08/2026 17h 13' 09" Ping reçu, 1787
30/08/2026 17h 13' 05" Ping reçu, 1786
30/08/2026 17h 13' 00" Ping reçu,         1785
30/08/2026 17h 12' 52" Ping reçu, 1783
30/08/2026 17h 12' 48" Ping reçu, 1782
30/08/2026 17h 12' 43" Enregistrement de l'éclairement (345.6 lux & 0 lux )
30/08/2026 17h 12' 41" Ping reçu,         1780
30/08/2026 17h 12' 37" Ping reçu, 1779
30/08/2026 17h 12' 33" Ping reçu, 1778
30/08/2026 17h 12' 29" Ping reçu, 1777
30/08/2026 17h 12' 28" cPing.
30/08/2026 17h 12' 24" Ping reçu, 1776
30/08/2026 17h 12' 20" Ping reçu,         1775
30/08/2026 17h 12' 15" Ping reçu, 1774
30/08/2026 17h 12' 11" Ping reçu, 1773
30/08/2026 17h 12' 07" Ping reçu, 1772
30/08/2026 17h 12' 03" Ping reçu, 1771
30/08/2026 17h 11' 59" Ping reçu,         1770
30/08/2026 17h 11' 56" Ping reçu, 1769
30/08/2026 17h 11' 48" Ping reçu, 1767
30/08/2026 17h 11' 35" Enregistrement de l'éclairement (345.6 lux & 0 lux )
30/08/2026 17h 11' 31" cPing.
30/08/2026 17h 11' 30" Ping reçu, 1763
30/08/2026 17h 11' 18" Enregistrement de la hauteur d'eau (783,000 mm @ 99,8%)
30/08/2026 17h 11' 18" Pressions pluviométriques (32,07 & 64,00)
30/08/2026 17h 11' 17" Enregistrement des paramètres du vent (49.1° @ 0 m/s)
30/08/2026 17h 11' 08" Ping reçu, 1758
30/08/2026 17h 11' 03" Ping reçu, 1757
30/08/2026 17h 10' 59" Ping reçu, 1756
30/08/2026 17h 10' 51" Ping reçu, 1754
30/08/2026 17h 10' 47" Ping reçu, 1753
30/08/2026 17h 10' 40" Ping reçu, 1751
30/08/2026 17h 10' 36" cPing.
30/08/2026 17h 10' 32" Ping reçu, 1749
30/08/2026 17h 10' 28" Enregistrement de l'éclairement (345.6 lux & 0 lux )
30/08/2026 17h 10' 27" Ping reçu, 1748
30/08/2026 17h 10' 23" Ping reçu, 1747
30/08/2026 17h 10' 05" Ping reçu, 1743
30/08/2026 17h 09' 57" Ping reçu, 1741
30/08/2026 17h 09' 56" Enregistrement de la température (24,696 °C)
30/08/2026 17h 09' 48" Ping reçu, 1739
30/08/2026 17h 09' 41" Ping reçu, 1737
30/08/2026 17h 09' 39" cPing.
30/08/2026 17h 09' 37" Ping reçu, 1736
30/08/2026 17h 09' 33" ERR. Ther. 1 HS.
30/08/2026 17h 09' 33" Ping reçu,         1735
30/08/2026 17h 09' 29" Ping reçu, 1734
30/08/2026 17h 09' 24" Ping reçu, 1733
30/08/2026 17h 09' 20" Enregistrement de l'éclairement (345.6 lux & 0 lux )
30/08/2026 17h 09' 20" Ping reçu, 1732
30/08/2026 17h 09' 16" Ping reçu, 1731
30/08/2026 17h 09' 14" Enregistrement Température du pluviometre : (25,6 °C)
30/08/2026 17h 09' 10" Ping reçu,         1730
30/08/2026 17h 09' 06" Ping reçu, 1729
30/08/2026 17h 08' 44" cPing.
30/08/2026 17h 08' 39" Ping reçu, 1723
30/08/2026 17h 08' 35" Ping reçu, 1722
30/08/2026 17h 08' 26" Ping reçu,         1720
30/08/2026 17h 08' 24" Enregistrement de l'Arduino : (27,5 °C)
30/08/2026 17h 08' 12" Ping reçu, 1717
30/08/2026 17h 07' 59" Ping reçu, 1714
30/08/2026 17h 07' 50" Ping reçu, 1712
30/08/2026 17h 07' 47" cPing.
30/08/2026 17h 07' 45" Ping reçu, 1711
30/08/2026 17h 07' 36" Ping reçu, 1709
30/08/2026 17h 07' 28" Ping reçu, 1707
30/08/2026 17h 07' 24" Ping reçu, 1706
30/08/2026 17h 07' 20" Ping reçu,         1705
30/08/2026 17h 07' 17" Ping reçu, 1704
30/08/2026 17h 07' 13" Ping reçu, 1703
30/08/2026 17h 07' 05" Ping reçu, 1701
30/08/2026 17h 07' 02" Enregistrement de l'éclairement (345.6 lux & 0 lux )
30/08/2026 17h 06' 56" Ping reçu, 1699
30/08/2026 17h 06' 51" Ping reçu, 1698
30/08/2026 17h 06' 51" cPing.
30/08/2026 17h 06' 43" Ping reçu, 1696
30/08/2026 17h 06' 40" I2C : 17h 6m 37s. Désynchro. de 2 sec.s.
30/08/2026 17h 06' 38" Ping reçu,         1695
30/08/2026 17h 06' 34" Ping reçu, 1694
30/08/2026 17h 06' 29" Ping reçu, 1693
30/08/2026 17h 06' 25" Ping reçu, 1692
30/08/2026 17h 06' 21" Ping reçu, 1691
30/08/2026 17h 06' 14" Ping reçu, 1689
30/08/2026 17h 06' 10" Ping reçu, 1688
30/08/2026 17h 06' 06" Ping reçu, 1687
30/08/2026 17h 05' 57" Ping reçu,         1685
30/08/2026 17h 05' 56" cPing.
30/08/2026 17h 05' 54" Enregistrement de l'éclairement (345.6 lux & 0 lux )
30/08/2026 17h 05' 53" Ping reçu, 1684
30/08/2026 17h 05' 48" Ping reçu, 1683
30/08/2026 17h 05' 44" Ping reçu, 1682
30/08/2026 17h 05' 40" Ping reçu, 1681
30/08/2026 17h 05' 35" Enregistrement de la Pression atmosphérique (1026,611 hPa)
30/08/2026 17h 05' 35" Enregistrement de l'humidité (59,72 %)
30/08/2026 17h 05' 26" Ping reçu, 1678
30/08/2026 17h 05' 17" Ping reçu, 1676
30/08/2026 17h 05' 13" Ping reçu,         1675
30/08/2026 17h 05' 09" Ping reçu, 1674
30/08/2026 17h 05' 00" Ping reçu, 1672
30/08/2026 17h 04' 59" cPing.
30/08/2026 17h 04' 56" Ping reçu, 1671
30/08/2026 17h 04' 53" Ping reçu,         1670
30/08/2026 17h 04' 46" Enregistrement de l'éclairement (345.6 lux & 0 lux )
30/08/2026 17h 04' 45" Ping reçu, 1668
30/08/2026 17h 04' 36" Ping reçu, 1666
30/08/2026 17h 04' 27" Ping reçu, 1664
30/08/2026 17h 04' 23" Ping reçu, 1663
30/08/2026 17h 04' 18" Ping reçu, 1662
30/08/2026 17h 04' 10" Ping reçu,         1660
30/08/2026 17h 04' 06" Ping reçu, 1659
30/08/2026 17h 04' 04" cPing.
30/08/2026 17h 03' 57" Ping reçu, 1657
30/08/2026 17h 03' 54" Ping reçu, 1656
30/08/2026 17h 03' 50" Ping reçu,         1655
30/08/2026 17h 03' 46" Ping reçu, 1654
30/08/2026 17h 03' 37" Ping reçu, 1652
30/08/2026 17h 03' 33" Ping reçu, 1651
30/08/2026 17h 03' 24" Ping reçu, 1649
30/08/2026 17h 03' 20" Ping reçu, 1648
30/08/2026 17h 03' 15" Ping reçu, 1647
30/08/2026 17h 03' 11" Ping reçu, 1646
30/08/2026 17h 03' 07" Ping reçu,         1645
30/08/2026 17h 03' 07" cPing.
30/08/2026 17h 02' 58" Ping reçu, 1643
30/08/2026 17h 02' 54" Ping reçu, 1642
30/08/2026 17h 02' 50" Ping reçu, 1641
30/08/2026 17h 02' 47" Ping reçu,         1640
30/08/2026 17h 02' 43" Ping reçu, 1639
30/08/2026 17h 02' 34" Enregistrement de l'éclairement (345.6 lux & 0 lux )
30/08/2026 17h 02' 34" Ping reçu, 1637
30/08/2026 17h 02' 26" Ping reçu,         1635
30/08/2026 17h 02' 12" cPing.
30/08/2026 17h 02' 08" Ping reçu, 1631
30/08/2026 17h 02' 04" Ping reçu,         1630
30/08/2026 17h 02' 00" Ping reçu, 1629
30/08/2026 17h 01' 56" Ping reçu, 1628
30/08/2026 17h 01' 53" Ping reçu, 1627
30/08/2026 17h 01' 49" Ping reçu, 1626
30/08/2026 17h 01' 40" Ping reçu, 1624
30/08/2026 17h 01' 36" ERR. Ther. 1 HS.
30/08/2026 17h 01' 36" Ping reçu, 1623
30/08/2026 17h 01' 32" Ping reçu, 1622
30/08/2026 17h 01' 27" Enregistrement de l'éclairement (345.6 lux & 0 lux )
30/08/2026 17h 01' 27" Enregistrement de la température (24,810 °C)
30/08/2026 17h 01' 23" Ping reçu,         1620
30/08/2026 17h 01' 15" Ping reçu, 1618
30/08/2026 17h 01' 15" cPing.
30/08/2026 17h 01' 12" Ping reçu, 1617
30/08/2026 17h 01' 08" Ping reçu, 1616
30/08/2026 17h 00' 46" Ping reçu, 1611
30/08/2026 17h 00' 42" Ping reçu,         1610
30/08/2026 17h 00' 33" Ping reçu, 1608
30/08/2026 17h 00' 25" On purge les valeurs du crystal...
30/08/2026 17h 00' 24" Ping reçu, 1606
30/08/2026 17h 00' 20" cPing.
30/08/2026 17h 00' 17" On purge les valeurs du crystal...
30/08/2026 17h 00' 15" Ping reçu, 1604
30/08/2026 17h 00' 07" Ping reçu, 1602
30/08/2026 17h 00' 03" Ping reçu, 1601
30/08/2026 17h 00' 00" Enregistrement de la hauteur d'eau (783,100 mm @ 99,8%)
30/08/2026 17h 00' 00" Pressions pluviométriques (32,07 & 64,00)
30/08/2026 16h 59' 58" Ping reçu,         1600
30/08/2026 16h 59' 57" Enregistrement des paramètres du vent (49.1° @ 0 m/s)
30/08/2026 16h 59' 53" Ping reçu, 1599
30/08/2026 16h 59' 48" Ping reçu, 1598
30/08/2026 16h 59' 40" Ping reçu, 1596
30/08/2026 16h 59' 36" Ping reçu,         1595
30/08/2026 16h 59' 27" Ping reçu, 1593
30/08/2026 16h 59' 23" Ping reçu, 1592
30/08/2026 16h 59' 22" cPing.
30/08/2026 16h 59' 20" Ping reçu, 1591
30/08/2026 16h 59' 12" Enregistrement de l'éclairement (345.6 lux & 0 lux )
30/08/2026 16h 59' 07" Ping reçu, 1588
30/08/2026 16h 59' 03" Ping reçu, 1587
30/08/2026 16h 58' 59" Ping reçu, 1586
30/08/2026 16h 58' 50" Ping reçu, 1
30/08/2026 16h 58' 39" On a tout sauvé !
30/08/2026 16h 58' 37" Ping reçu, 1581
30/08/2026 16h 58' 32" Ping reçu,         1580
30/08/2026 16h 58' 28" Ping reçu, 1579
30/08/2026 16h 58' 27" cPing.
30/08/2026 16h 58' 21" Ping reçu, 1577
30/08/2026 16h 58' 15" Ping reçu, 1576
30/08/2026 16h 58' 12" Ping reçu,         1575
30/08/2026 16h 58' 08" Ping reçu, 1574
30/08/2026 16h 58' 03" Enregistrement de l'éclairement (345.6 lux & 0 lux )
30/08/2026 16h 58' 00" Ping reçu, 1572
30/08/2026 16h 57' 55" Ping reçu, 1571
30/08/2026 16h 57' 51" Ping reçu,         1570
30/08/2026 16h 57' 47" Ping reçu, 1569
30/08/2026 16h 57' 38" Ping reçu, 1567
30/08/2026 16h 57' 34" Ping reçu, 1566
30/08/2026 16h 57' 30" cPing.
30/08/2026 16h 57' 25" Ping reçu, 1564
30/08/2026 16h 57' 21" Ping reçu, 1563
30/08/2026 16h 57' 17" Ping reçu, 1562
30/08/2026 16h 57' 14" Ping reçu, 1561
30/08/2026 16h 57' 12" Enregistrement de la température (24,906 °C)
30/08/2026 16h 57' 11" Enregistrement de la Pression atmosphérique (1026,601 hPa)
30/08/2026 16h 57' 01" Ping reçu, 1558
30/08/2026 16h 56' 53" Ping reçu, 1557
30/08/2026 16h 56' 49" Ping reçu, 1556
30/08/2026 16h 56' 45" Ping reçu,         1555
30/08/2026 16h 56' 40" Ping reçu, 1554
30/08/2026 16h 56' 38" Ping reçu, 1553
30/08/2026 16h 56' 35" cPing.
30/08/2026 16h 56' 32" Ping reçu, 1552
30/08/2026 16h 56' 29" Ping reçu, 1551
30/08/2026 16h 56' 11" Ping reçu, 1547
30/08/2026 16h 56' 03" Ping reçu,         1545
30/08/2026 16h 55' 59" Ping reçu, 1544
30/08/2026 16h 55' 54" Ping reçu, 1543
30/08/2026 16h 55' 45" Ping reçu, 1541
30/08/2026 16h 55' 45" Enregistrement de l'éclairement (345.6 lux & 0 lux )
30/08/2026 16h 55' 42" Enregistrement de l'humidité (59,82 %)
30/08/2026 16h 55' 41" Ping reçu,         1540
30/08/2026 16h 55' 38" cPing.
30/08/2026 16h 55' 37" Ping reçu, 1539
30/08/2026 16h 55' 32" Ping reçu, 1538
30/08/2026 16h 55' 29" Ping reçu, 1537
30/08/2026 16h 55' 24" Ping reçu, 1536
30/08/2026 16h 55' 13" Ping reçu, 1533
30/08/2026 16h 55' 08" Ping reçu, 1532
30/08/2026 16h 55' 04" Ping reçu, 1531
30/08/2026 16h 55' 00" Ping reçu,         1530
30/08/2026 16h 54' 56" Ping reçu, 1529
30/08/2026 16h 54' 50" Enregistrement de l'Arduino : (27,5 °C)
30/08/2026 16h 54' 42" cPing.
30/08/2026 16h 54' 37" Ping reçu,         1525
30/08/2026 16h 54' 36" Enregistrement de l'éclairement (345.6 lux & 0 lux )
30/08/2026 16h 54' 29" Ping reçu, 1523
30/08/2026 16h 54' 24" Ping reçu, 1522
30/08/2026 16h 54' 15" Enregistrement des paramètres du vent (49.1° @ 0 m/s)
30/08/2026 16h 54' 06" Ping reçu, 1518
30/08/2026 16h 53' 54" Ping reçu,         1515
30/08/2026 16h 53' 47" cPing.
30/08/2026 16h 53' 32" Ping reçu,         1510
30/08/2026 16h 53' 20" Ping reçu, 1507
30/08/2026 16h 53' 12" Ping reçu,         1505
30/08/2026 16h 53' 07" Ping reçu, 1504
30/08/2026 16h 53' 03" Ping reçu, 1503
30/08/2026 16h 52' 59" Ping reçu, 1502
30/08/2026 16h 52' 54" Ping reçu, 1501
30/08/2026 16h 52' 54" Enregistrement de la température (24,992 °C)
30/08/2026 16h 52' 50" Ping reçu,         1500
30/08/2026 16h 52' 50" cPing.
30/08/2026 16h 52' 45" Ping reçu, 1499
30/08/2026 16h 52' 41" Ping reçu, 1498
30/08/2026 16h 52' 33" Ping reçu, 1496
30/08/2026 16h 52' 24" Ping reçu, 1494
30/08/2026 16h 52' 20" Enregistrement de l'éclairement (345.6 lux & 0 lux )
30/08/2026 16h 52' 17" Ping reçu, 1492
30/08/2026 16h 52' 13" Ping reçu, 1491
30/08/2026 16h 52' 09" Ping reçu,         1490
30/08/2026 16h 52' 05" Ping reçu, 1489
30/08/2026 16h 52' 00" Ping reçu, 1488
30/08/2026 16h 51' 55" cPing.
30/08/2026 16h 51' 52" Ping reçu, 1486
30/08/2026 16h 51' 48" Ping reçu,         1485
30/08/2026 16h 51' 39" Ping reçu, 1483
30/08/2026 16h 51' 32" Ping reçu, 1481
30/08/2026 16h 51' 28" Ping reçu,         1480
30/08/2026 16h 51' 24" Ping reçu, 1479
30/08/2026 16h 51' 19" Ping reçu, 1478
30/08/2026 16h 51' 16" Enregistrement de l'éclairement (345.6 lux & 0 lux )
30/08/2026 16h 51' 15" Ping reçu, 1477
30/08/2026 16h 51' 06" Rw SD-card.
30/08/2026 16h 51' 02" Ping reçu, 1474
30/08/2026 16h 50' 58" Ping reçu, 1473
30/08/2026 16h 50' 58" cPing.
30/08/2026 16h 50' 53" Ping reçu, 1472
30/08/2026 16h 50' 44" Ping reçu,         1470
30/08/2026 16h 50' 31" Ping reçu, 1467
30/08/2026 16h 50' 27" Ping reçu, 1466
30/08/2026 16h 50' 20" Ping reçu, 1464
30/08/2026 16h 50' 14" Ping reçu, 1463
30/08/2026 16h 50' 11" Ping reçu, 1462
30/08/2026 16h 50' 07" Ping reçu, 1461
30/08/2026 16h 50' 06" Enregistrement de l'éclairement (345.6 lux & 0 lux )
30/08/2026 16h 50' 03" Ping reçu,         1460
30/08/2026 16h 50' 03" cPing.
30/08/2026 16h 49' 59" Ping reçu, 1459
30/08/2026 16h 49' 54" Ping reçu, 1458
30/08/2026 16h 49' 50" Ping reçu, 1457
30/08/2026 16h 49' 42" ERR. Ther. 1 HS.
30/08/2026 16h 49' 36" Ping reçu, 1454
30/08/2026 16h 49' 33" Ping reçu, 1453
30/08/2026 16h 49' 23" Ping reçu, 1451
30/08/2026 16h 49' 19" Ping reçu,         1450
30/08/2026 16h 49' 15" Ping reçu, 1449
30/08/2026 16h 49' 06" cPing.
30/08/2026 16h 49' 04" Ping reçu, 1446
30/08/2026 16h 49' 00" Ping reçu,         1445
30/08/2026 16h 48' 57" Enregistrement de l'éclairement (345.6 lux & 0 lux )
30/08/2026 16h 48' 51" Ping reçu, 1443
30/08/2026 16h 48' 47" Ping reçu, 1442
30/08/2026 16h 48' 42" Ping reçu, 1441
30/08/2026 16h 48' 41" Enregistrement de la hauteur d'eau (782,970 mm @ 100,0%)
30/08/2026 16h 48' 41" Enregistrement de la température (25,027 °C)
30/08/2026 16h 48' 38" Enregistrement de la Pression atmosphérique (1026,691 hPa)
30/08/2026 16h 48' 38" Enregistrement des paramètres du vent (49.1° @ 0 m/s)
30/08/2026 16h 48' 33" Ping reçu, 1439
30/08/2026 16h 48' 29" Ping reçu, 1438
30/08/2026 16h 48' 24" Ping reçu, 1437
30/08/2026 16h 48' 20" Ping reçu, 1436
30/08/2026 16h 48' 11" Ping reçu, 1434
30/08/2026 16h 48' 11" cPing.
30/08/2026 16h 48' 07" Ping reçu, 1433
30/08/2026 16h 48' 00" Ping reçu, 1431
30/08/2026 16h 47' 52" Ping reçu, 1429
30/08/2026 16h 47' 52" Enregistrement de l'éclairement (345.6 lux & 0 lux )
30/08/2026 16h 47' 48" Ping reçu, 1428
30/08/2026 16h 47' 44" Ping reçu, 1427
30/08/2026 16h 47' 39" Ping reçu, 1426
30/08/2026 16h 47' 35" Ping reçu,         1425
30/08/2026 16h 47' 31" Ping reçu, 1424
30/08/2026 16h 47' 22" Ping reçu, 1422
30/08/2026 16h 47' 18" Ping reçu, 1421
30/08/2026 16h 47' 14" Ping reçu,         1420
30/08/2026 16h 47' 14" cPing.
30/08/2026 16h 47' 11" Ping reçu, 1419
30/08/2026 16h 47' 03" Ping reçu, 1417
30/08/2026 16h 46' 59" Ping reçu, 1416
30/08/2026 16h 46' 54" Ping reçu,         1415
30/08/2026 16h 46' 50" Ping reçu, 1414
30/08/2026 16h 46' 46" Ping reçu, 1413
30/08/2026 16h 46' 42" Ping reçu, 1412
30/08/2026 16h 46' 39" Ping reçu, 1411
30/08/2026 16h 46' 35" Ping reçu,         1410
30/08/2026 16h 46' 29" Ping reçu, 1409
30/08/2026 16h 46' 26" Ping reçu, 1408
30/08/2026 16h 46' 18" cPing.
30/08/2026 16h 46' 17" Ping reçu, 1406
30/08/2026 16h 46' 13" Ping reçu,         1405
30/08/2026 16h 46' 09" Ping reçu, 1404
30/08/2026 16h 46' 05" Ping reçu, 1403
30/08/2026 16h 46' 00" Ping reçu, 1402
30/08/2026 16h 45' 56" Ping reçu, 1401
30/08/2026 16h 45' 54" Enregistrement de l'humidité (59,95 %)
30/08/2026 16h 45' 52" Ping reçu,         1400
30/08/2026 16h 45' 50" ERR. Ther. 1 HS.
30/08/2026 16h 45' 47" Ping reçu, 1399
30/08/2026 16h 45' 43" Ping reçu, 1398
30/08/2026 16h 45' 39" Ping reçu, 1397
30/08/2026 16h 45' 36" Ping reçu, 1396
30/08/2026 16h 45' 23" cPing.
30/08/2026 16h 45' 19" Ping reçu, 1392
30/08/2026 16h 45' 11" Ping reçu,         1390
30/08/2026 16h 44' 53" Ping reçu, 1386
30/08/2026 16h 44' 45" Enregistrement Température du pluviometre : (25,5 °C)
30/08/2026 16h 44' 42" Ping reçu, 1384
30/08/2026 16h 44' 38" Ping reçu, 1383
30/08/2026 16h 44' 30" Ping reçu, 1381
30/08/2026 16h 44' 29" Enregistrement de la température (24,997 °C)
30/08/2026 16h 44' 27" Enregistrement de l'éclairement (345.6 lux & 0 lux )
30/08/2026 16h 44' 26" cPing.
30/08/2026 16h 44' 21" On a tout sauvé !
30/08/2026 16h 44' 21" Ping reçu, 1379
30/08/2026 16h 44' 17" Ping reçu, 1378
30/08/2026 16h 44' 12" Ping reçu, 1377
30/08/2026 16h 44' 08" Ping reçu, 1376
30/08/2026 16h 44' 03" Ping reçu,         1375
30/08/2026 16h 43' 58" Ping reçu, 1374
30/08/2026 16h 43' 54" Ping reçu, 1373
30/08/2026 16h 43' 41" Ping reçu,         1370
30/08/2026 16h 43' 36" Ping reçu, 1369
30/08/2026 16h 43' 30" cPing.
30/08/2026 16h 43' 28" Ping reçu, 1367
30/08/2026 16h 43' 24" Ping reçu, 1366
30/08/2026 16h 43' 21" Ping reçu,         1365
30/08/2026 16h 43' 18" Enregistrement de l'éclairement (345.6 lux & 0 lux )
30/08/2026 16h 43' 17" Ping reçu, 1364
30/08/2026 16h 43' 08" Ping reçu, 1362
30/08/2026 16h 43' 04" Ping reçu, 1361
30/08/2026 16h 43' 00" Enregistrement des paramètres du vent (49.1° @ 0 m/s)
30/08/2026 16h 43' 00" Ping reçu,         1360
30/08/2026 16h 42' 51" Ping reçu, 1358
30/08/2026 16h 42' 47" Ping reçu, 1357
30/08/2026 16h 42' 38" Ping reçu,         1355
30/08/2026 16h 42' 34" Ping reçu, 1354
30/08/2026 16h 42' 33" cPing.
30/08/2026 16h 42' 27" Ping reçu, 1352
30/08/2026 16h 42' 23" Ping reçu, 1351
30/08/2026 16h 42' 19" Ping reçu,         1350
30/08/2026 16h 42' 14" Enregistrement de l'éclairement (345.6 lux & 0 lux )
30/08/2026 16h 42' 06" Ping reçu, 1347
30/08/2026 16h 42' 02" Ping reçu, 1346
30/08/2026 16h 41' 57" Ping reçu,         1345
30/08/2026 16h 41' 53" Ping reçu, 1344
30/08/2026 16h 41' 49" ERR. Ther. 1 HS.
30/08/2026 16h 41' 48" Ping reçu, 1343
30/08/2026 16h 41' 44" Ping reçu, 1342
30/08/2026 16h 41' 39" Ping reçu, 1341
30/08/2026 16h 41' 38" cPing.
30/08/2026 16h 41' 35" Ping reçu,         1340
30/08/2026 16h 41' 31" Ping reçu, 1339
30/08/2026 16h 41' 27" Ping reçu, 1338
30/08/2026 16h 41' 17" Ping reçu, 1336
30/08/2026 16h 41' 12" Ping reçu,         1335
30/08/2026 16h 41' 08" Ping reçu, 1334
30/08/2026 16h 41' 04" Ping reçu, 1333
30/08/2026 16h 41' 00" Ping reçu, 1332
30/08/2026 16h 40' 44" Ping reçu, 1328
30/08/2026 16h 40' 41" cPing.
30/08/2026 16h 40' 26" Ping reçu, 1324
30/08/2026 16h 40' 22" Ping reçu, 1323
30/08/2026 16h 40' 12" Enregistrement de la température (25,178 °C)
30/08/2026 16h 40' 09" Ping reçu,         1320
30/08/2026 16h 40' 04" Ping reçu, 1319
30/08/2026 16h 40' 00" Ping reçu, 1318
30/08/2026 16h 39' 46" cPing.
30/08/2026 16h 39' 43" Ping reçu, 1314
30/08/2026 16h 39' 39" Ping reçu, 1313
30/08/2026 16h 39' 36" Ping reçu, 1312
30/08/2026 16h 39' 30" Ping reçu, 1311
30/08/2026 16h 39' 27" Ping reçu,         1310
30/08/2026 16h 39' 23" Ping reçu, 1309
30/08/2026 16h 39' 15" Ping reçu, 1307
30/08/2026 16h 39' 06" Ping reçu,         1305
30/08/2026 16h 39' 02" Ping reçu, 1304
30/08/2026 16h 38' 53" Ping reçu, 1302
30/08/2026 16h 38' 49" Enregistrement de l'éclairement (345.6 lux & 0 lux )
30/08/2026 16h 38' 49" cPing.
30/08/2026 16h 38' 45" Ping reçu,         1300
30/08/2026 16h 38' 36" Ping reçu, 1298
30/08/2026 16h 38' 32" Ping reçu, 1297
30/08/2026 16h 38' 29" Ping reçu, 1296
30/08/2026 16h 38' 12" Ping reçu, 1292
30/08/2026 16h 38' 08" Ping reçu, 1291
30/08/2026 16h 38' 03" Ping reçu,         1290
30/08/2026 16h 37' 55" Ping reçu, 1288
30/08/2026 16h 37' 54" cPing.
30/08/2026 16h 37' 50" Ping reçu, 1287
30/08/2026 16h 37' 47" Ping reçu, 1286
30/08/2026 16h 37' 42" Ping reçu,         1285
30/08/2026 16h 37' 41" Enregistrement de l'éclairement (345.6 lux & 0 lux )
30/08/2026 16h 37' 39" Ping reçu, 1284
30/08/2026 16h 37' 35" Ping reçu, 1283
30/08/2026 16h 37' 31" Ping reçu, 1282
30/08/2026 16h 37' 27" Ping reçu, 1281
30/08/2026 16h 37' 23" Enregistrement de la hauteur d'eau (783,080 mm @ 99,8%)
30/08/2026 16h 37' 23" Pressions pluviométriques (32,07 & 64,00)
30/08/2026 16h 37' 23" Ping reçu,         1280
30/08/2026 16h 37' 17" Ping reçu, 1279
30/08/2026 16h 37' 08" Ping reçu, 1277
30/08/2026 16h 37' 04" Ping reçu, 1276
30/08/2026 16h 37' 00" Ping reçu,         1275
30/08/2026 16h 36' 57" cPing.
30/08/2026 16h 36' 56" Ping reçu, 1274
30/08/2026 16h 36' 51" Ping reçu, 1273
30/08/2026 16h 36' 47" Ping reçu, 1272
30/08/2026 16h 36' 43" Ping reçu, 1271
30/08/2026 16h 36' 38" Ping reçu,         1270
30/08/2026 16h 36' 27" Ping reçu, 1267
30/08/2026 16h 36' 19" Ping reçu,         1265
30/08/2026 16h 36' 15" Ping reçu, 1264
30/08/2026 16h 36' 10" Ping reçu, 1263
30/08/2026 16h 36' 02" cPing.
30/08/2026 16h 36' 01" Enregistrement de la température (24,965 °C)
30/08/2026 16h 35' 58" Enregistrement de l'humidité (60,86 %)
30/08/2026 16h 35' 53" Ping reçu, 1259
30/08/2026 16h 35' 44" Ping reçu, 1257
30/08/2026 16h 35' 40" Ping reçu, 1256
30/08/2026 16h 35' 36" Ping reçu,         1255
30/08/2026 16h 35' 33" Ping reçu, 1254
30/08/2026 16h 35' 29" Enregistrement de l'éclairement (345.6 lux & 0 lux )
30/08/2026 16h 35' 25" Ping reçu, 1252
30/08/2026 16h 35' 21" Ping reçu, 1251
30/08/2026 16h 35' 17" Ping reçu,         1250
30/08/2026 16h 35' 08" Ping reçu, 1248
30/08/2026 16h 35' 06" cPing.
30/08/2026 16h 35' 03" Ping reçu, 1247
30/08/2026 16h 34' 59" Ping reçu, 1246
30/08/2026 16h 34' 47" Ping reçu, 1243
30/08/2026 16h 34' 44" Ping reçu, 1242
30/08/2026 16h 34' 40" Ping reçu, 1241
30/08/2026 16h 34' 36" Ping reçu,         1240
30/08/2026 16h 34' 27" Ping reçu, 1238
30/08/2026 16h 34' 23" Ping reçu, 1237
30/08/2026 16h 34' 14" Ping reçu,         1235
30/08/2026 16h 34' 10" Ping reçu, 1234
30/08/2026 16h 34' 09" cPing.
30/08/2026 16h 34' 06" Ping reçu, 1233
30/08/2026 16h 33' 59" ERR. Ther. 1 HS.
30/08/2026 16h 33' 57" Ping reçu, 1231
30/08/2026 16h 33' 46" Ping reçu, 1228
30/08/2026 16h 33' 42" Ping reçu, 1227
30/08/2026 16h 33' 29" Ping reçu, 1224
30/08/2026 16h 33' 20" Ping reçu, 1222
30/08/2026 16h 33' 17" Ping reçu, 1221
30/08/2026 16h 33' 16" Enregistrement de l'éclairement (345.6 lux & 0 lux )
30/08/2026 16h 33' 14" cPing.
30/08/2026 16h 33' 08" Ping reçu, 1219
30/08/2026 16h 33' 01" Ping reçu, 1217
30/08/2026 16h 32' 57" Ping reçu, 1216
30/08/2026 16h 32' 53" Ping reçu,         1215
30/08/2026 16h 32' 48" Ping reçu, 1214
30/08/2026 16h 32' 39" Ping reçu, 1212
30/08/2026 16h 32' 34" Enregistrement Température du pluviometre : (25,4 °C)
30/08/2026 16h 32' 20" Ping reçu, 1208
30/08/2026 16h 32' 17" cPing.
30/08/2026 16h 32' 16" Ping reçu, 1207
30/08/2026 16h 32' 12" Ping reçu, 1206
30/08/2026 16h 32' 08" Ping reçu,         1205
30/08/2026 16h 32' 07" Enregistrement de l'éclairement (345.6 lux & 0 lux )
30/08/2026 16h 32' 03" Ping reçu, 1204
30/08/2026 16h 31' 59" Ping reçu, 1203
30/08/2026 16h 31' 55" Ping reçu, 1202
30/08/2026 16h 31' 51" Ping reçu, 1201
30/08/2026 16h 31' 48" Ping reçu,         1200
30/08/2026 16h 31' 41" Ping reçu, 1199
30/08/2026 16h 31' 28" Ping reçu, 1196
30/08/2026 16h 31' 22" cPing.
30/08/2026 16h 31' 17" Ping reçu, 1193
30/08/2026 16h 31' 13" Ping reçu, 1192
30/08/2026 16h 31' 05" Ping reçu,         1190
30/08/2026 16h 31' 00" Enregistrement de l'éclairement (345.6 lux & 0 lux )
30/08/2026 16h 30' 56" Ping reçu, 1188
30/08/2026 16h 30' 47" Ping reçu, 1186
30/08/2026 16h 30' 39" Ping reçu, 1184
30/08/2026 16h 30' 34" Ping reçu, 1183
30/08/2026 16h 30' 30" Ping reçu, 1182
30/08/2026 16h 30' 25" cPing.
30/08/2026 16h 30' 23" Ping reçu,         1180
30/08/2026 16h 30' 19" Ping reçu, 1179
30/08/2026 16h 30' 15" Ping reçu, 1178
30/08/2026 16h 30' 11" Ping reçu, 1177
30/08/2026 16h 30' 03" ERR. Ther. 1 HS.
30/08/2026 16h 30' 02" Ping reçu,         1175
30/08/2026 16h 29' 58" Ping reçu, 1174
30/08/2026 16h 29' 49" Ping reçu, 1
30/08/2026 16h 29' 36" Ping reçu, 1169
30/08/2026 16h 29' 36" On a tout sauvé !
30/08/2026 16h 29' 31" Ping reçu, 1168
30/08/2026 16h 29' 30" cPing.
30/08/2026 16h 29' 26" Ping reçu, 1167
30/08/2026 16h 29' 22" Ping reçu, 1166
30/08/2026 16h 29' 18" Ping reçu,         1165
30/08/2026 16h 29' 14" Ping reçu, 1164
30/08/2026 16h 29' 09" Ping reçu, 1163
30/08/2026 16h 29' 05" Ping reçu, 1162
30/08/2026 16h 29' 02" Ping reçu, 1161
30/08/2026 16h 28' 54" Ping reçu, 1159
30/08/2026 16h 28' 49" Ping reçu, 1158
30/08/2026 16h 28' 45" Ping reçu, 1157
30/08/2026 16h 28' 45" Enregistrement de l'éclairement (345.6 lux & 0 lux )
30/08/2026 16h 28' 36" Ping reçu,         1155
30/08/2026 16h 28' 32" cPing.
30/08/2026 16h 28' 27" Ping reçu, 1153
30/08/2026 16h 28' 14" Ping reçu,         1150
30/08/2026 16h 28' 03" Ping reçu, 1147
30/08/2026 16h 27' 57" Enregistrement de l'Arduino : (27,5 °C)
30/08/2026 16h 27' 56" Ping reçu, 1146
30/08/2026 16h 27' 51" Ping reçu,         1145
30/08/2026 16h 27' 47" Ping reçu, 1144
30/08/2026 16h 27' 39" Ping reçu, 1142
30/08/2026 16h 27' 37" cPing.
30/08/2026 16h 27' 32" Ping reçu,         1140
30/08/2026 16h 27' 27" Ping reçu, 1139
30/08/2026 16h 27' 23" Ping reçu, 1138
30/08/2026 16h 27' 19" Ping reçu, 1137
30/08/2026 16h 27' 15" Ping reçu, 1136
30/08/2026 16h 27' 10" Ping reçu,         1135
30/08/2026 16h 27' 06" Ping reçu, 1134
30/08/2026 16h 27' 02" Ping reçu, 1133
30/08/2026 16h 26' 57" Ping reçu, 1132
30/08/2026 16h 26' 53" Ping reçu, 1131
30/08/2026 16h 26' 49" Ping reçu,         1130
30/08/2026 16h 26' 45" Ping reçu, 1129
30/08/2026 16h 26' 40" cPing.
30/08/2026 16h 26' 38" Ping reçu, 1127
30/08/2026 16h 26' 34" Ping reçu, 1126
30/08/2026 16h 26' 30" Enregistrement de l'éclairement (345.6 lux & 0 lux )
30/08/2026 16h 26' 30" Ping reçu,         1125
30/08/2026 16h 26' 26" Ping reçu, 1124
30/08/2026 16h 26' 21" Ping reçu, 1123
30/08/2026 16h 26' 17" Ping reçu, 1122
30/08/2026 16h 26' 13" Ping reçu, 1121
30/08/2026 16h 26' 12" Pressions pluviométriques (32,07 & 64,00)
30/08/2026 16h 26' 12" Enregistrement de la hauteur d'eau (782,880 mm @ 99,8%)
30/08/2026 16h 26' 11" Ping reçu,         1120
30/08/2026 16h 26' 09" Enregistrement de l'humidité (61,89 %)
30/08/2026 16h 26' 08" Enregistrement des paramètres du vent (49.1° @ 0 m/s)
30/08/2026 16h 26' 04" ERR. Ther. 1 HS.
30/08/2026 16h 25' 59" Ping reçu, 1118
30/08/2026 16h 25' 54" Ping reçu, 1117
30/08/2026 16h 25' 45" Ping reçu,         1115
30/08/2026 16h 25' 45" cPing.
30/08/2026 16h 25' 41" Ping reçu, 1114
30/08/2026 16h 25' 37" Ping reçu, 1113
30/08/2026 16h 25' 33" Ping reçu, 1112
30/08/2026 16h 25' 26" Ping reçu,         1110
30/08/2026 16h 25' 19" Enregistrement de l'éclairement (345.6 lux & 0 lux )
30/08/2026 16h 25' 18" Ping reçu, 1108
30/08/2026 16h 25' 14" Ping reçu, 1107
30/08/2026 16h 25' 05" Ping reçu,         1105
30/08/2026 16h 24' 56" Ping reçu, 1103
30/08/2026 16h 24' 52" Ping reçu, 1102
30/08/2026 16h 24' 48" Ping reçu, 1101
30/08/2026 16h 24' 48" cPing.
30/08/2026 16h 24' 45" Ping reçu,         1100
30/08/2026 16h 24' 37" Ping reçu, 1098
30/08/2026 16h 24' 28" Ping reçu, 1096
30/08/2026 16h 24' 24" Ping reçu,         1095
30/08/2026 16h 24' 19" Ping reçu, 1094
30/08/2026 16h 24' 15" Ping reçu, 1093
30/08/2026 16h 24' 11" Ping reçu, 1092
30/08/2026 16h 23' 57" Ping reçu, 1089
30/08/2026 16h 23' 53" Ping reçu, 1088
30/08/2026 16h 23' 53" cPing.
30/08/2026 16h 23' 44" Ping reçu, 1086
30/08/2026 16h 23' 35" Ping reçu, 1084
30/08/2026 16h 23' 32" Ping reçu, 1083
30/08/2026 16h 23' 29" Ping reçu, 1082
30/08/2026 16h 23' 25" Ping reçu, 1081
30/08/2026 16h 23' 22" Enregistrement de la température (24,344 °C)
30/08/2026 16h 23' 21" Ping reçu,         1080
30/08/2026 16h 23' 16" Ping reçu, 1079
30/08/2026 16h 23' 08" Ping reçu, 1077
30/08/2026 16h 23' 07" Enregistrement de l'éclairement (345.6 lux & 0 lux )
30/08/2026 16h 23' 03" Ping reçu, 1076
30/08/2026 16h 22' 59" Ping reçu,         1075
30/08/2026 16h 22' 56" cPing.
30/08/2026 16h 22' 54" Ping reçu, 1074
30/08/2026 16h 22' 46" Ping reçu, 1072
30/08/2026 16h 22' 39" Ping reçu,         1070
30/08/2026 16h 22' 29" Ping reçu, 1068
30/08/2026 16h 22' 26" Ping reçu, 1067
30/08/2026 16h 22' 22" Ping reçu, 1066
30/08/2026 16h 22' 18" Ping reçu,         1065
30/08/2026 16h 22' 14" Ping reçu, 1064
30/08/2026 16h 22' 10" ERR. Ther. 1 HS.
30/08/2026 16h 22' 09" Ping reçu, 1063
30/08/2026 16h 22' 00" cPing.
30/08/2026 16h 21' 52" Ping reçu, 1059
30/08/2026 16h 21' 48" Ping reçu, 1058
30/08/2026 16h 21' 44" Ping reçu, 1057
30/08/2026 16h 21' 32" Ping reçu, 1054
30/08/2026 16h 21' 28" Ping reçu, 1053
30/08/2026 16h 21' 24" Ping reçu, 1052
30/08/2026 16h 21' 11" Ping reçu, 1049
30/08/2026 16h 21' 06" Ping reçu, 1048
30/08/2026 16h 21' 05" cPing.
30/08/2026 16h 21' 02" Ping reçu, 1047
30/08/2026 16h 20' 53" Enregistrement de l'éclairement (345.6 lux & 0 lux )
30/08/2026 16h 20' 49" Ping reçu, 1044
30/08/2026 16h 20' 44" Ping reçu, 1043
30/08/2026 16h 20' 40" Ping reçu, 1042
30/08/2026 16h 20' 36" Ping reçu, 1041
30/08/2026 16h 20' 24" Enregistrement Température du pluviometre : (25,5 °C)
30/08/2026 16h 20' 21" Ping reçu, 1038
30/08/2026 16h 20' 17" Ping reçu, 1037
30/08/2026 16h 20' 12" Ping reçu, 1036
30/08/2026 16h 20' 08" Ping reçu,         1035
30/08/2026 16h 20' 08" cPing.
30/08/2026 16h 20' 04" Ping reçu, 1034
30/08/2026 16h 20' 00" Ping reçu, 1033
30/08/2026 16h 19' 56" Ping reçu, 1032
30/08/2026 16h 19' 53" Ping reçu, 1031
30/08/2026 16h 19' 49" Ping reçu,         1030
30/08/2026 16h 19' 45" Ping reçu, 1029
30/08/2026 16h 19' 44" Enregistrement de l'éclairement (345.6 lux & 0 lux )
30/08/2026 16h 19' 41" Ping reçu, 1028
30/08/2026 16h 19' 36" Ping reçu, 1027
30/08/2026 16h 19' 32" Ping reçu, 1026
30/08/2026 16h 19' 28" Ping reçu,         1025
30/08/2026 16h 19' 19" Ping reçu, 1023
30/08/2026 16h 19' 15" Ping reçu, 1022
30/08/2026 16h 19' 13" cPing.
30/08/2026 16h 19' 12" Ping reçu, 1021
30/08/2026 16h 19' 08" Ping reçu,         1020
30/08/2026 16h 19' 02" Ping reçu, 1019
30/08/2026 16h 18' 59" Ping reçu, 1018
30/08/2026 16h 18' 55" Ping reçu, 1017
30/08/2026 16h 18' 38" Ping reçu, 1013
30/08/2026 16h 18' 33" Ping reçu, 1012
30/08/2026 16h 18' 29" Ping reçu, 1011
30/08/2026 16h 18' 20" Ping reçu, 1009
30/08/2026 16h 18' 16" Ping reçu, 1008
30/08/2026 16h 18' 16" cPing.
30/08/2026 16h 18' 14" ERR. Ther. 1 HS.
30/08/2026 16h 18' 12" Ping reçu, 1007
30/08/2026 16h 17' 50" Ping reçu, 1002
30/08/2026 16h 17' 47" Ping reçu, 1001
30/08/2026 16h 17' 43" Ping reçu,         1000
30/08/2026 16h 17' 39" Ping reçu, 999
30/08/2026 16h 17' 35" Ping reçu, 998
30/08/2026 16h 17' 30" Ping reçu, 997
30/08/2026 16h 17' 29" Enregistrement de l'éclairement (345.6 lux & 0 lux )
30/08/2026 16h 17' 21" cPing.
30/08/2026 16h 17' 13" Ping reçu, 993
30/08/2026 16h 17' 04" Ping reçu, 991
30/08/2026 16h 17' 00" Ping reçu,         990
30/08/2026 16h 16' 56" Ping reçu, 989
30/08/2026 16h 16' 44" Ping reçu, 986
30/08/2026 16h 16' 40" Ping reçu,         985
30/08/2026 16h 16' 31" Ping reçu, 983
30/08/2026 16h 16' 27" Ping reçu, 982
30/08/2026 16h 16' 24" cPing.
30/08/2026 16h 16' 23" Ping reçu, 981
30/08/2026 16h 16' 21" Enregistrement de l'humidité (62,12 %)
30/08/2026 16h 16' 01" Ping reçu, 976
30/08/2026 16h 15' 52" Ping reçu, 974
30/08/2026 16h 15' 48" Ping reçu, 973
30/08/2026 16h 15' 44" Ping reçu, 972
30/08/2026 16h 15' 41" Ping reçu, 971
30/08/2026 16h 15' 37" Ping reçu,         970
30/08/2026 16h 15' 33" Ping reçu, 969
30/08/2026 16h 15' 29" Ping reçu, 968
30/08/2026 16h 15' 29" cPing.
30/08/2026 16h 15' 16" Ping reçu,         965
30/08/2026 16h 15' 12" Ping reçu, 964
30/08/2026 16h 15' 09" Ping reçu, 963
30/08/2026 16h 15' 03" Ping reçu, 962
30/08/2026 16h 15' 00" Ping reçu, 961
30/08/2026 16h 14' 54" Ping reçu,         960
30/08/2026 16h 14' 54" Enregistrement de la hauteur d'eau (782,970 mm @ 99,8%)
30/08/2026 16h 14' 42" Ping reçu, 958
30/08/2026 16h 14' 34" Ping reçu, 956
30/08/2026 16h 14' 32" cPing.
30/08/2026 16h 14' 26" Ping reçu,         955
30/08/2026 16h 14' 22" Ping reçu, 954
30/08/2026 16h 14' 11" ERR. Ther. 1 HS.
30/08/2026 16h 14' 09" Ping reçu, 951
30/08/2026 16h 14' 05" Ping reçu,         950
30/08/2026 16h 14' 02" Ping reçu, 949
30/08/2026 16h 13' 58" Ping reçu, 948
30/08/2026 16h 13' 54" Ping reçu, 947
30/08/2026 16h 13' 50" Ping reçu, 946
30/08/2026 16h 13' 45" Ping reçu,         945
30/08/2026 16h 13' 41" Ping reçu, 944
30/08/2026 16h 13' 36" cPing.
30/08/2026 16h 13' 27" Ping reçu, 941
30/08/2026 16h 13' 23" Ping reçu,         940
30/08/2026 16h 13' 15" Ping reçu, 938
30/08/2026 16h 13' 08" Ping reçu, 936
30/08/2026 16h 13' 04" Ping reçu,         935
30/08/2026 16h 12' 51" Enregistrement de l'éclairement (345.6 lux & 0 lux )
30/08/2026 16h 12' 51" Ping reçu, 932
30/08/2026 16h 12' 47" Ping reçu, 931
30/08/2026 16h 12' 39" cPing.
30/08/2026 16h 12' 20" Ping reçu,         925
30/08/2026 16h 12' 16" Ping reçu, 924
30/08/2026 16h 12' 12" Ping reçu, 923
30/08/2026 16h 12' 05" Ping reçu, 921
30/08/2026 16h 12' 01" Ping reçu,         920
30/08/2026 16h 11' 48" Enregistrement de l'éclairement (345.6 lux & 0 lux )
30/08/2026 16h 11' 48" Ping reçu, 917
30/08/2026 16h 11' 44" cPing.
30/08/2026 16h 11' 39" Ping reçu,         915
30/08/2026 16h 11' 35" Ping reçu, 914
30/08/2026 16h 11' 31" Ping reçu, 913
30/08/2026 16h 11' 26" Ping reçu, 912
30/08/2026 16h 11' 17" Ping reçu,         910
30/08/2026 16h 11' 09" Ping reçu, 908
30/08/2026 16h 11' 05" Ping reçu, 907
30/08/2026 16h 10' 53" Ping reçu, 904
30/08/2026 16h 10' 49" Ping reçu, 903
30/08/2026 16h 10' 47" cPing.
30/08/2026 16h 10' 40" Enregistrement de l'éclairement (345.6 lux & 0 lux )
30/08/2026 16h 10' 38" Enregistrement de la température (24,262 °C)
30/08/2026 16h 10' 36" Ping reçu,         900
30/08/2026 16h 10' 32" Ping reçu, 899
30/08/2026 16h 10' 23" Ping reçu, 897
30/08/2026 16h 10' 15" ERR. Ther. 1 HS.
30/08/2026 16h 10' 14" Ping reçu,         895
30/08/2026 16h 10' 06" Ping reçu, 893
30/08/2026 16h 09' 57" Ping reçu, 891
30/08/2026 16h 09' 54" Ping reçu,         890
30/08/2026 16h 09' 51" cPing.
30/08/2026 16h 09' 50" Ping reçu, 889
30/08/2026 16h 09' 46" Ping reçu, 888
30/08/2026 16h 09' 42" Ping reçu, 887
30/08/2026 16h 09' 33" Ping reçu,         885
30/08/2026 16h 09' 32" Enregistrement de l'éclairement (345.6 lux & 0 lux )
30/08/2026 16h 09' 20" Ping reçu, 882
30/08/2026 16h 09' 11" Ping reçu,         880
30/08/2026 16h 09' 06" Ping reçu, 879
30/08/2026 16h 09' 02" Ping reçu, 878
30/08/2026 16h 08' 58" Ping reçu, 877
30/08/2026 16h 08' 56" cPing.
30/08/2026 16h 08' 54" Ping reçu, 876
30/08/2026 16h 08' 52" Ping reçu,         875
30/08/2026 16h 08' 47" Ping reçu, 874
30/08/2026 16h 08' 43" Ping reçu, 873
30/08/2026 16h 08' 35" Ping reçu, 871
30/08/2026 16h 08' 30" Ping reçu,         870
30/08/2026 16h 08' 26" Ping reçu, 869
30/08/2026 16h 08' 22" Ping reçu, 868
30/08/2026 16h 08' 21" Enregistrement de l'éclairement (345.6 lux & 0 lux )
30/08/2026 16h 08' 14" Ping reçu, 866
30/08/2026 16h 08' 09" Enregistrement Température du pluviometre : (25,6 °C)
30/08/2026 16h 08' 08" Ping reçu,         865
30/08/2026 16h 07' 59" cPing.
30/08/2026 16h 07' 54" Ping reçu, 862
30/08/2026 16h 07' 50" Ping reçu, 861
30/08/2026 16h 07' 46" Ping reçu,         860
30/08/2026 16h 07' 39" Ping reçu, 858
30/08/2026 16h 07' 35" Ping reçu, 857
30/08/2026 16h 07' 31" Ping reçu, 856
30/08/2026 16h 07' 27" Ping reçu,         855
30/08/2026 16h 07' 18" Ping reçu, 853
30/08/2026 16h 07' 09" Ping reçu, 851
30/08/2026 16h 07' 05" Ping reçu,         850
30/08/2026 16h 07' 04" cPing.
30/08/2026 16h 07' 00" Ping reçu, 849
30/08/2026 16h 06' 56" Ping reçu, 848
30/08/2026 16h 06' 52" Ping reçu, 847
30/08/2026 16h 06' 48" Ping reçu, 846
30/08/2026 16h 06' 39" Ping reçu, 844
30/08/2026 16h 06' 32" Ping reçu, 842
30/08/2026 16h 06' 28" Ping reçu, 841
30/08/2026 16h 06' 24" Ping reçu,         840
30/08/2026 16h 06' 24" Enregistrement de la Pression atmosphérique (1026,903 hPa)
30/08/2026 16h 06' 24" Enregistrement de l'humidité (61,68 %)
30/08/2026 16h 06' 17" Ping reçu, 839
30/08/2026 16h 06' 14" Ping reçu, 838
30/08/2026 16h 06' 11" Enregistrement de l'éclairement (345.6 lux & 0 lux )
30/08/2026 16h 06' 11" Ping reçu, 837
30/08/2026 16h 06' 07" cPing.
30/08/2026 16h 06' 06" Ping reçu, 836
30/08/2026 16h 06' 02" Ping reçu,         835
30/08/2026 16h 05' 57" Ping reçu, 834
30/08/2026 16h 05' 49" Ping reçu, 832
30/08/2026 16h 05' 44" Ping reçu, 831
30/08/2026 16h 05' 42" Ping reçu,         830
30/08/2026 16h 05' 33" Ping reçu, 828
30/08/2026 16h 05' 29" Ping reçu, 827
30/08/2026 16h 05' 20" Ping reçu,         825
30/08/2026 16h 05' 12" cPing.
30/08/2026 16h 05' 11" Ping reçu, 823
30/08/2026 16h 04' 58" Ping reçu,         820
30/08/2026 16h 04' 45" Ping reçu, 817
30/08/2026 16h 04' 36" Ping reçu,         815
30/08/2026 16h 04' 32" Ping reçu, 814
30/08/2026 16h 04' 27" Ping reçu, 813
30/08/2026 16h 04' 23" Ping reçu, 812
30/08/2026 16h 04' 18" Ping reçu, 811
30/08/2026 16h 04' 15" cPing.
30/08/2026 16h 04' 14" Ping reçu,         810
30/08/2026 16h 04' 10" Ping reçu, 809
30/08/2026 16h 04' 06" Ping reçu, 808
30/08/2026 16h 04' 02" Ping reçu, 807
30/08/2026 16h 03' 55" Ping reçu,         805
30/08/2026 16h 03' 51" Ping reçu, 804
30/08/2026 16h 03' 47" Ping reçu, 803
30/08/2026 16h 03' 38" Ping reçu, 801
30/08/2026 16h 03' 35" Pressions pluviométriques (32,07 & 64,00)
30/08/2026 16h 03' 34" Ping reçu,         800
30/08/2026 16h 03' 34" Enregistrement de la hauteur d'eau (782,960 mm @ 99,9%)
30/08/2026 16h 03' 33" Enregistrement des paramètres du vent (49.1° @ 0 m/s)
30/08/2026 16h 03' 28" Ping reçu, 799
30/08/2026 16h 03' 20" cPing.
30/08/2026 16h 03' 15" Ping reçu, 796
30/08/2026 16h 03' 11" Ping reçu,         795
30/08/2026 16h 03' 03" Ping reçu, 793
30/08/2026 16h 02' 54" Ping reçu, 791
30/08/2026 16h 02' 50" Ping reçu,         790
30/08/2026 16h 02' 48" Ping reçu, 789
30/08/2026 16h 02' 47" Enregistrement de l'éclairement (345.6 lux & 0 lux )
30/08/2026 16h 02' 43" Ping reçu, 788
30/08/2026 16h 02' 30" Ping reçu,         785
30/08/2026 16h 02' 26" Ping reçu, 784
30/08/2026 16h 02' 23" cPing.
30/08/2026 16h 02' 22" ERR. Ther. 1 HS.
30/08/2026 16h 02' 17" Ping reçu, 782
30/08/2026 16h 02' 12" Enregistrement de la température (24,627 °C)
30/08/2026 16h 02' 04" Ping reçu, 779
30/08/2026 16h 02' 00" Ping reçu, 778
30/08/2026 16h 01' 56" Ping reçu, 777
30/08/2026 16h 01' 53" Ping reçu, 776
30/08/2026 16h 01' 44" Ping reçu, 774
30/08/2026 16h 01' 40" Ping reçu, 773
30/08/2026 16h 01' 40" Enregistrement de l'éclairement (345.6 lux & 0 lux )
30/08/2026 16h 01' 36" Ping reçu, 772
30/08/2026 16h 01' 27" cPing.
30/08/2026 16h 01' 27" Ping reçu,         770
30/08/2026 16h 01' 23" Ping reçu, 769
30/08/2026 16h 01' 18" Ping reçu, 768
30/08/2026 16h 01' 14" Ping reçu, 767
30/08/2026 16h 01' 05" Ping reçu,         765
30/08/2026 16h 01' 02" On purge les valeurs du crystal...
30/08/2026 16h 01' 00" Ping reçu, 764
30/08/2026 16h 00' 51" Ping reçu, 762
30/08/2026 16h 00' 44" Ping reçu, 1
30/08/2026 16h 00' 38" Ping reçu, 759
30/08/2026 16h 00' 33" Enregistrement de l'éclairement (345.6 lux & 0 lux )
30/08/2026 16h 00' 33" Ping reçu, 758
30/08/2026 16h 00' 32" cPing.
30/08/2026 16h 00' 30" Ping reçu, 757
30/08/2026 16h 00' 30" On purge les valeurs du crystal...
30/08/2026 16h 00' 25" Ping reçu, 756
30/08/2026 16h 00' 23" On a tout sauvé !
30/08/2026 16h 00' 21" Ping reçu,         755
30/08/2026 16h 00' 20" On purge les valeurs du crystal...
30/08/2026 16h 00' 16" Ping reçu, 754
30/08/2026 16h 00' 12" Ping reçu, 753
30/08/2026 16h 00' 09" Ping reçu, 752
30/08/2026 16h 00' 05" Ping reçu, 751
30/08/2026 15h 59' 48" Ping reçu, 747
30/08/2026 15h 59' 44" Ping reçu, 746
30/08/2026 15h 59' 39" Ping reçu,         745
30/08/2026 15h 59' 35" cPing.
30/08/2026 15h 59' 30" Ping reçu, 743
30/08/2026 15h 59' 26" Ping reçu, 742
30/08/2026 15h 59' 22" Ping reçu, 741
30/08/2026 15h 59' 21" Enregistrement de l'éclairement (345.6 lux & 0 lux )
30/08/2026 15h 59' 18" Ping reçu,         740
30/08/2026 15h 59' 15" Ping reçu, 739
30/08/2026 15h 59' 11" Ping reçu, 738
30/08/2026 15h 58' 53" Ping reçu, 734
30/08/2026 15h 58' 45" Ping reçu, 732
30/08/2026 15h 58' 41" Ping reçu, 731
30/08/2026 15h 58' 38" cPing.
30/08/2026 15h 58' 32" Ping reçu, 729
30/08/2026 15h 58' 27" Ping reçu, 728
30/08/2026 15h 58' 24" ERR. Ther. 1 HS.
30/08/2026 15h 58' 23" Ping reçu, 727
30/08/2026 15h 58' 19" Ping reçu, 726
30/08/2026 15h 58' 15" Ping reçu,         725
30/08/2026 15h 58' 15" Enregistrement de l'éclairement (345.6 lux & 0 lux )
30/08/2026 15h 58' 06" Ping reçu, 723
30/08/2026 15h 58' 02" Ping reçu, 722
30/08/2026 15h 57' 59" Enregistrement de la température (24,826 °C)
30/08/2026 15h 57' 56" Ping reçu,         720
30/08/2026 15h 57' 55" Enregistrement de la Pression atmosphérique (1026,931 hPa)
30/08/2026 15h 57' 48" Ping reçu, 719
30/08/2026 15h 57' 45" Ping reçu, 718
30/08/2026 15h 57' 42" cPing.
30/08/2026 15h 57' 41" Ping reçu, 717
30/08/2026 15h 57' 37" Ping reçu, 716
30/08/2026 15h 57' 33" Ping reçu,         715
30/08/2026 15h 57' 24" Ping reçu, 713
30/08/2026 15h 57' 15" Ping reçu, 711
30/08/2026 15h 57' 11" Ping reçu,         710
30/08/2026 15h 57' 07" Ping reçu, 709
30/08/2026 15h 57' 03" Ping reçu, 708
30/08/2026 15h 56' 56" Ping reçu, 706
30/08/2026 15h 56' 47" Ping reçu, 704
30/08/2026 15h 56' 47" cPing.
30/08/2026 15h 56' 43" Ping reçu, 703
30/08/2026 15h 56' 39" Ping reçu, 702
30/08/2026 15h 56' 30" Ping reçu,         700
30/08/2026 15h 56' 26" Ping reçu, 699
30/08/2026 15h 56' 21" Ping reçu, 698
30/08/2026 15h 56' 12" Ping reçu, 696
30/08/2026 15h 56' 08" Ping reçu,         695
30/08/2026 15h 55' 59" Ping reçu, 693
30/08/2026 15h 55' 55" Enregistrement de l'éclairement (332.7 lux & 0 lux )
30/08/2026 15h 55' 55" Enregistrement Température du pluviometre : (25,8 °C)
30/08/2026 15h 55' 53" Ping reçu, 692
30/08/2026 15h 55' 50" cPing.
30/08/2026 15h 55' 49" Ping reçu, 691
30/08/2026 15h 55' 45" Ping reçu,         690
30/08/2026 15h 55' 36" Ping reçu, 688
30/08/2026 15h 55' 27" Ping reçu, 686
30/08/2026 15h 55' 14" Ping reçu, 683
30/08/2026 15h 55' 05" Ping reçu, 681
30/08/2026 15h 54' 55" cPing.
30/08/2026 15h 54' 48" Enregistrement de l'éclairement (319.7 lux & 0 lux )
30/08/2026 15h 54' 48" Ping reçu, 677
30/08/2026 15h 54' 44" Ping reçu, 676
30/08/2026 15h 54' 37" Ping reçu, 674
30/08/2026 15h 54' 33" Ping reçu, 673
30/08/2026 15h 54' 29" Ping reçu, 672
30/08/2026 15h 54' 25" ERR. Ther. 1 HS.
30/08/2026 15h 54' 24" Ping reçu, 671
30/08/2026 15h 54' 20" Ping reçu,         670
30/08/2026 15h 54' 11" Ping reçu, 668
30/08/2026 15h 54' 03" Ping reçu, 666
30/08/2026 15h 53' 58" cPing.
30/08/2026 15h 53' 54" Ping reçu, 664
30/08/2026 15h 53' 47" Ping reçu, 662
30/08/2026 15h 53' 40" Enregistrement de l'éclairement (341.3 lux & 0 lux )
30/08/2026 15h 53' 38" Ping reçu,         660
30/08/2026 15h 53' 33" Ping reçu, 659
30/08/2026 15h 53' 29" Ping reçu, 658
30/08/2026 15h 53' 21" Ping reçu, 656
30/08/2026 15h 53' 12" Ping reçu, 654
30/08/2026 15h 53' 08" Ping reçu, 653
30/08/2026 15h 53' 03" cPing.
30/08/2026 15h 53' 00" Ping reçu, 651
30/08/2026 15h 52' 48" Ping reçu, 648
30/08/2026 15h 52' 36" Ping reçu,         645
30/08/2026 15h 52' 32" Enregistrement de l'éclairement (328.4 lux & 0 lux )
30/08/2026 15h 52' 27" Ping reçu, 643
30/08/2026 15h 52' 23" Ping reçu, 642
30/08/2026 15h 52' 14" Enregistrement de la hauteur d'eau (783,110 mm @ 99,8%)
30/08/2026 15h 52' 09" Ping reçu, 639
30/08/2026 15h 52' 06" cPing.
30/08/2026 15h 52' 04" Ping reçu, 638
30/08/2026 15h 52' 00" Ping reçu, 637
30/08/2026 15h 51' 51" Ping reçu,         635
30/08/2026 15h 51' 47" Ping reçu, 634
30/08/2026 15h 51' 42" Ping reçu, 633
30/08/2026 15h 51' 34" Ping reçu, 631
30/08/2026 15h 51' 30" Ping reçu,         630
30/08/2026 15h 51' 27" Ping reçu, 629
30/08/2026 15h 51' 23" Ping reçu, 628
30/08/2026 15h 51' 19" Ping reçu, 627
30/08/2026 15h 51' 14" Ping reçu, 626
30/08/2026 15h 51' 11" cPing.
30/08/2026 15h 51' 06" Ping reçu, 624
30/08/2026 15h 50' 53" Ping reçu, 621
30/08/2026 15h 50' 48" Ping reçu,         620
30/08/2026 15h 50' 44" Ping reçu, 619
30/08/2026 15h 50' 36" Ping reçu, 617
30/08/2026 15h 50' 30" ERR. Ther. 1 HS.
30/08/2026 15h 50' 27" Ping reçu,         615
30/08/2026 15h 50' 23" Ping reçu, 614
30/08/2026 15h 50' 21" Ping reçu, 613
30/08/2026 15h 50' 16" Ping reçu, 612
30/08/2026 15h 50' 14" cPing.
30/08/2026 15h 50' 12" Ping reçu, 611
30/08/2026 15h 50' 08" Ping reçu,         610
30/08/2026 15h 49' 59" Ping reçu, 608
30/08/2026 15h 49' 54" Ping reçu, 607
30/08/2026 15h 49' 50" Ping reçu, 606
30/08/2026 15h 49' 46" Ping reçu,         605
30/08/2026 15h 49' 39" Ping reçu, 603
30/08/2026 15h 49' 35" Ping reçu, 602
30/08/2026 15h 49' 31" Ping reçu, 601
30/08/2026 15h 49' 29" Enregistrement de la température (25,145 °C)
30/08/2026 15h 49' 27" Ping reçu,         600
30/08/2026 15h 49' 22" Ping reçu, 599
30/08/2026 15h 49' 18" cPing.
30/08/2026 15h 49' 18" Ping reçu, 598
30/08/2026 15h 49' 14" Enregistrement de l'éclairement (319.7 lux & 0 lux )
30/08/2026 15h 49' 14" Ping reçu, 597
30/08/2026 15h 49' 09" Ping reçu, 596
30/08/2026 15h 49' 05" Ping reçu,         595
30/08/2026 15h 49' 01" Ping reçu, 594
30/08/2026 15h 48' 57" Ping reçu, 593
30/08/2026 15h 48' 53" Ping reçu, 592
30/08/2026 15h 48' 48" Ping reçu, 591
30/08/2026 15h 48' 44" Ping reçu,         590
30/08/2026 15h 48' 41" Ping reçu, 589
30/08/2026 15h 48' 24" Ping reçu,         585
30/08/2026 15h 48' 23" cPing.
30/08/2026 15h 48' 07" Enregistrement de l'éclairement (306.8 lux & 0 lux )
30/08/2026 15h 48' 07" Ping reçu, 581
30/08/2026 15h 48' 03" Ping reçu,         580
30/08/2026 15h 48' 00" Ping reçu, 579
30/08/2026 15h 47' 56" Ping reçu, 578
30/08/2026 15h 47' 48" Ping reçu, 576
30/08/2026 15h 47' 43" Ping reçu,         575
30/08/2026 15h 47' 31" Ping reçu, 573
30/08/2026 15h 47' 27" Ping reçu, 572
30/08/2026 15h 47' 26" cPing.
30/08/2026 15h 47' 20" Ping reçu,         570
30/08/2026 15h 47' 12" Ping reçu, 568
30/08/2026 15h 47' 08" Ping reçu, 567
30/08/2026 15h 46' 59" Enregistrement de l'éclairement (324 lux & 0 lux )
30/08/2026 15h 46' 59" Ping reçu,         565
30/08/2026 15h 46' 54" Ping reçu, 564
30/08/2026 15h 46' 50" Ping reçu, 563
30/08/2026 15h 46' 46" Ping reçu, 562
30/08/2026 15h 46' 42" Ping reçu, 561
30/08/2026 15h 46' 38" Enregistrement des paramètres du vent (49.1° @ 0 m/s)
30/08/2026 15h 46' 38" Ping reçu,         560
30/08/2026 15h 46' 35" ERR. Ther. 1 HS.
30/08/2026 15h 46' 33" Ping reçu, 559
30/08/2026 15h 46' 31" cPing.
30/08/2026 15h 46' 24" Ping reçu, 557
30/08/2026 15h 46' 17" Ping reçu,         555
30/08/2026 15h 46' 13" Ping reçu, 1
30/08/2026 15h 46' 13" Ping reçu, 554
30/08/2026 15h 46' 09" Ping reçu, 553
30/08/2026 15h 46' 05" Ping reçu, 552
30/08/2026 15h 45' 56" Ping reçu,         550
30/08/2026 15h 45' 51" On a tout sauvé !
30/08/2026 15h 45' 51" Enregistrement de l'éclairement (280.8 lux & 0 lux )
30/08/2026 15h 45' 47" Ping reçu, 548
30/08/2026 15h 45' 42" Ping reçu, 547
30/08/2026 15h 45' 38" Ping reçu, 546
30/08/2026 15h 45' 34" cPing.
30/08/2026 15h 45' 30" Ping reçu, 544
30/08/2026 15h 45' 15" Enregistrement de la température (25,135 °C)
30/08/2026 15h 44' 56" Ping reçu, 536
30/08/2026 15h 44' 52" Ping reçu,         535
30/08/2026 15h 44' 48" Ping reçu, 534
30/08/2026 15h 44' 44" Ping reçu, 533
30/08/2026 15h 44' 43" Enregistrement de l'éclairement (293.8 lux & 0 lux )
30/08/2026 15h 44' 39" Ping reçu, 532
30/08/2026 15h 44' 39" cPing.
30/08/2026 15h 44' 17" Ping reçu, 527
30/08/2026 15h 44' 13" Ping reçu, 526
30/08/2026 15h 44' 09" Ping reçu,         525
30/08/2026 15h 44' 06" Ping reçu, 524
30/08/2026 15h 44' 02" Ping reçu, 523
30/08/2026 15h 43' 54" Ping reçu, 521
30/08/2026 15h 43' 41" Ping reçu, 519
30/08/2026 15h 43' 41" cPing.
30/08/2026 15h 43' 37" Enregistrement de l'éclairement (259.2 lux & 0 lux )
30/08/2026 15h 43' 37" Ping reçu, 518
30/08/2026 15h 43' 33" Ping reçu, 517
30/08/2026 15h 43' 26" Ping reçu,         515
30/08/2026 15h 43' 22" Ping reçu, 514
30/08/2026 15h 43' 18" Ping reçu, 513
30/08/2026 15h 43' 14" Ping reçu, 512
30/08/2026 15h 43' 09" Ping reçu, 511
30/08/2026 15h 43' 05" Ping reçu,         510
30/08/2026 15h 42' 56" Ping reçu, 508
30/08/2026 15h 42' 51" Ping reçu, 507
30/08/2026 15h 42' 47" Ping reçu, 506
30/08/2026 15h 42' 46" cPing.
30/08/2026 15h 42' 42" Ping reçu,         505
30/08/2026 15h 42' 24" Enregistrement de l'éclairement (285.1 lux & 0 lux )
30/08/2026 15h 42' 18" Ping reçu, 499
30/08/2026 15h 42' 12" Ping reçu, 498
30/08/2026 15h 42' 05" Ping reçu, 496
30/08/2026 15h 42' 01" Ping reçu,         495
30/08/2026 15h 41' 53" Ping reçu, 493
30/08/2026 15h 41' 49" cPing.
30/08/2026 15h 41' 48" Ping reçu, 492
30/08/2026 15h 41' 39" Ping reçu,         490
30/08/2026 15h 41' 35" Ping reçu, 489
30/08/2026 15h 41' 20" Ping reçu,         485
30/08/2026 15h 41' 17" Enregistrement de l'éclairement (289.5 lux & 0 lux )
30/08/2026 15h 41' 16" Ping reçu, 484
30/08/2026 15h 41' 12" Ping reçu, 483
30/08/2026 15h 41' 08" Ping reçu, 482
30/08/2026 15h 40' 59" Pressions pluviométriques (32,07 & 64,00)
30/08/2026 15h 40' 59" Enregistrement de la Pression atmosphérique (1027,061 hPa)
30/08/2026 15h 40' 59" Ping reçu,         480
30/08/2026 15h 40' 58" Enregistrement des paramètres du vent (49.1° @ 0 m/s)
30/08/2026 15h 40' 54" cPing.
30/08/2026 15h 40' 53" Ping reçu, 479
30/08/2026 15h 40' 49" Ping reçu, 478
30/08/2026 15h 40' 44" Ping reçu, 477
30/08/2026 15h 40' 41" Ping reçu, 476
30/08/2026 15h 40' 36" Ping reçu,         475
30/08/2026 15h 40' 27" Ping reçu, 473
30/08/2026 15h 40' 13" Enregistrement de l'éclairement (315.4 lux & 0 lux )
30/08/2026 15h 40' 06" Ping reçu, 468
30/08/2026 15h 39' 59" Ping reçu, 466
30/08/2026 15h 39' 57" cPing.
30/08/2026 15h 39' 55" Ping reçu,         465
30/08/2026 15h 39' 51" Ping reçu, 464
30/08/2026 15h 39' 46" Ping reçu, 463
30/08/2026 15h 39' 38" Ping reçu, 461
30/08/2026 15h 39' 33" Ping reçu,         460
30/08/2026 15h 39' 25" Ping reçu, 458
30/08/2026 15h 39' 12" Ping reçu,         455
30/08/2026 15h 39' 08" Ping reçu, 454
30/08/2026 15h 39' 06" Enregistrement de l'éclairement (345.6 lux & 0 lux )
30/08/2026 15h 39' 05" Ping reçu, 453
30/08/2026 15h 39' 02" cPing.
30/08/2026 15h 38' 48" Ping reçu, 449
30/08/2026 15h 38' 44" Ping reçu, 448
30/08/2026 15h 38' 40" ERR. Ther. 1 HS.
30/08/2026 15h 38' 35" Ping reçu, 446
30/08/2026 15h 38' 30" Ping reçu,         445
30/08/2026 15h 38' 22" Ping reçu, 443
30/08/2026 15h 38' 06" Ping reçu, 439
30/08/2026 15h 38' 06" cPing.
30/08/2026 15h 38' 02" Ping reçu, 438
30/08/2026 15h 37' 58" Enregistrement de l'éclairement (345.6 lux & 0 lux )
30/08/2026 15h 37' 58" Ping reçu, 437
30/08/2026 15h 37' 54" Ping reçu, 436
30/08/2026 15h 37' 45" Ping reçu, 434
30/08/2026 15h 37' 37" Ping reçu, 432
30/08/2026 15h 37' 29" Ping reçu,         430
30/08/2026 15h 37' 26" Ping reçu, 429
30/08/2026 15h 37' 21" Ping reçu, 428
30/08/2026 15h 37' 13" Ping reçu, 426
30/08/2026 15h 37' 09" cPing.
30/08/2026 15h 37' 09" Ping reçu,         425
30/08/2026 15h 37' 05" Ping reçu, 424
30/08/2026 15h 36' 51" Ping reçu, 421
30/08/2026 15h 36' 51" Enregistrement de la température (24,833 °C)
30/08/2026 15h 36' 50" Enregistrement de l'éclairement (341.3 lux & 0 lux )
30/08/2026 15h 36' 47" Enregistrement de l'humidité (61,78 %)
30/08/2026 15h 36' 42" Ping reçu, 419
30/08/2026 15h 36' 38" Ping reçu, 418
30/08/2026 15h 36' 20" Ping reçu, 414
30/08/2026 15h 36' 16" Ping reçu, 413
30/08/2026 15h 36' 14" cPing.
30/08/2026 15h 36' 12" Ping reçu, 412
30/08/2026 15h 36' 08" Ping reçu, 411
30/08/2026 15h 36' 01" Ping reçu, 409
30/08/2026 15h 35' 53" Ping reçu, 407
30/08/2026 15h 35' 48" Ping reçu, 406
30/08/2026 15h 35' 44" Ping reçu,         405
30/08/2026 15h 35' 43" Enregistrement de l'éclairement (341.3 lux & 0 lux )
30/08/2026 15h 35' 39" Ping reçu, 404
30/08/2026 15h 35' 35" Ping reçu, 403
30/08/2026 15h 35' 31" Ping reçu, 402
30/08/2026 15h 35' 23" Enregistrement des paramètres du vent (49.1° @ 0 m/s)
30/08/2026 15h 35' 23" Ping reçu,         400
30/08/2026 15h 35' 18" Ping reçu, 399
30/08/2026 15h 35' 17" cPing.
30/08/2026 15h 35' 14" Ping reçu, 398
30/08/2026 15h 35' 11" Ping reçu, 397
30/08/2026 15h 35' 07" Ping reçu, 396
30/08/2026 15h 34' 59" Ping reçu, 394
30/08/2026 15h 34' 54" Ping reçu, 393
30/08/2026 15h 34' 50" Ping reçu, 392
30/08/2026 15h 34' 46" Ping reçu, 391
30/08/2026 15h 34' 42" Ping reçu,         390
30/08/2026 15h 34' 37" Ping reçu, 389
30/08/2026 15h 34' 35" Ping reçu, 388
30/08/2026 15h 34' 22" cPing.
30/08/2026 15h 34' 18" Ping reçu, 384
30/08/2026 15h 34' 13" Ping reçu, 383
30/08/2026 15h 34' 08" Enregistrement de l'Arduino : (27,8 °C)
30/08/2026 15h 34' 06" Ping reçu, 382
30/08/2026 15h 33' 59" Ping reçu,         380
30/08/2026 15h 33' 53" Ping reçu, 379
30/08/2026 15h 33' 50" Ping reçu, 378
30/08/2026 15h 33' 46" Ping reçu, 377
30/08/2026 15h 33' 42" Ping reçu, 376
30/08/2026 15h 33' 38" Ping reçu,         375
30/08/2026 15h 33' 33" Ping reçu, 374
30/08/2026 15h 33' 30" Enregistrement de l'éclairement (337 lux & 0 lux )
30/08/2026 15h 33' 29" Ping reçu, 373
30/08/2026 15h 33' 25" Ping reçu, 372
30/08/2026 15h 33' 25" cPing.
30/08/2026 15h 33' 17" Ping reçu,         370
30/08/2026 15h 33' 14" Ping reçu, 369
30/08/2026 15h 33' 10" Ping reçu, 368
30/08/2026 15h 33' 05" Ping reçu, 367
30/08/2026 15h 33' 01" Ping reçu, 366
30/08/2026 15h 32' 57" Ping reçu,         365
30/08/2026 15h 32' 48" Ping reçu, 363
30/08/2026 15h 32' 39" Ping reçu, 361
30/08/2026 15h 32' 39" Enregistrement de la température (24,818 °C)
30/08/2026 15h 32' 30" Ping reçu, 359
30/08/2026 15h 32' 30" cPing.
30/08/2026 15h 32' 26" Ping reçu, 358
30/08/2026 15h 32' 22" Enregistrement de l'éclairement (332.7 lux & 0 lux )
30/08/2026 15h 32' 22" Ping reçu, 357
30/08/2026 15h 32' 18" Ping reçu, 356
30/08/2026 15h 32' 14" Ping reçu,         355
30/08/2026 15h 32' 03" Ping reçu, 352
30/08/2026 15h 31' 58" Ping reçu, 351
30/08/2026 15h 31' 54" Ping reçu,         350
30/08/2026 15h 31' 50" Ping reçu, 349
30/08/2026 15h 31' 41" Ping reçu, 347
30/08/2026 15h 31' 37" Enregistrement Température du pluviometre : (26,0 °C)
30/08/2026 15h 31' 33" Ping reçu, 346
30/08/2026 15h 31' 33" cPing.
30/08/2026 15h 31' 24" Ping reçu, 344
30/08/2026 15h 31' 22" On a tout sauvé !
30/08/2026 15h 31' 21" Ping reçu, 343
30/08/2026 15h 31' 11" Enregistrement de l'éclairement (328.4 lux & 0 lux )
30/08/2026 15h 31' 11" Ping reçu, 341
30/08/2026 15h 31' 08" Ping reçu,         340
30/08/2026 15h 31' 00" Ping reçu, 338
30/08/2026 15h 30' 56" Ping reçu, 337
30/08/2026 15h 30' 51" Ping reçu, 336
30/08/2026 15h 30' 48" ERR. Ther. 1 HS.
30/08/2026 15h 30' 47" Ping reçu,         335
30/08/2026 15h 30' 43" Ping reçu, 334
30/08/2026 15h 30' 39" Ping reçu, 333
30/08/2026 15h 30' 38" cPing.
30/08/2026 15h 30' 35" Ping reçu, 332
30/08/2026 15h 30' 28" Ping reçu,         330
30/08/2026 15h 30' 24" Ping reçu, 329
30/08/2026 15h 30' 20" Ping reçu, 328
30/08/2026 15h 30' 15" Ping reçu, 327
30/08/2026 15h 29' 53" Ping reçu, 322
30/08/2026 15h 29' 49" Ping reçu, 321
30/08/2026 15h 29' 47" Pressions pluviométriques (32,07 & 64,00)
30/08/2026 15h 29' 47" Enregistrement de la hauteur d'eau (783,050 mm @ 99,8%)
30/08/2026 15h 29' 45" Ping reçu,         320
30/08/2026 15h 29' 44" Enregistrement des paramètres du vent (49.1° @ 0 m/s)
30/08/2026 15h 29' 42" cPing.
30/08/2026 15h 29' 35" Ping reçu, 318
30/08/2026 15h 29' 31" Ping reçu, 317
30/08/2026 15h 29' 27" Ping reçu, 316
30/08/2026 15h 29' 24" Ping reçu,         315
30/08/2026 15h 29' 20" Ping reçu, 314
30/08/2026 15h 29' 12" Ping reçu, 312
30/08/2026 15h 29' 03" Ping reçu,         310
30/08/2026 15h 29' 00" Enregistrement de l'éclairement (306.8 lux & 0 lux )
30/08/2026 15h 28' 59" Ping reçu, 309
30/08/2026 15h 28' 54" Ping reçu, 308
30/08/2026 15h 28' 46" Ping reçu, 306
30/08/2026 15h 28' 45" cPing.
30/08/2026 15h 28' 42" Ping reçu,         305
30/08/2026 15h 28' 38" Ping reçu, 304
30/08/2026 15h 28' 33" Ping reçu, 303
30/08/2026 15h 28' 29" Ping reçu, 302
30/08/2026 15h 28' 26" Ping reçu, 301
30/08/2026 15h 28' 24" Enregistrement de la température (25,028 °C)
30/08/2026 15h 28' 22" Ping reçu,         300
30/08/2026 15h 28' 18" Ping reçu, 299
30/08/2026 15h 28' 14" Ping reçu, 298
30/08/2026 15h 28' 09" Ping reçu, 297
30/08/2026 15h 28' 00" Ping reçu,         295
30/08/2026 15h 27' 56" Ping reçu, 294
30/08/2026 15h 27' 52" Enregistrement de l'éclairement (289.5 lux & 0 lux )
30/08/2026 15h 27' 48" cPing.
30/08/2026 15h 27' 43" Ping reçu, 291
30/08/2026 15h 27' 39" Ping reçu,         290
30/08/2026 15h 27' 32" Ping reçu, 288
30/08/2026 15h 27' 28" Ping reçu, 287
30/08/2026 15h 27' 24" Ping reçu, 286
30/08/2026 15h 27' 20" Ping reçu,         285
30/08/2026 15h 27' 15" Ping reçu, 284
30/08/2026 15h 27' 07" Ping reçu, 282
30/08/2026 15h 26' 59" Enregistrement de l'humidité (59,97 %)
30/08/2026 15h 26' 53" cPing.
30/08/2026 15h 26' 45" Ping reçu, 277
30/08/2026 15h 26' 44" Enregistrement de l'éclairement (168.5 lux & 0 lux )
30/08/2026 15h 26' 36" Ping reçu,         275
30/08/2026 15h 26' 25" Ping reçu, 272
30/08/2026 15h 26' 21" Ping reçu, 271
30/08/2026 15h 26' 03" Ping reçu, 267
30/08/2026 15h 25' 59" Ping reçu, 266
30/08/2026 15h 25' 56" cPing.
30/08/2026 15h 25' 55" Ping reçu,         265
30/08/2026 15h 25' 51" Ping reçu, 264
30/08/2026 15h 25' 48" Ping reçu, 263
30/08/2026 15h 25' 42" Ping reçu, 262
30/08/2026 15h 25' 39" Ping reçu, 261
30/08/2026 15h 25' 35" Ping reçu,         260
30/08/2026 15h 25' 31" Ping reçu, 259
30/08/2026 15h 25' 23" Ping reçu, 257
30/08/2026 15h 25' 18" Ping reçu, 256
30/08/2026 15h 25' 09" Ping reçu, 254
30/08/2026 15h 25' 00" Ping reçu, 252
30/08/2026 15h 25' 00" cPing.
30/08/2026 15h 24' 52" Ping reçu,         250
30/08/2026 15h 24' 43" Ping reçu, 248
30/08/2026 15h 24' 39" Ping reçu, 247
30/08/2026 15h 24' 35" Ping reçu, 246
30/08/2026 15h 24' 32" Ping reçu,         245
30/08/2026 15h 24' 29" Enregistrement de l'éclairement (34.6 lux & 0 lux )
30/08/2026 15h 24' 24" Ping reçu, 243
30/08/2026 15h 24' 20" Ping reçu, 242
30/08/2026 15h 24' 15" Ping reçu, 241
30/08/2026 15h 24' 14" Enregistrement de la température (25,306 °C)
30/08/2026 15h 24' 11" Enregistrement des paramètres du vent (49.1° @ 0 m/s)
30/08/2026 15h 24' 05" Ping reçu, 239
30/08/2026 15h 24' 05" cPing.
30/08/2026 15h 24' 01" Ping reçu, 238
30/08/2026 15h 23' 57" Ping reçu, 237
30/08/2026 15h 23' 48" Ping reçu,         235
30/08/2026 15h 23' 44" Ping reçu, 234
30/08/2026 15h 23' 40" Ping reçu, 233
30/08/2026 15h 23' 29" Ping reçu,         230
30/08/2026 15h 23' 24" Enregistrement de l'éclairement (121 lux & 0 lux )
30/08/2026 15h 23' 24" Ping reçu, 229
30/08/2026 15h 23' 16" Ping reçu, 227
30/08/2026 15h 23' 08" cPing.
30/08/2026 15h 23' 08" Ping reçu,         225
30/08/2026 15h 23' 03" Ping reçu, 224
30/08/2026 15h 23' 00" ERR. Ther. 1 HS.
30/08/2026 15h 22' 55" Ping reçu, 222
30/08/2026 15h 22' 50" Ping reçu, 221
30/08/2026 15h 22' 46" Ping reçu,         220
30/08/2026 15h 22' 42" Ping reçu, 219
30/08/2026 15h 22' 35" Ping reçu, 217
30/08/2026 15h 22' 27" Ping reçu,         215
30/08/2026 15h 22' 23" Ping reçu, 214
30/08/2026 15h 22' 18" Ping reçu, 213
30/08/2026 15h 22' 18" Enregistrement de l'éclairement (43.2 lux & 0 lux )
30/08/2026 15h 22' 14" Ping reçu, 212
30/08/2026 15h 22' 13" cPing.
30/08/2026 15h 22' 09" Ping reçu, 211
30/08/2026 15h 22' 05" Ping reçu,         210
30/08/2026 15h 22' 01" Ping reçu, 209
30/08/2026 15h 21' 57" Ping reçu, 208
30/08/2026 15h 21' 54" Ping reçu, 207
30/08/2026 15h 21' 50" Ping reçu, 206
30/08/2026 15h 21' 46" Ping reçu,         205
30/08/2026 15h 21' 42" Ping reçu, 204
30/08/2026 15h 21' 38" Ping reçu, 203
30/08/2026 15h 21' 33" Ping reçu, 202
30/08/2026 15h 21' 29" Ping reçu, 201
30/08/2026 15h 21' 20" Ping reçu, 199
30/08/2026 15h 21' 16" cPing.
30/08/2026 15h 21' 12" Ping reçu, 197
30/08/2026 15h 21' 11" Enregistrement de l'éclairement (220.3 lux & 0 lux )
30/08/2026 15h 21' 08" Ping reçu, 196
30/08/2026 15h 21' 05" Ping reçu,         195
30/08/2026 15h 21' 01" Ping reçu, 194
30/08/2026 15h 20' 53" Ping reçu, 192
30/08/2026 15h 20' 49" Enregistrement de l'Arduino : (27,5 °C)
30/08/2026 15h 20' 45" Ping reçu, 191
30/08/2026 15h 20' 42" Ping reçu,         190
30/08/2026 15h 20' 32" Ping reçu, 188
30/08/2026 15h 20' 29" Ping reçu, 187
30/08/2026 15h 20' 25" Ping reçu, 186
30/08/2026 15h 20' 21" Ping reçu,         185
30/08/2026 15h 20' 21" cPing.
30/08/2026 15h 20' 16" Ping reçu, 184
30/08/2026 15h 20' 12" Ping reçu, 183
30/08/2026 15h 20' 08" Ping reçu, 182
30/08/2026 15h 20' 03" Ping reçu, 181
30/08/2026 15h 20' 03" Enregistrement de la température (25,519 °C)
30/08/2026 15h 19' 59" Ping reçu,         180
30/08/2026 15h 19' 55" Ping reçu, 179
30/08/2026 15h 19' 51" Ping reçu, 178
30/08/2026 15h 19' 42" Ping reçu, 176
30/08/2026 15h 19' 39" Ping reçu,         175
30/08/2026 15h 19' 35" Ping reçu, 174
30/08/2026 15h 19' 29" Enregistrement Température du pluviometre : (26,1 °C)
30/08/2026 15h 19' 27" Ping reçu, 173
30/08/2026 15h 19' 24" cPing.
30/08/2026 15h 19' 23" Ping reçu, 172
30/08/2026 15h 19' 14" Ping reçu,         170
30/08/2026 15h 19' 10" Ping reçu, 169
30/08/2026 15h 19' 03" ERR. Ther. 1 HS.
30/08/2026 15h 19' 01" Ping reçu, 167
30/08/2026 15h 18' 57" Ping reçu, 166
30/08/2026 15h 18' 53" Ping reçu,         165
30/08/2026 15h 18' 41" Ping reçu, 162
30/08/2026 15h 18' 33" Enregistrement de la hauteur d'eau (783,220 mm @ 99,8%)
30/08/2026 15h 18' 30" Enregistrement des paramètres du vent (49.1° @ 0 m/s)
30/08/2026 15h 18' 29" cPing.
30/08/2026 15h 18' 26" Ping reçu, 159
30/08/2026 15h 18' 23" Ping reçu, 158
30/08/2026 15h 18' 19" Ping reçu, 157
30/08/2026 15h 18' 15" Ping reçu, 156
30/08/2026 15h 18' 11" Ping reçu,         155
30/08/2026 15h 18' 06" Ping reçu, 154
30/08/2026 15h 18' 02" Ping reçu, 153
30/08/2026 15h 17' 58" Ping reçu, 152
30/08/2026 15h 17' 54" Ping reçu, 151
30/08/2026 15h 17' 50" Ping reçu,         150
30/08/2026 15h 17' 47" Enregistrement de l'éclairement (0 lux & 0 lux )
30/08/2026 15h 17' 38" Ping reçu, 147
30/08/2026 15h 17' 34" Ping reçu, 146
30/08/2026 15h 17' 33" cPing.
30/08/2026 15h 17' 21" Ping reçu, 143
30/08/2026 15h 17' 07" Ping reçu, 1
30/08/2026 15h 17' 03" Ping reçu, 139
30/08/2026 15h 16' 59" Ping reçu, 1
30/08/2026 15h 16' 59" Ping reçu, 138
30/08/2026 15h 16' 54" Ping reçu, 137
30/08/2026 15h 16' 50" Ping reçu, 136
30/08/2026 15h 16' 47" On a tout sauvé !
30/08/2026 15h 16' 46" Ping reçu,         135
30/08/2026 15h 16' 41" Ping reçu, 134
30/08/2026 15h 16' 37" Enregistrement de l'éclairement (0 lux & 0 lux )
30/08/2026 15h 16' 37" Ping reçu, 133
30/08/2026 15h 16' 36" cPing.
30/08/2026 15h 16' 33" Ping reçu, 132
30/08/2026 15h 16' 29" Ping reçu, 131
30/08/2026 15h 16' 27" Ping reçu,         130
30/08/2026 15h 16' 09" Ping reçu, 126
30/08/2026 15h 16' 05" Ping reçu,         125
30/08/2026 15h 16' 01" Ping reçu, 124
30/08/2026 15h 15' 56" Ping reçu, 123
30/08/2026 15h 15' 48" Ping reçu, 121
30/08/2026 15h 15' 47" Enregistrement de la température (25,497 °C)
30/08/2026 15h 15' 46" Enregistrement de la Pression atmosphérique (1027,099 hPa)
30/08/2026 15h 15' 44" Ping reçu,         120
30/08/2026 15h 15' 41" cPing.
30/08/2026 15h 15' 38" Ping reçu, 119
30/08/2026 15h 15' 34" Ping reçu, 118
30/08/2026 15h 15' 25" Ping reçu, 116
30/08/2026 15h 15' 21" Ping reçu,         115
30/08/2026 15h 15' 14" Ping reçu, 113
30/08/2026 15h 15' 10" Ping reçu, 112
30/08/2026 15h 15' 03" Ping reçu, 111
30/08/2026 15h 15' 00" Ping reçu,         110
30/08/2026 15h 14' 56" Ping reçu, 109
30/08/2026 15h 14' 52" Ping reçu, 108
30/08/2026 15h 14' 48" Ping reçu, 107
30/08/2026 15h 14' 44" cPing.
30/08/2026 15h 14' 39" Ping reçu,         105
30/08/2026 15h 14' 35" Ping reçu, 104
30/08/2026 15h 14' 29" Enregistrement de l'éclairement (0 lux & 0 lux )
30/08/2026 15h 14' 22" Ping reçu, 101
30/08/2026 15h 14' 18" Ping reçu,         100
30/08/2026 15h 14' 15" Ping reçu, 99
30/08/2026 15h 14' 07" Ping reçu, 97
30/08/2026 15h 14' 03" Ping reçu, 96
30/08/2026 15h 13' 58" Ping reçu,         95
30/08/2026 15h 13' 54" Ping reçu, 94
30/08/2026 15h 13' 50" Ping reçu, 93
30/08/2026 15h 13' 48" cPing.
30/08/2026 15h 13' 45" Ping reçu, 92
30/08/2026 15h 13' 41" Ping reçu, 91
30/08/2026 15h 13' 32" Ping reçu, 89
30/08/2026 15h 13' 24" Ping reçu, 87
30/08/2026 15h 13' 21" Ping reçu, 86
30/08/2026 15h 13' 18" Enregistrement de l'éclairement (0 lux & 0 lux )
30/08/2026 15h 13' 17" Ping reçu,         85
30/08/2026 15h 13' 12" Ping reçu, 84
30/08/2026 15h 13' 04" Ping reçu, 82
30/08/2026 15h 12' 56" Ping reçu,         80
30/08/2026 15h 12' 56" Enregistrement des paramètres du vent (49.4° @ 0 m/s)
30/08/2026 15h 12' 51" cPing.
30/08/2026 15h 12' 51" Ping reçu, 79
30/08/2026 15h 12' 47" Ping reçu, 78
30/08/2026 15h 12' 42" Ping reçu, 77
30/08/2026 15h 12' 34" Ping reçu,         75
30/08/2026 15h 12' 30" Ping reçu, 74
30/08/2026 15h 12' 23" Ping reçu, 72
30/08/2026 15h 12' 19" Ping reçu, 71
30/08/2026 15h 12' 15" Ping reçu,         70
30/08/2026 15h 12' 11" Ping reçu, 69
30/08/2026 15h 12' 11" Enregistrement de l'éclairement (0 lux & 0 lux )
30/08/2026 15h 12' 06" Ping reçu, 68
30/08/2026 15h 12' 02" Ping reçu, 67
30/08/2026 15h 11' 58" Ping reçu, 66
30/08/2026 15h 11' 56" cPing.
30/08/2026 15h 11' 54" Ping reçu,         65
30/08/2026 15h 11' 50" Ping reçu, 64
30/08/2026 15h 11' 45" Ping reçu, 63
30/08/2026 15h 11' 42" Ping reçu, 62
30/08/2026 15h 11' 38" Ping reçu, 61
30/08/2026 15h 11' 36" Enregistrement de la température (25,554 °C)
30/08/2026 15h 11' 34" Ping reçu,         60
30/08/2026 15h 11' 30" Ping reçu, 59
30/08/2026 15h 11' 26" Ping reçu, 58
30/08/2026 15h 11' 21" Ping reçu, 57
30/08/2026 15h 11' 17" Ping reçu, 56
30/08/2026 15h 11' 14" ERR. Ther. 1 HS.
30/08/2026 15h 11' 09" Ping reçu, 54
30/08/2026 15h 11' 06" Ping reçu, 53
30/08/2026 15h 11' 03" Enregistrement de l'éclairement (0 lux & 0 lux )
30/08/2026 15h 10' 59" cPing.
30/08/2026 15h 10' 48" Ping reçu, 49
30/08/2026 15h 10' 44" Ping reçu, 48
30/08/2026 15h 10' 40" Ping reçu, 47
30/08/2026 15h 10' 36" Ping reçu, 46
30/08/2026 15h 10' 32" Ping reçu,         45
30/08/2026 15h 10' 27" Ping reçu, 44
30/08/2026 15h 10' 23" Ping reçu, 43
30/08/2026 15h 10' 18" Ping reçu, 42
30/08/2026 15h 10' 14" Ping reçu, 41
30/08/2026 15h 10' 10" Ping reçu,         40
30/08/2026 15h 10' 06" Ping reçu, 39
30/08/2026 15h 10' 04" cPing.
30/08/2026 15h 09' 59" Enregistrement de l'éclairement (0 lux & 0 lux )
30/08/2026 15h 09' 55" Ping reçu, 36
30/08/2026 15h 09' 51" Ping reçu,         35
30/08/2026 15h 09' 47" Ping reçu, 34
30/08/2026 15h 09' 38" Ping reçu, 32
30/08/2026 15h 09' 29" Ping reçu,         30
30/08/2026 15h 09' 25" Ping reçu, 29
30/08/2026 15h 09' 21" Ping reçu, 28
30/08/2026 15h 09' 14" Ping reçu, 26
30/08/2026 15h 09' 10" Ping reçu,         25
30/08/2026 15h 09' 07" cPing.
30/08/2026 15h 09' 06" Ping reçu, 24
30/08/2026 15h 09' 01" Ping reçu, 23
30/08/2026 15h 08' 53" Enregistrement de l'éclairement (0 lux & 0 lux )
30/08/2026 15h 08' 53" Ping reçu, 21
30/08/2026 15h 08' 48" Ping reçu,         20
30/08/2026 15h 08' 44" Ping reçu, 19
30/08/2026 15h 08' 40" Ping reçu, 18
30/08/2026 15h 08' 36" Ping reçu, 17
30/08/2026 15h 08' 33" Ping reçu, 16
30/08/2026 15h 08' 20" Ping reçu, 13
30/08/2026 15h 08' 16" Ping reçu, 12
30/08/2026 15h 08' 12" cPing.
30/08/2026 15h 07' 50" Ping reçu, 6
30/08/2026 15h 07' 46" Ping reçu,         5
30/08/2026 15h 07' 44" Ping reçu, 4
30/08/2026 15h 07' 41" Ping reçu, 3
30/08/2026 15h 07' 41" Enregistrement de l'éclairement (0 lux & 0 lux )
30/08/2026 15h 07' 37" Ping reçu, 2
30/08/2026 15h 07' 34" Ping reçu, 1
30/08/2026 15h 07' 27" 13New turn with Version 3.14.
30/08/2026 15h 07' 25" End Cycle en 4.2318 s par tour (moy).
30/08/2026 15h 07' 23" Enregistrement de la température (25,923 °C)
30/08/2026 15h 07' 22" Enregistrement Température du pluviometre : (25,8 °C)
30/08/2026 15h 07' 21" Ping reçu,         3360
30/08/2026 15h 07' 21" Enregistrement de la hauteur d'eau (783,040 mm @ 99,8%)
30/08/2026 15h 07' 21" Pressions pluviométriques (32,07 & 64,00)
30/08/2026 15h 07' 15" cPing.
30/08/2026 15h 07' 14" ERR. Ther. 1 HS.
30/08/2026 15h 07' 11" Ping reçu, 3359
30/08/2026 15h 07' 00" Ping reçu, 3356
30/08/2026 15h 06' 56" Ping reçu,         3355
30/08/2026 15h 06' 38" Ping reçu, 3351
30/08/2026 15h 06' 30" Ping reçu, 3349
30/08/2026 15h 06' 29" Enregistrement de l'éclairement (0 lux & 0 lux )
30/08/2026 15h 06' 25" Ping reçu, 3348
30/08/2026 15h 06' 21" Ping reçu, 3347
30/08/2026 15h 06' 20" cPing.
30/08/2026 15h 06' 12" Ping reçu,         3345
30/08/2026 15h 06' 08" Ping reçu, 3344
30/08/2026 15h 06' 05" Ping reçu, 3343
30/08/2026 15h 06' 01" Ping reçu, 3342
30/08/2026 15h 05' 57" Ping reçu, 3341
30/08/2026 15h 05' 48" Ping reçu, 3339
30/08/2026 15h 05' 39" Ping reçu, 3337
30/08/2026 15h 05' 35" Ping reçu, 3336
30/08/2026 15h 05' 31" Ping reçu,         3335
30/08/2026 15h 05' 27" Ping reçu, 3334
30/08/2026 15h 05' 25" Enregistrement de l'éclairement (0 lux & 0 lux )
30/08/2026 15h 05' 23" cPing.
30/08/2026 15h 05' 20" Ping reçu, 3332
30/08/2026 15h 05' 16" Ping reçu, 3331
30/08/2026 15h 05' 12" Ping reçu,         3330
30/08/2026 15h 05' 08" Ping reçu, 3329
30/08/2026 15h 05' 03" Ping reçu, 3328
30/08/2026 15h 04' 54" Ping reçu, 3326
30/08/2026 15h 04' 46" Ping reçu, 3324
30/08/2026 15h 04' 42" Ping reçu, 3323
30/08/2026 15h 04' 35" Ping reçu, 3321
30/08/2026 15h 04' 27" cPing.
30/08/2026 15h 04' 09" Ping reçu,         3315
30/08/2026 15h 04' 05" Ping reçu, 3314
30/08/2026 15h 03' 56" Ping reçu, 3312
30/08/2026 15h 03' 47" Ping reçu,         3310
30/08/2026 15h 03' 43" Ping reçu, 3309
30/08/2026 15h 03' 39" Ping reçu, 3308
30/08/2026 15h 03' 34" Ping reçu, 3307
30/08/2026 15h 03' 32" cPing.
30/08/2026 15h 03' 30" Ping reçu, 3306
30/08/2026 15h 03' 26" Ping reçu,         3305
30/08/2026 15h 03' 23" Ping reçu, 3304
30/08/2026 15h 03' 20" ERR. Ther. 1 HS.
30/08/2026 15h 03' 19" Ping reçu, 3303
30/08/2026 15h 03' 10" Enregistrement de l'éclairement (0 lux & 0 lux )
30/08/2026 15h 03' 10" Enregistrement de la température (25,692 °C)
30/08/2026 15h 03' 02" Ping reçu, 3299
30/08/2026 15h 02' 57" Ping reçu, 3298
30/08/2026 15h 02' 53" Ping reçu, 3297
30/08/2026 15h 02' 45" Ping reçu,         3295
30/08/2026 15h 02' 42" Ping reçu, 3294
30/08/2026 15h 02' 38" Ping reçu, 3293
30/08/2026 15h 02' 35" cPing.
30/08/2026 15h 02' 34" Ping reçu, 3292
30/08/2026 15h 02' 30" Ping reçu, 3291
30/08/2026 15h 02' 24" Ping reçu, 1
30/08/2026 15h 02' 21" Ping reçu, 3289
30/08/2026 15h 02' 17" Ping reçu, 3288
30/08/2026 15h 02' 13" Enregistrement Température du pluviometre : (25,8 °C)
30/08/2026 15h 02' 09" On a tout sauvé !
30/08/2026 15h 02' 03" Ping reçu, 3286
30/08/2026 15h 02' 03" Enregistrement de l'éclairement (0 lux & 0 lux )
30/08/2026 15h 01' 59" Ping reçu,         3285
30/08/2026 15h 01' 55" Ping reçu, 3284
30/08/2026 15h 01' 51" Ping reçu, 3283
30/08/2026 15h 01' 49" Enregistrement de l'éclairement (0 lux & 0 lux )
30/08/2026 15h 01' 47" Ping reçu, 3282
30/08/2026 15h 01' 40" Ping reçu,         3280
30/08/2026 15h 01' 40" cPing.
30/08/2026 15h 01' 35" Ping reçu, 3279
30/08/2026 15h 01' 26" Ping reçu, 3277
30/08/2026 15h 01' 22" Ping reçu, 3276
30/08/2026 15h 01' 18" Ping reçu,         3275
30/08/2026 15h 01' 14" Ping reçu, 3272
30/08/2026 15h 01' 14" Ping reçu, 3274
30/08/2026 15h 01' 10" Ping reçu, 3271
30/08/2026 15h 01' 08" Ping reçu,         3270
30/08/2026 15h 01' 05" Ping reçu, 3269
30/08/2026 15h 01' 01" Ping reçu, 3268
30/08/2026 15h 01' 00" Ping reçu, 3267
30/08/2026 15h 01' 00" cPing.
30/08/2026 15h 00' 57" Ping reçu, 3264
30/08/2026 15h 00' 55" Ping reçu, 3262
30/08/2026 15h 00' 54" Ping reçu, 3261
30/08/2026 15h 00' 52" Ping reçu, 3259
30/08/2026 15h 00' 48" Ping reçu, 3257
30/08/2026 15h 00' 47" Ping reçu, 3256
30/08/2026 15h 00' 46" Ping reçu,         3255
30/08/2026 15h 00' 42" Ping reçu, 3254
30/08/2026 15h 00' 42" cPing.
30/08/2026 15h 00' 39" Ping reçu, 3253
30/08/2026 15h 00' 38" Ping reçu, 3252
30/08/2026 15h 00' 34" Ping reçu, 3251
30/08/2026 15h 00' 33" Ping reçu,         3250
30/08/2026 15h 00' 29" Ping reçu, 3249
30/08/2026 15h 00' 28" Enregistrement de l'Arduino : (27,3 °C)
30/08/2026 15h 00' 28" ERR. Ther. 1 HS.
30/08/2026 15h 00' 16" Rw SD-card.
30/08/2026 15h 00' 12" Ping reçu,         3245
30/08/2026 15h 00' 11" Enregistrement de l'éclairement (4.3 lux & 0 lux )
30/08/2026 14h 59' 44" Ping reçu, 3243
30/08/2026 14h 59' 35" Ping reçu, 3242
30/08/2026 14h 59' 30" Ping reçu, 3241
30/08/2026 14h 59' 26" cPing.
30/08/2026 14h 59' 25" Enregistrement de la Pression atmosphérique (1027,251 hPa)
30/08/2026 14h 59' 08" Ping reçu, 3239
30/08/2026 14h 59' 03" Ping reçu, 3238
30/08/2026 14h 58' 58" Ping reçu, 3237
30/08/2026 14h 58' 48" Ping reçu,         3235
30/08/2026 14h 58' 33" Ping reçu, 3234
30/08/2026 14h 58' 22" Ping reçu, 3233
30/08/2026 14h 58' 14" Ping reçu, 3232
30/08/2026 14h 58' 05" Ping reçu,         3230
30/08/2026 14h 58' 01" Ping reçu, 3229
30/08/2026 14h 57' 56" cPing.
30/08/2026 14h 57' 54" Ping reçu, 3227
30/08/2026 14h 57' 50" Ping reçu, 3226
30/08/2026 14h 57' 46" Ping reçu,         3225
30/08/2026 14h 57' 42" Ping reçu, 3224
30/08/2026 14h 57' 38" Ping reçu, 3223
30/08/2026 14h 57' 33" Ping reçu, 3222
30/08/2026 14h 57' 28" Enregistrement de l'éclairement (0 lux & 0 lux )
30/08/2026 14h 57' 27" Enregistrement de l'humidité (59,47 %)
30/08/2026 14h 57' 25" Ping reçu,         3220
30/08/2026 14h 57' 20" Ping reçu, 3219
30/08/2026 14h 57' 16" Ping reçu, 3218
30/08/2026 14h 57' 09" Ping reçu, 3216
30/08/2026 14h 56' 59" Ping reçu, 3214
30/08/2026 14h 56' 58" cPing.
30/08/2026 14h 56' 56" Ping reçu, 3213
30/08/2026 14h 56' 52" Ping reçu, 3212
30/08/2026 14h 56' 48" Ping reçu, 3211
30/08/2026 14h 56' 44" Ping reçu,         3210
30/08/2026 14h 56' 35" Ping reçu, 3208
30/08/2026 14h 56' 30" Ping reçu, 3207
30/08/2026 14h 56' 26" Ping reçu, 3206
30/08/2026 14h 56' 22" Ping reçu,         3205
30/08/2026 14h 56' 03" cPing.
30/08/2026 14h 56' 02" Enregistrement de la hauteur d'eau (782,960 mm @ 99,8%)
30/08/2026 14h 56' 00" Enregistrement des paramètres du vent (49.4° @ 0 m/s)
30/08/2026 14h 55' 55" Ping reçu, 3199
30/08/2026 14h 55' 51" Ping reçu, 3198
30/08/2026 14h 55' 48" Ping reçu, 3197
30/08/2026 14h 55' 36" Ping reçu, 3194
30/08/2026 14h 55' 32" Ping reçu, 3193
30/08/2026 14h 55' 27" Ping reçu, 3192
30/08/2026 14h 55' 24" ERR. Ther. 1 HS.
30/08/2026 14h 55' 23" Ping reçu, 3191
30/08/2026 14h 55' 18" Ping reçu,         3190
30/08/2026 14h 55' 14" Ping reçu, 3189
30/08/2026 14h 55' 06" cPing.
30/08/2026 14h 55' 03" Ping reçu, 3186
30/08/2026 14h 54' 44" Ping reçu, 3182
30/08/2026 14h 54' 41" Ping reçu, 3181
30/08/2026 14h 54' 38" Enregistrement de la température (25,115 °C)
30/08/2026 14h 54' 35" Ping reçu,         3180
30/08/2026 14h 54' 32" Ping reçu, 3179
30/08/2026 14h 54' 28" Ping reçu, 3178
30/08/2026 14h 54' 19" Ping reçu, 3176
30/08/2026 14h 54' 14" Ping reçu,         3175
30/08/2026 14h 54' 11" cPing.
30/08/2026 14h 54' 06" Ping reçu, 3173
30/08/2026 14h 54' 03" Enregistrement de l'éclairement (4.3 lux & 0 lux )
30/08/2026 14h 54' 02" Ping reçu, 3172
30/08/2026 14h 53' 57" Ping reçu, 3171
30/08/2026 14h 53' 53" Ping reçu,         3170
30/08/2026 14h 53' 45" Ping reçu, 3168
30/08/2026 14h 53' 40" Ping reçu, 3167
30/08/2026 14h 53' 31" Ping reçu,         3165
30/08/2026 14h 53' 24" Ping reçu, 3163
30/08/2026 14h 53' 20" Ping reçu, 3162
30/08/2026 14h 53' 16" Ping reçu, 3161
30/08/2026 14h 53' 14" cPing.
30/08/2026 14h 53' 08" Ping reçu, 3159
30/08/2026 14h 53' 03" Ping reçu, 3158
30/08/2026 14h 52' 58" Enregistrement de l'éclairement (0 lux & 0 lux )
30/08/2026 14h 52' 55" Ping reçu, 3156
30/08/2026 14h 52' 51" Ping reçu,         3155
30/08/2026 14h 52' 33" Ping reçu, 3151
30/08/2026 14h 52' 22" Ping reçu, 3148
30/08/2026 14h 52' 18" cPing.
30/08/2026 14h 52' 18" Ping reçu, 3147
30/08/2026 14h 52' 14" Ping reçu, 3146
30/08/2026 14h 52' 09" Ping reçu,         3145
30/08/2026 14h 52' 05" Ping reçu, 3144
30/08/2026 14h 51' 56" Ping reçu, 3142
30/08/2026 14h 51' 52" Ping reçu, 3141
30/08/2026 14h 51' 51" Enregistrement de l'éclairement (0 lux & 0 lux )
30/08/2026 14h 51' 48" Ping reçu,         3140
30/08/2026 14h 51' 41" Ping reçu, 3138
30/08/2026 14h 51' 37" Ping reçu, 3137
30/08/2026 14h 51' 33" Ping reçu, 3136
30/08/2026 14h 51' 24" Ping reçu, 3134
30/08/2026 14h 51' 23" cPing.
30/08/2026 14h 51' 20" Ping reçu, 3133
30/08/2026 14h 51' 15" Ping reçu, 3132
30/08/2026 14h 51' 11" Ping reçu, 3131
30/08/2026 14h 51' 07" Ping reçu,         3130
30/08/2026 14h 50' 56" Ping reçu, 3127
30/08/2026 14h 50' 52" Ping reçu, 3126
30/08/2026 14h 50' 47" Ping reçu,         3125
30/08/2026 14h 50' 44" Enregistrement de l'éclairement (0 lux & 0 lux )
30/08/2026 14h 50' 43" Ping reçu, 3124
30/08/2026 14h 50' 39" Ping reçu, 3123
30/08/2026 14h 50' 30" Ping reçu, 3121
30/08/2026 14h 50' 29" Enregistrement de la température (25,276 °C)
30/08/2026 14h 50' 26" Enregistrement de la Pression atmosphérique (1027,284 hPa)
30/08/2026 14h 50' 26" cPing.
30/08/2026 14h 50' 21" Ping reçu, 3119
30/08/2026 14h 50' 17" Ping reçu, 3118
30/08/2026 14h 50' 12" Ping reçu, 3117
30/08/2026 14h 49' 51" Ping reçu, 3113
30/08/2026 14h 49' 44" Ping reçu, 3111
30/08/2026 14h 49' 40" Ping reçu,         3110
30/08/2026 14h 49' 36" Ping reçu, 3109
30/08/2026 14h 49' 32" Ping reçu, 3108
30/08/2026 14h 49' 31" cPing.
30/08/2026 14h 49' 27" Ping reçu, 3107
30/08/2026 14h 49' 23" Ping reçu, 3106
30/08/2026 14h 49' 09" Ping reçu, 3103
30/08/2026 14h 49' 05" Ping reçu, 3102
30/08/2026 14h 49' 01" Ping reçu, 3101
30/08/2026 14h 48' 57" Ping reçu,         3100
30/08/2026 14h 48' 50" Ping reçu, 3098
30/08/2026 14h 48' 46" Ping reçu, 3097
30/08/2026 14h 48' 38" Ping reçu,         3095
30/08/2026 14h 48' 34" cPing.
30/08/2026 14h 48' 33" Ping reçu, 3094
30/08/2026 14h 48' 29" Ping reçu, 3093
30/08/2026 14h 48' 29" Enregistrement de l'éclairement (0 lux & 0 lux )
30/08/2026 14h 48' 25" Ping reçu, 3092
30/08/2026 14h 48' 21" Ping reçu, 3091
30/08/2026 14h 48' 17" Ping reçu,         3090
30/08/2026 14h 48' 14" Ping reçu, 3089
30/08/2026 14h 48' 10" Ping reçu, 3088
30/08/2026 14h 48' 05" Ping reçu, 3087
30/08/2026 14h 48' 01" Ping reçu, 3086
30/08/2026 14h 47' 57" On a tout sauvé !
30/08/2026 14h 47' 57" Ping reçu,         3085
30/08/2026 14h 47' 53" Ping reçu, 3084
30/08/2026 14h 47' 44" Ping reçu, 3082
30/08/2026 14h 47' 39" Ping reçu, 3081
30/08/2026 14h 47' 39" cPing.
30/08/2026 14h 47' 35" Enregistrement de l'humidité (59,69 %)
30/08/2026 14h 47' 35" Ping reçu,         3080
30/08/2026 14h 47' 30" Ping reçu, 3079
30/08/2026 14h 47' 26" Ping reçu, 3078
30/08/2026 14h 47' 13" Ping reçu,         3075
30/08/2026 14h 47' 09" Ping reçu, 3074
30/08/2026 14h 47' 06" Ping reçu, 3073
30/08/2026 14h 47' 00" Ping reçu, 3072
30/08/2026 14h 46' 56" Ping reçu, 3071
30/08/2026 14h 46' 53" Ping reçu,         3070
30/08/2026 14h 46' 49" Ping reçu, 3069
30/08/2026 14h 46' 42" cPing.
30/08/2026 14h 46' 40" Ping reçu, 3067
30/08/2026 14h 46' 32" Ping reçu,         3065
30/08/2026 14h 46' 27" Ping reçu, 3064
30/08/2026 14h 46' 19" Ping reçu, 3062
30/08/2026 14h 46' 14" Enregistrement de la température (25,208 °C)
30/08/2026 14h 46' 10" Ping reçu,         3060
30/08/2026 14h 46' 10" Enregistrement de l'éclairement (0 lux & 0 lux )
30/08/2026 14h 46' 06" Ping reçu, 3059
30/08/2026 14h 46' 02" Ping reçu, 3058
30/08/2026 14h 45' 59" Ping reçu, 3057
30/08/2026 14h 45' 51" Ping reçu, 3056
30/08/2026 14h 45' 47" cPing.
30/08/2026 14h 45' 38" Ping reçu, 3053
30/08/2026 14h 45' 34" Ping reçu, 3052
30/08/2026 14h 45' 25" Ping reçu,         3050
30/08/2026 14h 45' 21" Ping reçu, 3049
30/08/2026 14h 45' 18" Ping reçu, 3048
30/08/2026 14h 45' 10" Ping reçu, 3046
30/08/2026 14h 45' 06" Ping reçu,         3045
30/08/2026 14h 45' 02" Enregistrement de l'éclairement (0 lux & 0 lux )
30/08/2026 14h 45' 02" Ping reçu, 3044
30/08/2026 14h 44' 53" Ping reçu, 3042
30/08/2026 14h 44' 51" cPing.
30/08/2026 14h 44' 45" Pressions pluviométriques (32,07 & 64,00)
30/08/2026 14h 44' 44" Enregistrement des paramètres du vent (49.1° @ 0 m/s)
30/08/2026 14h 44' 26" Ping reçu, 3036
30/08/2026 14h 44' 17" Ping reçu, 3034
30/08/2026 14h 44' 13" Ping reçu, 3033
30/08/2026 14h 44' 06" Ping reçu, 3031
30/08/2026 14h 43' 56" Ping reçu, 3029
30/08/2026 14h 43' 54" Enregistrement de l'éclairement (0 lux & 0 lux )
30/08/2026 14h 43' 54" cPing.
30/08/2026 14h 43' 53" Ping reçu, 3028
30/08/2026 14h 43' 49" Ping reçu, 3027
30/08/2026 14h 43' 36" Ping reçu, 3024
30/08/2026 14h 43' 32" ERR. Ther. 1 HS.
30/08/2026 14h 43' 31" Ping reçu, 3023
30/08/2026 14h 43' 27" Ping reçu, 3022
30/08/2026 14h 43' 23" Ping reçu, 3021
30/08/2026 14h 43' 18" Ping reçu,         3020
30/08/2026 14h 43' 05" Ping reçu, 3017
30/08/2026 14h 43' 00" Ping reçu, 3016
30/08/2026 14h 42' 57" cPing.
30/08/2026 14h 42' 56" Ping reçu,         3015
30/08/2026 14h 42' 52" Ping reçu, 3014
30/08/2026 14h 42' 48" Ping reçu, 3013
30/08/2026 14h 42' 46" Enregistrement de l'éclairement (0 lux & 0 lux )
30/08/2026 14h 42' 38" Ping reçu, 3011
30/08/2026 14h 42' 34" Ping reçu,         3010
30/08/2026 14h 42' 30" Ping reçu, 3009
30/08/2026 14h 42' 27" Ping reçu, 3008
30/08/2026 14h 42' 18" Ping reçu, 3006
30/08/2026 14h 42' 14" Ping reçu,         3005
30/08/2026 14h 42' 10" Ping reçu, 3004
30/08/2026 14h 42' 06" Ping reçu, 3003
30/08/2026 14h 42' 02" Ping reçu, 3002
30/08/2026 14h 42' 02" cPing.
30/08/2026 14h 41' 56" Enregistrement de la température (25,222 °C)
30/08/2026 14h 41' 53" Ping reçu,         3000
30/08/2026 14h 41' 48" Ping reçu, 2999
30/08/2026 14h 41' 39" Ping reçu, 2997
30/08/2026 14h 41' 38" Enregistrement de l'éclairement (0 lux & 0 lux )
30/08/2026 14h 41' 31" Ping reçu,         2995
30/08/2026 14h 41' 27" Ping reçu, 2994
30/08/2026 14h 41' 23" Ping reçu, 2993
30/08/2026 14h 41' 11" Ping reçu,         2990
30/08/2026 14h 41' 06" cPing.
30/08/2026 14h 40' 58" Ping reçu, 2987
30/08/2026 14h 40' 54" Ping reçu, 2986
30/08/2026 14h 40' 50" Ping reçu,         2985
30/08/2026 14h 40' 41" Ping reçu, 2983
30/08/2026 14h 40' 36" Ping reçu, 2982
30/08/2026 14h 40' 32" Ping reçu, 2981
30/08/2026 14h 40' 31" Enregistrement de l'éclairement (0 lux & 0 lux )
30/08/2026 14h 40' 24" Ping reçu, 2979
30/08/2026 14h 40' 21" Ping reçu, 2978
30/08/2026 14h 40' 09" cPing.
30/08/2026 14h 40' 08" Ping reçu,         2975
30/08/2026 14h 40' 04" Ping reçu, 2974
30/08/2026 14h 39' 51" Ping reçu, 2971
30/08/2026 14h 39' 47" Ping reçu,         2970
30/08/2026 14h 39' 38" Ping reçu, 2968
30/08/2026 14h 39' 34" Ping reçu, 2967
30/08/2026 14h 39' 29" Ping reçu, 2966
30/08/2026 14h 39' 27" Ping reçu,         2965
30/08/2026 14h 39' 24" Enregistrement de l'éclairement (0 lux & 0 lux )
30/08/2026 14h 39' 21" Ping reçu, 2964
30/08/2026 14h 39' 14" Ping reçu, 2962
30/08/2026 14h 39' 14" cPing.
30/08/2026 14h 39' 10" Ping reçu, 2961
30/08/2026 14h 39' 06" Enregistrement des paramètres du vent (49.1° @ 0 m/s)
30/08/2026 14h 39' 06" Ping reçu,         2960
30/08/2026 14h 38' 57" Ping reçu, 2958
30/08/2026 14h 38' 53" Ping reçu, 2957
30/08/2026 14h 38' 48" Ping reçu, 2956
30/08/2026 14h 38' 44" Ping reçu,         2955
30/08/2026 14h 38' 39" Ping reçu, 2954
30/08/2026 14h 38' 35" Ping reçu, 2953
30/08/2026 14h 38' 27" Ping reçu, 2951
30/08/2026 14h 38' 22" Ping reçu,         2950
30/08/2026 14h 38' 18" Ping reçu, 2949
30/08/2026 14h 38' 17" cPing.
30/08/2026 14h 38' 13" Ping reçu, 2948
30/08/2026 14h 38' 09" Ping reçu, 2947
30/08/2026 14h 38' 06" Ping reçu, 2946
30/08/2026 14h 38' 02" Ping reçu,         2945
30/08/2026 14h 37' 58" Ping reçu, 2944
30/08/2026 14h 37' 53" Ping reçu, 2943
30/08/2026 14h 37' 49" Ping reçu, 2942
30/08/2026 14h 37' 41" Ping reçu, 2941
30/08/2026 14h 37' 41" Enregistrement de la température (25,414 °C)
30/08/2026 14h 37' 37" Ping reçu,         2940
30/08/2026 14h 37' 32" Ping reçu, 2939
30/08/2026 14h 37' 28" Ping reçu, 2938
30/08/2026 14h 37' 23" Ping reçu, 2937
30/08/2026 14h 37' 22" cPing.
30/08/2026 14h 37' 06" Ping reçu, 2933
30/08/2026 14h 36' 54" Ping reçu,         2930
30/08/2026 14h 36' 46" Ping reçu, 2928
30/08/2026 14h 36' 37" Ping reçu, 2926
30/08/2026 14h 36' 33" Ping reçu,         2925
30/08/2026 14h 36' 29" Ping reçu, 2924
30/08/2026 14h 36' 25" cPing.
30/08/2026 14h 36' 24" Ping reçu, 2923
30/08/2026 14h 36' 15" Ping reçu, 2921
30/08/2026 14h 36' 11" Ping reçu,         2920
30/08/2026 14h 35' 59" Ping reçu, 2917
30/08/2026 14h 35' 56" Ping reçu, 2916
30/08/2026 14h 35' 52" Ping reçu,         2915
30/08/2026 14h 35' 43" Ping reçu, 2913
30/08/2026 14h 35' 39" Ping reçu, 2912
30/08/2026 14h 35' 34" Ping reçu, 2911
30/08/2026 14h 35' 30" Ping reçu,         2910
30/08/2026 14h 35' 30" cPing.
30/08/2026 14h 35' 08" Ping reçu,         2905
30/08/2026 14h 35' 04" Ping reçu, 2904
30/08/2026 14h 35' 00" Ping reçu, 2903
30/08/2026 14h 34' 50" Enregistrement de l'éclairement (0 lux & 0 lux )
30/08/2026 14h 34' 44" Ping reçu, 2899
30/08/2026 14h 34' 36" Ping reçu, 2897
30/08/2026 14h 34' 33" cPing.
30/08/2026 14h 34' 32" Ping reçu, 2896
30/08/2026 14h 34' 27" Ping reçu,         2895
30/08/2026 14h 34' 18" Ping reçu, 2893
30/08/2026 14h 34' 09" Ping reçu, 2891
30/08/2026 14h 34' 05" Ping reçu,         2890
30/08/2026 14h 33' 57" Ping reçu, 2888
30/08/2026 14h 33' 52" Ping reçu, 2887
30/08/2026 14h 33' 44" Ping reçu,         2885
30/08/2026 14h 33' 43" Enregistrement de l'éclairement (0 lux & 0 lux )
30/08/2026 14h 33' 41" Ping reçu, 2884
30/08/2026 14h 33' 38" cPing.
30/08/2026 14h 33' 37" Ping reçu, 2883
30/08/2026 14h 33' 33" Ping reçu, 2882
30/08/2026 14h 33' 26" Pressions pluviométriques (32,07 & 64,00)
30/08/2026 14h 33' 26" Enregistrement de la température (25,599 °C)
30/08/2026 14h 33' 25" Ping reçu,         2880
30/08/2026 14h 33' 25" Enregistrement de la hauteur d'eau (783,130 mm @ 99,8%)
30/08/2026 14h 33' 24" Enregistrement de la Pression atmosphérique (1027,298 hPa)
30/08/2026 14h 33' 19" On a tout sauvé !
30/08/2026 14h 33' 17" Ping reçu, 2879
30/08/2026 14h 33' 10" Ping reçu, 2877
30/08/2026 14h 33' 05" Ping reçu, 2876
30/08/2026 14h 33' 00" Ping reçu,         2875
30/08/2026 14h 32' 56" Ping reçu, 2874
30/08/2026 14h 32' 48" Ping reçu, 2872
30/08/2026 14h 32' 42" cPing.
30/08/2026 14h 32' 39" Ping reçu,         2870
30/08/2026 14h 32' 35" Ping reçu, 2869
30/08/2026 14h 32' 31" Ping reçu, 2868
30/08/2026 14h 32' 27" Ping reçu, 2867
30/08/2026 14h 32' 20" Enregistrement de l'Arduino : (26,8 °C)
30/08/2026 14h 32' 12" Ping reçu, 2864
30/08/2026 14h 32' 07" Ping reçu, 2863
30/08/2026 14h 31' 59" Ping reçu, 2861
30/08/2026 14h 31' 54" Ping reçu,         2860
30/08/2026 14h 31' 50" Ping reçu, 2859
30/08/2026 14h 31' 46" Ping reçu, 2858
30/08/2026 14h 31' 45" cPing.
30/08/2026 14h 31' 42" Ping reçu, 2857
30/08/2026 14h 31' 38" Ping reçu, 2856
30/08/2026 14h 31' 36" ERR. Ther. 1 HS.
30/08/2026 14h 31' 35" Ping reçu,         2855
30/08/2026 14h 31' 29" Ping reçu, 2854
30/08/2026 14h 31' 24" Ping reçu, 2853
30/08/2026 14h 31' 23" Enregistrement de l'éclairement (0 lux & 0 lux )
30/08/2026 14h 31' 17" Ping reçu, 2851
30/08/2026 14h 31' 05" Ping reçu, 2848
30/08/2026 14h 31' 00" Ping reçu, 2847
30/08/2026 14h 30' 56" Ping reçu, 2846
30/08/2026 14h 30' 51" Ping reçu,         2845
30/08/2026 14h 30' 50" cPing.
30/08/2026 14h 30' 43" Ping reçu, 2843
30/08/2026 14h 30' 39" Ping reçu, 2842
30/08/2026 14h 30' 35" Ping reçu, 2841
30/08/2026 14h 30' 32" Ping reçu,         2840
30/08/2026 14h 30' 15" Ping reçu, 2836
30/08/2026 14h 30' 11" Ping reçu,         2835
30/08/2026 14h 30' 06" Ping reçu, 2834
30/08/2026 14h 30' 02" Ping reçu, 2833
30/08/2026 14h 29' 53" Ping reçu, 2831
30/08/2026 14h 29' 53" cPing.
30/08/2026 14h 29' 49" Ping reçu,         2830
30/08/2026 14h 29' 45" Ping reçu, 2829
30/08/2026 14h 29' 34" Ping reçu, 2826
30/08/2026 14h 29' 26" Ping reçu, 2824
30/08/2026 14h 29' 12" Enregistrement de l'éclairement (0 lux & 0 lux )
30/08/2026 14h 29' 12" Ping reçu, 2821
30/08/2026 14h 29' 12" Enregistrement de la température (25,078 °C)
30/08/2026 14h 29' 08" Ping reçu,         2820
30/08/2026 14h 28' 59" Ping reçu, 2818
30/08/2026 14h 28' 58" cPing.
30/08/2026 14h 28' 55" Ping reçu, 2817
30/08/2026 14h 28' 53" Ping reçu, 2816
30/08/2026 14h 28' 48" Ping reçu,         2815
30/08/2026 14h 28' 40" Ping reçu, 2813
30/08/2026 14h 28' 36" Ping reçu, 2812
30/08/2026 14h 28' 32" Ping reçu, 2811
30/08/2026 14h 28' 23" Ping reçu, 2809
30/08/2026 14h 28' 18" Ping reçu, 2808
30/08/2026 14h 28' 14" Ping reçu, 2807
30/08/2026 14h 28' 06" Enregistrement de l'éclairement (0 lux & 0 lux )
30/08/2026 14h 28' 00" cPing.
30/08/2026 14h 27' 54" Ping reçu, 2802
30/08/2026 14h 27' 50" Ping reçu, 2801
30/08/2026 14h 27' 47" Enregistrement de l'humidité (62,24 %)
30/08/2026 14h 27' 47" Ping reçu,         2800
30/08/2026 14h 27' 46" Enregistrement des paramètres du vent (49.1° @ 0 m/s)
30/08/2026 14h 27' 42" ERR. Ther. 1 HS.
30/08/2026 14h 27' 41" Ping reçu, 2799
30/08/2026 14h 27' 37" Ping reçu, 2798
30/08/2026 14h 27' 33" Ping reçu, 2797
30/08/2026 14h 27' 29" Ping reçu, 2796
30/08/2026 14h 27' 24" Ping reçu,         2795
30/08/2026 14h 27' 20" Ping reçu, 2794
30/08/2026 14h 27' 16" Ping reçu, 2793
30/08/2026 14h 27' 12" Ping reçu, 2792
30/08/2026 14h 27' 09" Ping reçu, 2791
30/08/2026 14h 27' 05" Ping reçu,         2790
30/08/2026 14h 27' 05" cPing.
30/08/2026 14h 26' 57" Enregistrement de l'éclairement (0 lux & 0 lux )
30/08/2026 14h 26' 56" Ping reçu, 2788
30/08/2026 14h 26' 43" Ping reçu,         2785
30/08/2026 14h 26' 30" Ping reçu, 2782
30/08/2026 14h 26' 26" Ping reçu, 2781
30/08/2026 14h 26' 12" Ping reçu, 2778
30/08/2026 14h 26' 08" Ping reçu, 2777
30/08/2026 14h 26' 08" cPing.
30/08/2026 14h 25' 56" Ping reçu, 2774
30/08/2026 14h 25' 48" Ping reçu, 2772
30/08/2026 14h 25' 40" Ping reçu,         2770
30/08/2026 14h 25' 36" Ping reçu, 2769
30/08/2026 14h 25' 33" Enregistrement Température du pluviometre : (25,3 °C)
30/08/2026 14h 25' 23" Ping reçu, 2767
30/08/2026 14h 25' 15" Ping reçu,         2765
30/08/2026 14h 25' 13" cPing.
30/08/2026 14h 25' 12" Ping reçu, 2764
30/08/2026 14h 25' 04" Ping reçu, 2762
30/08/2026 14h 24' 56" Ping reçu,         2760
30/08/2026 14h 24' 56" Enregistrement de la Pression atmosphérique (1027,383 hPa)
30/08/2026 14h 24' 50" Ping reçu, 2759
30/08/2026 14h 24' 46" Ping reçu, 2758
30/08/2026 14h 24' 42" Ping reçu, 2757
30/08/2026 14h 24' 41" Enregistrement de l'éclairement (13 lux & 0 lux )
30/08/2026 14h 24' 29" Ping reçu, 2754
30/08/2026 14h 24' 25" Ping reçu, 2753
30/08/2026 14h 24' 20" Ping reçu, 2752
30/08/2026 14h 24' 16" Ping reçu, 2751
30/08/2026 14h 24' 16" cPing.
30/08/2026 14h 24' 08" Ping reçu, 2749
30/08/2026 14h 24' 03" Ping reçu, 2748
30/08/2026 14h 24' 00" Ping reçu, 2747
30/08/2026 14h 23' 52" Ping reçu,         2745
30/08/2026 14h 23' 48" Ping reçu, 2744
30/08/2026 14h 23' 44" ERR. Ther. 1 HS.
30/08/2026 14h 23' 43" Ping reçu, 2743
30/08/2026 14h 23' 39" Ping reçu, 2742
30/08/2026 14h 23' 35" Ping reçu, 2741
30/08/2026 14h 23' 30" Ping reçu,         2740
30/08/2026 14h 23' 26" Ping reçu, 2739
30/08/2026 14h 23' 22" Ping reçu, 2738
30/08/2026 14h 23' 21" cPing.
30/08/2026 14h 23' 18" Ping reçu, 2737
30/08/2026 14h 23' 09" Ping reçu,         2735
30/08/2026 14h 23' 06" Ping reçu, 2734
30/08/2026 14h 23' 02" Ping reçu, 2733
30/08/2026 14h 22' 58" Ping reçu, 2732
30/08/2026 14h 22' 54" Ping reçu, 2731
30/08/2026 14h 22' 45" Ping reçu, 2729
30/08/2026 14h 22' 36" Ping reçu, 2727
30/08/2026 14h 22' 28" Ping reçu,         2725
30/08/2026 14h 22' 27" Enregistrement de l'éclairement (0 lux & 0 lux )
30/08/2026 14h 22' 24" cPing.
30/08/2026 14h 22' 21" Ping reçu, 2723
30/08/2026 14h 22' 13" Ping reçu, 2721
30/08/2026 14h 22' 09" Pressions pluviométriques (32,07 & 64,00)
30/08/2026 14h 22' 09" Ping reçu,         2720
30/08/2026 14h 22' 09" Enregistrement de la hauteur d'eau (783,130 mm @ 99,9%)
30/08/2026 14h 22' 08" Enregistrement des paramètres du vent (49.1° @ 0 m/s)
30/08/2026 14h 22' 02" Ping reçu, 2719
30/08/2026 14h 21' 59" Ping reçu, 2718
30/08/2026 14h 21' 55" Ping reçu, 2717
30/08/2026 14h 21' 47" Ping reçu,         2715
30/08/2026 14h 21' 38" Ping reçu, 2713
30/08/2026 14h 21' 34" Ping reçu, 2712
30/08/2026 14h 21' 29" Ping reçu, 2711
30/08/2026 14h 21' 29" cPing.
30/08/2026 14h 21' 25" Ping reçu,         2710
30/08/2026 14h 21' 21" Ping reçu, 2709
30/08/2026 14h 21' 20" Enregistrement de l'éclairement (0 lux & 0 lux )
30/08/2026 14h 21' 10" Ping reçu, 2706
30/08/2026 14h 21' 06" Ping reçu,         2705
30/08/2026 14h 20' 57" Ping reçu, 2703
30/08/2026 14h 20' 53" Ping reçu, 2702
30/08/2026 14h 20' 48" Ping reçu, 2701
30/08/2026 14h 20' 48" Enregistrement de la température (24,606 °C)
30/08/2026 14h 20' 44" Ping reçu,         2700
30/08/2026 14h 20' 40" Ping reçu, 2699
30/08/2026 14h 20' 32" Ping reçu, 2697
30/08/2026 14h 20' 32" cPing.
30/08/2026 14h 20' 27" Ping reçu, 2696
30/08/2026 14h 20' 14" Ping reçu, 2693
30/08/2026 14h 20' 13" Enregistrement de l'éclairement (4.3 lux & 0 lux )
30/08/2026 14h 20' 11" Ping reçu, 2692
30/08/2026 14h 20' 07" Ping reçu, 2691
30/08/2026 14h 20' 03" Ping reçu,         2690
30/08/2026 14h 19' 59" Ping reçu, 2689
30/08/2026 14h 19' 54" Ping reçu, 2688
30/08/2026 14h 19' 51" ERR. Ther. 1 HS.
30/08/2026 14h 19' 50" Ping reçu, 2687
30/08/2026 14h 19' 36" cPing.
30/08/2026 14h 19' 33" Ping reçu, 2683
30/08/2026 14h 19' 26" Ping reçu, 2681
30/08/2026 14h 19' 17" Ping reçu, 2679
30/08/2026 14h 19' 13" Ping reçu, 2678
30/08/2026 14h 19' 09" Ping reçu, 2677
30/08/2026 14h 19' 05" Ping reçu, 2676
30/08/2026 14h 19' 04" Enregistrement de l'éclairement (0 lux & 0 lux )
30/08/2026 14h 18' 57" Enregistrement de l'Arduino : (26,5 °C)
30/08/2026 14h 18' 51" On a tout sauvé !
30/08/2026 14h 18' 50" Ping reçu, 2673
30/08/2026 14h 18' 41" Ping reçu, 2671
30/08/2026 14h 18' 41" cPing.
30/08/2026 14h 18' 35" Ping reçu,         2670
30/08/2026 14h 18' 26" Ping reçu, 2668
30/08/2026 14h 18' 23" Ping reçu, 2667
30/08/2026 14h 18' 19" Ping reçu, 2666
30/08/2026 14h 18' 15" Ping reçu,         2665
30/08/2026 14h 18' 11" Ping reçu, 2664
30/08/2026 14h 18' 06" Ping reçu, 2663
30/08/2026 14h 18' 02" Ping reçu, 2662
30/08/2026 14h 17' 58" Ping reçu, 2661
30/08/2026 14h 17' 57" Enregistrement de l'éclairement (0 lux & 0 lux )
30/08/2026 14h 17' 56" Enregistrement de l'humidité (62,46 %)
30/08/2026 14h 17' 54" Ping reçu,         2660
30/08/2026 14h 17' 47" Ping reçu, 2658
30/08/2026 14h 17' 44" cPing.
30/08/2026 14h 17' 27" Ping reçu, 2654
30/08/2026 14h 17' 23" Ping reçu, 2653
30/08/2026 14h 17' 20" Ping reçu, 2652
30/08/2026 14h 17' 16" Ping reçu, 2651
30/08/2026 14h 17' 12" Ping reçu,         2650
30/08/2026 14h 17' 08" Ping reçu, 2649
30/08/2026 14h 17' 03" Ping reçu, 2648
30/08/2026 14h 16' 50" Enregistrement de l'éclairement (0 lux & 0 lux )
30/08/2026 14h 16' 50" Ping reçu,         2645
30/08/2026 14h 16' 49" cPing.
30/08/2026 14h 16' 47" Ping reçu, 2644
30/08/2026 14h 16' 44" Ping reçu, 2643
30/08/2026 14h 16' 33" Enregistrement de la température (24,850 °C)
30/08/2026 14h 16' 32" Ping reçu,         2640
30/08/2026 14h 16' 31" Enregistrement des paramètres du vent (49.1° @ 0 m/s)
30/08/2026 14h 16' 31" Enregistrement de la Pression atmosphérique (1027,425 hPa)
30/08/2026 14h 16' 24" Ping reçu, 2639
30/08/2026 14h 16' 21" Ping reçu, 2638
30/08/2026 14h 16' 13" Ping reçu, 2636
30/08/2026 14h 16' 09" Ping reçu,         2635
30/08/2026 14h 16' 05" Ping reçu, 2634
30/08/2026 14h 16' 00" Ping reçu, 2633
30/08/2026 14h 15' 56" Ping reçu, 2632
30/08/2026 14h 15' 55" ERR. Ther. 1 HS.
30/08/2026 14h 15' 54" Ping reçu, 2631
30/08/2026 14h 15' 52" cPing.
30/08/2026 14h 15' 48" Ping reçu,         2630
30/08/2026 14h 15' 44" Ping reçu, 2629
30/08/2026 14h 15' 43" Enregistrement de l'éclairement (0 lux & 0 lux )
30/08/2026 14h 15' 41" Ping reçu, 2628
30/08/2026 14h 15' 37" Ping reçu, 2627
30/08/2026 14h 15' 28" Ping reçu,         2625
30/08/2026 14h 15' 24" Ping reçu, 2624
30/08/2026 14h 15' 15" Ping reçu, 2622
30/08/2026 14h 15' 06" Ping reçu,         2620
30/08/2026 14h 15' 02" Ping reçu, 2619
30/08/2026 14h 14' 58" Ping reçu, 2618
30/08/2026 14h 14' 57" cPing.
30/08/2026 14h 14' 51" Ping reçu, 2616
30/08/2026 14h 14' 47" Ping reçu,         2615
30/08/2026 14h 14' 42" Ping reçu, 2614
30/08/2026 14h 14' 38" Ping reçu, 2613
30/08/2026 14h 14' 34" Ping reçu, 2612
30/08/2026 14h 14' 30" Ping reçu, 2611
30/08/2026 14h 14' 26" Ping reçu,         2610
30/08/2026 14h 14' 21" Ping reçu, 2609
30/08/2026 14h 14' 17" Ping reçu, 2608
30/08/2026 14h 14' 13" Ping reçu, 2607
30/08/2026 14h 14' 00" cPing.
30/08/2026 14h 13' 56" Ping reçu, 2603
30/08/2026 14h 13' 53" Ping reçu, 2602
30/08/2026 14h 13' 44" Ping reçu,         2600
30/08/2026 14h 13' 40" Ping reçu, 2599
30/08/2026 14h 13' 27" Ping reçu, 2596
30/08/2026 14h 13' 21" Ping reçu,         2595
30/08/2026 14h 13' 17" Ping reçu, 2594
30/08/2026 14h 13' 13" Ping reçu, 2593
30/08/2026 14h 13' 09" Ping reçu, 2592
30/08/2026 14h 13' 05" cPing.
30/08/2026 14h 13' 04" Ping reçu, 2591
30/08/2026 14h 13' 00" Ping reçu,         2590
30/08/2026 14h 12' 47" Ping reçu, 2587
30/08/2026 14h 12' 38" Ping reçu,         2585
30/08/2026 14h 12' 34" Ping reçu, 2584
30/08/2026 14h 12' 30" Ping reçu, 2583
30/08/2026 14h 12' 27" Ping reçu, 2582
30/08/2026 14h 12' 23" Ping reçu, 2581
30/08/2026 14h 12' 21" Enregistrement de la température (25,008 °C)
30/08/2026 14h 12' 20" Enregistrement de l'éclairement (0 lux & 0 lux )
30/08/2026 14h 12' 10" Ping reçu, 2578
30/08/2026 14h 12' 07" cPing.
30/08/2026 14h 12' 02" Ping reçu, 2576
30/08/2026 14h 11' 58" ERR. Ther. 1 HS.
30/08/2026 14h 11' 57" Ping reçu,         2575
30/08/2026 14h 11' 53" Ping reçu, 2574
30/08/2026 14h 11' 44" Ping reçu, 2572
30/08/2026 14h 11' 36" Ping reçu,         2570
30/08/2026 14h 11' 33" Ping reçu, 2569
30/08/2026 14h 11' 23" Ping reçu, 2567
30/08/2026 14h 11' 20" Ping reçu, 2566
30/08/2026 14h 11' 16" Ping reçu,         2565
30/08/2026 14h 11' 13" Enregistrement de l'éclairement (0 lux & 0 lux )
30/08/2026 14h 11' 12" cPing.
30/08/2026 14h 11' 08" Ping reçu, 2563
30/08/2026 14h 10' 56" Pressions pluviométriques (32,07 & 64,00)
30/08/2026 14h 10' 55" Enregistrement de la hauteur d'eau (783,260 mm @ 99,8%)
30/08/2026 14h 10' 55" Ping reçu,         2560
30/08/2026 14h 10' 50" Ping reçu, 2559
30/08/2026 14h 10' 41" Ping reçu, 2557
30/08/2026 14h 10' 36" Ping reçu, 2556
30/08/2026 14h 10' 32" Ping reçu,         2555
30/08/2026 14h 10' 27" Ping reçu, 2554
30/08/2026 14h 10' 23" Ping reçu, 2553
30/08/2026 14h 10' 19" Ping reçu, 2552
30/08/2026 14h 10' 15" Ping reçu, 2551
30/08/2026 14h 10' 15" cPing.
30/08/2026 14h 10' 08" Ping reçu, 2549
30/08/2026 14h 10' 04" Ping reçu, 2548
30/08/2026 14h 10' 00" Ping reçu, 2547
30/08/2026 14h 09' 55" Ping reçu, 2546
30/08/2026 14h 09' 47" Ping reçu, 2544
30/08/2026 14h 09' 42" Ping reçu, 2543
30/08/2026 14h 09' 38" Ping reçu, 2542
30/08/2026 14h 09' 33" Ping reçu, 2541
30/08/2026 14h 09' 29" Ping reçu,         2540
30/08/2026 14h 09' 20" cPing.
30/08/2026 14h 09' 16" Ping reçu, 2537
30/08/2026 14h 09' 08" Ping reçu,         2535
30/08/2026 14h 09' 05" Ping reçu, 2534
30/08/2026 14h 09' 01" Ping reçu, 2533
30/08/2026 14h 09' 00" Enregistrement de l'éclairement (0 lux & 0 lux )
30/08/2026 14h 08' 53" Ping reçu, 2531
30/08/2026 14h 08' 48" Ping reçu,         2530
30/08/2026 14h 08' 26" Ping reçu,         2525
30/08/2026 14h 08' 24" cPing.
30/08/2026 14h 08' 14" Ping reçu, 2522
30/08/2026 14h 08' 08" Enregistrement de la température (24,932 °C)
30/08/2026 14h 08' 07" Enregistrement de la Pression atmosphérique (1027,390 hPa)
30/08/2026 14h 08' 07" Enregistrement de l'humidité (63,56 %)
30/08/2026 14h 08' 02" ERR. Ther. 1 HS.
30/08/2026 14h 08' 00" Ping reçu, 2519
30/08/2026 14h 07' 56" Ping reçu, 2518
30/08/2026 14h 07' 53" Ping reçu, 2517
30/08/2026 14h 07' 49" Ping reçu, 2516
30/08/2026 14h 07' 36" Ping reçu, 2513
30/08/2026 14h 07' 32" Ping reçu, 2512
30/08/2026 14h 07' 27" cPing.
30/08/2026 14h 07' 27" Ping reçu, 2511
30/08/2026 14h 07' 23" Ping reçu,         2510
30/08/2026 14h 07' 09" Ping reçu, 2507
30/08/2026 14h 07' 05" Ping reçu, 2506
30/08/2026 14h 07' 02" Ping reçu,         2505
30/08/2026 14h 06' 57" Ping reçu, 2504
30/08/2026 14h 06' 46" Ping reçu, 2501
30/08/2026 14h 06' 43" Enregistrement de l'éclairement (0 lux & 0 lux )
30/08/2026 14h 06' 38" Ping reçu, 2499
30/08/2026 14h 06' 33" Ping reçu, 2498
30/08/2026 14h 06' 32" cPing.
30/08/2026 14h 06' 29" Ping reçu, 2497
30/08/2026 14h 06' 20" Ping reçu,         2495
30/08/2026 14h 06' 16" Ping reçu, 2494
30/08/2026 14h 06' 07" Ping reçu, 2492
30/08/2026 14h 06' 03" Ping reçu, 2491
30/08/2026 14h 05' 59" Ping reçu,         2490
30/08/2026 14h 05' 56" Ping reçu, 2489
30/08/2026 14h 05' 52" Ping reçu, 2488
30/08/2026 14h 05' 44" Ping reçu, 2486
30/08/2026 14h 05' 39" Ping reçu,         2485
30/08/2026 14h 05' 35" Ping reçu, 2484
30/08/2026 14h 05' 35" cPing.
30/08/2026 14h 05' 29" Ping reçu, 2483
30/08/2026 14h 05' 26" Ping reçu, 2482
30/08/2026 14h 05' 12" Ping reçu, 2479
30/08/2026 14h 05' 08" Ping reçu, 2478
30/08/2026 14h 05' 03" Ping reçu, 2477
30/08/2026 14h 04' 59" Ping reçu, 2476
30/08/2026 14h 04' 55" Ping reçu,         2475
30/08/2026 14h 04' 51" Ping reçu, 2474
30/08/2026 14h 04' 40" cPing.
30/08/2026 14h 04' 39" Ping reçu, 2471
30/08/2026 14h 04' 35" Ping reçu,         2470
30/08/2026 14h 04' 27" Enregistrement de l'éclairement (0 lux & 0 lux )
30/08/2026 14h 04' 27" Ping reçu, 2468
30/08/2026 14h 04' 18" Ping reçu, 2466
30/08/2026 14h 04' 17" Ping reçu, 1
30/08/2026 14h 04' 09" Ping reçu, 2464
30/08/2026 14h 04' 08" Ping reçu, 1
30/08/2026 14h 04' 05" ERR. Ther. 1 HS.
30/08/2026 14h 04' 04" Ping reçu, 2463
30/08/2026 14h 04' 00" Ping reçu, 2462
30/08/2026 14h 03' 56" On a tout sauvé !
30/08/2026 14h 03' 56" Ping reçu, 2461
30/08/2026 14h 03' 53" Enregistrement de la température (24,856 °C)
30/08/2026 14h 03' 51" Ping reçu,         2460
30/08/2026 14h 03' 47" Ping reçu, 2459
30/08/2026 14h 03' 43" cPing.
30/08/2026 14h 03' 42" Ping reçu, 2458
30/08/2026 14h 03' 38" Ping reçu, 2457
30/08/2026 14h 03' 34" Ping reçu, 2456
30/08/2026 14h 03' 30" Ping reçu,         2455
30/08/2026 14h 03' 26" Ping reçu, 2454
30/08/2026 14h 03' 17" Ping reçu, 2452
30/08/2026 14h 03' 14" Ping reçu, 2451
30/08/2026 14h 03' 10" Ping reçu,         2450
30/08/2026 14h 03' 05" Ping reçu, 2449
30/08/2026 14h 03' 01" Ping reçu, 2448
30/08/2026 14h 02' 56" Ping reçu, 2447
30/08/2026 14h 02' 48" Ping reçu,         2445
30/08/2026 14h 02' 48" cPing.
30/08/2026 14h 02' 43" Ping reçu, 2444
30/08/2026 14h 02' 39" Ping reçu, 2443
30/08/2026 14h 02' 35" Ping reçu, 2442
30/08/2026 14h 02' 26" Ping reçu,         2440
30/08/2026 14h 02' 21" Ping reçu, 2439
30/08/2026 14h 02' 17" Ping reçu, 2438
30/08/2026 14h 02' 12" Enregistrement de l'éclairement (0 lux & 0 lux )
30/08/2026 14h 02' 09" Ping reçu, 2436
30/08/2026 14h 02' 06" Ping reçu,         2435
30/08/2026 14h 01' 54" Ping reçu, 2432
30/08/2026 14h 01' 51" cPing.
30/08/2026 14h 01' 49" Ping reçu, 2431
30/08/2026 14h 01' 45" Ping reçu,         2430
30/08/2026 14h 01' 41" Ping reçu, 2429
30/08/2026 14h 01' 32" Ping reçu, 2427
30/08/2026 14h 01' 28" Ping reçu, 2426
30/08/2026 14h 01' 24" Ping reçu,         2425
30/08/2026 14h 01' 21" Ping reçu, 2424
30/08/2026 14h 01' 11" Enregistrement Température du pluviometre : (24,3 °C)
30/08/2026 14h 01' 09" Ping reçu, 2422
30/08/2026 14h 01' 05" Ping reçu, 2421
30/08/2026 14h 01' 00" Ping reçu,         2420
30/08/2026 14h 00' 56" Ping reçu, 2419
30/08/2026 14h 00' 56" cPing.
30/08/2026 14h 00' 51" Ping reçu, 2418
30/08/2026 14h 00' 47" Ping reçu, 2417
30/08/2026 14h 00' 43" Ping reçu, 2416
30/08/2026 14h 00' 41" On purge les valeurs du crystal...
30/08/2026 14h 00' 39" Ping reçu,         2415
30/08/2026 14h 00' 35" Ping reçu, 2414
30/08/2026 14h 00' 33" On purge les valeurs du crystal...
30/08/2026 14h 00' 30" Ping reçu, 2413
30/08/2026 14h 00' 27" Ping reçu, 2412
30/08/2026 14h 00' 24" On purge les valeurs du crystal...
30/08/2026 14h 00' 15" On purge les valeurs du crystal...
30/08/2026 14h 00' 15" Ping reçu, 2409
30/08/2026 14h 00' 07" ERR. Ther. 1 HS.
30/08/2026 14h 00' 06" Ping reçu, 2407
30/08/2026 14h 00' 02" Ping reçu, 2406
30/08/2026 14h 00' 00" cPing.
30/08/2026 13h 59' 58" Ping reçu,         2405
30/08/2026 13h 59' 56" Enregistrement de l'éclairement (47.5 lux & 0 lux )
30/08/2026 13h 59' 54" Ping reçu, 2404
30/08/2026 13h 59' 51" Ping reçu, 2403
30/08/2026 13h 59' 47" Ping reçu, 2402
30/08/2026 13h 59' 42" Ping reçu, 2401
30/08/2026 13h 59' 39" Enregistrement de la température (24,730 °C)
30/08/2026 13h 59' 39" Ping reçu,         2400
30/08/2026 13h 59' 38" Enregistrement de la Pression atmosphérique (1027,458 hPa)
30/08/2026 13h 59' 38" Enregistrement des paramètres du vent (49.2° @ 0 m/s)
30/08/2026 13h 59' 31" Ping reçu, 2399
30/08/2026 13h 59' 27" Ping reçu, 2398
30/08/2026 13h 59' 24" Ping reçu, 2397
30/08/2026 13h 59' 20" Ping reçu, 2396
30/08/2026 13h 59' 08" Ping reçu, 2393
30/08/2026 13h 59' 03" cPing.
30/08/2026 13h 58' 54" Ping reçu,         2390
30/08/2026 13h 58' 50" Ping reçu, 2389
30/08/2026 13h 58' 49" Enregistrement de l'éclairement (34.6 lux & 0 lux )
30/08/2026 13h 58' 41" Ping reçu, 2387
30/08/2026 13h 58' 38" Ping reçu, 2386
30/08/2026 13h 58' 35" Ping reçu,         2385
30/08/2026 13h 58' 26" Ping reçu, 2383
30/08/2026 13h 58' 14" Enregistrement de l'humidité (65,55 %)
30/08/2026 13h 58' 14" Ping reçu,         2380
30/08/2026 13h 58' 08" cPing.
30/08/2026 13h 58' 05" Ping reçu, 2378
30/08/2026 13h 57' 56" Ping reçu, 2376
30/08/2026 13h 57' 52" Ping reçu,         2375
30/08/2026 13h 57' 42" Enregistrement de l'éclairement (21.6 lux & 0 lux )
30/08/2026 13h 57' 39" Ping reçu, 2372
30/08/2026 13h 57' 36" Ping reçu, 2371
30/08/2026 13h 57' 32" Ping reçu,         2370
30/08/2026 13h 57' 28" Ping reçu, 2369
30/08/2026 13h 57' 24" Ping reçu, 2368
30/08/2026 13h 57' 19" Ping reçu, 2367
30/08/2026 13h 57' 15" Ping reçu, 2366
30/08/2026 13h 57' 11" Ping reçu,         2365
30/08/2026 13h 57' 11" cPing.
30/08/2026 13h 56' 49" Ping reçu,         2360
30/08/2026 13h 56' 45" Ping reçu, 2359
30/08/2026 13h 56' 30" Ping reçu,         2355
30/08/2026 13h 56' 21" Ping reçu, 2353
30/08/2026 13h 56' 17" Ping reçu, 2352
30/08/2026 13h 56' 14" cPing.
30/08/2026 13h 56' 04" Ping reçu, 2349
30/08/2026 13h 55' 55" Ping reçu, 2347
30/08/2026 13h 55' 51" Ping reçu, 2346
30/08/2026 13h 55' 48" Ping reçu,         2345
30/08/2026 13h 55' 31" Ping reçu, 2341
30/08/2026 13h 55' 28" Enregistrement de la température (24,602 °C)
30/08/2026 13h 55' 23" Ping reçu, 2339
30/08/2026 13h 55' 18" cPing.
30/08/2026 13h 55' 14" Ping reçu, 2337
30/08/2026 13h 55' 09" Ping reçu, 2336
30/08/2026 13h 55' 05" Ping reçu,         2335
30/08/2026 13h 55' 01" Ping reçu, 2334
30/08/2026 13h 54' 56" Ping reçu, 2333
30/08/2026 13h 54' 52" Ping reçu, 2332
30/08/2026 13h 54' 44" Ping reçu,         2330
30/08/2026 13h 54' 41" Ping reçu, 2329
30/08/2026 13h 54' 37" Ping reçu, 2328
30/08/2026 13h 54' 33" Ping reçu, 2327
30/08/2026 13h 54' 29" Ping reçu, 2326
30/08/2026 13h 54' 24" Ping reçu,         2325
30/08/2026 13h 54' 23" Enregistrement de l'éclairement (0 lux & 0 lux )
30/08/2026 13h 54' 23" cPing.
30/08/2026 13h 54' 16" Ping reçu, 2323
30/08/2026 13h 54' 12" Ping reçu, 2322
30/08/2026 13h 54' 08" Ping reçu, 2321
30/08/2026 13h 54' 03" Enregistrement des paramètres du vent (49.2° @ 0 m/s)
30/08/2026 13h 54' 00" Ping reçu, 2319
30/08/2026 13h 53' 56" Ping reçu, 2318
30/08/2026 13h 53' 52" Ping reçu, 2317
30/08/2026 13h 53' 48" Ping reçu, 2316
30/08/2026 13h 53' 44" Ping reçu,         2315
30/08/2026 13h 53' 39" Ping reçu, 2314
30/08/2026 13h 53' 35" Ping reçu, 2313
30/08/2026 13h 53' 31" Ping reçu, 2312
30/08/2026 13h 53' 26" cPing.
30/08/2026 13h 53' 22" Ping reçu,         2310
30/08/2026 13h 53' 14" Ping reçu, 2308
30/08/2026 13h 53' 11" Ping reçu, 2307
30/08/2026 13h 53' 07" Ping reçu, 2306
30/08/2026 13h 52' 59" Ping reçu, 2304
30/08/2026 13h 52' 54" Ping reçu, 2303
30/08/2026 13h 52' 45" Ping reçu, 2301
30/08/2026 13h 52' 41" Ping reçu,         2300
30/08/2026 13h 52' 31" cPing.
30/08/2026 13h 52' 23" Ping reçu, 2296
30/08/2026 13h 52' 08" Enregistrement de l'Arduino : (25,0 °C)
30/08/2026 13h 52' 05" Enregistrement de l'éclairement (17.3 lux & 0 lux )
30/08/2026 13h 52' 04" Ping reçu, 2292
30/08/2026 13h 52' 00" Ping reçu, 2291
30/08/2026 13h 51' 56" Ping reçu,         2290
30/08/2026 13h 51' 51" Ping reçu, 2289
30/08/2026 13h 51' 42" Ping reçu, 2287
30/08/2026 13h 51' 34" Ping reçu,         2285
30/08/2026 13h 51' 34" cPing.
30/08/2026 13h 51' 30" Ping reçu, 2284
30/08/2026 13h 51' 27" Ping reçu, 2283
30/08/2026 13h 51' 23" Ping reçu, 2282
30/08/2026 13h 51' 19" Ping reçu, 2281
30/08/2026 13h 51' 16" Enregistrement de la température (24,401 °C)
30/08/2026 13h 51' 15" Enregistrement de la Pression atmosphérique (1027,533 hPa)
30/08/2026 13h 51' 15" Ping reçu,         2280
30/08/2026 13h 51' 10" Ping reçu, 2279
30/08/2026 13h 51' 06" Ping reçu, 2278
30/08/2026 13h 51' 02" Ping reçu, 2277
30/08/2026 13h 51' 01" Enregistrement de l'éclairement (38.9 lux & 0 lux )
30/08/2026 13h 50' 53" Ping reçu,         2275
30/08/2026 13h 50' 48" Ping reçu, 2274
30/08/2026 13h 50' 44" Ping reçu, 2273
30/08/2026 13h 50' 40" Ping reçu, 2272
30/08/2026 13h 50' 39" cPing.
30/08/2026 13h 50' 36" Ping reçu, 2271
30/08/2026 13h 50' 32" Ping reçu,         2270
30/08/2026 13h 50' 25" Ping reçu, 2268
30/08/2026 13h 50' 07" Ping reçu, 2264
30/08/2026 13h 50' 03" Ping reçu, 2263
30/08/2026 13h 49' 59" Ping reçu, 2262
30/08/2026 13h 49' 54" Ping reçu, 2261
30/08/2026 13h 49' 51" Enregistrement de l'éclairement (64.8 lux & 0 lux )
30/08/2026 13h 49' 50" Ping reçu,         2260
30/08/2026 13h 49' 42" cPing.
30/08/2026 13h 49' 42" Ping reçu, 1
30/08/2026 13h 49' 37" Ping reçu, 2257
30/08/2026 13h 49' 33" Ping reçu, 2256
30/08/2026 13h 49' 29" On a tout sauvé !
30/08/2026 13h 49' 28" Ping reçu,         2255
30/08/2026 13h 49' 19" Ping reçu, 2253
30/08/2026 13h 49' 12" Ping reçu, 2251
30/08/2026 13h 49' 08" Ping reçu,         2250
30/08/2026 13h 48' 51" Ping reçu, 2247
30/08/2026 13h 48' 47" Ping reçu, 2246
30/08/2026 13h 48' 47" cPing.
30/08/2026 13h 48' 42" Enregistrement de l'éclairement (60.5 lux & 0 lux )
30/08/2026 13h 48' 38" Ping reçu, 2244
30/08/2026 13h 48' 34" Ping reçu, 2243
30/08/2026 13h 48' 26" Ping reçu, 2241
30/08/2026 13h 48' 24" Pressions pluviométriques (32,07 & 64,00)
30/08/2026 13h 48' 24" Enregistrement de la hauteur d'eau (783,600 mm @ 99,8%)
30/08/2026 13h 48' 21" Enregistrement des paramètres du vent (49.1° @ 0 m/s)
30/08/2026 13h 48' 21" Enregistrement de l'humidité (67,99 %)
30/08/2026 13h 48' 17" ERR. Ther. 1 HS.
30/08/2026 13h 48' 17" ERR. Ther. 10 HS.
30/08/2026 13h 48' 15" Ping reçu, 2239
30/08/2026 13h 48' 11" Ping reçu, 2238
30/08/2026 13h 48' 03" Ping reçu, 2236
30/08/2026 13h 48' 00" Ping reçu,         2235
30/08/2026 13h 47' 56" Ping reçu, 2234
30/08/2026 13h 47' 52" Ping reçu, 2233
30/08/2026 13h 47' 50" cPing.
30/08/2026 13h 47' 39" Ping reçu,         2230
30/08/2026 13h 47' 35" Ping reçu, 2229
30/08/2026 13h 47' 31" Ping reçu, 2228
30/08/2026 13h 47' 22" Ping reçu, 2226
30/08/2026 13h 47' 18" Ping reçu,         2225
30/08/2026 13h 47' 09" Ping reçu, 2223
30/08/2026 13h 47' 06" Ping reçu, 2222
30/08/2026 13h 46' 59" Enregistrement de la température (24,359 °C)
30/08/2026 13h 46' 58" Ping reçu,         2220
30/08/2026 13h 46' 54" cPing.
30/08/2026 13h 46' 53" Ping reçu, 2219
30/08/2026 13h 46' 49" Ping reçu, 2218
30/08/2026 13h 46' 40" Ping reçu, 2216
30/08/2026 13h 46' 36" Ping reçu,         2215
30/08/2026 13h 46' 32" Ping reçu, 2214
30/08/2026 13h 46' 27" Ping reçu, 2213
30/08/2026 13h 46' 26" Enregistrement de l'éclairement (0 lux & 0 lux )
30/08/2026 13h 46' 23" Ping reçu, 2212
30/08/2026 13h 46' 19" Ping reçu, 2211
30/08/2026 13h 46' 11" Ping reçu, 2209
30/08/2026 13h 46' 02" Ping reçu, 2207
30/08/2026 13h 45' 59" Ping reçu, 2206
30/08/2026 13h 45' 59" cPing.
30/08/2026 13h 45' 47" Ping reçu, 2203
30/08/2026 13h 45' 42" Ping reçu, 2202
30/08/2026 13h 45' 38" Ping reçu, 2201
30/08/2026 13h 45' 29" Ping reçu, 2199
30/08/2026 13h 45' 21" Ping reçu, 2197
30/08/2026 13h 45' 20" Enregistrement de l'éclairement (4.3 lux & 0 lux )
30/08/2026 13h 45' 18" Ping reçu, 2196
30/08/2026 13h 45' 05" Ping reçu, 2193
30/08/2026 13h 45' 02" cPing.
30/08/2026 13h 45' 01" Ping reçu, 2192
30/08/2026 13h 44' 52" Ping reçu,         2190
30/08/2026 13h 44' 48" Ping reçu, 2189
30/08/2026 13h 44' 43" Ping reçu, 2188
30/08/2026 13h 44' 39" Ping reçu, 2187
30/08/2026 13h 44' 30" Ping reçu,         2185
30/08/2026 13h 44' 27" Ping reçu, 2184
30/08/2026 13h 44' 25" ERR. Ther. 14 HS.
30/08/2026 13h 44' 24" ERR. Ther. 1 HS.
30/08/2026 13h 44' 22" Ping reçu, 2183
30/08/2026 13h 44' 16" Enregistrement de l'éclairement (13 lux & 0 lux )
30/08/2026 13h 44' 11" Ping reçu,         2180
30/08/2026 13h 44' 07" Ping reçu, 2179
30/08/2026 13h 44' 07" cPing.
30/08/2026 13h 44' 03" Ping reçu, 2178
30/08/2026 13h 43' 59" Ping reçu, 2177
30/08/2026 13h 43' 54" Ping reçu, 2176
30/08/2026 13h 43' 36" Ping reçu, 2172
30/08/2026 13h 43' 28" Ping reçu,         2170
30/08/2026 13h 43' 24" Ping reçu, 2169
30/08/2026 13h 43' 15" Ping reçu, 2167
30/08/2026 13h 43' 12" Ping reçu, 2166
30/08/2026 13h 43' 10" cPing.
30/08/2026 13h 43' 08" Ping reçu,         2165
30/08/2026 13h 43' 00" Ping reçu, 2163
30/08/2026 13h 42' 51" Ping reçu, 2161
30/08/2026 13h 42' 47" Enregistrement de la Pression atmosphérique (1027,522 hPa)
30/08/2026 13h 42' 47" Ping reçu,         2160
30/08/2026 13h 42' 41" Ping reçu, 2159
30/08/2026 13h 42' 37" Ping reçu, 2158
30/08/2026 13h 42' 29" Ping reçu, 2156
30/08/2026 13h 42' 24" Ping reçu,         2155
30/08/2026 13h 42' 20" Ping reçu, 2154
30/08/2026 13h 42' 16" Ping reçu, 2153
30/08/2026 13h 42' 14" cPing.
30/08/2026 13h 42' 12" Ping reçu, 2152
30/08/2026 13h 42' 07" Ping reçu, 2151
30/08/2026 13h 42' 03" Ping reçu,         2150
30/08/2026 13h 41' 59" Ping reçu, 2149
30/08/2026 13h 41' 58" Enregistrement de l'éclairement (77.8 lux & 0 lux )
30/08/2026 13h 41' 52" Ping reçu, 2147
30/08/2026 13h 41' 48" Ping reçu, 2146
30/08/2026 13h 41' 35" Ping reçu, 2143
30/08/2026 13h 41' 30" Ping reçu, 2142
30/08/2026 13h 41' 26" Ping reçu, 2141
30/08/2026 13h 41' 22" Ping reçu,         2140
30/08/2026 13h 41' 18" Ping reçu, 2139
30/08/2026 13h 41' 17" cPing.
30/08/2026 13h 41' 11" Ping reçu, 2137
30/08/2026 13h 41' 07" Ping reçu, 2136
30/08/2026 13h 41' 03" Ping reçu,         2135
30/08/2026 13h 40' 50" Ping reçu, 2132
30/08/2026 13h 40' 45" Ping reçu, 2131
30/08/2026 13h 40' 41" Ping reçu,         2130
30/08/2026 13h 40' 37" Ping reçu, 2129
30/08/2026 13h 40' 33" Ping reçu, 2128
30/08/2026 13h 40' 31" ERR. Ther. 14 HS.
30/08/2026 13h 40' 30" ERR. Ther. 1 HS.
30/08/2026 13h 40' 28" Ping reçu, 2127
30/08/2026 13h 40' 24" Ping reçu, 2126
30/08/2026 13h 40' 22" cPing.
30/08/2026 13h 40' 21" Ping reçu,         2125
30/08/2026 13h 40' 13" Ping reçu, 2123
30/08/2026 13h 40' 09" Ping reçu, 2122
30/08/2026 13h 40' 00" Ping reçu,         2120
30/08/2026 13h 39' 56" Ping reçu, 2119
30/08/2026 13h 39' 53" Enregistrement de l'éclairement (73.5 lux & 0 lux )
30/08/2026 13h 39' 52" Ping reçu, 2118
30/08/2026 13h 39' 48" Ping reçu, 2117
30/08/2026 13h 39' 44" Ping reçu, 2116
30/08/2026 13h 39' 39" Ping reçu,         2115
30/08/2026 13h 39' 35" Ping reçu, 2114
30/08/2026 13h 39' 32" Ping reçu, 2113
30/08/2026 13h 39' 29" Ping reçu, 2112
30/08/2026 13h 39' 25" cPing.
30/08/2026 13h 39' 24" Ping reçu, 2111
30/08/2026 13h 39' 15" Ping reçu, 2109
30/08/2026 13h 39' 11" Ping reçu, 2108
30/08/2026 13h 39' 06" Ping reçu, 2107
30/08/2026 13h 39' 02" Ping reçu, 2106
30/08/2026 13h 38' 58" Ping reçu,         2105
30/08/2026 13h 38' 56" Ping reçu, 2104
30/08/2026 13h 38' 47" Ping reçu, 2102
30/08/2026 13h 38' 45" Enregistrement de l'Arduino : (24,8 °C)
30/08/2026 13h 38' 40" Ping reçu, 2101
30/08/2026 13h 38' 36" Ping reçu,         2100
30/08/2026 13h 38' 36" Enregistrement de l'humidité (70,65 %)
30/08/2026 13h 38' 31" Ping reçu, 2099
30/08/2026 13h 38' 30" cPing.
30/08/2026 13h 38' 27" Ping reçu, 2098
30/08/2026 13h 38' 24" Ping reçu, 2097
30/08/2026 13h 38' 14" Ping reçu,         2095
30/08/2026 13h 38' 11" Ping reçu, 2094
30/08/2026 13h 37' 59" Ping reçu, 2091
30/08/2026 13h 37' 54" Ping reçu,         2090
30/08/2026 13h 37' 51" Enregistrement de l'éclairement (38.9 lux & 0 lux )
30/08/2026 13h 37' 46" Ping reçu, 2088
30/08/2026 13h 37' 37" Ping reçu, 2086
30/08/2026 13h 37' 33" cPing.
30/08/2026 13h 37' 29" Ping reçu, 2084
30/08/2026 13h 37' 26" Ping reçu, 2083
30/08/2026 13h 37' 14" Pressions pluviométriques (32,07 & 64,00)
30/08/2026 13h 37' 13" Enregistrement de la hauteur d'eau (783,740 mm @ 99,8%)
30/08/2026 13h 36' 57" Ping reçu, 2077
30/08/2026 13h 36' 54" Enregistrement Température du pluviometre : (23,5 °C)
30/08/2026 13h 36' 47" Ping reçu,         2075
30/08/2026 13h 36' 38" Ping reçu, 2073
30/08/2026 13h 36' 38" cPing.
30/08/2026 13h 36' 33" Ping reçu, 2072
30/08/2026 13h 36' 32" ERR. Ther. 14 HS.
30/08/2026 13h 36' 29" Ping reçu, 2071
30/08/2026 13h 36' 25" Ping reçu,         2070
30/08/2026 13h 36' 16" Ping reçu, 2068
30/08/2026 13h 36' 12" Ping reçu, 2067
30/08/2026 13h 36' 08" Ping reçu, 2066
30/08/2026 13h 36' 05" Ping reçu,         2065
30/08/2026 13h 36' 05" Rw SD-card.
30/08/2026 13h 36' 01" Ping reçu, 2064
30/08/2026 13h 35' 56" Ping reçu, 2063
30/08/2026 13h 35' 47" Ping reçu, 2061
30/08/2026 13h 35' 43" Ping reçu,         2060
30/08/2026 13h 35' 42" cPing.
30/08/2026 13h 35' 39" Ping reçu, 2059
30/08/2026 13h 35' 36" Ping reçu, 2058
30/08/2026 13h 35' 34" On a tout sauvé !
30/08/2026 13h 35' 34" Ping reçu, 2057
30/08/2026 13h 35' 32" Ping reçu, 2054
30/08/2026 13h 35' 32" Ping reçu,         2055
30/08/2026 13h 35' 30" Ping reçu, 2052
30/08/2026 13h 35' 30" Ping reçu, 2053
30/08/2026 13h 35' 30" On a tout sauvé !
30/08/2026 13h 35' 27" Ping reçu,         2050
30/08/2026 13h 35' 26" Ping reçu, 2049
30/08/2026 13h 35' 23" Ping reçu, 2047
30/08/2026 13h 35' 22" Enregistrement de la température (23,987 °C)
30/08/2026 13h 35' 21" cPing.
30/08/2026 13h 35' 20" Ping reçu,         2045
30/08/2026 13h 35' 13" Ping reçu, 2042
30/08/2026 13h 35' 08" Enregistrement de l'éclairement (116.7 lux & 0 lux )
30/08/2026 13h 35' 06" Ping reçu,         2040
30/08/2026 13h 34' 55" Enregistrement de la Pression atmosphérique (1027,601 hPa)
30/08/2026 13h 34' 05" Ping reçu, 2037
30/08/2026 13h 33' 56" Ping reçu,         2035
30/08/2026 13h 33' 53" Ping reçu, 2034
30/08/2026 13h 33' 50" cPing.
30/08/2026 13h 33' 48" Ping reçu, 2033
30/08/2026 13h 33' 44" Ping reçu, 2032
30/08/2026 13h 33' 35" Ping reçu,         2030
30/08/2026 13h 33' 32" Ping reçu, 2029
30/08/2026 13h 33' 28" Ping reçu, 2028
30/08/2026 13h 33' 24" Ping reçu, 2027
30/08/2026 13h 33' 15" Ping reçu,         2025
30/08/2026 13h 33' 11" Ping reçu, 2024
30/08/2026 13h 33' 06" Ping reçu, 2023
30/08/2026 13h 33' 02" Ping reçu, 2022
30/08/2026 13h 32' 58" Ping reçu, 2021
30/08/2026 13h 32' 57" Enregistrement de l'éclairement (86.4 lux & 0 lux )
30/08/2026 13h 32' 54" Ping reçu,         2020
30/08/2026 13h 32' 53" cPing.
30/08/2026 13h 32' 47" Ping reçu, 2018
30/08/2026 13h 32' 42" Ping reçu, 2017
30/08/2026 13h 32' 35" ERR. Ther. 14 HS.
30/08/2026 13h 32' 33" Ping reçu,         2015
30/08/2026 13h 32' 25" Ping reçu, 2013
30/08/2026 13h 32' 21" Ping reçu, 2012
30/08/2026 13h 32' 17" Ping reçu, 2011
30/08/2026 13h 32' 12" Ping reçu,         2010
30/08/2026 13h 31' 59" Ping reçu, 2007
30/08/2026 13h 31' 58" cPing.
30/08/2026 13h 31' 54" Ping reçu, 2006
30/08/2026 13h 31' 49" Enregistrement de l'éclairement (112.3 lux & 0 lux )
30/08/2026 13h 31' 46" Ping reçu, 2004
30/08/2026 13h 31' 42" Ping reçu, 2003
30/08/2026 13h 31' 38" Ping reçu, 2002
30/08/2026 13h 31' 35" Ping reçu, 2001
30/08/2026 13h 31' 31" Ping reçu,         2000
30/08/2026 13h 31' 24" Ping reçu, 1999
30/08/2026 13h 31' 17" Ping reçu, 1997
30/08/2026 13h 31' 09" Ping reçu,         1995
30/08/2026 13h 31' 01" cPing.
30/08/2026 13h 30' 51" Ping reçu, 1991
30/08/2026 13h 30' 47" Ping reçu,         1990
30/08/2026 13h 30' 42" Ping reçu, 1989
30/08/2026 13h 30' 34" Ping reçu, 1987
30/08/2026 13h 30' 30" Ping reçu, 1986
30/08/2026 13h 30' 10" Ping reçu, 1981
30/08/2026 13h 30' 07" Enregistrement de la température (23,634 °C)
30/08/2026 13h 30' 06" Ping reçu,         1980
30/08/2026 13h 30' 06" cPing.
30/08/2026 13h 30' 01" Ping reçu, 1979
30/08/2026 13h 29' 57" Ping reçu, 1978
30/08/2026 13h 29' 53" Ping reçu, 1977
30/08/2026 13h 29' 48" Ping reçu, 1976
30/08/2026 13h 29' 39" Enregistrement de l'éclairement (280.8 lux & 0 lux )
30/08/2026 13h 29' 36" Ping reçu, 1973
30/08/2026 13h 29' 33" Ping reçu, 1972
30/08/2026 13h 29' 29" Ping reçu, 1971
30/08/2026 13h 29' 24" Ping reçu,         1970
30/08/2026 13h 29' 21" Ping reçu, 1969
30/08/2026 13h 29' 17" Ping reçu, 1968
30/08/2026 13h 29' 09" cPing.
30/08/2026 13h 29' 08" Ping reçu, 1966
30/08/2026 13h 28' 59" Ping reçu, 1964
30/08/2026 13h 28' 45" Ping reçu, 1961
30/08/2026 13h 28' 42" Enregistrement de l'humidité (71,60 %)
30/08/2026 13h 28' 38" ERR. Ther. 14 HS.
30/08/2026 13h 28' 37" ERR. Ther. 1 HS.
30/08/2026 13h 28' 32" Ping reçu, 1958
30/08/2026 13h 28' 28" Ping reçu, 1957
30/08/2026 13h 28' 28" Enregistrement de l'éclairement (298.1 lux & 0 lux )
30/08/2026 13h 28' 24" Ping reçu, 1956
30/08/2026 13h 28' 19" Ping reçu,         1955
30/08/2026 13h 28' 15" Ping reçu, 1954
30/08/2026 13h 28' 13" cPing.
30/08/2026 13h 27' 57" Ping reçu,         1950
30/08/2026 13h 27' 54" Ping reçu, 1949
30/08/2026 13h 27' 50" Ping reçu, 1948
30/08/2026 13h 27' 46" Ping reçu, 1947
30/08/2026 13h 27' 42" Ping reçu, 1946
30/08/2026 13h 27' 33" Ping reçu, 1944
30/08/2026 13h 27' 25" Ping reçu, 1942
30/08/2026 13h 27' 21" Ping reçu, 1941
30/08/2026 13h 27' 20" Enregistrement de l'éclairement (328.4 lux & 0 lux )
30/08/2026 13h 27' 16" Ping reçu,         1940
30/08/2026 13h 27' 16" cPing.
30/08/2026 13h 27' 12" Ping reçu, 1939
30/08/2026 13h 27' 09" Ping reçu, 1938
30/08/2026 13h 27' 05" Ping reçu, 1937
30/08/2026 13h 27' 01" Ping reçu, 1936
30/08/2026 13h 26' 57" Ping reçu,         1935
30/08/2026 13h 26' 48" Ping reçu, 1933
30/08/2026 13h 26' 39" Ping reçu, 1931
30/08/2026 13h 26' 35" Ping reçu,         1930
30/08/2026 13h 26' 31" Ping reçu, 1929
30/08/2026 13h 26' 27" Ping reçu, 1928
30/08/2026 13h 26' 23" Ping reçu, 1927
30/08/2026 13h 26' 21" cPing.
30/08/2026 13h 26' 20" Ping reçu, 1926
30/08/2026 13h 26' 12" Enregistrement de l'éclairement (328.4 lux & 0 lux )
30/08/2026 13h 26' 12" Ping reçu, 1924
30/08/2026 13h 25' 59" Ping reçu, 1921
30/08/2026 13h 25' 56" Enregistrement de la température (23,516 °C)
30/08/2026 13h 25' 55" Ping reçu,         1920
30/08/2026 13h 25' 55" Enregistrement de la hauteur d'eau (783,760 mm @ 99,6%)
30/08/2026 13h 25' 55" Pressions pluviométriques (32,07 & 64,00)
30/08/2026 13h 25' 54" Enregistrement de la Pression atmosphérique (1027,696 hPa)
30/08/2026 13h 25' 48" Ping reçu, 1919
30/08/2026 13h 25' 45" Ping reçu, 1918
30/08/2026 13h 25' 36" Ping reçu, 1916
30/08/2026 13h 25' 27" Ping reçu, 1914
30/08/2026 13h 25' 24" cPing.
30/08/2026 13h 25' 12" Enregistrement de l'Arduino : (24,5 °C)
30/08/2026 13h 25' 04" Ping reçu, 1909
30/08/2026 13h 24' 56" Ping reçu, 1907
30/08/2026 13h 24' 51" Ping reçu, 1906
30/08/2026 13h 24' 43" Ping reçu, 1904
30/08/2026 13h 24' 39" ERR. Ther. 1 HS.
30/08/2026 13h 24' 39" ERR. Ther. 14 HS.
30/08/2026 13h 24' 39" Enregistrement Température du pluviometre : (23,1 °C)
30/08/2026 13h 24' 34" Ping reçu, 1903
30/08/2026 13h 24' 30" Ping reçu, 1902
30/08/2026 13h 24' 28" cPing.
30/08/2026 13h 24' 27" Ping reçu, 1901
30/08/2026 13h 24' 19" Ping reçu, 1899
30/08/2026 13h 24' 11" Ping reçu, 1897
30/08/2026 13h 24' 06" Ping reçu, 1896
30/08/2026 13h 23' 58" Ping reçu, 1894
30/08/2026 13h 23' 54" Ping reçu, 1893
30/08/2026 13h 23' 49" Ping reçu, 1892
30/08/2026 13h 23' 38" Ping reçu, 1889
30/08/2026 13h 23' 34" Ping reçu, 1888
30/08/2026 13h 23' 31" cPing.
30/08/2026 13h 23' 20" Ping reçu,         1885
30/08/2026 13h 23' 16" Ping reçu, 1884
30/08/2026 13h 23' 08" Ping reçu, 1882
30/08/2026 13h 23' 03" Ping reçu, 1881
30/08/2026 13h 22' 59" Ping reçu,         1880
30/08/2026 13h 22' 55" Ping reçu, 1879
30/08/2026 13h 22' 54" Enregistrement de l'éclairement (233.3 lux & 0 lux )
30/08/2026 13h 22' 51" Ping reçu, 1878
30/08/2026 13h 22' 42" Ping reçu, 1876
30/08/2026 13h 22' 38" Ping reçu,         1875
30/08/2026 13h 22' 36" cPing.
30/08/2026 13h 22' 26" Ping reçu, 1872
30/08/2026 13h 22' 22" Ping reçu, 1871
30/08/2026 13h 22' 13" Ping reçu, 1869
30/08/2026 13h 22' 05" Ping reçu, 1867
30/08/2026 13h 21' 56" Ping reçu,         1865
30/08/2026 13h 21' 52" Ping reçu, 1864
30/08/2026 13h 21' 48" Ping reçu, 1863
30/08/2026 13h 21' 45" Ping reçu, 1862
30/08/2026 13h 21' 41" Ping reçu, 1861
30/08/2026 13h 21' 39" cPing.
30/08/2026 13h 21' 37" Ping reçu,         1860
30/08/2026 13h 21' 28" Ping reçu, 1858
30/08/2026 13h 21' 24" Ping reçu, 1857
30/08/2026 13h 21' 19" Ping reçu, 1856
30/08/2026 13h 21' 15" Ping reçu,         1855
30/08/2026 13h 21' 11" Ping reçu, 1854
30/08/2026 13h 20' 57" Ping reçu, 1851
30/08/2026 13h 20' 53" Ping reçu,         1850
30/08/2026 13h 20' 49" Ping reçu, 1849
30/08/2026 13h 20' 44" cPing.
30/08/2026 13h 20' 43" ERR. Ther. 14 HS.
30/08/2026 13h 20' 40" Ping reçu, 1847
30/08/2026 13h 20' 36" Ping reçu, 1846
30/08/2026 13h 20' 32" Ping reçu,         1845
30/08/2026 13h 20' 32" On a tout sauvé !
30/08/2026 13h 20' 30" Enregistrement de l'éclairement (337 lux & 0 lux )
30/08/2026 13h 20' 27" Ping reçu, 1844
30/08/2026 13h 20' 23" Ping reçu, 1843
30/08/2026 13h 20' 20" Ping reçu, 1842
30/08/2026 13h 20' 16" Ping reçu, 1841
30/08/2026 13h 20' 11" Enregistrement des paramètres du vent (49.1° @ 0 m/s)
30/08/2026 13h 19' 54" Ping reçu, 1836
30/08/2026 13h 19' 48" cPing.
30/08/2026 13h 19' 45" Ping reçu, 1834
30/08/2026 13h 19' 41" Ping reçu, 1833
30/08/2026 13h 19' 32" Ping reçu, 1831
30/08/2026 13h 19' 23" Ping reçu, 1829
30/08/2026 13h 19' 19" Ping reçu, 1828
30/08/2026 13h 19' 15" Ping reçu, 1827
30/08/2026 13h 19' 12" Ping reçu, 1826
30/08/2026 13h 19' 08" Ping reçu,         1825
30/08/2026 13h 18' 59" Ping reçu, 1823
30/08/2026 13h 18' 51" cPing.
30/08/2026 13h 18' 51" Ping reçu, 1821
30/08/2026 13h 18' 47" Enregistrement de l'humidité (76,81 %)
30/08/2026 13h 18' 47" Ping reçu,         1820
30/08/2026 13h 18' 42" Ping reçu, 1819
30/08/2026 13h 18' 38" Ping reçu, 1818
30/08/2026 13h 18' 29" Ping reçu, 1816
30/08/2026 13h 18' 26" Enregistrement de l'éclairement (345.6 lux & 0 lux )
30/08/2026 13h 18' 25" Ping reçu,         1815
30/08/2026 13h 18' 12" Ping reçu, 1812
30/08/2026 13h 18' 05" Ping reçu,         1810
30/08/2026 13h 18' 01" Ping reçu, 1809
30/08/2026 13h 17' 57" Ping reçu, 1808
30/08/2026 13h 17' 56" cPing.
30/08/2026 13h 17' 52" Ping reçu, 1807
30/08/2026 13h 17' 48" Ping reçu, 1806
30/08/2026 13h 17' 44" Ping reçu,         1805
30/08/2026 13h 17' 39" Ping reçu, 1804
30/08/2026 13h 17' 35" Enregistrement de la température (23,105 °C)
30/08/2026 13h 17' 29" Enregistrement de la Pression atmosphérique (1027,757 hPa)
30/08/2026 13h 17' 27" Ping reçu, 1801
30/08/2026 13h 17' 18" Ping reçu, 1799
30/08/2026 13h 17' 06" Ping reçu, 1796
30/08/2026 13h 17' 02" Ping reçu,         1795
30/08/2026 13h 16' 59" cPing.
30/08/2026 13h 16' 49" Ping reçu, 1792
30/08/2026 13h 16' 45" ERR. Ther. 1 HS.
30/08/2026 13h 16' 45" ERR. Ther. 14 HS.
30/08/2026 13h 16' 44" Ping reçu, 1791
30/08/2026 13h 16' 42" Enregistrement de l'éclairement (337 lux & 0 lux )
30/08/2026 13h 16' 41" Ping reçu,         1790
30/08/2026 13h 16' 36" Ping reçu, 1789
30/08/2026 13h 16' 32" Ping reçu, 1788
30/08/2026 13h 16' 27" Ping reçu, 1787
30/08/2026 13h 16' 24" Ping reçu, 1786
30/08/2026 13h 16' 21" Ping reçu,         1785
30/08/2026 13h 16' 15" Ping reçu, 1784
30/08/2026 13h 16' 08" Ping reçu, 1782
30/08/2026 13h 16' 04" Ping reçu, 1781
30/08/2026 13h 16' 04" cPing.
30/08/2026 13h 16' 00" Ping reçu,         1780
30/08/2026 13h 15' 56" Ping reçu, 1779
30/08/2026 13h 15' 51" Ping reçu, 1778
30/08/2026 13h 15' 43" Ping reçu, 1776
30/08/2026 13h 15' 38" Ping reçu,         1775
30/08/2026 13h 15' 30" Ping reçu, 1773
30/08/2026 13h 15' 30" Enregistrement de l'éclairement (319.7 lux & 0 lux )
30/08/2026 13h 15' 27" Ping reçu, 1772
30/08/2026 13h 15' 23" Ping reçu, 1771
30/08/2026 13h 15' 19" Ping reçu,         1770
30/08/2026 13h 15' 15" Ping reçu, 1769
30/08/2026 13h 15' 10" Ping reçu, 1768
30/08/2026 13h 15' 07" cPing.
30/08/2026 13h 15' 06" Ping reçu, 1767
30/08/2026 13h 15' 02" Ping reçu, 1766
30/08/2026 13h 14' 57" Ping reçu,         1765
30/08/2026 13h 14' 44" Ping reçu, 1762
30/08/2026 13h 14' 39" Pressions pluviométriques (32,07 & 64,00)
30/08/2026 13h 14' 35" Enregistrement des paramètres du vent (49.1° @ 0 m/s)
30/08/2026 13h 14' 30" Ping reçu, 1759
30/08/2026 13h 14' 21" Ping reçu, 1757
30/08/2026 13h 14' 17" Ping reçu, 1756
30/08/2026 13h 14' 12" cPing.
30/08/2026 13h 14' 09" Ping reçu, 1754
30/08/2026 13h 14' 06" Ping reçu, 1753
30/08/2026 13h 14' 02" Ping reçu, 1752
30/08/2026 13h 13' 58" Ping reçu, 1751
30/08/2026 13h 13' 54" Ping reçu,         1750
30/08/2026 13h 13' 50" Ping reçu, 1749
30/08/2026 13h 13' 45" Ping reçu, 1748
30/08/2026 13h 13' 41" Ping reçu, 1747
30/08/2026 13h 13' 37" Ping reçu, 1746
30/08/2026 13h 13' 33" Ping reçu,         1745
30/08/2026 13h 13' 29" Ping reçu, 1744
30/08/2026 13h 13' 26" Ping reçu, 1743
30/08/2026 13h 13' 22" Ping reçu, 1742
30/08/2026 13h 13' 15" cPing.
30/08/2026 13h 13' 14" Enregistrement de la température (23,208 °C)
30/08/2026 13h 13' 13" Ping reçu,         1740
30/08/2026 13h 13' 08" Ping reçu, 1739
30/08/2026 13h 13' 04" Ping reçu, 1738
30/08/2026 13h 13' 00" Ping reçu, 1737
30/08/2026 13h 12' 52" ERR. Ther. 14 HS.
30/08/2026 13h 12' 51" Ping reçu,         1735
30/08/2026 13h 12' 47" Ping reçu, 1734
30/08/2026 13h 12' 42" Ping reçu, 1733
30/08/2026 13h 12' 38" Ping reçu, 1732
30/08/2026 13h 12' 34" Ping reçu, 1731
30/08/2026 13h 12' 32" Enregistrement Température du pluviometre : (22,8 °C)
30/08/2026 13h 12' 28" Ping reçu,         1730
30/08/2026 13h 12' 24" Ping reçu, 1729
30/08/2026 13h 12' 20" Ping reçu, 1728
30/08/2026 13h 12' 19" cPing.
30/08/2026 13h 12' 15" Ping reçu, 1727
30/08/2026 13h 12' 10" Enregistrement de l'éclairement (289.5 lux & 0 lux )
30/08/2026 13h 12' 06" Ping reçu,         1725
30/08/2026 13h 12' 02" Enregistrement de l'éclairement (259.2 lux & 0 lux )
30/08/2026 13h 11' 57" Ping reçu, 1723
30/08/2026 13h 11' 53" Ping reçu, 1722
30/08/2026 13h 11' 49" Ping reçu, 1721
30/08/2026 13h 11' 42" Enregistrement de l'Arduino : (24,3 °C)
30/08/2026 13h 11' 39" Ping reçu, 1719
30/08/2026 13h 11' 35" Ping reçu, 1718
30/08/2026 13h 11' 30" Ping reçu, 1717
30/08/2026 13h 11' 22" Ping reçu,         1715
30/08/2026 13h 11' 22" cPing.
30/08/2026 13h 11' 20" Ping reçu, 1713
30/08/2026 13h 11' 14" Ping reçu, 1712
30/08/2026 13h 11' 13" Ping reçu, 1711
30/08/2026 13h 11' 12" Ping reçu,         1710
30/08/2026 13h 11' 09" Ping reçu, 1709
30/08/2026 13h 11' 08" Ping reçu, 1708
30/08/2026 13h 11' 08" Ping reçu, 1706
30/08/2026 13h 11' 07" Ping reçu,         1705
30/08/2026 13h 11' 02" Ping reçu, 1703
30/08/2026 13h 10' 59" Ping reçu, 1702
30/08/2026 13h 10' 56" cPing.
30/08/2026 13h 10' 54" Ping reçu, 1699
30/08/2026 13h 10' 54" Ping reçu,         1700
30/08/2026 13h 10' 50" Ping reçu, 1698
30/08/2026 13h 10' 48" Enregistrement de l'éclairement (293.8 lux & 0 lux )
30/08/2026 13h 10' 40" I2C : 13h 9m 57s. Désynchro. de 3 sec.s.
30/08/2026 13h 10' 37" Ping reçu,         1695
30/08/2026 13h 10' 37" NTP : 13h 10m 0s.
30/08/2026 13h 10' 32" Ping reçu, 1693
30/08/2026 13h 10' 32" Ping reçu, 1692
30/08/2026 13h 10' 26" Ping reçu, 1691
30/08/2026 13h 10' 23" Ping reçu,         1690
30/08/2026 13h 10' 19" cPing.
30/08/2026 13h 10' 15" Ping reçu, 1688
30/08/2026 13h 10' 10" Ping reçu, 1687
30/08/2026 13h 10' 09" Ping reçu, 1686
30/08/2026 13h 10' 05" Ping reçu,         1685
30/08/2026 13h 09' 52" Ping reçu, 1684
30/08/2026 13h 09' 16" Enregistrement de la température (23,297 °C)
30/08/2026 13h 09' 15" Ping reçu, 1682
30/08/2026 13h 09' 10" Ping reçu, 1681
30/08/2026 13h 09' 07" Ping reçu,         1680
30/08/2026 13h 09' 06" Enregistrement de la Pression atmosphérique (1027,751 hPa)
30/08/2026 13h 09' 03" Enregistrement des paramètres du vent (49.1° @ 0 m/s)
30/08/2026 13h 08' 52" ERR. Ther. 14 HS.
30/08/2026 13h 08' 49" Ping reçu, 1679
30/08/2026 13h 08' 45" Ping reçu, 1678
30/08/2026 13h 08' 38" Ping reçu, 1676
30/08/2026 13h 08' 35" cPing.
30/08/2026 13h 08' 33" Ping reçu,         1675
30/08/2026 13h 08' 30" Ping reçu, 1674
30/08/2026 13h 08' 26" Enregistrement de l'éclairement (285.1 lux & 0 lux )
30/08/2026 13h 08' 25" Ping reçu, 1673
30/08/2026 13h 08' 21" Ping reçu, 1672
30/08/2026 13h 08' 17" Ping reçu, 1671
30/08/2026 13h 08' 08" Ping reçu, 1669
30/08/2026 13h 08' 00" Ping reçu, 1667
30/08/2026 13h 07' 56" Ping reçu, 1666
30/08/2026 13h 07' 54" Ping reçu,         1665
30/08/2026 13h 07' 38" cPing.
30/08/2026 13h 07' 27" Ping reçu, 1659
30/08/2026 13h 07' 14" Ping reçu, 1656
30/08/2026 13h 07' 10" Ping reçu,         1655
30/08/2026 13h 07' 06" Ping reçu, 1654
30/08/2026 13h 07' 02" Ping reçu, 1653
30/08/2026 13h 06' 42" cPing.
30/08/2026 13h 06' 32" Ping reçu, 1646
30/08/2026 13h 06' 28" Ping reçu,         1645
30/08/2026 13h 06' 23" Ping reçu, 1644
30/08/2026 13h 06' 02" Ping reçu, 1639
30/08/2026 13h 05' 57" Ping reçu, 1638
30/08/2026 13h 05' 57" Ping reçu, 1
30/08/2026 13h 05' 53" Ping reçu, 1637
30/08/2026 13h 05' 48" Ping reçu, 1636
30/08/2026 13h 05' 47" cPing.
30/08/2026 13h 05' 44" On a tout sauvé !
30/08/2026 13h 05' 21" Ping reçu,         1630
30/08/2026 13h 04' 55" Ping reçu, 1624
30/08/2026 13h 04' 53" ERR. Ther. 14 HS.
30/08/2026 13h 04' 50" Ping reçu, 1623
30/08/2026 13h 04' 50" cPing.
30/08/2026 13h 04' 46" Ping reçu, 1622
30/08/2026 13h 04' 41" Enregistrement de la température (22,806 °C)
30/08/2026 13h 04' 41" Enregistrement de l'éclairement (151.2 lux & 0 lux )
30/08/2026 13h 04' 39" Ping reçu,         1620
30/08/2026 13h 04' 33" Ping reçu, 1619
30/08/2026 13h 04' 29" Ping reçu, 1618
30/08/2026 13h 04' 26" Ping reçu, 1617
30/08/2026 13h 04' 17" Ping reçu,         1615
30/08/2026 13h 04' 14" Ping reçu, 1614
30/08/2026 13h 04' 09" Ping reçu, 1613
30/08/2026 13h 04' 01" Enregistrement de l'éclairement (280.8 lux & 0 lux )
30/08/2026 13h 04' 00" Ping reçu, 1611
30/08/2026 13h 03' 56" Ping reçu,         1610
30/08/2026 13h 03' 55" cPing.
30/08/2026 13h 03' 32" Ping reçu, 1604
30/08/2026 13h 03' 28" Ping reçu, 1603
30/08/2026 13h 03' 23" Ping reçu, 1602
30/08/2026 13h 03' 20" Ping reçu, 1601
30/08/2026 13h 03' 17" Enregistrement de la hauteur d'eau (783,560 mm @ 99,8%)
30/08/2026 13h 03' 15" Ping reçu,         1600
30/08/2026 13h 03' 14" Enregistrement des paramètres du vent (49.1° @ 0 m/s)
30/08/2026 13h 03' 11" Ping reçu, 1599
30/08/2026 13h 03' 06" Ping reçu, 1598
30/08/2026 13h 03' 02" Ping reçu, 1597
30/08/2026 13h 02' 58" cPing.
30/08/2026 13h 02' 53" Ping reçu,         1595
30/08/2026 13h 02' 48" Ping reçu, 1594
30/08/2026 13h 02' 44" Ping reçu, 1593
30/08/2026 13h 02' 40" Ping reçu, 1592
30/08/2026 13h 02' 27" Enregistrement de l'éclairement (345.6 lux & 0 lux )
30/08/2026 13h 02' 27" Ping reçu, 1589
30/08/2026 13h 02' 23" Ping reçu, 1588
30/08/2026 13h 02' 20" Ping reçu, 1587
30/08/2026 13h 02' 16" Ping reçu, 1586
30/08/2026 13h 02' 12" Ping reçu,         1585
30/08/2026 13h 02' 08" Ping reçu, 1584
30/08/2026 13h 02' 03" Ping reçu, 1583
30/08/2026 13h 02' 03" cPing.
30/08/2026 13h 01' 59" Ping reçu, 1582
30/08/2026 13h 01' 46" Ping reçu, 1579
30/08/2026 13h 01' 42" Ping reçu, 1578
30/08/2026 13h 01' 35" Ping reçu, 1576
30/08/2026 13h 01' 26" Ping reçu, 1574
30/08/2026 13h 01' 17" Ping reçu, 1572
30/08/2026 13h 01' 09" Ping reçu,         1570
30/08/2026 13h 01' 06" cPing.
30/08/2026 13h 01' 00" Ping reçu, 1568
30/08/2026 13h 00' 56" ERR. Ther. 14 HS.
30/08/2026 13h 00' 55" Ping reçu, 1567
30/08/2026 13h 00' 51" Ping reçu, 1566
30/08/2026 13h 00' 47" Ping reçu,         1565
30/08/2026 13h 00' 24" Enregistrement de la Pression atmosphérique (1027,980 hPa)
30/08/2026 13h 00' 20" Ping reçu, 1559
30/08/2026 13h 00' 11" cPing.
30/08/2026 12h 59' 52" Ping reçu, 1553
30/08/2026 12h 59' 39" Ping reçu,         1550
30/08/2026 12h 59' 30" Ping reçu, 1548
30/08/2026 12h 59' 26" Ping reçu, 1547
30/08/2026 12h 59' 21" Ping reçu, 1546
30/08/2026 12h 59' 17" Ping reçu,         1545
30/08/2026 12h 59' 15" Ping reçu, 1544
30/08/2026 12h 59' 15" cPing.
30/08/2026 12h 59' 09" Ping reçu, 1543
30/08/2026 12h 59' 06" Ping reçu, 1542
30/08/2026 12h 59' 02" Ping reçu, 1541
30/08/2026 12h 58' 59" Enregistrement de l'humidité (84,21 %)
30/08/2026 12h 58' 58" Ping reçu,         1540
30/08/2026 12h 58' 45" Ping reçu, 1537
30/08/2026 12h 58' 41" Ping reçu, 1536
30/08/2026 12h 58' 36" Ping reçu,         1535
30/08/2026 12h 58' 32" Ping reçu, 1534
30/08/2026 12h 58' 27" Ping reçu, 1533
30/08/2026 12h 58' 23" Ping reçu, 1532
30/08/2026 12h 58' 19" Ping reçu, 1531
30/08/2026 12h 58' 18" cPing.
30/08/2026 12h 58' 12" Ping reçu, 1529
30/08/2026 12h 58' 00" Ping reçu, 1527
30/08/2026 12h 57' 56" Ping reçu, 1526
30/08/2026 12h 57' 54" Enregistrement de l'éclairement (345.6 lux & 0 lux )
30/08/2026 12h 57' 52" Ping reçu,         1525
30/08/2026 12h 57' 45" Ping reçu, 1523
30/08/2026 12h 57' 41" Ping reçu, 1522
30/08/2026 12h 57' 32" Enregistrement des paramètres du vent (49.1° @ 0 m/s)
30/08/2026 12h 57' 28" Ping reçu, 1519
30/08/2026 12h 57' 24" Ping reçu, 1518
30/08/2026 12h 57' 21" cPing.
30/08/2026 12h 57' 15" Ping reçu, 1516
30/08/2026 12h 57' 02" Ping reçu, 1513
30/08/2026 12h 56' 54" ERR. Ther. 14 HS.
30/08/2026 12h 56' 53" ERR. Ther. 1 HS.
30/08/2026 12h 56' 53" Ping reçu, 1511
30/08/2026 12h 56' 44" Ping reçu, 1509
30/08/2026 12h 56' 44" Enregistrement de l'éclairement (345.6 lux & 0 lux )
30/08/2026 12h 56' 35" Ping reçu, 1507
30/08/2026 12h 56' 31" Ping reçu, 1506
30/08/2026 12h 56' 27" Ping reçu,         1505
30/08/2026 12h 56' 26" cPing.
30/08/2026 12h 56' 23" Ping reçu, 1504
30/08/2026 12h 56' 20" Ping reçu, 1503
30/08/2026 12h 56' 16" Ping reçu, 1502
30/08/2026 12h 56' 12" Ping reçu, 1501
30/08/2026 12h 56' 11" Enregistrement de la température (21,910 °C)
30/08/2026 12h 56' 08" Ping reçu,         1500
30/08/2026 12h 56' 03" Ping reçu, 1499
30/08/2026 12h 55' 54" Ping reçu, 1497
30/08/2026 12h 55' 50" Ping reçu, 1496
30/08/2026 12h 55' 41" Ping reçu, 1494
30/08/2026 12h 55' 33" Ping reçu, 1492
30/08/2026 12h 55' 30" cPing.
30/08/2026 12h 55' 26" Ping reçu,         1490
30/08/2026 12h 55' 22" Ping reçu, 1489
30/08/2026 12h 55' 18" Ping reçu, 1488
30/08/2026 12h 55' 14" Ping reçu, 1487
30/08/2026 12h 55' 09" Ping reçu, 1486
30/08/2026 12h 55' 05" Ping reçu,         1485
30/08/2026 12h 54' 52" Ping reçu, 1482
30/08/2026 12h 54' 48" Ping reçu, 1481
30/08/2026 12h 54' 37" Ping reçu, 1478
30/08/2026 12h 54' 33" cPing.
30/08/2026 12h 54' 32" Ping reçu, 1477
30/08/2026 12h 54' 29" Ping reçu, 1476
30/08/2026 12h 54' 24" Ping reçu,         1475
30/08/2026 12h 54' 24" Rw SD-card.
30/08/2026 12h 54' 15" Ping reçu, 1473
30/08/2026 12h 54' 11" Ping reçu, 1472
30/08/2026 12h 54' 02" Enregistrement de l'éclairement (345.6 lux & 0 lux )
30/08/2026 12h 54' 02" Ping reçu,         1470
30/08/2026 12h 53' 57" Ping reçu, 1469
30/08/2026 12h 53' 53" Ping reçu, 1468
30/08/2026 12h 53' 44" Ping reçu, 1466
30/08/2026 12h 53' 40" Ping reçu,         1465
30/08/2026 12h 53' 38" cPing.
30/08/2026 12h 53' 36" Ping reçu, 1464
30/08/2026 12h 53' 25" Ping reçu, 1461
30/08/2026 12h 53' 21" Ping reçu,         1460
30/08/2026 12h 53' 17" Ping reçu, 1459
30/08/2026 12h 53' 08" Ping reçu, 1457
30/08/2026 12h 53' 00" ERR. Ther. 14 HS.
30/08/2026 12h 52' 59" Ping reçu,         1455
30/08/2026 12h 52' 54" Ping reçu, 1454
30/08/2026 12h 52' 50" Ping reçu, 1453
30/08/2026 12h 52' 42" Ping reçu, 1451
30/08/2026 12h 52' 41" cPing.
30/08/2026 12h 52' 38" Ping reçu,         1450
30/08/2026 12h 52' 33" Ping reçu, 1449
30/08/2026 12h 52' 31" Ping reçu, 1448
30/08/2026 12h 52' 27" Enregistrement de l'éclairement (345.6 lux & 0 lux )
30/08/2026 12h 52' 26" Ping reçu, 1447
30/08/2026 12h 52' 22" Ping reçu, 1446
30/08/2026 12h 52' 14" Ping reçu, 1444
30/08/2026 12h 52' 05" Ping reçu, 1442
30/08/2026 12h 51' 59" Pressions pluviométriques (32,07 & 64,00)
30/08/2026 12h 51' 56" Enregistrement des paramètres du vent (49.1° @ 0 m/s)
30/08/2026 12h 51' 56" Enregistrement de la Pression atmosphérique (1028,000 hPa)
30/08/2026 12h 51' 51" Ping reçu, 1439
30/08/2026 12h 51' 46" Ping reçu, 1438
30/08/2026 12h 51' 46" cPing.
30/08/2026 12h 51' 38" Ping reçu, 1436
30/08/2026 12h 51' 33" Ping reçu,         1435
30/08/2026 12h 51' 25" Ping reçu, 1433
30/08/2026 12h 51' 20" Ping reçu, 1432
30/08/2026 12h 51' 18" On a tout sauvé !
30/08/2026 12h 51' 16" Ping reçu, 1431
30/08/2026 12h 51' 12" Ping reçu,         1430
30/08/2026 12h 51' 06" Enregistrement de l'éclairement (345.6 lux & 0 lux )
30/08/2026 12h 51' 03" Ping reçu, 1428
30/08/2026 12h 50' 59" Ping reçu, 1427
30/08/2026 12h 50' 56" Ping reçu, 1426
30/08/2026 12h 50' 52" Ping reçu,         1425
30/08/2026 12h 50' 49" cPing.
30/08/2026 12h 50' 48" Ping reçu, 1424
30/08/2026 12h 50' 43" Ping reçu, 1423
30/08/2026 12h 50' 35" Ping reçu, 1421
30/08/2026 12h 50' 30" Enregistrement de l'éclairement (345.6 lux & 0 lux )
30/08/2026 12h 50' 26" Ping reçu, 1419
30/08/2026 12h 50' 22" Ping reçu, 1418
30/08/2026 12h 50' 18" Ping reçu, 1417
30/08/2026 12h 50' 09" Ping reçu,         1415
30/08/2026 12h 50' 02" Ping reçu, 1413
30/08/2026 12h 49' 54" Ping reçu, 1411
30/08/2026 12h 49' 54" cPing.
30/08/2026 12h 49' 50" Ping reçu,         1410
30/08/2026 12h 49' 50" Enregistrement de l'éclairement (345.6 lux & 0 lux )
30/08/2026 12h 49' 45" Ping reçu, 1409
30/08/2026 12h 49' 41" Ping reçu, 1408
30/08/2026 12h 49' 32" Ping reçu, 1406
30/08/2026 12h 49' 28" Ping reçu,         1405
30/08/2026 12h 49' 24" Ping reçu, 1404
30/08/2026 12h 49' 18" Enregistrement de l'humidité (86,96 %)
30/08/2026 12h 49' 12" Ping reçu, 1401
30/08/2026 12h 49' 08" ERR. Ther. 14 HS.
30/08/2026 12h 49' 05" Ping reçu, 1399
30/08/2026 12h 49' 01" Ping reçu, 1398
30/08/2026 12h 48' 59" cPing.
30/08/2026 12h 48' 56" Ping reçu, 1397
30/08/2026 12h 48' 42" Ping reçu, 1394
30/08/2026 12h 48' 38" Ping reçu, 1393
30/08/2026 12h 48' 34" Ping reçu, 1392
30/08/2026 12h 48' 29" Ping reçu, 1391
30/08/2026 12h 48' 21" Ping reçu, 1389
30/08/2026 12h 48' 17" Ping reçu, 1388
30/08/2026 12h 48' 14" Ping reçu, 1387
30/08/2026 12h 48' 10" Ping reçu, 1386
30/08/2026 12h 48' 02" cPing.
30/08/2026 12h 48' 00" Enregistrement Température du pluviometre : (22,8 °C)
30/08/2026 12h 47' 57" Ping reçu, 1384
30/08/2026 12h 47' 53" Enregistrement de l'éclairement (345.6 lux & 0 lux )
30/08/2026 12h 47' 49" Ping reçu, 1382
30/08/2026 12h 47' 45" Ping reçu, 1381
30/08/2026 12h 47' 42" Ping reçu,         1380
30/08/2026 12h 47' 36" Ping reçu, 1379
30/08/2026 12h 47' 29" Ping reçu, 1377
30/08/2026 12h 47' 20" Ping reçu,         1375
30/08/2026 12h 47' 16" Ping reçu, 1374
30/08/2026 12h 47' 08" Ping reçu, 1372
30/08/2026 12h 47' 06" cPing.
30/08/2026 12h 47' 03" Ping reçu, 1371
30/08/2026 12h 46' 59" Ping reçu,         1370
30/08/2026 12h 46' 54" Ping reçu, 1369
30/08/2026 12h 46' 50" Ping reçu, 1368
30/08/2026 12h 46' 42" Ping reçu, 1366
30/08/2026 12h 46' 29" Ping reçu, 1363
30/08/2026 12h 46' 26" Ping reçu, 1362
30/08/2026 12h 46' 22" Ping reçu, 1361
30/08/2026 12h 46' 18" Ping reçu,         1360
30/08/2026 12h 46' 18" Enregistrement des paramètres du vent (49.1° @ 0 m/s)
30/08/2026 12h 46' 13" Ping reçu, 1359
30/08/2026 12h 46' 09" Ping reçu, 1358
30/08/2026 12h 46' 09" cPing.
30/08/2026 12h 46' 08" Enregistrement de l'éclairement (345.6 lux & 0 lux )
30/08/2026 12h 46' 05" Ping reçu, 1357
30/08/2026 12h 46' 01" Ping reçu, 1356
30/08/2026 12h 45' 56" Ping reçu,         1355
30/08/2026 12h 45' 48" Ping reçu, 1353
30/08/2026 12h 45' 39" Ping reçu, 1351
30/08/2026 12h 45' 35" Ping reçu,         1350
30/08/2026 12h 45' 32" Ping reçu, 1349
30/08/2026 12h 45' 28" Ping reçu, 1348
30/08/2026 12h 45' 24" Ping reçu, 1347
30/08/2026 12h 45' 20" Ping reçu, 1346
30/08/2026 12h 45' 14" cPing.
30/08/2026 12h 45' 07" ERR. Ther. 14 HS.
30/08/2026 12h 45' 07" ERR. Ther. 1 HS.
30/08/2026 12h 45' 06" Ping reçu, 1343
30/08/2026 12h 44' 57" Ping reçu, 1341
30/08/2026 12h 44' 53" Ping reçu,         1340
30/08/2026 12h 44' 49" Ping reçu, 1339
30/08/2026 12h 44' 45" Ping reçu, 1338
30/08/2026 12h 44' 42" Enregistrement de l'Arduino : (24,3 °C)
30/08/2026 12h 44' 39" Ping reçu, 1337
30/08/2026 12h 44' 26" Ping reçu, 1334
30/08/2026 12h 44' 22" Ping reçu, 1333
30/08/2026 12h 44' 21" Enregistrement de l'éclairement (345.6 lux & 0 lux )
30/08/2026 12h 44' 18" Ping reçu, 1332
30/08/2026 12h 44' 17" cPing.
30/08/2026 12h 44' 15" Ping reçu, 1331
30/08/2026 12h 44' 11" Ping reçu,         1330
30/08/2026 12h 44' 07" Ping reçu, 1329
30/08/2026 12h 43' 54" Ping reçu, 1326
30/08/2026 12h 43' 50" Ping reçu,         1325
30/08/2026 12h 43' 45" Ping reçu, 1324
30/08/2026 12h 43' 41" Ping reçu, 1323
30/08/2026 12h 43' 37" Ping reçu, 1322
30/08/2026 12h 43' 33" Enregistrement de la température (22,269 °C)
30/08/2026 12h 43' 33" Ping reçu, 1321
30/08/2026 12h 43' 31" Enregistrement de la Pression atmosphérique (1028,032 hPa)
30/08/2026 12h 43' 29" Ping reçu,         1320
30/08/2026 12h 43' 26" Ping reçu, 1319
30/08/2026 12h 43' 22" Ping reçu, 1318
30/08/2026 12h 43' 22" cPing.
30/08/2026 12h 43' 18" Ping reçu, 1317
30/08/2026 12h 43' 13" Ping reçu, 1316
30/08/2026 12h 43' 09" Ping reçu,         1315
30/08/2026 12h 43' 05" Ping reçu, 1314
30/08/2026 12h 43' 00" Ping reçu, 1313
30/08/2026 12h 42' 56" Ping reçu, 1312
30/08/2026 12h 42' 52" Ping reçu, 1311
30/08/2026 12h 42' 43" Ping reçu, 1309
30/08/2026 12h 42' 39" Ping reçu, 1308
30/08/2026 12h 42' 32" Ping reçu, 1306
30/08/2026 12h 42' 28" Ping reçu,         1305
30/08/2026 12h 42' 25" cPing.
30/08/2026 12h 42' 24" Ping reçu, 1304
30/08/2026 12h 42' 11" Ping reçu, 1301
30/08/2026 12h 42' 06" Ping reçu,         1300
30/08/2026 12h 41' 50" Ping reçu, 1296
30/08/2026 12h 41' 45" Ping reçu,         1295
30/08/2026 12h 41' 38" Ping reçu, 1293
30/08/2026 12h 41' 34" Ping reçu, 1292
30/08/2026 12h 41' 29" cPing.
30/08/2026 12h 41' 25" Ping reçu,         1290
30/08/2026 12h 41' 21" Ping reçu, 1289
30/08/2026 12h 41' 17" Ping reçu, 1288
30/08/2026 12h 41' 13" ERR. Ther. 1 HS.
30/08/2026 12h 41' 13" ERR. Ther. 14 HS.
30/08/2026 12h 41' 12" Ping reçu, 1287
30/08/2026 12h 41' 03" Ping reçu,         1285
30/08/2026 12h 41' 03" Enregistrement de l'éclairement (345.6 lux & 0 lux )
30/08/2026 12h 40' 59" Ping reçu, 1284
30/08/2026 12h 40' 55" Ping reçu, 1283
30/08/2026 12h 40' 44" Enregistrement de la hauteur d'eau (783,690 mm @ 99,7%)
30/08/2026 12h 40' 42" Ping reçu,         1280
30/08/2026 12h 40' 32" Ping reçu, 1278
30/08/2026 12h 40' 32" cPing.
30/08/2026 12h 40' 28" Ping reçu, 1277
30/08/2026 12h 40' 21" Ping reçu,         1275
30/08/2026 12h 40' 17" Ping reçu, 1274
30/08/2026 12h 40' 04" Ping reçu, 1271
30/08/2026 12h 40' 00" Ping reçu,         1270
30/08/2026 12h 39' 56" Ping reçu, 1269
30/08/2026 12h 39' 55" Enregistrement de l'éclairement (345.6 lux & 0 lux )
30/08/2026 12h 39' 47" Ping reçu, 1267
30/08/2026 12h 39' 42" Ping reçu, 1266
30/08/2026 12h 39' 38" Ping reçu,         1265
30/08/2026 12h 39' 37" cPing.
30/08/2026 12h 39' 34" Ping reçu, 1264
30/08/2026 12h 39' 30" Ping reçu, 1263
30/08/2026 12h 39' 27" Ping reçu, 1262
30/08/2026 12h 39' 23" Ping reçu, 1261
30/08/2026 12h 39' 21" Enregistrement de la température (22,487 °C)
30/08/2026 12h 39' 12" Ping reçu, 1259
30/08/2026 12h 39' 08" Ping reçu, 1258
30/08/2026 12h 39' 01" Ping reçu, 1256
30/08/2026 12h 38' 52" Ping reçu, 1254
30/08/2026 12h 38' 48" Ping reçu, 1253
30/08/2026 12h 38' 44" Ping reçu, 1252
30/08/2026 12h 38' 40" cPing.
30/08/2026 12h 38' 39" Ping reçu, 1251
30/08/2026 12h 38' 27" Ping reçu, 1248
30/08/2026 12h 38' 13" Ping reçu,         1245
30/08/2026 12h 38' 09" Ping reçu, 1244
30/08/2026 12h 38' 06" Ping reçu, 1243
30/08/2026 12h 38' 02" Ping reçu, 1242
30/08/2026 12h 37' 54" Enregistrement de l'éclairement (341.3 lux & 0 lux )
30/08/2026 12h 37' 53" Ping reçu,         1240
30/08/2026 12h 37' 49" Ping reçu, 1239
30/08/2026 12h 37' 45" Ping reçu, 1238
30/08/2026 12h 37' 45" cPing.
30/08/2026 12h 37' 40" Ping reçu, 1237
30/08/2026 12h 37' 32" Ping reçu,         1235
30/08/2026 12h 37' 27" Ping reçu, 1234
30/08/2026 12h 37' 23" Ping reçu, 1233
30/08/2026 12h 37' 17" ERR. Ther. 14 HS.
30/08/2026 12h 37' 15" ERR. Ther. 1 HS.
30/08/2026 12h 37' 14" Ping reçu, 1231
30/08/2026 12h 37' 10" Ping reçu,         1230
30/08/2026 12h 37' 03" Ping reçu, 1
30/08/2026 12h 37' 02" Ping reçu, 1228
30/08/2026 12h 36' 59" Ping reçu, 1227
30/08/2026 12h 36' 51" On a tout sauvé !
30/08/2026 12h 36' 50" Ping reçu,         1225
30/08/2026 12h 36' 48" cPing.
30/08/2026 12h 36' 42" Ping reçu, 1223
30/08/2026 12h 36' 37" Ping reçu, 1222
30/08/2026 12h 36' 33" Ping reçu, 1221
30/08/2026 12h 36' 30" Enregistrement de l'éclairement (345.6 lux & 0 lux )
30/08/2026 12h 36' 20" Ping reçu, 1218
30/08/2026 12h 36' 15" Ping reçu, 1217
30/08/2026 12h 36' 06" Ping reçu,         1215
30/08/2026 12h 36' 03" Ping reçu, 1214
30/08/2026 12h 35' 59" Ping reçu, 1213
30/08/2026 12h 35' 56" Ping reçu, 1212
30/08/2026 12h 35' 53" cPing.
30/08/2026 12h 35' 43" Ping reçu,         1210
30/08/2026 12h 35' 39" Ping reçu, 1209
30/08/2026 12h 35' 30" Ping reçu, 1207
30/08/2026 12h 35' 22" Ping reçu,         1205
30/08/2026 12h 35' 18" Ping reçu, 1204
30/08/2026 12h 35' 14" Ping reçu, 1203
30/08/2026 12h 35' 09" Ping reçu, 1202
30/08/2026 12h 35' 06" Ping reçu, 1201
30/08/2026 12h 35' 04" Enregistrement de la température (22,537 °C)
30/08/2026 12h 35' 03" Enregistrement de la Pression atmosphérique (1028,063 hPa)
30/08/2026 12h 35' 02" Ping reçu,         1200
30/08/2026 12h 34' 56" cPing.
30/08/2026 12h 34' 55" Ping reçu, 1199
30/08/2026 12h 34' 51" Ping reçu, 1198
30/08/2026 12h 34' 42" Ping reçu, 1196
30/08/2026 12h 34' 39" Ping reçu,         1195
30/08/2026 12h 34' 35" Ping reçu, 1194
30/08/2026 12h 34' 31" Ping reçu, 1193
30/08/2026 12h 34' 27" Ping reçu, 1192
30/08/2026 12h 34' 23" Ping reçu, 1191
30/08/2026 12h 34' 18" Ping reçu,         1190
30/08/2026 12h 34' 14" Ping reçu, 1189
30/08/2026 12h 34' 06" Ping reçu, 1187
30/08/2026 12h 34' 04" Ping reçu, 1186
30/08/2026 12h 34' 00" cPing.
30/08/2026 12h 33' 59" Ping reçu,         1185
30/08/2026 12h 33' 46" Ping reçu, 1182
30/08/2026 12h 33' 24" Ping reçu, 1177
30/08/2026 12h 33' 17" ERR. Ther. 14 HS.
30/08/2026 12h 33' 16" ERR. Ther. 1 HS.
30/08/2026 12h 33' 15" Ping reçu,         1175
30/08/2026 12h 33' 06" Ping reçu, 1173
30/08/2026 12h 33' 06" Enregistrement de l'éclairement (341.3 lux & 0 lux )
30/08/2026 12h 33' 05" cPing.
30/08/2026 12h 33' 02" Ping reçu, 1172
30/08/2026 12h 32' 58" Ping reçu, 1171
30/08/2026 12h 32' 54" Ping reçu,         1170
30/08/2026 12h 32' 47" Ping reçu, 1168
30/08/2026 12h 32' 43" Ping reçu, 1167
30/08/2026 12h 32' 39" Ping reçu, 1166
30/08/2026 12h 32' 35" Ping reçu,         1165
30/08/2026 12h 32' 26" Ping reçu, 1163
30/08/2026 12h 32' 17" Ping reçu, 1161
30/08/2026 12h 32' 08" Ping reçu, 1159
30/08/2026 12h 32' 08" cPing.
30/08/2026 12h 32' 04" Ping reçu, 1158
30/08/2026 12h 32' 00" Ping reçu, 1157
30/08/2026 12h 31' 59" Enregistrement de l'éclairement (341.3 lux & 0 lux )
30/08/2026 12h 31' 56" Ping reçu, 1156
30/08/2026 12h 31' 44" Ping reçu, 1153
30/08/2026 12h 31' 40" Ping reçu, 1152
30/08/2026 12h 31' 36" Ping reçu, 1151
30/08/2026 12h 31' 32" Ping reçu,         1150
30/08/2026 12h 31' 27" Ping reçu, 1149
30/08/2026 12h 31' 23" Ping reçu, 1148
30/08/2026 12h 31' 19" Ping reçu, 1147
30/08/2026 12h 31' 13" cPing.
30/08/2026 12h 31' 04" Ping reçu, 1144
30/08/2026 12h 31' 00" Ping reçu, 1143
30/08/2026 12h 30' 56" Ping reçu, 1142
30/08/2026 12h 30' 54" Enregistrement de la température (22,705 °C)
30/08/2026 12h 30' 52" Ping reçu, 1141
30/08/2026 12h 30' 47" Ping reçu,         1140
30/08/2026 12h 30' 44" Enregistrement de l'éclairement (324 lux & 0 lux )
30/08/2026 12h 30' 39" Ping reçu, 1138
30/08/2026 12h 30' 30" Ping reçu, 1136
30/08/2026 12h 30' 25" Ping reçu,         1135
30/08/2026 12h 30' 20" Ping reçu, 1134
30/08/2026 12h 30' 16" Ping reçu, 1133
30/08/2026 12h 30' 16" cPing.
30/08/2026 12h 30' 08" Ping reçu, 1131
30/08/2026 12h 30' 05" Ping reçu,         1130
30/08/2026 12h 30' 01" Ping reçu, 1129
30/08/2026 12h 29' 57" Ping reçu, 1128
30/08/2026 12h 29' 53" Ping reçu, 1126
30/08/2026 12h 29' 53" Enregistrement de la hauteur d'eau (783,760 mm @ 99,8%)
30/08/2026 12h 29' 53" Pressions pluviométriques (32,07 & 64,00)
30/08/2026 12h 29' 51" Ping reçu, 1123
30/08/2026 12h 29' 51" Ping reçu, 1124
30/08/2026 12h 29' 49" Enregistrement de l'humidité (88,07 %)
30/08/2026 12h 29' 48" Ping reçu, 1121
30/08/2026 12h 29' 48" Ping reçu, 1122
30/08/2026 12h 29' 38" cPing.
30/08/2026 12h 29' 36" ERR. Ther. 14 HS.
30/08/2026 12h 29' 30" Ping reçu, 1119
30/08/2026 12h 29' 30" Enregistrement de l'éclairement (315.4 lux & 0 lux )
30/08/2026 12h 29' 20" Ping reçu, 1118
30/08/2026 12h 29' 04" Ping reçu, 1116
30/08/2026 12h 28' 56" Ping reçu, 1114
30/08/2026 12h 28' 49" Ping reçu, 1112
30/08/2026 12h 28' 45" Ping reçu, 1111
30/08/2026 12h 28' 32" Ping reçu, 1108
30/08/2026 12h 28' 28" Ping reçu, 1107
30/08/2026 12h 28' 24" cPing.
30/08/2026 12h 28' 23" Ping reçu, 1106
30/08/2026 12h 28' 10" Ping reçu, 1103
30/08/2026 12h 28' 06" Ping reçu, 1102
30/08/2026 12h 27' 59" Ping reçu,         1100
30/08/2026 12h 27' 54" Ping reçu, 1099
30/08/2026 12h 27' 51" Ping reçu, 1098
30/08/2026 12h 27' 47" Ping reçu, 1097
30/08/2026 12h 27' 38" Ping reçu,         1095
30/08/2026 12h 27' 34" Ping reçu, 1094
30/08/2026 12h 27' 29" Ping reçu, 1093
30/08/2026 12h 27' 29" cPing.
30/08/2026 12h 27' 28" Enregistrement de l'éclairement (324 lux & 0 lux )
30/08/2026 12h 27' 18" Ping reçu,         1090
30/08/2026 12h 27' 05" Ping reçu, 1087
30/08/2026 12h 27' 01" Ping reçu, 1086
30/08/2026 12h 26' 57" Ping reçu,         1085
30/08/2026 12h 26' 53" Ping reçu, 1084
30/08/2026 12h 26' 48" Ping reçu, 1083
30/08/2026 12h 26' 44" Ping reçu, 1082
30/08/2026 12h 26' 40" Ping reçu, 1081
30/08/2026 12h 26' 39" Enregistrement de la température (22,840 °C)
30/08/2026 12h 26' 38" Enregistrement de la Pression atmosphérique (1028,063 hPa)
30/08/2026 12h 26' 36" Ping reçu,         1080
30/08/2026 12h 26' 31" Ping reçu, 1079
30/08/2026 12h 26' 31" cPing.
30/08/2026 12h 26' 27" Ping reçu, 1078
30/08/2026 12h 26' 23" Ping reçu, 1077
30/08/2026 12h 26' 22" Enregistrement de l'éclairement (280.8 lux & 0 lux )
30/08/2026 12h 26' 20" Ping reçu, 1076
30/08/2026 12h 26' 12" Ping reçu, 1074
30/08/2026 12h 26' 08" Ping reçu, 1073
30/08/2026 12h 26' 03" Ping reçu, 1072
30/08/2026 12h 25' 59" Ping reçu, 1071
30/08/2026 12h 25' 50" Ping reçu, 1069
30/08/2026 12h 25' 46" Ping reçu, 1068
30/08/2026 12h 25' 42" Ping reçu, 1067
30/08/2026 12h 25' 39" Ping reçu, 1066
30/08/2026 12h 25' 36" cPing.
30/08/2026 12h 25' 30" Ping reçu, 1064
30/08/2026 12h 25' 27" ERR. Ther. 14 HS.
30/08/2026 12h 25' 27" ERR. Ther. 1 HS.
30/08/2026 12h 25' 26" Ping reçu, 1063
30/08/2026 12h 25' 22" Ping reçu, 1062
30/08/2026 12h 25' 18" Ping reçu, 1061
30/08/2026 12h 25' 17" Enregistrement de l'éclairement (198.7 lux & 0 lux )
30/08/2026 12h 25' 05" Ping reçu, 1058
30/08/2026 12h 25' 00" Ping reçu, 1057
30/08/2026 12h 24' 56" Ping reçu, 1056
30/08/2026 12h 24' 52" Ping reçu,         1055
30/08/2026 12h 24' 48" Ping reçu, 1054
30/08/2026 12h 24' 44" Ping reçu, 1053
30/08/2026 12h 24' 39" cPing.
30/08/2026 12h 24' 37" Ping reçu, 1051
30/08/2026 12h 24' 33" Ping reçu,         1050
30/08/2026 12h 24' 15" Enregistrement de l'éclairement (73.5 lux & 0 lux )
30/08/2026 12h 24' 06" Ping reçu, 1044
30/08/2026 12h 23' 57" Ping reçu, 1042
30/08/2026 12h 23' 53" Ping reçu, 1041
30/08/2026 12h 23' 47" cPing.
30/08/2026 12h 23' 45" Ping reçu, 1039
30/08/2026 12h 23' 44" Ping reçu, 1038
30/08/2026 12h 23' 39" Ping reçu,         1035
30/08/2026 12h 23' 26" Ping reçu, 1032
30/08/2026 12h 23' 17" Ping reçu, 1031
30/08/2026 12h 23' 12" Ping reçu,         1030
30/08/2026 12h 22' 58" Ping reçu, 1029
30/08/2026 12h 22' 51" Ping reçu, 1027
30/08/2026 12h 22' 48" cPing.
30/08/2026 12h 22' 45" Ping reçu, 1026
30/08/2026 12h 22' 41" Ping reçu,         1025
30/08/2026 12h 22' 37" Ping reçu, 1024
30/08/2026 12h 22' 33" Ping reçu, 1
30/08/2026 12h 22' 32" Enregistrement de la température (22,768 °C)
30/08/2026 12h 22' 22" Ping reçu, 1
30/08/2026 12h 22' 21" Ping reçu,         1020
30/08/2026 12h 22' 15" Ping reçu, 1019
30/08/2026 12h 22' 11" Ping reçu, 1018
30/08/2026 12h 22' 09" On a tout sauvé !
30/08/2026 12h 22' 09" Ping reçu, 1017
30/08/2026 12h 22' 04" Ping reçu, 1016
30/08/2026 12h 22' 00" Ping reçu,         1015
30/08/2026 12h 21' 56" Ping reçu, 1014
30/08/2026 12h 21' 51" Ping reçu, 1013
30/08/2026 12h 21' 51" cPing.
30/08/2026 12h 21' 50" Enregistrement de l'éclairement (86.4 lux & 0 lux )
30/08/2026 12h 21' 47" Ping reçu, 1012
30/08/2026 12h 21' 35" Ping reçu, 1009
30/08/2026 12h 21' 30" Ping reçu, 1008
30/08/2026 12h 21' 28" ERR. Ther. 14 HS.
30/08/2026 12h 21' 27" ERR. Ther. 1 HS.
30/08/2026 12h 21' 25" Ping reçu, 1007
30/08/2026 12h 21' 21" Ping reçu, 1006
30/08/2026 12h 21' 18" Ping reçu,         1005
30/08/2026 12h 21' 14" Ping reçu, 1004
30/08/2026 12h 21' 10" Ping reçu, 1003
30/08/2026 12h 21' 05" Ping reçu, 1002
30/08/2026 12h 20' 56" cPing.
30/08/2026 12h 20' 53" Ping reçu, 999
30/08/2026 12h 20' 48" Ping reçu, 998
30/08/2026 12h 20' 44" Ping reçu, 997
30/08/2026 12h 20' 40" Ping reçu, 996
30/08/2026 12h 20' 36" Ping reçu,         995
30/08/2026 12h 20' 23" Ping reçu, 992
30/08/2026 12h 20' 20" Ping reçu, 991
30/08/2026 12h 20' 12" Ping reçu, 989
30/08/2026 12h 20' 08" Ping reçu, 988
30/08/2026 12h 20' 03" Ping reçu, 987
30/08/2026 12h 19' 59" cPing.
30/08/2026 12h 19' 54" Ping reçu,         985
30/08/2026 12h 19' 46" Enregistrement de l'éclairement (47.5 lux & 0 lux )
30/08/2026 12h 19' 42" Ping reçu, 982
30/08/2026 12h 19' 39" Ping reçu, 981
30/08/2026 12h 19' 37" Enregistrement de l'humidité (90,92 %)
30/08/2026 12h 19' 35" Ping reçu,         980
30/08/2026 12h 19' 26" Ping reçu, 978
30/08/2026 12h 19' 19" Enregistrement de l'éclairement (4.3 lux & 0 lux )
30/08/2026 12h 19' 18" Ping reçu, 976
30/08/2026 12h 19' 14" Ping reçu,         975
30/08/2026 12h 19' 05" Ping reçu, 973
30/08/2026 12h 19' 04" cPing.
30/08/2026 12h 18' 52" Ping reçu,         970
30/08/2026 12h 18' 48" Ping reçu, 969
30/08/2026 12h 18' 44" Ping reçu, 968
30/08/2026 12h 18' 32" Ping reçu,         965
30/08/2026 12h 18' 28" Ping reçu, 964
30/08/2026 12h 18' 20" Ping reçu, 962
30/08/2026 12h 18' 19" Enregistrement de la température (22,254 °C)
30/08/2026 12h 18' 15" Ping reçu, 961
30/08/2026 12h 18' 15" Enregistrement de l'éclairement (77.8 lux & 0 lux )
30/08/2026 12h 18' 15" Pressions pluviométriques (32,07 & 64,00)
30/08/2026 12h 18' 15" Enregistrement de la Pression atmosphérique (1028,093 hPa)
30/08/2026 12h 18' 15" Enregistrement de la hauteur d'eau (783,470 mm @ 100,0%)
30/08/2026 12h 18' 11" Ping reçu,         960
30/08/2026 12h 18' 11" Enregistrement des paramètres du vent (49.2° @ 0 m/s)
30/08/2026 12h 18' 07" cPing.
30/08/2026 12h 18' 01" Ping reçu, 958
30/08/2026 12h 17' 57" Ping reçu, 957
30/08/2026 12h 17' 53" Ping reçu, 956
30/08/2026 12h 17' 49" Enregistrement de l'Arduino : (23,8 °C)
30/08/2026 12h 17' 47" Ping reçu,         955
30/08/2026 12h 17' 43" Ping reçu, 954
30/08/2026 12h 17' 39" Ping reçu, 953
30/08/2026 12h 17' 31" ERR. Ther. 14 HS.
30/08/2026 12h 17' 30" ERR. Ther. 1 HS.
30/08/2026 12h 17' 27" Ping reçu,         950
30/08/2026 12h 17' 23" Ping reçu, 949
30/08/2026 12h 17' 17" Ping reçu, 948
30/08/2026 12h 17' 17" Ping reçu, 947
30/08/2026 12h 17' 14" cPing.
30/08/2026 12h 17' 11" Ping reçu, 946
30/08/2026 12h 17' 06" Ping reçu,         945
30/08/2026 12h 16' 56" Ping reçu, 943
30/08/2026 12h 16' 53" Ping reçu, 942
30/08/2026 12h 16' 49" Ping reçu, 941
30/08/2026 12h 16' 45" Ping reçu,         940
30/08/2026 12h 16' 41" Ping reçu, 939
30/08/2026 12h 16' 36" Ping reçu, 938
30/08/2026 12h 16' 27" Ping reçu, 936
30/08/2026 12h 16' 23" Ping reçu,         935
30/08/2026 12h 16' 19" Ping reçu, 934
30/08/2026 12h 16' 15" Ping reçu, 933
30/08/2026 12h 16' 15" cPing.
30/08/2026 12h 16' 04" Ping reçu,         930
30/08/2026 12h 16' 00" Ping reçu, 929
30/08/2026 12h 15' 56" Ping reçu, 928
30/08/2026 12h 15' 51" Ping reçu, 927
30/08/2026 12h 15' 42" Ping reçu,         925
30/08/2026 12h 15' 38" Ping reçu, 924
30/08/2026 12h 15' 34" Ping reçu, 923
30/08/2026 12h 15' 25" Ping reçu, 921
30/08/2026 12h 15' 20" cPing.
30/08/2026 12h 15' 18" Ping reçu, 919
30/08/2026 12h 15' 12" Ping reçu, 918
30/08/2026 12h 15' 11" Enregistrement de l'éclairement (129.6 lux & 0 lux )
30/08/2026 12h 15' 08" Ping reçu, 917
30/08/2026 12h 15' 05" Ping reçu, 916
30/08/2026 12h 15' 01" Ping reçu,         915
30/08/2026 12h 14' 57" Ping reçu, 914
30/08/2026 12h 14' 52" Ping reçu, 913
30/08/2026 12h 14' 48" Ping reçu, 912
30/08/2026 12h 14' 44" Ping reçu, 911
30/08/2026 12h 14' 43" Enregistrement de l'éclairement (146.9 lux & 0 lux )
30/08/2026 12h 14' 39" Ping reçu,         910
30/08/2026 12h 14' 35" Ping reçu, 909
30/08/2026 12h 14' 27" Ping reçu, 907
30/08/2026 12h 14' 24" cPing.
30/08/2026 12h 14' 17" Enregistrement de la température (22,278 °C)
30/08/2026 12h 14' 16" Enregistrement de l'éclairement (69.1 lux & 0 lux )
30/08/2026 12h 14' 15" Ping reçu, 904
30/08/2026 12h 14' 11" Ping reçu, 903
30/08/2026 12h 14' 06" Ping reçu,         900
30/08/2026 12h 14' 06" Ping reçu, 901
30/08/2026 12h 14' 00" Ping reçu, 899
30/08/2026 12h 13' 59" Ping reçu, 897
30/08/2026 12h 13' 58" ERR. Ther. 14 HS.
30/08/2026 12h 13' 56" ERR. Ther. 1 HS.
30/08/2026 12h 13' 54" Ping reçu,         895
30/08/2026 12h 13' 54" Ping reçu, 894
30/08/2026 12h 13' 45" cPing.
30/08/2026 12h 13' 40" Ping reçu, 892
30/08/2026 12h 13' 33" Ping reçu, 891
30/08/2026 12h 13' 28" Ping reçu, 888
30/08/2026 12h 13' 24" Ping reçu, 887
30/08/2026 12h 13' 21" Ping reçu, 886
30/08/2026 12h 13' 15" Ping reçu,         885
30/08/2026 12h 13' 05" Ping reçu, 884
30/08/2026 12h 12' 46" Ping reçu, 883
30/08/2026 12h 12' 41" Ping reçu, 882
30/08/2026 12h 12' 38" Ping reçu, 881
30/08/2026 12h 12' 33" Ping reçu,         880
30/08/2026 12h 12' 32" cPing.
30/08/2026 12h 12' 28" Ping reçu, 879
30/08/2026 12h 12' 20" Enregistrement de l'éclairement (177.1 lux & 0 lux )
30/08/2026 12h 12' 20" Ping reçu, 877
30/08/2026 12h 12' 15" Ping reçu, 876
30/08/2026 12h 12' 06" Ping reçu, 873
30/08/2026 12h 12' 06" Ping reçu, 874
30/08/2026 12h 12' 06" Ping reçu, 872
30/08/2026 12h 12' 02" Ping reçu, 871
30/08/2026 12h 12' 02" Ping reçu, 869
30/08/2026 12h 11' 57" Ping reçu, 868
30/08/2026 12h 11' 52" Ping reçu, 867
30/08/2026 12h 11' 49" Ping reçu, 866
30/08/2026 12h 11' 49" cPing.
30/08/2026 12h 11' 45" Enregistrement Température du pluviometre : (22,2 °C)
30/08/2026 12h 11' 44" Ping reçu, 864
30/08/2026 12h 11' 40" Ping reçu, 863
30/08/2026 12h 11' 39" Ping reçu, 862
30/08/2026 12h 11' 38" Ping reçu, 861
30/08/2026 12h 11' 31" Enregistrement de l'éclairement (276.5 lux & 0 lux )
30/08/2026 12h 11' 31" Ping reçu, 859
30/08/2026 12h 11' 26" Ping reçu, 858
30/08/2026 12h 11' 17" Ping reçu, 857
30/08/2026 12h 11' 06" Ping reçu, 856
30/08/2026 12h 10' 53" Ping reçu,         855
30/08/2026 12h 10' 48" Ping reçu, 854
30/08/2026 12h 10' 45" cPing.
30/08/2026 12h 10' 44" Ping reçu, 853
30/08/2026 12h 10' 40" Ping reçu, 851
30/08/2026 12h 10' 37" Ping reçu, 847
30/08/2026 12h 10' 37" Ping reçu, 849
30/08/2026 12h 10' 37" Ping reçu,         850
30/08/2026 12h 10' 36" Ping reçu,         845
30/08/2026 12h 10' 33" Enregistrement de l'éclairement (267.9 lux & 0 lux )
30/08/2026 12h 10' 32" Ping reçu, 844
30/08/2026 12h 10' 31" Ping reçu, 842
30/08/2026 12h 10' 31" Ping reçu, 843
30/08/2026 12h 10' 24" Enregistrement de la Pression atmosphérique (1028,164 hPa)
30/08/2026 12h 10' 24" Enregistrement de l'humidité (93,65 %)
30/08/2026 12h 10' 19" cPing.
30/08/2026 12h 10' 18" Ping reçu,         840
30/08/2026 12h 10' 14" Ping reçu, 839
30/08/2026 12h 10' 09" Ping reçu, 836
30/08/2026 12h 10' 08" Ping reçu,         835
30/08/2026 12h 10' 03" Ping reçu, 834
30/08/2026 12h 09' 14" Ping reçu, 829
30/08/2026 12h 09' 11" cPing.
30/08/2026 12h 09' 11" Ping reçu, 827
30/08/2026 12h 09' 10" Ping reçu,         825
30/08/2026 12h 09' 10" Ping reçu, 826
30/08/2026 12h 09' 07" Ping reçu, 823
30/08/2026 12h 09' 07" Ping reçu, 824
30/08/2026 12h 09' 06" Ping reçu, 821
30/08/2026 12h 09' 06" Ping reçu,         820
30/08/2026 12h 09' 03" Ping reçu, 818
30/08/2026 12h 08' 58" Ping reçu, 817
30/08/2026 12h 08' 57" Ping reçu, 816
30/08/2026 12h 08' 27" Ping reçu,         815
30/08/2026 12h 08' 26" cPing.
30/08/2026 12h 08' 21" Ping reçu, 814
30/08/2026 12h 07' 41" Ping reçu, 812
30/08/2026 12h 07' 28" Ping reçu, 809
30/08/2026 12h 07' 24" Ping reçu, 808
30/08/2026 12h 07' 21" Ping reçu, 807
30/08/2026 12h 07' 17" Ping reçu, 806
30/08/2026 12h 07' 11" Ping reçu,         805
30/08/2026 12h 07' 05" Enregistrement de l'éclairement (220.3 lux & 0 lux )
30/08/2026 12h 07' 00" Ping reçu, 802
30/08/2026 12h 06' 56" Ping reçu, 801
30/08/2026 12h 06' 55" Enregistrement de la hauteur d'eau (783,480 mm @ 99,8%)
30/08/2026 12h 06' 55" cPing.
30/08/2026 12h 06' 42" Ping reçu, 798
30/08/2026 12h 06' 33" Ping reçu, 796
30/08/2026 12h 06' 29" Ping reçu,         795
30/08/2026 12h 06' 24" Ping reçu, 794
30/08/2026 12h 06' 20" Ping reçu, 793
30/08/2026 12h 06' 16" Ping reçu, 792
30/08/2026 12h 06' 11" Ping reçu,         790
30/08/2026 12h 06' 05" Ping reçu, 789
30/08/2026 12h 05' 58" cPing.
30/08/2026 12h 05' 57" Ping reçu, 787
30/08/2026 12h 05' 53" Ping reçu, 786
30/08/2026 12h 05' 40" ERR. Ther. 14 HS.
30/08/2026 12h 05' 39" Ping reçu, 783
30/08/2026 12h 05' 35" Ping reçu, 782
30/08/2026 12h 05' 30" Ping reçu, 781
30/08/2026 12h 05' 17" Ping reçu, 778
30/08/2026 12h 05' 12" Ping reçu, 777
30/08/2026 12h 05' 08" Ping reçu, 776
30/08/2026 12h 05' 03" cPing.
30/08/2026 12h 05' 00" Ping reçu, 774
30/08/2026 12h 04' 56" Ping reçu, 773
30/08/2026 12h 04' 53" Ping reçu, 772
30/08/2026 12h 04' 49" Ping reçu, 771
30/08/2026 12h 04' 45" Ping reçu,         770
30/08/2026 12h 04' 32" Ping reçu, 767
30/08/2026 12h 04' 27" Ping reçu, 766
30/08/2026 12h 04' 23" Ping reçu,         765
30/08/2026 12h 04' 19" Enregistrement de l'Arduino : (23,5 °C)
30/08/2026 12h 04' 08" cPing.
30/08/2026 12h 04' 06" Ping reçu, 762
30/08/2026 12h 04' 03" Ping reçu, 761
30/08/2026 12h 03' 59" Ping reçu,         760
30/08/2026 12h 03' 53" Ping reçu, 759
30/08/2026 12h 03' 50" Ping reçu, 758
30/08/2026 12h 03' 38" Ping reçu, 756
30/08/2026 12h 03' 33" Ping reçu,         755
30/08/2026 12h 03' 15" Ping reçu, 751
30/08/2026 12h 03' 12" Ping reçu,         750
30/08/2026 12h 03' 11" cPing.
30/08/2026 12h 03' 03" Ping reçu, 748
30/08/2026 12h 03' 00" Ping reçu, 747
30/08/2026 12h 02' 52" Ping reçu,         745
30/08/2026 12h 02' 48" Ping reçu, 744
30/08/2026 12h 02' 39" Ping reçu, 742
30/08/2026 12h 02' 35" Ping reçu, 741
30/08/2026 12h 02' 34" Enregistrement de l'éclairement (125.3 lux & 0 lux )
30/08/2026 12h 02' 31" Ping reçu,         740
30/08/2026 12h 02' 27" Ping reçu, 739
30/08/2026 12h 02' 22" Ping reçu, 738
30/08/2026 12h 02' 14" cPing.
30/08/2026 12h 02' 02" Ping reçu, 733
30/08/2026 12h 01' 58" Ping reçu, 732
30/08/2026 12h 01' 50" Ping reçu,         730
30/08/2026 12h 01' 45" Ping reçu, 729
30/08/2026 12h 01' 38" ERR. Ther. 14 HS.
30/08/2026 12h 01' 32" Ping reçu, 726
30/08/2026 12h 01' 23" Ping reçu, 724
30/08/2026 12h 01' 19" Ping reçu, 723
30/08/2026 12h 01' 18" cPing.
30/08/2026 12h 01' 10" Enregistrement de la température (21,651 °C)
30/08/2026 12h 01' 08" Enregistrement des paramètres du vent (49.1° @ 0 m/s)
30/08/2026 12h 01' 08" Enregistrement de la Pression atmosphérique (1028,243 hPa)
30/08/2026 12h 01' 08" Ping reçu,         720
30/08/2026 12h 00' 57" Ping reçu, 718
30/08/2026 12h 00' 54" Ping reçu, 717
30/08/2026 12h 00' 50" Ping reçu, 716
30/08/2026 12h 00' 37" Ping reçu, 713
30/08/2026 12h 00' 33" Ping reçu, 712
30/08/2026 12h 00' 32" On purge les valeurs du crystal...
30/08/2026 12h 00' 29" Ping reçu, 711
30/08/2026 12h 00' 24" Ping reçu,         710
30/08/2026 12h 00' 24" On purge les valeurs du crystal...
30/08/2026 12h 00' 23" cPing.
30/08/2026 12h 00' 15" Ping reçu, 708
30/08/2026 12h 00' 14" On purge les valeurs du crystal...
30/08/2026 12h 00' 12" Ping reçu, 707
30/08/2026 12h 00' 07" Ping reçu, 706
30/08/2026 12h 00' 03" Ping reçu,         705
30/08/2026 12h 00' 00" Ping reçu, 704
30/08/2026 11h 59' 53" Enregistrement de l'éclairement (341.3 lux & 0 lux )
30/08/2026 11h 59' 51" Ping reçu, 702
30/08/2026 11h 59' 47" Enregistrement de l'humidité (97,06 %)
30/08/2026 11h 59' 47" Ping reçu, 701
30/08/2026 11h 59' 44" Ping reçu,         700
30/08/2026 11h 59' 30" Ping reçu, 697
30/08/2026 11h 59' 26" cPing.
30/08/2026 11h 59' 26" Ping reçu, 696
30/08/2026 11h 59' 17" Ping reçu, 694
30/08/2026 11h 59' 13" Ping reçu, 693
30/08/2026 11h 59' 07" Ping reçu, 692
30/08/2026 11h 59' 03" Ping reçu, 691
30/08/2026 11h 58' 58" Ping reçu,         690
30/08/2026 11h 58' 54" Ping reçu, 689
30/08/2026 11h 58' 50" Ping reçu, 688
30/08/2026 11h 58' 45" Ping reçu, 687
30/08/2026 11h 58' 41" Ping reçu, 686
30/08/2026 11h 58' 37" Ping reçu,         685
30/08/2026 11h 58' 36" Enregistrement de l'éclairement (345.6 lux & 0 lux )
30/08/2026 11h 58' 31" cPing.
30/08/2026 11h 58' 29" Ping reçu, 683
30/08/2026 11h 58' 26" Ping reçu, 682
30/08/2026 11h 58' 22" Ping reçu, 681
30/08/2026 11h 58' 18" Ping reçu,         680
30/08/2026 11h 58' 14" Ping reçu, 679
30/08/2026 11h 58' 09" Ping reçu, 678
30/08/2026 11h 58' 05" Ping reçu, 677
30/08/2026 11h 58' 01" Ping reçu, 676
30/08/2026 11h 57' 54" Ping reçu, 674
30/08/2026 11h 57' 48" Ping reçu, 673
30/08/2026 11h 57' 45" Ping reçu, 672
30/08/2026 11h 57' 42" ERR. Ther. 1 HS.
30/08/2026 11h 57' 42" ERR. Ther. 14 HS.
30/08/2026 11h 57' 41" Ping reçu, 671
30/08/2026 11h 57' 37" Ping reçu,         670
30/08/2026 11h 57' 34" cPing.
30/08/2026 11h 57' 33" Ping reçu, 669
30/08/2026 11h 57' 24" Ping reçu, 667
30/08/2026 11h 57' 20" Ping reçu, 666
30/08/2026 11h 57' 15" Ping reçu,         665
30/08/2026 11h 57' 11" Ping reçu, 664
30/08/2026 11h 57' 03" Ping reçu, 662
30/08/2026 11h 56' 59" Ping reçu, 661
30/08/2026 11h 56' 57" Enregistrement de l'éclairement (345.6 lux & 0 lux )
30/08/2026 11h 56' 54" Ping reçu,         660
30/08/2026 11h 56' 45" Ping reçu, 658
30/08/2026 11h 56' 42" Ping reçu, 657
30/08/2026 11h 56' 39" Ping reçu, 656
30/08/2026 11h 56' 39" cPing.
30/08/2026 11h 56' 34" Ping reçu,         655
30/08/2026 11h 56' 30" Ping reçu, 654
30/08/2026 11h 56' 21" Ping reçu, 652
30/08/2026 11h 56' 17" Ping reçu, 651
30/08/2026 11h 56' 13" Ping reçu,         650
30/08/2026 11h 56' 04" Ping reçu, 648
30/08/2026 11h 56' 00" Ping reçu, 647
30/08/2026 11h 55' 56" Ping reçu, 646
30/08/2026 11h 55' 53" Ping reçu,         645
30/08/2026 11h 55' 50" Enregistrement de l'éclairement (345.6 lux & 0 lux )
30/08/2026 11h 55' 45" Ping reçu, 643
30/08/2026 11h 55' 41" cPing.
30/08/2026 11h 55' 41" Ping reçu, 642
30/08/2026 11h 55' 36" Ping reçu, 641
30/08/2026 11h 55' 32" Ping reçu,         640
30/08/2026 11h 55' 32" Enregistrement de la hauteur d'eau (783,500 mm @ 99,9%)
30/08/2026 11h 55' 27" Ping reçu, 639
30/08/2026 11h 55' 23" Ping reçu, 638
30/08/2026 11h 55' 18" Ping reçu, 637
30/08/2026 11h 55' 14" Ping reçu, 636
30/08/2026 11h 55' 14" Enregistrement de l'éclairement (229 lux & 0 lux )
30/08/2026 11h 55' 10" Ping reçu,         635
30/08/2026 11h 55' 06" Ping reçu, 634
30/08/2026 11h 55' 03" Ping reçu, 633
30/08/2026 11h 54' 57" Ping reçu, 632
30/08/2026 11h 54' 55" Ping reçu, 631
30/08/2026 11h 54' 46" Ping reçu, 629
30/08/2026 11h 54' 46" cPing.
30/08/2026 11h 54' 38" Ping reçu, 627
30/08/2026 11h 54' 28" Ping reçu,         625
30/08/2026 11h 54' 20" Ping reçu, 623
30/08/2026 11h 54' 15" Ping reçu, 622
30/08/2026 11h 54' 11" Ping reçu, 621
30/08/2026 11h 54' 07" Ping reçu,         620
30/08/2026 11h 54' 02" Ping reçu, 619
30/08/2026 11h 53' 53" Ping reçu, 617
30/08/2026 11h 53' 49" cPing.
30/08/2026 11h 53' 45" ERR. Ther. 1 HS.
30/08/2026 11h 53' 45" ERR. Ther. 14 HS.
30/08/2026 11h 53' 35" Ping reçu, 613
30/08/2026 11h 53' 34" Enregistrement de l'éclairement (198.7 lux & 0 lux )
30/08/2026 11h 53' 24" Ping reçu,         610
30/08/2026 11h 53' 14" Ping reçu, 1
30/08/2026 11h 53' 09" Ping reçu, 607
30/08/2026 11h 53' 06" Ping reçu, 606
30/08/2026 11h 53' 03" On a tout sauvé !
30/08/2026 11h 53' 02" Ping reçu,         605
30/08/2026 11h 52' 54" cPing.
30/08/2026 11h 52' 53" Ping reçu, 603
30/08/2026 11h 52' 49" Ping reçu, 602
30/08/2026 11h 52' 45" Ping reçu, 601
30/08/2026 11h 52' 44" Enregistrement de la température (21,512 °C)
30/08/2026 11h 52' 41" Enregistrement de la Pression atmosphérique (1028,324 hPa)
30/08/2026 11h 52' 41" Enregistrement de l'éclairement (164.2 lux & 0 lux )
30/08/2026 11h 52' 41" Ping reçu,         600
30/08/2026 11h 52' 36" Ping reçu, 599
30/08/2026 11h 52' 27" Ping reçu, 597
30/08/2026 11h 52' 23" Ping reçu, 596
30/08/2026 11h 52' 18" Ping reçu,         595
30/08/2026 11h 52' 14" Ping reçu, 594
30/08/2026 11h 52' 10" Ping reçu, 593
30/08/2026 11h 52' 06" Ping reçu, 592
30/08/2026 11h 52' 02" Ping reçu, 591
30/08/2026 11h 51' 59" Ping reçu,         590
30/08/2026 11h 51' 57" cPing.
30/08/2026 11h 51' 54" Ping reçu, 589
30/08/2026 11h 51' 46" Ping reçu, 587
30/08/2026 11h 51' 42" Ping reçu, 586
30/08/2026 11h 51' 38" Ping reçu,         585
30/08/2026 11h 51' 33" Ping reçu, 584
30/08/2026 11h 51' 29" Ping reçu, 583
30/08/2026 11h 51' 24" Ping reçu, 582
30/08/2026 11h 51' 20" Ping reçu, 581
30/08/2026 11h 51' 12" Ping reçu, 579
30/08/2026 11h 51' 08" Ping reçu, 578
30/08/2026 11h 51' 05" Ping reçu, 577
30/08/2026 11h 51' 02" cPing.
30/08/2026 11h 51' 01" Ping reçu, 576
30/08/2026 11h 50' 56" Ping reçu,         575
30/08/2026 11h 50' 49" Enregistrement de l'Arduino : (23,5 °C)
30/08/2026 11h 50' 44" Ping reçu, 573
30/08/2026 11h 50' 40" Ping reçu, 572
30/08/2026 11h 50' 36" Ping reçu, 571
30/08/2026 11h 50' 29" Ping reçu, 569
30/08/2026 11h 50' 23" Ping reçu, 568
30/08/2026 11h 50' 09" Enregistrement de l'éclairement (121 lux & 0 lux )
30/08/2026 11h 50' 08" Ping reçu, 564
30/08/2026 11h 50' 06" cPing.
30/08/2026 11h 49' 59" Ping reçu, 562
30/08/2026 11h 49' 55" Ping reçu, 561
30/08/2026 11h 49' 46" ERR. Ther. 14 HS.
30/08/2026 11h 49' 41" Ping reçu, 558
30/08/2026 11h 49' 27" Ping reçu,         555
30/08/2026 11h 49' 23" Ping reçu, 554
30/08/2026 11h 49' 19" Ping reçu, 553
30/08/2026 11h 49' 15" Ping reçu, 552
30/08/2026 11h 49' 12" Ping reçu, 551
30/08/2026 11h 49' 09" cPing.
30/08/2026 11h 49' 08" Ping reçu,         550
30/08/2026 11h 49' 01" Enregistrement de l'éclairement (146.9 lux & 0 lux )
30/08/2026 11h 48' 59" Ping reçu, 548
30/08/2026 11h 48' 51" Ping reçu, 546
30/08/2026 11h 48' 47" Ping reçu,         545
30/08/2026 11h 48' 38" Ping reçu, 543
30/08/2026 11h 48' 33" Ping reçu, 542
30/08/2026 11h 48' 29" Ping reçu, 541
30/08/2026 11h 48' 24" Ping reçu,         540
30/08/2026 11h 48' 15" Ping reçu, 538
30/08/2026 11h 48' 14" cPing.
30/08/2026 11h 48' 11" Ping reçu, 537
30/08/2026 11h 48' 07" Ping reçu, 536
30/08/2026 11h 48' 02" Ping reçu,         535
30/08/2026 11h 47' 54" Ping reçu, 533
30/08/2026 11h 47' 53" Enregistrement de l'éclairement (241.9 lux & 0 lux )
30/08/2026 11h 47' 50" Ping reçu, 532
30/08/2026 11h 47' 47" Ping reçu, 531
30/08/2026 11h 47' 34" Ping reçu, 528
30/08/2026 11h 47' 30" Ping reçu, 527
30/08/2026 11h 47' 26" Ping reçu, 526
30/08/2026 11h 47' 17" Ping reçu, 524
30/08/2026 11h 47' 17" cPing.
30/08/2026 11h 47' 13" Ping reçu, 523
30/08/2026 11h 47' 09" Ping reçu, 522
30/08/2026 11h 47' 02" Ping reçu,         520
30/08/2026 11h 46' 58" Enregistrement Température du pluviometre : (21,8 °C)
30/08/2026 11h 46' 54" Ping reçu, 519
30/08/2026 11h 46' 45" Ping reçu, 517
30/08/2026 11h 46' 44" Enregistrement de l'éclairement (181.5 lux & 0 lux )
30/08/2026 11h 46' 41" Ping reçu, 516
30/08/2026 11h 46' 32" Ping reçu, 514
30/08/2026 11h 46' 28" Ping reçu, 513
30/08/2026 11h 46' 24" Ping reçu, 512
30/08/2026 11h 46' 22" cPing.
30/08/2026 11h 46' 21" Ping reçu, 511
30/08/2026 11h 46' 17" Ping reçu,         510
30/08/2026 11h 46' 13" Ping reçu, 509
30/08/2026 11h 46' 09" Ping reçu, 508
30/08/2026 11h 46' 05" Ping reçu, 507
30/08/2026 11h 46' 00" Ping reçu, 506
30/08/2026 11h 45' 56" Ping reçu,         505
30/08/2026 11h 45' 52" Ping reçu, 504
30/08/2026 11h 45' 50" ERR. Ther. 14 HS.
30/08/2026 11h 45' 48" ERR. Ther. 1 HS.
30/08/2026 11h 45' 47" Ping reçu, 503
30/08/2026 11h 45' 34" Ping reçu,         500
30/08/2026 11h 45' 25" cPing.
30/08/2026 11h 45' 23" Ping reçu, 497
30/08/2026 11h 45' 19" Ping reçu, 496
30/08/2026 11h 45' 10" Ping reçu, 494
30/08/2026 11h 44' 56" Ping reçu, 491
30/08/2026 11h 44' 52" Ping reçu,         490
30/08/2026 11h 44' 48" Ping reçu, 489
30/08/2026 11h 44' 39" Ping reçu, 487
30/08/2026 11h 44' 35" Ping reçu, 486
30/08/2026 11h 44' 31" Ping reçu,         485
30/08/2026 11h 44' 30" cPing.
30/08/2026 11h 44' 27" Ping reçu, 484
30/08/2026 11h 44' 24" Ping reçu, 483
30/08/2026 11h 44' 20" Ping reçu, 482
30/08/2026 11h 44' 12" Enregistrement de la hauteur d'eau (783,580 mm @ 100,0%)
30/08/2026 11h 44' 09" Enregistrement des paramètres du vent (49.1° @ 0 m/s)
30/08/2026 11h 44' 04" Ping reçu, 479
30/08/2026 11h 43' 55" Ping reçu, 477
30/08/2026 11h 43' 51" Ping reçu, 476
30/08/2026 11h 43' 48" Ping reçu,         475
30/08/2026 11h 43' 44" Ping reçu, 474
30/08/2026 11h 43' 40" Ping reçu, 473
30/08/2026 11h 43' 33" cPing.
30/08/2026 11h 43' 29" Enregistrement de l'éclairement (216 lux & 0 lux )
30/08/2026 11h 43' 27" Ping reçu,         470
30/08/2026 11h 43' 18" Ping reçu, 468
30/08/2026 11h 43' 14" Ping reçu, 467
30/08/2026 11h 43' 10" Ping reçu, 466
30/08/2026 11h 43' 06" Ping reçu,         465
30/08/2026 11h 43' 02" Ping reçu, 464
30/08/2026 11h 42' 59" Ping reçu, 463
30/08/2026 11h 42' 55" Ping reçu, 462
30/08/2026 11h 42' 50" Ping reçu, 461
30/08/2026 11h 42' 46" Ping reçu,         460
30/08/2026 11h 42' 42" Ping reçu, 459
30/08/2026 11h 42' 38" cPing.
30/08/2026 11h 42' 20" Ping reçu, 454
30/08/2026 11h 42' 11" Ping reçu, 452
30/08/2026 11h 42' 03" Ping reçu,         450
30/08/2026 11h 41' 54" Ping reçu, 448
30/08/2026 11h 41' 52" ERR. Ther. 14 HS.
30/08/2026 11h 41' 50" ERR. Ther. 1 HS.
30/08/2026 11h 41' 49" Ping reçu, 447
30/08/2026 11h 41' 42" cPing.
30/08/2026 11h 41' 40" Ping reçu,         445
30/08/2026 11h 41' 36" Ping reçu, 444
30/08/2026 11h 41' 29" Ping reçu, 442
30/08/2026 11h 41' 26" Enregistrement de l'éclairement (345.6 lux & 0 lux )
30/08/2026 11h 41' 25" Ping reçu, 441
30/08/2026 11h 41' 20" Ping reçu,         440
30/08/2026 11h 41' 17" Ping reçu, 439
30/08/2026 11h 41' 12" Ping reçu, 438
30/08/2026 11h 41' 08" Ping reçu, 437
30/08/2026 11h 40' 59" Ping reçu,         435
30/08/2026 11h 40' 55" Ping reçu, 434
30/08/2026 11h 40' 51" Ping reçu, 433
30/08/2026 11h 40' 48" Ping reçu, 432
30/08/2026 11h 40' 45" cPing.
30/08/2026 11h 40' 44" Ping reçu, 431
30/08/2026 11h 40' 39" Ping reçu,         430
30/08/2026 11h 40' 35" Ping reçu, 429
30/08/2026 11h 40' 31" Ping reçu, 428
30/08/2026 11h 40' 27" Ping reçu, 427
30/08/2026 11h 40' 23" Ping reçu, 426
30/08/2026 11h 40' 18" Ping reçu,         425
30/08/2026 11h 40' 14" Ping reçu, 424
30/08/2026 11h 40' 06" Ping reçu, 422
30/08/2026 11h 40' 00" Enregistrement de la température (21,369 °C)
30/08/2026 11h 39' 59" Enregistrement de l'humidité (99,90 %)
30/08/2026 11h 39' 50" Ping reçu, 418
30/08/2026 11h 39' 48" cPing.
30/08/2026 11h 39' 46" Ping reçu, 417
30/08/2026 11h 39' 42" Ping reçu, 416
30/08/2026 11h 39' 37" Ping reçu,         415
30/08/2026 11h 39' 33" Ping reçu, 414
30/08/2026 11h 39' 24" Ping reçu, 412
30/08/2026 11h 39' 20" Ping reçu, 411
30/08/2026 11h 39' 11" Ping reçu, 409
30/08/2026 11h 39' 07" Ping reçu, 408
30/08/2026 11h 39' 00" Ping reçu, 406
30/08/2026 11h 38' 53" Enregistrement de l'éclairement (345.6 lux & 0 lux )
30/08/2026 11h 38' 53" cPing.
30/08/2026 11h 38' 47" Ping reçu, 403
30/08/2026 11h 38' 34" Ping reçu,         400
30/08/2026 11h 38' 33" Enregistrement des paramètres du vent (49.1° @ 0 m/s)
30/08/2026 11h 38' 29" On a tout sauvé !
30/08/2026 11h 38' 24" Ping reçu, 398
30/08/2026 11h 38' 12" Ping reçu,         395
30/08/2026 11h 38' 03" Ping reçu, 393
30/08/2026 11h 37' 56" ERR. Ther. 14 HS.
30/08/2026 11h 37' 56" cPing.
30/08/2026 11h 37' 50" Ping reçu,         390
30/08/2026 11h 37' 46" Ping reçu, 389
30/08/2026 11h 37' 41" Ping reçu, 388
30/08/2026 11h 37' 37" Ping reçu, 387
30/08/2026 11h 37' 33" Ping reçu, 386
30/08/2026 11h 37' 29" Ping reçu,         385
30/08/2026 11h 37' 19" Enregistrement de l'Arduino : (23,3 °C)
30/08/2026 11h 37' 14" Ping reçu, 382
30/08/2026 11h 37' 10" Ping reçu, 381
30/08/2026 11h 37' 01" Ping reçu, 379
30/08/2026 11h 37' 00" cPing.
30/08/2026 11h 36' 57" Ping reçu, 378
30/08/2026 11h 36' 57" Enregistrement de l'éclairement (345.6 lux & 0 lux )
30/08/2026 11h 36' 50" Ping reçu, 376
30/08/2026 11h 36' 46" Ping reçu,         375
30/08/2026 11h 36' 42" Ping reçu, 374
30/08/2026 11h 36' 37" Ping reçu, 373
30/08/2026 11h 36' 33" Ping reçu, 372
30/08/2026 11h 36' 29" Ping reçu, 371
30/08/2026 11h 36' 20" Ping reçu, 369
30/08/2026 11h 36' 16" Ping reçu, 368
30/08/2026 11h 36' 12" Ping reçu, 367
30/08/2026 11h 36' 08" Ping reçu, 366
30/08/2026 11h 36' 05" Ping reçu,         365
30/08/2026 11h 36' 05" cPing.
30/08/2026 11h 35' 59" Ping reçu, 364
30/08/2026 11h 35' 56" Ping reçu, 363
30/08/2026 11h 35' 44" Ping reçu,         360
30/08/2026 11h 35' 39" Ping reçu, 359
30/08/2026 11h 35' 35" Ping reçu, 358
30/08/2026 11h 35' 30" Ping reçu, 357
30/08/2026 11h 35' 30" Enregistrement de l'éclairement (345.6 lux & 0 lux )
30/08/2026 11h 35' 26" Ping reçu, 356
30/08/2026 11h 35' 22" Ping reçu,         355
30/08/2026 11h 35' 17" Ping reçu, 354
30/08/2026 11h 35' 13" Ping reçu, 353
30/08/2026 11h 35' 09" Ping reçu, 352
30/08/2026 11h 35' 08" cPing.
30/08/2026 11h 34' 56" Ping reçu, 349
30/08/2026 11h 34' 53" Ping reçu, 348
30/08/2026 11h 34' 49" Ping reçu, 347
30/08/2026 11h 34' 44" Enregistrement Température du pluviometre : (21,6 °C)
30/08/2026 11h 34' 41" Ping reçu, 346
30/08/2026 11h 34' 37" Ping reçu,         345
30/08/2026 11h 34' 33" Ping reçu, 344
30/08/2026 11h 34' 29" Ping reçu, 343
30/08/2026 11h 34' 24" Ping reçu, 342
30/08/2026 11h 34' 21" Ping reçu, 341
30/08/2026 11h 34' 19" Enregistrement de l'éclairement (345.6 lux & 0 lux )
30/08/2026 11h 34' 17" Ping reçu,         340
30/08/2026 11h 34' 13" cPing.
30/08/2026 11h 34' 09" Ping reçu, 338
30/08/2026 11h 34' 05" Ping reçu, 337
30/08/2026 11h 34' 00" Ping reçu, 336
30/08/2026 11h 33' 57" ERR. Ther. 1 HS.
30/08/2026 11h 33' 47" Ping reçu, 333
30/08/2026 11h 33' 43" Ping reçu, 332
30/08/2026 11h 33' 39" Ping reçu, 331
30/08/2026 11h 33' 32" Ping reçu, 329
30/08/2026 11h 33' 24" Ping reçu, 327
30/08/2026 11h 33' 23" Enregistrement de l'éclairement (345.6 lux & 0 lux )
30/08/2026 11h 33' 20" Ping reçu, 326
30/08/2026 11h 33' 16" cPing.
30/08/2026 11h 33' 15" Ping reçu,         325
30/08/2026 11h 33' 06" Ping reçu, 323
30/08/2026 11h 32' 57" Pressions pluviométriques (32,07 & 64,00)
30/08/2026 11h 32' 40" Ping reçu, 317
30/08/2026 11h 32' 36" Ping reçu, 316
30/08/2026 11h 32' 27" Ping reçu, 314
30/08/2026 11h 32' 21" cPing.
30/08/2026 11h 32' 20" Ping reçu, 312
30/08/2026 11h 32' 16" Ping reçu, 311
30/08/2026 11h 32' 16" Enregistrement de l'éclairement (345.6 lux & 0 lux )
30/08/2026 11h 32' 03" Ping reçu, 308
30/08/2026 11h 31' 54" Ping reçu, 306
30/08/2026 11h 31' 50" Ping reçu,         305
30/08/2026 11h 31' 45" Ping reçu, 304
30/08/2026 11h 31' 41" Ping reçu, 303
30/08/2026 11h 31' 35" Enregistrement de la température (20,819 °C)
30/08/2026 11h 31' 33" Ping reçu, 301
30/08/2026 11h 31' 29" Ping reçu,         300
30/08/2026 11h 31' 26" Ping reçu, 299
30/08/2026 11h 31' 24" cPing.
30/08/2026 11h 31' 09" Rw SD-card.
30/08/2026 11h 31' 04" Ping reçu, 294
30/08/2026 11h 31' 00" Ping reçu, 293
30/08/2026 11h 30' 59" Enregistrement de l'éclairement (345.6 lux & 0 lux )
30/08/2026 11h 30' 51" Ping reçu, 291
30/08/2026 11h 30' 47" Ping reçu,         290
30/08/2026 11h 30' 43" Ping reçu, 289
30/08/2026 11h 30' 38" Ping reçu, 288
30/08/2026 11h 30' 34" Ping reçu, 287
30/08/2026 11h 30' 30" Ping reçu, 286
30/08/2026 11h 30' 29" cPing.
30/08/2026 11h 30' 27" Ping reçu,         285
30/08/2026 11h 30' 19" Ping reçu, 283
30/08/2026 11h 30' 06" Enregistrement de l'humidité (99,90 %)
30/08/2026 11h 30' 05" Ping reçu,         280
30/08/2026 11h 30' 00" Ping reçu, 279
30/08/2026 11h 29' 51" Enregistrement de l'éclairement (345.6 lux & 0 lux )
30/08/2026 11h 29' 43" Ping reçu,         275
30/08/2026 11h 29' 39" Ping reçu, 274
30/08/2026 11h 29' 35" Ping reçu, 273
30/08/2026 11h 29' 33" cPing.
30/08/2026 11h 29' 31" Ping reçu, 272
30/08/2026 11h 29' 26" Ping reçu, 271
30/08/2026 11h 29' 18" Ping reçu, 269
30/08/2026 11h 29' 07" Ping reçu, 266
30/08/2026 11h 29' 03" Ping reçu,         265
30/08/2026 11h 28' 54" Ping reçu, 263
30/08/2026 11h 28' 41" Ping reçu,         260
30/08/2026 11h 28' 36" cPing.
30/08/2026 11h 28' 27" Ping reçu, 257
30/08/2026 11h 28' 23" Ping reçu, 256
30/08/2026 11h 28' 19" Ping reçu,         255
30/08/2026 11h 28' 12" Ping reçu, 253
30/08/2026 11h 28' 02" Ping reçu, 251
30/08/2026 11h 27' 59" Ping reçu,         250
30/08/2026 11h 27' 55" Ping reçu, 249
30/08/2026 11h 27' 42" Ping reçu, 246
30/08/2026 11h 27' 42" Enregistrement de l'éclairement (345.6 lux & 0 lux )
30/08/2026 11h 27' 41" cPing.
30/08/2026 11h 27' 38" Ping reçu,         245
30/08/2026 11h 27' 29" Ping reçu, 243
30/08/2026 11h 27' 25" Ping reçu, 242
30/08/2026 11h 27' 21" Enregistrement de la température (20,671 °C)
30/08/2026 11h 27' 19" Ping reçu,         240
30/08/2026 11h 27' 18" Enregistrement des paramètres du vent (49.1° @ 0 m/s)
30/08/2026 11h 27' 11" Ping reçu, 239
30/08/2026 11h 27' 03" Ping reçu, 237
30/08/2026 11h 26' 56" Ping reçu,         235
30/08/2026 11h 26' 52" Ping reçu, 234
30/08/2026 11h 26' 47" Ping reçu, 233
30/08/2026 11h 26' 44" cPing.
30/08/2026 11h 26' 43" Ping reçu, 232
30/08/2026 11h 26' 39" Ping reçu, 231
30/08/2026 11h 26' 30" Ping reçu, 229
30/08/2026 11h 26' 26" Ping reçu, 228
30/08/2026 11h 26' 18" Ping reçu, 226
30/08/2026 11h 26' 09" Ping reçu, 224
30/08/2026 11h 26' 07" ERR. Ther. 1 HS.
30/08/2026 11h 26' 07" ERR. Ther. 14 HS.
30/08/2026 11h 26' 04" Ping reçu, 223
30/08/2026 11h 26' 00" Ping reçu, 222
30/08/2026 11h 25' 56" Ping reçu, 221
30/08/2026 11h 25' 49" cPing.
30/08/2026 11h 25' 48" Ping reçu, 219
30/08/2026 11h 25' 44" Ping reçu, 218
30/08/2026 11h 25' 40" Ping reçu, 217
30/08/2026 11h 25' 36" Ping reçu, 216
30/08/2026 11h 25' 31" Ping reçu,         215
30/08/2026 11h 25' 27" Ping reçu, 214
30/08/2026 11h 25' 26" Enregistrement de l'éclairement (345.6 lux & 0 lux )
30/08/2026 11h 25' 23" Ping reçu, 213
30/08/2026 11h 25' 05" Ping reçu, 209
30/08/2026 11h 25' 01" Ping reçu, 208
30/08/2026 11h 24' 56" Ping reçu, 207
30/08/2026 11h 24' 52" Ping reçu, 206
30/08/2026 11h 24' 52" cPing.
30/08/2026 11h 24' 48" Ping reçu,         205
30/08/2026 11h 24' 44" Ping reçu, 204
30/08/2026 11h 24' 37" Ping reçu, 202
30/08/2026 11h 24' 28" Enregistrement de l'éclairement (345.6 lux & 0 lux )
30/08/2026 11h 24' 24" Ping reçu, 199
30/08/2026 11h 24' 20" Ping reçu, 1
30/08/2026 11h 24' 20" Ping reçu, 198
30/08/2026 11h 24' 13" Ping reçu, 1
30/08/2026 11h 24' 11" Ping reçu, 196
30/08/2026 11h 24' 06" Ping reçu,         195
30/08/2026 11h 24' 02" On a tout sauvé !
30/08/2026 11h 23' 57" cPing.
30/08/2026 11h 23' 49" Enregistrement de l'Arduino : (23,0 °C)
30/08/2026 11h 23' 47" Ping reçu, 191
30/08/2026 11h 23' 43" Ping reçu,         190
30/08/2026 11h 23' 35" Ping reçu, 188
30/08/2026 11h 23' 30" Ping reçu, 187
30/08/2026 11h 23' 22" Ping reçu,         185
30/08/2026 11h 23' 18" Ping reçu, 184
30/08/2026 11h 23' 14" Ping reçu, 183
30/08/2026 11h 23' 11" Ping reçu, 182
30/08/2026 11h 23' 03" Enregistrement de l'éclairement (345.6 lux & 0 lux )
30/08/2026 11h 23' 02" Ping reçu,         180
30/08/2026 11h 22' 59" cPing.
30/08/2026 11h 22' 53" Ping reçu, 178
30/08/2026 11h 22' 44" Ping reçu, 176
30/08/2026 11h 22' 29" Enregistrement Température du pluviometre : (21,4 °C)
30/08/2026 11h 22' 27" Ping reçu, 173
30/08/2026 11h 22' 23" Ping reçu, 172
30/08/2026 11h 22' 19" Ping reçu, 171
30/08/2026 11h 22' 15" Ping reçu,         170
30/08/2026 11h 22' 11" Ping reçu, 169
30/08/2026 11h 22' 08" Ping reçu, 168
30/08/2026 11h 22' 05" ERR. Ther. 1 HS.
30/08/2026 11h 22' 05" ERR. Ther. 14 HS.
30/08/2026 11h 22' 04" Ping reçu, 167
30/08/2026 11h 22' 04" cPing.
30/08/2026 11h 21' 59" Ping reçu, 166
30/08/2026 11h 21' 55" Enregistrement de l'éclairement (345.6 lux & 0 lux )
30/08/2026 11h 21' 51" Ping reçu, 164
30/08/2026 11h 21' 47" Ping reçu, 163
30/08/2026 11h 21' 42" Ping reçu, 162
30/08/2026 11h 21' 38" Ping reçu, 161
30/08/2026 11h 21' 34" Ping reçu,         160
30/08/2026 11h 21' 34" Enregistrement de la hauteur d'eau (783,460 mm @ 99,9%)
30/08/2026 11h 21' 29" Ping reçu, 159
30/08/2026 11h 21' 24" Ping reçu, 158
30/08/2026 11h 21' 20" Ping reçu, 157
30/08/2026 11h 21' 16" Ping reçu, 156
30/08/2026 11h 21' 07" cPing.
30/08/2026 11h 21' 03" Ping reçu, 153
30/08/2026 11h 20' 59" Ping reçu, 152
30/08/2026 11h 20' 56" Ping reçu, 151
30/08/2026 11h 20' 53" Enregistrement de l'éclairement (345.6 lux & 0 lux )
30/08/2026 11h 20' 52" Ping reçu,         150
30/08/2026 11h 20' 44" Ping reçu, 148
30/08/2026 11h 20' 39" Ping reçu, 147
30/08/2026 11h 20' 35" Ping reçu, 146
30/08/2026 11h 20' 30" Ping reçu,         145
30/08/2026 11h 20' 21" Ping reçu, 143
30/08/2026 11h 20' 14" Enregistrement de l'humidité (99,90 %)
30/08/2026 11h 20' 13" Ping reçu, 141
30/08/2026 11h 20' 12" cPing.
30/08/2026 11h 20' 09" Ping reçu,         140
30/08/2026 11h 20' 00" Ping reçu, 138
30/08/2026 11h 19' 49" Ping reçu,         135
30/08/2026 11h 19' 45" Ping reçu, 134
30/08/2026 11h 19' 41" Ping reçu, 133
30/08/2026 11h 19' 36" Ping reçu, 132
30/08/2026 11h 19' 23" Ping reçu, 129
30/08/2026 11h 19' 15" cPing.
30/08/2026 11h 19' 14" Ping reçu, 127
30/08/2026 11h 19' 10" Ping reçu, 126
30/08/2026 11h 19' 08" Ping reçu,         125
30/08/2026 11h 18' 59" Ping reçu, 123
30/08/2026 11h 18' 48" Enregistrement de la température (20,395 °C)
30/08/2026 11h 18' 47" Enregistrement de la Pression atmosphérique (1028,382 hPa)
30/08/2026 11h 18' 46" Ping reçu,         120
30/08/2026 11h 18' 41" Ping reçu, 119
30/08/2026 11h 18' 37" Ping reçu, 118
30/08/2026 11h 18' 33" Ping reçu, 117
30/08/2026 11h 18' 32" Enregistrement de l'éclairement (345.6 lux & 0 lux )
30/08/2026 11h 18' 29" Ping reçu, 116
30/08/2026 11h 18' 20" cPing.
30/08/2026 11h 18' 16" Ping reçu, 113
30/08/2026 11h 18' 12" Ping reçu, 112
30/08/2026 11h 18' 10" ERR. Ther. 14 HS.
30/08/2026 11h 18' 08" ERR. Ther. 1 HS.
30/08/2026 11h 18' 00" Ping reçu, 109
30/08/2026 11h 17' 56" Ping reçu, 108
30/08/2026 11h 17' 52" Ping reçu, 107
30/08/2026 11h 17' 48" Ping reçu, 106
30/08/2026 11h 17' 44" Ping reçu,         105
30/08/2026 11h 17' 35" Ping reçu, 103
30/08/2026 11h 17' 26" Enregistrement de l'éclairement (345.6 lux & 0 lux )
30/08/2026 11h 17' 23" cPing.
30/08/2026 11h 17' 13" Ping reçu, 98
30/08/2026 11h 17' 09" Ping reçu, 97
30/08/2026 11h 17' 06" Ping reçu, 96
30/08/2026 11h 17' 00" Ping reçu,         95
30/08/2026 11h 16' 56" Ping reçu, 94
30/08/2026 11h 16' 53" Ping reçu, 93
30/08/2026 11h 16' 49" Ping reçu, 92
30/08/2026 11h 16' 45" Ping reçu, 91
30/08/2026 11h 16' 41" Ping reçu,         90
30/08/2026 11h 16' 36" Ping reçu, 89
30/08/2026 11h 16' 32" Ping reçu, 88
30/08/2026 11h 16' 27" cPing.
30/08/2026 11h 16' 23" Ping reçu, 86
30/08/2026 11h 16' 15" Ping reçu, 84
30/08/2026 11h 16' 13" Ping reçu, 83
30/08/2026 11h 16' 08" Ping reçu, 82
30/08/2026 11h 16' 04" Ping reçu, 81
30/08/2026 11h 15' 59" Enregistrement des paramètres du vent (49.1° @ 0 m/s)
30/08/2026 11h 15' 39" Enregistrement de l'éclairement (345.6 lux & 0 lux )
30/08/2026 11h 15' 37" Ping reçu,         75
30/08/2026 11h 15' 33" Ping reçu, 74
30/08/2026 11h 15' 32" cPing.
30/08/2026 11h 15' 29" Ping reçu, 73
30/08/2026 11h 15' 24" Ping reçu, 72
30/08/2026 11h 15' 16" Ping reçu,         70
30/08/2026 11h 15' 12" Ping reçu, 69
30/08/2026 11h 15' 08" Ping reçu, 68
30/08/2026 11h 15' 05" Ping reçu, 67
30/08/2026 11h 15' 00" Ping reçu, 66
30/08/2026 11h 14' 56" Ping reçu,         65
30/08/2026 11h 14' 53" Ping reçu, 64
30/08/2026 11h 14' 48" Enregistrement de la température (20,331 °C)
30/08/2026 11h 14' 48" Ping reçu, 63
30/08/2026 11h 14' 39" Ping reçu, 61
30/08/2026 11h 14' 35" cPing.
30/08/2026 11h 14' 30" Ping reçu, 59
30/08/2026 11h 14' 26" Ping reçu, 58
30/08/2026 11h 14' 22" Ping reçu, 57
30/08/2026 11h 14' 16" ERR. Ther. 14 HS.
30/08/2026 11h 14' 15" ERR. Ther. 1 HS.
30/08/2026 11h 14' 06" Ping reçu, 53
30/08/2026 11h 14' 02" Ping reçu, 52
30/08/2026 11h 13' 49" Ping reçu, 49
30/08/2026 11h 13' 45" Ping reçu, 48
30/08/2026 11h 13' 41" Ping reçu, 47
30/08/2026 11h 13' 40" cPing.
30/08/2026 11h 13' 38" Enregistrement de l'éclairement (345.6 lux & 0 lux )
30/08/2026 11h 13' 36" Ping reçu, 46
30/08/2026 11h 13' 32" Ping reçu,         45
30/08/2026 11h 13' 27" Ping reçu, 44
30/08/2026 11h 13' 23" Ping reçu, 43
30/08/2026 11h 13' 15" Ping reçu, 41
30/08/2026 11h 13' 12" Ping reçu,         40
30/08/2026 11h 13' 08" Ping reçu, 39
30/08/2026 11h 13' 04" Ping reçu, 38
30/08/2026 11h 13' 00" Ping reçu, 37
30/08/2026 11h 12' 56" Ping reçu, 36
30/08/2026 11h 12' 47" Ping reçu, 34
30/08/2026 11h 12' 43" cPing.
30/08/2026 11h 12' 42" Ping reçu, 33
30/08/2026 11h 12' 34" Ping reçu, 31
30/08/2026 11h 12' 29" Ping reçu, 28
30/08/2026 11h 12' 24" Ping reçu, 27
30/08/2026 11h 12' 24" Ping reçu, 26
30/08/2026 11h 12' 23" Ping reçu, 22
30/08/2026 11h 12' 23" Ping reçu, 23
30/08/2026 11h 12' 16" Ping reçu, 21
30/08/2026 11h 12' 15" Ping reçu,         20
30/08/2026 11h 12' 11" cPing.
30/08/2026 11h 12' 05" Ping reçu, 18
30/08/2026 11h 11' 54" Ping reçu, 17
30/08/2026 11h 11' 43" Ping reçu, 16
30/08/2026 11h 11' 42" Ping reçu,         15
30/08/2026 11h 11' 35" Ping reçu, 13
30/08/2026 11h 11' 08" Ping reçu,         10
30/08/2026 11h 11' 03" Ping reçu, 9
30/08/2026 11h 10' 55" Ping reçu, 7
30/08/2026 11h 10' 51" cPing.
30/08/2026 11h 10' 48" Ping reçu,         5
30/08/2026 11h 10' 41" Ping reçu, 3
30/08/2026 11h 10' 37" Ping reçu, 2
30/08/2026 11h 10' 34" Ping reçu, 1
30/08/2026 11h 10' 26" Enregistrement Température du pluviometre : (21,3 °C)
30/08/2026 11h 10' 26" Enregistrement de l'Arduino : (22,8 °C)
30/08/2026 11h 10' 26" Enregistrement de la température (19,955 °C)
30/08/2026 11h 10' 23" Pressions pluviométriques (32,07 & 64,00)
30/08/2026 11h 10' 23" Enregistrement de la hauteur d'eau (783,500 mm @ 99,8%)
30/08/2026 11h 10' 21" Enregistrement de la Pression atmosphérique (1028,388 hPa)
30/08/2026 11h 10' 21" Ping reçu,         3360
30/08/2026 11h 10' 14" ERR. Ther. 14 HS.
30/08/2026 11h 10' 13" ERR. Ther. 1 HS.
30/08/2026 11h 10' 12" Ping reçu, 3359
30/08/2026 11h 10' 08" Ping reçu, 3358
30/08/2026 11h 10' 04" Ping reçu, 3357
30/08/2026 11h 10' 00" Ping reçu, 3356
30/08/2026 11h 09' 56" cPing.
30/08/2026 11h 09' 51" Ping reçu, 3354
30/08/2026 11h 09' 47" Ping reçu, 3353
30/08/2026 11h 09' 44" Ping reçu, 1
30/08/2026 11h 09' 43" Ping reçu, 3352
30/08/2026 11h 09' 39" Ping reçu, 3351
30/08/2026 11h 09' 35" Ping reçu,         3350
30/08/2026 11h 09' 35" Ping reçu, 1
30/08/2026 11h 09' 30" Ping reçu, 3349
30/08/2026 11h 09' 29" Enregistrement de l'éclairement (345.6 lux & 0 lux )
30/08/2026 11h 09' 27" Ping reçu, 3348
30/08/2026 11h 09' 24" On a tout sauvé !
30/08/2026 11h 09' 23" Ping reçu, 3347
30/08/2026 11h 09' 19" Ping reçu, 3346
30/08/2026 11h 09' 10" Ping reçu, 3344
30/08/2026 11h 09' 06" Ping reçu, 3343
30/08/2026 11h 09' 02" Ping reçu, 3342
30/08/2026 11h 09' 00" cPing.
30/08/2026 11h 08' 40" Ping reçu, 3337
30/08/2026 11h 08' 27" Ping reçu, 3334
30/08/2026 11h 08' 24" Ping reçu, 3333
30/08/2026 11h 08' 21" Enregistrement de l'éclairement (345.6 lux & 0 lux )
30/08/2026 11h 08' 20" Ping reçu, 3332
30/08/2026 11h 08' 11" Ping reçu,         3330
30/08/2026 11h 08' 08" Ping reçu, 3329
30/08/2026 11h 08' 03" cPing.
30/08/2026 11h 07' 59" Ping reçu, 3327
30/08/2026 11h 07' 54" Ping reçu, 3326
30/08/2026 11h 07' 50" Ping reçu,         3325
30/08/2026 11h 07' 45" Ping reçu, 3324
30/08/2026 11h 07' 28" Ping reçu,         3320
30/08/2026 11h 07' 21" Ping reçu, 3318
30/08/2026 11h 07' 17" Ping reçu, 3317
30/08/2026 11h 07' 13" Ping reçu, 3316
30/08/2026 11h 07' 06" cPing.
30/08/2026 11h 07' 05" Ping reçu, 3314
30/08/2026 11h 07' 00" Ping reçu, 3313
30/08/2026 11h 06' 51" Ping reçu, 3311
30/08/2026 11h 06' 47" Ping reçu,         3310
30/08/2026 11h 06' 42" Ping reçu, 3309
30/08/2026 11h 06' 38" Ping reçu, 3308
30/08/2026 11h 06' 34" Ping reçu, 3307
30/08/2026 11h 06' 30" Ping reçu, 3306
30/08/2026 11h 06' 27" Ping reçu,         3305
30/08/2026 11h 06' 23" Enregistrement de l'éclairement (345.6 lux & 0 lux )
30/08/2026 11h 06' 19" ERR. Ther. 1 HS.
30/08/2026 11h 06' 19" ERR. Ther. 14 HS.
30/08/2026 11h 06' 18" Ping reçu, 3303
30/08/2026 11h 06' 11" cPing.
30/08/2026 11h 06' 10" Ping reçu, 3301
30/08/2026 11h 06' 05" Ping reçu,         3300
30/08/2026 11h 06' 01" Ping reçu, 3299
30/08/2026 11h 05' 57" Ping reçu, 3298
30/08/2026 11h 05' 48" Ping reçu, 3296
30/08/2026 11h 05' 39" Ping reçu, 3294
30/08/2026 11h 05' 35" Ping reçu, 3293
30/08/2026 11h 05' 31" Ping reçu, 3292
30/08/2026 11h 05' 23" Ping reçu,         3290
30/08/2026 11h 05' 20" Ping reçu, 3289
30/08/2026 11h 05' 14" cPing.
30/08/2026 11h 05' 09" Enregistrement Température du pluviometre : (21,2 °C)
30/08/2026 11h 04' 59" Ping reçu,         3285
30/08/2026 11h 04' 54" Ping reçu, 3284
30/08/2026 11h 04' 50" Ping reçu, 3283
30/08/2026 11h 04' 42" Ping reçu, 3281
30/08/2026 11h 04' 39" Enregistrement des paramètres du vent (49.1° @ 0 m/s)
30/08/2026 11h 04' 39" Ping reçu,         3280
30/08/2026 11h 04' 33" Ping reçu, 3279
30/08/2026 11h 04' 29" Ping reçu, 3278
30/08/2026 11h 04' 26" Ping reçu, 3277
30/08/2026 11h 04' 18" cPing.
30/08/2026 11h 04' 17" Ping reçu,         3275
30/08/2026 11h 04' 09" Ping reçu, 3273
30/08/2026 11h 04' 00" Ping reçu, 3271
30/08/2026 11h 03' 56" Ping reçu,         3270
30/08/2026 11h 03' 51" Ping reçu, 3269
30/08/2026 11h 03' 43" Ping reçu, 3267
30/08/2026 11h 03' 39" Ping reçu, 3266
30/08/2026 11h 03' 35" Ping reçu,         3265
30/08/2026 11h 03' 32" Ping reçu, 3264
30/08/2026 11h 03' 23" Ping reçu, 3262
30/08/2026 11h 03' 23" cPing.
30/08/2026 11h 03' 19" Ping reçu, 3261
30/08/2026 11h 03' 11" Ping reçu, 3259
30/08/2026 11h 03' 06" Ping reçu, 3258
30/08/2026 11h 02' 57" Ping reçu, 3256
30/08/2026 11h 02' 53" Ping reçu,         3255
30/08/2026 11h 02' 49" Ping reçu, 3254
30/08/2026 11h 02' 45" Ping reçu, 3253
30/08/2026 11h 02' 33" Ping reçu,         3250
30/08/2026 11h 02' 29" Ping reçu, 3249
30/08/2026 11h 02' 26" cPing.
30/08/2026 11h 02' 25" Ping reçu, 3248
30/08/2026 11h 02' 21" ERR. Ther. 1 HS.
30/08/2026 11h 02' 21" ERR. Ther. 14 HS.
30/08/2026 11h 02' 20" Enregistrement de l'Arduino : (22,8 °C)
30/08/2026 11h 02' 17" Ping reçu, 3247
30/08/2026 11h 02' 08" Ping reçu,         3245
30/08/2026 11h 02' 08" Rw SD-card.
30/08/2026 11h 02' 04" Ping reçu, 3244
30/08/2026 11h 02' 00" Ping reçu, 3243
30/08/2026 11h 01' 55" Ping reçu, 3242
30/08/2026 11h 01' 51" Ping reçu, 3241
30/08/2026 11h 01' 50" Enregistrement de la température (19,949 °C)
30/08/2026 11h 01' 42" Ping reçu, 3239
30/08/2026 11h 01' 38" Ping reçu, 3238
30/08/2026 11h 01' 37" Enregistrement de l'éclairement (345.6 lux & 0 lux )
30/08/2026 11h 01' 35" Ping reçu, 3237
30/08/2026 11h 01' 31" Ping reçu, 3236
30/08/2026 11h 01' 31" cPing.
30/08/2026 11h 01' 28" On purge les valeurs du crystal...
30/08/2026 11h 01' 23" Ping reçu, 3234
30/08/2026 11h 01' 18" Ping reçu, 3233
30/08/2026 11h 01' 14" Ping reçu, 3232
30/08/2026 11h 01' 05" Ping reçu,         3230
30/08/2026 11h 01' 01" Ping reçu, 3229
30/08/2026 11h 00' 57" Ping reçu, 3228
30/08/2026 11h 00' 55" Enregistrement de l'éclairement (345.6 lux & 0 lux )
30/08/2026 11h 00' 50" Ping reçu, 3226
30/08/2026 11h 00' 42" On purge les valeurs du crystal...
30/08/2026 11h 00' 41" Ping reçu, 3224
30/08/2026 11h 00' 37" Ping reçu, 3223
30/08/2026 11h 00' 34" cPing.
30/08/2026 11h 00' 29" Ping reçu, 3221
30/08/2026 11h 00' 29" Enregistrement de l'humidité (99,90 %)
30/08/2026 11h 00' 24" Ping reçu,         3220
30/08/2026 11h 00' 20" Ping reçu, 3219
30/08/2026 11h 00' 11" Ping reçu, 3217
30/08/2026 11h 00' 07" Ping reçu, 3216
30/08/2026 10h 59' 58" Ping reçu, 3214
30/08/2026 10h 59' 53" Ping reçu, 3213
30/08/2026 10h 59' 49" Ping reçu, 3212
30/08/2026 10h 59' 45" Ping reçu, 3211
30/08/2026 10h 59' 42" Ping reçu,         3210
30/08/2026 10h 59' 39" cPing.
30/08/2026 10h 59' 38" Ping reçu, 3209
30/08/2026 10h 59' 34" Ping reçu, 3208
30/08/2026 10h 59' 26" Ping reçu, 3206
30/08/2026 10h 59' 21" Ping reçu,         3205
30/08/2026 10h 59' 18" Enregistrement de l'éclairement (345.6 lux & 0 lux )
30/08/2026 10h 59' 08" Ping reçu, 3202
30/08/2026 10h 59' 06" Ping reçu, 3201
30/08/2026 10h 59' 02" Pressions pluviométriques (32,07 & 64,00)
30/08/2026 10h 59' 02" Enregistrement de la hauteur d'eau (783,500 mm @ 99,8%)
30/08/2026 10h 58' 59" Enregistrement des paramètres du vent (49.1° @ 0 m/s)
30/08/2026 10h 58' 55" Ping reçu, 3199
30/08/2026 10h 58' 42" Ping reçu, 3196
30/08/2026 10h 58' 42" cPing.
30/08/2026 10h 58' 38" Ping reçu,         3195
30/08/2026 10h 58' 35" Ping reçu, 3194
30/08/2026 10h 58' 31" Ping reçu, 3193
30/08/2026 10h 58' 23" ERR. Ther. 14 HS.
30/08/2026 10h 58' 17" Ping reçu,         3190
30/08/2026 10h 58' 12" Enregistrement de l'éclairement (345.6 lux & 0 lux )
30/08/2026 10h 58' 09" Ping reçu, 3188
30/08/2026 10h 58' 05" Ping reçu, 3187
30/08/2026 10h 58' 00" Ping reçu, 3186
30/08/2026 10h 57' 56" Ping reçu,         3185
30/08/2026 10h 57' 52" Ping reçu, 3184
30/08/2026 10h 57' 48" Ping reçu, 3183
30/08/2026 10h 57' 47" cPing.
30/08/2026 10h 57' 38" Enregistrement de la température (20,228 °C)
30/08/2026 10h 57' 30" Ping reçu, 3179
30/08/2026 10h 57' 27" Ping reçu, 3178
30/08/2026 10h 57' 23" Ping reçu, 3177
30/08/2026 10h 57' 19" Ping reçu, 3176
30/08/2026 10h 57' 15" Enregistrement de l'éclairement (345.6 lux & 0 lux )
30/08/2026 10h 57' 15" Ping reçu,         3175
30/08/2026 10h 57' 11" Ping reçu, 3174
30/08/2026 10h 56' 57" Ping reçu, 3171
30/08/2026 10h 56' 53" Ping reçu,         3170
30/08/2026 10h 56' 50" cPing.
30/08/2026 10h 56' 49" Ping reçu, 3169
30/08/2026 10h 56' 40" Ping reçu, 3167
30/08/2026 10h 56' 36" Ping reçu, 3166
30/08/2026 10h 56' 23" Ping reçu, 3163
30/08/2026 10h 56' 20" Ping reçu, 3162
30/08/2026 10h 56' 16" Ping reçu, 3161
30/08/2026 10h 56' 12" Ping reçu,         3160
30/08/2026 10h 56' 08" Ping reçu, 3159
30/08/2026 10h 56' 03" Ping reçu, 3158
30/08/2026 10h 55' 56" Enregistrement de l'éclairement (345.6 lux & 0 lux )
30/08/2026 10h 55' 54" cPing.
30/08/2026 10h 55' 37" Ping reçu, 3152
30/08/2026 10h 55' 33" Ping reçu, 3151
30/08/2026 10h 55' 26" Ping reçu, 3149
30/08/2026 10h 55' 14" Ping reçu, 3146
30/08/2026 10h 55' 09" Ping reçu,         3145
30/08/2026 10h 55' 05" Ping reçu, 3144
30/08/2026 10h 54' 59" cPing.
30/08/2026 10h 54' 51" Enregistrement de l'éclairement (345.6 lux & 0 lux )
30/08/2026 10h 54' 51" Ping reçu, 3141
30/08/2026 10h 54' 51" On a tout sauvé !
30/08/2026 10h 54' 47" Ping reçu,         3140
30/08/2026 10h 54' 42" Ping reçu, 3139
30/08/2026 10h 54' 38" Ping reçu, 3138
30/08/2026 10h 54' 30" Ping reçu, 3136
30/08/2026 10h 54' 28" ERR. Ther. 14 HS.
30/08/2026 10h 54' 25" Ping reçu,         3135
30/08/2026 10h 54' 21" Ping reçu, 3134
30/08/2026 10h 54' 17" Ping reçu, 3133
30/08/2026 10h 54' 14" Enregistrement de l'éclairement (345.6 lux & 0 lux )
30/08/2026 10h 54' 08" Ping reçu, 3131
30/08/2026 10h 54' 05" Ping reçu,         3130
30/08/2026 10h 54' 02" cPing.
30/08/2026 10h 53' 57" Ping reçu, 3128
30/08/2026 10h 53' 53" Ping reçu, 3127
30/08/2026 10h 53' 48" Ping reçu, 3126
30/08/2026 10h 53' 44" Ping reçu,         3125
30/08/2026 10h 53' 40" Ping reçu, 3124
30/08/2026 10h 53' 36" Ping reçu, 3123
30/08/2026 10h 53' 33" Enregistrement de la Pression atmosphérique (1028,424 hPa)
30/08/2026 10h 53' 33" Ping reçu, 3122
30/08/2026 10h 53' 25" Ping reçu,         3120
30/08/2026 10h 53' 24" Enregistrement des paramètres du vent (49.1° @ 0 m/s)
30/08/2026 10h 53' 18" Ping reçu, 3119
30/08/2026 10h 53' 14" Ping reçu, 3118
30/08/2026 10h 53' 07" cPing.
30/08/2026 10h 52' 50" Ping reçu, 3113
30/08/2026 10h 52' 45" Ping reçu, 3112
30/08/2026 10h 52' 41" Ping reçu, 3111
30/08/2026 10h 52' 32" Ping reçu, 3109
30/08/2026 10h 52' 31" Enregistrement de l'éclairement (345.6 lux & 0 lux )
30/08/2026 10h 52' 15" Ping reçu,         3105
30/08/2026 10h 52' 11" Ping reçu, 3104
30/08/2026 10h 52' 09" cPing.
30/08/2026 10h 51' 59" Ping reçu, 3101
30/08/2026 10h 51' 55" Ping reçu,         3100
30/08/2026 10h 51' 46" Ping reçu, 3098
30/08/2026 10h 51' 42" Ping reçu, 3097
30/08/2026 10h 51' 38" Ping reçu, 3096
30/08/2026 10h 51' 33" Ping reçu,         3095
30/08/2026 10h 51' 24" Ping reçu, 3093
30/08/2026 10h 51' 24" Enregistrement de l'éclairement (345.6 lux & 0 lux )
30/08/2026 10h 51' 20" Ping reçu, 3092
30/08/2026 10h 51' 18" Ping reçu, 3091
30/08/2026 10h 51' 14" cPing.
30/08/2026 10h 51' 05" Ping reçu, 3088
30/08/2026 10h 50' 52" Ping reçu,         3085
30/08/2026 10h 50' 48" Ping reçu, 3084
30/08/2026 10h 50' 44" Ping reçu, 3083
30/08/2026 10h 50' 39" Ping reçu, 3082
30/08/2026 10h 50' 35" Ping reçu, 3081
30/08/2026 10h 50' 31" Ping reçu,         3080
30/08/2026 10h 50' 29" ERR. Ther. 14 HS.
30/08/2026 10h 50' 27" ERR. Ther. 1 HS.
30/08/2026 10h 50' 26" Ping reçu, 3079
30/08/2026 10h 50' 18" Enregistrement de l'éclairement (345.6 lux & 0 lux )
30/08/2026 10h 50' 18" cPing.
30/08/2026 10h 50' 09" Ping reçu,         3075
30/08/2026 10h 50' 06" Ping reçu, 3074
30/08/2026 10h 50' 03" Ping reçu, 3073
30/08/2026 10h 49' 59" Ping reçu, 3072
30/08/2026 10h 49' 50" Ping reçu,         3070
30/08/2026 10h 49' 32" Ping reçu, 3066
30/08/2026 10h 49' 28" Ping reçu,         3065
30/08/2026 10h 49' 22" cPing.
30/08/2026 10h 49' 13" Ping reçu, 3061
30/08/2026 10h 49' 12" Enregistrement de la température (20,082 °C)
30/08/2026 10h 49' 09" Ping reçu,         3060
30/08/2026 10h 49' 09" Enregistrement de l'éclairement (345.6 lux & 0 lux )
30/08/2026 10h 49' 04" Ping reçu, 3059
30/08/2026 10h 48' 50" Enregistrement de l'Arduino : (22,8 °C)
30/08/2026 10h 48' 48" Ping reçu, 3056
30/08/2026 10h 48' 39" Ping reçu, 3054
30/08/2026 10h 48' 35" Ping reçu, 3053
30/08/2026 10h 48' 28" Ping reçu, 3051
30/08/2026 10h 48' 25" cPing.
30/08/2026 10h 48' 24" Ping reçu,         3050
30/08/2026 10h 48' 20" Ping reçu, 3049
30/08/2026 10h 48' 15" Ping reçu, 3048
30/08/2026 10h 48' 11" Ping reçu, 3047
30/08/2026 10h 48' 07" Ping reçu, 3046
30/08/2026 10h 48' 03" Ping reçu,         3045
30/08/2026 10h 48' 02" Enregistrement de l'éclairement (345.6 lux & 0 lux )
30/08/2026 10h 48' 00" Ping reçu, 3044
30/08/2026 10h 47' 56" Ping reçu, 3043
30/08/2026 10h 47' 48" Ping reçu, 3041
30/08/2026 10h 47' 44" Ping reçu,         3040
30/08/2026 10h 47' 38" Ping reçu, 3039
30/08/2026 10h 47' 30" cPing.
30/08/2026 10h 47' 20" Ping reçu,         3035
30/08/2026 10h 47' 08" Ping reçu, 3032
30/08/2026 10h 46' 59" Ping reçu,         3030
30/08/2026 10h 46' 55" Ping reçu, 3029
30/08/2026 10h 46' 54" Enregistrement de l'éclairement (345.6 lux & 0 lux )
30/08/2026 10h 46' 47" Ping reçu, 3027
30/08/2026 10h 46' 42" Ping reçu, 3026
30/08/2026 10h 46' 38" Ping reçu,         3025
30/08/2026 10h 46' 33" cPing.
30/08/2026 10h 46' 32" ERR. Ther. 1 HS.
30/08/2026 10h 46' 32" ERR. Ther. 14 HS.
30/08/2026 10h 46' 26" Ping reçu, 3022
30/08/2026 10h 46' 17" Ping reçu,         3020
30/08/2026 10h 46' 13" Ping reçu, 3019
30/08/2026 10h 46' 05" Ping reçu, 3017
30/08/2026 10h 46' 00" Ping reçu, 3016
30/08/2026 10h 45' 48" Ping reçu, 3013
30/08/2026 10h 45' 47" Enregistrement de l'éclairement (345.6 lux & 0 lux )
30/08/2026 10h 45' 39" Ping reçu, 3011
30/08/2026 10h 45' 38" cPing.
30/08/2026 10h 45' 35" Ping reçu,         3010
30/08/2026 10h 45' 32" Ping reçu, 3009
30/08/2026 10h 45' 28" Ping reçu, 3008
30/08/2026 10h 45' 15" Ping reçu,         3005
30/08/2026 10h 45' 11" Ping reçu, 3004
30/08/2026 10h 45' 02" Ping reçu, 3002
30/08/2026 10h 44' 57" Ping reçu, 3001
30/08/2026 10h 44' 57" Enregistrement de la température (19,954 °C)
30/08/2026 10h 44' 54" Enregistrement de la Pression atmosphérique (1028,417 hPa)
30/08/2026 10h 44' 48" Ping reçu, 2999
30/08/2026 10h 44' 44" Ping reçu, 2998
30/08/2026 10h 44' 42" Ping reçu, 2997
30/08/2026 10h 44' 42" cPing.
30/08/2026 10h 44' 33" Ping reçu,         2995
30/08/2026 10h 44' 29" Ping reçu, 2994
30/08/2026 10h 44' 25" Ping reçu, 2993
30/08/2026 10h 44' 21" Ping reçu, 2992
30/08/2026 10h 44' 12" Ping reçu,         2990
30/08/2026 10h 44' 08" Ping reçu, 2989
30/08/2026 10h 44' 03" Ping reçu, 2988
30/08/2026 10h 43' 59" Ping reçu, 2987
30/08/2026 10h 43' 55" Ping reçu, 2986
30/08/2026 10h 43' 51" Ping reçu,         2985
30/08/2026 10h 43' 48" Ping reçu, 2984
30/08/2026 10h 43' 45" cPing.
30/08/2026 10h 43' 44" Ping reçu, 2983
30/08/2026 10h 43' 35" Enregistrement de l'éclairement (345.6 lux & 0 lux )
30/08/2026 10h 43' 31" Ping reçu,         2980
30/08/2026 10h 43' 27" Ping reçu, 2979
30/08/2026 10h 43' 23" Ping reçu, 2978
30/08/2026 10h 43' 18" Ping reçu, 2977
30/08/2026 10h 43' 09" Ping reçu,         2975
30/08/2026 10h 42' 56" Ping reçu, 2972
30/08/2026 10h 42' 50" cPing.
30/08/2026 10h 42' 48" Ping reçu,         2970
30/08/2026 10h 42' 45" Ping reçu, 2969
30/08/2026 10h 42' 41" Ping reçu, 2968
30/08/2026 10h 42' 38" ERR. Ther. 1 HS.
30/08/2026 10h 42' 38" ERR. Ther. 14 HS.
30/08/2026 10h 42' 32" Ping reçu, 2966
30/08/2026 10h 42' 28" Ping reçu,         2965
30/08/2026 10h 42' 19" Ping reçu, 2963
30/08/2026 10h 42' 15" Ping reçu, 2962
30/08/2026 10h 42' 11" Ping reçu, 2961
30/08/2026 10h 42' 06" Ping reçu,         2960
30/08/2026 10h 42' 02" Ping reçu, 2959
30/08/2026 10h 41' 57" Ping reçu, 2958
30/08/2026 10h 41' 53" cPing.
30/08/2026 10h 41' 48" Ping reçu, 2956
30/08/2026 10h 41' 35" Ping reçu, 2953
30/08/2026 10h 41' 31" Ping reçu, 2952
30/08/2026 10h 41' 27" Ping reçu, 2951
30/08/2026 10h 41' 23" Ping reçu,         2950
30/08/2026 10h 41' 18" Ping reçu, 2949
30/08/2026 10h 41' 14" Ping reçu, 2948
30/08/2026 10h 41' 11" Ping reçu, 2947
30/08/2026 10h 41' 03" Ping reçu,         2945
30/08/2026 10h 40' 59" Ping reçu, 2944
30/08/2026 10h 40' 58" cPing.
30/08/2026 10h 40' 50" Ping reçu, 2942
30/08/2026 10h 40' 44" Enregistrement Température du pluviometre : (21,0 °C)
30/08/2026 10h 40' 42" Ping reçu, 2941
30/08/2026 10h 40' 41" Enregistrement de la température (19,810 °C)
30/08/2026 10h 40' 39" Ping reçu,         2940
30/08/2026 10h 40' 37" Ping reçu, 1
30/08/2026 10h 40' 33" Ping reçu, 2939
30/08/2026 10h 40' 24" On a tout sauvé !
30/08/2026 10h 40' 14" Ping reçu,         2935
30/08/2026 10h 40' 09" Ping reçu, 2934
30/08/2026 10h 40' 05" Ping reçu, 2933
30/08/2026 10h 40' 01" Ping reçu, 2932
30/08/2026 10h 40' 01" cPing.
30/08/2026 10h 39' 57" Ping reçu, 2931
30/08/2026 10h 39' 53" Ping reçu,         2930
30/08/2026 10h 39' 44" Ping reçu, 2928
30/08/2026 10h 39' 41" Ping reçu, 2927
30/08/2026 10h 39' 37" Ping reçu, 2926
30/08/2026 10h 39' 33" Ping reçu,         2925
30/08/2026 10h 39' 29" Ping reçu, 2924
30/08/2026 10h 39' 24" Ping reçu, 2923
30/08/2026 10h 39' 20" Ping reçu, 2922
30/08/2026 10h 39' 16" Ping reçu, 2921
30/08/2026 10h 39' 11" Ping reçu,         2920
30/08/2026 10h 39' 06" cPing.
30/08/2026 10h 39' 03" Ping reçu, 2918
30/08/2026 10h 38' 57" Enregistrement de l'éclairement (345.6 lux & 0 lux )
30/08/2026 10h 38' 56" Ping reçu, 2916
30/08/2026 10h 38' 52" Ping reçu,         2915
30/08/2026 10h 38' 43" Ping reçu, 2913
30/08/2026 10h 38' 39" Ping reçu, 2912
30/08/2026 10h 38' 35" ERR. Ther. 1 HS.
30/08/2026 10h 38' 35" ERR. Ther. 14 HS.
30/08/2026 10h 38' 30" Ping reçu,         2910
30/08/2026 10h 38' 26" Ping reçu, 2909
30/08/2026 10h 38' 13" Ping reçu, 2906
30/08/2026 10h 38' 09" cPing.
30/08/2026 10h 38' 00" Ping reçu, 2903
30/08/2026 10h 37' 56" Ping reçu, 2902
30/08/2026 10h 37' 51" Enregistrement de l'éclairement (345.6 lux & 0 lux )
30/08/2026 10h 37' 44" Ping reçu, 2899
30/08/2026 10h 37' 31" Ping reçu, 2896
30/08/2026 10h 37' 18" Ping reçu, 2893
30/08/2026 10h 37' 13" cPing.
30/08/2026 10h 37' 09" Ping reçu, 2891
30/08/2026 10h 37' 01" Ping reçu, 2889
30/08/2026 10h 36' 57" Ping reçu, 2888
30/08/2026 10h 36' 54" Ping reçu, 2887
30/08/2026 10h 36' 46" Ping reçu,         2885
30/08/2026 10h 36' 42" Enregistrement de l'éclairement (332.7 lux & 0 lux )
30/08/2026 10h 36' 42" Ping reçu, 2884
30/08/2026 10h 36' 38" Ping reçu, 2883
30/08/2026 10h 36' 33" Ping reçu, 2882
30/08/2026 10h 36' 29" Ping reçu, 2881
30/08/2026 10h 36' 27" Enregistrement de la température (19,869 °C)
30/08/2026 10h 36' 25" Enregistrement de la hauteur d'eau (783,660 mm @ 99,8%)
30/08/2026 10h 36' 24" Ping reçu,         2880
30/08/2026 10h 36' 24" Enregistrement des paramètres du vent (49.1° @ 0 m/s)
30/08/2026 10h 36' 24" Enregistrement de la Pression atmosphérique (1028,354 hPa)
30/08/2026 10h 36' 16" cPing.
30/08/2026 10h 36' 14" Ping reçu, 2878
30/08/2026 10h 36' 10" Ping reçu, 2877
30/08/2026 10h 36' 06" Ping reçu, 2876
30/08/2026 10h 36' 02" Ping reçu,         2875
30/08/2026 10h 35' 48" Ping reçu, 2872
30/08/2026 10h 35' 45" Ping reçu, 2871
30/08/2026 10h 35' 40" Ping reçu,         2870
30/08/2026 10h 35' 36" Ping reçu, 2869
30/08/2026 10h 35' 32" Ping reçu, 2868
30/08/2026 10h 35' 29" Ping reçu, 2867
30/08/2026 10h 35' 25" Ping reçu, 2866
30/08/2026 10h 35' 21" cPing.
30/08/2026 10h 35' 17" Ping reçu,         2865
30/08/2026 10h 35' 08" Ping reçu, 2863
30/08/2026 10h 35' 04" Ping reçu, 2862
30/08/2026 10h 34' 55" Ping reçu,         2860
30/08/2026 10h 34' 51" Ping reçu, 2859
30/08/2026 10h 34' 48" Ping reçu, 2858
30/08/2026 10h 34' 44" Ping reçu, 2857
30/08/2026 10h 34' 31" Ping reçu, 2854
30/08/2026 10h 34' 27" Ping reçu, 2853
30/08/2026 10h 34' 26" Enregistrement de l'éclairement (345.6 lux & 0 lux )
30/08/2026 10h 34' 24" cPing.
30/08/2026 10h 34' 23" Ping reçu, 2852
30/08/2026 10h 34' 14" Ping reçu,         2850
30/08/2026 10h 34' 10" Ping reçu, 2849
30/08/2026 10h 34' 06" Ping reçu, 2848
30/08/2026 10h 33' 53" Ping reçu,         2845
30/08/2026 10h 33' 50" Ping reçu, 2844
30/08/2026 10h 33' 46" Ping reçu, 2843
30/08/2026 10h 33' 42" Ping reçu, 2842
30/08/2026 10h 33' 29" Ping reçu, 2839
30/08/2026 10h 33' 29" cPing.
30/08/2026 10h 33' 24" Ping reçu, 2838
30/08/2026 10h 33' 20" Ping reçu, 2837
30/08/2026 10h 33' 19" Enregistrement de l'éclairement (345.6 lux & 0 lux )
30/08/2026 10h 33' 16" Ping reçu, 2836
30/08/2026 10h 33' 07" Ping reçu, 2834
30/08/2026 10h 33' 03" Ping reçu, 2833
30/08/2026 10h 32' 56" Ping reçu, 2831
30/08/2026 10h 32' 52" Ping reçu,         2830
30/08/2026 10h 32' 48" Ping reçu, 2829
30/08/2026 10h 32' 44" Ping reçu, 2828
30/08/2026 10h 32' 39" Ping reçu, 2827
30/08/2026 10h 32' 35" Ping reçu, 2826
30/08/2026 10h 32' 33" cPing.
30/08/2026 10h 32' 26" Ping reçu, 2824
30/08/2026 10h 32' 22" Ping reçu, 2823
30/08/2026 10h 32' 18" Ping reçu, 2822
30/08/2026 10h 32' 14" Ping reçu, 2821
30/08/2026 10h 32' 12" Enregistrement de la température (19,920 °C)
30/08/2026 10h 32' 11" Ping reçu,         2820
30/08/2026 10h 32' 06" Ping reçu, 2819
30/08/2026 10h 31' 58" Ping reçu, 2817
30/08/2026 10h 31' 53" Ping reçu, 2816
30/08/2026 10h 31' 45" Ping reçu, 2814
30/08/2026 10h 31' 40" Ping reçu, 2813
30/08/2026 10h 31' 36" cPing.
30/08/2026 10h 31' 36" Ping reçu, 2812
30/08/2026 10h 31' 32" Ping reçu, 2811
30/08/2026 10h 31' 23" Ping reçu, 2809
30/08/2026 10h 31' 19" Ping reçu, 2808
30/08/2026 10h 31' 15" Ping reçu, 2807
30/08/2026 10h 31' 11" Ping reçu, 2806
30/08/2026 10h 31' 08" Ping reçu,         2805
30/08/2026 10h 31' 04" Ping reçu, 2804
30/08/2026 10h 31' 00" Ping reçu, 2803
30/08/2026 10h 30' 56" Ping reçu, 2802
30/08/2026 10h 30' 51" Ping reçu, 2801
30/08/2026 10h 30' 47" Enregistrement des paramètres du vent (49.1° @ 0 m/s)
30/08/2026 10h 30' 47" Ping reçu,         2800
30/08/2026 10h 30' 42" ERR. Ther. 14 HS.
30/08/2026 10h 30' 42" ERR. Ther. 1 HS.
30/08/2026 10h 30' 41" cPing.
30/08/2026 10h 30' 37" Ping reçu, 2798
30/08/2026 10h 30' 33" Ping reçu, 2797
30/08/2026 10h 30' 24" Ping reçu,         2795
30/08/2026 10h 30' 11" Ping reçu, 2792
30/08/2026 10h 30' 07" Ping reçu, 2791
30/08/2026 10h 30' 03" Ping reçu,         2790
30/08/2026 10h 30' 00" Ping reçu, 2789
30/08/2026 10h 29' 58" Enregistrement de l'éclairement (345.6 lux & 0 lux )
30/08/2026 10h 29' 52" Ping reçu, 2787
30/08/2026 10h 29' 48" Ping reçu, 2786
30/08/2026 10h 29' 44" cPing.
30/08/2026 10h 29' 44" Ping reçu,         2785
30/08/2026 10h 29' 39" Ping reçu, 2784
30/08/2026 10h 29' 35" Ping reçu, 2783
30/08/2026 10h 29' 31" Ping reçu, 2782
30/08/2026 10h 29' 26" Ping reçu, 2781
30/08/2026 10h 29' 18" Ping reçu, 2779
30/08/2026 10h 29' 15" Ping reçu, 2778
30/08/2026 10h 29' 11" Ping reçu, 2777
30/08/2026 10h 29' 07" Ping reçu, 2776
30/08/2026 10h 29' 03" Ping reçu,         2775
30/08/2026 10h 28' 58" Ping reçu, 2774
30/08/2026 10h 28' 54" Ping reçu, 2773
30/08/2026 10h 28' 50" Ping reçu, 2772
30/08/2026 10h 28' 49" cPing.
30/08/2026 10h 28' 41" Ping reçu,         2770
30/08/2026 10h 28' 33" Enregistrement Température du pluviometre : (20,8 °C)
30/08/2026 10h 28' 29" Ping reçu, 2768
30/08/2026 10h 28' 26" Ping reçu, 2767
30/08/2026 10h 28' 22" Ping reçu, 2766
30/08/2026 10h 28' 18" Ping reçu,         2765
30/08/2026 10h 28' 14" Ping reçu, 2764
30/08/2026 10h 28' 00" Ping reçu, 2761
30/08/2026 10h 28' 00" Enregistrement de la température (19,706 °C)
30/08/2026 10h 27' 56" Ping reçu,         2760
30/08/2026 10h 27' 52" cPing.
30/08/2026 10h 27' 47" Ping reçu, 2758
30/08/2026 10h 27' 43" Ping reçu, 2757
30/08/2026 10h 27' 42" Enregistrement de l'éclairement (345.6 lux & 0 lux )
30/08/2026 10h 27' 32" Ping reçu, 2754
30/08/2026 10h 27' 28" Ping reçu, 2753
30/08/2026 10h 27' 24" Ping reçu, 2752
30/08/2026 10h 27' 19" Ping reçu, 2751
30/08/2026 10h 27' 15" Ping reçu,         2750
30/08/2026 10h 27' 06" Ping reçu, 2748
30/08/2026 10h 27' 02" Ping reçu, 2747
30/08/2026 10h 26' 58" Ping reçu, 2746
30/08/2026 10h 26' 57" cPing.
30/08/2026 10h 26' 54" Ping reçu,         2745
30/08/2026 10h 26' 50" Ping reçu, 2744
30/08/2026 10h 26' 48" ERR. Ther. 1 HS.
30/08/2026 10h 26' 48" ERR. Ther. 14 HS.
30/08/2026 10h 26' 45" Ping reçu, 2743
30/08/2026 10h 26' 42" Ping reçu, 2742
30/08/2026 10h 26' 35" Enregistrement de l'éclairement (345.6 lux & 0 lux )
30/08/2026 10h 26' 34" Ping reçu,         2740
30/08/2026 10h 26' 25" Ping reçu, 2738
30/08/2026 10h 26' 21" Ping reçu, 2737
30/08/2026 10h 26' 17" Ping reçu, 2736
30/08/2026 10h 26' 08" Ping reçu, 2734
30/08/2026 10h 26' 00" cPing.
30/08/2026 10h 26' 00" Ping reçu, 1
30/08/2026 10h 25' 59" Ping reçu, 2732
30/08/2026 10h 25' 55" Ping reçu, 2731
30/08/2026 10h 25' 50" On a tout sauvé !
30/08/2026 10h 25' 42" Ping reçu, 2728
30/08/2026 10h 25' 39" Ping reçu, 2727
30/08/2026 10h 25' 35" Ping reçu, 2726
30/08/2026 10h 25' 31" Ping reçu,         2725
30/08/2026 10h 25' 26" Ping reçu, 2724
30/08/2026 10h 25' 14" Ping reçu, 2721
30/08/2026 10h 25' 09" Ping reçu,         2720
30/08/2026 10h 25' 09" Enregistrement de la hauteur d'eau (783,620 mm @ 99,7%)
30/08/2026 10h 25' 09" Enregistrement des paramètres du vent (49.1° @ 0 m/s)
30/08/2026 10h 25' 05" cPing.
30/08/2026 10h 25' 04" Ping reçu, 2719
30/08/2026 10h 25' 00" Ping reçu, 2718
30/08/2026 10h 24' 51" Ping reçu, 2716
30/08/2026 10h 24' 47" Ping reçu,         2715
30/08/2026 10h 24' 39" Ping reçu, 2713
30/08/2026 10h 24' 35" Ping reçu, 2712
30/08/2026 10h 24' 32" Ping reçu, 2711
30/08/2026 10h 24' 27" Ping reçu,         2710
30/08/2026 10h 24' 20" Enregistrement de l'éclairement (345.6 lux & 0 lux )
30/08/2026 10h 24' 19" Ping reçu, 2708
30/08/2026 10h 24' 08" cPing.
30/08/2026 10h 24' 02" Ping reçu, 2704
30/08/2026 10h 23' 57" Ping reçu, 2703
30/08/2026 10h 23' 49" Ping reçu, 2701
30/08/2026 10h 23' 48" Enregistrement de la température (19,646 °C)
30/08/2026 10h 23' 45" Ping reçu,         2700
30/08/2026 10h 23' 42" Ping reçu, 2699
30/08/2026 10h 23' 36" Ping reçu, 2698
30/08/2026 10h 23' 33" Ping reçu, 2697
30/08/2026 10h 23' 29" Ping reçu, 2696
30/08/2026 10h 23' 25" Ping reçu,         2695
30/08/2026 10h 23' 20" Ping reçu, 2694
30/08/2026 10h 23' 12" Enregistrement de l'éclairement (345.6 lux & 0 lux )
30/08/2026 10h 23' 12" cPing.
30/08/2026 10h 23' 12" Ping reçu, 2692
30/08/2026 10h 23' 03" Ping reçu,         2690
30/08/2026 10h 22' 50" ERR. Ther. 1 HS.
30/08/2026 10h 22' 50" ERR. Ther. 14 HS.
30/08/2026 10h 22' 50" Ping reçu, 2687
30/08/2026 10h 22' 45" Ping reçu, 2686
30/08/2026 10h 22' 36" Ping reçu, 2684
30/08/2026 10h 22' 32" Ping reçu, 2683
30/08/2026 10h 22' 23" Ping reçu, 2681
30/08/2026 10h 22' 19" Ping reçu,         2680
30/08/2026 10h 22' 17" cPing.
30/08/2026 10h 22' 15" Ping reçu, 2679
30/08/2026 10h 22' 11" Ping reçu, 2678
30/08/2026 10h 22' 04" Ping reçu, 2676
30/08/2026 10h 22' 00" Enregistrement de l'éclairement (345.6 lux & 0 lux )
30/08/2026 10h 22' 00" Ping reçu,         2675
30/08/2026 10h 21' 52" Ping reçu, 2674
30/08/2026 10h 21' 42" Ping reçu, 2672
30/08/2026 10h 21' 38" Ping reçu, 2671
30/08/2026 10h 21' 34" Ping reçu,         2670
30/08/2026 10h 21' 30" Ping reçu, 2669
30/08/2026 10h 21' 27" Ping reçu, 2668
30/08/2026 10h 21' 23" Ping reçu, 2667
30/08/2026 10h 21' 20" cPing.
30/08/2026 10h 21' 19" Ping reçu, 2666
30/08/2026 10h 21' 15" Ping reçu,         2665
30/08/2026 10h 21' 11" Ping reçu, 2664
30/08/2026 10h 21' 02" Ping reçu, 2662
30/08/2026 10h 20' 54" Enregistrement de l'humidité (99,90 %)
30/08/2026 10h 20' 54" Enregistrement de l'éclairement (345.6 lux & 0 lux )
30/08/2026 10h 20' 53" Ping reçu,         2660
30/08/2026 10h 20' 44" Ping reçu, 2658
30/08/2026 10h 20' 31" Ping reçu,         2655
30/08/2026 10h 20' 31" Rw SD-card.
30/08/2026 10h 20' 27" Ping reçu, 2654
30/08/2026 10h 20' 23" Ping reçu, 2653
30/08/2026 10h 20' 23" cPing.
30/08/2026 10h 20' 20" Ping reçu, 2652
30/08/2026 10h 20' 14" Ping reçu, 2651
30/08/2026 10h 20' 07" Ping reçu, 2649
30/08/2026 10h 19' 59" Ping reçu, 2647
30/08/2026 10h 19' 54" Ping reçu, 2646
30/08/2026 10h 19' 50" Ping reçu,         2645
30/08/2026 10h 19' 45" Ping reçu, 2644
30/08/2026 10h 19' 41" Ping reçu, 2643
30/08/2026 10h 19' 33" Ping reçu, 2641
30/08/2026 10h 19' 29" Enregistrement des paramètres du vent (49.1° @ 0 m/s)
30/08/2026 10h 19' 29" Enregistrement de la Pression atmosphérique (1028,418 hPa)
30/08/2026 10h 19' 29" Ping reçu,         2640
30/08/2026 10h 19' 27" cPing.
30/08/2026 10h 19' 23" Ping reçu, 2639
30/08/2026 10h 19' 19" Ping reçu, 2638
30/08/2026 10h 19' 15" Ping reçu, 2637
30/08/2026 10h 19' 12" Ping reçu, 2636
30/08/2026 10h 19' 08" Ping reçu,         2635
30/08/2026 10h 19' 04" Ping reçu, 2634
30/08/2026 10h 19' 00" Ping reçu, 2633
30/08/2026 10h 18' 52" ERR. Ther. 1 HS.
30/08/2026 10h 18' 52" ERR. Ther. 14 HS.
30/08/2026 10h 18' 51" Ping reçu, 2631
30/08/2026 10h 18' 47" Ping reçu,         2630
30/08/2026 10h 18' 43" Ping reçu, 2629
30/08/2026 10h 18' 42" Enregistrement de l'éclairement (345.6 lux & 0 lux )
30/08/2026 10h 18' 35" Ping reçu, 2627
30/08/2026 10h 18' 32" cPing.
30/08/2026 10h 18' 26" Ping reçu,         2625
30/08/2026 10h 18' 23" Ping reçu, 2624
30/08/2026 10h 18' 05" Ping reçu,         2620
30/08/2026 10h 18' 01" Ping reçu, 2619
30/08/2026 10h 17' 57" Ping reçu, 2618
30/08/2026 10h 17' 53" Ping reçu, 2617
30/08/2026 10h 17' 44" Ping reçu,         2615
30/08/2026 10h 17' 39" Ping reçu, 2614
30/08/2026 10h 17' 35" cPing.
30/08/2026 10h 17' 34" Enregistrement de l'éclairement (345.6 lux & 0 lux )
30/08/2026 10h 17' 31" Ping reçu, 2612
30/08/2026 10h 17' 27" Ping reçu, 2611
30/08/2026 10h 17' 23" Ping reçu,         2610
30/08/2026 10h 17' 18" Ping reçu, 2609
30/08/2026 10h 17' 11" Ping reçu, 2607
30/08/2026 10h 17' 07" Ping reçu, 2606
30/08/2026 10h 17' 03" Ping reçu,         2605
30/08/2026 10h 16' 59" Ping reçu, 2604
30/08/2026 10h 16' 54" Ping reçu, 2603
30/08/2026 10h 16' 50" Ping reçu, 2602
30/08/2026 10h 16' 46" Ping reçu, 2601
30/08/2026 10h 16' 42" Ping reçu,         2600
30/08/2026 10h 16' 40" cPing.
30/08/2026 10h 16' 38" Ping reçu, 2599
30/08/2026 10h 16' 31" Ping reçu, 2597
30/08/2026 10h 16' 24" Enregistrement de l'éclairement (345.6 lux & 0 lux )
30/08/2026 10h 16' 18" Ping reçu,         2595
30/08/2026 10h 16' 14" Ping reçu, 2594
30/08/2026 10h 16' 09" Ping reçu, 2593
30/08/2026 10h 16' 05" Ping reçu, 2592
30/08/2026 10h 16' 01" Ping reçu, 2591
30/08/2026 10h 15' 57" Ping reçu,         2590
30/08/2026 10h 15' 54" Ping reçu, 2589
30/08/2026 10h 15' 50" Ping reçu, 2588
30/08/2026 10h 15' 44" Ping reçu, 2587
30/08/2026 10h 15' 43" cPing.
30/08/2026 10h 15' 41" Ping reçu, 2586
30/08/2026 10h 15' 37" Ping reçu,         2585
30/08/2026 10h 15' 33" Ping reçu, 2584
30/08/2026 10h 15' 29" Ping reçu, 2583
30/08/2026 10h 15' 24" Ping reçu, 2582
30/08/2026 10h 15' 20" Ping reçu, 2581
30/08/2026 10h 15' 19" Enregistrement de l'éclairement (345.6 lux & 0 lux )
30/08/2026 10h 15' 16" Ping reçu,         2580
30/08/2026 10h 15' 12" Ping reçu, 2579
30/08/2026 10h 15' 08" Ping reçu, 2578
30/08/2026 10h 15' 05" Ping reçu, 2577
30/08/2026 10h 15' 00" Ping reçu, 2576
30/08/2026 10h 14' 57" ERR. Ther. 14 HS.
30/08/2026 10h 14' 56" ERR. Ther. 1 HS.
30/08/2026 10h 14' 54" Ping reçu,         2575
30/08/2026 10h 14' 48" cPing.
30/08/2026 10h 14' 45" Ping reçu, 2573
30/08/2026 10h 14' 42" Ping reçu, 2572
30/08/2026 10h 14' 34" Ping reçu,         2570
30/08/2026 10h 14' 30" Ping reçu, 2569
30/08/2026 10h 14' 26" Ping reçu, 2568
30/08/2026 10h 14' 21" Ping reçu, 2567
30/08/2026 10h 14' 17" Ping reçu, 2566
30/08/2026 10h 14' 13" Ping reçu,         2565
30/08/2026 10h 14' 12" Enregistrement de l'éclairement (345.6 lux & 0 lux )
30/08/2026 10h 14' 09" Ping reçu, 2564
30/08/2026 10h 14' 06" Ping reçu, 2563
30/08/2026 10h 14' 02" Ping reçu, 2562
30/08/2026 10h 13' 54" Pressions pluviométriques (32,07 & 64,00)
30/08/2026 10h 13' 54" Ping reçu,         2560
30/08/2026 10h 13' 54" Enregistrement de la hauteur d'eau (783,700 mm @ 99,8%)
30/08/2026 10h 13' 51" Enregistrement des paramètres du vent (49.1° @ 0 m/s)
30/08/2026 10h 13' 51" cPing.
30/08/2026 10h 13' 44" Ping reçu, 2558
30/08/2026 10h 13' 38" Ping reçu, 2557
30/08/2026 10h 13' 35" Ping reçu, 2556
30/08/2026 10h 13' 31" Ping reçu,         2555
30/08/2026 10h 13' 27" Ping reçu, 2554
30/08/2026 10h 13' 18" Ping reçu, 2552
30/08/2026 10h 13' 14" Ping reçu, 2551
30/08/2026 10h 13' 09" Ping reçu,         2550
30/08/2026 10h 13' 05" Ping reçu, 2549
30/08/2026 10h 13' 05" Enregistrement de l'éclairement (345.6 lux & 0 lux )
30/08/2026 10h 13' 01" Ping reçu, 2548
30/08/2026 10h 12' 56" cPing.
30/08/2026 10h 12' 50" Ping reçu,         2545
30/08/2026 10h 12' 46" Ping reçu, 2544
30/08/2026 10h 12' 41" Ping reçu, 2543
30/08/2026 10h 12' 37" Ping reçu, 2542
30/08/2026 10h 12' 33" Ping reçu, 2541
30/08/2026 10h 12' 29" Ping reçu,         2540
30/08/2026 10h 12' 11" Ping reçu, 2536
30/08/2026 10h 12' 06" Ping reçu,         2535
30/08/2026 10h 11' 59" cPing.
30/08/2026 10h 11' 57" Enregistrement de l'éclairement (345.6 lux & 0 lux )
30/08/2026 10h 11' 50" Ping reçu, 2531
30/08/2026 10h 11' 38" Ping reçu, 2528
30/08/2026 10h 11' 34" Ping reçu, 2527
30/08/2026 10h 11' 30" Ping reçu, 2526
30/08/2026 10h 11' 26" On a tout sauvé !
30/08/2026 10h 11' 26" Ping reçu,         2525
30/08/2026 10h 11' 21" Ping reçu, 2524
30/08/2026 10h 11' 12" Ping reçu, 2522
30/08/2026 10h 11' 08" Ping reçu, 2521
30/08/2026 10h 11' 07" Enregistrement de la température (19,573 °C)
30/08/2026 10h 11' 04" Enregistrement de l'humidité (99,90 %)
30/08/2026 10h 11' 04" cPing.
30/08/2026 10h 11' 03" Ping reçu,         2520
30/08/2026 10h 11' 03" Enregistrement de la Pression atmosphérique (1028,418 hPa)
30/08/2026 10h 10' 59" ERR. Ther. 1 HS.
30/08/2026 10h 10' 46" Enregistrement de l'éclairement (345.6 lux & 0 lux )
30/08/2026 10h 10' 45" Ping reçu, 2516
30/08/2026 10h 10' 23" Ping reçu, 2511
30/08/2026 10h 10' 18" Ping reçu,         2510
30/08/2026 10h 10' 14" Ping reçu, 2509
30/08/2026 10h 10' 10" Ping reçu, 2508
30/08/2026 10h 10' 08" cPing.
30/08/2026 10h 10' 06" Ping reçu, 2507
30/08/2026 10h 10' 03" Ping reçu, 2506
30/08/2026 10h 09' 53" Ping reçu, 2504
30/08/2026 10h 09' 44" Ping reçu, 2502
30/08/2026 10h 09' 41" Ping reçu, 2501
30/08/2026 10h 09' 37" Ping reçu,         2500
30/08/2026 10h 09' 33" Ping reçu, 2499
30/08/2026 10h 09' 24" Ping reçu, 2497
30/08/2026 10h 09' 11" Ping reçu, 2494
30/08/2026 10h 09' 11" cPing.
30/08/2026 10h 08' 58" Ping reçu, 2491
30/08/2026 10h 08' 54" Ping reçu,         2490
30/08/2026 10h 08' 51" Ping reçu, 2489
30/08/2026 10h 08' 47" Ping reçu, 2488
30/08/2026 10h 08' 43" Ping reçu, 2487
30/08/2026 10h 08' 35" Ping reçu,         2485
30/08/2026 10h 08' 30" Enregistrement de l'éclairement (345.6 lux & 0 lux )
30/08/2026 10h 08' 18" Ping reçu, 2482
30/08/2026 10h 08' 16" cPing.
30/08/2026 10h 08' 14" Ping reçu, 2481
30/08/2026 10h 08' 11" Ping reçu,         2480
30/08/2026 10h 08' 06" Ping reçu, 2479
30/08/2026 10h 07' 58" Ping reçu, 2477
30/08/2026 10h 07' 50" Ping reçu,         2475
30/08/2026 10h 07' 45" Ping reçu, 2474
30/08/2026 10h 07' 41" Ping reçu, 2473
30/08/2026 10h 07' 32" Ping reçu, 2471
30/08/2026 10h 07' 28" Ping reçu,         2470
30/08/2026 10h 07' 21" Ping reçu, 2468
30/08/2026 10h 07' 19" cPing.
30/08/2026 10h 07' 17" Ping reçu, 2467
30/08/2026 10h 07' 04" Ping reçu, 2464
30/08/2026 10h 07' 00" ERR. Ther. 1 HS.
30/08/2026 10h 07' 00" ERR. Ther. 14 HS.
30/08/2026 10h 06' 47" Enregistrement de la température (19,497 °C)
30/08/2026 10h 06' 32" Ping reçu, 2457
30/08/2026 10h 06' 24" cPing.
30/08/2026 10h 06' 19" Ping reçu, 2454
30/08/2026 10h 06' 15" Ping reçu, 2453
30/08/2026 10h 06' 06" Ping reçu, 2451
30/08/2026 10h 05' 54" Ping reçu, 2448
30/08/2026 10h 05' 45" Ping reçu, 2446
30/08/2026 10h 05' 40" Ping reçu,         2445
30/08/2026 10h 05' 36" Ping reçu, 2444
30/08/2026 10h 05' 32" Ping reçu, 2443
30/08/2026 10h 05' 29" Ping reçu, 2442
30/08/2026 10h 05' 26" cPing.
30/08/2026 10h 05' 25" Ping reçu, 2441
30/08/2026 10h 05' 21" Ping reçu,         2440
30/08/2026 10h 05' 12" Ping reçu, 2438
30/08/2026 10h 05' 04" Enregistrement de l'éclairement (345.6 lux & 0 lux )
30/08/2026 10h 04' 59" Ping reçu,         2435
30/08/2026 10h 04' 54" Ping reçu, 2434
30/08/2026 10h 04' 37" Ping reçu,         2430
30/08/2026 10h 04' 33" Ping reçu, 2429
30/08/2026 10h 04' 31" cPing.
30/08/2026 10h 04' 24" Ping reçu, 2427
30/08/2026 10h 04' 12" Ping reçu, 2424
30/08/2026 10h 04' 08" Ping reçu, 2423
30/08/2026 10h 03' 56" Ping reçu, 2421
30/08/2026 10h 03' 52" Ping reçu,         2420
30/08/2026 10h 03' 39" Ping reçu, 2417
30/08/2026 10h 03' 35" Ping reçu, 2416
30/08/2026 10h 03' 34" cPing.
30/08/2026 10h 03' 21" Ping reçu, 2413
30/08/2026 10h 03' 17" Ping reçu, 2412
30/08/2026 10h 03' 06" Ping reçu, 2409
30/08/2026 10h 02' 53" Ping reçu, 2406
30/08/2026 10h 02' 48" Ping reçu,         2405
30/08/2026 10h 02' 45" Enregistrement de l'éclairement (345.6 lux & 0 lux )
30/08/2026 10h 02' 39" Ping reçu, 2403
30/08/2026 10h 02' 39" cPing.
30/08/2026 10h 02' 31" Ping reçu, 2401
30/08/2026 10h 02' 30" Enregistrement de la température (19,478 °C)
30/08/2026 10h 02' 29" Enregistrement de la hauteur d'eau (783,680 mm @ 99,7%)
30/08/2026 10h 02' 27" Ping reçu,         2400
30/08/2026 10h 02' 26" Enregistrement de la Pression atmosphérique (1028,417 hPa)
30/08/2026 10h 02' 21" Ping reçu, 2399
30/08/2026 10h 02' 13" Ping reçu, 2397
30/08/2026 10h 02' 00" Ping reçu, 2394
30/08/2026 10h 01' 56" Ping reçu, 2393
30/08/2026 10h 01' 53" Ping reçu, 2392
30/08/2026 10h 01' 47" Ping reçu, 2391
30/08/2026 10h 01' 44" Ping reçu,         2390
30/08/2026 10h 01' 42" cPing.
30/08/2026 10h 01' 40" Ping reçu, 2389
30/08/2026 10h 01' 36" Ping reçu, 2388
30/08/2026 10h 01' 27" Ping reçu, 2386
30/08/2026 10h 01' 18" Ping reçu, 2384
30/08/2026 10h 01' 14" Ping reçu, 2383
30/08/2026 10h 01' 05" Ping reçu, 2381
30/08/2026 10h 01' 02" Enregistrement de l'humidité (99,90 %)
30/08/2026 10h 01' 01" Ping reçu,         2380
30/08/2026 10h 00' 57" Ping reçu, 2379
30/08/2026 10h 00' 54" Ping reçu, 2378
30/08/2026 10h 00' 50" Ping reçu, 2377
30/08/2026 10h 00' 47" cPing.
30/08/2026 10h 00' 37" Ping reçu, 2374
30/08/2026 10h 00' 33" Ping reçu, 2373
30/08/2026 10h 00' 28" Ping reçu, 2372
30/08/2026 10h 00' 24" Ping reçu, 2371
30/08/2026 10h 00' 24" On purge les valeurs du crystal...
30/08/2026 10h 00' 20" Ping reçu,         2370
30/08/2026 10h 00' 15" Ping reçu, 2369
30/08/2026 10h 00' 15" On purge les valeurs du crystal...
30/08/2026 10h 00' 06" Ping reçu, 2367
30/08/2026 10h 00' 02" Ping reçu, 2366
30/08/2026 09h 59' 58" Ping reçu,         2365
30/08/2026 09h 59' 54" Ping reçu, 2364
30/08/2026 09h 59' 51" cPing.
30/08/2026 09h 59' 49" Ping reçu, 2363
30/08/2026 09h 59' 47" Ping reçu, 2362
30/08/2026 09h 59' 42" Ping reçu, 2361
30/08/2026 09h 59' 34" Ping reçu, 2359
30/08/2026 09h 59' 25" Enregistrement de l'éclairement (345.6 lux & 0 lux )
30/08/2026 09h 59' 21" Ping reçu, 2356
30/08/2026 09h 59' 17" Ping reçu,         2355
30/08/2026 09h 59' 12" Ping reçu, 2354
30/08/2026 09h 59' 08" Ping reçu, 2353
30/08/2026 09h 59' 04" Ping reçu, 2352
30/08/2026 09h 59' 02" ERR. Ther. 14 HS.
30/08/2026 09h 59' 00" ERR. Ther. 1 HS.
30/08/2026 09h 58' 59" Ping reçu, 2351
30/08/2026 09h 58' 55" Ping reçu,         2350
30/08/2026 09h 58' 54" cPing.
30/08/2026 09h 58' 42" Ping reçu, 2347
30/08/2026 09h 58' 35" Ping reçu,         2345
30/08/2026 09h 58' 31" Ping reçu, 2344
30/08/2026 09h 58' 27" Ping reçu, 2343
30/08/2026 09h 58' 18" Ping reçu, 2341
30/08/2026 09h 58' 14" Ping reçu,         2340
30/08/2026 09h 58' 09" Ping reçu, 2339
30/08/2026 09h 58' 00" Ping reçu, 2337
30/08/2026 09h 57' 59" cPing.
30/08/2026 09h 57' 56" Ping reçu, 2336
30/08/2026 09h 57' 52" Ping reçu,         2335
30/08/2026 09h 57' 48" Ping reçu, 2334
30/08/2026 09h 57' 45" Ping reçu, 2333
30/08/2026 09h 57' 37" Ping reçu, 2331
30/08/2026 09h 57' 33" Ping reçu,         2330
30/08/2026 09h 57' 29" Ping reçu, 2329
30/08/2026 09h 57' 20" Ping reçu, 2327
30/08/2026 09h 57' 11" Ping reçu,         2325
30/08/2026 09h 57' 11" Enregistrement de l'éclairement (345.6 lux & 0 lux )
30/08/2026 09h 57' 07" Ping reçu, 2324
30/08/2026 09h 57' 03" Ping reçu, 2323
30/08/2026 09h 57' 02" cPing.
30/08/2026 09h 56' 59" Ping reçu, 2322
30/08/2026 09h 56' 59" Ping reçu, 1
30/08/2026 09h 56' 56" Ping reçu, 2321
30/08/2026 09h 56' 50" Enregistrement des paramètres du vent (49.1° @ 0 m/s)
30/08/2026 09h 56' 50" Ping reçu,         2320
30/08/2026 09h 56' 50" Ping reçu, 1
30/08/2026 09h 56' 45" Ping reçu, 2319
30/08/2026 09h 56' 42" Ping reçu, 2318
30/08/2026 09h 56' 38" On a tout sauvé !
30/08/2026 09h 56' 33" Ping reçu, 2316
30/08/2026 09h 56' 25" Ping reçu, 2314
30/08/2026 09h 56' 20" Ping reçu, 2313
30/08/2026 09h 56' 12" Ping reçu, 2311
30/08/2026 09h 56' 08" Ping reçu,         2310
30/08/2026 09h 56' 07" cPing.
30/08/2026 09h 56' 03" Ping reçu, 2309
30/08/2026 09h 55' 59" Ping reçu, 2308
30/08/2026 09h 55' 51" Ping reçu, 2306
30/08/2026 09h 55' 48" Ping reçu,         2305
30/08/2026 09h 55' 37" Ping reçu, 2303
30/08/2026 09h 55' 33" Ping reçu, 2302
30/08/2026 09h 55' 30" Ping reçu, 2301
30/08/2026 09h 55' 26" Ping reçu,         2300
30/08/2026 09h 55' 22" Ping reçu, 2299
30/08/2026 09h 55' 18" Ping reçu, 2298
30/08/2026 09h 55' 14" Ping reçu, 2297
30/08/2026 09h 55' 10" cPing.
30/08/2026 09h 55' 06" ERR. Ther. 14 HS.
30/08/2026 09h 55' 05" Ping reçu,         2295
30/08/2026 09h 55' 00" Ping reçu, 2294
30/08/2026 09h 54' 56" Ping reçu, 2293
30/08/2026 09h 54' 50" Ping reçu, 2292
30/08/2026 09h 54' 46" Ping reçu, 2291
30/08/2026 09h 54' 37" Ping reçu, 2289
30/08/2026 09h 54' 24" Ping reçu, 2286
30/08/2026 09h 54' 20" Ping reçu,         2285
30/08/2026 09h 54' 15" Ping reçu, 2284
30/08/2026 09h 54' 15" cPing.
30/08/2026 09h 54' 11" Ping reçu, 2283
30/08/2026 09h 54' 03" Ping reçu, 2281
30/08/2026 09h 54' 01" Enregistrement de la Pression atmosphérique (1028,382 hPa)
30/08/2026 09h 54' 00" Ping reçu,         2280
30/08/2026 09h 53' 54" Ping reçu, 2279
30/08/2026 09h 53' 51" Ping reçu, 2278
30/08/2026 09h 53' 47" Ping reçu, 2277
30/08/2026 09h 53' 45" Enregistrement de l'éclairement (345.6 lux & 0 lux )
30/08/2026 09h 53' 43" Ping reçu, 2276
30/08/2026 09h 53' 39" Ping reçu,         2275
30/08/2026 09h 53' 35" Ping reçu, 2274
30/08/2026 09h 53' 30" Ping reçu, 2273
30/08/2026 09h 53' 21" Ping reçu, 2271
30/08/2026 09h 53' 18" cPing.
30/08/2026 09h 53' 13" Ping reçu, 2269
30/08/2026 09h 53' 09" Ping reçu, 2268
30/08/2026 09h 53' 06" Ping reçu, 2267
30/08/2026 09h 53' 02" Ping reçu, 2266
30/08/2026 09h 52' 53" Ping reçu, 2264
30/08/2026 09h 52' 49" Ping reçu, 2263
30/08/2026 09h 52' 45" Ping reçu, 2262
30/08/2026 09h 52' 41" Ping reçu, 2261
30/08/2026 09h 52' 38" Enregistrement de l'éclairement (345.6 lux & 0 lux )
30/08/2026 09h 52' 32" Ping reçu, 2259
30/08/2026 09h 52' 28" Ping reçu, 2258
30/08/2026 09h 52' 24" Ping reçu, 2257
30/08/2026 09h 52' 23" cPing.
30/08/2026 09h 52' 06" Ping reçu, 2253
30/08/2026 09h 52' 02" Ping reçu, 2252
30/08/2026 09h 51' 55" Ping reçu,         2250
30/08/2026 09h 51' 47" Ping reçu, 2249
30/08/2026 09h 51' 42" Ping reçu, 2248
30/08/2026 09h 51' 38" Ping reçu, 2247
30/08/2026 09h 51' 29" Ping reçu,         2245
30/08/2026 09h 51' 27" Enregistrement de l'éclairement (345.6 lux & 0 lux )
30/08/2026 09h 51' 27" cPing.
30/08/2026 09h 51' 16" Ping reçu, 2242
30/08/2026 09h 51' 10" Pressions pluviométriques (32,07 & 64,00)
30/08/2026 09h 51' 08" Ping reçu,         2240
30/08/2026 09h 51' 08" Enregistrement de la hauteur d'eau (783,660 mm @ 99,9%)
30/08/2026 09h 51' 07" Enregistrement de l'humidité (99,90 %)
30/08/2026 09h 51' 03" ERR. Ther. 14 HS.
30/08/2026 09h 51' 02" Ping reçu, 2239
30/08/2026 09h 50' 57" Ping reçu, 2238
30/08/2026 09h 50' 53" Ping reçu, 2237
30/08/2026 09h 50' 49" Ping reçu, 2236
30/08/2026 09h 50' 45" Ping reçu,         2235
30/08/2026 09h 50' 32" Ping reçu, 2232
30/08/2026 09h 50' 30" cPing.
30/08/2026 09h 50' 29" Ping reçu, 2231
30/08/2026 09h 50' 25" Ping reçu,         2230
30/08/2026 09h 50' 21" Ping reçu, 2229
30/08/2026 09h 50' 17" Enregistrement de l'éclairement (345.6 lux & 0 lux )
30/08/2026 09h 50' 08" Ping reçu, 2226
30/08/2026 09h 50' 03" Ping reçu,         2225
30/08/2026 09h 49' 54" Ping reçu, 2223
30/08/2026 09h 49' 44" Enregistrement de la température (19,152 °C)
30/08/2026 09h 49' 41" Ping reçu,         2220
30/08/2026 09h 49' 36" Ping reçu, 2219
30/08/2026 09h 49' 33" cPing.
30/08/2026 09h 49' 28" Ping reçu, 2217
30/08/2026 09h 49' 24" Ping reçu, 2216
30/08/2026 09h 49' 21" Ping reçu,         2215
30/08/2026 09h 49' 17" Ping reçu, 2214
30/08/2026 09h 49' 12" Enregistrement de l'éclairement (345.6 lux & 0 lux )
30/08/2026 09h 49' 08" Ping reçu, 2212
30/08/2026 09h 49' 04" Ping reçu, 2211
30/08/2026 09h 49' 00" Ping reçu,         2210
30/08/2026 09h 48' 56" Ping reçu, 2209
30/08/2026 09h 48' 51" Ping reçu, 2208
30/08/2026 09h 48' 47" Ping reçu, 2207
30/08/2026 09h 48' 43" Ping reçu, 2206
30/08/2026 09h 48' 39" Ping reçu,         2205
30/08/2026 09h 48' 38" cPing.
30/08/2026 09h 48' 35" Ping reçu, 2204
30/08/2026 09h 48' 32" Ping reçu, 2203
30/08/2026 09h 48' 28" Ping reçu, 2202
30/08/2026 09h 48' 24" Ping reçu, 2201
30/08/2026 09h 48' 11" Ping reçu, 2198
30/08/2026 09h 48' 07" Ping reçu, 2197
30/08/2026 09h 48' 03" Ping reçu, 2196
30/08/2026 09h 47' 58" Ping reçu,         2195
30/08/2026 09h 47' 54" Ping reçu, 2194
30/08/2026 09h 47' 50" Ping reçu, 2193
30/08/2026 09h 47' 47" Ping reçu, 2192
30/08/2026 09h 47' 42" Ping reçu, 2191
30/08/2026 09h 47' 42" cPing.
30/08/2026 09h 47' 34" Ping reçu, 2189
30/08/2026 09h 47' 21" Ping reçu, 2186
30/08/2026 09h 47' 16" Ping reçu,         2185
30/08/2026 09h 47' 12" Ping reçu, 2184
30/08/2026 09h 47' 03" Ping reçu, 2182
30/08/2026 09h 46' 59" Ping reçu, 2181
30/08/2026 09h 46' 56" Enregistrement de l'éclairement (345.6 lux & 0 lux )
30/08/2026 09h 46' 54" Ping reçu,         2180
30/08/2026 09h 46' 50" Ping reçu, 2179
30/08/2026 09h 46' 46" Ping reçu, 2178
30/08/2026 09h 46' 45" cPing.
30/08/2026 09h 46' 41" Ping reçu, 2177
30/08/2026 09h 46' 37" Ping reçu, 2176
30/08/2026 09h 46' 33" Ping reçu,         2175
30/08/2026 09h 46' 29" Ping reçu, 2174
30/08/2026 09h 46' 21" Ping reçu, 2172
30/08/2026 09h 46' 04" Ping reçu, 2168
30/08/2026 09h 45' 56" Ping reçu, 2166
30/08/2026 09h 45' 51" Ping reçu,         2165
30/08/2026 09h 45' 50" cPing.
30/08/2026 09h 45' 47" Ping reçu, 2164
30/08/2026 09h 45' 42" Ping reçu, 2163
30/08/2026 09h 45' 38" Ping reçu, 2162
30/08/2026 09h 45' 34" Ping reçu, 2161
30/08/2026 09h 45' 33" Enregistrement de la température (19,171 °C)
30/08/2026 09h 45' 29" Enregistrement de la Pression atmosphérique (1028,353 hPa)
30/08/2026 09h 45' 11" Ping reçu, 2156
30/08/2026 09h 45' 07" Ping reçu,         2155
30/08/2026 09h 44' 58" Ping reçu, 2153
30/08/2026 09h 44' 54" Ping reçu, 2152
30/08/2026 09h 44' 53" cPing.
30/08/2026 09h 44' 51" Ping reçu, 2151
30/08/2026 09h 44' 47" Ping reçu,         2150
30/08/2026 09h 44' 43" Ping reçu, 2149
30/08/2026 09h 44' 39" Ping reçu, 2148
30/08/2026 09h 44' 35" Ping reçu, 2147
30/08/2026 09h 44' 30" Ping reçu, 2146
30/08/2026 09h 44' 21" Ping reçu, 2144
30/08/2026 09h 44' 17" Ping reçu, 2143
30/08/2026 09h 44' 13" Ping reçu, 2142
30/08/2026 09h 44' 08" Ping reçu, 2141
30/08/2026 09h 44' 00" Ping reçu, 2139
30/08/2026 09h 43' 58" cPing.
30/08/2026 09h 43' 53" Ping reçu, 2137
30/08/2026 09h 43' 49" Ping reçu, 2136
30/08/2026 09h 43' 45" Ping reçu,         2135
30/08/2026 09h 43' 36" Ping reçu, 2133
30/08/2026 09h 43' 35" Enregistrement de l'éclairement (345.6 lux & 0 lux )
30/08/2026 09h 43' 32" Ping reçu, 2132
30/08/2026 09h 43' 27" Ping reçu, 2131
30/08/2026 09h 43' 23" Ping reçu,         2130
30/08/2026 09h 43' 12" ERR. Ther. 14 HS.
30/08/2026 09h 43' 09" Ping reçu, 2127
30/08/2026 09h 43' 01" Ping reçu,         2125
30/08/2026 09h 43' 01" cPing.
30/08/2026 09h 42' 57" Ping reçu, 2124
30/08/2026 09h 42' 54" Ping reçu, 2123
30/08/2026 09h 42' 46" Ping reçu, 2121
30/08/2026 09h 42' 42" Ping reçu,         2120
30/08/2026 09h 42' 38" Ping reçu, 2119
30/08/2026 09h 42' 29" Ping reçu, 2117
30/08/2026 09h 42' 25" Enregistrement de l'éclairement (345.6 lux & 0 lux )
30/08/2026 09h 42' 24" Ping reçu, 2116
30/08/2026 09h 42' 16" Ping reçu, 1
30/08/2026 09h 42' 15" Ping reçu, 2114
30/08/2026 09h 42' 11" Ping reçu, 2113
30/08/2026 09h 42' 07" Ping reçu, 2112
30/08/2026 09h 42' 06" cPing.
30/08/2026 09h 42' 03" On a tout sauvé !
30/08/2026 09h 42' 02" Ping reçu, 2111
30/08/2026 09h 41' 53" Ping reçu, 2109
30/08/2026 09h 41' 49" Ping reçu, 2108
30/08/2026 09h 41' 45" Ping reçu, 2107
30/08/2026 09h 41' 42" Ping reçu, 2106
30/08/2026 09h 41' 38" Ping reçu,         2105
30/08/2026 09h 41' 34" Ping reçu, 2104
30/08/2026 09h 41' 30" Ping reçu, 2103
30/08/2026 09h 41' 26" Ping reçu, 2102
30/08/2026 09h 41' 20" Enregistrement de l'Arduino : (22,3 °C)
30/08/2026 09h 41' 17" Enregistrement de la température (19,012 °C)
30/08/2026 09h 41' 14" Ping reçu,         2100
30/08/2026 09h 41' 14" Enregistrement de l'humidité (99,90 %)
30/08/2026 09h 41' 09" Ping reçu, 2099
30/08/2026 09h 41' 09" cPing.
30/08/2026 09h 41' 06" Ping reçu, 2098
30/08/2026 09h 40' 58" Ping reçu, 2096
30/08/2026 09h 40' 53" Ping reçu,         2095
30/08/2026 09h 40' 44" Ping reçu, 2093
30/08/2026 09h 40' 40" Ping reçu, 2092
30/08/2026 09h 40' 36" Ping reçu, 2091
30/08/2026 09h 40' 27" Ping reçu, 2089
30/08/2026 09h 40' 23" Ping reçu, 2088
30/08/2026 09h 40' 18" Ping reçu, 2087
30/08/2026 09h 40' 14" cPing.
30/08/2026 09h 40' 10" Ping reçu,         2085
30/08/2026 09h 40' 08" Enregistrement de l'éclairement (345.6 lux & 0 lux )
30/08/2026 09h 40' 06" Ping reçu, 2084
30/08/2026 09h 40' 03" Ping reçu, 2083
30/08/2026 09h 39' 53" Ping reçu, 2081
30/08/2026 09h 39' 43" Ping reçu, 2079
30/08/2026 09h 39' 39" Ping reçu, 2078
30/08/2026 09h 39' 35" Ping reçu, 2077
30/08/2026 09h 39' 32" Enregistrement Température du pluviometre : (20,5 °C)
30/08/2026 09h 39' 24" Ping reçu,         2075
30/08/2026 09h 39' 20" Ping reçu, 2074
30/08/2026 09h 39' 17" cPing.
30/08/2026 09h 39' 08" ERR. Ther. 14 HS.
30/08/2026 09h 39' 02" Ping reçu,         2070
30/08/2026 09h 38' 56" Enregistrement de l'éclairement (345.6 lux & 0 lux )
30/08/2026 09h 38' 53" Ping reçu, 2068
30/08/2026 09h 38' 49" Ping reçu, 2067
30/08/2026 09h 38' 45" Ping reçu, 2066
30/08/2026 09h 38' 36" Ping reçu, 2064
30/08/2026 09h 38' 33" Ping reçu, 2063
30/08/2026 09h 38' 29" Ping reçu, 2062
30/08/2026 09h 38' 25" Ping reçu, 2061
30/08/2026 09h 38' 21" cPing.
30/08/2026 09h 38' 17" Ping reçu, 2059
30/08/2026 09h 38' 03" Ping reçu, 2056
30/08/2026 09h 37' 54" Ping reçu, 2054
30/08/2026 09h 37' 50" Ping reçu, 2053
30/08/2026 09h 37' 49" Enregistrement de l'éclairement (345.6 lux & 0 lux )
30/08/2026 09h 37' 38" Ping reçu,         2050
30/08/2026 09h 37' 31" Ping reçu, 2048
30/08/2026 09h 37' 26" Ping reçu, 2047
30/08/2026 09h 37' 26" cPing.
30/08/2026 09h 37' 22" Ping reçu, 2046
30/08/2026 09h 37' 14" Ping reçu, 2044
30/08/2026 09h 37' 09" Ping reçu, 2043
30/08/2026 09h 37' 01" Ping reçu, 2041
30/08/2026 09h 37' 00" Enregistrement de la température (18,812 °C)
30/08/2026 09h 36' 57" Ping reçu,         2040
30/08/2026 09h 36' 52" Ping reçu, 2039
30/08/2026 09h 36' 43" Ping reçu, 2037
30/08/2026 09h 36' 39" Ping reçu, 2036
30/08/2026 09h 36' 35" Ping reçu,         2035
30/08/2026 09h 36' 32" Ping reçu, 2034
30/08/2026 09h 36' 29" cPing.
30/08/2026 09h 36' 28" Ping reçu, 2033
30/08/2026 09h 36' 24" Ping reçu, 2032
30/08/2026 09h 36' 19" Ping reçu, 2031
30/08/2026 09h 36' 15" Ping reçu,         2030
30/08/2026 09h 36' 11" Ping reçu, 2029
30/08/2026 09h 36' 06" Ping reçu, 2028
30/08/2026 09h 35' 54" Ping reçu,         2025
30/08/2026 09h 35' 49" Ping reçu, 2024
30/08/2026 09h 35' 45" Ping reçu, 2023
30/08/2026 09h 35' 35" Enregistrement de l'éclairement (345.6 lux & 0 lux )
30/08/2026 09h 35' 34" Ping reçu,         2020
30/08/2026 09h 35' 34" cPing.
30/08/2026 09h 35' 30" Ping reçu, 2019
30/08/2026 09h 35' 21" Ping reçu, 2017
30/08/2026 09h 35' 12" ERR. Ther. 1 HS.
30/08/2026 09h 35' 12" ERR. Ther. 14 HS.
30/08/2026 09h 35' 12" Ping reçu,         2015
30/08/2026 09h 35' 08" Ping reçu, 2014
30/08/2026 09h 34' 54" Ping reçu, 2011
30/08/2026 09h 34' 50" Ping reçu,         2010
30/08/2026 09h 34' 42" Ping reçu, 2008
30/08/2026 09h 34' 39" Ping reçu, 2007
30/08/2026 09h 34' 37" cPing.
30/08/2026 09h 34' 35" Ping reçu, 2006
30/08/2026 09h 34' 31" Ping reçu,         2005
30/08/2026 09h 34' 27" Enregistrement de l'éclairement (345.6 lux & 0 lux )
30/08/2026 09h 34' 13" Ping reçu, 2001
30/08/2026 09h 34' 09" Enregistrement des paramètres du vent (49.1° @ 0 m/s)
30/08/2026 09h 34' 04" Ping reçu, 1999
30/08/2026 09h 34' 00" Ping reçu, 1998
30/08/2026 09h 33' 56" Ping reçu, 1997
30/08/2026 09h 33' 51" Ping reçu, 1996
30/08/2026 09h 33' 47" Ping reçu,         1995
30/08/2026 09h 33' 43" Ping reçu, 1994
30/08/2026 09h 33' 42" cPing.
30/08/2026 09h 33' 35" Ping reçu, 1992
30/08/2026 09h 33' 20" Enregistrement de l'éclairement (345.6 lux & 0 lux )
30/08/2026 09h 33' 19" Ping reçu, 1988
30/08/2026 09h 32' 48" Ping reçu, 1981
30/08/2026 09h 32' 47" Enregistrement de la température (18,871 °C)
30/08/2026 09h 32' 44" cPing.
30/08/2026 09h 32' 35" Ping reçu, 1978
30/08/2026 09h 32' 31" Ping reçu, 1977
30/08/2026 09h 32' 27" Ping reçu, 1976
30/08/2026 09h 32' 23" Ping reçu,         1975
30/08/2026 09h 32' 20" Ping reçu, 1974
30/08/2026 09h 32' 16" Ping reçu, 1973
30/08/2026 09h 32' 13" Enregistrement de l'éclairement (345.6 lux & 0 lux )
30/08/2026 09h 32' 07" Ping reçu, 1971
30/08/2026 09h 32' 03" Ping reçu,         1970
30/08/2026 09h 31' 59" Ping reçu, 1969
30/08/2026 09h 31' 50" Ping reçu, 1967
30/08/2026 09h 31' 49" cPing.
30/08/2026 09h 31' 45" Ping reçu, 1966
30/08/2026 09h 31' 41" Ping reçu,         1965
30/08/2026 09h 31' 37" Ping reçu, 1964
30/08/2026 09h 31' 29" Ping reçu, 1962
30/08/2026 09h 31' 26" Ping reçu, 1961
30/08/2026 09h 31' 23" Enregistrement de l'humidité (99,90 %)
30/08/2026 09h 31' 22" Ping reçu,         1960
30/08/2026 09h 31' 18" ERR. Ther. 1 HS.
30/08/2026 09h 31' 18" ERR. Ther. 14 HS.
30/08/2026 09h 31' 17" Ping reçu, 1959
30/08/2026 09h 31' 13" Ping reçu, 1958
30/08/2026 09h 31' 09" Ping reçu, 1957
30/08/2026 09h 31' 06" Enregistrement de l'éclairement (345.6 lux & 0 lux )
30/08/2026 09h 31' 05" Ping reçu, 1956
30/08/2026 09h 30' 52" cPing.
30/08/2026 09h 30' 47" Ping reçu, 1952
30/08/2026 09h 30' 42" Ping reçu, 1951
30/08/2026 09h 30' 34" Ping reçu, 1949
30/08/2026 09h 30' 30" Ping reçu, 1948
30/08/2026 09h 30' 27" Ping reçu, 1947
30/08/2026 09h 30' 18" Ping reçu,         1945
30/08/2026 09h 30' 15" Ping reçu, 1944
30/08/2026 09h 30' 02" Enregistrement de l'éclairement (345.6 lux & 0 lux )
30/08/2026 09h 29' 57" Ping reçu,         1940
30/08/2026 09h 29' 57" cPing.
30/08/2026 09h 29' 53" Ping reçu, 1939
30/08/2026 09h 29' 49" Ping reçu, 1938
30/08/2026 09h 29' 44" Ping reçu, 1937
30/08/2026 09h 29' 40" Ping reçu, 1936
30/08/2026 09h 29' 36" Ping reçu,         1935
30/08/2026 09h 29' 29" Ping reçu, 1933
30/08/2026 09h 29' 25" Ping reçu, 1932
30/08/2026 09h 29' 21" Ping reçu, 1931
30/08/2026 09h 29' 17" Ping reçu,         1930
30/08/2026 09h 29' 12" Ping reçu, 1929
30/08/2026 09h 29' 08" Ping reçu, 1928
30/08/2026 09h 29' 00" cPing.
30/08/2026 09h 28' 59" Ping reçu, 1926
30/08/2026 09h 28' 55" Ping reçu,         1925
30/08/2026 09h 28' 51" Ping reçu, 1924
30/08/2026 09h 28' 46" Ping reçu, 1923
30/08/2026 09h 28' 44" Ping reçu, 1922
30/08/2026 09h 28' 40" Ping reçu, 1921
30/08/2026 09h 28' 37" Enregistrement de la température (18,871 °C)
30/08/2026 09h 28' 36" Enregistrement de la hauteur d'eau (783,650 mm @ 99,8%)
30/08/2026 09h 28' 36" Pressions pluviométriques (32,07 & 64,00)
30/08/2026 09h 28' 35" Enregistrement des paramètres du vent (49.1° @ 0 m/s)
30/08/2026 09h 28' 35" Enregistrement de la Pression atmosphérique (1028,383 hPa)
30/08/2026 09h 28' 15" Ping reçu, 1916
30/08/2026 09h 28' 08" Ping reçu, 1914
30/08/2026 09h 28' 05" cPing.
30/08/2026 09h 28' 04" Ping reçu, 1913
30/08/2026 09h 28' 00" Ping reçu, 1912
30/08/2026 09h 27' 56" Ping reçu, 1911
30/08/2026 09h 27' 50" Enregistrement de l'Arduino : (22,0 °C)
30/08/2026 09h 27' 49" Ping reçu, 1
30/08/2026 09h 27' 43" Enregistrement de l'éclairement (345.6 lux & 0 lux )
30/08/2026 09h 27' 39" Ping reçu, 1908
30/08/2026 09h 27' 37" On a tout sauvé !
30/08/2026 09h 27' 36" Ping reçu, 1907
30/08/2026 09h 27' 32" Ping reçu, 1906
30/08/2026 09h 27' 28" Ping reçu,         1905
30/08/2026 09h 27' 24" Ping reçu, 1904
30/08/2026 09h 27' 20" ERR. Ther. 14 HS.
30/08/2026 09h 27' 20" ERR. Ther. 1 HS.
30/08/2026 09h 27' 15" Ping reçu, 1903
30/08/2026 09h 27' 09" cPing.
30/08/2026 09h 27' 02" Ping reçu,         1900
30/08/2026 09h 26' 57" Ping reçu, 1899
30/08/2026 09h 26' 49" Ping reçu, 1897
30/08/2026 09h 26' 40" Ping reçu,         1895
30/08/2026 09h 26' 33" Ping reçu, 1893
30/08/2026 09h 26' 33" Enregistrement de l'éclairement (345.6 lux & 0 lux )
30/08/2026 09h 26' 29" Ping reçu, 1892
30/08/2026 09h 26' 21" Ping reçu,         1890
30/08/2026 09h 26' 17" Ping reçu, 1889
30/08/2026 09h 26' 12" Ping reçu, 1888
30/08/2026 09h 26' 12" cPing.
30/08/2026 09h 26' 08" Ping reçu, 1887
30/08/2026 09h 26' 03" Ping reçu, 1886
30/08/2026 09h 25' 59" Ping reçu,         1885
30/08/2026 09h 25' 55" Ping reçu, 1884
30/08/2026 09h 25' 51" Ping reçu, 1883
30/08/2026 09h 25' 48" Ping reçu, 1882
30/08/2026 09h 25' 30" Ping reçu, 1878
30/08/2026 09h 25' 26" Ping reçu, 1877
30/08/2026 09h 25' 24" Enregistrement de l'éclairement (345.6 lux & 0 lux )
30/08/2026 09h 25' 22" Ping reçu, 1876
30/08/2026 09h 25' 17" cPing.
30/08/2026 09h 25' 13" Ping reçu, 1874
30/08/2026 09h 25' 09" Ping reçu, 1873
30/08/2026 09h 25' 00" Ping reçu, 1871
30/08/2026 09h 24' 56" Ping reçu,         1870
30/08/2026 09h 24' 47" Ping reçu, 1868
30/08/2026 09h 24' 43" Ping reçu, 1867
30/08/2026 09h 24' 41" Ping reçu, 1866
30/08/2026 09h 24' 32" Ping reçu, 1864
30/08/2026 09h 24' 28" Ping reçu, 1863
30/08/2026 09h 24' 24" Ping reçu, 1862
30/08/2026 09h 24' 20" cPing.
30/08/2026 09h 24' 20" Ping reçu, 1861
30/08/2026 09h 24' 19" Enregistrement de la température (18,732 °C)
30/08/2026 09h 24' 19" Enregistrement de l'éclairement (345.6 lux & 0 lux )
30/08/2026 09h 24' 15" Ping reçu,         1860
30/08/2026 09h 24' 11" Ping reçu, 1859
30/08/2026 09h 24' 07" Ping reçu, 1858
30/08/2026 09h 24' 03" Ping reçu, 1857
30/08/2026 09h 24' 00" Ping reçu, 1856
30/08/2026 09h 23' 54" Ping reçu,         1855
30/08/2026 09h 23' 43" Ping reçu, 1852
30/08/2026 09h 23' 34" Ping reçu,         1850
30/08/2026 09h 23' 26" Ping reçu, 1848
30/08/2026 09h 23' 25" cPing.
30/08/2026 09h 23' 22" ERR. Ther. 14 HS.
30/08/2026 09h 23' 21" ERR. Ther. 1 HS.
30/08/2026 09h 23' 21" Ping reçu, 1847
30/08/2026 09h 23' 12" Ping reçu,         1845
30/08/2026 09h 23' 09" Enregistrement de l'éclairement (345.6 lux & 0 lux )
30/08/2026 09h 22' 59" Ping reçu, 1842
30/08/2026 09h 22' 51" Ping reçu,         1840
30/08/2026 09h 22' 38" Ping reçu, 1837
30/08/2026 09h 22' 35" Ping reçu, 1836
30/08/2026 09h 22' 31" Ping reçu,         1835
30/08/2026 09h 22' 28" cPing.
30/08/2026 09h 22' 23" Ping reçu, 1833
30/08/2026 09h 22' 14" Ping reçu, 1831
30/08/2026 09h 22' 09" Ping reçu,         1830
30/08/2026 09h 22' 01" Ping reçu, 1828
30/08/2026 09h 21' 57" Ping reçu, 1827
30/08/2026 09h 21' 54" Ping reçu, 1826
30/08/2026 09h 21' 48" Ping reçu,         1825
30/08/2026 09h 21' 46" Ping reçu, 1824
30/08/2026 09h 21' 41" Ping reçu, 1823
30/08/2026 09h 21' 37" Ping reçu, 1822
30/08/2026 09h 21' 33" cPing.
30/08/2026 09h 21' 28" Ping reçu,         1820
30/08/2026 09h 21' 15" Ping reçu, 1817
30/08/2026 09h 21' 06" Ping reçu,         1815
30/08/2026 09h 20' 57" Enregistrement de l'éclairement (345.6 lux & 0 lux )
30/08/2026 09h 20' 44" Ping reçu,         1810
30/08/2026 09h 20' 40" Ping reçu, 1809
30/08/2026 09h 20' 36" Ping reçu, 1808
30/08/2026 09h 20' 36" cPing.
30/08/2026 09h 20' 31" Ping reçu, 1807
30/08/2026 09h 20' 27" Ping reçu, 1806
30/08/2026 09h 20' 20" Ping reçu, 1804
30/08/2026 09h 20' 12" Ping reçu, 1802
30/08/2026 09h 20' 08" Ping reçu, 1801
30/08/2026 09h 20' 06" Enregistrement de la température (18,765 °C)
30/08/2026 09h 20' 03" Enregistrement de la Pression atmosphérique (1028,307 hPa)
30/08/2026 09h 19' 58" Ping reçu, 1799
30/08/2026 09h 19' 54" Ping reçu, 1798
30/08/2026 09h 19' 50" Ping reçu, 1797
30/08/2026 09h 19' 50" Enregistrement de l'éclairement (345.6 lux & 0 lux )
30/08/2026 09h 19' 41" Ping reçu,         1795
30/08/2026 09h 19' 41" cPing.
30/08/2026 09h 19' 32" Ping reçu, 1793
30/08/2026 09h 19' 28" Ping reçu, 1792
30/08/2026 09h 19' 26" ERR. Ther. 14 HS.
30/08/2026 09h 19' 24" ERR. Ther. 1 HS.
30/08/2026 09h 19' 23" Ping reçu, 1791
30/08/2026 09h 19' 06" Ping reçu, 1787
30/08/2026 09h 19' 03" Ping reçu, 1786
30/08/2026 09h 18' 59" Ping reçu,         1785
30/08/2026 09h 18' 53" Ping reçu, 1784
30/08/2026 09h 18' 50" Ping reçu, 1783
30/08/2026 09h 18' 44" cPing.
30/08/2026 09h 18' 42" Ping reçu, 1781
30/08/2026 09h 18' 38" Ping reçu,         1780
30/08/2026 09h 18' 29" Ping reçu, 1778
30/08/2026 09h 18' 24" Ping reçu, 1777
30/08/2026 09h 18' 20" Ping reçu, 1776
30/08/2026 09h 18' 16" Ping reçu,         1775
30/08/2026 09h 18' 11" Ping reçu, 1774
30/08/2026 09h 18' 07" Ping reçu, 1773
30/08/2026 09h 18' 03" Ping reçu, 1772
30/08/2026 09h 18' 00" Ping reçu, 1771
30/08/2026 09h 17' 52" Ping reçu, 1769
30/08/2026 09h 17' 48" cPing.
30/08/2026 09h 17' 44" Ping reçu, 1767
30/08/2026 09h 17' 39" Ping reçu, 1766
30/08/2026 09h 17' 35" Ping reçu,         1765
30/08/2026 09h 17' 35" Enregistrement de l'éclairement (345.6 lux & 0 lux )
30/08/2026 09h 17' 30" Ping reçu, 1764
30/08/2026 09h 17' 26" Ping reçu, 1763
30/08/2026 09h 17' 22" Ping reçu, 1762
30/08/2026 09h 17' 18" Ping reçu, 1761
30/08/2026 09h 17' 17" Pressions pluviométriques (32,05 & 64,00)
30/08/2026 09h 17' 16" Ping reçu,         1760
30/08/2026 09h 17' 16" Enregistrement de la hauteur d'eau (783,530 mm @ 99,8%)
30/08/2026 09h 17' 13" Enregistrement des paramètres du vent (49.1° @ 0 m/s)
30/08/2026 09h 17' 09" Ping reçu, 1759
30/08/2026 09h 17' 06" Ping reçu, 1758
30/08/2026 09h 17' 02" Ping reçu, 1757
30/08/2026 09h 16' 58" Ping reçu, 1756
30/08/2026 09h 16' 51" cPing.
30/08/2026 09h 16' 50" Ping reçu, 1754
30/08/2026 09h 16' 41" Ping reçu, 1752
30/08/2026 09h 16' 36" Ping reçu, 1751
30/08/2026 09h 16' 33" Ping reçu,         1750
30/08/2026 09h 16' 31" Enregistrement de l'éclairement (345.6 lux & 0 lux )
30/08/2026 09h 16' 29" Ping reçu, 1749
30/08/2026 09h 16' 21" Ping reçu, 1747
30/08/2026 09h 16' 17" Ping reçu, 1746
30/08/2026 09h 16' 13" Ping reçu,         1745
30/08/2026 09h 16' 09" Ping reçu, 1744
30/08/2026 09h 16' 00" Ping reçu, 1742
30/08/2026 09h 15' 56" Ping reçu, 1741
30/08/2026 09h 15' 56" cPing.
30/08/2026 09h 15' 51" Ping reçu,         1740
30/08/2026 09h 15' 47" Ping reçu, 1739
30/08/2026 09h 15' 42" Ping reçu, 1738
30/08/2026 09h 15' 38" Ping reçu, 1737
30/08/2026 09h 15' 32" ERR. Ther. 14 HS.
30/08/2026 09h 15' 30" ERR. Ther. 1 HS.
30/08/2026 09h 15' 15" Enregistrement de l'éclairement (345.6 lux & 0 lux )
30/08/2026 09h 15' 12" Ping reçu, 1731
30/08/2026 09h 15' 10" Enregistrement Température du pluviometre : (20,4 °C)
30/08/2026 09h 15' 05" Ping reçu,         1730
30/08/2026 09h 15' 00" cPing.
30/08/2026 09h 14' 48" Ping reçu, 1726
30/08/2026 09h 14' 44" Ping reçu,         1725
30/08/2026 09h 14' 26" Ping reçu, 1721
30/08/2026 09h 14' 22" Ping reçu,         1720
30/08/2026 09h 14' 16" Enregistrement de l'Arduino : (22,0 °C)
30/08/2026 09h 14' 16" Ping reçu, 1719
30/08/2026 09h 14' 11" Ping reçu, 1718
30/08/2026 09h 14' 04" Enregistrement de l'éclairement (345.6 lux & 0 lux )
30/08/2026 09h 14' 03" cPing.
30/08/2026 09h 13' 54" Ping reçu, 1714
30/08/2026 09h 13' 45" Ping reçu, 1712
30/08/2026 09h 13' 41" Ping reçu, 1711
30/08/2026 09h 13' 36" Ping reçu,         1710
30/08/2026 09h 13' 32" Ping reçu, 1709
30/08/2026 09h 13' 28" Ping reçu, 1708
30/08/2026 09h 13' 24" Ping reçu, 1707
30/08/2026 09h 13' 21" Ping reçu, 1706
30/08/2026 09h 13' 15" Ping reçu,         1705
30/08/2026 09h 13' 08" On a tout sauvé !
30/08/2026 09h 13' 08" cPing.
30/08/2026 09h 13' 06" Ping reçu, 1703
30/08/2026 09h 13' 02" Ping reçu, 1702
30/08/2026 09h 12' 56" Enregistrement de l'éclairement (345.6 lux & 0 lux )
30/08/2026 09h 12' 52" Ping reçu,         1700
30/08/2026 09h 12' 48" Ping reçu, 1699
30/08/2026 09h 12' 45" Ping reçu, 1698
30/08/2026 09h 12' 32" Ping reçu,         1695
30/08/2026 09h 12' 32" NTP : 9h 12m 32s.
30/08/2026 09h 12' 28" Ping reçu, 1694
30/08/2026 09h 12' 24" Ping reçu, 1693
30/08/2026 09h 12' 15" Ping reçu, 1691
30/08/2026 09h 12' 11" Ping reçu,         1690
30/08/2026 09h 12' 11" cPing.
30/08/2026 09h 12' 02" Ping reçu, 1688
30/08/2026 09h 11' 58" Ping reçu, 1687
30/08/2026 09h 11' 54" Ping reçu, 1686
30/08/2026 09h 11' 50" Ping reçu,         1685
30/08/2026 09h 11' 49" Enregistrement de l'éclairement (345.6 lux & 0 lux )
30/08/2026 09h 11' 47" Ping reçu, 1684
30/08/2026 09h 11' 39" Ping reçu, 1682
30/08/2026 09h 11' 35" Ping reçu, 1681
30/08/2026 09h 11' 34" Enregistrement de la température (18,528 °C)
30/08/2026 09h 11' 31" Enregistrement des paramètres du vent (49.1° @ 0 m/s)
30/08/2026 09h 11' 30" Enregistrement de l'humidité (99,90 %)
30/08/2026 09h 11' 30" Enregistrement de la Pression atmosphérique (1028,276 hPa)
30/08/2026 09h 11' 26" ERR. Ther. 1 HS.
30/08/2026 09h 11' 26" ERR. Ther. 14 HS.
30/08/2026 09h 11' 20" Ping reçu, 1678
30/08/2026 09h 11' 16" Ping reçu, 1677
30/08/2026 09h 11' 16" cPing.
30/08/2026 09h 11' 12" Ping reçu, 1676
30/08/2026 09h 11' 08" Ping reçu,         1675
30/08/2026 09h 11' 03" Ping reçu, 1674
30/08/2026 09h 10' 59" Ping reçu, 1673
30/08/2026 09h 10' 50" Ping reçu, 1671
30/08/2026 09h 10' 46" Ping reçu,         1670
30/08/2026 09h 10' 42" Ping reçu, 1669
30/08/2026 09h 10' 41" Enregistrement de l'éclairement (345.6 lux & 0 lux )
30/08/2026 09h 10' 31" Ping reçu, 1666
30/08/2026 09h 10' 23" Ping reçu, 1664
30/08/2026 09h 10' 19" cPing.
30/08/2026 09h 10' 18" Ping reçu, 1663
30/08/2026 09h 10' 14" Ping reçu, 1662
30/08/2026 09h 10' 09" Ping reçu, 1661
30/08/2026 09h 10' 00" Ping reçu, 1659
30/08/2026 09h 09' 56" Ping reçu, 1658
30/08/2026 09h 09' 51" Ping reçu, 1657
30/08/2026 09h 09' 47" Ping reçu, 1656
30/08/2026 09h 09' 34" Ping reçu, 1653
30/08/2026 09h 09' 30" Ping reçu, 1652
30/08/2026 09h 09' 24" cPing.
30/08/2026 09h 09' 10" Ping reçu, 1647
30/08/2026 09h 08' 57" Ping reçu, 1644
30/08/2026 09h 08' 53" Ping reçu, 1643
30/08/2026 09h 08' 48" Ping reçu, 1642
30/08/2026 09h 08' 44" Ping reçu, 1641
30/08/2026 09h 08' 36" Ping reçu, 1639
30/08/2026 09h 08' 33" Ping reçu, 1638
30/08/2026 09h 08' 29" Ping reçu, 1637
30/08/2026 09h 08' 27" cPing.
30/08/2026 09h 08' 07" Ping reçu, 1632
30/08/2026 09h 08' 02" Ping reçu, 1631
30/08/2026 09h 07' 59" Ping reçu,         1630
30/08/2026 09h 07' 54" Ping reçu, 1629
30/08/2026 09h 07' 41" Ping reçu, 1626
30/08/2026 09h 07' 37" Ping reçu,         1625
30/08/2026 09h 07' 33" Ping reçu, 1624
30/08/2026 09h 07' 32" cPing.
30/08/2026 09h 07' 31" ERR. Ther. 14 HS.
30/08/2026 09h 07' 29" ERR. Ther. 1 HS.
30/08/2026 09h 07' 24" Ping reçu, 1622
30/08/2026 09h 07' 21" Ping reçu, 1621
30/08/2026 09h 07' 19" Enregistrement de la température (18,605 °C)
30/08/2026 09h 07' 18" Enregistrement de l'éclairement (345.6 lux & 0 lux )
30/08/2026 09h 07' 17" Ping reçu,         1620
30/08/2026 09h 07' 13" Ping reçu, 1619
30/08/2026 09h 07' 04" Ping reçu, 1617
30/08/2026 09h 07' 00" Ping reçu, 1616
30/08/2026 09h 06' 56" Ping reçu,         1615
30/08/2026 09h 06' 51" Ping reçu, 1614
30/08/2026 09h 06' 47" Ping reçu, 1613
30/08/2026 09h 06' 43" Ping reçu, 1612
30/08/2026 09h 06' 38" Ping reçu, 1611
30/08/2026 09h 06' 35" cPing.
30/08/2026 09h 06' 30" Ping reçu, 1609
30/08/2026 09h 06' 27" Ping reçu, 1608
30/08/2026 09h 06' 19" Ping reçu, 1606
30/08/2026 09h 06' 12" Enregistrement de l'éclairement (345.6 lux & 0 lux )
30/08/2026 09h 06' 11" Ping reçu, 1604
30/08/2026 09h 06' 06" Ping reçu, 1603
30/08/2026 09h 06' 02" Ping reçu, 1602
30/08/2026 09h 05' 57" Ping reçu, 1601
30/08/2026 09h 05' 54" Enregistrement de la hauteur d'eau (783,610 mm @ 99,8%)
30/08/2026 09h 05' 54" Pressions pluviométriques (32,07 & 64,00)
30/08/2026 09h 05' 53" Ping reçu,         1600
30/08/2026 09h 05' 39" Ping reçu, 1597
30/08/2026 09h 05' 39" cPing.
30/08/2026 09h 05' 35" Ping reçu, 1596
30/08/2026 09h 05' 22" Ping reçu, 1593
30/08/2026 09h 05' 11" Ping reçu,         1590
30/08/2026 09h 05' 06" Ping reçu, 1589
30/08/2026 09h 05' 03" Enregistrement de l'éclairement (345.6 lux & 0 lux )
30/08/2026 09h 05' 02" Ping reçu, 1588
30/08/2026 09h 04' 58" Ping reçu, 1587
30/08/2026 09h 04' 54" Ping reçu, 1586
30/08/2026 09h 04' 45" Ping reçu, 1584
30/08/2026 09h 04' 44" cPing.
30/08/2026 09h 04' 32" Ping reçu, 1581
30/08/2026 09h 04' 28" Ping reçu,         1580
30/08/2026 09h 04' 19" Ping reçu, 1578
30/08/2026 09h 04' 12" Ping reçu, 1576
30/08/2026 09h 04' 08" Ping reçu,         1575
30/08/2026 09h 04' 00" Ping reçu, 1573
30/08/2026 09h 03' 56" Enregistrement de l'éclairement (345.6 lux & 0 lux )
30/08/2026 09h 03' 55" Ping reçu, 1572
30/08/2026 09h 03' 51" Ping reçu, 1571
30/08/2026 09h 03' 47" cPing.
30/08/2026 09h 03' 47" Ping reçu,         1570
30/08/2026 09h 03' 42" Ping reçu, 1569
30/08/2026 09h 03' 34" ERR. Ther. 14 HS.
30/08/2026 09h 03' 33" Ping reçu, 1567
30/08/2026 09h 03' 29" Ping reçu, 1566
30/08/2026 09h 03' 25" Ping reçu,         1565
30/08/2026 09h 03' 16" Ping reçu, 1563
30/08/2026 09h 03' 12" Ping reçu, 1562
30/08/2026 09h 03' 07" Enregistrement de la température (18,659 °C)
30/08/2026 09h 03' 06" Enregistrement de la Pression atmosphérique (1028,279 hPa)
30/08/2026 09h 03' 05" Ping reçu,         1560
30/08/2026 09h 03' 00" Ping reçu, 1559
30/08/2026 09h 02' 57" Ping reçu, 1558
30/08/2026 09h 02' 52" Enregistrement Température du pluviometre : (20,5 °C)
30/08/2026 09h 02' 52" cPing.
30/08/2026 09h 02' 49" Ping reçu, 1557
30/08/2026 09h 02' 47" Enregistrement de l'éclairement (345.6 lux & 0 lux )
30/08/2026 09h 02' 44" Ping reçu, 1556
30/08/2026 09h 02' 40" Ping reçu,         1555
30/08/2026 09h 02' 33" Ping reçu, 1553
30/08/2026 09h 02' 29" Ping reçu, 1552
30/08/2026 09h 02' 20" Ping reçu,         1550
30/08/2026 09h 02' 16" Ping reçu, 1549
30/08/2026 09h 01' 59" Ping reçu,         1545
30/08/2026 09h 01' 55" Ping reçu, 1544
30/08/2026 09h 01' 54" cPing.
30/08/2026 09h 01' 51" Ping reçu, 1543
30/08/2026 09h 01' 47" Ping reçu, 1542
30/08/2026 09h 01' 44" Ping reçu, 1541
30/08/2026 09h 01' 40" Enregistrement de l'humidité (99,90 %)
30/08/2026 09h 01' 35" Ping reçu, 1539
30/08/2026 09h 01' 31" Ping reçu, 1538
30/08/2026 09h 01' 27" Ping reçu, 1537
30/08/2026 09h 01' 18" Ping reçu,         1535
30/08/2026 09h 01' 14" Ping reçu, 1534
30/08/2026 09h 01' 00" Ping reçu, 1531
30/08/2026 09h 00' 59" cPing.
30/08/2026 09h 00' 46" Enregistrement de l'Arduino : (22,0 °C)
30/08/2026 09h 00' 41" Ping reçu, 1527
30/08/2026 09h 00' 34" On purge les valeurs du crystal...
30/08/2026 09h 00' 33" Enregistrement de l'éclairement (345.6 lux & 0 lux )
30/08/2026 09h 00' 27" On purge les valeurs du crystal...
30/08/2026 09h 00' 24" Ping reçu, 1523
30/08/2026 09h 00' 20" Ping reçu, 1522
30/08/2026 09h 00' 16" On purge les valeurs du crystal...
30/08/2026 09h 00' 15" Ping reçu, 1521
30/08/2026 09h 00' 12" Ping reçu,         1520
30/08/2026 09h 00' 11" Enregistrement des paramètres du vent (49.1° @ 0 m/s)
30/08/2026 09h 00' 06" Ping reçu, 1519
30/08/2026 09h 00' 02" Ping reçu, 1518
30/08/2026 09h 00' 02" cPing.
30/08/2026 08h 59' 57" Ping reçu, 1517
30/08/2026 08h 59' 53" Ping reçu, 1516
30/08/2026 08h 59' 45" Ping reçu, 1514
30/08/2026 08h 59' 36" Ping reçu, 1512
30/08/2026 08h 59' 34" ERR. Ther. 14 HS.
30/08/2026 08h 59' 31" Ping reçu, 1511
30/08/2026 08h 59' 26" Ping reçu,         1510
30/08/2026 08h 59' 22" Ping reçu, 1509
30/08/2026 08h 59' 21" Enregistrement de l'éclairement (345.6 lux & 0 lux )
30/08/2026 08h 59' 15" Ping reçu, 1507
30/08/2026 08h 59' 11" Ping reçu, 1506
30/08/2026 08h 59' 07" Ping reçu,         1505
30/08/2026 08h 59' 07" cPing.
30/08/2026 08h 59' 03" Ping reçu, 1504
30/08/2026 08h 58' 59" Ping reçu, 1503
30/08/2026 08h 58' 49" Enregistrement de la température (18,637 °C)
30/08/2026 08h 58' 45" Ping reçu,         1500
30/08/2026 08h 58' 41" Ping reçu, 1499
30/08/2026 08h 58' 33" On a tout sauvé !
30/08/2026 08h 58' 32" Ping reçu, 1497
30/08/2026 08h 58' 27" Ping reçu, 1496
30/08/2026 08h 58' 23" Ping reçu,         1495
30/08/2026 08h 58' 19" Ping reçu, 1494
30/08/2026 08h 58' 15" Ping reçu, 1493
30/08/2026 08h 58' 12" Ping reçu, 1492
30/08/2026 08h 58' 10" cPing.
30/08/2026 08h 58' 02" Ping reçu,         1490
30/08/2026 08h 57' 59" Ping reçu, 1489
30/08/2026 08h 57' 55" Ping reçu, 1488
30/08/2026 08h 57' 51" Ping reçu, 1487
30/08/2026 08h 57' 47" Ping reçu, 1486
30/08/2026 08h 57' 38" Ping reçu, 1484
30/08/2026 08h 57' 33" Ping reçu, 1483
30/08/2026 08h 57' 29" Ping reçu, 1482
30/08/2026 08h 57' 21" Ping reçu,         1480
30/08/2026 08h 57' 15" cPing.
30/08/2026 08h 57' 12" Ping reçu, 1478
30/08/2026 08h 57' 05" Ping reçu, 1476
30/08/2026 08h 57' 01" Ping reçu,         1475
30/08/2026 08h 57' 01" Rw SD-card.
30/08/2026 08h 56' 57" Ping reçu, 1474
30/08/2026 08h 56' 53" Ping reçu, 1473
30/08/2026 08h 56' 48" Ping reçu, 1472
30/08/2026 08h 56' 44" Ping reçu, 1471
30/08/2026 08h 56' 39" Ping reçu,         1470
30/08/2026 08h 56' 35" Ping reçu, 1469
30/08/2026 08h 56' 31" Ping reçu, 1468
30/08/2026 08h 56' 20" Ping reçu,         1465
30/08/2026 08h 56' 18" cPing.
30/08/2026 08h 56' 14" Ping reçu, 1464
30/08/2026 08h 56' 11" Ping reçu, 1463
30/08/2026 08h 56' 07" Ping reçu, 1462
30/08/2026 08h 56' 03" Ping reçu, 1461
30/08/2026 08h 56' 00" Enregistrement de l'éclairement (345.6 lux & 0 lux )
30/08/2026 08h 55' 54" Ping reçu, 1459
30/08/2026 08h 55' 45" Ping reçu, 1457
30/08/2026 08h 55' 41" Ping reçu, 1456
30/08/2026 08h 55' 39" ERR. Ther. 1 HS.
30/08/2026 08h 55' 39" ERR. Ther. 14 HS.
30/08/2026 08h 55' 28" Ping reçu, 1453
30/08/2026 08h 55' 24" Ping reçu, 1452
30/08/2026 08h 55' 23" cPing.
30/08/2026 08h 55' 17" Ping reçu,         1450
30/08/2026 08h 55' 13" Ping reçu, 1449
30/08/2026 08h 55' 09" Ping reçu, 1448
30/08/2026 08h 55' 05" Ping reçu, 1447
30/08/2026 08h 55' 00" Ping reçu, 1446
30/08/2026 08h 54' 56" Ping reçu,         1445
30/08/2026 08h 54' 47" Ping reçu, 1443
30/08/2026 08h 54' 39" Ping reçu, 1441
30/08/2026 08h 54' 35" Ping reçu,         1440
30/08/2026 08h 54' 35" Enregistrement de la hauteur d'eau (783,670 mm @ 99,8%)
30/08/2026 08h 54' 34" Enregistrement de la Pression atmosphérique (1028,258 hPa)
30/08/2026 08h 54' 34" Enregistrement des paramètres du vent (49.1° @ 0 m/s)
30/08/2026 08h 54' 27" cPing.
30/08/2026 08h 54' 24" Ping reçu, 1438
30/08/2026 08h 54' 20" Ping reçu, 1437
30/08/2026 08h 54' 16" Ping reçu, 1436
30/08/2026 08h 54' 08" Ping reçu, 1434
30/08/2026 08h 53' 56" Ping reçu, 1431
30/08/2026 08h 53' 52" Ping reçu,         1430
30/08/2026 08h 53' 48" Ping reçu, 1429
30/08/2026 08h 53' 44" Ping reçu, 1428
30/08/2026 08h 53' 35" Ping reçu, 1426
30/08/2026 08h 53' 30" Ping reçu,         1425
30/08/2026 08h 53' 30" cPing.
30/08/2026 08h 53' 26" Ping reçu, 1424
30/08/2026 08h 53' 21" Ping reçu, 1423
30/08/2026 08h 53' 17" Ping reçu, 1422
30/08/2026 08h 53' 13" Ping reçu, 1421
30/08/2026 08h 53' 06" Ping reçu, 1419
30/08/2026 08h 53' 02" Ping reçu, 1418
30/08/2026 08h 52' 58" Ping reçu, 1417
30/08/2026 08h 52' 49" Ping reçu,         1415
30/08/2026 08h 52' 45" Ping reçu, 1414
30/08/2026 08h 52' 35" cPing.
30/08/2026 08h 52' 27" Ping reçu,         1410
30/08/2026 08h 52' 23" Ping reçu, 1409
30/08/2026 08h 52' 14" Ping reçu, 1407
30/08/2026 08h 52' 01" Ping reçu, 1404
30/08/2026 08h 51' 54" Ping reçu, 1402
30/08/2026 08h 51' 50" Ping reçu, 1401
30/08/2026 08h 51' 47" Enregistrement de l'humidité (99,90 %)
30/08/2026 08h 51' 46" Ping reçu,         1400
30/08/2026 08h 51' 42" ERR. Ther. 14 HS.
30/08/2026 08h 51' 38" cPing.
30/08/2026 08h 51' 37" Ping reçu, 1398
30/08/2026 08h 51' 28" Ping reçu, 1396
30/08/2026 08h 51' 20" Ping reçu, 1394
30/08/2026 08h 51' 15" Ping reçu, 1393
30/08/2026 08h 51' 11" Ping reçu, 1392
30/08/2026 08h 51' 03" Ping reçu,         1390
30/08/2026 08h 50' 59" Ping reçu, 1389
30/08/2026 08h 50' 54" Ping reçu, 1388
30/08/2026 08h 50' 52" Ping reçu, 1387
30/08/2026 08h 50' 43" cPing.
30/08/2026 08h 50' 38" Enregistrement Température du pluviometre : (20,4 °C)
30/08/2026 08h 50' 27" Ping reçu, 1382
30/08/2026 08h 50' 23" Ping reçu, 1381
30/08/2026 08h 50' 21" Enregistrement de la température (18,295 °C)
30/08/2026 08h 50' 14" Ping reçu, 1379
30/08/2026 08h 50' 11" Ping reçu, 1378
30/08/2026 08h 50' 02" Ping reçu, 1376
30/08/2026 08h 49' 58" Ping reçu,         1375
30/08/2026 08h 49' 54" Ping reçu, 1374
30/08/2026 08h 49' 50" Ping reçu, 1373
30/08/2026 08h 49' 46" cPing.
30/08/2026 08h 49' 45" Ping reçu, 1372
30/08/2026 08h 49' 41" Ping reçu, 1371
30/08/2026 08h 49' 37" Ping reçu,         1370
30/08/2026 08h 49' 29" Ping reçu, 1368
30/08/2026 08h 49' 26" Ping reçu, 1367
30/08/2026 08h 49' 14" Enregistrement de l'éclairement (345.6 lux & 0 lux )
30/08/2026 08h 49' 13" Ping reçu, 1364
30/08/2026 08h 49' 04" Ping reçu, 1362
30/08/2026 08h 49' 00" Ping reçu, 1361
30/08/2026 08h 48' 56" Enregistrement des paramètres du vent (49.1° @ 0 m/s)
30/08/2026 08h 48' 56" Ping reçu,         1360
30/08/2026 08h 48' 51" cPing.
30/08/2026 08h 48' 47" Ping reçu, 1358
30/08/2026 08h 48' 38" Ping reçu, 1356
30/08/2026 08h 48' 34" Ping reçu,         1355
30/08/2026 08h 48' 30" Ping reçu, 1354
30/08/2026 08h 48' 25" Ping reçu, 1353
30/08/2026 08h 48' 14" Ping reçu,         1350
30/08/2026 08h 48' 10" Ping reçu, 1349
30/08/2026 08h 48' 07" Enregistrement de l'éclairement (345.6 lux & 0 lux )
30/08/2026 08h 48' 01" Ping reçu, 1347
30/08/2026 08h 47' 54" cPing.
30/08/2026 08h 47' 52" Ping reçu,         1345
30/08/2026 08h 47' 48" Ping reçu, 1344
30/08/2026 08h 47' 44" ERR. Ther. 1 HS.
30/08/2026 08h 47' 44" ERR. Ther. 14 HS.
30/08/2026 08h 47' 39" Ping reçu, 1342
30/08/2026 08h 47' 35" Ping reçu, 1341
30/08/2026 08h 47' 30" Ping reçu,         1340
30/08/2026 08h 47' 26" Ping reçu, 1339
30/08/2026 08h 47' 22" Ping reçu, 1338
30/08/2026 08h 47' 20" Enregistrement de l'Arduino : (22,0 °C)
30/08/2026 08h 47' 16" Ping reçu, 1337
30/08/2026 08h 47' 12" Ping reçu, 1336
30/08/2026 08h 47' 08" Ping reçu,         1335
30/08/2026 08h 47' 03" Ping reçu, 1334
30/08/2026 08h 46' 59" Ping reçu, 1333
30/08/2026 08h 46' 59" cPing.
30/08/2026 08h 46' 58" Enregistrement de l'éclairement (345.6 lux & 0 lux )
30/08/2026 08h 46' 51" Ping reçu, 1331
30/08/2026 08h 46' 44" Ping reçu, 1329
30/08/2026 08h 46' 38" Ping reçu, 1328
30/08/2026 08h 46' 31" Ping reçu, 1326
30/08/2026 08h 46' 27" Ping reçu,         1325
30/08/2026 08h 46' 18" Ping reçu, 1323
30/08/2026 08h 46' 14" Ping reçu, 1322
30/08/2026 08h 46' 05" Ping reçu,         1320
30/08/2026 08h 46' 01" cPing.
30/08/2026 08h 46' 00" Ping reçu, 1319
30/08/2026 08h 45' 52" Ping reçu, 1317
30/08/2026 08h 45' 50" Enregistrement de l'éclairement (345.6 lux & 0 lux )
30/08/2026 08h 45' 43" Ping reçu,         1315
30/08/2026 08h 45' 39" Ping reçu, 1314
30/08/2026 08h 45' 30" Ping reçu, 1312
30/08/2026 08h 45' 27" Ping reçu, 1311
30/08/2026 08h 45' 18" Ping reçu, 1309
30/08/2026 08h 45' 14" Ping reçu, 1308
30/08/2026 08h 45' 06" Ping reçu, 1306
30/08/2026 08h 45' 06" cPing.
30/08/2026 08h 45' 02" Ping reçu,         1305
30/08/2026 08h 44' 57" Ping reçu, 1304
30/08/2026 08h 44' 53" Ping reçu, 1303
30/08/2026 08h 44' 45" Ping reçu, 1301
30/08/2026 08h 44' 44" Enregistrement de l'éclairement (345.6 lux & 0 lux )
30/08/2026 08h 44' 42" Ping reçu,         1300
30/08/2026 08h 44' 36" Ping reçu, 1299
30/08/2026 08h 44' 33" Ping reçu, 1298
30/08/2026 08h 44' 29" Ping reçu, 1297
30/08/2026 08h 44' 25" Ping reçu, 1296
30/08/2026 08h 44' 16" Ping reçu, 1294
30/08/2026 08h 44' 12" Ping reçu, 1293
30/08/2026 08h 44' 09" cPing.
30/08/2026 08h 44' 07" Ping reçu, 1292
30/08/2026 08h 44' 06" Ping reçu, 1
30/08/2026 08h 43' 58" Ping reçu,         1290
30/08/2026 08h 43' 53" On a tout sauvé !
30/08/2026 08h 43' 45" ERR. Ther. 14 HS.
30/08/2026 08h 43' 37" Ping reçu, 1286
30/08/2026 08h 43' 33" Ping reçu,         1285
30/08/2026 08h 43' 32" Enregistrement de l'éclairement (345.6 lux & 0 lux )
30/08/2026 08h 43' 29" Ping reçu, 1284
30/08/2026 08h 43' 26" Ping reçu, 1283
30/08/2026 08h 43' 22" Ping reçu, 1282
30/08/2026 08h 43' 18" Ping reçu, 1281
30/08/2026 08h 43' 14" Enregistrement de la hauteur d'eau (783,620 mm @ 99,8%)
30/08/2026 08h 43' 14" cPing.
30/08/2026 08h 43' 13" Enregistrement des paramètres du vent (49.1° @ 0 m/s)
30/08/2026 08h 43' 08" Ping reçu, 1279
30/08/2026 08h 43' 04" Ping reçu, 1278
30/08/2026 08h 43' 00" Ping reçu, 1277
30/08/2026 08h 42' 51" Ping reçu,         1275
30/08/2026 08h 42' 43" Ping reçu, 1273
30/08/2026 08h 42' 34" Ping reçu, 1271
30/08/2026 08h 42' 27" Ping reçu, 1269
30/08/2026 08h 42' 25" Enregistrement de l'éclairement (345.6 lux & 0 lux )
30/08/2026 08h 42' 23" Ping reçu, 1268
30/08/2026 08h 42' 19" Ping reçu, 1267
30/08/2026 08h 42' 18" cPing.
30/08/2026 08h 42' 14" Ping reçu, 1266
30/08/2026 08h 42' 10" Ping reçu,         1265
30/08/2026 08h 42' 06" Ping reçu, 1264
30/08/2026 08h 42' 02" Ping reçu, 1263
30/08/2026 08h 41' 57" Ping reçu, 1262
30/08/2026 08h 41' 53" Ping reçu, 1261
30/08/2026 08h 41' 52" Enregistrement de la température (18,271 °C)
30/08/2026 08h 41' 49" Enregistrement de l'humidité (99,90 %)
30/08/2026 08h 41' 44" Ping reçu, 1259
30/08/2026 08h 41' 40" Ping reçu, 1258
30/08/2026 08h 41' 27" Ping reçu,         1255
30/08/2026 08h 41' 23" Ping reçu, 1254
30/08/2026 08h 41' 21" cPing.
30/08/2026 08h 41' 20" Ping reçu, 1253
30/08/2026 08h 41' 16" Ping reçu, 1252
30/08/2026 08h 41' 07" Ping reçu,         1250
30/08/2026 08h 40' 54" Ping reçu, 1247
30/08/2026 08h 40' 50" Ping reçu, 1246
30/08/2026 08h 40' 45" Ping reçu,         1245
30/08/2026 08h 40' 41" Ping reçu, 1244
30/08/2026 08h 40' 30" Ping reçu, 1241
30/08/2026 08h 40' 26" Ping reçu,         1240
30/08/2026 08h 40' 24" cPing.
30/08/2026 08h 40' 22" Ping reçu, 1239
30/08/2026 08h 40' 18" Ping reçu, 1238
30/08/2026 08h 40' 13" Ping reçu, 1237
30/08/2026 08h 40' 09" Ping reçu, 1236
30/08/2026 08h 40' 05" Ping reçu,         1235
30/08/2026 08h 40' 00" Ping reçu, 1234
30/08/2026 08h 39' 56" Ping reçu, 1233
30/08/2026 08h 39' 52" Ping reçu, 1232
30/08/2026 08h 39' 48" ERR. Ther. 1 HS.
30/08/2026 08h 39' 48" ERR. Ther. 14 HS.
30/08/2026 08h 39' 47" Ping reçu, 1231
30/08/2026 08h 39' 43" Ping reçu,         1230
30/08/2026 08h 39' 38" Ping reçu, 1229
30/08/2026 08h 39' 34" Ping reçu, 1228
30/08/2026 08h 39' 30" Ping reçu, 1227
30/08/2026 08h 39' 29" cPing.
30/08/2026 08h 39' 27" Ping reçu, 1226
30/08/2026 08h 39' 19" Ping reçu, 1224
30/08/2026 08h 39' 15" Ping reçu, 1223
30/08/2026 08h 39' 11" Ping reçu, 1222
30/08/2026 08h 39' 06" Ping reçu, 1221
30/08/2026 08h 39' 05" Enregistrement de l'éclairement (345.6 lux & 0 lux )
30/08/2026 08h 39' 02" Ping reçu,         1220
30/08/2026 08h 38' 53" Ping reçu, 1218
30/08/2026 08h 38' 49" Ping reçu, 1217
30/08/2026 08h 38' 45" Ping reçu, 1216
30/08/2026 08h 38' 42" Ping reçu,         1215
30/08/2026 08h 38' 36" Ping reçu, 1214
30/08/2026 08h 38' 33" Ping reçu, 1213
30/08/2026 08h 38' 33" cPing.
30/08/2026 08h 38' 29" Ping reçu, 1212
30/08/2026 08h 38' 21" Ping reçu, 1211
30/08/2026 08h 38' 03" Ping reçu, 1207
30/08/2026 08h 37' 59" Ping reçu, 1206
30/08/2026 08h 37' 53" Enregistrement de l'éclairement (345.6 lux & 0 lux )
30/08/2026 08h 37' 51" Ping reçu, 1204
30/08/2026 08h 37' 48" Ping reçu, 1203
30/08/2026 08h 37' 44" Ping reçu, 1202
30/08/2026 08h 37' 36" cPing.
30/08/2026 08h 37' 35" Enregistrement de la Pression atmosphérique (1028,159 hPa)
30/08/2026 08h 37' 29" Ping reçu, 1199
30/08/2026 08h 37' 24" Ping reçu, 1198
30/08/2026 08h 37' 21" Ping reçu, 1197
30/08/2026 08h 37' 09" Ping reçu, 1194
30/08/2026 08h 37' 05" Ping reçu, 1193
30/08/2026 08h 36' 56" Ping reçu, 1191
30/08/2026 08h 36' 41" cPing.
30/08/2026 08h 36' 39" Ping reçu, 1187
30/08/2026 08h 36' 23" Ping reçu, 1183
30/08/2026 08h 36' 19" Ping reçu, 1182
30/08/2026 08h 36' 06" Ping reçu, 1179
30/08/2026 08h 35' 57" Ping reçu, 1177
30/08/2026 08h 35' 53" Ping reçu, 1176
30/08/2026 08h 35' 50" ERR. Ther. 1 HS.
30/08/2026 08h 35' 50" ERR. Ther. 14 HS.
30/08/2026 08h 35' 48" Ping reçu,         1175
30/08/2026 08h 35' 44" Ping reçu, 1174
30/08/2026 08h 35' 44" cPing.
30/08/2026 08h 35' 40" Ping reçu, 1173
30/08/2026 08h 35' 36" Ping reçu, 1172
30/08/2026 08h 35' 29" Ping reçu,         1170
30/08/2026 08h 35' 20" Ping reçu, 1168
30/08/2026 08h 35' 16" Ping reçu, 1167
30/08/2026 08h 35' 03" Ping reçu, 1164
30/08/2026 08h 34' 59" Ping reçu, 1163
30/08/2026 08h 34' 54" Ping reçu, 1162
30/08/2026 08h 34' 49" cPing.
30/08/2026 08h 34' 42" Ping reçu, 1159
30/08/2026 08h 34' 39" Ping reçu, 1158
30/08/2026 08h 34' 33" Ping reçu, 1157
30/08/2026 08h 34' 31" Enregistrement de l'éclairement (345.6 lux & 0 lux )
30/08/2026 08h 34' 29" Ping reçu, 1156
30/08/2026 08h 34' 13" Ping reçu, 1152
30/08/2026 08h 34' 08" Ping reçu, 1151
30/08/2026 08h 34' 04" Ping reçu,         1150
30/08/2026 08h 33' 56" Ping reçu, 1148
30/08/2026 08h 33' 52" cPing.
30/08/2026 08h 33' 43" Ping reçu, 1146
30/08/2026 08h 33' 39" Ping reçu,         1145
30/08/2026 08h 33' 37" Ping reçu, 1144
30/08/2026 08h 33' 28" Ping reçu, 1142
30/08/2026 08h 33' 24" Ping reçu, 1141
30/08/2026 08h 33' 23" Enregistrement de la température (18,122 °C)
30/08/2026 08h 33' 20" Enregistrement de l'éclairement (345.6 lux & 0 lux )
30/08/2026 08h 33' 20" Ping reçu,         1140
30/08/2026 08h 33' 11" Ping reçu, 1138
30/08/2026 08h 33' 02" Ping reçu, 1136
30/08/2026 08h 32' 57" Ping reçu,         1135
30/08/2026 08h 32' 57" cPing.
30/08/2026 08h 32' 49" Ping reçu, 1133
30/08/2026 08h 32' 45" Ping reçu, 1132
30/08/2026 08h 32' 42" Ping reçu, 1131
30/08/2026 08h 32' 38" Ping reçu,         1130
30/08/2026 08h 32' 33" Ping reçu, 1129
30/08/2026 08h 32' 25" Ping reçu, 1127
30/08/2026 08h 32' 21" Ping reçu, 1126
30/08/2026 08h 32' 17" Ping reçu,         1125
30/08/2026 08h 32' 16" Enregistrement de l'éclairement (345.6 lux & 0 lux )
30/08/2026 08h 32' 12" Ping reçu, 1124
30/08/2026 08h 32' 04" Ping reçu, 1122
30/08/2026 08h 32' 00" Ping reçu, 1121
30/08/2026 08h 32' 00" cPing.
30/08/2026 08h 31' 55" Enregistrement de l'humidité (99,90 %)
30/08/2026 08h 31' 55" Ping reçu,         1120
30/08/2026 08h 31' 54" Enregistrement des paramètres du vent (49.3° @ 0 m/s)
30/08/2026 08h 31' 50" ERR. Ther. 1 HS.
30/08/2026 08h 31' 50" ERR. Ther. 14 HS.
30/08/2026 08h 31' 50" Ping reçu, 1119
30/08/2026 08h 31' 45" Ping reçu, 1118
30/08/2026 08h 31' 32" Ping reçu,         1115
30/08/2026 08h 31' 27" Ping reçu, 1114
30/08/2026 08h 31' 23" Ping reçu, 1113
30/08/2026 08h 31' 06" Ping reçu, 1109
30/08/2026 08h 31' 04" cPing.
30/08/2026 08h 30' 59" Ping reçu, 1107
30/08/2026 08h 30' 55" Ping reçu, 1106
30/08/2026 08h 30' 51" Ping reçu,         1105
30/08/2026 08h 30' 42" Ping reçu, 1103
30/08/2026 08h 30' 38" Ping reçu, 1102
30/08/2026 08h 30' 29" Ping reçu,         1100
30/08/2026 08h 30' 25" Ping reçu, 1099
30/08/2026 08h 30' 18" Ping reçu, 1097
30/08/2026 08h 30' 10" Ping reçu,         1095
30/08/2026 08h 30' 07" cPing.
30/08/2026 08h 30' 05" Ping reçu, 1094
30/08/2026 08h 30' 01" Ping reçu, 1093
30/08/2026 08h 29' 58" Enregistrement de l'éclairement (345.6 lux & 0 lux )
30/08/2026 08h 29' 57" Ping reçu, 1092
30/08/2026 08h 29' 53" Ping reçu, 1091
30/08/2026 08h 29' 48" Ping reçu,         1090
30/08/2026 08h 29' 39" Ping reçu, 1088
30/08/2026 08h 29' 35" Ping reçu, 1087
30/08/2026 08h 29' 30" Ping reçu, 1086
30/08/2026 08h 29' 26" On a tout sauvé !
30/08/2026 08h 29' 21" Ping reçu, 1084
30/08/2026 08h 29' 13" Ping reçu, 1082
30/08/2026 08h 29' 12" cPing.
30/08/2026 08h 29' 09" Ping reçu, 1081
30/08/2026 08h 29' 08" Enregistrement de la température (17,912 °C)
30/08/2026 08h 29' 06" Enregistrement de la Pression atmosphérique (1028,135 hPa)
30/08/2026 08h 29' 00" Ping reçu, 1079
30/08/2026 08h 28' 56" Ping reçu, 1078
30/08/2026 08h 28' 53" Ping reçu, 1077
30/08/2026 08h 28' 50" Enregistrement de l'éclairement (345.6 lux & 0 lux )
30/08/2026 08h 28' 49" Ping reçu, 1076
30/08/2026 08h 28' 41" Ping reçu, 1074
30/08/2026 08h 28' 36" Ping reçu, 1073
30/08/2026 08h 28' 32" Ping reçu, 1072
30/08/2026 08h 28' 23" Ping reçu,         1070
30/08/2026 08h 28' 15" cPing.
30/08/2026 08h 28' 14" Ping reçu, 1068
30/08/2026 08h 28' 10" Ping reçu, 1067
30/08/2026 08h 28' 06" Ping reçu, 1066
30/08/2026 08h 27' 57" Ping reçu, 1064
30/08/2026 08h 27' 55" ERR. Ther. 1 HS.
30/08/2026 08h 27' 55" ERR. Ther. 14 HS.
30/08/2026 08h 27' 50" Ping reçu, 1062
30/08/2026 08h 27' 42" Enregistrement de l'éclairement (345.6 lux & 0 lux )
30/08/2026 08h 27' 36" Ping reçu, 1059
30/08/2026 08h 27' 32" Ping reçu, 1058
30/08/2026 08h 27' 28" Ping reçu, 1057
30/08/2026 08h 27' 20" cPing.
30/08/2026 08h 27' 18" Ping reçu,         1055
30/08/2026 08h 27' 10" Ping reçu, 1053
30/08/2026 08h 27' 06" Ping reçu, 1052
30/08/2026 08h 26' 53" Ping reçu, 1049
30/08/2026 08h 26' 49" Ping reçu, 1048
30/08/2026 08h 26' 45" Ping reçu, 1047
30/08/2026 08h 26' 42" Ping reçu, 1046
30/08/2026 08h 26' 38" Ping reçu,         1045
30/08/2026 08h 26' 35" Enregistrement de l'éclairement (345.6 lux & 0 lux )
30/08/2026 08h 26' 34" Ping reçu, 1044
30/08/2026 08h 26' 26" Ping reçu, 1042
30/08/2026 08h 26' 23" cPing.
30/08/2026 08h 26' 17" Enregistrement des paramètres du vent (49.5° @ 0 m/s)
30/08/2026 08h 26' 17" Ping reçu,         1040
30/08/2026 08h 26' 12" Ping reçu, 1039
30/08/2026 08h 26' 09" Enregistrement Température du pluviometre : (20,4 °C)
30/08/2026 08h 26' 00" Ping reçu, 1037
30/08/2026 08h 25' 53" Ping reçu,         1035
30/08/2026 08h 25' 49" Ping reçu, 1034
30/08/2026 08h 25' 45" Ping reçu, 1033
30/08/2026 08h 25' 41" Ping reçu, 1032
30/08/2026 08h 25' 36" Ping reçu, 1031
30/08/2026 08h 25' 32" Ping reçu,         1030
30/08/2026 08h 25' 27" Ping reçu, 1029
30/08/2026 08h 25' 27" cPing.
30/08/2026 08h 25' 26" Enregistrement de l'éclairement (345.6 lux & 0 lux )
30/08/2026 08h 25' 23" Ping reçu, 1028
30/08/2026 08h 25' 19" Ping reçu, 1027
30/08/2026 08h 25' 12" Ping reçu,         1025
30/08/2026 08h 25' 03" Ping reçu, 1023
30/08/2026 08h 24' 59" Ping reçu, 1022
30/08/2026 08h 24' 55" Ping reçu, 1021
30/08/2026 08h 24' 51" Ping reçu,         1020
30/08/2026 08h 24' 47" Ping reçu, 1019
30/08/2026 08h 24' 42" Ping reçu, 1018
30/08/2026 08h 24' 33" Ping reçu, 1016
30/08/2026 08h 24' 32" cPing.
30/08/2026 08h 24' 25" Ping reçu, 1014
30/08/2026 08h 24' 21" Ping reçu, 1013
30/08/2026 08h 24' 17" Ping reçu, 1012
30/08/2026 08h 24' 14" Ping reçu, 1011
30/08/2026 08h 24' 10" Ping reçu,         1010
30/08/2026 08h 24' 02" Ping reçu, 1008
30/08/2026 08h 23' 57" ERR. Ther. 1 HS.
30/08/2026 08h 23' 57" ERR. Ther. 14 HS.
30/08/2026 08h 23' 56" Ping reçu, 1007
30/08/2026 08h 23' 52" Ping reçu, 1006
30/08/2026 08h 23' 48" Ping reçu,         1005
30/08/2026 08h 23' 35" cPing.
30/08/2026 08h 23' 35" Ping reçu, 1002
30/08/2026 08h 23' 30" Ping reçu, 1001
30/08/2026 08h 23' 26" Ping reçu,         1000
30/08/2026 08h 23' 22" Ping reçu, 999
30/08/2026 08h 23' 11" Ping reçu, 996
30/08/2026 08h 23' 07" Ping reçu,         995
30/08/2026 08h 22' 58" Ping reçu, 993
30/08/2026 08h 22' 54" Ping reçu, 992
30/08/2026 08h 22' 45" Ping reçu,         990
30/08/2026 08h 22' 40" cPing.
30/08/2026 08h 22' 36" Ping reçu, 988
30/08/2026 08h 22' 14" Ping reçu, 983
30/08/2026 08h 22' 10" Ping reçu, 982
30/08/2026 08h 22' 06" Ping reçu, 981
30/08/2026 08h 22' 05" Enregistrement de l'éclairement (345.6 lux & 0 lux )
30/08/2026 08h 22' 04" Enregistrement de l'humidité (99,90 %)
30/08/2026 08h 22' 02" Ping reçu,         980
30/08/2026 08h 21' 57" Ping reçu, 979
30/08/2026 08h 21' 46" Ping reçu, 976
30/08/2026 08h 21' 43" cPing.
30/08/2026 08h 21' 42" Ping reçu,         975
30/08/2026 08h 21' 38" Ping reçu, 974
30/08/2026 08h 21' 29" Ping reçu, 972
30/08/2026 08h 21' 24" Ping reçu, 971
30/08/2026 08h 21' 20" Ping reçu,         970
30/08/2026 08h 21' 12" Ping reçu, 968
30/08/2026 08h 21' 08" Ping reçu, 967
30/08/2026 08h 21' 01" Ping reçu,         965
30/08/2026 08h 20' 57" Ping reçu, 964
30/08/2026 08h 20' 52" Ping reçu, 963
30/08/2026 08h 20' 48" Ping reçu, 962
30/08/2026 08h 20' 48" cPing.
30/08/2026 08h 20' 40" Pressions pluviométriques (32,07 & 64,00)
30/08/2026 08h 20' 39" Ping reçu,         960
30/08/2026 08h 20' 39" Enregistrement des paramètres du vent (49.5° @ 0 m/s)
30/08/2026 08h 20' 39" Enregistrement de la Pression atmosphérique (1028,102 hPa)
30/08/2026 08h 20' 32" Ping reçu, 959
30/08/2026 08h 20' 29" Ping reçu, 958
30/08/2026 08h 20' 25" Ping reçu, 957
30/08/2026 08h 20' 21" Ping reçu, 956
30/08/2026 08h 20' 13" Ping reçu,         955
30/08/2026 08h 20' 09" Ping reçu, 954
30/08/2026 08h 20' 06" Ping reçu, 953
30/08/2026 08h 19' 56" Ping reçu, 951
30/08/2026 08h 19' 51" cPing.
30/08/2026 08h 19' 40" Ping reçu, 947
30/08/2026 08h 19' 31" Ping reçu,         945
30/08/2026 08h 19' 27" Ping reçu, 944
30/08/2026 08h 19' 22" Ping reçu, 943
30/08/2026 08h 19' 18" Ping reçu, 942
30/08/2026 08h 19' 14" Ping reçu, 941
30/08/2026 08h 19' 05" Ping reçu, 939
30/08/2026 08h 19' 01" Ping reçu, 938
30/08/2026 08h 18' 56" cPing.
30/08/2026 08h 18' 52" Ping reçu, 936
30/08/2026 08h 18' 48" Ping reçu,         935
30/08/2026 08h 18' 35" Ping reçu, 932
30/08/2026 08h 18' 32" Ping reçu, 931
30/08/2026 08h 18' 28" Ping reçu,         930
30/08/2026 08h 18' 24" Ping reçu, 929
30/08/2026 08h 18' 20" Ping reçu, 928
30/08/2026 08h 18' 15" Ping reçu, 927
30/08/2026 08h 18' 11" Ping reçu, 926
30/08/2026 08h 18' 06" Ping reçu,         925
30/08/2026 08h 18' 00" cPing.
30/08/2026 08h 17' 49" Ping reçu, 921
30/08/2026 08h 17' 45" Ping reçu,         920
30/08/2026 08h 17' 42" Ping reçu, 919
30/08/2026 08h 17' 38" Ping reçu, 918
30/08/2026 08h 17' 30" Ping reçu, 916
30/08/2026 08h 17' 22" Ping reçu, 914
30/08/2026 08h 17' 13" Ping reçu, 912
30/08/2026 08h 17' 08" Ping reçu, 911
30/08/2026 08h 17' 03" cPing.
30/08/2026 08h 16' 56" Ping reçu, 908
30/08/2026 08h 16' 53" Ping reçu, 907
30/08/2026 08h 16' 47" Ping reçu, 906
30/08/2026 08h 16' 44" Ping reçu,         905
30/08/2026 08h 16' 40" Ping reçu, 904
30/08/2026 08h 16' 36" Ping reçu, 903
30/08/2026 08h 16' 27" Ping reçu, 901
30/08/2026 08h 16' 23" Ping reçu,         900
30/08/2026 08h 16' 18" Ping reçu, 899
30/08/2026 08h 16' 14" Ping reçu, 898
30/08/2026 08h 16' 08" cPing.
30/08/2026 08h 16' 06" Ping reçu, 896
30/08/2026 08h 16' 02" ERR. Ther. 1 HS.
30/08/2026 08h 15' 48" Ping reçu, 892
30/08/2026 08h 15' 44" Ping reçu, 891
30/08/2026 08h 15' 41" Ping reçu,         890
30/08/2026 08h 15' 37" Ping reçu, 889
30/08/2026 08h 15' 29" Ping reçu, 887
30/08/2026 08h 15' 24" Ping reçu, 886
30/08/2026 08h 15' 20" Rw SD-card.
30/08/2026 08h 15' 20" Ping reçu,         885
30/08/2026 08h 15' 18" Enregistrement de l'éclairement (345.6 lux & 0 lux )
30/08/2026 08h 15' 15" Ping reçu, 884
30/08/2026 08h 15' 11" Ping reçu, 883
30/08/2026 08h 15' 11" cPing.
30/08/2026 08h 15' 03" Ping reçu, 881
30/08/2026 08h 14' 58" Enregistrement des paramètres du vent (49.5° @ 0 m/s)
30/08/2026 08h 14' 36" Ping reçu,         875
30/08/2026 08h 14' 33" Ping reçu, 874
30/08/2026 08h 14' 24" Ping reçu, 872
30/08/2026 08h 14' 16" Ping reçu,         870
30/08/2026 08h 14' 15" cPing.
30/08/2026 08h 14' 07" Ping reçu, 868
30/08/2026 08h 14' 04" Enregistrement de l'éclairement (345.6 lux & 0 lux )
30/08/2026 08h 14' 03" Ping reçu, 867
30/08/2026 08h 13' 59" Ping reçu, 866
30/08/2026 08h 13' 51" Ping reçu,         865
30/08/2026 08h 13' 42" Ping reçu, 863
30/08/2026 08h 13' 38" Ping reçu, 862
30/08/2026 08h 13' 35" Ping reçu, 861
30/08/2026 08h 13' 31" Ping reçu,         860
30/08/2026 08h 13' 27" Ping reçu, 859
30/08/2026 08h 13' 18" cPing.
30/08/2026 08h 13' 18" Ping reçu, 857
30/08/2026 08h 13' 09" Ping reçu,         855
30/08/2026 08h 13' 05" Ping reçu, 854
30/08/2026 08h 12' 56" Ping reçu, 852
30/08/2026 08h 12' 52" Ping reçu, 851
30/08/2026 08h 12' 48" Ping reçu,         850
30/08/2026 08h 12' 39" Ping reçu, 848
30/08/2026 08h 12' 36" Ping reçu, 847
30/08/2026 08h 12' 28" Ping reçu,         845
30/08/2026 08h 12' 23" cPing.
30/08/2026 08h 12' 19" Ping reçu, 843
30/08/2026 08h 12' 15" Ping reçu, 842
30/08/2026 08h 12' 11" Ping reçu, 841
30/08/2026 08h 12' 07" Enregistrement de la Pression atmosphérique (1028,075 hPa)
30/08/2026 08h 12' 07" Enregistrement de l'humidité (99,90 %)
30/08/2026 08h 12' 06" Ping reçu,         840
30/08/2026 08h 12' 02" ERR. Ther. 1 HS.
30/08/2026 08h 12' 02" ERR. Ther. 14 HS.
30/08/2026 08h 12' 02" Ping reçu, 839
30/08/2026 08h 11' 53" Ping reçu, 837
30/08/2026 08h 11' 50" Enregistrement de l'éclairement (345.6 lux & 0 lux )
30/08/2026 08h 11' 35" Ping reçu, 833
30/08/2026 08h 11' 31" Ping reçu, 832
30/08/2026 08h 11' 27" Ping reçu, 831
30/08/2026 08h 11' 26" cPing.
30/08/2026 08h 11' 18" Ping reçu, 829
30/08/2026 08h 11' 14" Ping reçu, 828
30/08/2026 08h 11' 11" Ping reçu, 827
30/08/2026 08h 11' 07" Ping reçu, 826
30/08/2026 08h 11' 03" Ping reçu,         825
30/08/2026 08h 10' 54" Ping reçu, 823
30/08/2026 08h 10' 44" Enregistrement de l'éclairement (345.6 lux & 0 lux )
30/08/2026 08h 10' 41" Ping reçu,         820
30/08/2026 08h 10' 37" Ping reçu, 819
30/08/2026 08h 10' 33" Ping reçu, 818
30/08/2026 08h 10' 31" cPing.
30/08/2026 08h 10' 17" Ping reçu, 814
30/08/2026 08h 10' 13" Ping reçu, 813
30/08/2026 08h 10' 09" Ping reçu, 812
30/08/2026 08h 10' 00" Ping reçu,         810
30/08/2026 08h 09' 56" Ping reçu, 809
30/08/2026 08h 09' 47" Ping reçu, 807
30/08/2026 08h 09' 43" Ping reçu, 806
30/08/2026 08h 09' 38" Enregistrement de l'éclairement (345.6 lux & 0 lux )
30/08/2026 08h 09' 35" Ping reçu, 804
30/08/2026 08h 09' 34" cPing.
30/08/2026 08h 09' 32" Ping reçu, 803
30/08/2026 08h 09' 28" Ping reçu, 802
30/08/2026 08h 09' 24" Ping reçu, 801
30/08/2026 08h 09' 20" Pressions pluviométriques (32,07 & 64,00)
30/08/2026 08h 09' 20" Ping reçu,         800
30/08/2026 08h 09' 20" Enregistrement de la hauteur d'eau (783,650 mm @ 99,9%)
30/08/2026 08h 09' 19" Enregistrement des paramètres du vent (49.5° @ 0 m/s)
30/08/2026 08h 09' 10" Ping reçu, 798
30/08/2026 08h 09' 01" Ping reçu, 796
30/08/2026 08h 08' 57" Ping reçu,         795
30/08/2026 08h 08' 48" Ping reçu, 793
30/08/2026 08h 08' 44" Ping reçu, 792
30/08/2026 08h 08' 40" Ping reçu, 791
30/08/2026 08h 08' 39" cPing.
30/08/2026 08h 08' 26" Ping reçu, 788
30/08/2026 08h 08' 18" Ping reçu, 786
30/08/2026 08h 08' 11" Ping reçu, 784
30/08/2026 08h 08' 00" Ping reçu, 782
30/08/2026 08h 07' 56" Ping reçu, 781
30/08/2026 08h 07' 55" Enregistrement de la température (17,455 °C)
30/08/2026 08h 07' 48" Ping reçu, 779
30/08/2026 08h 07' 42" cPing.
30/08/2026 08h 07' 40" Ping reçu, 777
30/08/2026 08h 07' 36" Ping reçu, 776
30/08/2026 08h 07' 32" Ping reçu,         775
30/08/2026 08h 07' 27" Ping reçu, 774
30/08/2026 08h 07' 18" Ping reçu, 772
30/08/2026 08h 07' 10" Ping reçu,         770
30/08/2026 08h 07' 02" Ping reçu, 768
30/08/2026 08h 06' 57" Ping reçu, 767
30/08/2026 08h 06' 54" Ping reçu, 766
30/08/2026 08h 06' 50" Ping reçu,         765
30/08/2026 08h 06' 47" cPing.
30/08/2026 08h 06' 38" Ping reçu, 763
30/08/2026 08h 06' 34" Ping reçu, 762
30/08/2026 08h 06' 30" Ping reçu, 761
30/08/2026 08h 06' 27" Ping reçu,         760
30/08/2026 08h 06' 10" Ping reçu, 756
30/08/2026 08h 06' 02" Ping reçu, 754
30/08/2026 08h 05' 57" Ping reçu, 753
30/08/2026 08h 05' 53" Ping reçu, 752
30/08/2026 08h 05' 50" cPing.
30/08/2026 08h 05' 48" Ping reçu, 751
30/08/2026 08h 05' 44" Ping reçu,         750
30/08/2026 08h 05' 40" Ping reçu, 749
30/08/2026 08h 05' 36" Ping reçu, 748
30/08/2026 08h 05' 32" Ping reçu, 747
30/08/2026 08h 05' 25" Ping reçu,         745
30/08/2026 08h 05' 21" Ping reçu, 744
30/08/2026 08h 05' 17" Ping reçu, 743
30/08/2026 08h 05' 08" Ping reçu, 741
30/08/2026 08h 05' 04" Ping reçu,         740
30/08/2026 08h 04' 59" Ping reçu, 739
30/08/2026 08h 04' 54" cPing.
30/08/2026 08h 04' 51" Ping reçu, 737
30/08/2026 08h 04' 48" Ping reçu, 736
30/08/2026 08h 04' 42" Ping reçu,         735
30/08/2026 08h 04' 37" Ping reçu, 734
30/08/2026 08h 04' 33" Ping reçu, 733
30/08/2026 08h 04' 29" Ping reçu, 732
30/08/2026 08h 04' 21" Ping reçu,         730
30/08/2026 08h 04' 13" Ping reçu, 728
30/08/2026 08h 04' 04" Ping reçu, 726
30/08/2026 08h 04' 00" Enregistrement de l'éclairement (345.6 lux & 0 lux )
30/08/2026 08h 04' 00" Ping reçu,         725
30/08/2026 08h 03' 59" cPing.
30/08/2026 08h 03' 56" Ping reçu, 724
30/08/2026 08h 03' 51" Ping reçu, 723
30/08/2026 08h 03' 47" Ping reçu, 722
30/08/2026 08h 03' 43" Ping reçu, 721
30/08/2026 08h 03' 42" Enregistrement de la température (17,337 °C)
30/08/2026 08h 03' 41" Ping reçu,         720
30/08/2026 08h 03' 39" Enregistrement des paramètres du vent (49.5° @ 0 m/s)
30/08/2026 08h 03' 39" Enregistrement de la Pression atmosphérique (1028,085 hPa)
30/08/2026 08h 03' 33" Ping reçu, 719
30/08/2026 08h 03' 29" Ping reçu, 718
30/08/2026 08h 03' 08" Ping reçu, 713
30/08/2026 08h 03' 02" cPing.
30/08/2026 08h 02' 56" Ping reçu,         710
30/08/2026 08h 02' 52" Ping reçu, 709
30/08/2026 08h 02' 48" Ping reçu, 708
30/08/2026 08h 02' 39" Ping reçu, 706
30/08/2026 08h 02' 35" Ping reçu,         705
30/08/2026 08h 02' 26" Ping reçu, 703
30/08/2026 08h 02' 22" Ping reçu, 702
30/08/2026 08h 02' 18" Ping reçu, 701
30/08/2026 08h 02' 07" cPing.
30/08/2026 08h 02' 04" Ping reçu, 698
30/08/2026 08h 02' 00" Ping reçu, 697
30/08/2026 08h 01' 53" Ping reçu,         695
30/08/2026 08h 01' 45" Ping reçu, 693
30/08/2026 08h 01' 40" Enregistrement Température du pluviometre : (20,4 °C)
30/08/2026 08h 01' 40" Enregistrement de l'éclairement (345.6 lux & 0 lux )
30/08/2026 08h 01' 32" Ping reçu, 691
30/08/2026 08h 01' 28" Ping reçu,         690
30/08/2026 08h 01' 24" Ping reçu, 689
30/08/2026 08h 01' 15" Ping reçu, 687
30/08/2026 08h 01' 11" Ping reçu, 686
30/08/2026 08h 01' 10" cPing.
30/08/2026 08h 01' 08" Ping reçu,         685
30/08/2026 08h 01' 04" Ping reçu, 684
30/08/2026 08h 00' 55" Ping reçu, 682
30/08/2026 08h 00' 51" Ping reçu, 681
30/08/2026 08h 00' 47" Ping reçu,         680
30/08/2026 08h 00' 42" Ping reçu, 679
30/08/2026 08h 00' 38" Ping reçu, 678
30/08/2026 08h 00' 34" Ping reçu, 677
30/08/2026 08h 00' 28" On a tout sauvé !
30/08/2026 08h 00' 27" Ping reçu,         675
30/08/2026 08h 00' 21" Ping reçu, 674
30/08/2026 08h 00' 18" Ping reçu, 673
30/08/2026 08h 00' 15" cPing.
30/08/2026 08h 00' 12" Ping reçu, 672
30/08/2026 07h 59' 57" Ping reçu, 669
30/08/2026 07h 59' 45" Ping reçu, 666
30/08/2026 07h 59' 42" Ping reçu,         665
30/08/2026 07h 59' 24" Enregistrement de la température (17,309 °C)
30/08/2026 07h 59' 22" Enregistrement de l'éclairement (345.6 lux & 0 lux )
30/08/2026 07h 59' 21" Ping reçu,         660
30/08/2026 07h 59' 18" cPing.
30/08/2026 07h 59' 16" Ping reçu, 659
30/08/2026 07h 59' 08" Ping reçu, 657
30/08/2026 07h 59' 03" Ping reçu, 656
30/08/2026 07h 58' 59" Ping reçu,         655
30/08/2026 07h 58' 55" Ping reçu, 654
30/08/2026 07h 58' 42" Ping reçu, 651
30/08/2026 07h 58' 40" Ping reçu,         650
30/08/2026 07h 58' 31" Ping reçu, 648
30/08/2026 07h 58' 27" Ping reçu, 647
30/08/2026 07h 58' 22" cPing.
30/08/2026 07h 58' 18" Ping reçu,         645
30/08/2026 07h 58' 14" Ping reçu, 644
30/08/2026 07h 58' 09" Ping reçu, 643
30/08/2026 07h 58' 05" Ping reçu, 642
30/08/2026 07h 58' 00" Ping reçu, 641
30/08/2026 07h 57' 56" Enregistrement de la hauteur d'eau (783,610 mm @ 99,9%)
30/08/2026 07h 57' 56" Pressions pluviométriques (32,07 & 64,00)
30/08/2026 07h 57' 56" Ping reçu,         640
30/08/2026 07h 57' 55" Enregistrement des paramètres du vent (49.5° @ 0 m/s)
30/08/2026 07h 57' 46" Ping reçu, 638
30/08/2026 07h 57' 42" Ping reçu, 637
30/08/2026 07h 57' 38" Ping reçu, 636
30/08/2026 07h 57' 33" Ping reçu,         635
30/08/2026 07h 57' 29" Ping reçu, 634
30/08/2026 07h 57' 25" cPing.
30/08/2026 07h 57' 20" Ping reçu, 632
30/08/2026 07h 57' 16" Ping reçu, 631
30/08/2026 07h 57' 12" Ping reçu,         630
30/08/2026 07h 57' 08" Enregistrement de l'éclairement (345.6 lux & 0 lux )
30/08/2026 07h 57' 05" Ping reçu, 628
30/08/2026 07h 57' 01" Ping reçu, 627
30/08/2026 07h 56' 56" Ping reçu, 626
30/08/2026 07h 56' 52" Ping reçu,         625
30/08/2026 07h 56' 48" Ping reçu, 624
30/08/2026 07h 56' 44" Ping reçu, 623
30/08/2026 07h 56' 39" Ping reçu, 622
30/08/2026 07h 56' 35" Ping reçu, 621
30/08/2026 07h 56' 31" Ping reçu,         620
30/08/2026 07h 56' 30" cPing.
30/08/2026 07h 56' 27" Ping reçu, 619
30/08/2026 07h 56' 24" Ping reçu, 618
30/08/2026 07h 56' 20" Ping reçu, 617
30/08/2026 07h 56' 14" Ping reçu, 616
30/08/2026 07h 56' 12" ERR. Ther. 14 HS.
30/08/2026 07h 56' 12" ERR. Ther. 1 HS.
30/08/2026 07h 56' 11" Ping reçu,         615
30/08/2026 07h 56' 03" Ping reçu, 613
30/08/2026 07h 56' 03" Enregistrement de l'éclairement (345.6 lux & 0 lux )
30/08/2026 07h 55' 59" Ping reçu, 612
30/08/2026 07h 55' 54" Ping reçu, 611
30/08/2026 07h 55' 46" Ping reçu, 609
30/08/2026 07h 55' 42" Ping reçu, 608
30/08/2026 07h 55' 37" Ping reçu, 607
30/08/2026 07h 55' 33" Ping reçu, 606
30/08/2026 07h 55' 33" cPing.
30/08/2026 07h 55' 29" Ping reçu,         605
30/08/2026 07h 55' 22" Ping reçu, 603
30/08/2026 07h 55' 18" Ping reçu, 602
30/08/2026 07h 55' 13" Ping reçu, 601
30/08/2026 07h 55' 04" Ping reçu, 599
30/08/2026 07h 54' 55" Enregistrement de l'éclairement (345.6 lux & 0 lux )
30/08/2026 07h 54' 51" Ping reçu, 596
30/08/2026 07h 54' 42" Ping reçu, 594
30/08/2026 07h 54' 38" Ping reçu, 593
30/08/2026 07h 54' 38" cPing.
30/08/2026 07h 54' 29" Ping reçu, 591
30/08/2026 07h 54' 24" Ping reçu,         590
30/08/2026 07h 54' 16" Ping reçu, 588
30/08/2026 07h 54' 12" Ping reçu, 587
30/08/2026 07h 54' 08" Ping reçu, 586
30/08/2026 07h 54' 05" Ping reçu,         585
30/08/2026 07h 54' 01" Ping reçu, 584
30/08/2026 07h 53' 57" Ping reçu, 583
30/08/2026 07h 53' 53" Ping reçu, 582
30/08/2026 07h 53' 48" Enregistrement de l'éclairement (345.6 lux & 0 lux )
30/08/2026 07h 53' 42" cPing.
30/08/2026 07h 53' 40" Ping reçu, 579
30/08/2026 07h 53' 31" Ping reçu, 577
30/08/2026 07h 53' 24" Ping reçu,         575
30/08/2026 07h 53' 20" Ping reçu, 574
30/08/2026 07h 53' 16" Enregistrement de l'Arduino : (22,0 °C)
30/08/2026 07h 53' 08" Ping reçu, 572
30/08/2026 07h 53' 03" Ping reçu, 571
30/08/2026 07h 52' 55" Ping reçu, 569
30/08/2026 07h 52' 47" Ping reçu, 567
30/08/2026 07h 52' 45" cPing.
30/08/2026 07h 52' 40" Ping reçu,         565
30/08/2026 07h 52' 32" Ping reçu, 563
30/08/2026 07h 52' 27" Ping reçu, 562
30/08/2026 07h 52' 23" Ping reçu, 561
30/08/2026 07h 52' 19" Enregistrement de l'humidité (99,90 %)
30/08/2026 07h 52' 18" Enregistrement des paramètres du vent (49.5° @ 0 m/s)
30/08/2026 07h 52' 14" ERR. Ther. 1 HS.
30/08/2026 07h 52' 14" ERR. Ther. 14 HS.
30/08/2026 07h 52' 14" Ping reçu, 559
30/08/2026 07h 52' 05" Ping reçu, 557
30/08/2026 07h 51' 56" Ping reçu,         555
30/08/2026 07h 51' 52" Ping reçu, 554
30/08/2026 07h 51' 50" cPing.
30/08/2026 07h 51' 48" Ping reçu, 553
30/08/2026 07h 51' 45" Ping reçu, 552
30/08/2026 07h 51' 32" Ping reçu, 549
30/08/2026 07h 51' 28" Ping reçu, 548
30/08/2026 07h 51' 24" Ping reçu, 547
30/08/2026 07h 51' 15" Ping reçu,         545
30/08/2026 07h 50' 57" Ping reçu, 541
30/08/2026 07h 50' 56" Enregistrement de la température (17,190 °C)
30/08/2026 07h 50' 53" cPing.
30/08/2026 07h 50' 53" Ping reçu,         540
30/08/2026 07h 50' 48" Ping reçu, 539
30/08/2026 07h 50' 44" Ping reçu, 538
30/08/2026 07h 50' 36" Ping reçu, 536
30/08/2026 07h 50' 33" Ping reçu,         535
30/08/2026 07h 50' 20" Ping reçu, 532
30/08/2026 07h 50' 16" Ping reçu, 531
30/08/2026 07h 50' 08" Ping reçu, 529
30/08/2026 07h 49' 59" Ping reçu, 527
30/08/2026 07h 49' 58" cPing.
30/08/2026 07h 49' 54" Ping reçu, 526
30/08/2026 07h 49' 50" Ping reçu,         525
30/08/2026 07h 49' 46" Ping reçu, 524
30/08/2026 07h 49' 41" Ping reçu, 523
30/08/2026 07h 49' 37" Ping reçu, 522
30/08/2026 07h 49' 33" Ping reçu, 521
30/08/2026 07h 49' 30" Ping reçu,         520
30/08/2026 07h 49' 26" Enregistrement Température du pluviometre : (20,4 °C)
30/08/2026 07h 49' 23" Ping reçu, 519
30/08/2026 07h 49' 18" Ping reçu, 518
30/08/2026 07h 49' 14" Ping reçu, 517
30/08/2026 07h 49' 14" Enregistrement de l'éclairement (345.6 lux & 0 lux )
30/08/2026 07h 49' 06" Ping reçu,         515
30/08/2026 07h 49' 01" Ping reçu, 514
30/08/2026 07h 49' 01" cPing.
30/08/2026 07h 48' 57" Ping reçu, 513
30/08/2026 07h 48' 54" Ping reçu, 512
30/08/2026 07h 48' 50" Ping reçu, 511
30/08/2026 07h 48' 46" Ping reçu,         510
30/08/2026 07h 48' 42" Ping reçu, 509
30/08/2026 07h 48' 24" Ping reçu,         505
30/08/2026 07h 48' 20" Ping reçu, 504
30/08/2026 07h 48' 17" ERR. Ther. 1 HS.
30/08/2026 07h 48' 17" ERR. Ther. 14 HS.
30/08/2026 07h 48' 07" Enregistrement de l'éclairement (345.6 lux & 0 lux )
30/08/2026 07h 48' 07" Ping reçu, 501
30/08/2026 07h 48' 06" cPing.
30/08/2026 07h 47' 59" Ping reçu, 499
30/08/2026 07h 47' 56" Ping reçu, 498
30/08/2026 07h 47' 52" Ping reçu, 497
30/08/2026 07h 47' 48" Ping reçu, 496
30/08/2026 07h 47' 43" Ping reçu,         495
30/08/2026 07h 47' 39" Ping reçu, 494
30/08/2026 07h 47' 35" Ping reçu, 493
30/08/2026 07h 47' 30" Ping reçu, 492
30/08/2026 07h 47' 26" Ping reçu, 491
30/08/2026 07h 47' 22" Ping reçu,         490
30/08/2026 07h 47' 14" Ping reçu, 488
30/08/2026 07h 47' 09" cPing.
30/08/2026 07h 47' 07" Ping reçu, 486
30/08/2026 07h 47' 02" Enregistrement de l'éclairement (345.6 lux & 0 lux )
30/08/2026 07h 47' 02" Ping reçu,         485
30/08/2026 07h 46' 54" Ping reçu, 483
30/08/2026 07h 46' 50" Ping reçu, 482
30/08/2026 07h 46' 45" Ping reçu, 481
30/08/2026 07h 46' 44" Enregistrement de la température (17,046 °C)
30/08/2026 07h 46' 42" Ping reçu,         480
30/08/2026 07h 46' 42" Pressions pluviométriques (32,07 & 64,00)
30/08/2026 07h 46' 41" Enregistrement de la hauteur d'eau (783,630 mm @ 99,7%)
30/08/2026 07h 46' 41" Enregistrement des paramètres du vent (49.5° @ 0 m/s)
30/08/2026 07h 46' 35" Ping reçu, 479
30/08/2026 07h 46' 31" Ping reçu, 478
30/08/2026 07h 46' 27" Ping reçu, 477
30/08/2026 07h 46' 18" Ping reçu,         475
30/08/2026 07h 46' 14" cPing.
30/08/2026 07h 46' 09" Ping reçu, 473
30/08/2026 07h 46' 01" Ping reçu, 471
30/08/2026 07h 45' 57" Ping reçu,         470
30/08/2026 07h 45' 53" Ping reçu, 469
30/08/2026 07h 45' 30" Ping reçu, 464
30/08/2026 07h 45' 27" Ping reçu, 463
30/08/2026 07h 45' 21" Ping reçu, 462
30/08/2026 07h 45' 17" Ping reçu, 461
30/08/2026 07h 45' 17" cPing.
30/08/2026 07h 45' 14" Ping reçu,         460
30/08/2026 07h 45' 11" Ping reçu, 459
30/08/2026 07h 45' 06" Ping reçu, 458
30/08/2026 07h 44' 53" Ping reçu,         455
30/08/2026 07h 44' 45" Ping reçu, 453
30/08/2026 07h 44' 42" Ping reçu, 452
30/08/2026 07h 44' 38" Ping reçu, 451
30/08/2026 07h 44' 34" Ping reçu,         450
30/08/2026 07h 44' 30" Ping reçu, 449
30/08/2026 07h 44' 26" Ping reçu, 448
30/08/2026 07h 44' 21" cPing.
30/08/2026 07h 44' 21" ERR. Ther. 1 HS.
30/08/2026 07h 44' 21" ERR. Ther. 14 HS.
30/08/2026 07h 44' 08" Ping reçu, 444
30/08/2026 07h 44' 03" Ping reçu, 443
30/08/2026 07h 43' 59" Ping reçu, 442
30/08/2026 07h 43' 46" Ping reçu, 439
30/08/2026 07h 43' 42" Ping reçu, 438
30/08/2026 07h 43' 38" Ping reçu, 437
30/08/2026 07h 43' 37" Enregistrement de l'éclairement (345.6 lux & 0 lux )
30/08/2026 07h 43' 31" Ping reçu,         435
30/08/2026 07h 43' 26" cPing.
30/08/2026 07h 43' 09" Ping reçu,         430
30/08/2026 07h 43' 00" Ping reçu, 428
30/08/2026 07h 42' 56" Ping reçu, 427
30/08/2026 07h 42' 52" Ping reçu, 426
30/08/2026 07h 42' 48" Ping reçu,         425
30/08/2026 07h 42' 45" Ping reçu, 424
30/08/2026 07h 42' 41" Ping reçu, 423
30/08/2026 07h 42' 33" Ping reçu, 421
30/08/2026 07h 42' 30" Enregistrement de l'éclairement (345.6 lux & 0 lux )
30/08/2026 07h 42' 29" Enregistrement de l'humidité (99,90 %)
30/08/2026 07h 42' 29" cPing.
30/08/2026 07h 42' 28" Ping reçu,         420
30/08/2026 07h 42' 23" Ping reçu, 419
30/08/2026 07h 42' 20" Ping reçu, 418
30/08/2026 07h 42' 06" Ping reçu,         415
30/08/2026 07h 41' 57" Ping reçu, 413
30/08/2026 07h 41' 49" Ping reçu, 411
30/08/2026 07h 41' 45" Ping reçu,         410
30/08/2026 07h 41' 42" Ping reçu, 409
30/08/2026 07h 41' 32" Ping reçu, 407
30/08/2026 07h 41' 32" cPing.
30/08/2026 07h 41' 21" Ping reçu, 404
30/08/2026 07h 41' 17" Ping reçu, 403
30/08/2026 07h 41' 12" Ping reçu, 402
30/08/2026 07h 41' 08" Ping reçu, 401
30/08/2026 07h 40' 59" Ping reçu, 399
30/08/2026 07h 40' 50" Ping reçu, 397
30/08/2026 07h 40' 45" Ping reçu, 396
30/08/2026 07h 40' 36" Ping reçu, 394
30/08/2026 07h 40' 36" cPing.
30/08/2026 07h 40' 28" Ping reçu, 392
30/08/2026 07h 40' 26" ERR. Ther. 14 HS.
30/08/2026 07h 40' 26" ERR. Ther. 7 HS.
30/08/2026 07h 40' 24" ERR. Ther. 1 HS.
30/08/2026 07h 40' 23" Ping reçu, 391
30/08/2026 07h 40' 19" Ping reçu,         390
30/08/2026 07h 40' 15" Ping reçu, 389
30/08/2026 07h 40' 14" Enregistrement de l'éclairement (345.6 lux & 0 lux )
30/08/2026 07h 40' 03" Ping reçu, 386
30/08/2026 07h 39' 59" Ping reçu,         385
30/08/2026 07h 39' 55" Ping reçu, 384
30/08/2026 07h 39' 46" Enregistrement de l'Arduino : (22,0 °C)
30/08/2026 07h 39' 43" Ping reçu, 382
30/08/2026 07h 39' 41" cPing.
30/08/2026 07h 39' 39" Ping reçu, 381
30/08/2026 07h 39' 35" Ping reçu,         380
30/08/2026 07h 39' 28" Ping reçu, 378
30/08/2026 07h 39' 24" Ping reçu, 377
30/08/2026 07h 39' 15" Ping reçu,         375
30/08/2026 07h 39' 11" Ping reçu, 374
30/08/2026 07h 39' 06" Enregistrement de l'éclairement (345.6 lux & 0 lux )
30/08/2026 07h 39' 02" Ping reçu, 372
30/08/2026 07h 38' 58" Ping reçu, 371
30/08/2026 07h 38' 54" Ping reçu,         370
30/08/2026 07h 38' 51" Ping reçu, 369
30/08/2026 07h 38' 47" Ping reçu, 368
30/08/2026 07h 38' 44" cPing.
30/08/2026 07h 38' 43" Ping reçu, 367
30/08/2026 07h 38' 35" Ping reçu,         365
30/08/2026 07h 38' 26" Ping reçu, 363
30/08/2026 07h 38' 22" Ping reçu, 362
30/08/2026 07h 38' 20" Enregistrement de la température (16,986 °C)
30/08/2026 07h 38' 17" Enregistrement de la Pression atmosphérique (1028,168 hPa)
30/08/2026 07h 38' 15" Ping reçu,         360
30/08/2026 07h 38' 04" Ping reçu, 358
30/08/2026 07h 38' 00" Ping reçu, 357
30/08/2026 07h 37' 56" Ping reçu, 356
30/08/2026 07h 37' 53" Ping reçu,         355
30/08/2026 07h 37' 49" cPing.
30/08/2026 07h 37' 45" Ping reçu, 353
30/08/2026 07h 37' 31" Ping reçu,         350
30/08/2026 07h 37' 27" Ping reçu, 349
30/08/2026 07h 37' 23" Ping reçu, 348
30/08/2026 07h 37' 18" Ping reçu, 347
30/08/2026 07h 37' 15" Enregistrement Température du pluviometre : (20,4 °C)
30/08/2026 07h 37' 10" Ping reçu, 346
30/08/2026 07h 37' 06" Ping reçu,         345
30/08/2026 07h 36' 59" Ping reçu, 343
30/08/2026 07h 36' 55" Ping reçu, 342
30/08/2026 07h 36' 52" cPing.
30/08/2026 07h 36' 51" Ping reçu, 341
30/08/2026 07h 36' 47" Enregistrement de l'éclairement (345.6 lux & 0 lux )
30/08/2026 07h 36' 47" Ping reçu,         340
30/08/2026 07h 36' 38" Ping reçu, 338
30/08/2026 07h 36' 33" Ping reçu, 337
30/08/2026 07h 36' 29" Ping reçu, 336
30/08/2026 07h 36' 27" ERR. Ther. 14 HS.
30/08/2026 07h 36' 24" Ping reçu,         335
30/08/2026 07h 36' 07" Ping reçu, 331
30/08/2026 07h 36' 03" Ping reçu,         330
30/08/2026 07h 35' 59" Ping reçu, 329
30/08/2026 07h 35' 57" cPing.
30/08/2026 07h 35' 44" Ping reçu,         325
30/08/2026 07h 35' 40" Enregistrement de l'éclairement (345.6 lux & 0 lux )
30/08/2026 07h 35' 39" Ping reçu, 324
30/08/2026 07h 35' 35" Ping reçu, 323
30/08/2026 07h 35' 31" Ping reçu, 322
30/08/2026 07h 35' 24" Pressions pluviométriques (32,07 & 64,00)
30/08/2026 07h 35' 22" Ping reçu,         320
30/08/2026 07h 35' 21" Enregistrement des paramètres du vent (49.5° @ 0 m/s)
30/08/2026 07h 35' 17" Ping reçu, 319
30/08/2026 07h 35' 13" Ping reçu, 318
30/08/2026 07h 35' 04" Ping reçu, 316
30/08/2026 07h 35' 00" Ping reçu,         315
30/08/2026 07h 35' 00" cPing.
30/08/2026 07h 34' 53" Ping reçu, 313
30/08/2026 07h 34' 49" Ping reçu, 312
30/08/2026 07h 34' 45" Ping reçu, 311
30/08/2026 07h 34' 41" Ping reçu,         310
30/08/2026 07h 34' 32" Ping reçu, 308
30/08/2026 07h 34' 28" Ping reçu, 307
30/08/2026 07h 34' 23" Ping reçu, 306
30/08/2026 07h 34' 19" Ping reçu,         305
30/08/2026 07h 34' 09" Ping reçu, 303
30/08/2026 07h 34' 05" Ping reçu, 302
30/08/2026 07h 34' 05" cPing.
30/08/2026 07h 33' 52" Ping reçu, 299
30/08/2026 07h 33' 45" Ping reçu, 297
30/08/2026 07h 33' 37" Rw SD-card.
30/08/2026 07h 33' 19" Ping reçu, 291
30/08/2026 07h 33' 15" Ping reçu,         290
30/08/2026 07h 33' 11" Ping reçu, 289
30/08/2026 07h 33' 09" cPing.
30/08/2026 07h 33' 02" Ping reçu, 287
30/08/2026 07h 32' 57" Ping reçu, 286
30/08/2026 07h 32' 49" Ping reçu, 284
30/08/2026 07h 32' 36" Ping reçu, 281
30/08/2026 07h 32' 34" Enregistrement de l'humidité (99,90 %)
30/08/2026 07h 32' 30" ERR. Ther. 14 HS.
30/08/2026 07h 32' 24" Ping reçu, 278
30/08/2026 07h 32' 20" Ping reçu, 277
30/08/2026 07h 32' 12" cPing.
30/08/2026 07h 32' 12" Ping reçu,         275
30/08/2026 07h 32' 08" Ping reçu, 274
30/08/2026 07h 32' 03" Ping reçu, 273
30/08/2026 07h 31' 59" Ping reçu, 272
30/08/2026 07h 31' 54" Ping reçu, 271
30/08/2026 07h 31' 50" Ping reçu,         270
30/08/2026 07h 31' 42" Ping reçu, 268
30/08/2026 07h 31' 38" Ping reçu, 267
30/08/2026 07h 31' 30" Ping reçu,         265
30/08/2026 07h 31' 17" cPing.
30/08/2026 07h 31' 11" Ping reçu, 261
30/08/2026 07h 31' 11" On a tout sauvé !
30/08/2026 07h 31' 06" Ping reçu,         260
30/08/2026 07h 30' 59" Ping reçu, 258
30/08/2026 07h 30' 41" Ping reçu, 254
30/08/2026 07h 30' 37" Ping reçu, 253
30/08/2026 07h 30' 33" Ping reçu, 252
30/08/2026 07h 30' 20" cPing.
30/08/2026 07h 30' 15" Ping reçu, 248
30/08/2026 07h 30' 11" Ping reçu, 247
30/08/2026 07h 30' 07" Ping reçu, 246
30/08/2026 07h 30' 03" Ping reçu,         245
30/08/2026 07h 30' 02" Enregistrement de l'éclairement (345.6 lux & 0 lux )
30/08/2026 07h 30' 00" Ping reçu, 244
30/08/2026 07h 29' 52" Ping reçu, 242
30/08/2026 07h 29' 48" Ping reçu, 241
30/08/2026 07h 29' 47" Enregistrement de la température (16,977 °C)
30/08/2026 07h 29' 44" Ping reçu,         240
30/08/2026 07h 29' 44" Enregistrement des paramètres du vent (49.3° @ 0 m/s)
30/08/2026 07h 29' 44" Enregistrement de la Pression atmosphérique (1028,175 hPa)
30/08/2026 07h 29' 39" Ping reçu, 239
30/08/2026 07h 29' 26" Ping reçu, 236
30/08/2026 07h 29' 25" cPing.
30/08/2026 07h 29' 21" Ping reçu,         235
30/08/2026 07h 29' 17" Ping reçu, 234
30/08/2026 07h 29' 13" Ping reçu, 233
30/08/2026 07h 29' 09" Ping reçu, 232
30/08/2026 07h 28' 56" Ping reçu, 229
30/08/2026 07h 28' 54" Enregistrement de l'éclairement (345.6 lux & 0 lux )
30/08/2026 07h 28' 53" Ping reçu, 228
30/08/2026 07h 28' 49" Ping reçu, 227
30/08/2026 07h 28' 41" Ping reçu,         225
30/08/2026 07h 28' 36" Ping reçu, 224
30/08/2026 07h 28' 32" ERR. Ther. 14 HS.
30/08/2026 07h 28' 28" cPing.
30/08/2026 07h 28' 23" Ping reçu, 221
30/08/2026 07h 28' 14" Ping reçu, 219
30/08/2026 07h 28' 09" Ping reçu, 218
30/08/2026 07h 28' 05" Ping reçu, 217
30/08/2026 07h 27' 52" Ping reçu, 214
30/08/2026 07h 27' 41" Ping reçu, 211
30/08/2026 07h 27' 35" Ping reçu,         210
30/08/2026 07h 27' 33" Ping reçu, 209
30/08/2026 07h 27' 33" cPing.
30/08/2026 07h 27' 19" Ping reçu, 206
30/08/2026 07h 27' 15" Ping reçu,         205
30/08/2026 07h 27' 11" Ping reçu, 204
30/08/2026 07h 27' 07" Ping reçu, 203
30/08/2026 07h 27' 02" Ping reçu, 202
30/08/2026 07h 26' 58" Ping reçu, 201
30/08/2026 07h 26' 56" Ping reçu,         200
30/08/2026 07h 26' 50" Ping reçu, 199
30/08/2026 07h 26' 47" Ping reçu, 198
30/08/2026 07h 26' 43" Ping reçu, 197
30/08/2026 07h 26' 42" Enregistrement de l'éclairement (345.6 lux & 0 lux )
30/08/2026 07h 26' 39" Ping reçu, 196
30/08/2026 07h 26' 35" cPing.
30/08/2026 07h 26' 35" Ping reçu,         195
30/08/2026 07h 26' 30" Ping reçu, 194
30/08/2026 07h 26' 22" Ping reçu, 192
30/08/2026 07h 26' 14" Ping reçu, 191
30/08/2026 07h 26' 12" Ping reçu,         190
30/08/2026 07h 26' 07" Ping reçu, 189
30/08/2026 07h 25' 59" Ping reçu, 187
30/08/2026 07h 25' 46" Ping reçu, 184
30/08/2026 07h 25' 42" Ping reçu, 183
30/08/2026 07h 25' 40" cPing.
30/08/2026 07h 25' 32" Enregistrement de la température (16,936 °C)
30/08/2026 07h 25' 31" Enregistrement de l'éclairement (345.6 lux & 0 lux )
30/08/2026 07h 25' 29" Ping reçu,         180
30/08/2026 07h 25' 26" Ping reçu, 179
30/08/2026 07h 25' 21" Ping reçu, 178
30/08/2026 07h 25' 06" Ping reçu,         175
30/08/2026 07h 25' 03" Ping reçu, 174
30/08/2026 07h 24' 57" Enregistrement Température du pluviometre : (20,4 °C)
30/08/2026 07h 24' 56" Ping reçu, 173
30/08/2026 07h 24' 51" Ping reçu, 172
30/08/2026 07h 24' 47" Ping reçu, 171
30/08/2026 07h 24' 43" cPing.
30/08/2026 07h 24' 32" ERR. Ther. 14 HS.
30/08/2026 07h 24' 29" Ping reçu, 167
30/08/2026 07h 24' 25" Ping reçu, 166
30/08/2026 07h 24' 21" Ping reçu,         165
30/08/2026 07h 24' 20" Enregistrement de l'éclairement (345.6 lux & 0 lux )
30/08/2026 07h 24' 17" Ping reçu, 164
30/08/2026 07h 24' 14" Ping reçu, 163
30/08/2026 07h 24' 10" Ping reçu, 162
30/08/2026 07h 24' 06" Ping reçu, 161
30/08/2026 07h 24' 02" Pressions pluviométriques (32,07 & 64,00)
30/08/2026 07h 24' 02" Enregistrement de la hauteur d'eau (783,520 mm @ 99,9%)
30/08/2026 07h 24' 01" Ping reçu,         160
30/08/2026 07h 23' 50" Ping reçu, 158
30/08/2026 07h 23' 48" cPing.
30/08/2026 07h 23' 47" Ping reçu, 157
30/08/2026 07h 23' 43" Ping reçu, 156
30/08/2026 07h 23' 39" Ping reçu,         155
30/08/2026 07h 23' 35" Ping reçu, 154
30/08/2026 07h 23' 30" Ping reçu, 153
30/08/2026 07h 23' 26" Ping reçu, 152
30/08/2026 07h 23' 17" Ping reçu,         150
30/08/2026 07h 23' 13" Enregistrement de l'éclairement (345.6 lux & 0 lux )
30/08/2026 07h 23' 13" Ping reçu, 149
30/08/2026 07h 23' 04" Ping reçu, 147
30/08/2026 07h 22' 57" Ping reçu,         145
30/08/2026 07h 22' 51" cPing.
30/08/2026 07h 22' 49" Ping reçu, 143
30/08/2026 07h 22' 36" Enregistrement de l'humidité (99,90 %)
30/08/2026 07h 22' 36" Ping reçu,         140
30/08/2026 07h 22' 31" Ping reçu, 139
30/08/2026 07h 22' 14" Ping reçu,         135
30/08/2026 07h 22' 09" Ping reçu, 134
30/08/2026 07h 22' 05" Enregistrement de l'éclairement (345.6 lux & 0 lux )
30/08/2026 07h 22' 01" Ping reçu, 132
30/08/2026 07h 21' 57" Ping reçu, 131
30/08/2026 07h 21' 56" cPing.
30/08/2026 07h 21' 54" Ping reçu,         130
30/08/2026 07h 21' 48" Ping reçu, 129
30/08/2026 07h 21' 41" Ping reçu, 127
30/08/2026 07h 21' 33" Ping reçu,         125
30/08/2026 07h 21' 24" Ping reçu, 123
30/08/2026 07h 21' 20" Ping reçu, 122
30/08/2026 07h 21' 14" Enregistrement de la température (16,922 °C)
30/08/2026 07h 21' 06" Ping reçu, 119
30/08/2026 07h 21' 02" Ping reçu, 118
30/08/2026 07h 20' 59" cPing.
30/08/2026 07h 20' 56" Enregistrement de l'éclairement (345.6 lux & 0 lux )
30/08/2026 07h 20' 53" Ping reçu, 116
30/08/2026 07h 20' 44" Ping reçu, 114
30/08/2026 07h 20' 40" Ping reçu, 113
30/08/2026 07h 20' 36" Ping reçu, 112
30/08/2026 07h 20' 34" ERR. Ther. 14 HS.
30/08/2026 07h 20' 24" Ping reçu, 109
30/08/2026 07h 20' 15" Ping reçu, 107
30/08/2026 07h 20' 03" cPing.
30/08/2026 07h 19' 54" Ping reçu, 102
30/08/2026 07h 19' 45" Ping reçu,         100
30/08/2026 07h 19' 41" Ping reçu, 99
30/08/2026 07h 19' 33" Ping reçu, 97
30/08/2026 07h 19' 30" Ping reçu, 96
30/08/2026 07h 19' 21" Ping reçu, 94
30/08/2026 07h 19' 17" Ping reçu, 93
30/08/2026 07h 19' 13" Ping reçu, 92
30/08/2026 07h 19' 09" Ping reçu, 91
30/08/2026 07h 19' 08" cPing.
30/08/2026 07h 19' 00" Ping reçu, 89
30/08/2026 07h 18' 56" Ping reçu, 88
30/08/2026 07h 18' 52" Ping reçu, 87
30/08/2026 07h 18' 48" Ping reçu, 86
30/08/2026 07h 18' 42" Enregistrement de l'éclairement (345.6 lux & 0 lux )
30/08/2026 07h 18' 41" Ping reçu, 84
30/08/2026 07h 18' 32" Ping reçu, 82
30/08/2026 07h 18' 19" Ping reçu, 79
30/08/2026 07h 18' 11" cPing.
30/08/2026 07h 18' 10" Ping reçu, 77
30/08/2026 07h 18' 06" Ping reçu, 76
30/08/2026 07h 18' 02" Ping reçu,         75
30/08/2026 07h 17' 44" Ping reçu, 71
30/08/2026 07h 17' 40" Ping reçu,         70
30/08/2026 07h 17' 36" Ping reçu, 69
30/08/2026 07h 17' 27" Ping reçu, 67
30/08/2026 07h 17' 24" Ping reçu, 66
30/08/2026 07h 17' 20" Ping reçu,         65
30/08/2026 07h 17' 17" Ping reçu, 64
30/08/2026 07h 17' 16" cPing.
30/08/2026 07h 17' 07" Ping reçu, 62
30/08/2026 07h 17' 00" Enregistrement de la température (16,901 °C)
30/08/2026 07h 16' 49" Ping reçu, 58
30/08/2026 07h 16' 45" Ping reçu, 57
30/08/2026 07h 16' 37" ERR. Ther. 14 HS.
30/08/2026 07h 16' 36" On a tout sauvé !
30/08/2026 07h 16' 36" Ping reçu,         55
30/08/2026 07h 16' 31" Ping reçu, 54
30/08/2026 07h 16' 27" Ping reçu, 53
30/08/2026 07h 16' 24" Enregistrement de l'éclairement (345.6 lux & 0 lux )
30/08/2026 07h 16' 23" Ping reçu, 52
30/08/2026 07h 16' 19" cPing.
30/08/2026 07h 16' 18" Ping reçu, 51
30/08/2026 07h 16' 09" Ping reçu, 49
30/08/2026 07h 15' 57" Ping reçu, 46
30/08/2026 07h 15' 50" Ping reçu, 44
30/08/2026 07h 15' 37" Ping reçu, 41
30/08/2026 07h 15' 33" Ping reçu,         40
30/08/2026 07h 15' 24" Ping reçu, 38
30/08/2026 07h 15' 24" cPing.
30/08/2026 07h 15' 20" Ping reçu, 37
30/08/2026 07h 15' 19" Enregistrement de l'éclairement (345.6 lux & 0 lux )
30/08/2026 07h 15' 16" Ping reçu, 36
30/08/2026 07h 15' 03" Ping reçu, 33
30/08/2026 07h 14' 39" Ping reçu, 27
30/08/2026 07h 14' 35" Ping reçu, 26
30/08/2026 07h 14' 30" Ping reçu,         25
30/08/2026 07h 14' 27" cPing.
30/08/2026 07h 14' 26" Ping reçu, 24
30/08/2026 07h 14' 22" Ping reçu, 23
30/08/2026 07h 14' 17" Ping reçu, 22
30/08/2026 07h 14' 13" Ping reçu, 21
30/08/2026 07h 14' 06" Ping reçu, 19
30/08/2026 07h 14' 02" Ping reçu, 18
30/08/2026 07h 13' 53" Ping reçu, 16
30/08/2026 07h 13' 44" Ping reçu, 14
30/08/2026 07h 13' 40" Ping reçu, 13
30/08/2026 07h 13' 36" Ping reçu, 12
30/08/2026 07h 13' 32" cPing.
30/08/2026 07h 13' 31" Ping reçu, 11
30/08/2026 07h 13' 27" Ping reçu,         10
30/08/2026 07h 13' 23" Ping reçu, 9
30/08/2026 07h 13' 18" Ping reçu, 8
30/08/2026 07h 13' 14" Ping reçu, 7
30/08/2026 07h 13' 10" Ping reçu, 6
30/08/2026 07h 13' 01" Ping reçu, 3
30/08/2026 07h 12' 57" Ping reçu, 2
30/08/2026 07h 12' 56" Enregistrement de l'éclairement (345.6 lux & 0 lux )
30/08/2026 07h 12' 46" Enregistrement de l'Arduino : (22,0 °C)
30/08/2026 07h 12' 44" End Cycle en 4.2914 s par tour (moy).
30/08/2026 07h 12' 38" Ping reçu,         3360
30/08/2026 07h 12' 37" Enregistrement de la Pression atmosphérique (1028,086 hPa)
30/08/2026 07h 12' 35" cPing.
30/08/2026 07h 12' 33" ERR. Ther. 1 HS.
30/08/2026 07h 12' 33" ERR. Ther. 14 HS.
30/08/2026 07h 12' 30" Ping reçu, 3359
30/08/2026 07h 12' 26" Ping reçu, 3358
30/08/2026 07h 12' 17" Ping reçu, 3356
30/08/2026 07h 12' 14" Ping reçu,         3355
30/08/2026 07h 12' 10" Ping reçu, 3354
30/08/2026 07h 12' 06" Ping reçu, 3353
30/08/2026 07h 12' 02" Ping reçu, 3352
30/08/2026 07h 11' 57" Ping reçu, 3351
30/08/2026 07h 11' 53" Ping reçu,         3350
30/08/2026 07h 11' 49" Ping reçu, 3349
30/08/2026 07h 11' 48" Enregistrement de l'éclairement (345.6 lux & 0 lux )
30/08/2026 07h 11' 44" Ping reçu, 3348
30/08/2026 07h 11' 39" cPing.
30/08/2026 07h 11' 36" Ping reçu, 3346
30/08/2026 07h 11' 32" Ping reçu,         3345
30/08/2026 07h 11' 29" Ping reçu, 3344
30/08/2026 07h 11' 21" Ping reçu, 3342
30/08/2026 07h 11' 17" Ping reçu, 3341
30/08/2026 07h 11' 12" Ping reçu,         3340
30/08/2026 07h 10' 54" Ping reçu, 3336
30/08/2026 07h 10' 50" Ping reçu,         3335
30/08/2026 07h 10' 42" Ping reçu, 3333
30/08/2026 07h 10' 42" cPing.
30/08/2026 07h 10' 38" Ping reçu, 3332
30/08/2026 07h 10' 35" Ping reçu, 3331
30/08/2026 07h 10' 29" Ping reçu,         3330
30/08/2026 07h 10' 22" Ping reçu, 3328
30/08/2026 07h 10' 13" Ping reçu, 3326
30/08/2026 07h 10' 05" Ping reçu, 3324
30/08/2026 07h 10' 00" Ping reçu, 3323
30/08/2026 07h 09' 56" Ping reçu, 3322
30/08/2026 07h 09' 52" Ping reçu, 3321
30/08/2026 07h 09' 48" Ping reçu,         3320
30/08/2026 07h 09' 47" cPing.
30/08/2026 07h 09' 44" Ping reçu, 3319
30/08/2026 07h 09' 41" Ping reçu, 3318
30/08/2026 07h 09' 37" Ping reçu, 3317
30/08/2026 07h 09' 33" Enregistrement de l'éclairement (345.6 lux & 0 lux )
30/08/2026 07h 09' 33" Ping reçu, 3316
30/08/2026 07h 09' 29" Ping reçu,         3315
30/08/2026 07h 09' 24" Ping reçu, 3314
30/08/2026 07h 09' 20" Ping reçu, 3313
30/08/2026 07h 09' 11" Ping reçu, 3311
30/08/2026 07h 09' 06" Ping reçu,         3310
30/08/2026 07h 08' 54" Ping reçu, 3307
30/08/2026 07h 08' 50" Ping reçu, 3306
30/08/2026 07h 08' 50" cPing.
30/08/2026 07h 08' 47" Ping reçu,         3305
30/08/2026 07h 08' 41" Ping reçu, 3304
30/08/2026 07h 08' 39" ERR. Ther. 14 HS.
30/08/2026 07h 08' 38" Ping reçu, 3303
30/08/2026 07h 08' 34" Ping reçu, 3302
30/08/2026 07h 08' 27" Enregistrement de la température (16,932 °C)
30/08/2026 07h 08' 25" Ping reçu,         3300
30/08/2026 07h 08' 21" Ping reçu, 3299
30/08/2026 07h 08' 16" Ping reçu, 3298
30/08/2026 07h 08' 12" Ping reçu, 3297
30/08/2026 07h 07' 58" Ping reçu, 3294
30/08/2026 07h 07' 54" cPing.
30/08/2026 07h 07' 54" Ping reçu, 3293
30/08/2026 07h 07' 45" Ping reçu, 3291
30/08/2026 07h 07' 36" Ping reçu, 3289
30/08/2026 07h 07' 32" Ping reçu, 3288
30/08/2026 07h 07' 21" Ping reçu, 3286
30/08/2026 07h 07' 17" Ping reçu,         3285
30/08/2026 07h 07' 13" Ping reçu, 3284
30/08/2026 07h 07' 09" Ping reçu, 3283
30/08/2026 07h 07' 00" Ping reçu, 3281
30/08/2026 07h 06' 59" cPing.
30/08/2026 07h 06' 56" Ping reçu,         3280
30/08/2026 07h 06' 51" Ping reçu, 3279
30/08/2026 07h 06' 47" Ping reçu, 3278
30/08/2026 07h 06' 42" Ping reçu, 3277
30/08/2026 07h 06' 29" Ping reçu, 3274
30/08/2026 07h 06' 25" Ping reçu, 3273
30/08/2026 07h 06' 18" Ping reçu, 3271
30/08/2026 07h 06' 10" Ping reçu, 3269
30/08/2026 07h 06' 02" cPing.
30/08/2026 07h 06' 01" Ping reçu, 3267
30/08/2026 07h 05' 57" Ping reçu, 3266
30/08/2026 07h 05' 48" Ping reçu, 3264
30/08/2026 07h 05' 44" Ping reçu, 3263
30/08/2026 07h 05' 39" Ping reçu, 3262
30/08/2026 07h 05' 35" Ping reçu, 3261
30/08/2026 07h 05' 31" Ping reçu,         3260
30/08/2026 07h 05' 22" Ping reçu, 3258
30/08/2026 07h 05' 15" Ping reçu, 3256
30/08/2026 07h 05' 07" Ping reçu, 3254
30/08/2026 07h 05' 07" cPing.
30/08/2026 07h 04' 59" Enregistrement de l'éclairement (345.6 lux & 0 lux )
30/08/2026 07h 04' 58" Ping reçu, 3252
30/08/2026 07h 04' 54" Ping reçu, 3251
30/08/2026 07h 04' 45" Ping reçu, 3249
30/08/2026 07h 04' 41" Ping reçu, 3248
30/08/2026 07h 04' 38" ERR. Ther. 14 HS.
30/08/2026 07h 04' 37" Enregistrement de l'Arduino : (22,0 °C)
30/08/2026 07h 04' 24" Ping reçu,         3245
30/08/2026 07h 04' 21" Ping reçu, 3244
30/08/2026 07h 04' 13" Ping reçu, 3242
30/08/2026 07h 04' 10" cPing.
30/08/2026 07h 04' 08" Ping reçu, 3241
30/08/2026 07h 03' 57" Ping reçu, 3239
30/08/2026 07h 03' 54" Ping reçu, 3238
30/08/2026 07h 03' 50" Ping reçu, 3237
30/08/2026 07h 03' 47" Enregistrement de l'éclairement (345.6 lux & 0 lux )
30/08/2026 07h 03' 46" Ping reçu, 3236
30/08/2026 07h 03' 29" Ping reçu, 3232
30/08/2026 07h 03' 24" Ping reçu, 3231
30/08/2026 07h 03' 20" Ping reçu,         3230
30/08/2026 07h 03' 15" cPing.
30/08/2026 07h 03' 12" Ping reçu, 3228
30/08/2026 07h 03' 09" Ping reçu, 3227
30/08/2026 07h 03' 05" Ping reçu, 3226
30/08/2026 07h 02' 59" Ping reçu,         3225
30/08/2026 07h 02' 52" Ping reçu, 3223
30/08/2026 07h 02' 44" Ping reçu, 3221
30/08/2026 07h 02' 39" Enregistrement de l'humidité (99,90 %)
30/08/2026 07h 02' 35" Ping reçu, 3219
30/08/2026 07h 02' 30" Ping reçu, 3218
30/08/2026 07h 02' 26" Ping reçu, 3217
30/08/2026 07h 02' 18" cPing.
30/08/2026 07h 02' 17" Ping reçu,         3215
30/08/2026 07h 02' 08" Ping reçu, 3213
30/08/2026 07h 02' 04" Ping reçu, 3212
30/08/2026 07h 02' 00" Ping reçu, 3211
30/08/2026 07h 02' 00" On a tout sauvé !
30/08/2026 07h 01' 55" Ping reçu,         3210
30/08/2026 07h 01' 44" Ping reçu, 3207
30/08/2026 07h 01' 40" Ping reçu, 3206
30/08/2026 07h 01' 32" Enregistrement de l'éclairement (345.6 lux & 0 lux )
30/08/2026 07h 01' 32" Ping reçu, 3204
30/08/2026 07h 01' 27" Ping reçu, 3203
30/08/2026 07h 01' 23" cPing.
30/08/2026 07h 01' 18" Ping reçu, 3201
30/08/2026 07h 01' 15" Pressions pluviométriques (32,07 & 63,79)
30/08/2026 07h 01' 14" Ping reçu,         3200
30/08/2026 07h 01' 09" Ping reçu, 3199
30/08/2026 07h 01' 00" Ping reçu, 3197
30/08/2026 07h 00' 56" Ping reçu, 3196
30/08/2026 07h 00' 52" Ping reçu,         3195
30/08/2026 07h 00' 48" Ping reçu, 3194
30/08/2026 07h 00' 47" On purge les valeurs du crystal...
30/08/2026 07h 00' 37" ERR. Ther. 14 HS.
30/08/2026 07h 00' 35" ERR. Ther. 1 HS.
30/08/2026 07h 00' 29" Ping reçu,         3190
30/08/2026 07h 00' 27" cPing.
30/08/2026 07h 00' 25" Ping reçu, 3189
30/08/2026 07h 00' 24" Enregistrement de l'éclairement (345.6 lux & 0 lux )
30/08/2026 07h 00' 24" On purge les valeurs du crystal...
30/08/2026 07h 00' 21" Ping reçu, 3188
30/08/2026 07h 00' 17" Ping reçu, 3187
30/08/2026 07h 00' 15" On purge les valeurs du crystal...
30/08/2026 07h 00' 10" Ping reçu,         3185
30/08/2026 07h 00' 01" Ping reçu, 3183
30/08/2026 06h 59' 56" Ping reçu, 3182
30/08/2026 06h 59' 52" Ping reçu, 3181
30/08/2026 06h 59' 48" Ping reçu,         3180
30/08/2026 06h 59' 39" Ping reçu, 3178
30/08/2026 06h 59' 35" Ping reçu, 3177
30/08/2026 06h 59' 30" Ping reçu, 3176
30/08/2026 06h 59' 30" cPing.
30/08/2026 06h 59' 26" Ping reçu,         3175
30/08/2026 06h 59' 14" Ping reçu, 3172
30/08/2026 06h 59' 11" Ping reçu, 3171
30/08/2026 06h 59' 07" Ping reçu,         3170
30/08/2026 06h 59' 03" Ping reçu, 3169
30/08/2026 06h 58' 59" Ping reçu, 3168
30/08/2026 06h 58' 54" Ping reçu, 3167
30/08/2026 06h 58' 50" Ping reçu, 3166
30/08/2026 06h 58' 41" Ping reçu, 3164
30/08/2026 06h 58' 37" Ping reçu, 3163
30/08/2026 06h 58' 35" cPing.
30/08/2026 06h 58' 32" Ping reçu, 3162
30/08/2026 06h 58' 28" Ping reçu, 3161
30/08/2026 06h 58' 24" Ping reçu,         3160
30/08/2026 06h 58' 21" Ping reçu, 3159
30/08/2026 06h 58' 13" Ping reçu, 3157
30/08/2026 06h 57' 56" Ping reçu, 3153
30/08/2026 06h 57' 51" Ping reçu, 3152
30/08/2026 06h 57' 47" Ping reçu, 3151
30/08/2026 06h 57' 42" Ping reçu,         3150
30/08/2026 06h 57' 38" Ping reçu, 3149
30/08/2026 06h 57' 38" cPing.
30/08/2026 06h 57' 34" Ping reçu, 3148
30/08/2026 06h 57' 23" Ping reçu,         3145
30/08/2026 06h 57' 19" Ping reçu, 3144
30/08/2026 06h 57' 15" Ping reçu, 3143
30/08/2026 06h 57' 11" Ping reçu, 3142
30/08/2026 06h 57' 06" Ping reçu, 3141
30/08/2026 06h 56' 57" Ping reçu, 3139
30/08/2026 06h 56' 48" Ping reçu, 3137
30/08/2026 06h 56' 44" Ping reçu, 3136
30/08/2026 06h 56' 43" cPing.
30/08/2026 06h 56' 40" ERR. Ther. 14 HS.
30/08/2026 06h 56' 39" Ping reçu,         3135
30/08/2026 06h 56' 35" Ping reçu, 3134
30/08/2026 06h 56' 30" Ping reçu, 3133
30/08/2026 06h 56' 21" Ping reçu, 3131
30/08/2026 06h 56' 17" Ping reçu,         3130
30/08/2026 06h 56' 13" Ping reçu, 3129
30/08/2026 06h 56' 02" Ping reçu, 3126
30/08/2026 06h 55' 58" Ping reçu,         3125
30/08/2026 06h 55' 55" Enregistrement de l'éclairement (345.6 lux & 0 lux )
30/08/2026 06h 55' 53" Ping reçu, 3124
30/08/2026 06h 55' 49" Ping reçu, 3123
30/08/2026 06h 55' 46" cPing.
30/08/2026 06h 55' 45" Ping reçu, 3122
30/08/2026 06h 55' 41" Ping reçu, 3121
30/08/2026 06h 55' 40" Enregistrement de la température (16,981 °C)
30/08/2026 06h 55' 36" Ping reçu,         3120
30/08/2026 06h 55' 36" Enregistrement des paramètres du vent (49.1° @ 0 m/s)
30/08/2026 06h 55' 18" Ping reçu, 3116
30/08/2026 06h 55' 14" Ping reçu,         3115
30/08/2026 06h 55' 11" Enregistrement Température du pluviometre : (20,4 °C)
30/08/2026 06h 55' 06" Ping reçu, 3114
30/08/2026 06h 55' 03" Ping reçu, 3113
30/08/2026 06h 54' 59" Ping reçu, 3112
30/08/2026 06h 54' 55" Ping reçu, 3111
30/08/2026 06h 54' 51" Ping reçu,         3110
30/08/2026 06h 54' 50" cPing.
30/08/2026 06h 54' 42" Ping reçu, 3108
30/08/2026 06h 54' 38" Ping reçu, 3107
30/08/2026 06h 54' 34" Ping reçu, 3106
30/08/2026 06h 54' 30" Ping reçu,         3105
30/08/2026 06h 54' 25" Ping reçu, 3104
30/08/2026 06h 54' 17" Ping reçu, 3102
30/08/2026 06h 54' 08" Ping reçu,         3100
30/08/2026 06h 54' 05" Ping reçu, 3099
30/08/2026 06h 54' 02" Ping reçu, 3098
30/08/2026 06h 53' 57" Ping reçu, 3097
30/08/2026 06h 53' 53" cPing.
30/08/2026 06h 53' 53" Ping reçu, 3096
30/08/2026 06h 53' 48" Ping reçu,         3095
30/08/2026 06h 53' 44" Ping reçu, 3094
30/08/2026 06h 53' 31" Ping reçu, 3091
30/08/2026 06h 53' 27" Ping reçu,         3090
30/08/2026 06h 53' 24" Ping reçu, 3089
30/08/2026 06h 53' 20" Ping reçu, 3088
30/08/2026 06h 53' 15" Ping reçu, 3087
30/08/2026 06h 53' 07" Ping reçu,         3085
30/08/2026 06h 53' 03" Ping reçu, 3084
30/08/2026 06h 52' 59" Ping reçu, 3083
30/08/2026 06h 52' 58" cPing.
30/08/2026 06h 52' 54" Ping reçu, 3082
30/08/2026 06h 52' 47" Enregistrement de l'humidité (99,90 %)
30/08/2026 06h 52' 46" Ping reçu,         3080
30/08/2026 06h 52' 42" ERR. Ther. 1 HS.
30/08/2026 06h 52' 41" Ping reçu, 3079
30/08/2026 06h 52' 32" Ping reçu, 3077
30/08/2026 06h 52' 31" Enregistrement de l'éclairement (345.6 lux & 0 lux )
30/08/2026 06h 52' 27" Ping reçu, 3076
30/08/2026 06h 52' 23" Ping reçu,         3075
30/08/2026 06h 52' 19" Ping reçu, 3074
30/08/2026 06h 52' 15" Ping reçu, 3073
30/08/2026 06h 52' 08" Ping reçu, 3071
30/08/2026 06h 52' 04" Ping reçu,         3070
30/08/2026 06h 52' 01" cPing.
30/08/2026 06h 52' 00" Ping reçu, 3069
30/08/2026 06h 51' 56" Ping reçu, 3068
30/08/2026 06h 51' 47" Ping reçu, 3066
30/08/2026 06h 51' 42" Ping reçu,         3065
30/08/2026 06h 51' 34" Ping reçu, 3063
30/08/2026 06h 51' 24" Enregistrement de la température (17,008 °C)
30/08/2026 06h 51' 21" Ping reçu,         3060
30/08/2026 06h 51' 18" Ping reçu, 3059
30/08/2026 06h 51' 14" Ping reçu, 3058
30/08/2026 06h 51' 10" Ping reçu, 3057
30/08/2026 06h 51' 06" cPing.
30/08/2026 06h 51' 02" Ping reçu, 3056
30/08/2026 06h 50' 57" Ping reçu,         3055
30/08/2026 06h 50' 48" Ping reçu, 3053
30/08/2026 06h 50' 44" Ping reçu, 3052
30/08/2026 06h 50' 40" Ping reçu, 3051
30/08/2026 06h 50' 36" Ping reçu,         3050
30/08/2026 06h 50' 33" Ping reçu, 3049
30/08/2026 06h 50' 29" Ping reçu, 3048
30/08/2026 06h 50' 25" Ping reçu, 3047
30/08/2026 06h 50' 16" Ping reçu,         3045
30/08/2026 06h 50' 12" Ping reçu, 3044
30/08/2026 06h 50' 09" cPing.
30/08/2026 06h 50' 08" Ping reçu, 3043
30/08/2026 06h 50' 03" Ping reçu, 3042
30/08/2026 06h 49' 59" Ping reçu, 3041
30/08/2026 06h 49' 55" Pressions pluviométriques (32,07 & 64,00)
30/08/2026 06h 49' 54" Enregistrement des paramètres du vent (49.1° @ 0 m/s)
30/08/2026 06h 49' 50" Ping reçu, 3039
30/08/2026 06h 49' 36" Ping reçu, 3036
30/08/2026 06h 49' 32" Ping reçu,         3035
30/08/2026 06h 49' 28" Ping reçu, 3034
30/08/2026 06h 49' 24" Ping reçu, 3033
30/08/2026 06h 49' 21" Ping reçu, 3032
30/08/2026 06h 49' 17" Ping reçu, 3031
30/08/2026 06h 49' 14" cPing.
30/08/2026 06h 49' 09" Ping reçu, 3029
30/08/2026 06h 49' 05" Enregistrement de l'éclairement (345.6 lux & 0 lux )
30/08/2026 06h 48' 56" Ping reçu, 3026
30/08/2026 06h 48' 51" Ping reçu,         3025
30/08/2026 06h 48' 43" ERR. Ther. 1 HS.
30/08/2026 06h 48' 42" Ping reçu, 3023
30/08/2026 06h 48' 38" Ping reçu, 3022
30/08/2026 06h 48' 34" Ping reçu, 3021
30/08/2026 06h 48' 30" Ping reçu,         3020
30/08/2026 06h 48' 25" Ping reçu, 3019
30/08/2026 06h 48' 21" Ping reçu, 3018
30/08/2026 06h 48' 17" cPing.
30/08/2026 06h 48' 16" Ping reçu, 3017
30/08/2026 06h 48' 12" Ping reçu, 3016
30/08/2026 06h 48' 10" Ping reçu,         3015
30/08/2026 06h 48' 05" Ping reçu, 3014
30/08/2026 06h 47' 58" Enregistrement de l'éclairement (345.6 lux & 0 lux )
30/08/2026 06h 47' 57" Ping reçu, 3012
30/08/2026 06h 47' 53" Ping reçu, 3011
30/08/2026 06h 47' 49" Ping reçu, 1
30/08/2026 06h 47' 48" Ping reçu,         3010
30/08/2026 06h 47' 39" Ping reçu, 3008
30/08/2026 06h 47' 36" On a tout sauvé !
30/08/2026 06h 47' 35" Ping reçu, 3007
30/08/2026 06h 47' 26" Ping reçu,         3005
30/08/2026 06h 47' 21" Ping reçu, 3004
30/08/2026 06h 47' 21" cPing.
30/08/2026 06h 47' 13" Ping reçu, 3002
30/08/2026 06h 47' 09" Ping reçu, 3001
30/08/2026 06h 47' 06" Enregistrement de la Pression atmosphérique (1028,043 hPa)
30/08/2026 06h 46' 51" Ping reçu, 2997
30/08/2026 06h 46' 48" Ping reçu, 2996
30/08/2026 06h 46' 44" Ping reçu,         2995
30/08/2026 06h 46' 35" Ping reçu, 2993
30/08/2026 06h 46' 31" Ping reçu, 2992
30/08/2026 06h 46' 27" Ping reçu, 2991
30/08/2026 06h 46' 26" cPing.
30/08/2026 06h 46' 13" Ping reçu, 2988
30/08/2026 06h 46' 09" Ping reçu, 2987
30/08/2026 06h 46' 00" Ping reçu,         2985
30/08/2026 06h 45' 56" Ping reçu, 2984
30/08/2026 06h 45' 51" Ping reçu, 2983
30/08/2026 06h 45' 47" Ping reçu, 2982
30/08/2026 06h 45' 38" Ping reçu,         2980
30/08/2026 06h 45' 34" Ping reçu, 2979
30/08/2026 06h 45' 29" cPing.
30/08/2026 06h 45' 27" Ping reçu, 2977
30/08/2026 06h 45' 23" Ping reçu, 2976
30/08/2026 06h 45' 19" Ping reçu,         2975
30/08/2026 06h 45' 15" Ping reçu, 2974
30/08/2026 06h 45' 11" Ping reçu, 2973
30/08/2026 06h 45' 02" Ping reçu, 2971
30/08/2026 06h 44' 57" Ping reçu,         2970
30/08/2026 06h 44' 48" Ping reçu, 2968
30/08/2026 06h 44' 45" ERR. Ther. 14 HS.
30/08/2026 06h 44' 45" ERR. Ther. 10 HS.
30/08/2026 06h 44' 44" ERR. Ther. 1 HS.
30/08/2026 06h 44' 44" Ping reçu, 2967
30/08/2026 06h 44' 34" cPing.
30/08/2026 06h 44' 32" Enregistrement de l'éclairement (345.6 lux & 0 lux )
30/08/2026 06h 44' 30" Ping reçu, 2964
30/08/2026 06h 44' 18" Ping reçu, 2961
30/08/2026 06h 44' 13" Enregistrement des paramètres du vent (49.1° @ 0 m/s)
30/08/2026 06h 44' 09" Ping reçu, 2959
30/08/2026 06h 44' 06" Ping reçu, 2958
30/08/2026 06h 43' 53" Ping reçu,         2955
30/08/2026 06h 43' 49" Ping reçu, 2954
30/08/2026 06h 43' 40" Ping reçu, 2952
30/08/2026 06h 43' 37" cPing.
30/08/2026 06h 43' 36" Ping reçu, 2951
30/08/2026 06h 43' 32" Ping reçu,         2950
30/08/2026 06h 43' 27" Enregistrement de l'éclairement (345.6 lux & 0 lux )
30/08/2026 06h 43' 23" Ping reçu, 2948
30/08/2026 06h 43' 14" Ping reçu, 2946
30/08/2026 06h 43' 10" Ping reçu,         2945
30/08/2026 06h 43' 06" Ping reçu, 2944
30/08/2026 06h 43' 03" Ping reçu, 2943
30/08/2026 06h 42' 59" Ping reçu, 2942
30/08/2026 06h 42' 53" Enregistrement Température du pluviometre : (20,5 °C)
30/08/2026 06h 42' 51" Ping reçu, 2941
30/08/2026 06h 42' 50" Enregistrement de la température (17,040 °C)
30/08/2026 06h 42' 47" Enregistrement de l'humidité (99,90 %)
30/08/2026 06h 42' 47" Ping reçu,         2940
30/08/2026 06h 42' 42" Ping reçu, 2939
30/08/2026 06h 42' 42" cPing.
30/08/2026 06h 42' 33" Ping reçu, 2937
30/08/2026 06h 42' 29" Ping reçu, 2936
30/08/2026 06h 42' 25" Ping reçu,         2935
30/08/2026 06h 42' 21" Ping reçu, 2934
30/08/2026 06h 42' 15" Enregistrement de l'éclairement (345.6 lux & 0 lux )
30/08/2026 06h 42' 14" Ping reçu, 2932
30/08/2026 06h 42' 05" Ping reçu,         2930
30/08/2026 06h 41' 57" Ping reçu, 2928
30/08/2026 06h 41' 48" Ping reçu, 2926
30/08/2026 06h 41' 45" cPing.
30/08/2026 06h 41' 44" Ping reçu,         2925
30/08/2026 06h 41' 39" Ping reçu, 2924
30/08/2026 06h 41' 35" Ping reçu, 2923
30/08/2026 06h 41' 31" Ping reçu, 2922
30/08/2026 06h 41' 24" Ping reçu,         2920
30/08/2026 06h 41' 20" Ping reçu, 2919
30/08/2026 06h 41' 16" Ping reçu, 2918
30/08/2026 06h 41' 12" Ping reçu, 2917
30/08/2026 06h 41' 08" Ping reçu, 2916
30/08/2026 06h 41' 03" Ping reçu,         2915
30/08/2026 06h 40' 59" Ping reçu, 2914
30/08/2026 06h 40' 55" Ping reçu, 2913
30/08/2026 06h 40' 51" Ping reçu, 2912
30/08/2026 06h 40' 50" cPing.
30/08/2026 06h 40' 47" ERR. Ther. 1 HS.
30/08/2026 06h 40' 47" ERR. Ther. 14 HS.
30/08/2026 06h 40' 45" Ping reçu, 2911
30/08/2026 06h 40' 33" Ping reçu, 2908
30/08/2026 06h 40' 29" Ping reçu, 2907
30/08/2026 06h 40' 21" Ping reçu,         2905
30/08/2026 06h 40' 13" Ping reçu, 2903
30/08/2026 06h 40' 09" Ping reçu, 2902
30/08/2026 06h 40' 05" Ping reçu, 2901
30/08/2026 06h 40' 00" Ping reçu,         2900
30/08/2026 06h 39' 56" Ping reçu, 2899
30/08/2026 06h 39' 53" cPing.
30/08/2026 06h 39' 48" Ping reçu, 2897
30/08/2026 06h 39' 44" Ping reçu, 2896
30/08/2026 06h 39' 39" Ping reçu,         2895
30/08/2026 06h 39' 35" Ping reçu, 2894
30/08/2026 06h 39' 32" Ping reçu, 2893
30/08/2026 06h 39' 28" Ping reçu, 2892
30/08/2026 06h 39' 24" Ping reçu, 2891
30/08/2026 06h 39' 15" Ping reçu, 2889
30/08/2026 06h 39' 06" Ping reçu, 2887
30/08/2026 06h 38' 58" Ping reçu,         2885
30/08/2026 06h 38' 57" cPing.
30/08/2026 06h 38' 54" Enregistrement de l'éclairement (345.6 lux & 0 lux )
30/08/2026 06h 38' 45" Ping reçu, 2882
30/08/2026 06h 38' 39" Enregistrement de la température (17,048 °C)
30/08/2026 06h 38' 38" Pressions pluviométriques (32,07 & 64,00)
30/08/2026 06h 38' 35" Enregistrement des paramètres du vent (49.1° @ 0 m/s)
30/08/2026 06h 38' 17" Ping reçu, 2876
30/08/2026 06h 38' 04" Ping reçu, 2873
30/08/2026 06h 38' 00" Ping reçu, 2872
30/08/2026 06h 38' 00" cPing.
30/08/2026 06h 37' 56" Ping reçu, 2871
30/08/2026 06h 37' 53" Ping reçu,         2870
30/08/2026 06h 37' 45" Ping reçu, 2868
30/08/2026 06h 37' 44" Enregistrement de l'éclairement (345.6 lux & 0 lux )
30/08/2026 06h 37' 36" Ping reçu, 2866
30/08/2026 06h 37' 33" Enregistrement de l'Arduino : (22,2 °C)
30/08/2026 06h 37' 28" Ping reçu,         2865
30/08/2026 06h 37' 24" Ping reçu, 2864
30/08/2026 06h 37' 05" cPing.
30/08/2026 06h 36' 59" Ping reçu, 2858
30/08/2026 06h 36' 55" Ping reçu, 2857
30/08/2026 06h 36' 51" Ping reçu, 2856
30/08/2026 06h 36' 47" ERR. Ther. 14 HS.
30/08/2026 06h 36' 42" Ping reçu, 2854
30/08/2026 06h 36' 38" Ping reçu, 2853
30/08/2026 06h 36' 29" Ping reçu, 2851
30/08/2026 06h 36' 25" Ping reçu,         2850
30/08/2026 06h 36' 18" Ping reçu, 2848
30/08/2026 06h 36' 09" Ping reçu, 2846
30/08/2026 06h 36' 09" cPing.
30/08/2026 06h 35' 59" Ping reçu, 2844
30/08/2026 06h 35' 52" Ping reçu, 2842
30/08/2026 06h 35' 48" Ping reçu, 2841
30/08/2026 06h 35' 44" Ping reçu,         2840
30/08/2026 06h 35' 39" Ping reçu, 2839
30/08/2026 06h 35' 24" Ping reçu,         2835
30/08/2026 06h 35' 15" Ping reçu, 2833
30/08/2026 06h 35' 12" cPing.
30/08/2026 06h 35' 11" Ping reçu, 2832
30/08/2026 06h 35' 03" Ping reçu,         2830
30/08/2026 06h 34' 59" Ping reçu, 2829
30/08/2026 06h 34' 54" Ping reçu, 2828
30/08/2026 06h 34' 45" Ping reçu, 2826
30/08/2026 06h 34' 41" Ping reçu,         2825
30/08/2026 06h 34' 37" Ping reçu, 2824
30/08/2026 06h 34' 33" Ping reçu, 2823
30/08/2026 06h 34' 26" Ping reçu, 2821
30/08/2026 06h 34' 23" Enregistrement de la température (17,064 °C)
30/08/2026 06h 34' 17" Ping reçu, 2819
30/08/2026 06h 34' 17" cPing.
30/08/2026 06h 34' 13" Ping reçu, 2818
30/08/2026 06h 34' 09" Ping reçu, 2817
30/08/2026 06h 34' 05" Ping reçu, 2816
30/08/2026 06h 34' 00" Ping reçu,         2815
30/08/2026 06h 33' 51" Ping reçu, 2813
30/08/2026 06h 33' 47" Ping reçu, 2812
30/08/2026 06h 33' 43" Ping reçu, 2811
30/08/2026 06h 33' 38" Ping reçu,         2810
30/08/2026 06h 33' 35" Ping reçu, 2809
30/08/2026 06h 33' 27" Ping reçu, 2807
30/08/2026 06h 33' 23" Ping reçu, 2806
30/08/2026 06h 33' 20" cPing.
30/08/2026 06h 33' 19" Ping reçu,         2805
30/08/2026 06h 33' 15" Ping reçu, 2804
30/08/2026 06h 33' 11" On a tout sauvé !
30/08/2026 06h 33' 11" Ping reçu, 2803
30/08/2026 06h 33' 06" Ping reçu, 2802
30/08/2026 06h 33' 02" Ping reçu, 2801
30/08/2026 06h 32' 57" Ping reçu,         2800
30/08/2026 06h 32' 57" Enregistrement de l'humidité (99,90 %)
30/08/2026 06h 32' 57" Enregistrement des paramètres du vent (49.1° @ 0 m/s)
30/08/2026 06h 32' 43" Ping reçu, 2797
30/08/2026 06h 32' 39" Ping reçu, 2796
30/08/2026 06h 32' 26" Ping reçu, 2793
30/08/2026 06h 32' 25" cPing.
30/08/2026 06h 32' 21" Ping reçu, 2792
30/08/2026 06h 32' 17" Ping reçu, 2791
30/08/2026 06h 32' 13" Ping reçu,         2790
30/08/2026 06h 32' 08" Ping reçu, 2789
30/08/2026 06h 32' 06" Enregistrement de l'éclairement (345.6 lux & 0 lux )
30/08/2026 06h 32' 04" Ping reçu, 2788
30/08/2026 06h 32' 00" Ping reçu, 2787
30/08/2026 06h 31' 48" Ping reçu, 2784
30/08/2026 06h 31' 42" Ping reçu, 2783
30/08/2026 06h 31' 35" Ping reçu, 2781
30/08/2026 06h 31' 28" cPing.
30/08/2026 06h 31' 22" Ping reçu, 2778
30/08/2026 06h 31' 08" Ping reçu,         2775
30/08/2026 06h 31' 04" Ping reçu, 2774
30/08/2026 06h 31' 00" Ping reçu, 2773
30/08/2026 06h 30' 51" Ping reçu, 2771
30/08/2026 06h 30' 39" Enregistrement Température du pluviometre : (20,6 °C)
30/08/2026 06h 30' 34" Ping reçu, 2768
30/08/2026 06h 30' 33" cPing.
30/08/2026 06h 30' 25" Ping reçu, 2766
30/08/2026 06h 30' 21" Ping reçu,         2765
30/08/2026 06h 30' 17" Ping reçu, 2764
30/08/2026 06h 30' 06" Ping reçu, 2761
30/08/2026 06h 30' 05" Enregistrement de la température (17,110 °C)
30/08/2026 06h 30' 02" Enregistrement de la Pression atmosphérique (1027,929 hPa)
30/08/2026 06h 30' 02" Ping reçu,         2760
30/08/2026 06h 29' 53" Ping reçu, 2758
30/08/2026 06h 29' 48" Ping reçu, 2757
30/08/2026 06h 29' 47" Enregistrement de l'éclairement (345.6 lux & 0 lux )
30/08/2026 06h 29' 36" cPing.
30/08/2026 06h 29' 35" Ping reçu, 2754
30/08/2026 06h 29' 31" Ping reçu, 2753
30/08/2026 06h 29' 22" Ping reçu, 2751
30/08/2026 06h 29' 13" Ping reçu, 2749
30/08/2026 06h 29' 09" Ping reçu, 2748
30/08/2026 06h 28' 53" Ping reçu, 2744
30/08/2026 06h 28' 50" ERR. Ther. 14 HS.
30/08/2026 06h 28' 44" Ping reçu, 2742
30/08/2026 06h 28' 41" cPing.
30/08/2026 06h 28' 38" Ping reçu, 2741
30/08/2026 06h 28' 35" Ping reçu,         2740
30/08/2026 06h 28' 18" Ping reçu, 2736
30/08/2026 06h 28' 09" Ping reçu, 2734
30/08/2026 06h 28' 05" Ping reçu, 2733
30/08/2026 06h 27' 56" Ping reçu, 2731
30/08/2026 06h 27' 45" Ping reçu, 2728
30/08/2026 06h 27' 45" cPing.
30/08/2026 06h 27' 41" Ping reçu, 2727
30/08/2026 06h 27' 37" Ping reçu, 2726
30/08/2026 06h 27' 33" Ping reçu,         2725
30/08/2026 06h 27' 30" Enregistrement de l'éclairement (345.6 lux & 0 lux )
30/08/2026 06h 27' 24" Ping reçu, 2723
30/08/2026 06h 27' 20" Ping reçu, 2722
30/08/2026 06h 27' 15" Ping reçu, 2721
30/08/2026 06h 27' 12" Enregistrement de la hauteur d'eau (783,520 mm @ 99,9%)
30/08/2026 06h 27' 12" Pressions pluviométriques (32,07 & 64,00)
30/08/2026 06h 27' 11" Enregistrement des paramètres du vent (49.1° @ 0 m/s)
30/08/2026 06h 27' 06" Ping reçu, 2719
30/08/2026 06h 27' 02" Ping reçu, 2718
30/08/2026 06h 26' 58" Ping reçu, 2717
30/08/2026 06h 26' 54" Ping reçu, 2716
30/08/2026 06h 26' 48" cPing.
30/08/2026 06h 26' 45" Ping reçu, 2714
30/08/2026 06h 26' 42" Ping reçu, 2713
30/08/2026 06h 26' 32" Ping reçu, 2711
30/08/2026 06h 26' 24" Enregistrement de l'éclairement (345.6 lux & 0 lux )
30/08/2026 06h 26' 08" Ping reçu,         2705
30/08/2026 06h 26' 03" Ping reçu, 2704
30/08/2026 06h 25' 59" Ping reçu, 2703
30/08/2026 06h 25' 55" Ping reçu, 2702
30/08/2026 06h 25' 53" cPing.
30/08/2026 06h 25' 51" Ping reçu, 2701
30/08/2026 06h 25' 50" Enregistrement de la température (17,090 °C)
30/08/2026 06h 25' 47" Ping reçu,         2700
30/08/2026 06h 25' 38" Ping reçu, 2698
30/08/2026 06h 25' 33" Ping reçu, 2697
30/08/2026 06h 25' 29" Ping reçu, 2696
30/08/2026 06h 25' 26" Ping reçu,         2695
30/08/2026 06h 25' 22" Ping reçu, 2694
30/08/2026 06h 25' 18" Enregistrement de l'éclairement (345.6 lux & 0 lux )
30/08/2026 06h 25' 18" Ping reçu, 2693
30/08/2026 06h 25' 14" Ping reçu, 2692
30/08/2026 06h 25' 09" Ping reçu, 2691
30/08/2026 06h 25' 05" Ping reçu,         2690
30/08/2026 06h 25' 01" Ping reçu, 2689
30/08/2026 06h 24' 57" Ping reçu, 2688
30/08/2026 06h 24' 56" cPing.
30/08/2026 06h 24' 55" ERR. Ther. 14 HS.
30/08/2026 06h 24' 53" Ping reçu, 2687
30/08/2026 06h 24' 39" Ping reçu, 2684
30/08/2026 06h 24' 35" Ping reçu, 2683
30/08/2026 06h 24' 32" Ping reçu, 2682
30/08/2026 06h 24' 26" Ping reçu, 2681
30/08/2026 06h 24' 23" Ping reçu,         2680
30/08/2026 06h 24' 15" Ping reçu, 2678
30/08/2026 06h 24' 11" Ping reçu, 2677
30/08/2026 06h 24' 06" Ping reçu, 2676
30/08/2026 06h 24' 06" Enregistrement de l'éclairement (345.6 lux & 0 lux )
30/08/2026 06h 24' 01" cPing.
30/08/2026 06h 24' 00" Enregistrement de l'Arduino : (22,3 °C)
30/08/2026 06h 23' 56" Ping reçu, 2674
30/08/2026 06h 23' 43" Ping reçu, 2671
30/08/2026 06h 23' 39" Ping reçu,         2670
30/08/2026 06h 23' 30" Ping reçu, 2668
30/08/2026 06h 23' 17" Ping reçu,         2665
30/08/2026 06h 23' 13" Ping reçu, 2664
30/08/2026 06h 23' 09" Ping reçu, 2663
30/08/2026 06h 23' 07" Ping reçu, 2662
30/08/2026 06h 23' 03" cPing.
30/08/2026 06h 23' 02" Ping reçu, 2661
30/08/2026 06h 22' 59" Enregistrement de l'éclairement (345.6 lux & 0 lux )
30/08/2026 06h 22' 59" Enregistrement de l'humidité (99,90 %)
30/08/2026 06h 22' 58" Ping reçu,         2660
30/08/2026 06h 22' 45" Ping reçu, 2657
30/08/2026 06h 22' 41" Ping reçu, 2656
30/08/2026 06h 22' 36" Rw SD-card.
30/08/2026 06h 22' 32" Ping reçu, 2654
30/08/2026 06h 22' 27" Ping reçu, 2653
30/08/2026 06h 22' 23" Ping reçu, 2652
30/08/2026 06h 22' 19" Ping reçu, 2651
30/08/2026 06h 22' 15" Ping reçu,         2650
30/08/2026 06h 22' 12" Ping reçu, 2649
30/08/2026 06h 22' 08" Ping reçu, 2648
30/08/2026 06h 22' 08" cPing.
30/08/2026 06h 22' 04" Ping reçu, 2647
30/08/2026 06h 22' 00" Ping reçu, 2646
30/08/2026 06h 21' 52" Enregistrement de l'éclairement (345.6 lux & 0 lux )
30/08/2026 06h 21' 47" Ping reçu, 2643
30/08/2026 06h 21' 34" Ping reçu,         2640
30/08/2026 06h 21' 24" Ping reçu, 2638
30/08/2026 06h 21' 20" Ping reçu, 2637
30/08/2026 06h 21' 16" Ping reçu, 2636
30/08/2026 06h 21' 12" Ping reçu,         2635
30/08/2026 06h 21' 11" cPing.
30/08/2026 06h 21' 09" Ping reçu, 2634
30/08/2026 06h 21' 05" Ping reçu, 2633
30/08/2026 06h 20' 57" ERR. Ther. 1 HS.
30/08/2026 06h 20' 57" ERR. Ther. 14 HS.
30/08/2026 06h 20' 56" Ping reçu, 2631
30/08/2026 06h 20' 48" Ping reçu, 2629
30/08/2026 06h 20' 47" Enregistrement de l'éclairement (345.6 lux & 0 lux )
30/08/2026 06h 20' 44" Ping reçu, 2628
30/08/2026 06h 20' 39" Ping reçu, 2627
30/08/2026 06h 20' 35" Ping reçu, 2626
30/08/2026 06h 20' 31" Ping reçu,         2625
30/08/2026 06h 20' 27" Ping reçu, 2624
30/08/2026 06h 20' 22" Ping reçu, 2623
30/08/2026 06h 20' 18" Ping reçu, 2622
30/08/2026 06h 20' 16" cPing.
30/08/2026 06h 20' 11" Ping reçu,         2620
30/08/2026 06h 20' 02" Ping reçu, 2618
30/08/2026 06h 19' 54" Ping reçu, 2616
30/08/2026 06h 19' 50" Ping reçu,         2615
30/08/2026 06h 19' 45" Ping reçu, 2614
30/08/2026 06h 19' 45" Enregistrement de l'éclairement (345.6 lux & 0 lux )
30/08/2026 06h 19' 41" Ping reçu, 2613
30/08/2026 06h 19' 37" Ping reçu, 2612
30/08/2026 06h 19' 33" Ping reçu, 2611
30/08/2026 06h 19' 26" Ping reçu, 2609
30/08/2026 06h 19' 22" Ping reçu, 2608
30/08/2026 06h 19' 19" cPing.
30/08/2026 06h 19' 17" Ping reçu, 2607
30/08/2026 06h 19' 13" Ping reçu, 2606
30/08/2026 06h 19' 09" Ping reçu,         2605
30/08/2026 06h 18' 56" Ping reçu, 2602
30/08/2026 06h 18' 47" Ping reçu,         2600
30/08/2026 06h 18' 34" Ping reçu, 2597
30/08/2026 06h 18' 30" Ping reçu, 2596
30/08/2026 06h 18' 28" Enregistrement Température du pluviometre : (20,7 °C)
30/08/2026 06h 18' 24" On a tout sauvé !
30/08/2026 06h 18' 24" cPing.
30/08/2026 06h 18' 23" Ping reçu,         2595
30/08/2026 06h 18' 19" Ping reçu, 2594
30/08/2026 06h 18' 10" Ping reçu, 2592
30/08/2026 06h 18' 02" Ping reçu,         2590
30/08/2026 06h 17' 53" Ping reçu, 2588
30/08/2026 06h 17' 48" Ping reçu, 2587
30/08/2026 06h 17' 40" Ping reçu,         2585
30/08/2026 06h 17' 36" Ping reçu, 2584
30/08/2026 06h 17' 33" Ping reçu, 2583
30/08/2026 06h 17' 29" Ping reçu, 2582
30/08/2026 06h 17' 27" cPing.
30/08/2026 06h 17' 24" Ping reçu, 2581
30/08/2026 06h 17' 21" Enregistrement de la température (17,082 °C)
30/08/2026 06h 17' 11" Ping reçu, 2578
30/08/2026 06h 17' 07" Ping reçu, 2577
30/08/2026 06h 17' 03" Ping reçu, 2576
30/08/2026 06h 16' 59" ERR. Ther. 1 HS.
30/08/2026 06h 16' 59" ERR. Ther. 14 HS.
30/08/2026 06h 16' 58" Ping reçu,         2575
30/08/2026 06h 16' 53" Ping reçu, 2574
30/08/2026 06h 16' 44" Ping reçu, 2572
30/08/2026 06h 16' 36" Ping reçu,         2570
30/08/2026 06h 16' 32" cPing.
30/08/2026 06h 16' 27" Ping reçu, 2568
30/08/2026 06h 16' 14" Ping reçu,         2565
30/08/2026 06h 16' 13" Enregistrement de l'éclairement (345.6 lux & 0 lux )
30/08/2026 06h 16' 10" Ping reçu, 2564
30/08/2026 06h 16' 01" Ping reçu, 2562
30/08/2026 06h 15' 55" Pressions pluviométriques (32,07 & 64,00)
30/08/2026 06h 15' 53" Enregistrement de la hauteur d'eau (783,600 mm @ 99,7%)
30/08/2026 06h 15' 52" Enregistrement des paramètres du vent (49.1° @ 0 m/s)
30/08/2026 06h 15' 47" Ping reçu, 2559
30/08/2026 06h 15' 43" Ping reçu, 2558
30/08/2026 06h 15' 39" Ping reçu, 2557
30/08/2026 06h 15' 35" cPing.
30/08/2026 06h 15' 30" Ping reçu,         2555
30/08/2026 06h 15' 27" Ping reçu, 2554
30/08/2026 06h 15' 23" Ping reçu, 2553
30/08/2026 06h 15' 19" Ping reçu, 2552
30/08/2026 06h 15' 15" Ping reçu, 2551
30/08/2026 06h 15' 11" Ping reçu,         2550
30/08/2026 06h 15' 06" Ping reçu, 2549
30/08/2026 06h 15' 02" Ping reçu, 2548
30/08/2026 06h 14' 57" Ping reçu, 2547
30/08/2026 06h 14' 44" Ping reçu, 2544
30/08/2026 06h 14' 40" Ping reçu, 2543
30/08/2026 06h 14' 39" cPing.
30/08/2026 06h 14' 35" Ping reçu, 2542
30/08/2026 06h 14' 31" Ping reçu, 2541
30/08/2026 06h 14' 24" Ping reçu, 2539
30/08/2026 06h 14' 20" Ping reçu, 2538
30/08/2026 06h 14' 16" Ping reçu, 2537
30/08/2026 06h 14' 03" Ping reçu, 2534
30/08/2026 06h 13' 56" Enregistrement de l'éclairement (345.6 lux & 0 lux )
30/08/2026 06h 13' 54" Ping reçu, 2532
30/08/2026 06h 13' 50" Ping reçu, 2531
30/08/2026 06h 13' 44" cPing.
30/08/2026 06h 13' 41" Ping reçu, 2529
30/08/2026 06h 13' 33" Ping reçu, 2527
30/08/2026 06h 13' 29" Ping reçu, 2526
30/08/2026 06h 13' 26" Ping reçu,         2525
30/08/2026 06h 13' 18" Ping reçu, 2523
30/08/2026 06h 13' 14" Ping reçu, 2522
30/08/2026 06h 13' 05" Enregistrement de la Pression atmosphérique (1027,908 hPa)
30/08/2026 06h 13' 05" Enregistrement de l'humidité (99,90 %)
30/08/2026 06h 13' 00" ERR. Ther. 1 HS.
30/08/2026 06h 12' 59" Ping reçu, 2519
30/08/2026 06h 12' 55" Ping reçu, 2518
30/08/2026 06h 12' 47" Enregistrement de l'éclairement (345.6 lux & 0 lux )
30/08/2026 06h 12' 47" cPing.
30/08/2026 06h 12' 46" Ping reçu, 2516
30/08/2026 06h 12' 42" Ping reçu,         2515
30/08/2026 06h 12' 38" Ping reçu, 2514
30/08/2026 06h 12' 33" Ping reçu, 2513
30/08/2026 06h 12' 16" Ping reçu, 2509
30/08/2026 06h 12' 11" Ping reçu, 2508
30/08/2026 06h 12' 07" Ping reçu, 2507
30/08/2026 06h 12' 03" Ping reçu, 2506
30/08/2026 06h 12' 00" Ping reçu,         2505
30/08/2026 06h 11' 56" Ping reçu, 2504
30/08/2026 06h 11' 52" Ping reçu, 2503
30/08/2026 06h 11' 52" cPing.
30/08/2026 06h 11' 47" Ping reçu, 2502
30/08/2026 06h 11' 43" Ping reçu, 2501
30/08/2026 06h 11' 39" Ping reçu,         2500
30/08/2026 06h 11' 30" Ping reçu, 2498
30/08/2026 06h 11' 26" Ping reçu, 2497
30/08/2026 06h 11' 22" Ping reçu, 2496
30/08/2026 06h 11' 17" Ping reçu,         2495
30/08/2026 06h 11' 12" Ping reçu, 2494
30/08/2026 06h 11' 08" Ping reçu, 2493
30/08/2026 06h 11' 04" Ping reçu, 2492
30/08/2026 06h 11' 00" Ping reçu, 2491
30/08/2026 06h 10' 56" Ping reçu,         2490
30/08/2026 06h 10' 55" cPing.
30/08/2026 06h 10' 53" Ping reçu, 2489
30/08/2026 06h 10' 45" Ping reçu, 2487
30/08/2026 06h 10' 41" Ping reçu, 2486
30/08/2026 06h 10' 36" Ping reçu,         2485
30/08/2026 06h 10' 29" Enregistrement de l'Arduino : (22,3 °C)
30/08/2026 06h 10' 26" Ping reçu, 2483
30/08/2026 06h 10' 22" Ping reçu, 2482
30/08/2026 06h 10' 09" Ping reçu, 2479
30/08/2026 06h 10' 05" Ping reçu, 2478
30/08/2026 06h 10' 00" Ping reçu, 2477
30/08/2026 06h 10' 00" cPing.
30/08/2026 06h 09' 56" Ping reçu, 2476
30/08/2026 06h 09' 42" Ping reçu, 2473
30/08/2026 06h 09' 38" Ping reçu, 2472
30/08/2026 06h 09' 34" Ping reçu, 2471
30/08/2026 06h 09' 30" Ping reçu,         2470
30/08/2026 06h 09' 26" Ping reçu, 2469
30/08/2026 06h 09' 23" Ping reçu, 2468
30/08/2026 06h 09' 19" Ping reçu, 2467
30/08/2026 06h 09' 15" Ping reçu, 2466
30/08/2026 06h 09' 03" cPing.
30/08/2026 06h 09' 02" ERR. Ther. 14 HS.
30/08/2026 06h 08' 48" Ping reçu,         2460
30/08/2026 06h 08' 43" Ping reçu, 2459
30/08/2026 06h 08' 39" Ping reçu, 2458
30/08/2026 06h 08' 35" Ping reçu, 2457
30/08/2026 06h 08' 22" Ping reçu, 2454
30/08/2026 06h 08' 18" Ping reçu, 2453
30/08/2026 06h 08' 17" Enregistrement de l'éclairement (345.6 lux & 0 lux )
30/08/2026 06h 08' 14" Ping reçu, 2452
30/08/2026 06h 08' 11" Ping reçu, 2451
30/08/2026 06h 08' 08" cPing.
30/08/2026 06h 08' 02" Ping reçu, 2449
30/08/2026 06h 07' 49" Ping reçu, 2446
30/08/2026 06h 07' 45" Ping reçu,         2445
30/08/2026 06h 07' 41" Ping reçu, 2444
30/08/2026 06h 07' 36" Ping reçu, 2443
30/08/2026 06h 07' 32" Ping reçu, 2442
30/08/2026 06h 07' 28" Ping reçu, 2441
30/08/2026 06h 07' 24" Ping reçu,         2440
30/08/2026 06h 07' 21" Ping reçu, 2439
30/08/2026 06h 07' 13" Ping reçu, 2437
30/08/2026 06h 07' 12" cPing.
30/08/2026 06h 07' 09" Ping reçu, 2436
30/08/2026 06h 07' 04" Ping reçu,         2435
30/08/2026 06h 07' 00" Ping reçu, 2434
30/08/2026 06h 06' 56" Ping reçu, 2433
30/08/2026 06h 06' 47" Ping reçu, 2431
30/08/2026 06h 06' 38" Ping reçu, 2429
30/08/2026 06h 06' 33" Ping reçu, 2428
30/08/2026 06h 06' 29" Ping reçu, 2427
30/08/2026 06h 06' 25" Ping reçu, 2426
30/08/2026 06h 06' 15" cPing.
30/08/2026 06h 06' 12" Ping reçu, 2423
30/08/2026 06h 06' 01" Ping reçu, 2421
30/08/2026 06h 05' 59" Enregistrement de l'éclairement (345.6 lux & 0 lux )
30/08/2026 06h 05' 57" Ping reçu,         2420
30/08/2026 06h 05' 53" Ping reçu, 2419
30/08/2026 06h 05' 48" Ping reçu, 2418
30/08/2026 06h 05' 39" Ping reçu, 2416
30/08/2026 06h 05' 35" Ping reçu,         2415
30/08/2026 06h 05' 27" Ping reçu, 2413
30/08/2026 06h 05' 20" Ping reçu, 2411
30/08/2026 06h 05' 18" cPing.
30/08/2026 06h 05' 16" Ping reçu,         2410
30/08/2026 06h 05' 03" ERR. Ther. 1 HS.
30/08/2026 06h 05' 03" ERR. Ther. 14 HS.
30/08/2026 06h 05' 03" Ping reçu, 2407
30/08/2026 06h 04' 59" Ping reçu, 2406
30/08/2026 06h 04' 50" Ping reçu, 2404
30/08/2026 06h 04' 45" Ping reçu, 2403
30/08/2026 06h 04' 41" Ping reçu, 2402
30/08/2026 06h 04' 36" Enregistrement de la température (17,229 °C)
30/08/2026 06h 04' 33" Ping reçu,         2400
30/08/2026 06h 04' 33" Enregistrement de la hauteur d'eau (783,570 mm @ 99,9%)
30/08/2026 06h 04' 32" Enregistrement de la Pression atmosphérique (1027,900 hPa)
30/08/2026 06h 04' 32" Enregistrement des paramètres du vent (49.1° @ 0 m/s)
30/08/2026 06h 04' 27" Ping reçu, 2399
30/08/2026 06h 04' 23" Ping reçu, 2398
30/08/2026 06h 04' 23" cPing.
30/08/2026 06h 04' 14" Ping reçu, 2396
30/08/2026 06h 04' 10" Ping reçu,         2395
30/08/2026 06h 04' 03" Ping reçu, 2393
30/08/2026 06h 04' 03" On a tout sauvé !
30/08/2026 06h 03' 57" Ping reçu, 2392
30/08/2026 06h 03' 45" Ping reçu, 2389
30/08/2026 06h 03' 41" Ping reçu, 2388
30/08/2026 06h 03' 37" Ping reçu, 2387
30/08/2026 06h 03' 33" Ping reçu, 2386
30/08/2026 06h 03' 29" Ping reçu,         2385
30/08/2026 06h 03' 27" cPing.
30/08/2026 06h 03' 24" Ping reçu, 2384
30/08/2026 06h 03' 15" Ping reçu, 2382
30/08/2026 06h 03' 11" Ping reçu, 2381
30/08/2026 06h 03' 07" Ping reçu,         2380
30/08/2026 06h 02' 49" Ping reçu, 2376
30/08/2026 06h 02' 42" Ping reçu, 2374
30/08/2026 06h 02' 38" Ping reçu, 2373
30/08/2026 06h 02' 34" Ping reçu, 2372
30/08/2026 06h 02' 30" cPing.
30/08/2026 06h 02' 29" Ping reçu, 2371
30/08/2026 06h 02' 25" Ping reçu,         2370
30/08/2026 06h 02' 21" Ping reçu, 2369
30/08/2026 06h 02' 17" Ping reçu, 2368
30/08/2026 06h 02' 12" Ping reçu, 2367
30/08/2026 06h 02' 08" Ping reçu, 2366
30/08/2026 06h 02' 04" Ping reçu,         2365
30/08/2026 06h 02' 00" Ping reçu, 2364
30/08/2026 06h 01' 56" Ping reçu, 2363
30/08/2026 06h 01' 48" Ping reçu, 2361
30/08/2026 06h 01' 44" Ping reçu,         2360
30/08/2026 06h 01' 36" Ping reçu, 2358
30/08/2026 06h 01' 35" cPing.
30/08/2026 06h 01' 32" Ping reçu, 2357
30/08/2026 06h 01' 31" Enregistrement de l'éclairement (345.6 lux & 0 lux )
30/08/2026 06h 01' 27" Ping reçu, 2356
30/08/2026 06h 01' 19" Ping reçu, 2354
30/08/2026 06h 01' 06" ERR. Ther. 1 HS.
30/08/2026 06h 00' 46" On purge les valeurs du crystal...
30/08/2026 06h 00' 38" cPing.
30/08/2026 06h 00' 35" Ping reçu, 2344
30/08/2026 06h 00' 28" Ping reçu, 2342
30/08/2026 06h 00' 24" Ping reçu, 2341
30/08/2026 06h 00' 21" Enregistrement de l'éclairement (345.6 lux & 0 lux )
30/08/2026 06h 00' 20" Ping reçu,         2340
30/08/2026 06h 00' 15" On purge les valeurs du crystal...
30/08/2026 06h 00' 11" Ping reçu, 2338
30/08/2026 06h 00' 02" Ping reçu, 2336
30/08/2026 05h 59' 53" Ping reçu, 2334
30/08/2026 05h 59' 43" cPing.
30/08/2026 05h 59' 40" Ping reçu, 2331
30/08/2026 05h 59' 36" Ping reçu,         2330
30/08/2026 05h 59' 32" Ping reçu, 2329
30/08/2026 05h 59' 25" Ping reçu, 2327
30/08/2026 05h 59' 21" Ping reçu, 2326
30/08/2026 05h 59' 17" Ping reçu,         2325
30/08/2026 05h 59' 08" Ping reçu, 2323
30/08/2026 05h 58' 59" Ping reçu, 2321
30/08/2026 05h 58' 55" Enregistrement des paramètres du vent (49.1° @ 0 m/s)
30/08/2026 05h 58' 55" Ping reçu,         2320
30/08/2026 05h 58' 50" Ping reçu, 2319
30/08/2026 05h 58' 46" Ping reçu, 2318
30/08/2026 05h 58' 46" cPing.
30/08/2026 05h 58' 35" Ping reçu,         2315
30/08/2026 05h 58' 31" Ping reçu, 2314
30/08/2026 05h 58' 27" Ping reçu, 2313
30/08/2026 05h 58' 18" Ping reçu, 2311
30/08/2026 05h 58' 08" Enregistrement de l'éclairement (345.6 lux & 0 lux )
30/08/2026 05h 58' 05" Ping reçu, 2308
30/08/2026 05h 57' 56" Ping reçu, 2306
30/08/2026 05h 57' 51" cPing.
30/08/2026 05h 57' 48" Ping reçu, 2304
30/08/2026 05h 57' 43" Ping reçu, 2303
30/08/2026 05h 57' 39" Ping reçu, 2302
30/08/2026 05h 57' 32" Ping reçu,         2300
30/08/2026 05h 57' 23" Ping reçu, 2298
30/08/2026 05h 57' 19" Ping reçu, 2297
30/08/2026 05h 57' 11" ERR. Ther. 1 HS.
30/08/2026 05h 57' 10" Ping reçu,         2295
30/08/2026 05h 57' 06" Ping reçu, 2294
30/08/2026 05h 57' 02" Ping reçu, 2293
30/08/2026 05h 56' 54" Ping reçu, 2292
30/08/2026 05h 56' 54" cPing.
30/08/2026 05h 56' 50" Ping reçu, 2291
30/08/2026 05h 56' 43" Ping reçu, 2289
30/08/2026 05h 56' 39" Ping reçu, 2288
30/08/2026 05h 56' 34" Ping reçu, 2287
30/08/2026 05h 56' 26" Ping reçu,         2285
30/08/2026 05h 56' 21" Ping reçu, 2284
30/08/2026 05h 56' 17" Ping reçu, 2283
30/08/2026 05h 56' 12" Ping reçu, 2282
30/08/2026 05h 56' 08" Ping reçu, 2281
30/08/2026 05h 56' 08" Enregistrement de la température (17,245 °C)
30/08/2026 05h 56' 04" Ping reçu,         2280
30/08/2026 05h 56' 00" Ping reçu, 2279
30/08/2026 05h 55' 59" cPing.
30/08/2026 05h 55' 49" Enregistrement de l'éclairement (345.6 lux & 0 lux )
30/08/2026 05h 55' 47" Ping reçu, 2276
30/08/2026 05h 55' 44" Ping reçu,         2275
30/08/2026 05h 55' 38" Ping reçu, 2274
30/08/2026 05h 55' 35" Ping reçu, 2273
30/08/2026 05h 55' 29" Ping reçu, 2272
30/08/2026 05h 55' 26" Ping reçu, 2271
30/08/2026 05h 55' 22" Ping reçu,         2270
30/08/2026 05h 55' 18" Ping reçu, 2269
30/08/2026 05h 55' 14" Ping reçu, 2268
30/08/2026 05h 55' 09" Ping reçu, 2267
30/08/2026 05h 55' 05" Ping reçu, 2266
30/08/2026 05h 55' 03" cPing.
30/08/2026 05h 55' 01" Ping reçu,         2265
30/08/2026 05h 54' 57" Ping reçu, 2264
30/08/2026 05h 54' 55" Ping reçu, 2263
30/08/2026 05h 54' 44" Ping reçu, 2261
30/08/2026 05h 54' 41" Ping reçu,         2260
30/08/2026 05h 54' 37" Ping reçu, 2259
30/08/2026 05h 54' 33" Ping reçu, 2258
30/08/2026 05h 54' 29" Ping reçu, 2257
30/08/2026 05h 54' 24" Ping reçu, 2256
30/08/2026 05h 54' 20" Ping reçu,         2255
30/08/2026 05h 54' 15" Ping reçu, 2254
30/08/2026 05h 54' 11" Ping reçu, 2253
30/08/2026 05h 54' 07" Ping reçu, 2252
30/08/2026 05h 54' 06" cPing.
30/08/2026 05h 54' 03" Ping reçu, 2251
30/08/2026 05h 54' 00" Ping reçu,         2250
30/08/2026 05h 53' 56" Enregistrement Température du pluviometre : (20,8 °C)
30/08/2026 05h 53' 53" Ping reçu, 2249
30/08/2026 05h 53' 48" Ping reçu, 2248
30/08/2026 05h 53' 35" Ping reçu,         2245
30/08/2026 05h 53' 33" Enregistrement de l'éclairement (345.6 lux & 0 lux )
30/08/2026 05h 53' 31" Ping reçu, 2244
30/08/2026 05h 53' 24" Ping reçu, 2242
30/08/2026 05h 53' 20" Ping reçu, 2241
30/08/2026 05h 53' 16" Ping reçu,         2240
30/08/2026 05h 53' 16" Enregistrement de la hauteur d'eau (783,600 mm @ 100,0%)
30/08/2026 05h 53' 15" Enregistrement de l'humidité (99,90 %)
30/08/2026 05h 53' 11" cPing.
30/08/2026 05h 53' 09" ERR. Ther. 14 HS.
30/08/2026 05h 53' 03" Ping reçu, 2238
30/08/2026 05h 53' 00" Ping reçu, 2237
30/08/2026 05h 52' 56" Ping reçu, 2236
30/08/2026 05h 52' 53" Ping reçu,         2235
30/08/2026 05h 52' 42" Ping reçu, 2233
30/08/2026 05h 52' 40" Ping reçu, 2232
30/08/2026 05h 52' 31" Ping reçu,         2230
30/08/2026 05h 52' 24" Enregistrement de l'éclairement (345.6 lux & 0 lux )
30/08/2026 05h 52' 18" Ping reçu, 2227
30/08/2026 05h 52' 14" cPing.
30/08/2026 05h 52' 09" Ping reçu,         2225
30/08/2026 05h 52' 00" Ping reçu, 2223
30/08/2026 05h 51' 57" Ping reçu, 2222
30/08/2026 05h 51' 54" Ping reçu, 2221
30/08/2026 05h 51' 51" Enregistrement de la température (17,300 °C)
30/08/2026 05h 51' 39" Ping reçu, 2218
30/08/2026 05h 51' 32" Ping reçu, 2216
30/08/2026 05h 51' 28" Ping reçu,         2215
30/08/2026 05h 51' 23" Ping reçu, 2214
30/08/2026 05h 51' 20" Ping reçu, 2213
30/08/2026 05h 51' 18" Enregistrement de l'éclairement (345.6 lux & 0 lux )
30/08/2026 05h 51' 18" cPing.
30/08/2026 05h 51' 15" Ping reçu, 2212
30/08/2026 05h 51' 11" Ping reçu, 2211
30/08/2026 05h 51' 06" Ping reçu,         2210
30/08/2026 05h 51' 02" Ping reçu, 2209
30/08/2026 05h 50' 54" Ping reçu, 2207
30/08/2026 05h 50' 40" Ping reçu, 2204
30/08/2026 05h 50' 33" Ping reçu, 2202
30/08/2026 05h 50' 25" Ping reçu,         2200
30/08/2026 05h 50' 21" cPing.
30/08/2026 05h 50' 21" Ping reçu, 2199
30/08/2026 05h 50' 12" Ping reçu, 2197
30/08/2026 05h 50' 03" Ping reçu,         2195
30/08/2026 05h 49' 59" Ping reçu, 2194
30/08/2026 05h 49' 55" Ping reçu, 2193
30/08/2026 05h 49' 48" Ping reçu, 2191
30/08/2026 05h 49' 44" Ping reçu,         2190
30/08/2026 05h 49' 36" Ping reçu, 2188
30/08/2026 05h 49' 34" Ping reçu, 1
30/08/2026 05h 49' 26" Ping reçu, 2186
30/08/2026 05h 49' 26" cPing.
30/08/2026 05h 49' 23" On a tout sauvé !
30/08/2026 05h 49' 22" Ping reçu,         2185
30/08/2026 05h 49' 14" ERR. Ther. 14 HS.
30/08/2026 05h 49' 14" ERR. Ther. 1 HS.
30/08/2026 05h 49' 13" Ping reçu, 2183
30/08/2026 05h 49' 09" Ping reçu, 2182
30/08/2026 05h 49' 05" Ping reçu, 2181
30/08/2026 05h 49' 03" Enregistrement de l'éclairement (345.6 lux & 0 lux )
30/08/2026 05h 48' 56" Ping reçu, 2179
30/08/2026 05h 48' 47" Ping reçu, 2177
30/08/2026 05h 48' 39" Ping reçu,         2175
30/08/2026 05h 48' 35" Ping reçu, 2174
30/08/2026 05h 48' 32" Ping reçu, 2173
30/08/2026 05h 48' 29" cPing.
30/08/2026 05h 48' 15" Ping reçu, 2169
30/08/2026 05h 48' 11" Ping reçu, 2168
30/08/2026 05h 48' 07" Ping reçu, 2167
30/08/2026 05h 48' 02" Ping reçu, 2166
30/08/2026 05h 47' 58" Ping reçu,         2165
30/08/2026 05h 47' 56" Enregistrement de l'éclairement (345.6 lux & 0 lux )
30/08/2026 05h 47' 54" Ping reçu, 2164
30/08/2026 05h 47' 47" Ping reçu, 2162
30/08/2026 05h 47' 40" Enregistrement de la température (17,318 °C)
30/08/2026 05h 47' 39" Ping reçu,         2160
30/08/2026 05h 47' 38" Enregistrement des paramètres du vent (49.1° @ 0 m/s)
30/08/2026 05h 47' 38" Enregistrement de la Pression atmosphérique (1027,841 hPa)
30/08/2026 05h 47' 34" cPing.
30/08/2026 05h 47' 31" Ping reçu, 2159
30/08/2026 05h 47' 27" Ping reçu, 2158
30/08/2026 05h 47' 24" Ping reçu, 2157
30/08/2026 05h 47' 07" Ping reçu, 2153
30/08/2026 05h 46' 54" Ping reçu,         2150
30/08/2026 05h 46' 50" Ping reçu, 2149
30/08/2026 05h 46' 46" Ping reçu, 2148
30/08/2026 05h 46' 37" Ping reçu, 2146
30/08/2026 05h 46' 37" cPing.
30/08/2026 05h 46' 32" Ping reçu,         2145
30/08/2026 05h 46' 28" Ping reçu, 2144
30/08/2026 05h 46' 24" Ping reçu, 2143
30/08/2026 05h 46' 21" Ping reçu, 2142
30/08/2026 05h 46' 17" Ping reçu, 2141
30/08/2026 05h 46' 13" Ping reçu,         2140
30/08/2026 05h 46' 04" Ping reçu, 2138
30/08/2026 05h 46' 00" Ping reçu, 2137
30/08/2026 05h 45' 56" Ping reçu, 2136
30/08/2026 05h 45' 47" Ping reçu, 2134
30/08/2026 05h 45' 43" Ping reçu, 2133
30/08/2026 05h 45' 42" cPing.
30/08/2026 05h 45' 41" Enregistrement de l'éclairement (345.6 lux & 0 lux )
30/08/2026 05h 45' 34" Ping reçu, 2131
30/08/2026 05h 45' 30" Ping reçu,         2130
30/08/2026 05h 45' 27" Ping reçu, 2129
30/08/2026 05h 45' 23" Ping reçu, 2128
30/08/2026 05h 45' 20" ERR. Ther. 14 HS.
30/08/2026 05h 45' 19" ERR. Ther. 1 HS.
30/08/2026 05h 45' 17" Ping reçu, 2127
30/08/2026 05h 45' 14" Ping reçu, 2126
30/08/2026 05h 45' 10" Ping reçu,         2125
30/08/2026 05h 45' 01" Ping reçu, 2123
30/08/2026 05h 44' 57" Ping reçu, 2122
30/08/2026 05h 44' 53" Ping reçu, 2121
30/08/2026 05h 44' 48" Ping reçu,         2120
30/08/2026 05h 44' 45" cPing.
30/08/2026 05h 44' 35" Ping reçu, 2117
30/08/2026 05h 44' 31" Ping reçu, 2116
30/08/2026 05h 44' 27" Ping reçu,         2115
30/08/2026 05h 44' 24" Ping reçu, 2114
30/08/2026 05h 44' 16" Ping reçu, 2112
30/08/2026 05h 44' 11" Ping reçu, 2111
30/08/2026 05h 44' 07" Ping reçu,         2110
30/08/2026 05h 43' 58" Ping reçu, 2108
30/08/2026 05h 43' 54" Ping reçu, 2107
30/08/2026 05h 43' 50" cPing.
30/08/2026 05h 43' 41" Ping reçu, 2104
30/08/2026 05h 43' 36" Ping reçu, 2103
30/08/2026 05h 43' 29" Enregistrement de l'Arduino : (22,5 °C)
30/08/2026 05h 43' 26" Ping reçu, 2101
30/08/2026 05h 43' 24" Enregistrement de la température (17,385 °C)
30/08/2026 05h 43' 23" Enregistrement de l'humidité (99,90 %)
30/08/2026 05h 43' 23" Enregistrement de l'éclairement (345.6 lux & 0 lux )
30/08/2026 05h 43' 22" Ping reçu,         2100
30/08/2026 05h 43' 17" Ping reçu, 2099
30/08/2026 05h 43' 13" Ping reçu, 2098
30/08/2026 05h 43' 05" Ping reçu, 2096
30/08/2026 05h 42' 53" cPing.
30/08/2026 05h 42' 47" Ping reçu, 2092
30/08/2026 05h 42' 42" Ping reçu, 2091
30/08/2026 05h 42' 38" Ping reçu,         2090
30/08/2026 05h 42' 26" Ping reçu, 2087
30/08/2026 05h 42' 23" Ping reçu, 2086
30/08/2026 05h 42' 17" Ping reçu,         2085
30/08/2026 05h 42' 16" Enregistrement de l'éclairement (345.6 lux & 0 lux )
30/08/2026 05h 42' 15" Ping reçu, 2084
30/08/2026 05h 42' 10" Ping reçu, 2083
30/08/2026 05h 42' 06" Ping reçu, 2082
30/08/2026 05h 41' 58" Pressions pluviométriques (32,07 & 64,00)
30/08/2026 05h 41' 57" Enregistrement de la hauteur d'eau (783,610 mm @ 99,7%)
30/08/2026 05h 41' 57" cPing.
30/08/2026 05h 41' 56" Enregistrement des paramètres du vent (49.1° @ 0 m/s)
30/08/2026 05h 41' 52" Ping reçu, 2079
30/08/2026 05h 41' 48" Ping reçu, 2078
30/08/2026 05h 41' 38" Enregistrement Température du pluviometre : (20,8 °C)
30/08/2026 05h 41' 36" Ping reçu, 2076
30/08/2026 05h 41' 32" Ping reçu,         2075
30/08/2026 05h 41' 24" Ping reçu, 2073
30/08/2026 05h 41' 20" Ping reçu, 2072
30/08/2026 05h 41' 17" ERR. Ther. 1 HS.
30/08/2026 05h 41' 17" ERR. Ther. 14 HS.
30/08/2026 05h 41' 16" Ping reçu, 2071
30/08/2026 05h 41' 08" Ping reçu, 2069
30/08/2026 05h 41' 05" Enregistrement de l'éclairement (345.6 lux & 0 lux )
30/08/2026 05h 41' 03" Ping reçu, 2068
30/08/2026 05h 41' 02" cPing.
30/08/2026 05h 40' 59" Ping reçu, 2067
30/08/2026 05h 40' 51" Rw SD-card.
30/08/2026 05h 40' 50" Ping reçu,         2065
30/08/2026 05h 40' 46" Ping reçu, 2064
30/08/2026 05h 40' 42" Ping reçu, 2063
30/08/2026 05h 40' 37" Ping reçu, 2062
30/08/2026 05h 40' 33" Ping reçu, 2061
30/08/2026 05h 40' 29" Ping reçu,         2060
30/08/2026 05h 40' 26" Ping reçu, 2059
30/08/2026 05h 40' 22" Ping reçu, 2058
30/08/2026 05h 40' 14" Ping reçu, 2056
30/08/2026 05h 40' 09" Ping reçu,         2055
30/08/2026 05h 40' 05" cPing.
30/08/2026 05h 40' 00" Ping reçu, 2053
30/08/2026 05h 39' 52" Ping reçu, 2051
30/08/2026 05h 39' 48" Ping reçu,         2050
30/08/2026 05h 39' 44" Ping reçu, 2049
30/08/2026 05h 39' 41" Ping reçu, 2048
30/08/2026 05h 39' 35" Ping reçu, 2047
30/08/2026 05h 39' 32" Ping reçu, 2046
30/08/2026 05h 39' 10" cPing.
30/08/2026 05h 39' 08" Enregistrement de la température (17,399 °C)
30/08/2026 05h 39' 01" Ping reçu, 2039
30/08/2026 05h 38' 57" Ping reçu, 2038
30/08/2026 05h 38' 52" Ping reçu, 2037
30/08/2026 05h 38' 49" Enregistrement de l'éclairement (345.6 lux & 0 lux )
30/08/2026 05h 38' 35" Ping reçu, 2033
30/08/2026 05h 38' 31" Ping reçu, 2032
30/08/2026 05h 38' 26" Ping reçu, 2031
30/08/2026 05h 38' 22" Ping reçu,         2030
30/08/2026 05h 38' 18" Ping reçu, 2029
30/08/2026 05h 38' 13" cPing.
30/08/2026 05h 38' 11" Ping reçu, 2027
30/08/2026 05h 38' 07" Ping reçu, 2026
30/08/2026 05h 38' 03" Ping reçu,         2025
30/08/2026 05h 37' 50" Ping reçu, 2022
30/08/2026 05h 37' 45" Ping reçu, 2021
30/08/2026 05h 37' 41" Ping reçu,         2020
30/08/2026 05h 37' 37" Ping reçu, 2019
30/08/2026 05h 37' 33" Ping reçu, 2018
30/08/2026 05h 37' 20" ERR. Ther. 14 HS.
30/08/2026 05h 37' 18" cPing.
30/08/2026 05h 37' 14" Ping reçu, 2014
30/08/2026 05h 37' 10" Ping reçu, 2013
30/08/2026 05h 37' 06" Ping reçu, 2012
30/08/2026 05h 37' 02" Ping reçu, 2011
30/08/2026 05h 36' 59" Ping reçu,         2010
30/08/2026 05h 36' 55" Ping reçu, 2009
30/08/2026 05h 36' 51" Ping reçu, 2008
30/08/2026 05h 36' 47" Ping reçu, 2007
30/08/2026 05h 36' 34" Ping reçu, 2004
30/08/2026 05h 36' 30" Ping reçu, 2003
30/08/2026 05h 36' 27" Ping reçu, 2002
30/08/2026 05h 36' 23" Ping reçu, 2001
30/08/2026 05h 36' 21" cPing.
30/08/2026 05h 36' 18" Enregistrement des paramètres du vent (49.1° @ 0 m/s)
30/08/2026 05h 36' 18" Ping reçu,         2000
30/08/2026 05h 36' 12" Ping reçu, 1999
30/08/2026 05h 36' 09" Ping reçu, 1998
30/08/2026 05h 36' 05" Ping reçu, 1997
30/08/2026 05h 36' 01" Ping reçu, 1996
30/08/2026 05h 35' 57" Ping reçu,         1995
30/08/2026 05h 35' 53" Ping reçu, 1994
30/08/2026 05h 35' 48" Ping reçu, 1993
30/08/2026 05h 35' 44" Ping reçu, 1992
30/08/2026 05h 35' 39" Ping reçu, 1991
30/08/2026 05h 35' 36" Ping reçu,         1990
30/08/2026 05h 35' 30" Enregistrement de l'éclairement (345.6 lux & 0 lux )
30/08/2026 05h 35' 27" Ping reçu, 1988
30/08/2026 05h 35' 25" cPing.
30/08/2026 05h 35' 20" Ping reçu, 1986
30/08/2026 05h 35' 16" Ping reçu,         1985
30/08/2026 05h 35' 07" Ping reçu, 1983
30/08/2026 05h 35' 03" Ping reçu, 1
30/08/2026 05h 35' 03" Ping reçu, 1982
30/08/2026 05h 34' 59" Ping reçu, 1981
30/08/2026 05h 34' 56" Enregistrement de la température (17,436 °C)
30/08/2026 05h 34' 53" Ping reçu, 1
30/08/2026 05h 34' 50" Ping reçu, 1979
30/08/2026 05h 34' 41" On a tout sauvé !
30/08/2026 05h 34' 41" Ping reçu, 1977
30/08/2026 05h 34' 36" Ping reçu, 1976
30/08/2026 05h 34' 32" Ping reçu,         1975
30/08/2026 05h 34' 28" cPing.
30/08/2026 05h 34' 27" Ping reçu, 1974
30/08/2026 05h 34' 22" Enregistrement de l'éclairement (345.6 lux & 0 lux )
30/08/2026 05h 34' 10" Ping reçu,         1970
30/08/2026 05h 34' 03" Ping reçu, 1968
30/08/2026 05h 33' 57" Ping reçu, 1967
30/08/2026 05h 33' 50" Ping reçu,         1965
30/08/2026 05h 33' 41" Ping reçu, 1963
30/08/2026 05h 33' 37" Ping reçu, 1962
30/08/2026 05h 33' 33" Ping reçu, 1961
30/08/2026 05h 33' 33" cPing.
30/08/2026 05h 33' 29" Enregistrement de l'humidité (99,90 %)
30/08/2026 05h 33' 29" Ping reçu,         1960
30/08/2026 05h 33' 24" Ping reçu, 1959
30/08/2026 05h 33' 11" Ping reçu, 1956
30/08/2026 05h 33' 06" Ping reçu,         1955
30/08/2026 05h 32' 58" Ping reçu, 1953
30/08/2026 05h 32' 54" Ping reçu, 1952
30/08/2026 05h 32' 49" Ping reçu, 1951
30/08/2026 05h 32' 36" cPing.
30/08/2026 05h 32' 34" Ping reçu, 1947
30/08/2026 05h 32' 30" Ping reçu, 1946
30/08/2026 05h 32' 25" Ping reçu,         1945
30/08/2026 05h 32' 21" Ping reçu, 1944
30/08/2026 05h 32' 12" Ping reçu, 1942
30/08/2026 05h 32' 04" Ping reçu,         1940
30/08/2026 05h 32' 00" Ping reçu, 1939
30/08/2026 05h 31' 53" Ping reçu, 1937
30/08/2026 05h 31' 49" Ping reçu, 1936
30/08/2026 05h 31' 44" Ping reçu,         1935
30/08/2026 05h 31' 41" cPing.
30/08/2026 05h 31' 40" Ping reçu, 1934
30/08/2026 05h 31' 36" Ping reçu, 1933
30/08/2026 05h 31' 32" Ping reçu, 1932
30/08/2026 05h 31' 27" Ping reçu, 1931
30/08/2026 05h 31' 23" Ping reçu,         1930
30/08/2026 05h 31' 14" Ping reçu, 1928
30/08/2026 05h 31' 09" Ping reçu, 1927
30/08/2026 05h 31' 05" Ping reçu, 1926
30/08/2026 05h 30' 57" Ping reçu, 1924
30/08/2026 05h 30' 45" Ping reçu, 1921
30/08/2026 05h 30' 45" cPing.
30/08/2026 05h 30' 42" Enregistrement de la température (17,455 °C)
30/08/2026 05h 30' 42" Pressions pluviométriques (32,07 & 64,00)
30/08/2026 05h 30' 42" Enregistrement de la hauteur d'eau (783,580 mm @ 99,7%)
30/08/2026 05h 30' 41" Ping reçu,         1920
30/08/2026 05h 30' 39" Enregistrement de la Pression atmosphérique (1027,808 hPa)
30/08/2026 05h 30' 33" Ping reçu, 1919
30/08/2026 05h 30' 25" Ping reçu, 1917
30/08/2026 05h 30' 21" Ping reçu, 1916
30/08/2026 05h 30' 17" Ping reçu,         1915
30/08/2026 05h 30' 14" Ping reçu, 1914
30/08/2026 05h 30' 10" Ping reçu, 1913
30/08/2026 05h 30' 06" Ping reçu, 1912
30/08/2026 05h 30' 02" Ping reçu, 1911
30/08/2026 05h 29' 56" Enregistrement de l'Arduino : (22,5 °C)
30/08/2026 05h 29' 54" Ping reçu,         1910
30/08/2026 05h 29' 50" Ping reçu, 1909
30/08/2026 05h 29' 48" cPing.
30/08/2026 05h 29' 47" Ping reçu, 1908
30/08/2026 05h 29' 39" Ping reçu, 1906
30/08/2026 05h 29' 35" Ping reçu,         1905
30/08/2026 05h 29' 26" ERR. Ther. 14 HS.
30/08/2026 05h 29' 24" Enregistrement Température du pluviometre : (20,9 °C)
30/08/2026 05h 29' 17" Ping reçu, 1902
30/08/2026 05h 29' 13" Ping reçu, 1901
30/08/2026 05h 29' 09" Ping reçu,         1900
30/08/2026 05h 29' 06" Ping reçu, 1899
30/08/2026 05h 29' 02" Ping reçu, 1898
30/08/2026 05h 28' 58" Ping reçu, 1897
30/08/2026 05h 28' 54" Ping reçu, 1896
30/08/2026 05h 28' 53" cPing.
30/08/2026 05h 28' 50" Ping reçu,         1895
30/08/2026 05h 28' 45" Ping reçu, 1894
30/08/2026 05h 28' 41" Ping reçu, 1893
30/08/2026 05h 28' 33" Ping reçu, 1891
30/08/2026 05h 28' 21" Ping reçu, 1888
30/08/2026 05h 28' 11" Ping reçu, 1886
30/08/2026 05h 28' 08" Ping reçu,         1885
30/08/2026 05h 28' 04" Ping reçu, 1884
30/08/2026 05h 27' 56" cPing.
30/08/2026 05h 27' 56" Ping reçu, 1882
30/08/2026 05h 27' 47" Ping reçu,         1880
30/08/2026 05h 27' 43" Ping reçu, 1879
30/08/2026 05h 27' 34" Ping reçu, 1877
30/08/2026 05h 27' 33" Enregistrement de l'éclairement (345.6 lux & 0 lux )
30/08/2026 05h 27' 30" Ping reçu, 1876
30/08/2026 05h 27' 26" Ping reçu,         1875
30/08/2026 05h 27' 19" Ping reçu, 1873
30/08/2026 05h 27' 15" Ping reçu, 1872
30/08/2026 05h 27' 02" Ping reçu, 1869
30/08/2026 05h 27' 01" cPing.
30/08/2026 05h 26' 57" Ping reçu, 1868
30/08/2026 05h 26' 44" Ping reçu,         1865
30/08/2026 05h 26' 40" Ping reçu, 1864
30/08/2026 05h 26' 36" Ping reçu, 1863
30/08/2026 05h 26' 32" Ping reçu, 1862
30/08/2026 05h 26' 26" Enregistrement de la température (17,493 °C)
30/08/2026 05h 26' 20" Ping reçu, 1859
30/08/2026 05h 26' 16" Ping reçu, 1858
30/08/2026 05h 26' 12" Ping reçu, 1857
30/08/2026 05h 26' 08" Ping reçu, 1856
30/08/2026 05h 26' 04" cPing.
30/08/2026 05h 25' 54" Ping reçu, 1853
30/08/2026 05h 25' 50" Ping reçu, 1852
30/08/2026 05h 25' 46" Ping reçu, 1851
30/08/2026 05h 25' 42" Ping reçu,         1850
30/08/2026 05h 25' 38" Ping reçu, 1849
30/08/2026 05h 25' 31" ERR. Ther. 1 HS.
30/08/2026 05h 25' 29" Ping reçu, 1847
30/08/2026 05h 25' 26" Ping reçu, 1846
30/08/2026 05h 25' 18" Ping reçu, 1844
30/08/2026 05h 25' 09" cPing.
30/08/2026 05h 25' 05" Ping reçu, 1841
30/08/2026 05h 24' 56" Ping reçu, 1839
30/08/2026 05h 24' 47" Ping reçu, 1837
30/08/2026 05h 24' 43" Ping reçu, 1836
30/08/2026 05h 24' 39" Ping reçu,         1835
30/08/2026 05h 24' 35" Ping reçu, 1834
30/08/2026 05h 24' 24" Ping reçu, 1831
30/08/2026 05h 24' 12" Enregistrement de l'éclairement (345.6 lux & 0 lux )
30/08/2026 05h 24' 11" cPing.
30/08/2026 05h 24' 11" Ping reçu, 1828
30/08/2026 05h 24' 06" Ping reçu, 1827
30/08/2026 05h 23' 57" Ping reçu,         1825
30/08/2026 05h 23' 53" Ping reçu, 1824
30/08/2026 05h 23' 49" Ping reçu, 1823
30/08/2026 05h 23' 45" Ping reçu, 1822
30/08/2026 05h 23' 40" Ping reçu, 1821
30/08/2026 05h 23' 38" Enregistrement de l'humidité (99,90 %)
30/08/2026 05h 23' 36" Ping reçu,         1820
30/08/2026 05h 23' 27" Ping reçu, 1818
30/08/2026 05h 23' 23" Ping reçu, 1817
30/08/2026 05h 23' 20" Ping reçu, 1816
30/08/2026 05h 23' 16" cPing.
30/08/2026 05h 23' 11" Ping reçu, 1814
30/08/2026 05h 23' 07" Enregistrement de l'éclairement (345.6 lux & 0 lux )
30/08/2026 05h 23' 07" Ping reçu, 1813
30/08/2026 05h 22' 54" Ping reçu,         1810
30/08/2026 05h 22' 50" Ping reçu, 1809
30/08/2026 05h 22' 45" Ping reçu, 1808
30/08/2026 05h 22' 41" Ping reçu, 1807
30/08/2026 05h 22' 37" Ping reçu, 1806
30/08/2026 05h 22' 33" Ping reçu,         1805
30/08/2026 05h 22' 30" Ping reçu, 1804
30/08/2026 05h 22' 22" Ping reçu, 1802
30/08/2026 05h 22' 19" cPing.
30/08/2026 05h 22' 15" Enregistrement de la température (17,503 °C)
30/08/2026 05h 22' 14" Enregistrement de la Pression atmosphérique (1027,792 hPa)
30/08/2026 05h 22' 13" Ping reçu,         1800
30/08/2026 05h 22' 09" Ping reçu, 1799
30/08/2026 05h 22' 04" Ping reçu, 1798
30/08/2026 05h 22' 00" Ping reçu, 1797
30/08/2026 05h 21' 56" Ping reçu, 1796
30/08/2026 05h 21' 51" Ping reçu,         1795
30/08/2026 05h 21' 47" Ping reçu, 1794
30/08/2026 05h 21' 39" Ping reçu, 1792
30/08/2026 05h 21' 36" ERR. Ther. 1 HS.
30/08/2026 05h 21' 36" ERR. Ther. 14 HS.
30/08/2026 05h 21' 34" Ping reçu, 1791
30/08/2026 05h 21' 30" Ping reçu,         1790
30/08/2026 05h 21' 24" cPing.
30/08/2026 05h 21' 21" Ping reçu, 1788
30/08/2026 05h 21' 18" Ping reçu, 1787
30/08/2026 05h 21' 14" Ping reçu, 1786
30/08/2026 05h 21' 10" Ping reçu,         1785
30/08/2026 05h 21' 06" Ping reçu, 1784
30/08/2026 05h 21' 02" Ping reçu, 1783
30/08/2026 05h 20' 51" Enregistrement de l'éclairement (345.6 lux & 0 lux )
30/08/2026 05h 20' 48" Ping reçu,         1780
30/08/2026 05h 20' 44" Ping reçu, 1779
30/08/2026 05h 20' 40" Ping reçu, 1778
30/08/2026 05h 20' 36" Ping reçu, 1777
30/08/2026 05h 20' 31" Ping reçu, 1776
30/08/2026 05h 20' 27" Ping reçu,         1775
30/08/2026 05h 20' 27" cPing.
30/08/2026 05h 20' 22" Ping reçu, 1774
30/08/2026 05h 20' 18" Ping reçu, 1773
30/08/2026 05h 20' 15" Ping reçu, 1772
30/08/2026 05h 20' 11" Ping reçu, 1771
30/08/2026 05h 20' 11" On a tout sauvé !
30/08/2026 05h 20' 06" Ping reçu,         1770
30/08/2026 05h 19' 53" Ping reçu, 1767
30/08/2026 05h 19' 44" Ping reçu,         1765
30/08/2026 05h 19' 40" Enregistrement de l'éclairement (345.6 lux & 0 lux )
30/08/2026 05h 19' 32" cPing.
30/08/2026 05h 19' 26" Ping reçu, 1761
30/08/2026 05h 19' 23" Enregistrement de la hauteur d'eau (783,610 mm @ 99,8%)
30/08/2026 05h 19' 22" Ping reçu,         1760
30/08/2026 05h 19' 21" Enregistrement des paramètres du vent (49.1° @ 0 m/s)
30/08/2026 05h 19' 17" Ping reçu, 1759
30/08/2026 05h 19' 08" Ping reçu, 1757
30/08/2026 05h 19' 00" Ping reçu,         1755
30/08/2026 05h 18' 56" Ping reçu, 1754
30/08/2026 05h 18' 51" Ping reçu, 1753
30/08/2026 05h 18' 38" Ping reçu,         1750
30/08/2026 05h 18' 35" cPing.
30/08/2026 05h 18' 34" Ping reçu, 1749
30/08/2026 05h 18' 33" Enregistrement de l'éclairement (345.6 lux & 0 lux )
30/08/2026 05h 18' 27" Ping reçu, 1747
30/08/2026 05h 18' 15" Ping reçu, 1744
30/08/2026 05h 18' 10" Ping reçu, 1743
30/08/2026 05h 18' 06" Ping reçu, 1742
30/08/2026 05h 18' 02" Ping reçu, 1741
30/08/2026 05h 17' 59" Enregistrement de la température (17,520 °C)
30/08/2026 05h 17' 57" Ping reçu,         1740
30/08/2026 05h 17' 53" Ping reçu, 1739
30/08/2026 05h 17' 48" Ping reçu, 1738
30/08/2026 05h 17' 39" cPing.
30/08/2026 05h 17' 36" ERR. Ther. 1 HS.
30/08/2026 05h 17' 35" Ping reçu,         1735
30/08/2026 05h 17' 22" Ping reçu, 1732
30/08/2026 05h 17' 21" Enregistrement de l'éclairement (345.6 lux & 0 lux )
30/08/2026 05h 17' 18" Ping reçu, 1731
30/08/2026 05h 17' 11" Ping reçu,         1730
30/08/2026 05h 16' 58" Ping reçu, 1727
30/08/2026 05h 16' 54" Ping reçu, 1726
30/08/2026 05h 16' 50" Ping reçu,         1725
30/08/2026 05h 16' 45" Ping reçu, 1724
30/08/2026 05h 16' 44" cPing.
30/08/2026 05h 16' 41" Ping reçu, 1723
30/08/2026 05h 16' 33" Ping reçu, 1721
30/08/2026 05h 16' 30" Ping reçu,         1720
30/08/2026 05h 16' 26" Enregistrement de l'Arduino : (22,5 °C)
30/08/2026 05h 16' 23" Ping reçu, 1719
30/08/2026 05h 16' 18" Ping reçu, 1718
30/08/2026 05h 16' 14" Ping reçu, 1717
30/08/2026 05h 16' 11" Enregistrement de l'éclairement (345.6 lux & 0 lux )
30/08/2026 05h 16' 05" Ping reçu,         1715
30/08/2026 05h 15' 57" Ping reçu, 1713
30/08/2026 05h 15' 53" Ping reçu, 1712
30/08/2026 05h 15' 50" Ping reçu, 1711
30/08/2026 05h 15' 47" cPing.
30/08/2026 05h 15' 41" Ping reçu, 1709
30/08/2026 05h 15' 33" Ping reçu, 1707
30/08/2026 05h 15' 29" Ping reçu, 1706
30/08/2026 05h 15' 24" Ping reçu,         1705
30/08/2026 05h 15' 11" Ping reçu, 1702
30/08/2026 05h 15' 07" Ping reçu, 1701
30/08/2026 05h 15' 03" Ping reçu,         1700
30/08/2026 05h 15' 00" Ping reçu, 1699
30/08/2026 05h 14' 52" cPing.
30/08/2026 05h 14' 43" I2C : 5h 14m 41s, ok
30/08/2026 05h 14' 43" Resync.
30/08/2026 05h 14' 40" NTP : 5h 14m 40s.
30/08/2026 05h 14' 39" Ping reçu,         1695
30/08/2026 05h 14' 30" Ping reçu, 1693
30/08/2026 05h 14' 26" Ping reçu, 1692
30/08/2026 05h 14' 18" Ping reçu,         1690
30/08/2026 05h 14' 14" Ping reçu, 1689
30/08/2026 05h 14' 11" Ping reçu, 1688
30/08/2026 05h 14' 07" Ping reçu, 1687
30/08/2026 05h 14' 03" Ping reçu, 1686
30/08/2026 05h 13' 59" Ping reçu,         1685
30/08/2026 05h 13' 55" cPing.
30/08/2026 05h 13' 54" Ping reçu, 1684
30/08/2026 05h 13' 45" Ping reçu, 1682
30/08/2026 05h 13' 41" Ping reçu, 1681
30/08/2026 05h 13' 37" Enregistrement des paramètres du vent (49.1° @ 0 m/s)
30/08/2026 05h 13' 36" Enregistrement de la Pression atmosphérique (1027,796 hPa)
30/08/2026 05h 13' 32" ERR. Ther. 14 HS.
30/08/2026 05h 13' 17" Ping reçu, 1676
30/08/2026 05h 13' 13" Ping reçu,         1675
30/08/2026 05h 13' 09" Ping reçu, 1674
30/08/2026 05h 13' 00" Ping reçu, 1672
30/08/2026 05h 13' 00" cPing.
30/08/2026 05h 12' 48" Ping reçu, 1669
30/08/2026 05h 12' 47" Enregistrement de l'éclairement (345.6 lux & 0 lux )
30/08/2026 05h 12' 41" Ping reçu, 1667
30/08/2026 05h 12' 37" Ping reçu, 1666
30/08/2026 05h 12' 28" Ping reçu, 1664
30/08/2026 05h 12' 24" Ping reçu, 1663
30/08/2026 05h 12' 20" Ping reçu, 1662
30/08/2026 05h 12' 15" Ping reçu, 1661
30/08/2026 05h 12' 11" Ping reçu,         1660
30/08/2026 05h 12' 03" cPing.
30/08/2026 05h 11' 58" Ping reçu, 1657
30/08/2026 05h 11' 54" Ping reçu, 1656
30/08/2026 05h 11' 50" Ping reçu,         1655
30/08/2026 05h 11' 47" Ping reçu, 1654
30/08/2026 05h 11' 40" Enregistrement de l'éclairement (345.6 lux & 0 lux )
30/08/2026 05h 11' 39" Ping reçu, 1652
30/08/2026 05h 11' 35" Ping reçu, 1651
30/08/2026 05h 11' 30" Ping reçu,         1650
30/08/2026 05h 11' 26" Ping reçu, 1649
30/08/2026 05h 11' 21" Ping reçu, 1648
30/08/2026 05h 11' 17" Ping reçu, 1647
30/08/2026 05h 11' 13" Ping reçu, 1646
30/08/2026 05h 11' 09" Ping reçu,         1645
30/08/2026 05h 11' 08" cPing.
30/08/2026 05h 11' 05" Ping reçu, 1644
30/08/2026 05h 11' 02" Ping reçu, 1643
30/08/2026 05h 10' 53" Ping reçu, 1641
30/08/2026 05h 10' 49" Ping reçu,         1640
30/08/2026 05h 10' 36" Ping reçu, 1637
30/08/2026 05h 10' 33" Enregistrement de l'éclairement (345.6 lux & 0 lux )
30/08/2026 05h 10' 27" Ping reçu,         1635
30/08/2026 05h 10' 11" cPing.
30/08/2026 05h 10' 03" Ping reçu, 1629
30/08/2026 05h 09' 59" Ping reçu, 1628
30/08/2026 05h 09' 55" Ping reçu, 1627
30/08/2026 05h 09' 46" Ping reçu,         1625
30/08/2026 05h 09' 38" ERR. Ther. 1 HS.
30/08/2026 05h 09' 38" ERR. Ther. 14 HS.
30/08/2026 05h 09' 33" Ping reçu, 1622
30/08/2026 05h 09' 25" Enregistrement de l'éclairement (345.6 lux & 0 lux )
30/08/2026 05h 09' 20" Ping reçu, 1619
30/08/2026 05h 09' 15" cPing.
30/08/2026 05h 09' 11" Ping reçu, 1617
30/08/2026 05h 09' 02" Ping reçu,         1615
30/08/2026 05h 08' 53" Ping reçu, 1613
30/08/2026 05h 08' 41" Ping reçu,         1610
30/08/2026 05h 08' 38" Ping reçu, 1609
30/08/2026 05h 08' 34" Ping reçu, 1608
30/08/2026 05h 08' 30" Ping reçu, 1607
30/08/2026 05h 08' 25" Ping reçu, 1606
30/08/2026 05h 08' 21" On a tout sauvé !
30/08/2026 05h 08' 18" cPing.
30/08/2026 05h 08' 17" Enregistrement de l'éclairement (345.6 lux & 0 lux )
30/08/2026 05h 08' 17" Ping reçu, 1604
30/08/2026 05h 08' 12" Ping reçu, 1603
30/08/2026 05h 08' 03" Ping reçu, 1601
30/08/2026 05h 08' 00" Pressions pluviométriques (32,07 & 64,00)
30/08/2026 05h 07' 59" Ping reçu,         1600
30/08/2026 05h 07' 59" Enregistrement de la hauteur d'eau (783,640 mm @ 99,8%)
30/08/2026 05h 07' 59" Enregistrement des paramètres du vent (49.1° @ 0 m/s)
30/08/2026 05h 07' 45" Ping reçu, 1597
30/08/2026 05h 07' 41" Ping reçu, 1596
30/08/2026 05h 07' 37" Ping reçu,         1595
30/08/2026 05h 07' 33" Ping reçu, 1594
30/08/2026 05h 07' 24" Ping reçu, 1592
30/08/2026 05h 07' 23" cPing.
30/08/2026 05h 07' 17" Ping reçu,         1590
30/08/2026 05h 07' 13" Ping reçu, 1589
30/08/2026 05h 07' 09" Ping reçu, 1588
30/08/2026 05h 07' 04" Ping reçu, 1587
30/08/2026 05h 07' 00" Ping reçu, 1586
30/08/2026 05h 06' 56" Ping reçu,         1585
30/08/2026 05h 06' 47" Ping reçu, 1583
30/08/2026 05h 06' 39" Ping reçu, 1581
30/08/2026 05h 06' 30" Ping reçu, 1579
30/08/2026 05h 06' 27" Ping reçu, 1578
30/08/2026 05h 06' 27" cPing.
30/08/2026 05h 06' 23" Ping reçu, 1577
30/08/2026 05h 06' 19" Ping reçu, 1576
30/08/2026 05h 06' 15" Ping reçu,         1575
30/08/2026 05h 06' 11" Ping reçu, 1574
30/08/2026 05h 06' 06" Ping reçu, 1573
30/08/2026 05h 06' 05" Enregistrement de l'éclairement (345.6 lux & 0 lux )
30/08/2026 05h 06' 02" Ping reçu, 1572
30/08/2026 05h 05' 58" Ping reçu, 1571
30/08/2026 05h 05' 54" Ping reçu,         1570
30/08/2026 05h 05' 51" Ping reçu, 1569
30/08/2026 05h 05' 43" ERR. Ther. 1 HS.
30/08/2026 05h 05' 43" ERR. Ther. 14 HS.
30/08/2026 05h 05' 42" Ping reçu, 1567
30/08/2026 05h 05' 38" Ping reçu, 1566
30/08/2026 05h 05' 30" cPing.
30/08/2026 05h 05' 25" Ping reçu, 1563
30/08/2026 05h 05' 12" Ping reçu,         1560
30/08/2026 05h 05' 12" Enregistrement de la Pression atmosphérique (1027,820 hPa)
30/08/2026 05h 05' 03" Ping reçu, 1558
30/08/2026 05h 04' 58" Enregistrement Température du pluviometre : (20,9 °C)
30/08/2026 05h 04' 55" Ping reçu, 1557
30/08/2026 05h 04' 54" Enregistrement de l'éclairement (345.6 lux & 0 lux )
30/08/2026 05h 04' 51" Ping reçu, 1556
30/08/2026 05h 04' 48" Ping reçu,         1555
30/08/2026 05h 04' 44" Ping reçu, 1554
30/08/2026 05h 04' 40" Ping reçu, 1553
30/08/2026 05h 04' 35" cPing.
30/08/2026 05h 04' 32" Ping reçu, 1551
30/08/2026 05h 04' 27" Ping reçu,         1550
30/08/2026 05h 04' 23" Ping reçu, 1549
30/08/2026 05h 04' 19" Ping reçu, 1548
30/08/2026 05h 04' 15" Ping reçu, 1547
30/08/2026 05h 04' 12" Ping reçu, 1546
30/08/2026 05h 04' 08" Ping reçu,         1545
30/08/2026 05h 04' 03" Ping reçu, 1544
30/08/2026 05h 03' 59" Ping reçu, 1543
30/08/2026 05h 03' 55" Ping reçu, 1542
30/08/2026 05h 03' 51" Ping reçu, 1541
30/08/2026 05h 03' 48" Enregistrement de l'éclairement (345.6 lux & 0 lux )
30/08/2026 05h 03' 47" Enregistrement de l'humidité (99,90 %)
30/08/2026 05h 03' 38" Ping reçu, 1538
30/08/2026 05h 03' 38" cPing.
30/08/2026 05h 03' 25" Ping reçu,         1535
30/08/2026 05h 03' 21" Ping reçu, 1534
30/08/2026 05h 03' 05" Ping reçu,         1530
30/08/2026 05h 03' 01" Ping reçu, 1529
30/08/2026 05h 02' 56" Enregistrement de l'Arduino : (22,5 °C)
30/08/2026 05h 02' 49" Ping reçu, 1527
30/08/2026 05h 02' 43" cPing.
30/08/2026 05h 02' 42" Ping reçu,         1525
30/08/2026 05h 02' 39" Enregistrement de l'éclairement (345.6 lux & 0 lux )
30/08/2026 05h 02' 38" Ping reçu, 1524
30/08/2026 05h 02' 34" Ping reçu, 1523
30/08/2026 05h 02' 30" Ping reçu, 1522
30/08/2026 05h 02' 26" Ping reçu, 1521
30/08/2026 05h 02' 08" Ping reçu, 1517
30/08/2026 05h 02' 03" Ping reçu, 1516
30/08/2026 05h 01' 50" Ping reçu, 1513
30/08/2026 05h 01' 46" Ping reçu, 1512
30/08/2026 05h 01' 46" cPing.
30/08/2026 05h 01' 44" ERR. Ther. 1 HS.
30/08/2026 05h 01' 44" ERR. Ther. 14 HS.
30/08/2026 05h 01' 38" Ping reçu,         1510
30/08/2026 05h 01' 35" Ping reçu, 1509
30/08/2026 05h 01' 30" Ping reçu, 1508
30/08/2026 05h 01' 26" Ping reçu, 1507
30/08/2026 05h 01' 22" Ping reçu, 1506
30/08/2026 05h 01' 18" Ping reçu,         1505
30/08/2026 05h 01' 09" Ping reçu, 1503
30/08/2026 05h 01' 05" Ping reçu, 1502
30/08/2026 05h 00' 57" Enregistrement de la température (17,650 °C)
30/08/2026 05h 00' 56" Ping reçu,         1500
30/08/2026 05h 00' 51" Ping reçu, 1499
30/08/2026 05h 00' 51" cPing.
30/08/2026 05h 00' 47" Ping reçu, 1498
30/08/2026 05h 00' 42" Ping reçu, 1497
30/08/2026 05h 00' 38" Ping reçu, 1496
30/08/2026 05h 00' 34" Ping reçu,         1495
30/08/2026 05h 00' 30" Ping reçu, 1494
30/08/2026 05h 00' 27" Ping reçu, 1493
30/08/2026 05h 00' 24" On purge les valeurs du crystal...
30/08/2026 05h 00' 23" Ping reçu, 1492
30/08/2026 05h 00' 19" Ping reçu, 1491
30/08/2026 05h 00' 15" On purge les valeurs du crystal...
30/08/2026 05h 00' 15" Ping reçu,         1490
30/08/2026 05h 00' 11" Ping reçu, 1489
30/08/2026 05h 00' 06" Ping reçu, 1488
30/08/2026 05h 00' 02" Ping reçu, 1487
30/08/2026 04h 59' 57" Ping reçu, 1486
30/08/2026 04h 59' 54" cPing.
30/08/2026 04h 59' 53" Ping reçu,         1485
30/08/2026 04h 59' 44" Ping reçu, 1483
30/08/2026 04h 59' 40" Ping reçu, 1482
30/08/2026 04h 59' 32" Ping reçu,         1480
30/08/2026 04h 59' 29" Ping reçu, 1479
30/08/2026 04h 59' 25" Ping reçu, 1478
30/08/2026 04h 59' 21" Ping reçu, 1477
30/08/2026 04h 59' 18" Enregistrement de l'éclairement (345.6 lux & 0 lux )
30/08/2026 04h 59' 17" Ping reçu, 1476
30/08/2026 04h 59' 12" Ping reçu,         1475
30/08/2026 04h 59' 08" Ping reçu, 1474
30/08/2026 04h 59' 03" Ping reçu, 1473
30/08/2026 04h 58' 59" Ping reçu, 1472
30/08/2026 04h 58' 59" cPing.
30/08/2026 04h 58' 54" Ping reçu, 1471
30/08/2026 04h 58' 50" Ping reçu,         1470
30/08/2026 04h 58' 42" Ping reçu, 1468
30/08/2026 04h 58' 38" Ping reçu, 1467
30/08/2026 04h 58' 35" Ping reçu, 1466
30/08/2026 04h 58' 22" Ping reçu, 1463
30/08/2026 04h 58' 14" Enregistrement de l'éclairement (345.6 lux & 0 lux )
30/08/2026 04h 58' 14" Ping reçu, 1461
30/08/2026 04h 58' 09" Ping reçu,         1460
30/08/2026 04h 58' 05" Ping reçu, 1459
30/08/2026 04h 58' 03" cPing.
30/08/2026 04h 58' 01" Ping reçu, 1458
30/08/2026 04h 57' 53" Ping reçu, 1456
30/08/2026 04h 57' 51" ERR. Ther. 14 HS.
30/08/2026 04h 57' 50" ERR. Ther. 1 HS.
30/08/2026 04h 57' 48" Ping reçu,         1455
30/08/2026 04h 57' 45" Ping reçu, 1454
30/08/2026 04h 57' 41" Ping reçu, 1453
30/08/2026 04h 57' 29" Ping reçu,         1450
30/08/2026 04h 57' 20" Ping reçu, 1448
30/08/2026 04h 57' 15" Ping reçu, 1447
30/08/2026 04h 57' 11" Ping reçu, 1446
30/08/2026 04h 57' 06" Ping reçu,         1445
30/08/2026 04h 57' 06" cPing.
30/08/2026 04h 56' 58" Ping reçu, 1443
30/08/2026 04h 56' 48" Pressions pluviométriques (32,07 & 64,00)
30/08/2026 04h 56' 47" Ping reçu,         1440
30/08/2026 04h 56' 47" Enregistrement de la hauteur d'eau (783,750 mm @ 99,8%)
30/08/2026 04h 56' 45" Enregistrement de la Pression atmosphérique (1027,823 hPa)
30/08/2026 04h 56' 45" Enregistrement des paramètres du vent (49.1° @ 0 m/s)
30/08/2026 04h 56' 39" Ping reçu, 1439
30/08/2026 04h 56' 35" Ping reçu, 1438
30/08/2026 04h 56' 31" Ping reçu, 1437
30/08/2026 04h 56' 22" Ping reçu,         1435
30/08/2026 04h 56' 18" Ping reçu, 1434
30/08/2026 04h 56' 14" Ping reçu, 1433
30/08/2026 04h 56' 11" cPing.
30/08/2026 04h 56' 03" Ping reçu,         1430
30/08/2026 04h 55' 56" Enregistrement de l'éclairement (345.6 lux & 0 lux )
30/08/2026 04h 55' 45" Ping reçu, 1426
30/08/2026 04h 55' 37" Ping reçu, 1424
30/08/2026 04h 55' 32" Ping reçu, 1423
30/08/2026 04h 55' 28" Ping reçu, 1422
30/08/2026 04h 55' 24" Ping reçu, 1421
30/08/2026 04h 55' 21" Ping reçu,         1420
30/08/2026 04h 55' 14" cPing.
30/08/2026 04h 55' 13" Ping reçu, 1418
30/08/2026 04h 55' 09" Ping reçu, 1417
30/08/2026 04h 55' 05" Ping reçu, 1416
30/08/2026 04h 55' 00" Ping reçu,         1415
30/08/2026 04h 54' 51" Enregistrement de l'éclairement (345.6 lux & 0 lux )
30/08/2026 04h 54' 43" Ping reçu, 1411
30/08/2026 04h 54' 35" Ping reçu, 1409
30/08/2026 04h 54' 26" Ping reçu, 1407
30/08/2026 04h 54' 19" cPing.
30/08/2026 04h 54' 06" Ping reçu, 1402
30/08/2026 04h 54' 02" Ping reçu, 1401
30/08/2026 04h 53' 57" Ping reçu, 1
30/08/2026 04h 53' 53" ERR. Ther. 1 HS.
30/08/2026 04h 53' 53" ERR. Ther. 14 HS.
30/08/2026 04h 53' 53" Ping reçu, 1399
30/08/2026 04h 53' 44" On a tout sauvé !
30/08/2026 04h 53' 44" Ping reçu, 1397
30/08/2026 04h 53' 42" Enregistrement de l'éclairement (345.6 lux & 0 lux )
30/08/2026 04h 53' 39" Ping reçu, 1396
30/08/2026 04h 53' 35" Ping reçu,         1395
30/08/2026 04h 53' 22" cPing.
30/08/2026 04h 53' 17" Ping reçu, 1391
30/08/2026 04h 53' 09" Ping reçu, 1389
30/08/2026 04h 53' 06" Ping reçu, 1388
30/08/2026 04h 53' 02" Ping reçu, 1387
30/08/2026 04h 52' 58" Ping reçu, 1386
30/08/2026 04h 52' 54" Ping reçu,         1385
30/08/2026 04h 52' 51" Enregistrement Température du pluviometre : (20,9 °C)
30/08/2026 04h 52' 45" Ping reçu, 1384
30/08/2026 04h 52' 41" Ping reçu, 1383
30/08/2026 04h 52' 33" Ping reçu, 1381
30/08/2026 04h 52' 31" Enregistrement de l'éclairement (345.6 lux & 0 lux )
30/08/2026 04h 52' 29" Ping reçu,         1380
30/08/2026 04h 52' 27" cPing.
30/08/2026 04h 52' 24" Ping reçu, 1379
30/08/2026 04h 52' 15" Ping reçu, 1377
30/08/2026 04h 52' 11" Ping reçu, 1376
30/08/2026 04h 52' 08" Ping reçu,         1375
30/08/2026 04h 52' 04" Ping reçu, 1374
30/08/2026 04h 52' 00" Ping reçu, 1373
30/08/2026 04h 51' 56" Ping reçu, 1372
30/08/2026 04h 51' 51" Ping reçu, 1371
30/08/2026 04h 51' 47" Ping reçu,         1370
30/08/2026 04h 51' 43" Ping reçu, 1369
30/08/2026 04h 51' 39" Ping reçu, 1368
30/08/2026 04h 51' 36" Ping reçu, 1367
30/08/2026 04h 51' 32" Ping reçu, 1366
30/08/2026 04h 51' 29" cPing.
30/08/2026 04h 51' 23" Ping reçu, 1364
30/08/2026 04h 51' 19" Ping reçu, 1363
30/08/2026 04h 51' 06" Enregistrement des paramètres du vent (49.1° @ 0 m/s)
30/08/2026 04h 51' 06" Ping reçu,         1360
30/08/2026 04h 51' 02" Ping reçu, 1359
30/08/2026 04h 50' 53" Ping reçu, 1357
30/08/2026 04h 50' 45" Ping reçu,         1355
30/08/2026 04h 50' 40" Ping reçu, 1354
30/08/2026 04h 50' 38" Ping reçu, 1353
30/08/2026 04h 50' 34" cPing.
30/08/2026 04h 50' 29" Ping reçu, 1351
30/08/2026 04h 50' 25" Ping reçu,         1350
30/08/2026 04h 50' 17" Enregistrement de l'éclairement (345.6 lux & 0 lux )
30/08/2026 04h 50' 12" Ping reçu, 1347
30/08/2026 04h 50' 08" Ping reçu, 1346
30/08/2026 04h 50' 03" Ping reçu,         1345
30/08/2026 04h 49' 59" Ping reçu, 1344
30/08/2026 04h 49' 56" ERR. Ther. 14 HS.
30/08/2026 04h 49' 55" ERR. Ther. 1 HS.
30/08/2026 04h 49' 45" Ping reçu, 1341
30/08/2026 04h 49' 37" Ping reçu, 1339
30/08/2026 04h 49' 37" cPing.
30/08/2026 04h 49' 30" Enregistrement de l'Arduino : (22,5 °C)
30/08/2026 04h 49' 27" Ping reçu, 1337
30/08/2026 04h 49' 23" Ping reçu, 1336
30/08/2026 04h 49' 18" Ping reçu,         1335
30/08/2026 04h 49' 14" Ping reçu, 1334
30/08/2026 04h 49' 10" Ping reçu, 1333
30/08/2026 04h 49' 06" Ping reçu, 1332
30/08/2026 04h 49' 03" Ping reçu, 1331
30/08/2026 04h 48' 54" Ping reçu, 1329
30/08/2026 04h 48' 50" Ping reçu, 1328
30/08/2026 04h 48' 46" Ping reçu, 1327
30/08/2026 04h 48' 42" cPing.
30/08/2026 04h 48' 37" Ping reçu,         1325
30/08/2026 04h 48' 29" Ping reçu, 1323
30/08/2026 04h 48' 20" Ping reçu, 1321
30/08/2026 04h 48' 19" Enregistrement de la température (17,783 °C)
30/08/2026 04h 48' 07" Ping reçu, 1318
30/08/2026 04h 48' 03" Ping reçu, 1317
30/08/2026 04h 47' 59" Ping reçu, 1316
30/08/2026 04h 47' 54" Ping reçu,         1315
30/08/2026 04h 47' 51" Ping reçu, 1314
30/08/2026 04h 47' 47" Ping reçu, 1313
30/08/2026 04h 47' 45" cPing.
30/08/2026 04h 47' 43" Ping reçu, 1312
30/08/2026 04h 47' 39" Ping reçu, 1311
30/08/2026 04h 47' 35" Ping reçu,         1310
30/08/2026 04h 47' 26" Ping reçu, 1308
30/08/2026 04h 47' 21" Ping reçu, 1307
30/08/2026 04h 47' 13" Ping reçu,         1305
30/08/2026 04h 47' 09" Ping reçu, 1304
30/08/2026 04h 47' 06" Ping reçu, 1303
30/08/2026 04h 47' 02" Ping reçu, 1302
30/08/2026 04h 46' 58" Ping reçu, 1301
30/08/2026 04h 46' 54" Enregistrement de l'éclairement (345.6 lux & 0 lux )
30/08/2026 04h 46' 50" cPing.
30/08/2026 04h 46' 49" Ping reçu, 1299
30/08/2026 04h 46' 41" Ping reçu, 1297
30/08/2026 04h 46' 36" Ping reçu, 1296
30/08/2026 04h 46' 32" Ping reçu,         1295
30/08/2026 04h 46' 27" Ping reçu, 1294
30/08/2026 04h 46' 23" Ping reçu, 1293
30/08/2026 04h 46' 19" Ping reçu, 1292
30/08/2026 04h 46' 11" Ping reçu,         1290
30/08/2026 04h 46' 08" Ping reçu, 1289
30/08/2026 04h 46' 00" ERR. Ther. 1 HS.
30/08/2026 04h 45' 59" Ping reçu, 1287
30/08/2026 04h 45' 55" Ping reçu, 1286
30/08/2026 04h 45' 53" cPing.
30/08/2026 04h 45' 51" Ping reçu,         1285
30/08/2026 04h 45' 47" Enregistrement de l'éclairement (345.6 lux & 0 lux )
30/08/2026 04h 45' 47" Ping reçu, 1284
30/08/2026 04h 45' 38" Ping reçu, 1282
30/08/2026 04h 45' 34" Ping reçu, 1281
30/08/2026 04h 45' 32" Pressions pluviométriques (32,07 & 64,00)
30/08/2026 04h 45' 29" Enregistrement des paramètres du vent (49.1° @ 0 m/s)
30/08/2026 04h 45' 24" Ping reçu, 1279
30/08/2026 04h 45' 15" Ping reçu, 1277
30/08/2026 04h 45' 11" Ping reçu, 1276
30/08/2026 04h 45' 07" Ping reçu,         1275
30/08/2026 04h 45' 03" Ping reçu, 1274
30/08/2026 04h 45' 00" Ping reçu, 1273
30/08/2026 04h 44' 57" cPing.
30/08/2026 04h 44' 56" Ping reçu, 1272
30/08/2026 04h 44' 43" Ping reçu, 1269
30/08/2026 04h 44' 39" Ping reçu, 1268
30/08/2026 04h 44' 30" Ping reçu, 1266
30/08/2026 04h 44' 26" Ping reçu,         1265
30/08/2026 04h 44' 21" Ping reçu, 1264
30/08/2026 04h 44' 12" Ping reçu, 1262
30/08/2026 04h 44' 08" Ping reçu, 1261
30/08/2026 04h 44' 07" Enregistrement de la température (17,807 °C)
30/08/2026 04h 44' 02" cPing.
30/08/2026 04h 43' 54" Ping reçu, 1258
30/08/2026 04h 43' 50" Ping reçu, 1257
30/08/2026 04h 43' 46" Ping reçu, 1256
30/08/2026 04h 43' 42" Ping reçu,         1255
30/08/2026 04h 43' 33" Ping reçu, 1253
30/08/2026 04h 43' 26" Ping reçu, 1251
30/08/2026 04h 43' 22" Ping reçu,         1250
30/08/2026 04h 43' 18" Ping reçu, 1249
30/08/2026 04h 43' 14" Ping reçu, 1248
30/08/2026 04h 43' 09" Ping reçu, 1247
30/08/2026 04h 43' 05" cPing.
30/08/2026 04h 43' 05" Ping reçu, 1246
30/08/2026 04h 43' 00" Ping reçu,         1245
30/08/2026 04h 42' 52" Ping reçu, 1243
30/08/2026 04h 42' 48" Ping reçu, 1242
30/08/2026 04h 42' 45" Ping reçu, 1241
30/08/2026 04h 42' 41" Ping reçu,         1240
30/08/2026 04h 42' 37" Ping reçu, 1239
30/08/2026 04h 42' 28" Enregistrement de l'éclairement (345.6 lux & 0 lux )
30/08/2026 04h 42' 28" Ping reçu, 1237
30/08/2026 04h 42' 11" Ping reçu, 1233
30/08/2026 04h 42' 10" cPing.
30/08/2026 04h 42' 06" Ping reçu, 1232
30/08/2026 04h 42' 03" ERR. Ther. 1 HS.
30/08/2026 04h 42' 03" ERR. Ther. 14 HS.
30/08/2026 04h 42' 02" Ping reçu, 1231
30/08/2026 04h 41' 53" Ping reçu, 1229
30/08/2026 04h 41' 42" Ping reçu, 1226
30/08/2026 04h 41' 32" Ping reçu, 1224
30/08/2026 04h 41' 29" Ping reçu, 1223
30/08/2026 04h 41' 25" Ping reçu, 1222
30/08/2026 04h 41' 13" cPing.
30/08/2026 04h 41' 08" Ping reçu, 1218
30/08/2026 04h 41' 03" Ping reçu, 1217
30/08/2026 04h 41' 00" Ping reçu, 1216
30/08/2026 04h 40' 55" Ping reçu,         1215
30/08/2026 04h 40' 47" Ping reçu, 1213
30/08/2026 04h 40' 42" Ping reçu, 1212
30/08/2026 04h 40' 40" Enregistrement Température du pluviometre : (21,0 °C)
30/08/2026 04h 40' 31" Ping reçu,         1210
30/08/2026 04h 40' 27" Ping reçu, 1209
30/08/2026 04h 40' 23" Ping reçu, 1208
30/08/2026 04h 40' 18" Ping reçu, 1207
30/08/2026 04h 40' 18" cPing.
30/08/2026 04h 40' 14" Ping reçu, 1206
30/08/2026 04h 40' 10" Ping reçu,         1205
30/08/2026 04h 40' 09" Enregistrement de l'éclairement (345.6 lux & 0 lux )
30/08/2026 04h 40' 06" Ping reçu, 1204
30/08/2026 04h 39' 52" Enregistrement de la température (17,852 °C)
30/08/2026 04h 39' 50" Enregistrement de la Pression atmosphérique (1027,798 hPa)
30/08/2026 04h 39' 39" Ping reçu, 1198
30/08/2026 04h 39' 32" Ping reçu, 1196
30/08/2026 04h 39' 28" Ping reçu,         1195
30/08/2026 04h 39' 23" Ping reçu, 1194
30/08/2026 04h 39' 21" cPing.
30/08/2026 04h 39' 14" Ping reçu, 1192
30/08/2026 04h 39' 10" Ping reçu, 1191
30/08/2026 04h 39' 10" On a tout sauvé !
30/08/2026 04h 39' 01" Ping reçu, 1189
30/08/2026 04h 39' 00" Enregistrement de l'éclairement (345.6 lux & 0 lux )
30/08/2026 04h 38' 57" Ping reçu, 1188
30/08/2026 04h 38' 53" Ping reçu, 1187
30/08/2026 04h 38' 48" Ping reçu, 1186
30/08/2026 04h 38' 44" Ping reçu,         1185
30/08/2026 04h 38' 40" Ping reçu, 1184
30/08/2026 04h 38' 31" Ping reçu, 1182
30/08/2026 04h 38' 27" Ping reçu, 1181
30/08/2026 04h 38' 26" cPing.
30/08/2026 04h 38' 20" Ping reçu, 1179
30/08/2026 04h 38' 15" Ping reçu, 1178
30/08/2026 04h 38' 11" Ping reçu, 1177
30/08/2026 04h 38' 07" Ping reçu, 1176
30/08/2026 04h 38' 03" ERR. Ther. 1 HS.
30/08/2026 04h 38' 03" ERR. Ther. 14 HS.
30/08/2026 04h 38' 03" Ping reçu,         1175
30/08/2026 04h 37' 59" Ping reçu, 1174
30/08/2026 04h 37' 51" Enregistrement de l'éclairement (345.6 lux & 0 lux )
30/08/2026 04h 37' 41" Ping reçu,         1170
30/08/2026 04h 37' 36" Ping reçu, 1169
30/08/2026 04h 37' 32" Ping reçu, 1168
30/08/2026 04h 37' 29" cPing.
30/08/2026 04h 37' 27" Ping reçu, 1167
30/08/2026 04h 37' 23" Ping reçu, 1166
30/08/2026 04h 37' 15" Ping reçu, 1164
30/08/2026 04h 37' 10" Ping reçu, 1163
30/08/2026 04h 37' 06" Ping reçu, 1162
30/08/2026 04h 37' 02" Ping reçu, 1161
30/08/2026 04h 36' 55" Ping reçu, 1159
30/08/2026 04h 36' 46" Enregistrement de l'éclairement (345.6 lux & 0 lux )
30/08/2026 04h 36' 46" Ping reçu, 1157
30/08/2026 04h 36' 42" Ping reçu, 1156
30/08/2026 04h 36' 38" Ping reçu,         1155
30/08/2026 04h 36' 33" cPing.
30/08/2026 04h 36' 29" Ping reçu, 1153
30/08/2026 04h 36' 25" Ping reçu, 1152
30/08/2026 04h 36' 21" Ping reçu, 1151
30/08/2026 04h 36' 18" Ping reçu,         1150
30/08/2026 04h 36' 14" Ping reçu, 1149
30/08/2026 04h 36' 05" Ping reçu, 1147
30/08/2026 04h 35' 59" Enregistrement de l'Arduino : (22,5 °C)
30/08/2026 04h 35' 58" Ping reçu, 1146
30/08/2026 04h 35' 54" Ping reçu,         1145
30/08/2026 04h 35' 51" Ping reçu, 1144
30/08/2026 04h 35' 47" Ping reçu, 1143
30/08/2026 04h 35' 38" Ping reçu, 1141
30/08/2026 04h 35' 36" Enregistrement de la température (17,856 °C)
30/08/2026 04h 35' 36" cPing.
30/08/2026 04h 35' 34" Ping reçu,         1140
30/08/2026 04h 35' 21" Ping reçu, 1137
30/08/2026 04h 35' 17" Ping reçu, 1136
30/08/2026 04h 35' 12" Ping reçu,         1135
30/08/2026 04h 35' 08" Ping reçu, 1134
30/08/2026 04h 35' 03" Ping reçu, 1133
30/08/2026 04h 34' 59" Ping reçu, 1132
30/08/2026 04h 34' 55" Ping reçu, 1131
30/08/2026 04h 34' 51" Ping reçu,         1130
30/08/2026 04h 34' 48" Ping reçu, 1129
30/08/2026 04h 34' 44" Ping reçu, 1128
30/08/2026 04h 34' 41" cPing.
30/08/2026 04h 34' 32" Ping reçu,         1125
30/08/2026 04h 34' 19" Ping reçu, 1122
30/08/2026 04h 34' 14" Ping reçu, 1121
30/08/2026 04h 34' 12" Pressions pluviométriques (32,07 & 64,00)
30/08/2026 04h 34' 10" Ping reçu,         1120
30/08/2026 04h 34' 05" ERR. Ther. 1 HS.
30/08/2026 04h 34' 00" Ping reçu, 1118
30/08/2026 04h 33' 56" Ping reçu, 1117
30/08/2026 04h 33' 52" Ping reçu, 1116
30/08/2026 04h 33' 47" Ping reçu,         1115
30/08/2026 04h 33' 45" cPing.
30/08/2026 04h 33' 43" Ping reçu, 1114
30/08/2026 04h 33' 41" Ping reçu, 1113
30/08/2026 04h 33' 37" Ping reçu, 1112
30/08/2026 04h 33' 32" Ping reçu, 1111
30/08/2026 04h 33' 28" Ping reçu,         1110
30/08/2026 04h 33' 21" Enregistrement de l'éclairement (345.6 lux & 0 lux )
30/08/2026 04h 33' 20" Ping reçu, 1108
30/08/2026 04h 33' 06" Ping reçu,         1105
30/08/2026 04h 33' 02" Ping reçu, 1104
30/08/2026 04h 32' 58" Ping reçu, 1103
30/08/2026 04h 32' 48" cPing.
30/08/2026 04h 32' 45" Ping reçu,         1100
30/08/2026 04h 32' 42" Ping reçu, 1099
30/08/2026 04h 32' 38" Ping reçu, 1098
30/08/2026 04h 32' 34" Ping reçu, 1097
30/08/2026 04h 32' 30" Ping reçu, 1096
30/08/2026 04h 32' 26" Ping reçu,         1095
30/08/2026 04h 32' 17" Ping reçu, 1093
30/08/2026 04h 32' 12" Ping reçu, 1092
30/08/2026 04h 32' 08" Ping reçu, 1091
30/08/2026 04h 32' 04" Ping reçu,         1090
30/08/2026 04h 31' 56" Ping reçu, 1088
30/08/2026 04h 31' 53" cPing.
30/08/2026 04h 31' 51" Ping reçu, 1087
30/08/2026 04h 31' 48" Ping reçu, 1086
30/08/2026 04h 31' 44" Ping reçu,         1085
30/08/2026 04h 31' 40" Ping reçu, 1084
30/08/2026 04h 31' 36" Ping reçu, 1083
30/08/2026 04h 31' 32" Ping reçu, 1082
30/08/2026 04h 31' 27" Ping reçu, 1081
30/08/2026 04h 31' 26" Enregistrement de la température (17,895 °C)
30/08/2026 04h 31' 23" Ping reçu,         1080
30/08/2026 04h 31' 14" Ping reçu, 1078
30/08/2026 04h 31' 09" Ping reçu, 1077
30/08/2026 04h 31' 00" Ping reçu,         1075
30/08/2026 04h 30' 56" Ping reçu, 1074
30/08/2026 04h 30' 56" cPing.
30/08/2026 04h 30' 52" Ping reçu, 1073
30/08/2026 04h 30' 48" Ping reçu, 1072
30/08/2026 04h 30' 45" Ping reçu, 1071
30/08/2026 04h 30' 35" Ping reçu, 1069
30/08/2026 04h 30' 33" Ping reçu, 1068
30/08/2026 04h 30' 28" Ping reçu, 1067
30/08/2026 04h 30' 24" Ping reçu, 1066
30/08/2026 04h 30' 20" Ping reçu,         1065
30/08/2026 04h 30' 15" Ping reçu, 1064
30/08/2026 04h 30' 12" ERR. Ther. 1 HS.
30/08/2026 04h 30' 01" cPing.
30/08/2026 04h 29' 54" Ping reçu, 1059
30/08/2026 04h 29' 50" Ping reçu, 1058
30/08/2026 04h 29' 47" Ping reçu, 1057
30/08/2026 04h 29' 36" Ping reçu,         1055
30/08/2026 04h 29' 29" Ping reçu, 1053
30/08/2026 04h 29' 25" Ping reçu, 1052
30/08/2026 04h 29' 21" Ping reçu, 1051
30/08/2026 04h 29' 08" Ping reçu, 1048
30/08/2026 04h 29' 04" cPing.
30/08/2026 04h 29' 03" Ping reçu, 1047
30/08/2026 04h 28' 59" Ping reçu, 1046
30/08/2026 04h 28' 54" Ping reçu,         1045
30/08/2026 04h 28' 50" Ping reçu, 1044
30/08/2026 04h 28' 33" Ping reçu,         1040
30/08/2026 04h 28' 32" Enregistrement des paramètres du vent (49.1° @ 0 m/s)
30/08/2026 04h 28' 28" Ping reçu, 1039
30/08/2026 04h 28' 11" Ping reçu, 1036
30/08/2026 04h 28' 09" cPing.
30/08/2026 04h 28' 00" Ping reçu, 1033
30/08/2026 04h 27' 56" Ping reçu, 1032
30/08/2026 04h 27' 51" Ping reçu, 1031
30/08/2026 04h 27' 47" Ping reçu,         1030
30/08/2026 04h 27' 42" Ping reçu, 1029
30/08/2026 04h 27' 38" Ping reçu, 1028
30/08/2026 04h 27' 34" Ping reçu, 1027
30/08/2026 04h 27' 12" Ping reçu, 1022
30/08/2026 04h 27' 12" cPing.
30/08/2026 04h 27' 06" Enregistrement de la température (17,926 °C)
30/08/2026 04h 27' 05" Ping reçu,         1020
30/08/2026 04h 26' 56" Ping reçu, 1018
30/08/2026 04h 26' 48" Ping reçu, 1016
30/08/2026 04h 26' 44" Ping reçu,         1015
30/08/2026 04h 26' 30" Ping reçu, 1012
30/08/2026 04h 26' 26" Ping reçu, 1011
30/08/2026 04h 26' 18" Ping reçu, 1009
30/08/2026 04h 26' 17" cPing.
30/08/2026 04h 26' 14" Ping reçu, 1008
30/08/2026 04h 26' 11" ERR. Ther. 14 HS.
30/08/2026 04h 26' 09" ERR. Ther. 1 HS.
30/08/2026 04h 26' 08" Ping reçu, 1007
30/08/2026 04h 26' 04" Ping reçu, 1006
30/08/2026 04h 25' 56" Ping reçu, 1004
30/08/2026 04h 25' 53" Ping reçu, 1003
30/08/2026 04h 25' 49" Ping reçu, 1002
30/08/2026 04h 25' 45" Ping reçu, 1001
30/08/2026 04h 25' 41" Ping reçu,         1000
30/08/2026 04h 25' 32" Ping reçu, 998
30/08/2026 04h 25' 28" Ping reçu, 997
30/08/2026 04h 25' 24" Ping reçu, 996
30/08/2026 04h 25' 21" cPing.
30/08/2026 04h 25' 19" Ping reçu,         995
30/08/2026 04h 25' 15" Ping reçu, 994
30/08/2026 04h 25' 03" Ping reçu, 991
30/08/2026 04h 24' 58" Ping reçu, 1
30/08/2026 04h 24' 53" Ping reçu, 989
30/08/2026 04h 24' 50" Ping reçu, 1
30/08/2026 04h 24' 50" Ping reçu, 988
30/08/2026 04h 24' 41" Ping reçu, 986
30/08/2026 04h 24' 38" On a tout sauvé !
30/08/2026 04h 24' 37" Ping reçu,         985
30/08/2026 04h 24' 32" Ping reçu, 984
30/08/2026 04h 24' 28" Ping reçu, 983
30/08/2026 04h 24' 24" cPing.
30/08/2026 04h 24' 24" Ping reçu, 982
30/08/2026 04h 24' 20" Ping reçu, 981
30/08/2026 04h 24' 17" Enregistrement de l'éclairement (345.6 lux & 0 lux )
30/08/2026 04h 24' 16" Enregistrement de l'humidité (99,90 %)
30/08/2026 04h 24' 02" Ping reçu, 977
30/08/2026 04h 23' 58" Ping reçu, 976
30/08/2026 04h 23' 53" Ping reçu,         975
30/08/2026 04h 23' 45" Ping reçu, 973
30/08/2026 04h 23' 41" Ping reçu, 972
30/08/2026 04h 23' 30" Ping reçu, 969
30/08/2026 04h 23' 29" cPing.
30/08/2026 04h 23' 26" Ping reçu, 968
30/08/2026 04h 23' 21" Ping reçu, 967
30/08/2026 04h 23' 17" Ping reçu, 966
30/08/2026 04h 23' 11" Enregistrement de l'éclairement (345.6 lux & 0 lux )
30/08/2026 04h 23' 08" Ping reçu, 964
30/08/2026 04h 23' 00" Ping reçu, 962
30/08/2026 04h 22' 54" Enregistrement de la température (17,937 °C)
30/08/2026 04h 22' 54" Pressions pluviométriques (32,07 & 64,00)
30/08/2026 04h 22' 53" Ping reçu,         960
30/08/2026 04h 22' 51" Enregistrement de la Pression atmosphérique (1027,758 hPa)
30/08/2026 04h 22' 46" Ping reçu, 959
30/08/2026 04h 22' 37" Ping reçu, 957
30/08/2026 04h 22' 33" Ping reçu, 956
30/08/2026 04h 22' 32" cPing.
30/08/2026 04h 22' 27" Ping reçu,         955
30/08/2026 04h 22' 23" Ping reçu, 954
30/08/2026 04h 22' 18" Ping reçu, 953
30/08/2026 04h 22' 14" Ping reçu, 952
30/08/2026 04h 22' 12" ERR. Ther. 14 HS.
30/08/2026 04h 22' 10" ERR. Ther. 1 HS.
30/08/2026 04h 22' 09" Ping reçu, 951
30/08/2026 04h 22' 01" Enregistrement de l'éclairement (345.6 lux & 0 lux )
30/08/2026 04h 22' 01" Ping reçu, 949
30/08/2026 04h 21' 57" Ping reçu, 948
30/08/2026 04h 21' 54" Ping reçu, 947
30/08/2026 04h 21' 50" Ping reçu, 946
30/08/2026 04h 21' 46" Ping reçu,         945
30/08/2026 04h 21' 42" Ping reçu, 944
30/08/2026 04h 21' 37" Ping reçu, 943
30/08/2026 04h 21' 37" cPing.
30/08/2026 04h 21' 33" Ping reçu, 942
30/08/2026 04h 21' 29" Ping reçu, 941
30/08/2026 04h 21' 24" Ping reçu,         940
30/08/2026 04h 21' 07" Ping reçu, 936
30/08/2026 04h 21' 03" Ping reçu,         935
30/08/2026 04h 20' 59" Ping reçu, 934
30/08/2026 04h 20' 56" Ping reçu, 933
30/08/2026 04h 20' 54" Enregistrement de l'éclairement (345.6 lux & 0 lux )
30/08/2026 04h 20' 48" Ping reçu, 931
30/08/2026 04h 20' 44" Ping reçu,         930
30/08/2026 04h 20' 39" cPing.
30/08/2026 04h 20' 35" Ping reçu, 928
30/08/2026 04h 20' 30" Ping reçu, 927
30/08/2026 04h 20' 26" Ping reçu, 926
30/08/2026 04h 20' 22" Ping reçu,         925
30/08/2026 04h 20' 18" Ping reçu, 924
30/08/2026 04h 20' 09" Ping reçu, 922
30/08/2026 04h 20' 06" Ping reçu, 921
30/08/2026 04h 19' 58" Ping reçu, 919
30/08/2026 04h 19' 54" Ping reçu, 918
30/08/2026 04h 19' 46" Enregistrement de l'éclairement (345.6 lux & 0 lux )
30/08/2026 04h 19' 45" Ping reçu, 916
30/08/2026 04h 19' 44" cPing.
30/08/2026 04h 19' 41" Ping reçu,         915
30/08/2026 04h 19' 36" Ping reçu, 914
30/08/2026 04h 19' 23" Ping reçu, 911
30/08/2026 04h 19' 19" Ping reçu,         910
30/08/2026 04h 19' 15" Ping reçu, 909
30/08/2026 04h 19' 12" Ping reçu, 908
30/08/2026 04h 19' 08" Ping reçu, 907
30/08/2026 04h 19' 04" Ping reçu, 906
30/08/2026 04h 19' 00" Ping reçu,         905
30/08/2026 04h 18' 51" Ping reçu, 903
30/08/2026 04h 18' 47" cPing.
30/08/2026 04h 18' 47" Ping reçu, 902
30/08/2026 04h 18' 42" Ping reçu, 901
30/08/2026 04h 18' 39" Enregistrement de l'éclairement (345.6 lux & 0 lux )
30/08/2026 04h 18' 38" Ping reçu,         900
30/08/2026 04h 18' 29" Ping reçu, 898
30/08/2026 04h 18' 24" Ping reçu, 897
30/08/2026 04h 18' 17" ERR. Ther. 14 HS.
30/08/2026 04h 18' 16" ERR. Ther. 1 HS.
30/08/2026 04h 18' 11" Ping reçu, 894
30/08/2026 04h 18' 06" Ping reçu, 893
30/08/2026 04h 18' 02" Ping reçu, 892
30/08/2026 04h 17' 58" Ping reçu, 891
30/08/2026 04h 17' 54" Ping reçu,         890
30/08/2026 04h 17' 52" cPing.
30/08/2026 04h 17' 47" Ping reçu, 888
30/08/2026 04h 17' 43" Ping reçu, 887
30/08/2026 04h 17' 39" Ping reçu, 886
30/08/2026 04h 17' 35" Rw SD-card.
30/08/2026 04h 17' 30" Ping reçu, 884
30/08/2026 04h 17' 26" Ping reçu, 883
30/08/2026 04h 17' 21" Ping reçu, 882
30/08/2026 04h 17' 17" Ping reçu, 881
30/08/2026 04h 17' 12" Enregistrement des paramètres du vent (49.1° @ 0 m/s)
30/08/2026 04h 16' 55" Ping reçu, 876
30/08/2026 04h 16' 55" cPing.
30/08/2026 04h 16' 44" Ping reçu, 873
30/08/2026 04h 16' 40" Ping reçu, 872
30/08/2026 04h 16' 36" Ping reçu, 871
30/08/2026 04h 16' 31" Ping reçu,         870
30/08/2026 04h 16' 23" Ping reçu, 868
30/08/2026 04h 16' 23" Enregistrement de l'éclairement (345.6 lux & 0 lux )
30/08/2026 04h 16' 14" Ping reçu, 866
30/08/2026 04h 16' 06" Ping reçu,         865
30/08/2026 04h 16' 03" Ping reçu, 864
30/08/2026 04h 16' 00" cPing.
30/08/2026 04h 15' 59" Ping reçu, 863
30/08/2026 04h 15' 29" Ping reçu, 856
30/08/2026 04h 15' 24" Ping reçu,         855
30/08/2026 04h 15' 20" Ping reçu, 854
30/08/2026 04h 15' 16" Ping reçu, 853
30/08/2026 04h 15' 15" Enregistrement de l'éclairement (345.6 lux & 0 lux )
30/08/2026 04h 15' 07" Ping reçu, 851
30/08/2026 04h 15' 03" Ping reçu,         850
30/08/2026 04h 15' 03" cPing.
30/08/2026 04h 15' 01" Ping reçu, 849
30/08/2026 04h 14' 56" Ping reçu, 848
30/08/2026 04h 14' 52" Ping reçu, 847
30/08/2026 04h 14' 48" Ping reçu, 846
30/08/2026 04h 14' 39" Ping reçu, 844
30/08/2026 04h 14' 35" Ping reçu, 843
30/08/2026 04h 14' 30" Ping reçu, 842
30/08/2026 04h 14' 26" Ping reçu, 841
30/08/2026 04h 14' 26" Enregistrement de la température (17,989 °C)
30/08/2026 04h 14' 24" Enregistrement de la Pression atmosphérique (1027,761 hPa)
30/08/2026 04h 14' 24" Enregistrement de l'humidité (99,90 %)
30/08/2026 04h 14' 22" Ping reçu,         840
30/08/2026 04h 14' 18" ERR. Ther. 1 HS.
30/08/2026 04h 14' 18" ERR. Ther. 14 HS.
30/08/2026 04h 14' 12" Ping reçu, 838
30/08/2026 04h 14' 08" Ping reçu, 837
30/08/2026 04h 14' 08" Enregistrement de l'éclairement (345.6 lux & 0 lux )
30/08/2026 04h 14' 08" cPing.
30/08/2026 04h 14' 00" Ping reçu,         835
30/08/2026 04h 13' 49" Ping reçu, 832
30/08/2026 04h 13' 44" Ping reçu, 831
30/08/2026 04h 13' 40" Ping reçu,         830
30/08/2026 04h 13' 36" Ping reçu, 829
30/08/2026 04h 13' 31" Ping reçu, 828
30/08/2026 04h 13' 27" Ping reçu, 827
30/08/2026 04h 13' 23" Ping reçu, 826
30/08/2026 04h 13' 11" cPing.
30/08/2026 04h 13' 09" Ping reçu, 823
30/08/2026 04h 13' 05" Ping reçu, 822
30/08/2026 04h 13' 00" Enregistrement de l'éclairement (345.6 lux & 0 lux )
30/08/2026 04h 12' 57" Ping reçu,         820
30/08/2026 04h 12' 53" Ping reçu, 819
30/08/2026 04h 12' 50" Ping reçu, 818
30/08/2026 04h 12' 46" Ping reçu, 817
30/08/2026 04h 12' 42" Ping reçu, 816
30/08/2026 04h 12' 33" Ping reçu, 814
30/08/2026 04h 12' 29" Ping reçu, 813
30/08/2026 04h 12' 24" Ping reçu, 812
30/08/2026 04h 12' 20" Ping reçu, 811
30/08/2026 04h 12' 15" cPing.
30/08/2026 04h 12' 06" Ping reçu, 808
30/08/2026 04h 12' 02" Ping reçu, 807
30/08/2026 04h 11' 54" Ping reçu,         805
30/08/2026 04h 11' 50" Ping reçu, 804
30/08/2026 04h 11' 47" Ping reçu, 803
30/08/2026 04h 11' 43" Ping reçu, 802
30/08/2026 04h 11' 39" Ping reçu, 801
30/08/2026 04h 11' 35" Pressions pluviométriques (32,07 & 64,00)
30/08/2026 04h 11' 35" Ping reçu,         800
30/08/2026 04h 11' 34" Enregistrement des paramètres du vent (49.1° @ 0 m/s)
30/08/2026 04h 11' 29" Ping reçu, 799
30/08/2026 04h 11' 20" Ping reçu, 797
30/08/2026 04h 11' 20" cPing.
30/08/2026 04h 11' 17" Ping reçu, 796
30/08/2026 04h 11' 12" Ping reçu,         795
30/08/2026 04h 11' 08" Ping reçu, 794
30/08/2026 04h 11' 03" Ping reçu, 793
30/08/2026 04h 10' 59" Ping reçu, 792
30/08/2026 04h 10' 47" Ping reçu, 789
30/08/2026 04h 10' 45" Enregistrement de l'éclairement (345.6 lux & 0 lux )
30/08/2026 04h 10' 31" Ping reçu,         785
30/08/2026 04h 10' 27" Ping reçu, 784
30/08/2026 04h 10' 26" Ping reçu, 1
30/08/2026 04h 10' 23" ERR. Ther. 1 HS.
30/08/2026 04h 10' 23" cPing.
30/08/2026 04h 10' 23" ERR. Ther. 14 HS.
30/08/2026 04h 10' 22" Ping reçu, 783
30/08/2026 04h 10' 18" Ping reçu, 782
30/08/2026 04h 10' 14" Ping reçu, 781
30/08/2026 04h 10' 11" Enregistrement de la température (17,992 °C)
30/08/2026 04h 10' 09" Ping reçu,         780
30/08/2026 04h 10' 05" On a tout sauvé !
30/08/2026 04h 09' 56" Ping reçu, 777
30/08/2026 04h 09' 47" Ping reçu,         775
30/08/2026 04h 09' 43" Ping reçu, 774
30/08/2026 04h 09' 38" Ping reçu, 773
30/08/2026 04h 09' 38" Enregistrement de l'éclairement (345.6 lux & 0 lux )
30/08/2026 04h 09' 28" cPing.
30/08/2026 04h 09' 26" Ping reçu,         770
30/08/2026 04h 09' 23" Ping reçu, 769
30/08/2026 04h 09' 19" Ping reçu, 768
30/08/2026 04h 09' 14" Ping reçu, 767
30/08/2026 04h 09' 10" Ping reçu, 766
30/08/2026 04h 09' 06" Ping reçu,         765
30/08/2026 04h 08' 58" Ping reçu, 764
30/08/2026 04h 08' 54" Ping reçu, 763
30/08/2026 04h 08' 50" Ping reçu, 762
30/08/2026 04h 08' 43" Ping reçu,         760
30/08/2026 04h 08' 38" Ping reçu, 759
30/08/2026 04h 08' 34" Ping reçu, 758
30/08/2026 04h 08' 31" cPing.
30/08/2026 04h 08' 27" Enregistrement de l'éclairement (345.6 lux & 0 lux )
30/08/2026 04h 08' 26" Ping reçu, 756
30/08/2026 04h 08' 21" Ping reçu,         755
30/08/2026 04h 08' 17" Ping reçu, 754
30/08/2026 04h 08' 13" Ping reçu, 753
30/08/2026 04h 08' 08" Ping reçu, 752
30/08/2026 04h 08' 04" Ping reçu, 751
30/08/2026 04h 08' 00" Ping reçu,         750
30/08/2026 04h 07' 57" Ping reçu, 749
30/08/2026 04h 07' 49" Ping reçu, 747
30/08/2026 04h 07' 36" Ping reçu, 744
30/08/2026 04h 07' 36" cPing.
30/08/2026 04h 07' 32" Ping reçu, 743
30/08/2026 04h 07' 27" Ping reçu, 742
30/08/2026 04h 07' 19" Ping reçu,         740
30/08/2026 04h 07' 15" Ping reçu, 739
30/08/2026 04h 07' 12" Ping reçu, 738
30/08/2026 04h 06' 59" Ping reçu,         735
30/08/2026 04h 06' 55" Ping reçu, 734
30/08/2026 04h 06' 51" Ping reçu, 733
30/08/2026 04h 06' 47" Ping reçu, 732
30/08/2026 04h 06' 42" Ping reçu, 731
30/08/2026 04h 06' 39" cPing.
30/08/2026 04h 06' 33" Ping reçu, 729
30/08/2026 04h 06' 29" Ping reçu, 728
30/08/2026 04h 06' 27" ERR. Ther. 1 HS.
30/08/2026 04h 06' 27" ERR. Ther. 14 HS.
30/08/2026 04h 06' 25" Ping reçu, 727
30/08/2026 04h 06' 20" Ping reçu, 726
30/08/2026 04h 06' 16" Ping reçu,         725
30/08/2026 04h 06' 09" Ping reçu, 723
30/08/2026 04h 06' 05" Ping reçu, 722
30/08/2026 04h 06' 01" Ping reçu, 721
30/08/2026 04h 05' 58" Enregistrement de la température (18,052 °C)
30/08/2026 04h 05' 56" Enregistrement de la Pression atmosphérique (1027,760 hPa)
30/08/2026 04h 05' 56" Enregistrement des paramètres du vent (49.1° @ 0 m/s)
30/08/2026 04h 05' 49" Ping reçu, 719
30/08/2026 04h 05' 45" Ping reçu, 718
30/08/2026 04h 05' 44" cPing.
30/08/2026 04h 05' 42" Ping reçu, 717
30/08/2026 04h 05' 38" Ping reçu, 716
30/08/2026 04h 05' 21" Ping reçu, 712
30/08/2026 04h 05' 17" Ping reçu, 711
30/08/2026 04h 05' 08" Ping reçu, 709
30/08/2026 04h 05' 08" Enregistrement de l'éclairement (345.6 lux & 0 lux )
30/08/2026 04h 04' 55" Ping reçu, 706
30/08/2026 04h 04' 48" Ping reçu, 704
30/08/2026 04h 04' 46" cPing.
30/08/2026 04h 04' 44" Ping reçu, 703
30/08/2026 04h 04' 40" Ping reçu, 702
30/08/2026 04h 04' 35" Ping reçu, 701
30/08/2026 04h 04' 32" Enregistrement de l'humidité (99,90 %)
30/08/2026 04h 04' 31" Ping reçu,         700
30/08/2026 04h 04' 18" Ping reçu, 697
30/08/2026 04h 04' 14" Ping reçu, 696
30/08/2026 04h 04' 09" Ping reçu,         695
30/08/2026 04h 04' 00" Ping reçu, 693
30/08/2026 04h 03' 57" Enregistrement Température du pluviometre : (21,1 °C)
30/08/2026 04h 03' 56" Enregistrement de l'éclairement (345.6 lux & 0 lux )
30/08/2026 04h 03' 54" Ping reçu, 692
30/08/2026 04h 03' 51" cPing.
30/08/2026 04h 03' 48" Ping reçu, 691
30/08/2026 04h 03' 45" Ping reçu,         690
30/08/2026 04h 03' 41" Ping reçu, 689
30/08/2026 04h 03' 37" Ping reçu, 688
30/08/2026 04h 03' 33" Ping reçu, 687
30/08/2026 04h 03' 29" Ping reçu, 686
30/08/2026 04h 03' 24" Ping reçu,         685
30/08/2026 04h 03' 20" Ping reçu, 684
30/08/2026 04h 03' 07" Ping reçu, 681
30/08/2026 04h 03' 03" Ping reçu,         680
30/08/2026 04h 02' 59" Ping reçu, 679
30/08/2026 04h 02' 56" Ping reçu, 678
30/08/2026 04h 02' 54" cPing.
30/08/2026 04h 02' 48" Ping reçu, 676
30/08/2026 04h 02' 44" Ping reçu,         675
30/08/2026 04h 02' 35" Ping reçu, 673
30/08/2026 04h 02' 31" Ping reçu, 672
30/08/2026 04h 02' 29" ERR. Ther. 1 HS.
30/08/2026 04h 02' 29" ERR. Ther. 14 HS.
30/08/2026 04h 02' 26" Ping reçu, 671
30/08/2026 04h 02' 22" Ping reçu,         670
30/08/2026 04h 02' 18" Ping reçu, 669
30/08/2026 04h 02' 11" Ping reçu, 667
30/08/2026 04h 02' 07" Ping reçu, 666
30/08/2026 04h 02' 03" Ping reçu,         665
30/08/2026 04h 01' 59" Ping reçu, 664
30/08/2026 04h 01' 59" cPing.
30/08/2026 04h 01' 54" Ping reçu, 663
30/08/2026 04h 01' 50" Ping reçu, 662
30/08/2026 04h 01' 45" Enregistrement de l'éclairement (345.6 lux & 0 lux )
30/08/2026 04h 01' 45" Ping reçu, 661
30/08/2026 04h 01' 41" Ping reçu,         660
30/08/2026 04h 01' 37" Ping reçu, 659
30/08/2026 04h 01' 30" Ping reçu, 657
30/08/2026 04h 01' 24" Ping reçu, 656
30/08/2026 04h 01' 21" Ping reçu,         655
30/08/2026 04h 01' 17" Ping reçu, 654
30/08/2026 04h 01' 11" Ping reçu, 653
30/08/2026 04h 01' 03" cPing.
30/08/2026 04h 01' 00" Ping reçu,         650
30/08/2026 04h 00' 47" Ping reçu, 647
30/08/2026 04h 00' 42" Ping reçu, 646
30/08/2026 04h 00' 38" Ping reçu,         645
30/08/2026 04h 00' 35" Enregistrement de l'éclairement (345.6 lux & 0 lux )
30/08/2026 04h 00' 29" Ping reçu, 643
30/08/2026 04h 00' 25" Ping reçu, 642
30/08/2026 04h 00' 25" On purge les valeurs du crystal...
30/08/2026 04h 00' 21" Ping reçu, 641
30/08/2026 04h 00' 17" Ping reçu,         640
30/08/2026 04h 00' 16" Enregistrement des paramètres du vent (49.1° @ 0 m/s)
30/08/2026 04h 00' 16" On purge les valeurs du crystal...
30/08/2026 04h 00' 11" Ping reçu, 639
30/08/2026 04h 00' 06" cPing.
30/08/2026 04h 00' 03" Ping reçu, 637
30/08/2026 03h 59' 58" Ping reçu, 636
30/08/2026 03h 59' 54" Ping reçu,         635
30/08/2026 03h 59' 50" Ping reçu, 634
30/08/2026 03h 59' 45" Ping reçu, 633
30/08/2026 03h 59' 42" Ping reçu, 632
30/08/2026 03h 59' 34" Ping reçu,         630
30/08/2026 03h 59' 30" Enregistrement de l'éclairement (345.6 lux & 0 lux )
30/08/2026 03h 59' 30" Ping reçu, 629
30/08/2026 03h 59' 26" Ping reçu, 628
30/08/2026 03h 59' 17" Ping reçu, 626
30/08/2026 03h 59' 13" Ping reçu,         625
30/08/2026 03h 59' 11" cPing.
30/08/2026 03h 59' 09" Ping reçu, 624
30/08/2026 03h 59' 04" Ping reçu, 623
30/08/2026 03h 59' 00" Ping reçu, 622
30/08/2026 03h 58' 56" Ping reçu, 621
30/08/2026 03h 58' 53" Ping reçu,         620
30/08/2026 03h 58' 45" Ping reçu, 618
30/08/2026 03h 58' 41" Ping reçu, 617
30/08/2026 03h 58' 36" Ping reçu, 616
30/08/2026 03h 58' 33" ERR. Ther. 14 HS.
30/08/2026 03h 58' 32" ERR. Ther. 1 HS.
30/08/2026 03h 58' 32" Ping reçu,         615
30/08/2026 03h 58' 27" Ping reçu, 614
30/08/2026 03h 58' 23" Enregistrement de l'éclairement (345.6 lux & 0 lux )
30/08/2026 03h 58' 23" Ping reçu, 613
30/08/2026 03h 58' 18" Ping reçu, 612
30/08/2026 03h 58' 14" Ping reçu, 611
30/08/2026 03h 58' 14" cPing.
30/08/2026 03h 58' 10" Ping reçu,         610
30/08/2026 03h 58' 06" Ping reçu, 609
30/08/2026 03h 58' 02" Ping reçu, 608
30/08/2026 03h 57' 50" Ping reçu,         605
30/08/2026 03h 57' 46" Ping reçu, 604
30/08/2026 03h 57' 38" Ping reçu, 602
30/08/2026 03h 57' 32" Enregistrement de la température (18,089 °C)
30/08/2026 03h 57' 24" Ping reçu, 599
30/08/2026 03h 57' 17" cPing.
30/08/2026 03h 57' 12" Enregistrement de l'éclairement (345.6 lux & 0 lux )
30/08/2026 03h 57' 11" Ping reçu, 596
30/08/2026 03h 57' 06" Ping reçu,         595
30/08/2026 03h 57' 02" Ping reçu, 594
30/08/2026 03h 56' 57" Ping reçu, 593
30/08/2026 03h 56' 53" Ping reçu, 592
30/08/2026 03h 56' 45" Ping reçu,         590
30/08/2026 03h 56' 36" Ping reçu, 588
30/08/2026 03h 56' 25" Ping reçu,         585
30/08/2026 03h 56' 21" cPing.
30/08/2026 03h 56' 12" Ping reçu, 582
30/08/2026 03h 56' 08" Ping reçu, 581
30/08/2026 03h 56' 05" Enregistrement de l'éclairement (345.6 lux & 0 lux )
30/08/2026 03h 56' 03" Ping reçu,         580
30/08/2026 03h 55' 59" Ping reçu, 579
30/08/2026 03h 55' 50" Ping reçu, 577
30/08/2026 03h 55' 45" Ping reçu, 576
30/08/2026 03h 55' 45" Ping reçu, 1
30/08/2026 03h 55' 36" Ping reçu, 574
30/08/2026 03h 55' 33" Enregistrement de l'Arduino : (22,8 °C)
30/08/2026 03h 55' 31" Ping reçu, 573
30/08/2026 03h 55' 31" On a tout sauvé !
30/08/2026 03h 55' 26" Ping reçu, 572
30/08/2026 03h 55' 26" cPing.
30/08/2026 03h 55' 21" Ping reçu, 571
30/08/2026 03h 55' 13" Ping reçu, 569
30/08/2026 03h 55' 09" Ping reçu, 568
30/08/2026 03h 54' 56" Ping reçu,         565
30/08/2026 03h 54' 54" Enregistrement de l'éclairement (345.6 lux & 0 lux )
30/08/2026 03h 54' 47" Ping reçu, 563
30/08/2026 03h 54' 43" Ping reçu, 562
30/08/2026 03h 54' 39" Ping reçu, 561
30/08/2026 03h 54' 36" Enregistrement de l'humidité (99,90 %)
30/08/2026 03h 54' 32" ERR. Ther. 14 HS.
30/08/2026 03h 54' 29" Ping reçu, 559
30/08/2026 03h 54' 29" cPing.
30/08/2026 03h 54' 25" Ping reçu, 558
30/08/2026 03h 54' 12" Ping reçu,         555
30/08/2026 03h 54' 08" Ping reçu, 554
30/08/2026 03h 54' 05" Ping reçu, 553
30/08/2026 03h 54' 01" Ping reçu, 552
30/08/2026 03h 53' 57" Ping reçu, 551
30/08/2026 03h 53' 47" Ping reçu, 549
30/08/2026 03h 53' 45" Enregistrement de l'éclairement (345.6 lux & 0 lux )
30/08/2026 03h 53' 39" Ping reçu, 547
30/08/2026 03h 53' 35" Ping reçu, 546
30/08/2026 03h 53' 34" cPing.
30/08/2026 03h 53' 30" Ping reçu,         545
30/08/2026 03h 53' 26" Ping reçu, 544
30/08/2026 03h 53' 21" Ping reçu, 543
30/08/2026 03h 53' 12" Enregistrement de la température (18,144 °C)
30/08/2026 03h 53' 09" Ping reçu,         540
30/08/2026 03h 53' 04" Ping reçu, 539
30/08/2026 03h 53' 00" Ping reçu, 538
30/08/2026 03h 52' 56" Ping reçu, 537
30/08/2026 03h 52' 49" Ping reçu,         535
30/08/2026 03h 52' 40" Ping reçu, 533
30/08/2026 03h 52' 38" Enregistrement de l'éclairement (345.6 lux & 0 lux )
30/08/2026 03h 52' 37" cPing.
30/08/2026 03h 52' 36" Ping reçu, 532
30/08/2026 03h 52' 32" Ping reçu, 531
30/08/2026 03h 52' 27" Ping reçu,         530
30/08/2026 03h 52' 23" Ping reçu, 529
30/08/2026 03h 52' 19" Ping reçu, 528
30/08/2026 03h 52' 10" Ping reçu, 526
30/08/2026 03h 52' 06" Ping reçu,         525
30/08/2026 03h 51' 57" Ping reçu, 523
30/08/2026 03h 51' 50" Ping reçu, 521
30/08/2026 03h 51' 43" Enregistrement Température du pluviometre : (21,1 °C)
30/08/2026 03h 51' 42" cPing.
30/08/2026 03h 51' 33" Ping reçu, 518
30/08/2026 03h 51' 29" Ping reçu, 517
30/08/2026 03h 51' 29" Enregistrement de l'éclairement (345.6 lux & 0 lux )
30/08/2026 03h 51' 21" Ping reçu,         515
30/08/2026 03h 51' 17" Ping reçu, 514
30/08/2026 03h 51' 14" Ping reçu, 513
30/08/2026 03h 51' 10" Ping reçu, 512
30/08/2026 03h 51' 05" Ping reçu, 511
30/08/2026 03h 51' 01" Ping reçu,         510
30/08/2026 03h 50' 57" Ping reçu, 509
30/08/2026 03h 50' 53" Ping reçu, 508
30/08/2026 03h 50' 45" cPing.
30/08/2026 03h 50' 44" Ping reçu, 506
30/08/2026 03h 50' 39" Ping reçu,         505
30/08/2026 03h 50' 35" Ping reçu, 504
30/08/2026 03h 50' 34" ERR. Ther. 14 HS.
30/08/2026 03h 50' 31" Ping reçu, 503
30/08/2026 03h 50' 27" Ping reçu, 502
30/08/2026 03h 50' 21" Enregistrement de l'éclairement (345.6 lux & 0 lux )
30/08/2026 03h 50' 14" Ping reçu, 499
30/08/2026 03h 50' 02" Ping reçu, 496
30/08/2026 03h 49' 58" Ping reçu,         495
30/08/2026 03h 49' 54" Ping reçu, 494
30/08/2026 03h 49' 50" Ping reçu, 493
30/08/2026 03h 49' 49" cPing.
30/08/2026 03h 49' 41" Ping reçu, 491
30/08/2026 03h 49' 36" Ping reçu,         490
30/08/2026 03h 49' 28" Ping reçu, 488
30/08/2026 03h 49' 15" Ping reçu,         485
30/08/2026 03h 49' 14" Enregistrement de l'éclairement (345.6 lux & 0 lux )
30/08/2026 03h 49' 08" Ping reçu, 483
30/08/2026 03h 49' 00" Ping reçu, 481
30/08/2026 03h 48' 57" Enregistrement de la température (18,154 °C)
30/08/2026 03h 48' 56" Enregistrement de la hauteur d'eau (783,700 mm @ 99,9%)
30/08/2026 03h 48' 56" Pressions pluviométriques (32,07 & 64,00)
30/08/2026 03h 48' 55" Enregistrement de la Pression atmosphérique (1027,736 hPa)
30/08/2026 03h 48' 55" Enregistrement des paramètres du vent (49.1° @ 0 m/s)
30/08/2026 03h 48' 52" cPing.
30/08/2026 03h 48' 48" Ping reçu, 479
30/08/2026 03h 48' 45" Ping reçu, 478
30/08/2026 03h 48' 42" Ping reçu, 477
30/08/2026 03h 48' 38" Ping reçu, 476
30/08/2026 03h 48' 33" Ping reçu,         475
30/08/2026 03h 48' 24" Ping reçu, 473
30/08/2026 03h 48' 20" Ping reçu, 472
30/08/2026 03h 48' 12" Ping reçu,         470
30/08/2026 03h 48' 03" Ping reçu, 468
30/08/2026 03h 47' 57" cPing.
30/08/2026 03h 47' 56" Ping reçu, 466
30/08/2026 03h 47' 52" Ping reçu,         465
30/08/2026 03h 47' 43" Ping reçu, 463
30/08/2026 03h 47' 35" Ping reçu, 461
30/08/2026 03h 47' 26" Ping reçu, 459
30/08/2026 03h 47' 17" Ping reçu, 457
30/08/2026 03h 47' 13" Ping reçu, 456
30/08/2026 03h 47' 06" Ping reçu, 454
30/08/2026 03h 47' 02" Ping reçu, 453
30/08/2026 03h 47' 00" cPing.
30/08/2026 03h 46' 58" Ping reçu, 452
30/08/2026 03h 46' 36" ERR. Ther. 1 HS.
30/08/2026 03h 46' 36" ERR. Ther. 14 HS.
30/08/2026 03h 46' 31" Ping reçu, 446
30/08/2026 03h 46' 23" Ping reçu, 444
30/08/2026 03h 46' 18" Ping reçu, 443
30/08/2026 03h 46' 14" Ping reçu, 442
30/08/2026 03h 46' 05" Ping reçu,         440
30/08/2026 03h 46' 05" cPing.
30/08/2026 03h 46' 01" Ping reçu, 439
30/08/2026 03h 45' 57" Ping reçu, 438
30/08/2026 03h 45' 54" Ping reçu, 437
30/08/2026 03h 45' 50" Ping reçu, 436
30/08/2026 03h 45' 41" Ping reçu, 434
30/08/2026 03h 45' 37" Ping reçu, 433
30/08/2026 03h 45' 33" Ping reçu, 432
30/08/2026 03h 45' 28" Ping reçu, 431
30/08/2026 03h 45' 15" Ping reçu, 428
30/08/2026 03h 45' 11" Ping reçu, 427
30/08/2026 03h 45' 08" cPing.
30/08/2026 03h 45' 06" Ping reçu, 426
30/08/2026 03h 44' 57" Ping reçu, 424
30/08/2026 03h 44' 53" Ping reçu, 423
30/08/2026 03h 44' 44" Ping reçu, 421
30/08/2026 03h 44' 42" Ping reçu,         420
30/08/2026 03h 44' 42" Enregistrement de l'humidité (99,90 %)
30/08/2026 03h 44' 42" Enregistrement de l'éclairement (345.6 lux & 0 lux )
30/08/2026 03h 44' 27" Ping reçu, 417
30/08/2026 03h 44' 18" Ping reçu,         415
30/08/2026 03h 44' 14" Ping reçu, 414
30/08/2026 03h 44' 12" cPing.
30/08/2026 03h 44' 09" Ping reçu, 413
30/08/2026 03h 44' 05" Ping reçu, 412
30/08/2026 03h 44' 02" Ping reçu, 411
30/08/2026 03h 43' 58" Ping reçu,         410
30/08/2026 03h 43' 50" Ping reçu, 408
30/08/2026 03h 43' 41" Ping reçu, 406
30/08/2026 03h 43' 36" Ping reçu,         405
30/08/2026 03h 43' 33" Enregistrement de l'éclairement (345.6 lux & 0 lux )
30/08/2026 03h 43' 24" Ping reçu, 402
30/08/2026 03h 43' 21" Ping reçu, 401
30/08/2026 03h 43' 17" cPing.
30/08/2026 03h 43' 10" Ping reçu, 399
30/08/2026 03h 43' 02" Ping reçu, 397
30/08/2026 03h 42' 55" Ping reçu,         395
30/08/2026 03h 42' 51" Ping reçu, 394
30/08/2026 03h 42' 47" Ping reçu, 393
30/08/2026 03h 42' 42" Ping reçu, 392
30/08/2026 03h 42' 39" ERR. Ther. 1 HS.
30/08/2026 03h 42' 38" Ping reçu, 391
30/08/2026 03h 42' 28" Enregistrement de l'éclairement (345.6 lux & 0 lux )
30/08/2026 03h 42' 20" Ping reçu, 387
30/08/2026 03h 42' 20" cPing.
30/08/2026 03h 42' 16" Ping reçu, 386
30/08/2026 03h 42' 12" Ping reçu,         385
30/08/2026 03h 42' 08" Ping reçu, 384
30/08/2026 03h 42' 00" Enregistrement de l'Arduino : (22,8 °C)
30/08/2026 03h 41' 44" Ping reçu, 379
30/08/2026 03h 41' 35" Ping reçu, 377
30/08/2026 03h 41' 31" Ping reçu, 376
30/08/2026 03h 41' 25" cPing.
30/08/2026 03h 41' 23" Ping reçu, 374
30/08/2026 03h 41' 18" Ping reçu, 373
30/08/2026 03h 41' 16" Enregistrement de l'éclairement (345.6 lux & 0 lux )
30/08/2026 03h 41' 14" Ping reçu, 372
30/08/2026 03h 41' 11" Ping reçu, 371
30/08/2026 03h 41' 07" Ping reçu,         370
30/08/2026 03h 41' 03" On a tout sauvé !
30/08/2026 03h 40' 58" Ping reçu, 368
30/08/2026 03h 40' 53" Ping reçu, 367
30/08/2026 03h 40' 45" Ping reçu,         365
30/08/2026 03h 40' 41" Ping reçu, 364
30/08/2026 03h 40' 36" Ping reçu, 363
30/08/2026 03h 40' 32" Ping reçu, 362
30/08/2026 03h 40' 28" Ping reçu, 361
30/08/2026 03h 40' 28" cPing.
30/08/2026 03h 40' 24" Enregistrement de la Pression atmosphérique (1027,689 hPa)
30/08/2026 03h 40' 10" Ping reçu, 357
30/08/2026 03h 40' 09" Enregistrement de l'éclairement (345.6 lux & 0 lux )
30/08/2026 03h 40' 05" Ping reçu, 356
30/08/2026 03h 40' 03" Ping reçu,         355
30/08/2026 03h 39' 54" Ping reçu, 353
30/08/2026 03h 39' 50" Ping reçu, 352
30/08/2026 03h 39' 38" Ping reçu, 349
30/08/2026 03h 39' 33" Ping reçu, 348
30/08/2026 03h 39' 33" cPing.
30/08/2026 03h 39' 29" Ping reçu, 347
30/08/2026 03h 39' 25" Enregistrement Température du pluviometre : (21,1 °C)
30/08/2026 03h 39' 17" Ping reçu,         345
30/08/2026 03h 39' 14" Ping reçu, 344
30/08/2026 03h 39' 10" Ping reçu, 343
30/08/2026 03h 39' 06" Ping reçu, 342
30/08/2026 03h 38' 58" Enregistrement de l'éclairement (345.6 lux & 0 lux )
30/08/2026 03h 38' 57" Ping reçu,         340
30/08/2026 03h 38' 53" Ping reçu, 339
30/08/2026 03h 38' 44" Ping reçu, 337
30/08/2026 03h 38' 40" Ping reçu, 336
30/08/2026 03h 38' 38" ERR. Ther. 14 HS.
30/08/2026 03h 38' 36" cPing.
30/08/2026 03h 38' 26" Ping reçu, 333
30/08/2026 03h 38' 22" Ping reçu, 332
30/08/2026 03h 38' 18" Ping reçu, 331
30/08/2026 03h 38' 15" Ping reçu,         330
30/08/2026 03h 38' 11" Ping reçu, 329
30/08/2026 03h 38' 07" Ping reçu, 328
30/08/2026 03h 38' 03" Ping reçu, 327
30/08/2026 03h 37' 54" Ping reçu,         325
30/08/2026 03h 37' 50" Ping reçu, 324
30/08/2026 03h 37' 46" Ping reçu, 323
30/08/2026 03h 37' 42" Ping reçu, 322
30/08/2026 03h 37' 41" cPing.
30/08/2026 03h 37' 35" Ping reçu,         320
30/08/2026 03h 37' 35" Enregistrement de la hauteur d'eau (783,720 mm @ 99,8%)
30/08/2026 03h 37' 32" Enregistrement des paramètres du vent (49.1° @ 0 m/s)
30/08/2026 03h 37' 28" Ping reçu, 319
30/08/2026 03h 37' 24" Ping reçu, 318
30/08/2026 03h 37' 08" Ping reçu, 314
30/08/2026 03h 36' 56" Ping reçu, 311
30/08/2026 03h 36' 51" Ping reçu,         310
30/08/2026 03h 36' 47" Ping reçu, 309
30/08/2026 03h 36' 46" Enregistrement de l'éclairement (345.6 lux & 0 lux )
30/08/2026 03h 36' 44" cPing.
30/08/2026 03h 36' 42" Ping reçu, 308
30/08/2026 03h 36' 38" Ping reçu, 307
30/08/2026 03h 36' 34" Ping reçu, 306
30/08/2026 03h 36' 30" Ping reçu,         305
30/08/2026 03h 36' 26" Ping reçu, 304
30/08/2026 03h 36' 23" Ping reçu, 303
30/08/2026 03h 36' 15" Ping reçu, 301
30/08/2026 03h 36' 11" Ping reçu,         300
30/08/2026 03h 36' 06" Ping reçu, 299
30/08/2026 03h 36' 02" Ping reçu, 298
30/08/2026 03h 35' 48" Ping reçu,         295
30/08/2026 03h 35' 48" cPing.
30/08/2026 03h 35' 44" Ping reçu, 294
30/08/2026 03h 35' 39" Enregistrement de l'éclairement (345.6 lux & 0 lux )
30/08/2026 03h 35' 35" Ping reçu, 292
30/08/2026 03h 35' 27" Ping reçu,         290
30/08/2026 03h 35' 20" Ping reçu, 288
30/08/2026 03h 35' 16" Ping reçu, 287
30/08/2026 03h 35' 12" Ping reçu, 286
30/08/2026 03h 35' 08" Ping reçu,         285
30/08/2026 03h 35' 03" Ping reçu, 284
30/08/2026 03h 34' 59" Ping reçu, 283
30/08/2026 03h 34' 55" Ping reçu, 282
30/08/2026 03h 34' 53" cPing.
30/08/2026 03h 34' 48" Enregistrement de l'humidité (99,90 %)
30/08/2026 03h 34' 46" Ping reçu,         280
30/08/2026 03h 34' 44" ERR. Ther. 14 HS.
30/08/2026 03h 34' 32" Ping reçu, 277
30/08/2026 03h 34' 32" Enregistrement de l'éclairement (345.6 lux & 0 lux )
30/08/2026 03h 34' 28" Ping reçu, 276
30/08/2026 03h 34' 24" Ping reçu,         275
30/08/2026 03h 34' 21" Ping reçu, 274
30/08/2026 03h 34' 13" Ping reçu, 272
30/08/2026 03h 34' 08" Ping reçu, 271
30/08/2026 03h 34' 00" Ping reçu, 269
30/08/2026 03h 33' 56" Ping reçu, 268
30/08/2026 03h 33' 56" cPing.
30/08/2026 03h 33' 51" Ping reçu, 267
30/08/2026 03h 33' 39" Ping reçu, 264
30/08/2026 03h 33' 27" Ping reçu, 261
30/08/2026 03h 33' 25" Enregistrement de l'éclairement (345.6 lux & 0 lux )
30/08/2026 03h 33' 23" Ping reçu,         260
30/08/2026 03h 33' 19" Ping reçu, 259
30/08/2026 03h 33' 15" Ping reçu, 258
30/08/2026 03h 33' 11" Ping reçu, 257
30/08/2026 03h 33' 06" Ping reçu, 256
30/08/2026 03h 32' 59" cPing.
30/08/2026 03h 32' 58" Ping reçu, 254
30/08/2026 03h 32' 54" Ping reçu, 253
30/08/2026 03h 32' 50" Ping reçu, 252
30/08/2026 03h 32' 43" Ping reçu,         250
30/08/2026 03h 32' 39" Ping reçu, 249
30/08/2026 03h 32' 30" Ping reçu, 247
30/08/2026 03h 32' 26" Ping reçu, 246
30/08/2026 03h 32' 20" Enregistrement de l'éclairement (345.6 lux & 0 lux )
30/08/2026 03h 32' 13" Ping reçu, 243
30/08/2026 03h 32' 09" Ping reçu, 242
30/08/2026 03h 32' 04" Ping reçu, 241
30/08/2026 03h 32' 03" Enregistrement de la température (18,253 °C)
30/08/2026 03h 32' 03" cPing.
30/08/2026 03h 32' 02" Enregistrement de la Pression atmosphérique (1027,629 hPa)
30/08/2026 03h 32' 02" Ping reçu,         240
30/08/2026 03h 32' 00" Enregistrement des paramètres du vent (49.2° @ 0 m/s)
30/08/2026 03h 31' 55" Ping reçu, 239
30/08/2026 03h 31' 47" Ping reçu, 237
30/08/2026 03h 31' 44" Ping reçu, 236
30/08/2026 03h 31' 40" Ping reçu,         235
30/08/2026 03h 31' 27" Ping reçu, 232
30/08/2026 03h 31' 23" Ping reçu, 231
30/08/2026 03h 31' 18" Ping reçu,         230
30/08/2026 03h 31' 14" Ping reçu, 229
30/08/2026 03h 31' 14" Enregistrement de l'éclairement (345.6 lux & 0 lux )
30/08/2026 03h 31' 10" Ping reçu, 228
30/08/2026 03h 31' 08" cPing.
30/08/2026 03h 31' 03" Ping reçu, 226
30/08/2026 03h 30' 59" Ping reçu,         225
30/08/2026 03h 30' 55" Ping reçu, 224
30/08/2026 03h 30' 51" ERR. Ther. 14 HS.
30/08/2026 03h 30' 51" ERR. Ther. 1 HS.
30/08/2026 03h 30' 50" Ping reçu, 223
30/08/2026 03h 30' 46" Ping reçu, 222
30/08/2026 03h 30' 29" Ping reçu, 218
30/08/2026 03h 30' 20" Ping reçu, 216
30/08/2026 03h 30' 16" Ping reçu,         215
30/08/2026 03h 30' 12" Ping reçu, 214
30/08/2026 03h 30' 11" cPing.
30/08/2026 03h 30' 06" Enregistrement de l'éclairement (345.6 lux & 0 lux )
30/08/2026 03h 30' 03" Ping reçu, 212
30/08/2026 03h 30' 00" Ping reçu, 211
30/08/2026 03h 29' 52" Ping reçu, 209
30/08/2026 03h 29' 44" Ping reçu, 207
30/08/2026 03h 29' 35" Ping reçu,         205
30/08/2026 03h 29' 26" Ping reçu, 203
30/08/2026 03h 29' 17" Ping reçu, 201
30/08/2026 03h 29' 16" cPing.
30/08/2026 03h 29' 09" Ping reçu, 199
30/08/2026 03h 29' 05" Ping reçu, 198
30/08/2026 03h 29' 02" Ping reçu, 197
30/08/2026 03h 28' 58" Ping reçu, 196
30/08/2026 03h 28' 54" Ping reçu,         195
30/08/2026 03h 28' 45" Ping reçu, 193
30/08/2026 03h 28' 41" Ping reçu, 192
30/08/2026 03h 28' 33" Ping reçu, 191
30/08/2026 03h 28' 21" Ping reçu, 188
30/08/2026 03h 28' 19" cPing.
30/08/2026 03h 28' 04" Ping reçu, 184
30/08/2026 03h 27' 59" Ping reçu, 183
30/08/2026 03h 27' 55" Ping reçu, 182
30/08/2026 03h 27' 47" Ping reçu,         180
30/08/2026 03h 27' 37" Ping reçu, 178
30/08/2026 03h 27' 33" Ping reçu, 177
30/08/2026 03h 27' 28" Ping reçu, 176
30/08/2026 03h 27' 24" Ping reçu,         175
30/08/2026 03h 27' 24" cPing.
30/08/2026 03h 27' 20" Ping reçu, 174
30/08/2026 03h 27' 14" Enregistrement Température du pluviometre : (21,1 °C)
30/08/2026 03h 27' 11" Ping reçu, 173
30/08/2026 03h 27' 07" Ping reçu, 172
30/08/2026 03h 27' 03" Ping reçu, 171
30/08/2026 03h 27' 00" Ping reçu,         170
30/08/2026 03h 26' 56" Ping reçu, 169
30/08/2026 03h 26' 52" Ping reçu, 168
30/08/2026 03h 26' 48" ERR. Ther. 14 HS.
30/08/2026 03h 26' 43" Ping reçu, 166
30/08/2026 03h 26' 42" Ping reçu, 1
30/08/2026 03h 26' 35" Enregistrement de l'éclairement (345.6 lux & 0 lux )
30/08/2026 03h 26' 34" Ping reçu, 1
30/08/2026 03h 26' 30" Ping reçu, 163
30/08/2026 03h 26' 27" cPing.
30/08/2026 03h 26' 21" On a tout sauvé !
30/08/2026 03h 26' 21" Ping reçu, 161
30/08/2026 03h 26' 17" Enregistrement de la hauteur d'eau (783,710 mm @ 99,8%)
30/08/2026 03h 26' 17" Pressions pluviométriques (32,07 & 64,00)
30/08/2026 03h 26' 17" Ping reçu,         160
30/08/2026 03h 26' 16" Enregistrement des paramètres du vent (49.1° @ 0 m/s)
30/08/2026 03h 26' 11" Ping reçu, 159
30/08/2026 03h 26' 03" Ping reçu, 157
30/08/2026 03h 25' 59" Ping reçu, 156
30/08/2026 03h 25' 50" Ping reçu, 154
30/08/2026 03h 25' 42" Ping reçu, 152
30/08/2026 03h 25' 39" Ping reçu, 151
30/08/2026 03h 25' 32" cPing.
30/08/2026 03h 25' 27" Enregistrement de l'éclairement (345.6 lux & 0 lux )
30/08/2026 03h 25' 26" Ping reçu, 148
30/08/2026 03h 25' 22" Ping reçu, 147
30/08/2026 03h 25' 09" Ping reçu, 144
30/08/2026 03h 25' 00" Ping reçu, 142
30/08/2026 03h 24' 56" Ping reçu, 141
30/08/2026 03h 24' 51" Ping reçu,         140
30/08/2026 03h 24' 42" Ping reçu, 138
30/08/2026 03h 24' 38" Ping reçu, 137
30/08/2026 03h 24' 36" cPing.
30/08/2026 03h 24' 34" Ping reçu, 136
30/08/2026 03h 24' 21" Ping reçu, 133
30/08/2026 03h 24' 19" Enregistrement de l'éclairement (345.6 lux & 0 lux )
30/08/2026 03h 24' 17" Ping reçu, 132
30/08/2026 03h 24' 05" Ping reçu, 129
30/08/2026 03h 23' 56" Ping reçu, 127
30/08/2026 03h 23' 43" Ping reçu, 124
30/08/2026 03h 23' 39" cPing.
30/08/2026 03h 23' 35" Ping reçu, 122
30/08/2026 03h 23' 30" Ping reçu, 121
30/08/2026 03h 23' 30" Enregistrement de la température (18,352 °C)
30/08/2026 03h 23' 26" Ping reçu,         120
30/08/2026 03h 23' 21" Ping reçu, 119
30/08/2026 03h 23' 13" Ping reçu, 117
30/08/2026 03h 23' 09" Ping reçu, 116
30/08/2026 03h 23' 05" Ping reçu,         115
30/08/2026 03h 23' 02" Ping reçu, 114
30/08/2026 03h 22' 58" Ping reçu, 113
30/08/2026 03h 22' 54" Ping reçu, 112
30/08/2026 03h 22' 50" ERR. Ther. 1 HS.
30/08/2026 03h 22' 50" ERR. Ther. 14 HS.
30/08/2026 03h 22' 49" Ping reçu, 111
30/08/2026 03h 22' 45" Ping reçu,         110
30/08/2026 03h 22' 44" cPing.
30/08/2026 03h 22' 41" Ping reçu, 109
30/08/2026 03h 22' 27" Ping reçu, 106
30/08/2026 03h 22' 23" Ping reçu,         105
30/08/2026 03h 22' 19" Ping reçu, 104
30/08/2026 03h 22' 17" Ping reçu, 103
30/08/2026 03h 22' 12" Ping reçu, 102
30/08/2026 03h 22' 08" Ping reçu, 101
30/08/2026 03h 22' 05" Enregistrement de l'éclairement (345.6 lux & 0 lux )
30/08/2026 03h 22' 04" Ping reçu,         100
30/08/2026 03h 22' 00" Ping reçu, 99
30/08/2026 03h 21' 56" Ping reçu, 98
30/08/2026 03h 21' 47" cPing.
30/08/2026 03h 21' 42" Ping reçu,         95
30/08/2026 03h 21' 38" Ping reçu, 94
30/08/2026 03h 21' 34" Ping reçu, 93
30/08/2026 03h 21' 29" Ping reçu, 92
30/08/2026 03h 21' 21" Ping reçu,         90
30/08/2026 03h 21' 17" Ping reçu, 89
30/08/2026 03h 21' 12" Ping reçu, 88
30/08/2026 03h 21' 08" Ping reçu, 87
30/08/2026 03h 21' 05" Ping reçu, 86
30/08/2026 03h 21' 01" Ping reçu,         85
30/08/2026 03h 20' 58" Enregistrement de l'éclairement (345.6 lux & 0 lux )
30/08/2026 03h 20' 53" Ping reçu, 83
30/08/2026 03h 20' 52" cPing.
30/08/2026 03h 20' 48" Ping reçu, 82
30/08/2026 03h 20' 44" Ping reçu, 81
30/08/2026 03h 20' 26" Ping reçu, 77
30/08/2026 03h 20' 18" Ping reçu,         75
30/08/2026 03h 20' 14" Ping reçu, 74
30/08/2026 03h 20' 11" Ping reçu, 73
30/08/2026 03h 20' 07" Ping reçu, 72
30/08/2026 03h 20' 03" Ping reçu, 71
30/08/2026 03h 19' 59" Ping reçu,         70
30/08/2026 03h 19' 55" cPing.
30/08/2026 03h 19' 54" Ping reçu, 69
30/08/2026 03h 19' 53" Enregistrement de l'éclairement (345.6 lux & 0 lux )
30/08/2026 03h 19' 50" Ping reçu, 68
30/08/2026 03h 19' 37" Ping reçu,         65
30/08/2026 03h 19' 32" Ping reçu, 64
30/08/2026 03h 19' 28" Ping reçu, 63
30/08/2026 03h 19' 24" Ping reçu, 62
30/08/2026 03h 19' 21" Ping reçu, 61
30/08/2026 03h 19' 17" Ping reçu,         60
30/08/2026 03h 19' 12" Ping reçu, 59
30/08/2026 03h 19' 06" Ping reçu, 58
30/08/2026 03h 19' 03" Ping reçu, 57
30/08/2026 03h 19' 00" cPing.
30/08/2026 03h 18' 57" Ping reçu, 56
30/08/2026 03h 18' 55" ERR. Ther. 10 HS.
30/08/2026 03h 18' 54" ERR. Ther. 1 HS.
30/08/2026 03h 18' 54" ERR. Ther. 14 HS.
30/08/2026 03h 18' 48" Ping reçu, 54
30/08/2026 03h 18' 45" Ping reçu, 53
30/08/2026 03h 18' 42" Enregistrement de l'éclairement (345.6 lux & 0 lux )
30/08/2026 03h 18' 36" Ping reçu, 51
30/08/2026 03h 18' 32" Ping reçu,         50
30/08/2026 03h 18' 28" Ping reçu, 49
30/08/2026 03h 18' 24" Ping reçu, 48
30/08/2026 03h 18' 20" Ping reçu, 47
30/08/2026 03h 18' 15" Ping reçu, 46
30/08/2026 03h 18' 02" cPing.
30/08/2026 03h 17' 57" Ping reçu, 42
30/08/2026 03h 17' 53" Ping reçu, 41
30/08/2026 03h 17' 49" Ping reçu,         40
30/08/2026 03h 17' 44" Ping reçu, 39
30/08/2026 03h 17' 40" Ping reçu, 38
30/08/2026 03h 17' 36" Ping reçu, 37
30/08/2026 03h 17' 33" Ping reçu, 36
30/08/2026 03h 17' 16" Ping reçu, 32
30/08/2026 03h 17' 11" Ping reçu, 31
30/08/2026 03h 17' 07" cPing.
30/08/2026 03h 17' 03" Ping reçu, 29
30/08/2026 03h 16' 59" Ping reçu, 28
30/08/2026 03h 16' 54" Ping reçu, 27
30/08/2026 03h 16' 50" Ping reçu, 26
30/08/2026 03h 16' 46" Ping reçu,         25
30/08/2026 03h 16' 41" Ping reçu, 24
30/08/2026 03h 16' 33" Ping reçu, 22
30/08/2026 03h 16' 29" Ping reçu, 21
30/08/2026 03h 16' 28" Enregistrement de l'éclairement (345.6 lux & 0 lux )
30/08/2026 03h 16' 21" Ping reçu, 19
30/08/2026 03h 16' 17" Ping reçu, 18
30/08/2026 03h 16' 13" Ping reçu, 17
30/08/2026 03h 16' 10" cPing.
30/08/2026 03h 16' 09" Ping reçu, 16
30/08/2026 03h 15' 56" Ping reçu, 13
30/08/2026 03h 15' 52" Ping reçu, 12
30/08/2026 03h 15' 43" Ping reçu,         10
30/08/2026 03h 15' 39" Ping reçu, 9
30/08/2026 03h 15' 35" Ping reçu, 8
30/08/2026 03h 15' 32" Ping reçu, 7
30/08/2026 03h 15' 28" Ping reçu, 6
30/08/2026 03h 15' 21" Ping reçu, 4
30/08/2026 03h 15' 18" Ping reçu, 3
30/08/2026 03h 15' 15" Enregistrement de l'éclairement (345.6 lux & 0 lux )
30/08/2026 03h 15' 15" cPing.
30/08/2026 03h 15' 14" Ping reçu, 2
30/08/2026 03h 15' 03" Enregistrement de l'Arduino : (22,8 °C)
30/08/2026 03h 15' 01" End Cycle en 4.2098 s par tour (moy).
30/08/2026 03h 15' 01" Enregistrement de la température (18,353 °C)
30/08/2026 03h 15' 00" Enregistrement Température du pluviometre : (21,1 °C)
30/08/2026 03h 14' 58" Enregistrement de la hauteur d'eau (783,750 mm @ 99,8%)
30/08/2026 03h 14' 58" Pressions pluviométriques (32,07 & 64,00)
30/08/2026 03h 14' 57" Ping reçu,         3360
30/08/2026 03h 14' 56" Enregistrement de l'humidité (99,90 %)
30/08/2026 03h 14' 54" Enregistrement de la Pression atmosphérique (1027,590 hPa)
30/08/2026 03h 14' 49" ERR. Ther. 1 HS.
30/08/2026 03h 14' 44" Ping reçu, 3358
30/08/2026 03h 14' 39" Ping reçu, 3357
30/08/2026 03h 14' 35" Ping reçu, 3356
30/08/2026 03h 14' 31" Ping reçu,         3355
30/08/2026 03h 14' 27" Ping reçu, 3354
30/08/2026 03h 14' 24" Ping reçu, 3353
30/08/2026 03h 14' 20" Ping reçu, 3352
30/08/2026 03h 14' 18" cPing.
30/08/2026 03h 14' 16" Ping reçu, 3351
30/08/2026 03h 14' 12" Ping reçu,         3350
30/08/2026 03h 14' 07" Enregistrement de l'éclairement (345.6 lux & 0 lux )
30/08/2026 03h 14' 03" Ping reçu, 3348
30/08/2026 03h 13' 59" Ping reçu, 3347
30/08/2026 03h 13' 55" Ping reçu, 3346
30/08/2026 03h 13' 47" Ping reçu, 3344
30/08/2026 03h 13' 42" Ping reçu, 3343
30/08/2026 03h 13' 37" Ping reçu, 3342
30/08/2026 03h 13' 33" Ping reçu, 3341
30/08/2026 03h 13' 26" Ping reçu, 3339
30/08/2026 03h 13' 23" cPing.
30/08/2026 03h 13' 22" Ping reçu, 3338
30/08/2026 03h 13' 18" Ping reçu, 3337
30/08/2026 03h 13' 14" Ping reçu, 3336
30/08/2026 03h 13' 09" Ping reçu,         3335
30/08/2026 03h 13' 05" Ping reçu, 3334
30/08/2026 03h 13' 01" Ping reçu, 3333
30/08/2026 03h 13' 00" Enregistrement de l'éclairement (345.6 lux & 0 lux )
30/08/2026 03h 12' 53" Ping reçu, 3331
30/08/2026 03h 12' 50" Ping reçu,         3330
30/08/2026 03h 12' 46" Ping reçu, 3329
30/08/2026 03h 12' 42" Ping reçu, 3328
30/08/2026 03h 12' 37" Ping reçu, 3327
30/08/2026 03h 12' 33" Ping reçu, 3326
30/08/2026 03h 12' 29" Ping reçu,         3325
30/08/2026 03h 12' 26" cPing.
30/08/2026 03h 12' 24" Ping reçu, 3324
30/08/2026 03h 12' 20" Ping reçu, 3323
30/08/2026 03h 12' 15" Ping reçu, 3322
30/08/2026 03h 12' 11" Ping reçu, 3321
30/08/2026 03h 12' 06" Ping reçu,         3320
30/08/2026 03h 12' 02" Ping reçu, 3319
30/08/2026 03h 11' 58" Ping reçu, 3318
30/08/2026 03h 11' 56" On a tout sauvé !
30/08/2026 03h 11' 54" Ping reçu, 3317
30/08/2026 03h 11' 50" Ping reçu, 3316
30/08/2026 03h 11' 42" Ping reçu, 3314
30/08/2026 03h 11' 30" cPing.
30/08/2026 03h 11' 29" Ping reçu, 3311
30/08/2026 03h 11' 25" Ping reçu,         3310
30/08/2026 03h 11' 21" Ping reçu, 3309
30/08/2026 03h 11' 17" Ping reçu, 3308
30/08/2026 03h 11' 12" Ping reçu, 3307
30/08/2026 03h 11' 08" Ping reçu, 3306
30/08/2026 03h 11' 04" Ping reçu,         3305
30/08/2026 03h 10' 58" ERR. Ther. 14 HS.
30/08/2026 03h 10' 50" Ping reçu, 3302
30/08/2026 03h 10' 45" Enregistrement de la température (18,443 °C)
30/08/2026 03h 10' 44" Enregistrement de l'éclairement (345.6 lux & 0 lux )
30/08/2026 03h 10' 37" Ping reçu, 3299
30/08/2026 03h 10' 35" cPing.
30/08/2026 03h 10' 29" Ping reçu, 3297
30/08/2026 03h 10' 21" Ping reçu,         3295
30/08/2026 03h 10' 08" Ping reçu, 3292
30/08/2026 03h 10' 04" Ping reçu, 3291
30/08/2026 03h 09' 55" Ping reçu, 3289
30/08/2026 03h 09' 46" Enregistrement Température du pluviometre : (21,1 °C)
30/08/2026 03h 09' 43" Ping reçu, 3287
30/08/2026 03h 09' 38" cPing.
30/08/2026 03h 09' 34" Ping reçu,         3285
30/08/2026 03h 09' 30" Ping reçu, 3284
30/08/2026 03h 09' 23" Ping reçu, 3282
30/08/2026 03h 09' 15" Enregistrement des paramètres du vent (49.1° @ 0 m/s)
30/08/2026 03h 09' 15" Ping reçu,         3280
30/08/2026 03h 09' 06" Ping reçu, 3278
30/08/2026 03h 09' 02" Ping reçu, 3277
30/08/2026 03h 08' 53" Ping reçu,         3275
30/08/2026 03h 08' 48" Ping reçu, 3274
30/08/2026 03h 08' 44" Ping reçu, 3273
30/08/2026 03h 08' 43" cPing.
30/08/2026 03h 08' 40" Ping reçu, 3272
30/08/2026 03h 08' 36" Ping reçu, 3271
30/08/2026 03h 08' 29" Ping reçu, 3269
30/08/2026 03h 08' 26" Enregistrement de l'éclairement (345.6 lux & 0 lux )
30/08/2026 03h 08' 25" Ping reçu, 3268
30/08/2026 03h 08' 21" Ping reçu, 3267
30/08/2026 03h 08' 12" Ping reçu,         3265
30/08/2026 03h 08' 08" Ping reçu, 3264
30/08/2026 03h 08' 03" Ping reçu, 3263
30/08/2026 03h 07' 59" Ping reçu, 3262
30/08/2026 03h 07' 50" Ping reçu,         3260
30/08/2026 03h 07' 46" Ping reçu, 3259
30/08/2026 03h 07' 46" cPing.
30/08/2026 03h 07' 42" Ping reçu, 3258
30/08/2026 03h 07' 26" Ping reçu, 3254
30/08/2026 03h 07' 22" Ping reçu, 3253
30/08/2026 03h 07' 18" Ping reçu, 3252
30/08/2026 03h 07' 09" Ping reçu,         3250
30/08/2026 03h 07' 05" Ping reçu, 3249
30/08/2026 03h 07' 01" Ping reçu, 3248
30/08/2026 03h 06' 57" ERR. Ther. 1 HS.
30/08/2026 03h 06' 52" Ping reçu, 3247
30/08/2026 03h 06' 51" cPing.
30/08/2026 03h 06' 44" Ping reçu,         3245
30/08/2026 03h 06' 44" Rw SD-card.
30/08/2026 03h 06' 41" Ping reçu, 3244
30/08/2026 03h 06' 32" Ping reçu, 3242
30/08/2026 03h 06' 25" Enregistrement de la température (18,500 °C)
30/08/2026 03h 06' 15" Ping reçu, 3238
30/08/2026 03h 06' 02" Ping reçu,         3235
30/08/2026 03h 05' 57" Ping reçu, 3234
30/08/2026 03h 05' 54" cPing.
30/08/2026 03h 05' 53" Ping reçu, 3233
30/08/2026 03h 05' 49" Ping reçu, 3232
30/08/2026 03h 05' 44" Ping reçu, 3231
30/08/2026 03h 05' 36" Ping reçu, 3229
30/08/2026 03h 05' 23" Ping reçu, 3226
30/08/2026 03h 05' 20" Ping reçu,         3225
30/08/2026 03h 05' 12" Ping reçu, 3223
30/08/2026 03h 05' 08" Ping reçu, 3222
30/08/2026 03h 05' 03" Ping reçu, 3221
30/08/2026 03h 05' 00" Enregistrement de l'humidité (99,90 %)
30/08/2026 03h 04' 59" Ping reçu,         3220
30/08/2026 03h 04' 59" cPing.
30/08/2026 03h 04' 50" Ping reçu, 3218
30/08/2026 03h 04' 46" Ping reçu, 3217
30/08/2026 03h 04' 42" Ping reçu, 3216
30/08/2026 03h 04' 38" Ping reçu,         3215
30/08/2026 03h 04' 35" Ping reçu, 3214
30/08/2026 03h 04' 08" Ping reçu, 3208
30/08/2026 03h 04' 04" Ping reçu, 3207
30/08/2026 03h 04' 02" cPing.
30/08/2026 03h 04' 00" Ping reçu, 3206
30/08/2026 03h 03' 51" Enregistrement de l'éclairement (345.6 lux & 0 lux )
30/08/2026 03h 03' 51" Ping reçu, 3204
30/08/2026 03h 03' 47" Ping reçu, 3203
30/08/2026 03h 03' 34" Ping reçu,         3200
30/08/2026 03h 03' 34" Enregistrement de la hauteur d'eau (783,850 mm @ 99,9%)
30/08/2026 03h 03' 29" Ping reçu, 3199
30/08/2026 03h 03' 24" Ping reçu, 3198
30/08/2026 03h 03' 20" Ping reçu, 3197
30/08/2026 03h 03' 16" Ping reçu, 3196
30/08/2026 03h 03' 12" Ping reçu,         3195
30/08/2026 03h 03' 09" Ping reçu, 3194
30/08/2026 03h 03' 06" cPing.
30/08/2026 03h 03' 02" Enregistrement de l'éclairement (345.6 lux & 0 lux )
30/08/2026 03h 03' 01" Ping reçu, 3192
30/08/2026 03h 02' 57" ERR. Ther. 1 HS.
30/08/2026 03h 02' 57" ERR. Ther. 14 HS.
30/08/2026 03h 02' 56" Ping reçu, 3191
30/08/2026 03h 02' 48" Ping reçu, 3189
30/08/2026 03h 02' 44" Ping reçu, 3188
30/08/2026 03h 02' 35" Ping reçu, 3186
30/08/2026 03h 02' 31" Ping reçu,         3185
30/08/2026 03h 02' 27" Ping reçu, 3184
30/08/2026 03h 02' 22" Ping reçu, 3183
30/08/2026 03h 02' 21" Enregistrement de la température (18,579 °C)
30/08/2026 03h 02' 18" Ping reçu, 3182
30/08/2026 03h 02' 12" cPing.
30/08/2026 03h 02' 07" Ping reçu, 3179
30/08/2026 03h 01' 58" Ping reçu, 3177
30/08/2026 03h 01' 54" Ping reçu, 3176
30/08/2026 03h 01' 50" Ping reçu,         3175
30/08/2026 03h 01' 45" Ping reçu, 3174
30/08/2026 03h 01' 41" Ping reçu, 3173
30/08/2026 03h 01' 40" Enregistrement de l'éclairement (345.6 lux & 0 lux )
30/08/2026 03h 01' 37" Ping reçu, 3172
30/08/2026 03h 01' 28" Ping reçu,         3170
30/08/2026 03h 01' 24" Ping reçu, 3169
30/08/2026 03h 01' 21" Ping reçu, 3168
30/08/2026 03h 01' 14" cPing.
30/08/2026 03h 01' 12" Ping reçu, 3166
30/08/2026 03h 01' 08" Ping reçu,         3165
30/08/2026 03h 01' 04" Ping reçu, 3164
30/08/2026 03h 00' 56" Ping reçu, 3162
30/08/2026 03h 00' 47" Ping reçu,         3160
30/08/2026 03h 00' 43" Ping reçu, 3159
30/08/2026 03h 00' 39" Ping reçu, 3158
30/08/2026 03h 00' 34" Enregistrement de l'éclairement (345.6 lux & 0 lux )
30/08/2026 03h 00' 26" Ping reçu,         3155
30/08/2026 03h 00' 24" On purge les valeurs du crystal...
30/08/2026 03h 00' 23" Ping reçu, 3154
30/08/2026 03h 00' 19" Ping reçu, 3153
30/08/2026 03h 00' 17" cPing.
30/08/2026 03h 00' 15" On purge les valeurs du crystal...
30/08/2026 03h 00' 15" Ping reçu, 3152
30/08/2026 03h 00' 06" Ping reçu,         3150
30/08/2026 03h 00' 02" Ping reçu, 3149
30/08/2026 02h 59' 58" Ping reçu, 3148
30/08/2026 02h 59' 53" Ping reçu, 3147
30/08/2026 02h 59' 50" Ping reçu, 3146
30/08/2026 02h 59' 47" Ping reçu,         3145
30/08/2026 02h 59' 38" Ping reçu, 3143
30/08/2026 02h 59' 34" Ping reçu, 3142
30/08/2026 02h 59' 30" Ping reçu, 3141
30/08/2026 02h 59' 27" Enregistrement de l'éclairement (345.6 lux & 0 lux )
30/08/2026 02h 59' 26" Ping reçu,         3140
30/08/2026 02h 59' 21" Ping reçu, 3139
30/08/2026 02h 59' 21" cPing.
30/08/2026 02h 59' 08" Ping reçu, 3136
30/08/2026 02h 59' 04" ERR. Ther. 1 HS.
30/08/2026 02h 59' 03" Ping reçu,         3135
30/08/2026 02h 58' 59" Ping reçu, 3134
30/08/2026 02h 58' 55" Ping reçu, 3133
30/08/2026 02h 58' 33" Ping reçu, 3128
30/08/2026 02h 58' 26" Ping reçu, 3126
30/08/2026 02h 58' 26" cPing.
30/08/2026 02h 58' 22" Ping reçu,         3125
30/08/2026 02h 58' 18" Enregistrement de l'éclairement (345.6 lux & 0 lux )
30/08/2026 02h 58' 18" Ping reçu, 3124
30/08/2026 02h 58' 14" Ping reçu, 3123
30/08/2026 02h 58' 09" Ping reçu, 3122
30/08/2026 02h 58' 05" Ping reçu, 3121
30/08/2026 02h 58' 00" Enregistrement de la Pression atmosphérique (1027,527 hPa)
30/08/2026 02h 58' 00" Ping reçu,         3120
30/08/2026 02h 57' 55" Ping reçu, 3119
30/08/2026 02h 57' 51" Ping reçu, 3118
30/08/2026 02h 57' 42" Ping reçu, 3116
30/08/2026 02h 57' 38" Ping reçu,         3115
30/08/2026 02h 57' 29" cPing.
30/08/2026 02h 57' 26" On a tout sauvé !
30/08/2026 02h 57' 25" Ping reçu, 3113
30/08/2026 02h 57' 21" Ping reçu, 3112
30/08/2026 02h 57' 12" Ping reçu,         3110
30/08/2026 02h 57' 08" Ping reçu, 3109
30/08/2026 02h 57' 03" Ping reçu, 3108
30/08/2026 02h 56' 56" Ping reçu, 3106
30/08/2026 02h 56' 52" Ping reçu,         3105
30/08/2026 02h 56' 48" Ping reçu, 3104
30/08/2026 02h 56' 43" Ping reçu, 3103
30/08/2026 02h 56' 35" Ping reçu, 3101
30/08/2026 02h 56' 34" cPing.
30/08/2026 02h 56' 26" Ping reçu, 3099
30/08/2026 02h 56' 21" Ping reçu, 3098
30/08/2026 02h 56' 12" Ping reçu, 3096
30/08/2026 02h 56' 08" Ping reçu,         3095
30/08/2026 02h 56' 00" Ping reçu, 3093
30/08/2026 02h 55' 59" Enregistrement de l'éclairement (345.6 lux & 0 lux )
30/08/2026 02h 55' 51" Ping reçu, 3091
30/08/2026 02h 55' 44" Ping reçu, 3089
30/08/2026 02h 55' 37" cPing.
30/08/2026 02h 55' 35" Ping reçu, 3087
30/08/2026 02h 55' 32" Ping reçu, 3086
30/08/2026 02h 55' 27" Ping reçu,         3085
30/08/2026 02h 55' 23" Ping reçu, 3084
30/08/2026 02h 55' 18" Ping reçu, 3083
30/08/2026 02h 55' 14" Ping reçu, 3082
30/08/2026 02h 55' 06" Ping reçu,         3080
30/08/2026 02h 55' 03" ERR. Ther. 1 HS.
30/08/2026 02h 55' 03" ERR. Ther. 14 HS.
30/08/2026 02h 55' 01" Ping reçu, 3079
30/08/2026 02h 54' 56" Ping reçu, 3078
30/08/2026 02h 54' 52" Ping reçu, 3077
30/08/2026 02h 54' 51" Enregistrement de l'éclairement (345.6 lux & 0 lux )
30/08/2026 02h 54' 45" Ping reçu,         3075
30/08/2026 02h 54' 42" cPing.
30/08/2026 02h 54' 37" Ping reçu, 3073
30/08/2026 02h 54' 33" Ping reçu, 3072
30/08/2026 02h 54' 28" Ping reçu, 3071
30/08/2026 02h 54' 24" Ping reçu,         3070
30/08/2026 02h 54' 11" Ping reçu, 3067
30/08/2026 02h 54' 03" Ping reçu,         3065
30/08/2026 02h 53' 59" Ping reçu, 3064
30/08/2026 02h 53' 56" Ping reçu, 3063
30/08/2026 02h 53' 52" Ping reçu, 3062
30/08/2026 02h 53' 48" Ping reçu, 3061
30/08/2026 02h 53' 45" Enregistrement de la température (18,601 °C)
30/08/2026 02h 53' 45" cPing.
30/08/2026 02h 53' 43" Enregistrement de l'éclairement (345.6 lux & 0 lux )
30/08/2026 02h 53' 39" Ping reçu, 3059
30/08/2026 02h 53' 35" Ping reçu, 3058
30/08/2026 02h 53' 30" Ping reçu, 3057
30/08/2026 02h 53' 27" Enregistrement de l'Arduino : (22,8 °C)
30/08/2026 02h 53' 24" Ping reçu, 3056
30/08/2026 02h 53' 15" Ping reçu, 3054
30/08/2026 02h 53' 11" Ping reçu, 3053
30/08/2026 02h 53' 07" Ping reçu, 3052
30/08/2026 02h 53' 03" Ping reçu, 3051
30/08/2026 02h 52' 59" Ping reçu,         3050
30/08/2026 02h 52' 50" Ping reçu, 3048
30/08/2026 02h 52' 50" cPing.
30/08/2026 02h 52' 45" Ping reçu, 3047
30/08/2026 02h 52' 41" Ping reçu, 3046
30/08/2026 02h 52' 37" Ping reçu,         3045
30/08/2026 02h 52' 35" Enregistrement de l'éclairement (345.6 lux & 0 lux )
30/08/2026 02h 52' 26" Ping reçu, 3042
30/08/2026 02h 52' 22" Ping reçu, 3041
30/08/2026 02h 52' 18" Enregistrement de la hauteur d'eau (783,830 mm @ 99,8%)
30/08/2026 02h 52' 17" Ping reçu,         3040
30/08/2026 02h 52' 03" Ping reçu, 3037
30/08/2026 02h 51' 59" Ping reçu, 3036
30/08/2026 02h 51' 55" Ping reçu,         3035
30/08/2026 02h 51' 54" cPing.
30/08/2026 02h 51' 51" Ping reçu, 3034
30/08/2026 02h 51' 47" Ping reçu, 3033
30/08/2026 02h 51' 38" Ping reçu, 3031
30/08/2026 02h 51' 34" Ping reçu,         3030
30/08/2026 02h 51' 29" Ping reçu, 3029
30/08/2026 02h 51' 29" Enregistrement de l'éclairement (345.6 lux & 0 lux )
30/08/2026 02h 51' 25" Ping reçu, 3028
30/08/2026 02h 51' 21" Ping reçu, 3027
30/08/2026 02h 51' 17" Ping reçu, 3026
30/08/2026 02h 51' 14" Ping reçu,         3025
30/08/2026 02h 51' 10" Ping reçu, 3024
30/08/2026 02h 51' 06" ERR. Ther. 1 HS.
30/08/2026 02h 50' 57" cPing.
30/08/2026 02h 50' 52" Ping reçu,         3020
30/08/2026 02h 50' 48" Ping reçu, 3019
30/08/2026 02h 50' 39" Ping reçu, 3017
30/08/2026 02h 50' 30" Ping reçu,         3015
30/08/2026 02h 50' 26" Ping reçu, 3014
30/08/2026 02h 50' 22" Ping reçu, 3013
30/08/2026 02h 50' 20" Ping reçu, 3012
30/08/2026 02h 50' 20" Enregistrement de l'éclairement (345.6 lux & 0 lux )
30/08/2026 02h 50' 05" Ping reçu, 3009
30/08/2026 02h 50' 03" Ping reçu, 3008
30/08/2026 02h 50' 02" cPing.
30/08/2026 02h 49' 57" Ping reçu, 3007
30/08/2026 02h 49' 49" Ping reçu,         3005
30/08/2026 02h 49' 45" Ping reçu, 3004
30/08/2026 02h 49' 41" Ping reçu, 3003
30/08/2026 02h 49' 27" Ping reçu,         3000
30/08/2026 02h 49' 27" Enregistrement de la Pression atmosphérique (1027,465 hPa)
30/08/2026 02h 49' 09" Ping reçu, 2996
30/08/2026 02h 49' 05" Ping reçu,         2995
30/08/2026 02h 49' 05" cPing.
30/08/2026 02h 49' 01" Ping reçu, 2994
30/08/2026 02h 48' 57" Ping reçu, 2993
30/08/2026 02h 48' 45" Ping reçu,         2990
30/08/2026 02h 48' 41" Ping reçu, 2989
30/08/2026 02h 48' 37" Ping reçu, 2988
30/08/2026 02h 48' 29" Ping reçu, 2986
30/08/2026 02h 48' 24" Ping reçu,         2985
30/08/2026 02h 48' 15" Ping reçu, 2983
30/08/2026 02h 48' 11" Ping reçu, 2982
30/08/2026 02h 48' 10" cPing.
30/08/2026 02h 48' 06" Enregistrement de l'éclairement (345.6 lux & 0 lux )
30/08/2026 02h 48' 03" Ping reçu,         2980
30/08/2026 02h 47' 59" Ping reçu, 2979
30/08/2026 02h 47' 56" Ping reçu, 2978
30/08/2026 02h 47' 48" Ping reçu, 2976
30/08/2026 02h 47' 43" Ping reçu,         2975
30/08/2026 02h 47' 35" Ping reçu, 2973
30/08/2026 02h 47' 26" Ping reçu, 2971
30/08/2026 02h 47' 21" Ping reçu,         2970
30/08/2026 02h 47' 13" Ping reçu, 2968
30/08/2026 02h 47' 13" cPing.
30/08/2026 02h 47' 11" ERR. Ther. 1 HS.
30/08/2026 02h 47' 09" Ping reçu, 2967
30/08/2026 02h 47' 00" Ping reçu,         2965
30/08/2026 02h 46' 57" Ping reçu, 2964
30/08/2026 02h 46' 49" Ping reçu, 2962
30/08/2026 02h 46' 45" Ping reçu, 2961
30/08/2026 02h 46' 41" Enregistrement des paramètres du vent (49.1° @ 0 m/s)
30/08/2026 02h 46' 41" Ping reçu,         2960
30/08/2026 02h 46' 36" Ping reçu, 2959
30/08/2026 02h 46' 32" Ping reçu, 2958
30/08/2026 02h 46' 27" Ping reçu, 2957
30/08/2026 02h 46' 23" Ping reçu, 2956
30/08/2026 02h 46' 19" Ping reçu,         2955
30/08/2026 02h 46' 17" cPing.
30/08/2026 02h 46' 15" Ping reçu, 2954
30/08/2026 02h 46' 12" Ping reçu, 2953
30/08/2026 02h 46' 08" Ping reçu, 2952
30/08/2026 02h 46' 04" Ping reçu, 2951
30/08/2026 02h 45' 59" Ping reçu,         2950
30/08/2026 02h 45' 55" Ping reçu, 2949
30/08/2026 02h 45' 54" Enregistrement de l'éclairement (345.6 lux & 0 lux )
30/08/2026 02h 45' 51" Ping reçu, 2948
30/08/2026 02h 45' 47" Ping reçu, 2947
30/08/2026 02h 45' 42" Ping reçu, 2946
30/08/2026 02h 45' 38" Ping reçu,         2945
30/08/2026 02h 45' 34" Ping reçu, 2944
30/08/2026 02h 45' 30" Ping reçu, 2943
30/08/2026 02h 45' 26" Ping reçu, 2942
30/08/2026 02h 45' 21" Enregistrement Température du pluviometre : (21,2 °C)
30/08/2026 02h 45' 20" cPing.
30/08/2026 02h 45' 20" Ping reçu, 2941
30/08/2026 02h 45' 17" Enregistrement de la température (18,649 °C)
30/08/2026 02h 45' 15" Ping reçu,         2940
30/08/2026 02h 45' 11" Ping reçu, 2939
30/08/2026 02h 45' 06" Ping reçu, 2938
30/08/2026 02h 45' 02" Ping reçu, 2937
30/08/2026 02h 44' 58" Ping reçu, 2936
30/08/2026 02h 44' 54" Ping reçu,         2935
30/08/2026 02h 44' 50" Ping reçu, 2934
30/08/2026 02h 44' 44" Enregistrement de l'éclairement (345.6 lux & 0 lux )
30/08/2026 02h 44' 39" Ping reçu, 2931
30/08/2026 02h 44' 35" Ping reçu,         2930
30/08/2026 02h 44' 30" Ping reçu, 2929
30/08/2026 02h 44' 26" Ping reçu, 2928
30/08/2026 02h 44' 25" cPing.
30/08/2026 02h 44' 21" Ping reçu, 2927
30/08/2026 02h 44' 12" Ping reçu,         2925
30/08/2026 02h 44' 08" Ping reçu, 2924
30/08/2026 02h 43' 46" Ping reçu, 2919
30/08/2026 02h 43' 42" Ping reçu, 2918
30/08/2026 02h 43' 35" Ping reçu, 2916
30/08/2026 02h 43' 31" Ping reçu,         2915
30/08/2026 02h 43' 28" cPing.
30/08/2026 02h 43' 18" Ping reçu, 2912
30/08/2026 02h 43' 14" ERR. Ther. 1 HS.
30/08/2026 02h 43' 13" Ping reçu, 2911
30/08/2026 02h 43' 09" Ping reçu,         2910
30/08/2026 02h 43' 05" Ping reçu, 2909
30/08/2026 02h 43' 00" Ping reçu, 2908
30/08/2026 02h 42' 56" On a tout sauvé !
30/08/2026 02h 42' 56" Ping reçu, 2907
30/08/2026 02h 42' 51" Ping reçu, 2906
30/08/2026 02h 42' 47" Ping reçu,         2905
30/08/2026 02h 42' 42" Ping reçu, 2904
30/08/2026 02h 42' 38" Ping reçu, 2903
30/08/2026 02h 42' 33" Ping reçu, 2902
30/08/2026 02h 42' 33" cPing.
30/08/2026 02h 42' 29" Ping reçu, 2901
30/08/2026 02h 42' 29" Enregistrement de l'éclairement (345.6 lux & 0 lux )
30/08/2026 02h 42' 25" Ping reçu,         2900
30/08/2026 02h 42' 21" Ping reçu, 2899
30/08/2026 02h 42' 14" Ping reçu, 2897
30/08/2026 02h 42' 06" Ping reçu,         2895
30/08/2026 02h 42' 01" Ping reçu, 2894
30/08/2026 02h 41' 57" Ping reçu, 2893
30/08/2026 02h 41' 53" Ping reçu, 2892
30/08/2026 02h 41' 40" Ping reçu, 2889
30/08/2026 02h 41' 36" Ping reçu, 2888
30/08/2026 02h 41' 36" cPing.
30/08/2026 02h 41' 32" Ping reçu, 2887
30/08/2026 02h 41' 29" Ping reçu, 2886
30/08/2026 02h 41' 25" Ping reçu,         2885
30/08/2026 02h 41' 12" Ping reçu, 2882
30/08/2026 02h 41' 04" Enregistrement de la température (18,708 °C)
30/08/2026 02h 41' 03" Pressions pluviométriques (32,07 & 64,00)
30/08/2026 02h 41' 03" Ping reçu,         2880
30/08/2026 02h 41' 02" Enregistrement des paramètres du vent (49.1° @ 0 m/s)
30/08/2026 02h 41' 02" Enregistrement de la Pression atmosphérique (1027,435 hPa)
30/08/2026 02h 40' 57" Ping reçu, 2879
30/08/2026 02h 40' 41" cPing.
30/08/2026 02h 40' 40" Ping reçu,         2875
30/08/2026 02h 40' 23" Ping reçu, 2871
30/08/2026 02h 40' 14" Ping reçu, 2869
30/08/2026 02h 40' 10" Ping reçu, 2868
30/08/2026 02h 40' 09" Enregistrement de l'éclairement (345.6 lux & 0 lux )
30/08/2026 02h 40' 06" Ping reçu, 2867
30/08/2026 02h 40' 03" Ping reçu, 2866
30/08/2026 02h 39' 47" Ping reçu, 2863
30/08/2026 02h 39' 45" cPing.
30/08/2026 02h 39' 42" Ping reçu, 2862
30/08/2026 02h 39' 38" Ping reçu, 2861
30/08/2026 02h 39' 34" Ping reçu,         2860
30/08/2026 02h 39' 30" Ping reçu, 2859
30/08/2026 02h 39' 27" Ping reçu, 2858
30/08/2026 02h 39' 21" Ping reçu, 2857
30/08/2026 02h 39' 17" Ping reçu, 2856
30/08/2026 02h 39' 15" ERR. Ther. 1 HS.
30/08/2026 02h 39' 10" Ping reçu, 2854
30/08/2026 02h 39' 03" Enregistrement de l'éclairement (345.6 lux & 0 lux )
30/08/2026 02h 39' 02" Ping reçu, 2852
30/08/2026 02h 38' 53" Ping reçu,         2850
30/08/2026 02h 38' 48" cPing.
30/08/2026 02h 38' 44" Ping reçu, 2848
30/08/2026 02h 38' 40" Ping reçu, 2847
30/08/2026 02h 38' 36" Ping reçu, 2846
30/08/2026 02h 38' 24" Ping reçu, 2843
30/08/2026 02h 38' 20" Ping reçu, 2842
30/08/2026 02h 38' 16" Ping reçu, 2841
30/08/2026 02h 38' 12" Ping reçu,         2840
30/08/2026 02h 38' 08" Ping reçu, 2839
30/08/2026 02h 38' 03" Ping reçu, 2838
30/08/2026 02h 37' 59" Ping reçu, 2837
30/08/2026 02h 37' 58" Enregistrement de l'éclairement (345.6 lux & 0 lux )
30/08/2026 02h 37' 55" Ping reçu, 2836
30/08/2026 02h 37' 53" cPing.
30/08/2026 02h 37' 51" Ping reçu,         2835
30/08/2026 02h 37' 47" Ping reçu, 2834
30/08/2026 02h 37' 44" Ping reçu, 2833
30/08/2026 02h 37' 38" Ping reçu, 2832
30/08/2026 02h 37' 29" Ping reçu,         2830
30/08/2026 02h 37' 27" Ping reçu, 2829
30/08/2026 02h 37' 23" Ping reçu, 2828
30/08/2026 02h 37' 00" Ping reçu, 2823
30/08/2026 02h 36' 56" Ping reçu, 2822
30/08/2026 02h 36' 56" cPing.
30/08/2026 02h 36' 51" Enregistrement de la température (18,733 °C)
30/08/2026 02h 36' 51" Enregistrement de l'éclairement (345.6 lux & 0 lux )
30/08/2026 02h 36' 43" Ping reçu, 2819
30/08/2026 02h 36' 30" Ping reçu, 2816
30/08/2026 02h 36' 26" Ping reçu,         2815
30/08/2026 02h 36' 23" Ping reçu, 2814
30/08/2026 02h 36' 19" Ping reçu, 2813
30/08/2026 02h 36' 15" Ping reçu, 2812
30/08/2026 02h 36' 02" Ping reçu, 2809
30/08/2026 02h 36' 01" cPing.
30/08/2026 02h 35' 53" Ping reçu, 2807
30/08/2026 02h 35' 49" Ping reçu, 2806
30/08/2026 02h 35' 45" Ping reçu,         2805
30/08/2026 02h 35' 43" Enregistrement de l'éclairement (345.6 lux & 0 lux )
30/08/2026 02h 35' 25" Enregistrement de l'humidité (99,90 %)
30/08/2026 02h 35' 23" Enregistrement des paramètres du vent (49.1° @ 0 m/s)
30/08/2026 02h 35' 20" ERR. Ther. 1 HS.
30/08/2026 02h 35' 17" Ping reçu, 2799
30/08/2026 02h 35' 13" Ping reçu, 2798
30/08/2026 02h 35' 05" Ping reçu, 2796
30/08/2026 02h 35' 04" cPing.
30/08/2026 02h 35' 00" Ping reçu,         2795
30/08/2026 02h 34' 57" Ping reçu, 2794
30/08/2026 02h 34' 45" Ping reçu, 2791
30/08/2026 02h 34' 40" Ping reçu,         2790
30/08/2026 02h 34' 33" Enregistrement de l'éclairement (345.6 lux & 0 lux )
30/08/2026 02h 34' 32" Ping reçu, 2788
30/08/2026 02h 34' 23" Ping reçu, 2786
30/08/2026 02h 34' 18" Ping reçu,         2785
30/08/2026 02h 34' 14" Ping reçu, 2784
30/08/2026 02h 34' 09" cPing.
30/08/2026 02h 34' 06" Ping reçu, 2782
30/08/2026 02h 34' 03" Ping reçu, 2781
30/08/2026 02h 33' 46" Ping reçu, 2777
30/08/2026 02h 33' 42" Ping reçu, 2776
30/08/2026 02h 33' 38" Ping reçu,         2775
30/08/2026 02h 33' 33" Ping reçu, 2774
30/08/2026 02h 33' 29" Ping reçu, 2773
30/08/2026 02h 33' 25" Ping reçu, 2772
30/08/2026 02h 33' 24" Enregistrement de l'éclairement (345.6 lux & 0 lux )
30/08/2026 02h 33' 21" Ping reçu, 2771
30/08/2026 02h 33' 18" Ping reçu,         2770
30/08/2026 02h 33' 12" cPing.
30/08/2026 02h 33' 06" Ping reçu, 2768
30/08/2026 02h 33' 01" Ping reçu, 2767
30/08/2026 02h 32' 44" Ping reçu, 2763
30/08/2026 02h 32' 35" Ping reçu, 2761
30/08/2026 02h 32' 33" Enregistrement de la Pression atmosphérique (1027,400 hPa)
30/08/2026 02h 32' 31" Ping reçu,         2760
30/08/2026 02h 32' 26" Ping reçu, 2759
30/08/2026 02h 32' 17" Enregistrement de l'éclairement (345.6 lux & 0 lux )
30/08/2026 02h 32' 17" cPing.
30/08/2026 02h 32' 13" Ping reçu, 2756
30/08/2026 02h 32' 09" Ping reçu,         2755
30/08/2026 02h 32' 02" Ping reçu, 2753
30/08/2026 02h 31' 53" Ping reçu, 2751
30/08/2026 02h 31' 45" Ping reçu, 2749
30/08/2026 02h 31' 40" Ping reçu, 2748
30/08/2026 02h 31' 36" Ping reçu, 2747
30/08/2026 02h 31' 32" Ping reçu, 2746
30/08/2026 02h 31' 27" Ping reçu,         2745
30/08/2026 02h 31' 21" cPing.
30/08/2026 02h 31' 21" ERR. Ther. 14 HS.
30/08/2026 02h 31' 18" Ping reçu, 2743
30/08/2026 02h 31' 10" Ping reçu, 2741
30/08/2026 02h 31' 09" Enregistrement de l'éclairement (345.6 lux & 0 lux )
30/08/2026 02h 30' 59" Ping reçu, 2738
30/08/2026 02h 30' 55" Ping reçu, 2737
30/08/2026 02h 30' 51" Ping reçu, 2736
30/08/2026 02h 30' 46" Ping reçu,         2735
30/08/2026 02h 30' 42" Ping reçu, 2734
30/08/2026 02h 30' 38" Ping reçu, 2733
30/08/2026 02h 30' 33" Ping reçu, 2732
30/08/2026 02h 30' 29" Ping reçu, 2731
30/08/2026 02h 30' 25" Ping reçu,         2730
30/08/2026 02h 30' 24" cPing.
30/08/2026 02h 30' 16" Ping reçu, 2728
30/08/2026 02h 30' 12" Ping reçu, 2727
30/08/2026 02h 30' 08" Ping reçu, 2726
30/08/2026 02h 30' 05" Ping reçu,         2725
30/08/2026 02h 29' 57" Ping reçu, 2723
30/08/2026 02h 29' 52" Ping reçu, 2722
30/08/2026 02h 29' 48" Ping reçu, 2721
30/08/2026 02h 29' 44" Pressions pluviométriques (32,07 & 64,00)
30/08/2026 02h 29' 44" Ping reçu,         2720
30/08/2026 02h 29' 38" Ping reçu, 2719
30/08/2026 02h 29' 29" Ping reçu, 2717
30/08/2026 02h 29' 27" cPing.
30/08/2026 02h 29' 25" Ping reçu, 2716
30/08/2026 02h 29' 17" Ping reçu, 2714
30/08/2026 02h 29' 08" Ping reçu, 2712
30/08/2026 02h 29' 00" Ping reçu,         2710
30/08/2026 02h 28' 56" Ping reçu, 2709
30/08/2026 02h 28' 54" Enregistrement de l'éclairement (345.6 lux & 0 lux )
30/08/2026 02h 28' 44" Ping reçu, 2706
30/08/2026 02h 28' 40" Ping reçu,         2705
30/08/2026 02h 28' 36" Ping reçu, 2704
30/08/2026 02h 28' 32" Ping reçu, 2703
30/08/2026 02h 28' 32" cPing.
30/08/2026 02h 28' 27" Ping reçu, 2702
30/08/2026 02h 28' 23" Ping reçu, 2701
30/08/2026 02h 28' 21" Enregistrement de la température (18,862 °C)
30/08/2026 02h 28' 18" Ping reçu,         2700
30/08/2026 02h 28' 00" Ping reçu, 2696
30/08/2026 02h 27' 56" Ping reçu,         2695
30/08/2026 02h 27' 43" Enregistrement de l'éclairement (345.6 lux & 0 lux )
30/08/2026 02h 27' 42" Ping reçu, 2692
30/08/2026 02h 27' 38" Ping reçu, 2691
30/08/2026 02h 27' 35" cPing.
30/08/2026 02h 27' 20" Ping reçu, 2687
30/08/2026 02h 27' 15" Ping reçu, 2686
30/08/2026 02h 27' 11" Ping reçu,         2685
30/08/2026 02h 27' 07" Ping reçu, 2684
30/08/2026 02h 27' 03" Ping reçu, 2683
30/08/2026 02h 27' 00" Ping reçu, 2682
30/08/2026 02h 26' 56" Ping reçu, 2681
30/08/2026 02h 26' 47" Ping reçu, 2679
30/08/2026 02h 26' 43" Ping reçu, 2678
30/08/2026 02h 26' 39" cPing.
30/08/2026 02h 26' 39" Ping reçu, 2677
30/08/2026 02h 26' 30" Ping reçu,         2675
30/08/2026 02h 26' 27" Enregistrement de l'Arduino : (22,8 °C)
30/08/2026 02h 26' 20" Ping reçu, 2673
30/08/2026 02h 26' 16" Ping reçu, 2672
30/08/2026 02h 25' 59" Ping reçu, 2668
30/08/2026 02h 25' 54" Ping reçu, 2667
30/08/2026 02h 25' 50" Ping reçu, 2666
30/08/2026 02h 25' 44" cPing.
30/08/2026 02h 25' 41" Ping reçu, 2664
30/08/2026 02h 25' 37" Ping reçu, 2663
30/08/2026 02h 25' 33" Ping reçu, 2662
30/08/2026 02h 25' 29" Ping reçu, 2661
30/08/2026 02h 25' 28" Enregistrement de l'éclairement (345.6 lux & 0 lux )
30/08/2026 02h 25' 22" Ping reçu, 2659
30/08/2026 02h 25' 18" Ping reçu, 2658
30/08/2026 02h 25' 14" Ping reçu, 2657
30/08/2026 02h 25' 04" Ping reçu,         2655
30/08/2026 02h 24' 47" Ping reçu, 2651
30/08/2026 02h 24' 47" cPing.
30/08/2026 02h 24' 43" Ping reçu,         2650
30/08/2026 02h 24' 39" Ping reçu, 2649
30/08/2026 02h 24' 30" Ping reçu, 2647
30/08/2026 02h 24' 27" Ping reçu, 2646
30/08/2026 02h 24' 23" Ping reçu,         2645
30/08/2026 02h 24' 19" Ping reçu, 2644
30/08/2026 02h 24' 15" Ping reçu, 2643
30/08/2026 02h 24' 06" Ping reçu, 2641
30/08/2026 02h 24' 02" Enregistrement de la Pression atmosphérique (1027,373 hPa)
30/08/2026 02h 24' 02" Ping reçu,         2640
30/08/2026 02h 23' 52" Ping reçu, 2638
30/08/2026 02h 23' 52" cPing.
30/08/2026 02h 23' 48" Ping reçu, 2637
30/08/2026 02h 23' 39" Ping reçu,         2635
30/08/2026 02h 23' 22" ERR. Ther. 1 HS.
30/08/2026 02h 23' 21" Ping reçu, 2631
30/08/2026 02h 23' 12" Ping reçu, 2629
30/08/2026 02h 23' 11" Enregistrement de l'éclairement (345.6 lux & 0 lux )
30/08/2026 02h 23' 08" Ping reçu, 2628
30/08/2026 02h 22' 59" Ping reçu, 2626
30/08/2026 02h 22' 55" cPing.
30/08/2026 02h 22' 51" Ping reçu, 2624
30/08/2026 02h 22' 46" Ping reçu, 2623
30/08/2026 02h 22' 42" Ping reçu, 2622
30/08/2026 02h 22' 38" Ping reçu, 2621
30/08/2026 02h 22' 35" Ping reçu,         2620
30/08/2026 02h 22' 31" Ping reçu, 2619
30/08/2026 02h 22' 14" Ping reçu,         2615
30/08/2026 02h 22' 05" Ping reçu, 2613
30/08/2026 02h 22' 04" Enregistrement de l'éclairement (345.6 lux & 0 lux )
30/08/2026 02h 22' 00" Ping reçu, 2612
30/08/2026 02h 22' 00" cPing.
30/08/2026 02h 21' 56" Ping reçu, 2611
30/08/2026 02h 21' 48" Ping reçu, 2609
30/08/2026 02h 21' 44" Ping reçu, 2608
30/08/2026 02h 21' 39" Ping reçu, 2607
30/08/2026 02h 21' 35" Ping reçu, 2606
30/08/2026 02h 21' 28" Ping reçu, 2604
30/08/2026 02h 21' 24" Ping reçu, 2603
30/08/2026 02h 21' 20" Ping reçu, 2602
30/08/2026 02h 21' 11" Ping reçu,         2600
30/08/2026 02h 21' 03" cPing.
30/08/2026 02h 21' 02" Ping reçu, 2598
30/08/2026 02h 20' 58" Ping reçu, 2597
30/08/2026 02h 20' 54" Ping reçu, 2596
30/08/2026 02h 20' 52" Enregistrement de l'éclairement (345.6 lux & 0 lux )
30/08/2026 02h 20' 43" Ping reçu, 2594
30/08/2026 02h 20' 39" Ping reçu, 2593
30/08/2026 02h 20' 29" Ping reçu, 2591
30/08/2026 02h 20' 21" Ping reçu, 2589
30/08/2026 02h 20' 08" cPing.
30/08/2026 02h 19' 59" Ping reçu, 2584
30/08/2026 02h 19' 55" Ping reçu, 2583
30/08/2026 02h 19' 51" Ping reçu, 2582
30/08/2026 02h 19' 45" Enregistrement de l'éclairement (345.6 lux & 0 lux )
30/08/2026 02h 19' 42" Ping reçu,         2580
30/08/2026 02h 19' 33" Ping reçu, 2578
30/08/2026 02h 19' 30" Ping reçu, 2577
30/08/2026 02h 19' 22" ERR. Ther. 14 HS.
30/08/2026 02h 19' 21" Ping reçu,         2575
30/08/2026 02h 19' 17" Ping reçu, 2574
30/08/2026 02h 19' 13" Ping reçu, 2573
30/08/2026 02h 19' 12" cPing.
30/08/2026 02h 19' 09" Ping reçu, 2572
30/08/2026 02h 18' 56" Ping reçu, 2569
30/08/2026 02h 18' 51" Ping reçu, 2568
30/08/2026 02h 18' 47" Ping reçu, 2567
30/08/2026 02h 18' 37" Enregistrement de l'éclairement (345.6 lux & 0 lux )
30/08/2026 02h 18' 34" Ping reçu, 2564
30/08/2026 02h 18' 30" Ping reçu, 2563
30/08/2026 02h 18' 27" Ping reçu, 2562
30/08/2026 02h 18' 23" Ping reçu, 2561
30/08/2026 02h 18' 20" Pressions pluviométriques (32,07 & 64,00)
30/08/2026 02h 18' 19" Enregistrement de la hauteur d'eau (783,840 mm @ 99,9%)
30/08/2026 02h 18' 18" Enregistrement des paramètres du vent (49.1° @ 0 m/s)
30/08/2026 02h 18' 15" cPing.
30/08/2026 02h 18' 09" Ping reçu, 2558
30/08/2026 02h 18' 05" Ping reçu, 2557
30/08/2026 02h 17' 56" Ping reçu,         2555
30/08/2026 02h 17' 43" Ping reçu, 2552
30/08/2026 02h 17' 39" Ping reçu, 2551
30/08/2026 02h 17' 35" Ping reçu,         2550
30/08/2026 02h 17' 26" Ping reçu, 2548
30/08/2026 02h 17' 21" Ping reçu, 2547
30/08/2026 02h 17' 20" cPing.
30/08/2026 02h 17' 17" Ping reçu, 2546
30/08/2026 02h 17' 13" Ping reçu,         2545
30/08/2026 02h 17' 00" Ping reçu, 2542
30/08/2026 02h 16' 57" Ping reçu, 2541
30/08/2026 02h 16' 53" Ping reçu,         2540
30/08/2026 02h 16' 49" Ping reçu, 2539
30/08/2026 02h 16' 41" Ping reçu, 2537
30/08/2026 02h 16' 32" Ping reçu,         2535
30/08/2026 02h 16' 27" Ping reçu, 2534
30/08/2026 02h 16' 23" Ping reçu, 2533
30/08/2026 02h 16' 23" cPing.
30/08/2026 02h 16' 19" Ping reçu, 2532
30/08/2026 02h 16' 12" Ping reçu,         2530
30/08/2026 02h 16' 08" Ping reçu, 2529
30/08/2026 02h 15' 59" Ping reçu, 2527
30/08/2026 02h 15' 51" Ping reçu,         2525
30/08/2026 02h 15' 47" Ping reçu, 2524
30/08/2026 02h 15' 42" Ping reçu, 2523
30/08/2026 02h 15' 38" Ping reçu, 2522
30/08/2026 02h 15' 34" Ping reçu, 2521
30/08/2026 02h 15' 30" Enregistrement de l'humidité (99,90 %)
30/08/2026 02h 15' 29" Ping reçu,         2520
30/08/2026 02h 15' 29" Enregistrement de la Pression atmosphérique (1027,350 hPa)
30/08/2026 02h 15' 28" cPing.
30/08/2026 02h 15' 25" ERR. Ther. 1 HS.
30/08/2026 02h 15' 25" ERR. Ther. 14 HS.
30/08/2026 02h 15' 24" Ping reçu, 2519
30/08/2026 02h 15' 20" Ping reçu, 2518
30/08/2026 02h 15' 16" Ping reçu, 2517
30/08/2026 02h 15' 15" Enregistrement de l'éclairement (345.6 lux & 0 lux )
30/08/2026 02h 15' 12" Ping reçu, 2516
30/08/2026 02h 15' 07" Ping reçu,         2515
30/08/2026 02h 15' 00" Ping reçu, 2513
30/08/2026 02h 14' 57" Ping reçu, 2512
30/08/2026 02h 14' 43" Ping reçu, 2509
30/08/2026 02h 14' 30" Ping reçu, 2506
30/08/2026 02h 14' 30" cPing.
30/08/2026 02h 14' 22" Ping reçu, 2504
30/08/2026 02h 14' 18" Ping reçu, 2503
30/08/2026 02h 14' 14" Ping reçu, 2502
30/08/2026 02h 14' 07" Enregistrement de l'éclairement (345.6 lux & 0 lux )
30/08/2026 02h 14' 02" Ping reçu, 2499
30/08/2026 02h 13' 44" Ping reçu,         2495
30/08/2026 02h 13' 40" Ping reçu, 2494
30/08/2026 02h 13' 36" On a tout sauvé !
30/08/2026 02h 13' 36" Ping reçu, 2493
30/08/2026 02h 13' 35" cPing.
30/08/2026 02h 13' 31" Ping reçu, 2492
30/08/2026 02h 13' 27" Ping reçu, 2491
30/08/2026 02h 13' 23" Ping reçu,         2490
30/08/2026 02h 13' 14" Ping reçu, 2488
30/08/2026 02h 13' 10" Ping reçu, 2487
30/08/2026 02h 13' 02" Ping reçu,         2485
30/08/2026 02h 12' 59" Ping reçu, 2484
30/08/2026 02h 12' 53" Enregistrement de l'Arduino : (23,0 °C)
30/08/2026 02h 12' 47" Ping reçu, 2482
30/08/2026 02h 12' 43" Ping reçu, 2481
30/08/2026 02h 12' 38" cPing.
30/08/2026 02h 12' 38" Enregistrement des paramètres du vent (49.1° @ 0 m/s)
30/08/2026 02h 12' 29" Ping reçu, 2478
30/08/2026 02h 12' 24" Ping reçu, 2477
30/08/2026 02h 12' 20" Ping reçu, 2476
30/08/2026 02h 12' 16" Ping reçu,         2475
30/08/2026 02h 12' 08" Ping reçu, 2473
30/08/2026 02h 12' 05" Ping reçu, 2472
30/08/2026 02h 11' 52" Ping reçu, 2469
30/08/2026 02h 11' 50" Enregistrement de l'éclairement (345.6 lux & 0 lux )
30/08/2026 02h 11' 48" Ping reçu, 2468
30/08/2026 02h 11' 43" cPing.
30/08/2026 02h 11' 30" Ping reçu, 2464
30/08/2026 02h 11' 27" ERR. Ther. 1 HS.
30/08/2026 02h 11' 15" Enregistrement de la température (18,961 °C)
30/08/2026 02h 11' 12" Ping reçu,         2460
30/08/2026 02h 11' 08" Ping reçu, 2459
30/08/2026 02h 11' 03" Ping reçu, 2458
30/08/2026 02h 10' 59" Ping reçu, 2457
30/08/2026 02h 10' 55" Ping reçu, 2456
30/08/2026 02h 10' 51" Ping reçu,         2455
30/08/2026 02h 10' 48" Ping reçu, 2454
30/08/2026 02h 10' 46" cPing.
30/08/2026 02h 10' 44" Ping reçu, 2453
30/08/2026 02h 10' 41" Enregistrement de l'éclairement (345.6 lux & 0 lux )
30/08/2026 02h 10' 40" Ping reçu, 2452
30/08/2026 02h 10' 36" Ping reçu, 2451
30/08/2026 02h 10' 27" Ping reçu, 2449
30/08/2026 02h 10' 23" Ping reçu, 2448
30/08/2026 02h 10' 18" Ping reçu, 2447
30/08/2026 02h 10' 14" Ping reçu, 2446
30/08/2026 02h 10' 10" Ping reçu,         2445
30/08/2026 02h 10' 01" Ping reçu, 2443
30/08/2026 02h 09' 51" cPing.
30/08/2026 02h 09' 50" Ping reçu,         2440
30/08/2026 02h 09' 46" Ping reçu, 2439
30/08/2026 02h 09' 38" Ping reçu, 2437
30/08/2026 02h 09' 36" Enregistrement de l'éclairement (345.6 lux & 0 lux )
30/08/2026 02h 09' 33" Ping reçu, 2436
30/08/2026 02h 09' 24" Ping reçu, 2434
30/08/2026 02h 09' 20" Ping reçu, 2433
30/08/2026 02h 09' 16" Ping reçu, 2432
30/08/2026 02h 09' 12" Ping reçu, 2431
30/08/2026 02h 09' 08" Ping reçu,         2430
30/08/2026 02h 09' 01" Ping reçu, 2428
30/08/2026 02h 08' 56" Ping reçu, 2427
30/08/2026 02h 08' 54" cPing.
30/08/2026 02h 08' 52" Ping reçu, 2426
30/08/2026 02h 08' 48" Ping reçu,         2425
30/08/2026 02h 08' 44" Ping reçu, 2424
30/08/2026 02h 08' 34" Enregistrement Température du pluviometre : (21,3 °C)
30/08/2026 02h 08' 33" Ping reçu, 2422
30/08/2026 02h 08' 24" Ping reçu,         2420
30/08/2026 02h 08' 12" Ping reçu, 2417
30/08/2026 02h 08' 08" Ping reçu, 2416
30/08/2026 02h 08' 03" Ping reçu,         2415
30/08/2026 02h 07' 59" Ping reçu, 2414
30/08/2026 02h 07' 59" cPing.
30/08/2026 02h 07' 50" Ping reçu, 2412
30/08/2026 02h 07' 42" Ping reçu,         2410
30/08/2026 02h 07' 38" Ping reçu, 2409
30/08/2026 02h 07' 32" ERR. Ther. 14 HS.
30/08/2026 02h 07' 29" Ping reçu, 2407
30/08/2026 02h 07' 26" Ping reçu, 2406
30/08/2026 02h 07' 18" Ping reçu, 2404
30/08/2026 02h 07' 18" Enregistrement de l'éclairement (345.6 lux & 0 lux )
30/08/2026 02h 07' 14" Ping reçu, 2403
30/08/2026 02h 07' 09" Ping reçu, 2402
30/08/2026 02h 07' 03" cPing.
30/08/2026 02h 07' 01" Enregistrement de la hauteur d'eau (783,940 mm @ 99,9%)
30/08/2026 02h 07' 01" Enregistrement de la température (18,944 °C)
30/08/2026 02h 07' 01" Pressions pluviométriques (32,07 & 64,00)
30/08/2026 02h 06' 54" Ping reçu, 2399
30/08/2026 02h 06' 50" Ping reçu, 2398
30/08/2026 02h 06' 46" Ping reçu, 2397
30/08/2026 02h 06' 42" Ping reçu, 2396
30/08/2026 02h 06' 38" Ping reçu,         2395
30/08/2026 02h 06' 24" Ping reçu, 2392
30/08/2026 02h 06' 20" Ping reçu, 2391
30/08/2026 02h 06' 15" Ping reçu,         2390
30/08/2026 02h 06' 11" Ping reçu, 2389
30/08/2026 02h 06' 11" Enregistrement de l'éclairement (345.6 lux & 0 lux )
30/08/2026 02h 06' 07" Ping reçu, 2388
30/08/2026 02h 06' 06" cPing.
30/08/2026 02h 06' 03" Ping reçu, 2387
30/08/2026 02h 06' 00" Ping reçu, 2386
30/08/2026 02h 05' 52" Ping reçu, 2384
30/08/2026 02h 05' 43" Ping reçu, 2382
30/08/2026 02h 05' 39" Ping reçu, 2381
30/08/2026 02h 05' 35" Enregistrement de l'humidité (99,90 %)
30/08/2026 02h 05' 35" Ping reçu,         2380
30/08/2026 02h 05' 30" Ping reçu, 2379
30/08/2026 02h 05' 26" Ping reçu, 2378
30/08/2026 02h 05' 21" Ping reçu, 2377
30/08/2026 02h 05' 17" Ping reçu, 2376
30/08/2026 02h 05' 13" Ping reçu,         2375
30/08/2026 02h 05' 11" cPing.
30/08/2026 02h 05' 09" Ping reçu, 2374
30/08/2026 02h 05' 05" Ping reçu, 2373
30/08/2026 02h 05' 02" Ping reçu, 2372
30/08/2026 02h 04' 58" Ping reçu, 2371
30/08/2026 02h 04' 54" Ping reçu,         2370
30/08/2026 02h 04' 32" Ping reçu,         2365
30/08/2026 02h 04' 27" Ping reçu, 2364
30/08/2026 02h 04' 23" Ping reçu, 2363
30/08/2026 02h 04' 18" Ping reçu, 2362
30/08/2026 02h 04' 14" Ping reçu, 2361
30/08/2026 02h 04' 14" cPing.
30/08/2026 02h 04' 10" Ping reçu,         2360
30/08/2026 02h 04' 06" Ping reçu, 2359
30/08/2026 02h 04' 02" Ping reçu, 2358
30/08/2026 02h 03' 54" Ping reçu, 2356
30/08/2026 02h 03' 50" Ping reçu,         2355
30/08/2026 02h 03' 42" Ping reçu, 2353
30/08/2026 02h 03' 38" Ping reçu, 2352
30/08/2026 02h 03' 34" ERR. Ther. 14 HS.
30/08/2026 02h 03' 33" Ping reçu, 2351
30/08/2026 02h 03' 29" Ping reçu,         2350
30/08/2026 02h 03' 24" Ping reçu, 2349
30/08/2026 02h 03' 19" cPing.
30/08/2026 02h 03' 15" Ping reçu, 2347
30/08/2026 02h 03' 11" Ping reçu, 2346
30/08/2026 02h 03' 07" Ping reçu,         2345
30/08/2026 02h 03' 03" Ping reçu, 2344
30/08/2026 02h 02' 56" Ping reçu, 2342
30/08/2026 02h 02' 52" Ping reçu, 2341
30/08/2026 02h 02' 49" Enregistrement de la température (18,929 °C)
30/08/2026 02h 02' 48" Ping reçu,         2340
30/08/2026 02h 02' 43" Ping reçu, 2339
30/08/2026 02h 02' 39" Ping reçu, 2338
30/08/2026 02h 02' 35" Ping reçu, 2337
30/08/2026 02h 02' 30" Ping reçu, 2336
30/08/2026 02h 02' 26" Ping reçu,         2335
30/08/2026 02h 02' 22" cPing.
30/08/2026 02h 02' 21" Ping reçu, 2334
30/08/2026 02h 02' 17" Ping reçu, 2333
30/08/2026 02h 02' 13" Ping reçu, 2332
30/08/2026 02h 02' 09" Ping reçu, 2331
30/08/2026 02h 02' 06" Ping reçu,         2330
30/08/2026 02h 02' 02" Ping reçu, 2329
30/08/2026 02h 01' 58" Ping reçu, 2328
30/08/2026 02h 01' 50" Ping reçu, 2326
30/08/2026 02h 01' 44" Enregistrement de l'éclairement (345.6 lux & 0 lux )
30/08/2026 02h 01' 37" Ping reçu, 2323
30/08/2026 02h 01' 27" cPing.
30/08/2026 02h 01' 24" Enregistrement des paramètres du vent (49.1° @ 0 m/s)
30/08/2026 02h 01' 24" Ping reçu,         2320
30/08/2026 02h 01' 21" Ping reçu, 2319
30/08/2026 02h 01' 12" Ping reçu, 2317
30/08/2026 02h 01' 09" Ping reçu, 2316
30/08/2026 02h 01' 05" Ping reçu,         2315
30/08/2026 02h 01' 00" Ping reçu, 2314
30/08/2026 02h 00' 56" Ping reçu, 2313
30/08/2026 02h 00' 47" Ping reçu, 2311
30/08/2026 02h 00' 43" Ping reçu,         2310
30/08/2026 02h 00' 39" Ping reçu, 2309
30/08/2026 02h 00' 38" Enregistrement de l'éclairement (345.6 lux & 0 lux )
30/08/2026 02h 00' 32" Ping reçu, 2307
30/08/2026 02h 00' 30" cPing.
30/08/2026 02h 00' 24" Ping reçu,         2305
30/08/2026 02h 00' 20" Ping reçu, 2304
30/08/2026 02h 00' 19" On purge les valeurs du crystal...
30/08/2026 02h 00' 15" Ping reçu, 2303
30/08/2026 02h 00' 11" Ping reçu, 2302
30/08/2026 02h 00' 06" Ping reçu, 2301
30/08/2026 01h 59' 58" Ping reçu, 2299
30/08/2026 01h 59' 53" Enregistrement de l'éclairement (345.6 lux & 0 lux )
30/08/2026 01h 59' 49" Ping reçu, 2297
30/08/2026 01h 59' 47" Ping reçu, 2296
30/08/2026 01h 59' 44" ERR. Ther. 14 HS.
30/08/2026 01h 59' 43" ERR. Ther. 1 HS.
30/08/2026 01h 59' 42" Ping reçu,         2295
30/08/2026 01h 59' 38" Ping reçu, 2294
30/08/2026 01h 59' 35" cPing.
30/08/2026 01h 59' 30" On a tout sauvé !
30/08/2026 01h 59' 26" Ping reçu, 2292
30/08/2026 01h 59' 26" Ping reçu, 2291
30/08/2026 01h 59' 23" Ping reçu,         2290
30/08/2026 01h 59' 22" Ping reçu, 2288
30/08/2026 01h 59' 20" Ping reçu, 2286
30/08/2026 01h 59' 17" Ping reçu, 2282
30/08/2026 01h 59' 17" Ping reçu, 2281
30/08/2026 01h 59' 13" cPing.
30/08/2026 01h 59' 12" Ping reçu,         2280
30/08/2026 01h 58' 29" Ping reçu, 2279
30/08/2026 01h 58' 26" Ping reçu, 2278
30/08/2026 01h 58' 19" Enregistrement de l'éclairement (345.6 lux & 0 lux )
30/08/2026 01h 58' 17" Ping reçu, 2276
30/08/2026 01h 58' 05" Ping reçu, 2273
30/08/2026 01h 58' 00" Ping reçu, 2272
30/08/2026 01h 57' 51" Ping reçu,         2270
30/08/2026 01h 57' 47" Ping reçu, 2269
30/08/2026 01h 57' 42" Ping reçu, 2268
30/08/2026 01h 57' 42" cPing.
30/08/2026 01h 57' 34" Ping reçu, 2266
30/08/2026 01h 57' 30" Ping reçu,         2265
30/08/2026 01h 57' 27" Ping reçu, 2264
30/08/2026 01h 57' 23" Ping reçu, 2263
30/08/2026 01h 57' 19" Ping reçu, 2262
30/08/2026 01h 57' 12" Enregistrement de l'éclairement (345.6 lux & 0 lux )
30/08/2026 01h 57' 11" Ping reçu,         2260
30/08/2026 01h 57' 06" Ping reçu, 2259
30/08/2026 01h 56' 58" Ping reçu, 2257
30/08/2026 01h 56' 49" Ping reçu,         2255
30/08/2026 01h 56' 45" Ping reçu, 2254
30/08/2026 01h 56' 45" cPing.
30/08/2026 01h 56' 36" Ping reçu, 2252
30/08/2026 01h 56' 23" Enregistrement Température du pluviometre : (21,3 °C)
30/08/2026 01h 56' 21" Ping reçu, 2249
30/08/2026 01h 56' 17" Ping reçu, 2248
30/08/2026 01h 56' 13" Ping reçu, 2247
30/08/2026 01h 56' 09" Ping reçu, 2246
30/08/2026 01h 56' 04" Ping reçu,         2245
30/08/2026 01h 56' 03" Enregistrement de l'éclairement (345.6 lux & 0 lux )
30/08/2026 01h 56' 00" Ping reçu, 2244
30/08/2026 01h 55' 50" cPing.
30/08/2026 01h 55' 49" Ping reçu, 2241
30/08/2026 01h 55' 45" Pressions pluviométriques (32,07 & 64,00)
30/08/2026 01h 55' 45" Ping reçu,         2240
30/08/2026 01h 55' 44" Enregistrement de l'humidité (99,90 %)
30/08/2026 01h 55' 40" ERR. Ther. 14 HS.
30/08/2026 01h 55' 39" ERR. Ther. 1 HS.
30/08/2026 01h 55' 37" Ping reçu, 2239
30/08/2026 01h 55' 30" Ping reçu, 2237
30/08/2026 01h 55' 26" Ping reçu, 2236
30/08/2026 01h 55' 22" Ping reçu,         2235
30/08/2026 01h 55' 18" Ping reçu, 2234
30/08/2026 01h 55' 13" Ping reçu, 2233
30/08/2026 01h 55' 05" Ping reçu, 2231
30/08/2026 01h 55' 00" Ping reçu,         2230
30/08/2026 01h 54' 54" Enregistrement de l'éclairement (345.6 lux & 0 lux )
30/08/2026 01h 54' 54" cPing.
30/08/2026 01h 54' 52" Ping reçu, 2228
30/08/2026 01h 54' 42" Ping reçu, 2226
30/08/2026 01h 54' 38" Ping reçu,         2225
30/08/2026 01h 54' 25" Ping reçu, 2222
30/08/2026 01h 54' 20" Enregistrement de la température (18,999 °C)
30/08/2026 01h 54' 12" Ping reçu, 2219
30/08/2026 01h 54' 09" Ping reçu, 2218
30/08/2026 01h 54' 03" Ping reçu, 2217
30/08/2026 01h 53' 57" cPing.
30/08/2026 01h 53' 56" Ping reçu,         2215
30/08/2026 01h 53' 52" Ping reçu, 2214
30/08/2026 01h 53' 44" Ping reçu, 2212
30/08/2026 01h 53' 39" Ping reçu, 2211
30/08/2026 01h 53' 31" Ping reçu, 2209
30/08/2026 01h 53' 26" Ping reçu, 2208
30/08/2026 01h 53' 22" Ping reçu, 2207
30/08/2026 01h 53' 17" Ping reçu, 2206
30/08/2026 01h 53' 13" Ping reçu,         2205
30/08/2026 01h 53' 09" Ping reçu, 2204
30/08/2026 01h 53' 06" Ping reçu, 2203
30/08/2026 01h 53' 02" cPing.
30/08/2026 01h 52' 57" Ping reçu, 2201
30/08/2026 01h 52' 53" Ping reçu,         2200
30/08/2026 01h 52' 45" Ping reçu, 2198
30/08/2026 01h 52' 41" Ping reçu, 2197
30/08/2026 01h 52' 27" Ping reçu, 2194
30/08/2026 01h 52' 14" Ping reçu, 2191
30/08/2026 01h 52' 10" Ping reçu,         2190
30/08/2026 01h 52' 06" Ping reçu, 2189
30/08/2026 01h 52' 05" cPing.
30/08/2026 01h 52' 02" Ping reçu, 2188
30/08/2026 01h 51' 53" Ping reçu, 2186
30/08/2026 01h 51' 51" Ping reçu,         2185
30/08/2026 01h 51' 47" Ping reçu, 2184
30/08/2026 01h 51' 43" ERR. Ther. 10 HS.
30/08/2026 01h 51' 42" ERR. Ther. 1 HS.
30/08/2026 01h 51' 42" ERR. Ther. 14 HS.
30/08/2026 01h 51' 33" Ping reçu, 2181
30/08/2026 01h 51' 29" Ping reçu,         2180
30/08/2026 01h 51' 24" Ping reçu, 2179
30/08/2026 01h 51' 20" Ping reçu, 2178
30/08/2026 01h 51' 16" Ping reçu, 2177
30/08/2026 01h 51' 10" cPing.
30/08/2026 01h 51' 00" Ping reçu, 2173
30/08/2026 01h 50' 56" Ping reçu, 2172
30/08/2026 01h 50' 47" Ping reçu,         2170
30/08/2026 01h 50' 43" Ping reçu, 2169
30/08/2026 01h 50' 38" Ping reçu, 2168
30/08/2026 01h 50' 35" Ping reçu, 2167
30/08/2026 01h 50' 30" Ping reçu, 2166
30/08/2026 01h 50' 26" Ping reçu,         2165
30/08/2026 01h 50' 21" Ping reçu, 2164
30/08/2026 01h 50' 17" Ping reçu, 2163
30/08/2026 01h 50' 13" Ping reçu, 2162
30/08/2026 01h 50' 13" cPing.
30/08/2026 01h 50' 11" Ping reçu, 2161
30/08/2026 01h 50' 09" Enregistrement de la température (19,017 °C)
30/08/2026 01h 50' 07" Enregistrement de la Pression atmosphérique (1027,269 hPa)
30/08/2026 01h 50' 07" Ping reçu,         2160
30/08/2026 01h 50' 05" Enregistrement des paramètres du vent (49.1° @ 0 m/s)
30/08/2026 01h 49' 55" Ping reçu, 2158
30/08/2026 01h 49' 51" Ping reçu, 2157
30/08/2026 01h 49' 44" Ping reçu,         2155
30/08/2026 01h 49' 40" Ping reçu, 2154
30/08/2026 01h 49' 36" Ping reçu, 2153
30/08/2026 01h 49' 32" Ping reçu, 2152
30/08/2026 01h 49' 23" Ping reçu,         2150
30/08/2026 01h 49' 19" Ping reçu, 2149
30/08/2026 01h 49' 18" cPing.
30/08/2026 01h 49' 17" Enregistrement de l'éclairement (345.6 lux & 0 lux )
30/08/2026 01h 49' 14" Ping reçu, 2148
30/08/2026 01h 49' 10" Ping reçu, 2147
30/08/2026 01h 49' 06" Ping reçu, 2146
30/08/2026 01h 49' 02" Ping reçu,         2145
30/08/2026 01h 48' 51" Ping reçu, 2142
30/08/2026 01h 48' 46" Ping reçu, 2141
30/08/2026 01h 48' 42" Ping reçu,         2140
30/08/2026 01h 48' 33" Ping reçu, 2138
30/08/2026 01h 48' 29" Ping reçu, 2137
30/08/2026 01h 48' 21" cPing.
30/08/2026 01h 48' 20" Ping reçu,         2135
30/08/2026 01h 48' 16" Ping reçu, 2134
30/08/2026 01h 48' 12" Ping reçu, 2133
30/08/2026 01h 48' 05" Ping reçu, 2131
30/08/2026 01h 48' 01" Ping reçu,         2130
30/08/2026 01h 47' 57" Ping reçu, 2129
30/08/2026 01h 47' 48" ERR. Ther. 1 HS.
30/08/2026 01h 47' 47" Ping reçu, 2127
30/08/2026 01h 47' 43" Ping reçu, 2126
30/08/2026 01h 47' 39" Ping reçu,         2125
30/08/2026 01h 47' 35" Ping reçu, 2124
30/08/2026 01h 47' 26" Ping reçu, 2122
30/08/2026 01h 47' 26" cPing.
30/08/2026 01h 47' 22" Ping reçu, 2121
30/08/2026 01h 47' 18" Ping reçu,         2120
30/08/2026 01h 47' 11" Ping reçu, 2118
30/08/2026 01h 47' 06" Ping reçu, 2117
30/08/2026 01h 47' 02" Ping reçu, 2116
30/08/2026 01h 46' 54" Ping reçu, 2114
30/08/2026 01h 46' 50" Ping reçu, 2113
30/08/2026 01h 46' 45" Ping reçu, 2112
30/08/2026 01h 46' 41" Ping reçu, 2111
30/08/2026 01h 46' 29" cPing.
30/08/2026 01h 46' 24" Ping reçu, 2107
30/08/2026 01h 46' 17" Ping reçu,         2105
30/08/2026 01h 46' 13" Ping reçu, 2104
30/08/2026 01h 45' 55" Enregistrement de la température (19,011 °C)
30/08/2026 01h 45' 52" Enregistrement de l'humidité (99,90 %)
30/08/2026 01h 45' 47" Ping reçu, 2099
30/08/2026 01h 45' 42" Ping reçu, 2098
30/08/2026 01h 45' 38" Ping reçu, 2097
30/08/2026 01h 45' 34" Ping reçu, 2096
30/08/2026 01h 45' 33" cPing.
30/08/2026 01h 45' 29" Ping reçu,         2095
30/08/2026 01h 45' 21" Ping reçu, 2093
30/08/2026 01h 45' 17" Ping reçu, 2092
30/08/2026 01h 45' 14" Ping reçu, 2091
30/08/2026 01h 45' 10" Ping reçu,         2090
30/08/2026 01h 45' 06" Ping reçu, 2089
30/08/2026 01h 45' 02" Ping reçu, 2088
30/08/2026 01h 44' 57" Ping reçu, 2087
30/08/2026 01h 44' 53" Ping reçu, 1
30/08/2026 01h 44' 48" Ping reçu,         2085
30/08/2026 01h 44' 44" Ping reçu, 2084
30/08/2026 01h 44' 44" Ping reçu, 1
30/08/2026 01h 44' 40" Ping reçu, 2083
30/08/2026 01h 44' 38" cPing.
30/08/2026 01h 44' 31" On a tout sauvé !
30/08/2026 01h 44' 27" Pressions pluviométriques (32,07 & 64,00)
30/08/2026 01h 44' 26" Ping reçu,         2080
30/08/2026 01h 44' 26" Enregistrement des paramètres du vent (49.1° @ 0 m/s)
30/08/2026 01h 44' 21" Ping reçu, 2079
30/08/2026 01h 44' 17" Ping reçu, 2078
30/08/2026 01h 44' 12" Ping reçu, 2077
30/08/2026 01h 44' 09" Enregistrement Température du pluviometre : (21,3 °C)
30/08/2026 01h 44' 06" Ping reçu, 2076
30/08/2026 01h 44' 02" Ping reçu,         2075
30/08/2026 01h 43' 45" ERR. Ther. 1 HS.
30/08/2026 01h 43' 45" ERR. Ther. 14 HS.
30/08/2026 01h 43' 44" Ping reçu, 2071
30/08/2026 01h 43' 41" cPing.
30/08/2026 01h 43' 40" Ping reçu,         2070
30/08/2026 01h 43' 36" Ping reçu, 2069
30/08/2026 01h 43' 33" Enregistrement de l'éclairement (345.6 lux & 0 lux )
30/08/2026 01h 43' 23" Ping reçu, 2066
30/08/2026 01h 43' 18" Ping reçu,         2065
30/08/2026 01h 43' 18" Rw SD-card.
30/08/2026 01h 43' 14" Ping reçu, 2064
30/08/2026 01h 43' 01" Ping reçu, 2061
30/08/2026 01h 42' 57" Ping reçu,         2060
30/08/2026 01h 42' 46" cPing.
30/08/2026 01h 42' 44" Ping reçu, 2057
30/08/2026 01h 42' 41" Ping reçu, 2056
30/08/2026 01h 42' 32" Ping reçu, 2054
30/08/2026 01h 42' 28" Ping reçu, 2053
30/08/2026 01h 42' 15" Ping reçu,         2050
30/08/2026 01h 42' 11" Ping reçu, 2049
30/08/2026 01h 42' 06" Ping reçu, 2048
30/08/2026 01h 42' 01" Ping reçu, 2047
30/08/2026 01h 41' 57" Ping reçu, 2046
30/08/2026 01h 41' 52" Ping reçu,         2045
30/08/2026 01h 41' 48" cPing.
30/08/2026 01h 41' 44" Ping reçu, 2043
30/08/2026 01h 41' 39" Ping reçu, 2042
30/08/2026 01h 41' 35" Ping reçu, 2041
30/08/2026 01h 41' 34" Enregistrement de la température (19,025 °C)
30/08/2026 01h 41' 31" Enregistrement de la Pression atmosphérique (1027,199 hPa)
30/08/2026 01h 41' 26" Ping reçu, 2039
30/08/2026 01h 41' 22" Ping reçu, 2038
30/08/2026 01h 41' 18" Ping reçu, 2037
30/08/2026 01h 41' 09" Ping reçu,         2035
30/08/2026 01h 41' 06" Ping reçu, 2034
30/08/2026 01h 40' 58" Ping reçu, 2032
30/08/2026 01h 40' 53" cPing.
30/08/2026 01h 40' 49" Ping reçu,         2030
30/08/2026 01h 40' 32" Ping reçu, 2026
30/08/2026 01h 40' 27" Ping reçu,         2025
30/08/2026 01h 40' 23" Ping reçu, 2024
30/08/2026 01h 40' 19" Ping reçu, 2023
30/08/2026 01h 40' 15" Ping reçu, 2022
30/08/2026 01h 40' 08" Ping reçu,         2020
30/08/2026 01h 40' 04" Ping reçu, 2019
30/08/2026 01h 39' 56" cPing.
30/08/2026 01h 39' 51" Ping reçu, 2016
30/08/2026 01h 39' 47" ERR. Ther. 1 HS.
30/08/2026 01h 39' 42" Ping reçu, 2014
30/08/2026 01h 39' 33" Ping reçu, 2012
30/08/2026 01h 39' 20" Ping reçu, 2009
30/08/2026 01h 39' 15" Ping reçu, 2008
30/08/2026 01h 39' 11" Ping reçu, 2007
30/08/2026 01h 39' 06" Ping reçu, 2006
30/08/2026 01h 39' 01" cPing.
30/08/2026 01h 38' 54" Ping reçu, 2003
30/08/2026 01h 38' 50" Ping reçu, 2002
30/08/2026 01h 38' 42" Ping reçu,         2000
30/08/2026 01h 38' 40" Enregistrement des paramètres du vent (49.1° @ 0 m/s)
30/08/2026 01h 38' 36" Ping reçu, 1999
30/08/2026 01h 38' 27" Ping reçu, 1997
30/08/2026 01h 38' 23" Ping reçu, 1996
30/08/2026 01h 38' 20" Ping reçu,         1995
30/08/2026 01h 38' 11" Ping reçu, 1993
30/08/2026 01h 38' 07" Ping reçu, 1992
30/08/2026 01h 38' 04" cPing.
30/08/2026 01h 37' 54" Ping reçu, 1989
30/08/2026 01h 37' 45" Ping reçu, 1987
30/08/2026 01h 37' 36" Ping reçu,         1985
30/08/2026 01h 37' 27" Ping reçu, 1983
30/08/2026 01h 37' 23" Ping reçu, 1982
30/08/2026 01h 37' 19" Ping reçu, 1981
30/08/2026 01h 37' 18" Enregistrement de la température (18,998 °C)
30/08/2026 01h 37' 15" Ping reçu,         1980
30/08/2026 01h 37' 09" cPing.
30/08/2026 01h 36' 59" Ping reçu, 1976
30/08/2026 01h 36' 55" Ping reçu,         1975
30/08/2026 01h 36' 51" Ping reçu, 1974
30/08/2026 01h 36' 47" Ping reçu, 1973
30/08/2026 01h 36' 44" Enregistrement de l'éclairement (345.6 lux & 0 lux )
30/08/2026 01h 36' 38" Ping reçu, 1971
30/08/2026 01h 36' 34" Ping reçu,         1970
30/08/2026 01h 36' 29" Ping reçu, 1969
30/08/2026 01h 36' 16" Ping reçu, 1966
30/08/2026 01h 36' 12" Ping reçu,         1965
30/08/2026 01h 36' 12" cPing.
30/08/2026 01h 36' 01" Ping reçu, 1962
30/08/2026 01h 35' 57" Ping reçu, 1961
30/08/2026 01h 35' 53" Enregistrement de l'humidité (99,90 %)
30/08/2026 01h 35' 53" Ping reçu,         1960
30/08/2026 01h 35' 49" ERR. Ther. 1 HS.
30/08/2026 01h 35' 49" ERR. Ther. 14 HS.
30/08/2026 01h 35' 48" Ping reçu, 1959
30/08/2026 01h 35' 39" Ping reçu, 1957
30/08/2026 01h 35' 38" Enregistrement de l'éclairement (345.6 lux & 0 lux )
30/08/2026 01h 35' 35" Ping reçu, 1956
30/08/2026 01h 35' 31" Ping reçu,         1955
30/08/2026 01h 35' 27" Ping reçu, 1954
30/08/2026 01h 35' 17" cPing.
30/08/2026 01h 35' 09" Ping reçu,         1950
30/08/2026 01h 35' 02" Ping reçu, 1948
30/08/2026 01h 34' 58" Ping reçu, 1947
30/08/2026 01h 34' 50" Ping reçu,         1945
30/08/2026 01h 34' 45" Ping reçu, 1944
30/08/2026 01h 34' 41" Ping reçu, 1943
30/08/2026 01h 34' 32" Ping reçu, 1941
30/08/2026 01h 34' 28" Ping reçu,         1940
30/08/2026 01h 34' 24" Ping reçu, 1939
30/08/2026 01h 34' 21" Ping reçu, 1938
30/08/2026 01h 34' 21" cPing.
30/08/2026 01h 34' 17" Ping reçu, 1937
30/08/2026 01h 34' 08" Ping reçu,         1935
30/08/2026 01h 34' 04" Ping reçu, 1934
30/08/2026 01h 33' 59" Ping reçu, 1933
30/08/2026 01h 33' 55" Ping reçu, 1932
30/08/2026 01h 33' 50" Ping reçu, 1931
30/08/2026 01h 33' 46" Ping reçu,         1930
30/08/2026 01h 33' 42" Ping reçu, 1929
30/08/2026 01h 33' 38" Ping reçu, 1928
30/08/2026 01h 33' 34" Ping reçu, 1927
30/08/2026 01h 33' 29" Ping reçu, 1926
30/08/2026 01h 33' 25" Ping reçu,         1925
30/08/2026 01h 33' 24" cPing.
30/08/2026 01h 33' 23" Enregistrement de l'éclairement (345.6 lux & 0 lux )
30/08/2026 01h 33' 21" Ping reçu, 1924
30/08/2026 01h 33' 17" Ping reçu, 1923
30/08/2026 01h 33' 14" Ping reçu, 1922
30/08/2026 01h 33' 06" Enregistrement de la température (19,043 °C)
30/08/2026 01h 33' 06" Pressions pluviométriques (32,07 & 64,00)
30/08/2026 01h 33' 06" Ping reçu,         1920
30/08/2026 01h 33' 03" Enregistrement des paramètres du vent (49.1° @ 0 m/s)
30/08/2026 01h 33' 03" Enregistrement de la Pression atmosphérique (1027,190 hPa)
30/08/2026 01h 32' 58" Ping reçu, 1919
30/08/2026 01h 32' 54" Ping reçu, 1918
30/08/2026 01h 32' 51" Ping reçu, 1917
30/08/2026 01h 32' 47" Ping reçu, 1916
30/08/2026 01h 32' 43" Ping reçu,         1915
30/08/2026 01h 32' 39" Ping reçu, 1914
30/08/2026 01h 32' 35" Ping reçu, 1913
30/08/2026 01h 32' 30" Ping reçu, 1912
30/08/2026 01h 32' 29" cPing.
30/08/2026 01h 32' 20" Enregistrement de l'Arduino : (23,0 °C)
30/08/2026 01h 32' 18" Ping reçu,         1910
30/08/2026 01h 32' 15" Ping reçu, 1909
30/08/2026 01h 32' 02" Ping reçu, 1906
30/08/2026 01h 31' 58" Ping reçu,         1905
30/08/2026 01h 31' 50" ERR. Ther. 14 HS.
30/08/2026 01h 31' 48" Enregistrement Température du pluviometre : (21,3 °C)
30/08/2026 01h 31' 45" Ping reçu, 1903
30/08/2026 01h 31' 41" Ping reçu, 1902
30/08/2026 01h 31' 36" Ping reçu, 1901
30/08/2026 01h 31' 32" Ping reçu,         1900
30/08/2026 01h 31' 32" cPing.
30/08/2026 01h 31' 28" Ping reçu, 1899
30/08/2026 01h 31' 24" Ping reçu, 1898
30/08/2026 01h 31' 21" Ping reçu, 1897
30/08/2026 01h 31' 17" Ping reçu, 1896
30/08/2026 01h 31' 13" Ping reçu,         1895
30/08/2026 01h 31' 09" Ping reçu, 1894
30/08/2026 01h 31' 05" Ping reçu, 1893
30/08/2026 01h 31' 05" Enregistrement de l'éclairement (345.6 lux & 0 lux )
30/08/2026 01h 31' 00" Ping reçu, 1892
30/08/2026 01h 30' 47" Ping reçu, 1889
30/08/2026 01h 30' 43" Ping reçu, 1888
30/08/2026 01h 30' 39" Ping reçu, 1887
30/08/2026 01h 30' 37" cPing.
30/08/2026 01h 30' 36" Ping reçu, 1886
30/08/2026 01h 30' 32" Ping reçu,         1885
30/08/2026 01h 30' 27" Ping reçu, 1884
30/08/2026 01h 30' 19" Ping reçu, 1882
30/08/2026 01h 30' 18" Ping reçu, 1
30/08/2026 01h 30' 10" Ping reçu,         1880
30/08/2026 01h 30' 09" Ping reçu, 1
30/08/2026 01h 30' 01" Ping reçu, 1878
30/08/2026 01h 30' 01" BDD sauvée :
/Systeme/StationMeteoBDD/20260830-1,50.sql
30/08/2026 01h 29' 57" On a tout sauvé !
30/08/2026 01h 29' 57" Ping reçu, 1877
30/08/2026 01h 29' 48" Ping reçu,         1875
30/08/2026 01h 29' 40" cPing.
30/08/2026 01h 29' 39" Ping reçu, 1873
30/08/2026 01h 29' 31" Ping reçu, 1871
30/08/2026 01h 29' 27" Ping reçu,         1870
30/08/2026 01h 29' 23" Ping reçu, 1869
30/08/2026 01h 29' 20" Ping reçu, 1868
30/08/2026 01h 29' 16" Ping reçu, 1867
30/08/2026 01h 29' 03" Ping reçu, 1864
30/08/2026 01h 28' 59" Ping reçu, 1863
30/08/2026 01h 28' 54" Ping reçu, 1862
30/08/2026 01h 28' 50" Ping reçu, 1861
30/08/2026 01h 28' 49" Enregistrement de l'éclairement (345.6 lux & 0 lux )
30/08/2026 01h 28' 49" Enregistrement de la température (19,094 °C)
30/08/2026 01h 28' 45" cPing.
30/08/2026 01h 28' 41" Ping reçu, 1859
30/08/2026 01h 28' 37" Ping reçu, 1858
30/08/2026 01h 28' 33" Ping reçu, 1857
30/08/2026 01h 28' 29" Ping reçu, 1856
30/08/2026 01h 28' 24" Ping reçu,         1855
30/08/2026 01h 28' 20" Ping reçu, 1854
30/08/2026 01h 28' 13" Ping reçu, 1852
30/08/2026 01h 28' 09" Ping reçu, 1851
30/08/2026 01h 28' 00" Ping reçu, 1849
30/08/2026 01h 27' 56" Ping reçu, 1848
30/08/2026 01h 27' 54" ERR. Ther. 14 HS.
30/08/2026 01h 27' 52" ERR. Ther. 1 HS.
30/08/2026 01h 27' 51" Ping reçu, 1847
30/08/2026 01h 27' 48" cPing.
30/08/2026 01h 27' 43" Ping reçu,         1845
30/08/2026 01h 27' 41" Enregistrement de l'éclairement (345.6 lux & 0 lux )
30/08/2026 01h 27' 34" Ping reçu, 1843
30/08/2026 01h 27' 30" Ping reçu, 1842
30/08/2026 01h 27' 27" Ping reçu, 1841
30/08/2026 01h 27' 23" Enregistrement des paramètres du vent (49.1° @ 0 m/s)
30/08/2026 01h 27' 23" Ping reçu,         1840
30/08/2026 01h 27' 18" Ping reçu, 1839
30/08/2026 01h 27' 14" Ping reçu, 1838
30/08/2026 01h 27' 06" Ping reçu, 1836
30/08/2026 01h 27' 01" Ping reçu,         1835
30/08/2026 01h 26' 57" Ping reçu, 1834
30/08/2026 01h 26' 52" cPing.
30/08/2026 01h 26' 48" Ping reçu, 1832
30/08/2026 01h 26' 44" Ping reçu, 1831
30/08/2026 01h 26' 34" Enregistrement de l'éclairement (345.6 lux & 0 lux )
30/08/2026 01h 26' 31" Ping reçu, 1828
30/08/2026 01h 26' 27" Ping reçu, 1827
30/08/2026 01h 26' 23" Ping reçu, 1826
30/08/2026 01h 26' 11" Ping reçu, 1823
30/08/2026 01h 26' 07" Ping reçu, 1822
30/08/2026 01h 26' 03" Ping reçu, 1821
30/08/2026 01h 25' 59" Enregistrement de l'humidité (99,90 %)
30/08/2026 01h 25' 58" Ping reçu,         1820
30/08/2026 01h 25' 55" cPing.
30/08/2026 01h 25' 54" Ping reçu, 1819
30/08/2026 01h 25' 50" Ping reçu, 1818
30/08/2026 01h 25' 41" Ping reçu, 1816
30/08/2026 01h 25' 37" Ping reçu,         1815
30/08/2026 01h 25' 33" Ping reçu, 1814
30/08/2026 01h 25' 29" Ping reçu, 1813
30/08/2026 01h 25' 27" Enregistrement de l'éclairement (345.6 lux & 0 lux )
30/08/2026 01h 25' 26" Ping reçu, 1812
30/08/2026 01h 25' 18" Ping reçu,         1810
30/08/2026 01h 25' 09" Ping reçu, 1808
30/08/2026 01h 25' 05" Ping reçu, 1807
30/08/2026 01h 25' 00" Ping reçu, 1806
30/08/2026 01h 25' 00" cPing.
30/08/2026 01h 24' 56" Ping reçu,         1805
30/08/2026 01h 24' 51" Ping reçu, 1804
30/08/2026 01h 24' 47" Ping reçu, 1803
30/08/2026 01h 24' 39" Ping reçu, 1801
30/08/2026 01h 24' 38" Enregistrement de la température (19,091 °C)
30/08/2026 01h 24' 36" Ping reçu,         1800
30/08/2026 01h 24' 23" Ping reçu, 1797
30/08/2026 01h 24' 20" Enregistrement de l'éclairement (345.6 lux & 0 lux )
30/08/2026 01h 24' 19" Ping reçu, 1796
30/08/2026 01h 24' 10" Ping reçu, 1794
30/08/2026 01h 24' 06" Ping reçu, 1793
30/08/2026 01h 24' 03" cPing.
30/08/2026 01h 23' 56" Ping reçu, 1791
30/08/2026 01h 23' 47" Ping reçu, 1789
30/08/2026 01h 23' 43" Ping reçu, 1788
30/08/2026 01h 23' 35" Ping reçu, 1786
30/08/2026 01h 23' 21" Ping reçu, 1783
30/08/2026 01h 23' 12" Enregistrement de l'éclairement (345.6 lux & 0 lux )
30/08/2026 01h 23' 08" cPing.
30/08/2026 01h 23' 04" Ping reçu, 1779
30/08/2026 01h 23' 02" Ping reçu, 1778
30/08/2026 01h 22' 47" Ping reçu,         1775
30/08/2026 01h 22' 44" Ping reçu, 1774
30/08/2026 01h 22' 40" Ping reçu, 1773
30/08/2026 01h 22' 32" Ping reçu, 1771
30/08/2026 01h 22' 23" Ping reçu, 1769
30/08/2026 01h 22' 18" Ping reçu, 1768
30/08/2026 01h 22' 14" Ping reçu, 1767
30/08/2026 01h 22' 12" cPing.
30/08/2026 01h 22' 01" Ping reçu, 1764
30/08/2026 01h 21' 46" Pressions pluviométriques (32,07 & 64,00)
30/08/2026 01h 21' 46" Enregistrement de la hauteur d'eau (783,840 mm @ 99,8%)
30/08/2026 01h 21' 43" Enregistrement des paramètres du vent (49.1° @ 0 m/s)
30/08/2026 01h 21' 39" Ping reçu, 1759
30/08/2026 01h 21' 36" Ping reçu, 1758
30/08/2026 01h 21' 30" Ping reçu, 1757
30/08/2026 01h 21' 26" Ping reçu, 1756
30/08/2026 01h 21' 23" Ping reçu,         1755
30/08/2026 01h 21' 19" Ping reçu, 1754
30/08/2026 01h 21' 15" cPing.
30/08/2026 01h 21' 11" Ping reçu, 1752
30/08/2026 01h 21' 06" Ping reçu, 1751
30/08/2026 01h 21' 02" Ping reçu,         1750
30/08/2026 01h 20' 56" Enregistrement de l'éclairement (345.6 lux & 0 lux )
30/08/2026 01h 20' 45" Ping reçu, 1746
30/08/2026 01h 20' 42" Ping reçu,         1745
30/08/2026 01h 20' 24" Ping reçu, 1741
30/08/2026 01h 20' 22" Enregistrement de la température (19,087 °C)
30/08/2026 01h 20' 20" Ping reçu,         1740
30/08/2026 01h 20' 20" cPing.
30/08/2026 01h 20' 07" Ping reçu, 1737
30/08/2026 01h 19' 45" Enregistrement de l'éclairement (345.6 lux & 0 lux )
30/08/2026 01h 19' 41" Ping reçu, 1731
30/08/2026 01h 19' 37" Enregistrement Température du pluviometre : (21,3 °C)
30/08/2026 01h 19' 33" Ping reçu,         1730
30/08/2026 01h 19' 24" Ping reçu, 1728
30/08/2026 01h 19' 23" cPing.
30/08/2026 01h 19' 19" Ping reçu, 1727
30/08/2026 01h 19' 12" Ping reçu,         1725
30/08/2026 01h 19' 00" Ping reçu, 1722
30/08/2026 01h 18' 56" Ping reçu, 1721
30/08/2026 01h 18' 51" Ping reçu,         1720
30/08/2026 01h 18' 46" Enregistrement de l'Arduino : (23,0 °C)
30/08/2026 01h 18' 41" Ping reçu, 1718
30/08/2026 01h 18' 36" Ping reçu, 1717
30/08/2026 01h 18' 32" Ping reçu, 1716
30/08/2026 01h 18' 28" Ping reçu,         1715
30/08/2026 01h 18' 28" cPing.
30/08/2026 01h 18' 19" Ping reçu, 1713
30/08/2026 01h 18' 15" Ping reçu, 1712
30/08/2026 01h 18' 10" Ping reçu, 1711
30/08/2026 01h 18' 06" Ping reçu,         1710
30/08/2026 01h 17' 57" Ping reçu, 1708
30/08/2026 01h 17' 53" Ping reçu, 1707
30/08/2026 01h 17' 49" Ping reçu, 1706
30/08/2026 01h 17' 45" Ping reçu,         1705
30/08/2026 01h 17' 42" Ping reçu, 1704
30/08/2026 01h 17' 33" Ping reçu, 1702
30/08/2026 01h 17' 31" cPing.
30/08/2026 01h 17' 25" Ping reçu,         1700
30/08/2026 01h 17' 21" Ping reçu, 1699
30/08/2026 01h 17' 08" Ping reçu, 1696
30/08/2026 01h 17' 04" I2C : 1h 14m 24s, ok
30/08/2026 01h 17' 00" NTP : 1h 14m 22s.
30/08/2026 01h 16' 45" Ping reçu,         1695
30/08/2026 01h 16' 41" Ping reçu, 1694
30/08/2026 01h 16' 37" Ping reçu, 1693
30/08/2026 01h 16' 36" cPing.
30/08/2026 01h 16' 33" Ping reçu, 1692
30/08/2026 01h 16' 24" Ping reçu,         1690
30/08/2026 01h 16' 21" Ping reçu, 1689
30/08/2026 01h 16' 13" Ping reçu, 1687
30/08/2026 01h 16' 03" Enregistrement de l'éclairement (345.6 lux & 0 lux )
30/08/2026 01h 16' 00" Ping reçu, 1684
30/08/2026 01h 15' 55" Ping reçu, 1683
30/08/2026 01h 15' 51" Ping reçu, 1682
30/08/2026 01h 15' 47" Calcule stats Température du 29/08/2026 pour 19,3 °C
30/08/2026 01h 15' 47" Enregistrement de la température (19,096 °C)
30/08/2026 01h 15' 43" Ping reçu,         1680
30/08/2026 01h 15' 42" Enregistrement de la Pression atmosphérique (1027,185 hPa)
30/08/2026 01h 15' 42" Enregistrement de l'humidité (99,90 %)
30/08/2026 01h 15' 42" Enregistrement des paramètres du vent (49.1° @ 0 m/s)
30/08/2026 01h 15' 39" cPing.
30/08/2026 01h 15' 38" ERR. Ther. 1 HS.
30/08/2026 01h 15' 38" ERR. Ther. 14 HS.
30/08/2026 01h 15' 27" Ping reçu, 1677
30/08/2026 01h 15' 23" Ping reçu, 1676
30/08/2026 01h 15' 11" Ping reçu, 1673
30/08/2026 01h 15' 06" Ping reçu, 1672
30/08/2026 01h 15' 02" Ping reçu, 1671
30/08/2026 01h 14' 49" Ping reçu, 1668
30/08/2026 01h 14' 45" Ping reçu, 1667
30/08/2026 01h 14' 44" cPing.
30/08/2026 01h 14' 42" Ping reçu, 1666
30/08/2026 01h 14' 20" Ping reçu, 1661
30/08/2026 01h 14' 16" Ping reçu,         1660
30/08/2026 01h 14' 12" Ping reçu, 1659
30/08/2026 01h 14' 08" Ping reçu, 1658
30/08/2026 01h 14' 03" Ping reçu, 1657
30/08/2026 01h 13' 50" Ping reçu, 1654
30/08/2026 01h 13' 47" cPing.
30/08/2026 01h 13' 42" Ping reçu, 1652
30/08/2026 01h 13' 37" Ping reçu, 1651
30/08/2026 01h 13' 33" Ping reçu,         1650
30/08/2026 01h 13' 29" Ping reçu, 1649
30/08/2026 01h 13' 08" Ping reçu, 1644
30/08/2026 01h 13' 04" Ping reçu, 1643
30/08/2026 01h 13' 00" Ping reçu, 1642
30/08/2026 01h 12' 56" Ping reçu, 1641
30/08/2026 01h 12' 51" cPing.
30/08/2026 01h 12' 47" Ping reçu, 1639
30/08/2026 01h 12' 42" Ping reçu, 1638
30/08/2026 01h 12' 36" Enregistrement de l'éclairement (345.6 lux & 0 lux )
30/08/2026 01h 12' 33" Ping reçu, 1636
30/08/2026 01h 12' 29" Ping reçu,         1635
30/08/2026 01h 12' 20" Ping reçu, 1633
30/08/2026 01h 12' 16" Ping reçu, 1632
30/08/2026 01h 12' 12" Ping reçu, 1631
30/08/2026 01h 12' 08" Ping reçu,         1630
30/08/2026 01h 11' 57" Ping reçu, 1627
30/08/2026 01h 11' 54" cPing.
30/08/2026 01h 11' 48" Ping reçu,         1625
30/08/2026 01h 11' 42" ERR. Ther. 14 HS.
30/08/2026 01h 11' 40" ERR. Ther. 1 HS.
30/08/2026 01h 11' 39" Ping reçu, 1623
30/08/2026 01h 11' 27" Enregistrement de l'éclairement (345.6 lux & 0 lux )
30/08/2026 01h 11' 17" Ping reçu, 1618
30/08/2026 01h 11' 09" Ping reçu, 1616
30/08/2026 01h 11' 04" Ping reçu,         1615
30/08/2026 01h 10' 59" cPing.
30/08/2026 01h 10' 57" Ping reçu, 1613
30/08/2026 01h 10' 53" Ping reçu, 1612
30/08/2026 01h 10' 49" Ping reçu, 1611
30/08/2026 01h 10' 45" Ping reçu,         1610
30/08/2026 01h 10' 41" Ping reçu, 1609
30/08/2026 01h 10' 36" Ping reçu, 1608
30/08/2026 01h 10' 32" Ping reçu, 1607
30/08/2026 01h 10' 21" Enregistrement de l'éclairement (345.6 lux & 0 lux )
30/08/2026 01h 10' 18" Ping reçu, 1604
30/08/2026 01h 10' 14" Ping reçu, 1603
30/08/2026 01h 10' 06" Ping reçu, 1601
30/08/2026 01h 10' 02" Ping reçu,         1600
30/08/2026 01h 10' 02" cPing.
30/08/2026 01h 10' 01" Enregistrement des paramètres du vent (49.1° @ 0 m/s)
30/08/2026 01h 09' 56" Ping reçu, 1599
30/08/2026 01h 09' 52" Ping reçu, 1598
30/08/2026 01h 09' 50" Ping reçu, 1597
30/08/2026 01h 09' 46" Ping reçu, 1596
30/08/2026 01h 09' 42" Ping reçu,         1595
30/08/2026 01h 09' 37" Ping reçu, 1594
30/08/2026 01h 09' 29" Ping reçu, 1592
30/08/2026 01h 09' 20" Ping reçu,         1590
30/08/2026 01h 09' 16" Ping reçu, 1589
30/08/2026 01h 09' 14" Enregistrement de l'éclairement (345.6 lux & 0 lux )
30/08/2026 01h 09' 11" Ping reçu, 1588
30/08/2026 01h 09' 07" Ping reçu, 1587
30/08/2026 01h 09' 06" cPing.
30/08/2026 01h 09' 03" Ping reçu, 1586
30/08/2026 01h 08' 59" Ping reçu,         1585
30/08/2026 01h 08' 50" Ping reçu, 1583
30/08/2026 01h 08' 47" Ping reçu, 1582
30/08/2026 01h 08' 43" Ping reçu, 1581
30/08/2026 01h 08' 34" Ping reçu, 1579
30/08/2026 01h 08' 30" Ping reçu, 1578
30/08/2026 01h 08' 26" Ping reçu, 1577
30/08/2026 01h 08' 17" Ping reçu,         1575
30/08/2026 01h 08' 12" Ping reçu, 1574
30/08/2026 01h 08' 11" cPing.
30/08/2026 01h 07' 55" Ping reçu,         1570
30/08/2026 01h 07' 50" Ping reçu, 1569
30/08/2026 01h 07' 46" Ping reçu, 1568
30/08/2026 01h 07' 44" ERR. Ther. 1 HS.
30/08/2026 01h 07' 44" ERR. Ther. 14 HS.
30/08/2026 01h 07' 37" Ping reçu, 1566
30/08/2026 01h 07' 33" Ping reçu,         1565
30/08/2026 01h 07' 29" Ping reçu, 1564
30/08/2026 01h 07' 24" Ping reçu, 1563
30/08/2026 01h 07' 21" Ping reçu, 1562
30/08/2026 01h 07' 17" Ping reçu, 1561
30/08/2026 01h 07' 14" cPing.
30/08/2026 01h 07' 13" Enregistrement de la Pression atmosphérique (1027,182 hPa)
30/08/2026 01h 07' 08" Ping reçu, 1559
30/08/2026 01h 07' 04" Ping reçu, 1558
30/08/2026 01h 07' 01" Enregistrement Température du pluviometre : (21,4 °C)
30/08/2026 01h 06' 56" Ping reçu, 1557
30/08/2026 01h 06' 53" Enregistrement de l'éclairement (345.6 lux & 0 lux )
30/08/2026 01h 06' 52" Ping reçu, 1556
30/08/2026 01h 06' 39" Ping reçu, 1553
30/08/2026 01h 06' 36" Ping reçu, 1552
30/08/2026 01h 06' 23" Ping reçu, 1549
30/08/2026 01h 06' 19" Ping reçu, 1548
30/08/2026 01h 06' 19" cPing.
30/08/2026 01h 06' 10" Ping reçu, 1546
30/08/2026 01h 06' 06" Ping reçu,         1545
30/08/2026 01h 05' 57" Ping reçu, 1543
30/08/2026 01h 05' 48" Ping reçu, 1541
30/08/2026 01h 05' 48" Enregistrement de l'éclairement (345.6 lux & 0 lux )
30/08/2026 01h 05' 45" Enregistrement de l'humidité (99,90 %)
30/08/2026 01h 05' 44" Ping reçu,         1540
30/08/2026 01h 05' 39" Ping reçu, 1539
30/08/2026 01h 05' 35" Ping reçu, 1538
30/08/2026 01h 05' 31" Ping reçu, 1537
30/08/2026 01h 05' 27" Ping reçu, 1536
30/08/2026 01h 05' 22" cPing.
30/08/2026 01h 05' 20" Ping reçu, 1534
30/08/2026 01h 05' 16" Ping reçu, 1533
30/08/2026 01h 05' 12" Ping reçu, 1532
30/08/2026 01h 05' 03" Ping reçu,         1530
30/08/2026 01h 04' 59" Ping reçu, 1529
30/08/2026 01h 04' 55" Enregistrement de l'Arduino : (23,3 °C)
30/08/2026 01h 04' 48" Ping reçu, 1527
30/08/2026 01h 04' 44" Ping reçu, 1526
30/08/2026 01h 04' 40" Ping reçu,         1525
30/08/2026 01h 04' 36" Ping reçu, 1524
30/08/2026 01h 04' 32" Ping reçu, 1523
30/08/2026 01h 04' 27" Ping reçu, 1522
30/08/2026 01h 04' 27" cPing.
30/08/2026 01h 04' 19" Ping reçu,         1520
30/08/2026 01h 04' 18" Enregistrement des paramètres du vent (49.1° @ 0 m/s)
30/08/2026 01h 04' 14" Ping reçu, 1519
30/08/2026 01h 04' 09" Ping reçu, 1518
30/08/2026 01h 04' 05" Ping reçu, 1517
30/08/2026 01h 04' 01" Ping reçu, 1516
30/08/2026 01h 03' 53" Ping reçu, 1514
30/08/2026 01h 03' 50" Ping reçu, 1513
30/08/2026 01h 03' 46" Ping reçu, 1512
30/08/2026 01h 03' 42" ERR. Ther. 1 HS.
30/08/2026 01h 03' 42" ERR. Ther. 14 HS.
30/08/2026 01h 03' 41" Ping reçu, 1511
30/08/2026 01h 03' 37" Ping reçu,         1510
30/08/2026 01h 03' 30" cPing.
30/08/2026 01h 03' 29" Ping reçu, 1508
30/08/2026 01h 03' 20" Ping reçu, 1506
30/08/2026 01h 03' 16" Ping reçu,         1505
30/08/2026 01h 03' 11" Ping reçu, 1504
30/08/2026 01h 03' 07" Ping reçu, 1503
30/08/2026 01h 03' 03" Ping reçu, 1502
30/08/2026 01h 03' 00" Ping reçu, 1501
30/08/2026 01h 02' 58" Enregistrement de la température (19,159 °C)
30/08/2026 01h 02' 56" Ping reçu,         1500
30/08/2026 01h 02' 50" Ping reçu, 1499
30/08/2026 01h 02' 43" Ping reçu, 1497
30/08/2026 01h 02' 38" Ping reçu, 1496
30/08/2026 01h 02' 35" cPing.
30/08/2026 01h 02' 26" Ping reçu, 1493
30/08/2026 01h 02' 25" Enregistrement de l'éclairement (345.6 lux & 0 lux )
30/08/2026 01h 02' 21" Ping reçu, 1492
30/08/2026 01h 02' 17" Ping reçu, 1491
30/08/2026 01h 02' 12" Ping reçu,         1490
30/08/2026 01h 02' 04" Ping reçu, 1488
30/08/2026 01h 01' 57" Ping reçu, 1486
30/08/2026 01h 01' 53" Ping reçu,         1485
30/08/2026 01h 01' 40" Ping reçu, 1482
30/08/2026 01h 01' 39" cPing.
30/08/2026 01h 01' 36" Ping reçu, 1481
30/08/2026 01h 01' 32" Ping reçu,         1480
30/08/2026 01h 01' 27" Ping reçu, 1479
30/08/2026 01h 01' 23" Ping reçu, 1478
30/08/2026 01h 01' 19" Ping reçu, 1477
30/08/2026 01h 01' 18" Enregistrement de l'éclairement (345.6 lux & 0 lux )
30/08/2026 01h 01' 15" Ping reçu, 1476
30/08/2026 01h 01' 12" Rw SD-card.
30/08/2026 01h 01' 10" Ping reçu,         1475
30/08/2026 01h 01' 06" Ping reçu, 1474
30/08/2026 01h 01' 03" Ping reçu, 1473
30/08/2026 01h 00' 44" Ping reçu, 1469
30/08/2026 01h 00' 42" cPing.
30/08/2026 01h 00' 41" Ping reçu, 1468
30/08/2026 01h 00' 37" Ping reçu, 1467
30/08/2026 01h 00' 15" Fin du tir laser.
30/08/2026 01h 00' 14" On purge les valeurs du crystal...
30/08/2026 01h 00' 01" Ping reçu, 1462
30/08/2026 00h 59' 53" Enregistrement de l'éclairement (345.6 lux & 0 lux )
30/08/2026 00h 59' 47" cPing.
30/08/2026 00h 59' 44" Ping reçu, 1458
30/08/2026 00h 59' 39" Ping reçu, 1457
30/08/2026 00h 59' 31" ERR. Ther. 1 HS.
30/08/2026 00h 59' 31" ERR. Ther. 14 HS.
30/08/2026 00h 59' 30" Ping reçu,         1455
30/08/2026 00h 59' 26" Ping reçu, 1454
30/08/2026 00h 59' 17" Ping reçu, 1452
30/08/2026 00h 59' 13" Ping reçu, 1451
30/08/2026 00h 59' 09" Ping reçu,         1450
30/08/2026 00h 59' 06" Ping reçu, 1449
30/08/2026 00h 59' 02" Ping reçu, 1448
30/08/2026 00h 58' 53" Ping reçu, 1446
30/08/2026 00h 58' 50" cPing.
30/08/2026 00h 58' 45" Enregistrement de l'éclairement (345.6 lux & 0 lux )
30/08/2026 00h 58' 45" Ping reçu, 1444
30/08/2026 00h 58' 41" Ping reçu, 1443
30/08/2026 00h 58' 36" Ping reçu, 1442
30/08/2026 00h 58' 36" Ping reçu, 1
30/08/2026 00h 58' 32" Ping reçu, 1441
30/08/2026 00h 58' 29" Enregistrement de la température (19,218 °C)
30/08/2026 00h 58' 28" Pressions pluviométriques (32,07 & 64,00)
30/08/2026 00h 58' 27" Ping reçu,         1440
30/08/2026 00h 58' 27" Enregistrement des paramètres du vent (49.1° @ 0 m/s)
30/08/2026 00h 58' 27" Enregistrement de la Pression atmosphérique (1027,161 hPa)
30/08/2026 00h 58' 21" On a tout sauvé !
30/08/2026 00h 58' 15" Ping reçu, 1438
30/08/2026 00h 58' 11" Ping reçu, 1437
30/08/2026 00h 58' 03" Ping reçu,         1435
30/08/2026 00h 57' 59" Ping reçu, 1434
30/08/2026 00h 57' 55" cPing.
30/08/2026 00h 57' 51" Ping reçu, 1432
30/08/2026 00h 57' 47" Ping reçu, 1431
30/08/2026 00h 57' 42" Ping reçu,         1430
30/08/2026 00h 57' 38" Ping reçu, 1429
30/08/2026 00h 57' 38" Enregistrement de l'éclairement (345.6 lux & 0 lux )
30/08/2026 00h 57' 34" Ping reçu, 1428
30/08/2026 00h 57' 30" Ping reçu, 1427
30/08/2026 00h 57' 27" Ping reçu, 1426
30/08/2026 00h 57' 23" Ping reçu,         1425
30/08/2026 00h 57' 19" Ping reçu, 1424
30/08/2026 00h 57' 14" Ping reçu, 1423
30/08/2026 00h 57' 10" Ping reçu, 1422
30/08/2026 00h 56' 58" cPing.
30/08/2026 00h 56' 53" Ping reçu, 1418
30/08/2026 00h 56' 48" Ping reçu, 1417
30/08/2026 00h 56' 44" Ping reçu, 1416
30/08/2026 00h 56' 40" Ping reçu,         1415
30/08/2026 00h 56' 36" Ping reçu, 1414
30/08/2026 00h 56' 27" Ping reçu, 1412
30/08/2026 00h 56' 18" Ping reçu,         1410
30/08/2026 00h 56' 14" Ping reçu, 1409
30/08/2026 00h 56' 11" Ping reçu, 1408
30/08/2026 00h 56' 02" Ping reçu, 1406
30/08/2026 00h 56' 02" cPing.
30/08/2026 00h 55' 58" Ping reçu,         1405
30/08/2026 00h 55' 54" Ping reçu, 1404
30/08/2026 00h 55' 50" Ping reçu, 1403
30/08/2026 00h 55' 45" Ping reçu, 1402
30/08/2026 00h 55' 41" Ping reçu, 1401
30/08/2026 00h 55' 37" Enregistrement de l'humidité (99,90 %)
30/08/2026 00h 55' 36" Ping reçu,         1400
30/08/2026 00h 55' 33" ERR. Ther. 1 HS.
30/08/2026 00h 55' 33" ERR. Ther. 14 HS.
30/08/2026 00h 55' 32" Ping reçu, 1399
30/08/2026 00h 55' 28" Ping reçu, 1398
30/08/2026 00h 55' 24" Ping reçu, 1397
30/08/2026 00h 55' 21" Ping reçu, 1396
30/08/2026 00h 55' 17" Ping reçu,         1395
30/08/2026 00h 55' 09" Ping reçu, 1393
30/08/2026 00h 55' 05" cPing.
30/08/2026 00h 55' 05" Ping reçu, 1392
30/08/2026 00h 54' 56" Ping reçu,         1390
30/08/2026 00h 54' 51" Ping reçu, 1389
30/08/2026 00h 54' 38" Ping reçu, 1386
30/08/2026 00h 54' 26" Ping reçu, 1384
30/08/2026 00h 54' 23" Ping reçu, 1383
30/08/2026 00h 54' 19" Ping reçu, 1382
30/08/2026 00h 54' 14" Enregistrement de la température (19,261 °C)
30/08/2026 00h 54' 12" Enregistrement de l'éclairement (345.6 lux & 0 lux )
30/08/2026 00h 54' 11" Ping reçu,         1380
30/08/2026 00h 54' 10" cPing.
30/08/2026 00h 54' 06" Ping reçu, 1379
30/08/2026 00h 54' 02" Ping reçu, 1378
30/08/2026 00h 53' 57" Ping reçu, 1377
30/08/2026 00h 53' 53" Ping reçu, 1376
30/08/2026 00h 53' 49" Ping reçu,         1375
30/08/2026 00h 53' 45" Ping reçu, 1374
30/08/2026 00h 53' 42" Ping reçu, 1373
30/08/2026 00h 53' 27" Ping reçu,         1370
30/08/2026 00h 53' 24" Ping reçu, 1369
30/08/2026 00h 53' 18" Ping reçu, 1368
30/08/2026 00h 53' 14" Ping reçu, 1367
30/08/2026 00h 53' 13" cPing.
30/08/2026 00h 53' 02" Ping reçu, 1364
30/08/2026 00h 52' 58" Ping reçu, 1363
30/08/2026 00h 52' 54" Ping reçu, 1362
30/08/2026 00h 52' 45" Enregistrement des paramètres du vent (49.1° @ 0 m/s)
30/08/2026 00h 52' 45" Ping reçu,         1360
30/08/2026 00h 52' 40" Ping reçu, 1359
30/08/2026 00h 52' 36" Ping reçu, 1358
30/08/2026 00h 52' 32" Ping reçu, 1357
30/08/2026 00h 52' 27" Ping reçu, 1356
30/08/2026 00h 52' 23" Ping reçu,         1355
30/08/2026 00h 52' 19" Ping reçu, 1354
30/08/2026 00h 52' 18" cPing.
30/08/2026 00h 52' 15" Ping reçu, 1353
30/08/2026 00h 52' 11" Ping reçu, 1352
30/08/2026 00h 52' 03" Ping reçu,         1350
30/08/2026 00h 51' 57" Enregistrement de l'éclairement (345.6 lux & 0 lux )
30/08/2026 00h 51' 55" Ping reçu, 1348
30/08/2026 00h 51' 51" Ping reçu, 1347
30/08/2026 00h 51' 47" Ping reçu, 1346
30/08/2026 00h 51' 42" Ping reçu,         1345
30/08/2026 00h 51' 38" Ping reçu, 1344
30/08/2026 00h 51' 36" ERR. Ther. 14 HS.
30/08/2026 00h 51' 34" ERR. Ther. 1 HS.
30/08/2026 00h 51' 29" Ping reçu, 1342
30/08/2026 00h 51' 25" Ping reçu, 1341
30/08/2026 00h 51' 21" cPing.
30/08/2026 00h 51' 20" Ping reçu,         1340
30/08/2026 00h 51' 12" Ping reçu, 1338
30/08/2026 00h 51' 10" Enregistrement de l'Arduino : (23,3 °C)
30/08/2026 00h 50' 57" Ping reçu,         1335
30/08/2026 00h 50' 53" Ping reçu, 1334
30/08/2026 00h 50' 49" Ping reçu, 1333
30/08/2026 00h 50' 48" Enregistrement de l'éclairement (345.6 lux & 0 lux )
30/08/2026 00h 50' 45" Ping reçu, 1332
30/08/2026 00h 50' 41" Ping reçu, 1331
30/08/2026 00h 50' 38" Ping reçu,         1330
30/08/2026 00h 50' 30" Ping reçu, 1328
30/08/2026 00h 50' 26" cPing.
30/08/2026 00h 50' 21" Ping reçu, 1326
30/08/2026 00h 50' 08" Ping reçu, 1323
30/08/2026 00h 50' 03" Ping reçu, 1322
30/08/2026 00h 49' 59" Ping reçu, 1321
30/08/2026 00h 49' 55" Enregistrement de la Pression atmosphérique (1027,120 hPa)
30/08/2026 00h 49' 45" Ping reçu, 1318
30/08/2026 00h 49' 42" Ping reçu, 1317
30/08/2026 00h 49' 39" Enregistrement de l'éclairement (345.6 lux & 0 lux )
30/08/2026 00h 49' 33" Ping reçu,         1315
30/08/2026 00h 49' 29" Ping reçu, 1314
30/08/2026 00h 49' 29" cPing.
30/08/2026 00h 49' 11" Ping reçu,         1310
30/08/2026 00h 49' 03" Ping reçu, 1308
30/08/2026 00h 48' 55" Ping reçu, 1306
30/08/2026 00h 48' 47" Ping reçu, 1304
30/08/2026 00h 48' 42" Ping reçu, 1303
30/08/2026 00h 48' 33" cPing.
30/08/2026 00h 48' 29" Ping reçu,         1300
30/08/2026 00h 48' 20" Ping reçu, 1298
30/08/2026 00h 48' 16" Ping reçu, 1297
30/08/2026 00h 48' 14" Ping reçu, 1296
30/08/2026 00h 48' 08" Ping reçu,         1295
30/08/2026 00h 48' 03" Ping reçu, 1294
30/08/2026 00h 47' 56" Ping reçu, 1292
30/08/2026 00h 47' 52" Ping reçu, 1291
30/08/2026 00h 47' 48" Ping reçu,         1290
30/08/2026 00h 47' 44" Ping reçu, 1289
30/08/2026 00h 47' 38" cPing.
30/08/2026 00h 47' 35" ERR. Ther. 1 HS.
30/08/2026 00h 47' 35" Ping reçu, 1287
30/08/2026 00h 47' 30" Ping reçu, 1286
30/08/2026 00h 47' 24" Enregistrement de l'éclairement (345.6 lux & 0 lux )
30/08/2026 00h 47' 21" Ping reçu, 1284
30/08/2026 00h 47' 17" Ping reçu, 1283
30/08/2026 00h 47' 07" Pressions pluviométriques (32,07 & 64,00)
30/08/2026 00h 47' 07" Enregistrement de la hauteur d'eau (783,820 mm @ 100,0%)
30/08/2026 00h 47' 07" Ping reçu,         1280
30/08/2026 00h 46' 59" Ping reçu, 1279
30/08/2026 00h 46' 56" Ping reçu, 1278
30/08/2026 00h 46' 53" Ping reçu, 1277
30/08/2026 00h 46' 49" Ping reçu, 1276
30/08/2026 00h 46' 45" Ping reçu,         1275
30/08/2026 00h 46' 41" cPing.
30/08/2026 00h 46' 36" Ping reçu, 1273
30/08/2026 00h 46' 32" Ping reçu, 1272
30/08/2026 00h 46' 27" Ping reçu, 1271
30/08/2026 00h 46' 23" Ping reçu,         1270
30/08/2026 00h 46' 19" Ping reçu, 1269
30/08/2026 00h 46' 18" Enregistrement de l'éclairement (345.6 lux & 0 lux )
30/08/2026 00h 46' 15" Ping reçu, 1268
30/08/2026 00h 46' 04" Ping reçu,         1265
30/08/2026 00h 45' 51" Ping reçu, 1262
30/08/2026 00h 45' 47" Ping reçu, 1261
30/08/2026 00h 45' 46" Enregistrement de la température (19,354 °C)
30/08/2026 00h 45' 46" cPing.
30/08/2026 00h 45' 43" Enregistrement de l'humidité (99,90 %)
30/08/2026 00h 45' 42" Ping reçu,         1260
30/08/2026 00h 45' 38" Ping reçu, 1259
30/08/2026 00h 45' 34" Ping reçu, 1258
30/08/2026 00h 45' 25" Ping reçu, 1256
30/08/2026 00h 45' 08" Ping reçu, 1252
30/08/2026 00h 45' 05" Ping reçu, 1251
30/08/2026 00h 44' 57" Ping reçu, 1249
30/08/2026 00h 44' 52" Ping reçu, 1248
30/08/2026 00h 44' 49" cPing.
30/08/2026 00h 44' 48" Ping reçu, 1247
30/08/2026 00h 44' 44" Ping reçu, 1246
30/08/2026 00h 44' 35" Ping reçu, 1244
30/08/2026 00h 44' 30" Ping reçu, 1243
30/08/2026 00h 44' 27" Ping reçu, 1242
30/08/2026 00h 44' 24" Ping reçu, 1241
30/08/2026 00h 44' 18" Ping reçu,         1240
30/08/2026 00h 44' 15" Ping reçu, 1239
30/08/2026 00h 44' 02" Enregistrement de l'éclairement (345.6 lux & 0 lux )
30/08/2026 00h 44' 00" Ping reçu, 1236
30/08/2026 00h 43' 58" On a tout sauvé !
30/08/2026 00h 43' 57" Ping reçu,         1235
30/08/2026 00h 43' 54" cPing.
30/08/2026 00h 43' 49" Ping reçu, 1233
30/08/2026 00h 43' 40" ERR. Ther. 1 HS.
30/08/2026 00h 43' 40" ERR. Ther. 14 HS.
30/08/2026 00h 43' 39" Ping reçu, 1231
30/08/2026 00h 43' 29" Ping reçu, 1229
30/08/2026 00h 43' 26" Ping reçu, 1228
30/08/2026 00h 43' 22" Ping reçu, 1227
30/08/2026 00h 43' 18" Ping reçu, 1226
30/08/2026 00h 43' 14" Ping reçu,         1225
30/08/2026 00h 43' 05" Ping reçu, 1223
30/08/2026 00h 43' 01" Ping reçu, 1222
30/08/2026 00h 42' 57" Ping reçu, 1221
30/08/2026 00h 42' 57" cPing.
30/08/2026 00h 42' 54" Ping reçu,         1220
30/08/2026 00h 42' 50" Ping reçu, 1219
30/08/2026 00h 42' 46" Ping reçu, 1218
30/08/2026 00h 42' 42" Ping reçu, 1217
30/08/2026 00h 42' 37" Ping reçu, 1216
30/08/2026 00h 42' 33" Ping reçu,         1215
30/08/2026 00h 42' 28" Ping reçu, 1214
30/08/2026 00h 42' 24" Ping reçu, 1213
30/08/2026 00h 42' 14" Enregistrement Température du pluviometre : (21,5 °C)
30/08/2026 00h 42' 02" cPing.
30/08/2026 00h 42' 00" Ping reçu, 1208
30/08/2026 00h 41' 47" Ping reçu,         1205
30/08/2026 00h 41' 44" Enregistrement de l'éclairement (345.6 lux & 0 lux )
30/08/2026 00h 41' 43" Ping reçu, 1204
30/08/2026 00h 41' 39" Ping reçu, 1203
30/08/2026 00h 41' 35" Ping reçu, 1202
30/08/2026 00h 41' 26" Ping reçu,         1200
30/08/2026 00h 41' 26" Enregistrement des paramètres du vent (49.1° @ 0 m/s)
30/08/2026 00h 41' 21" Ping reçu, 1199
30/08/2026 00h 41' 12" Ping reçu, 1197
30/08/2026 00h 41' 08" Ping reçu, 1196
30/08/2026 00h 41' 06" cPing.
30/08/2026 00h 41' 03" Ping reçu,         1195
30/08/2026 00h 40' 55" Ping reçu, 1193
30/08/2026 00h 40' 51" Ping reçu, 1192
30/08/2026 00h 40' 48" Ping reçu, 1191
30/08/2026 00h 40' 42" Ping reçu,         1190
30/08/2026 00h 40' 36" Enregistrement de l'éclairement (345.6 lux & 0 lux )
30/08/2026 00h 40' 35" Ping reçu, 1188
30/08/2026 00h 40' 31" Ping reçu, 1187
30/08/2026 00h 40' 27" Ping reçu, 1186
30/08/2026 00h 40' 18" Ping reçu, 1184
30/08/2026 00h 40' 14" Ping reçu, 1183
30/08/2026 00h 40' 09" cPing.
30/08/2026 00h 40' 05" Ping reçu, 1181
30/08/2026 00h 39' 42" Ping reçu, 1176
30/08/2026 00h 39' 29" Enregistrement de l'éclairement (345.6 lux & 0 lux )
30/08/2026 00h 39' 25" Ping reçu, 1172
30/08/2026 00h 39' 18" Ping reçu,         1170
30/08/2026 00h 39' 14" Ping reçu, 1169
30/08/2026 00h 39' 12" cPing.
30/08/2026 00h 39' 10" Ping reçu, 1168
30/08/2026 00h 39' 06" Ping reçu, 1167
30/08/2026 00h 38' 57" Ping reçu,         1165
30/08/2026 00h 38' 48" Ping reçu, 1163
30/08/2026 00h 38' 44" Ping reçu, 1162
30/08/2026 00h 38' 40" Ping reçu, 1161
30/08/2026 00h 38' 27" Ping reçu, 1158
30/08/2026 00h 38' 24" Ping reçu, 1157
30/08/2026 00h 38' 21" Enregistrement de l'éclairement (345.6 lux & 0 lux )
30/08/2026 00h 38' 20" Ping reçu, 1156
30/08/2026 00h 38' 17" cPing.
30/08/2026 00h 38' 16" Ping reçu,         1155
30/08/2026 00h 38' 12" Ping reçu, 1154
30/08/2026 00h 38' 08" Ping reçu, 1153
30/08/2026 00h 38' 03" Ping reçu, 1152
30/08/2026 00h 37' 50" Ping reçu, 1149
30/08/2026 00h 37' 45" Ping reçu, 1148
30/08/2026 00h 37' 35" Ping reçu, 1146
30/08/2026 00h 37' 31" Ping reçu,         1145
30/08/2026 00h 37' 22" Ping reçu, 1143
30/08/2026 00h 37' 21" cPing.
30/08/2026 00h 37' 14" Ping reçu, 1141
30/08/2026 00h 37' 09" Ping reçu,         1140
30/08/2026 00h 37' 05" Ping reçu, 1139
30/08/2026 00h 36' 56" Ping reçu, 1137
30/08/2026 00h 36' 47" Ping reçu,         1135
30/08/2026 00h 36' 38" Ping reçu, 1133
30/08/2026 00h 36' 30" Ping reçu, 1131
30/08/2026 00h 36' 27" Ping reçu,         1130
30/08/2026 00h 36' 24" cPing.
30/08/2026 00h 36' 18" Ping reçu, 1128
30/08/2026 00h 36' 14" Ping reçu, 1127
30/08/2026 00h 36' 10" Ping reçu, 1126
30/08/2026 00h 36' 06" Ping reçu,         1125
30/08/2026 00h 36' 02" Enregistrement de l'éclairement (345.6 lux & 0 lux )
30/08/2026 00h 35' 57" Ping reçu, 1123
30/08/2026 00h 35' 53" Ping reçu, 1122
30/08/2026 00h 35' 45" Ping reçu,         1120
30/08/2026 00h 35' 45" Enregistrement de la hauteur d'eau (783,930 mm @ 99,8%)
30/08/2026 00h 35' 45" Pressions pluviométriques (32,07 & 64,00)
30/08/2026 00h 35' 44" Enregistrement de l'humidité (99,90 %)
30/08/2026 00h 35' 39" Ping reçu, 1119
30/08/2026 00h 35' 35" Ping reçu, 1118
30/08/2026 00h 35' 30" Ping reçu, 1117
30/08/2026 00h 35' 29" cPing.
30/08/2026 00h 35' 21" Ping reçu,         1115
30/08/2026 00h 35' 13" Ping reçu, 1113
30/08/2026 00h 35' 00" Ping reçu,         1110
30/08/2026 00h 34' 49" Ping reçu, 1107
30/08/2026 00h 34' 41" Ping reçu,         1105
30/08/2026 00h 34' 32" cPing.
30/08/2026 00h 34' 32" Ping reçu, 1103
30/08/2026 00h 34' 23" Ping reçu, 1101
30/08/2026 00h 34' 18" Ping reçu,         1100
30/08/2026 00h 34' 14" Ping reçu, 1099
30/08/2026 00h 34' 10" Ping reçu, 1098
30/08/2026 00h 34' 06" Ping reçu, 1097
30/08/2026 00h 33' 57" Ping reçu,         1095
30/08/2026 00h 33' 50" Ping reçu, 1093
30/08/2026 00h 33' 46" Ping reçu, 1092
30/08/2026 00h 33' 38" Ping reçu,         1090
30/08/2026 00h 33' 37" cPing.
30/08/2026 00h 33' 33" Ping reçu, 1089
30/08/2026 00h 33' 29" Ping reçu, 1088
30/08/2026 00h 33' 24" Ping reçu, 1087
30/08/2026 00h 33' 16" Ping reçu,         1085
30/08/2026 00h 33' 12" Ping reçu, 1084
30/08/2026 00h 33' 08" Ping reçu, 1083
30/08/2026 00h 33' 05" Ping reçu, 1082
30/08/2026 00h 32' 57" Ping reçu,         1080
30/08/2026 00h 32' 57" Enregistrement de la Pression atmosphérique (1027,098 hPa)
30/08/2026 00h 32' 52" Ping reçu, 1079
30/08/2026 00h 32' 48" Ping reçu, 1078
30/08/2026 00h 32' 43" Ping reçu, 1077
30/08/2026 00h 32' 40" cPing.
30/08/2026 00h 32' 39" Enregistrement de l'éclairement (345.6 lux & 0 lux )
30/08/2026 00h 32' 30" Ping reçu, 1074
30/08/2026 00h 32' 26" Ping reçu, 1073
30/08/2026 00h 32' 08" Ping reçu, 1069
30/08/2026 00h 32' 04" Ping reçu, 1068
30/08/2026 00h 32' 00" Ping reçu, 1067
30/08/2026 00h 31' 56" Ping reçu, 1066
30/08/2026 00h 31' 53" Ping reçu,         1065
30/08/2026 00h 31' 45" ERR. Ther. 14 HS.
30/08/2026 00h 31' 45" cPing.
30/08/2026 00h 31' 45" ERR. Ther. 1 HS.
30/08/2026 00h 31' 44" Ping reçu, 1063
30/08/2026 00h 31' 40" Ping reçu, 1062
30/08/2026 00h 31' 36" Ping reçu, 1061
30/08/2026 00h 31' 33" Enregistrement de l'éclairement (345.6 lux & 0 lux )
30/08/2026 00h 31' 32" Ping reçu,         1060
30/08/2026 00h 31' 27" Ping reçu, 1059
30/08/2026 00h 31' 23" Ping reçu, 1058
30/08/2026 00h 31' 19" Ping reçu, 1057
30/08/2026 00h 31' 15" Ping reçu, 1056
30/08/2026 00h 31' 06" Ping reçu, 1054
30/08/2026 00h 31' 02" Ping reçu, 1053
30/08/2026 00h 30' 59" Ping reçu, 1052
30/08/2026 00h 30' 50" Ping reçu,         1050
30/08/2026 00h 30' 48" cPing.
30/08/2026 00h 30' 28" Enregistrement de l'éclairement (345.6 lux & 0 lux )
30/08/2026 00h 30' 28" Ping reçu,         1045
30/08/2026 00h 30' 24" Ping reçu, 1044
30/08/2026 00h 30' 20" Ping reçu, 1043
30/08/2026 00h 30' 15" Ping reçu, 1042
30/08/2026 00h 30' 11" Ping reçu, 1041
30/08/2026 00h 30' 07" Enregistrement des paramètres du vent (49.1° @ 0 m/s)
30/08/2026 00h 30' 07" Ping reçu,         1040
30/08/2026 00h 29' 56" Enregistrement Température du pluviometre : (21,5 °C)
30/08/2026 00h 29' 54" Ping reçu, 1038
30/08/2026 00h 29' 53" cPing.
30/08/2026 00h 29' 50" Ping reçu, 1037
30/08/2026 00h 29' 47" Ping reçu, 1036
30/08/2026 00h 29' 38" Ping reçu, 1034
30/08/2026 00h 29' 34" Ping reçu, 1033
30/08/2026 00h 29' 30" Ping reçu, 1032
30/08/2026 00h 29' 21" Ping reçu, 1
30/08/2026 00h 29' 17" Ping reçu, 1029
30/08/2026 00h 29' 14" Enregistrement de l'éclairement (345.6 lux & 0 lux )
30/08/2026 00h 29' 12" Ping reçu, 1028
30/08/2026 00h 29' 09" On a tout sauvé !
30/08/2026 00h 29' 08" Ping reçu, 1027
30/08/2026 00h 29' 04" Ping reçu, 1026
30/08/2026 00h 28' 56" cPing.
30/08/2026 00h 28' 46" Ping reçu, 1022
30/08/2026 00h 28' 33" Ping reçu, 1019
30/08/2026 00h 28' 29" Ping reçu, 1018
30/08/2026 00h 28' 26" Ping reçu, 1017
30/08/2026 00h 28' 22" Ping reçu, 1016
30/08/2026 00h 28' 18" Ping reçu,         1015
30/08/2026 00h 28' 09" Ping reçu, 1013
30/08/2026 00h 28' 05" Ping reçu, 1012
30/08/2026 00h 28' 00" Ping reçu, 1011
30/08/2026 00h 28' 00" cPing.
30/08/2026 00h 27' 56" Ping reçu,         1010
30/08/2026 00h 27' 51" Ping reçu, 1009
30/08/2026 00h 27' 47" Ping reçu, 1008
30/08/2026 00h 27' 45" ERR. Ther. 14 HS.
30/08/2026 00h 27' 42" Ping reçu, 1007
30/08/2026 00h 27' 38" Ping reçu, 1006
30/08/2026 00h 27' 34" Ping reçu,         1005
30/08/2026 00h 27' 27" Ping reçu, 1003
30/08/2026 00h 27' 23" Ping reçu, 1002
30/08/2026 00h 27' 14" Ping reçu,         1000
30/08/2026 00h 27' 05" cPing.
30/08/2026 00h 26' 57" Ping reçu, 996
30/08/2026 00h 26' 53" Ping reçu,         995
30/08/2026 00h 26' 44" Ping reçu, 993
30/08/2026 00h 26' 31" Ping reçu,         990
30/08/2026 00h 26' 27" Ping reçu, 989
30/08/2026 00h 26' 23" Ping reçu, 988
30/08/2026 00h 26' 20" Ping reçu, 987
30/08/2026 00h 26' 16" Ping reçu, 986
30/08/2026 00h 26' 08" cPing.
30/08/2026 00h 26' 08" Ping reçu, 984
30/08/2026 00h 26' 03" Ping reçu, 983
30/08/2026 00h 25' 59" Ping reçu, 982
30/08/2026 00h 25' 45" Ping reçu, 979
30/08/2026 00h 25' 41" Ping reçu, 978
30/08/2026 00h 25' 33" Ping reçu, 976
30/08/2026 00h 25' 28" Ping reçu,         975
30/08/2026 00h 25' 24" Ping reçu, 974
30/08/2026 00h 25' 20" Ping reçu, 973
30/08/2026 00h 25' 17" Ping reçu, 972
30/08/2026 00h 25' 13" cPing.
30/08/2026 00h 25' 05" Ping reçu, 969
30/08/2026 00h 25' 00" Ping reçu, 968
30/08/2026 00h 24' 52" Ping reçu, 966
30/08/2026 00h 24' 48" Ping reçu,         965
30/08/2026 00h 24' 47" Enregistrement de l'éclairement (345.6 lux & 0 lux )
30/08/2026 00h 24' 44" Ping reçu, 964
30/08/2026 00h 24' 41" Ping reçu, 963
30/08/2026 00h 24' 32" Ping reçu, 961
30/08/2026 00h 24' 29" Enregistrement de la température (19,407 °C)
30/08/2026 00h 24' 29" Pressions pluviométriques (32,07 & 64,00)
30/08/2026 00h 24' 29" Ping reçu,         960
30/08/2026 00h 24' 26" Enregistrement des paramètres du vent (49.1° @ 0 m/s)
30/08/2026 00h 24' 26" Enregistrement de la Pression atmosphérique (1027,071 hPa)
30/08/2026 00h 24' 18" Ping reçu, 958
30/08/2026 00h 24' 16" cPing.
30/08/2026 00h 24' 14" Ping reçu, 957
30/08/2026 00h 24' 10" Ping reçu, 956
30/08/2026 00h 24' 07" Enregistrement de l'Arduino : (23,3 °C)
30/08/2026 00h 24' 02" Ping reçu,         955
30/08/2026 00h 23' 58" Ping reçu, 954
30/08/2026 00h 23' 54" Ping reçu, 953
30/08/2026 00h 23' 50" Ping reçu, 952
30/08/2026 00h 23' 45" Ping reçu, 951
30/08/2026 00h 23' 41" Ping reçu,         950
30/08/2026 00h 23' 35" Enregistrement de l'éclairement (345.6 lux & 0 lux )
30/08/2026 00h 23' 34" Ping reçu, 948
30/08/2026 00h 23' 30" Ping reçu, 947
30/08/2026 00h 23' 26" Ping reçu, 946
30/08/2026 00h 23' 21" Ping reçu,         945
30/08/2026 00h 23' 20" cPing.
30/08/2026 00h 23' 12" Ping reçu, 943
30/08/2026 00h 23' 08" Ping reçu, 942
30/08/2026 00h 22' 57" Ping reçu, 939
30/08/2026 00h 22' 53" Ping reçu, 938
30/08/2026 00h 22' 49" Ping reçu, 937
30/08/2026 00h 22' 40" Ping reçu,         935
30/08/2026 00h 22' 36" Ping reçu, 934
30/08/2026 00h 22' 32" Ping reçu, 933
30/08/2026 00h 22' 30" Enregistrement de l'éclairement (345.6 lux & 0 lux )
30/08/2026 00h 22' 28" Ping reçu, 932
30/08/2026 00h 22' 23" Ping reçu, 931
30/08/2026 00h 22' 23" cPing.
30/08/2026 00h 22' 19" Ping reçu,         930
30/08/2026 00h 22' 01" Ping reçu, 926
30/08/2026 00h 21' 57" Ping reçu,         925
30/08/2026 00h 21' 54" Ping reçu, 924
30/08/2026 00h 21' 50" Ping reçu, 923
30/08/2026 00h 21' 46" Ping reçu, 922
30/08/2026 00h 21' 42" Ping reçu, 921
30/08/2026 00h 21' 38" Ping reçu,         920
30/08/2026 00h 21' 33" Ping reçu, 919
30/08/2026 00h 21' 28" cPing.
30/08/2026 00h 21' 25" Ping reçu, 917
30/08/2026 00h 21' 21" Ping reçu, 916
30/08/2026 00h 21' 18" Ping reçu,         915
30/08/2026 00h 21' 14" Ping reçu, 914
30/08/2026 00h 21' 10" Ping reçu, 913
30/08/2026 00h 21' 06" Ping reçu, 912
30/08/2026 00h 21' 01" Ping reçu, 911
30/08/2026 00h 20' 57" Ping reçu,         910
30/08/2026 00h 20' 53" Ping reçu, 909
30/08/2026 00h 20' 48" Ping reçu, 908
30/08/2026 00h 20' 44" Ping reçu, 907
30/08/2026 00h 20' 40" Ping reçu, 906
30/08/2026 00h 20' 31" cPing.
30/08/2026 00h 20' 24" Ping reçu, 902
30/08/2026 00h 20' 15" Ping reçu,         900
30/08/2026 00h 20' 07" Ping reçu, 898
30/08/2026 00h 20' 03" Ping reçu, 897
30/08/2026 00h 19' 49" Ping reçu, 894
30/08/2026 00h 19' 44" Ping reçu, 893
30/08/2026 00h 19' 40" Ping reçu, 892
30/08/2026 00h 19' 36" Ping reçu, 891
30/08/2026 00h 19' 36" cPing.
30/08/2026 00h 19' 32" Ping reçu,         890
30/08/2026 00h 19' 23" Ping reçu, 888
30/08/2026 00h 19' 18" Ping reçu, 887
30/08/2026 00h 19' 14" Ping reçu, 886
30/08/2026 00h 19' 09" Ping reçu,         885
30/08/2026 00h 19' 09" Rw SD-card.
30/08/2026 00h 19' 08" Enregistrement de l'éclairement (345.6 lux & 0 lux )
30/08/2026 00h 19' 05" Ping reçu, 884
30/08/2026 00h 19' 00" Ping reçu, 883
30/08/2026 00h 18' 56" Ping reçu, 882
30/08/2026 00h 18' 48" Enregistrement des paramètres du vent (49.1° @ 0 m/s)
30/08/2026 00h 18' 48" Ping reçu,         880
30/08/2026 00h 18' 43" Ping reçu, 879
30/08/2026 00h 18' 39" Ping reçu, 878
30/08/2026 00h 18' 39" cPing.
30/08/2026 00h 18' 36" Ping reçu, 877
30/08/2026 00h 18' 32" Ping reçu, 876
30/08/2026 00h 18' 28" Ping reçu,         875
30/08/2026 00h 18' 24" Ping reçu, 874
30/08/2026 00h 18' 06" Ping reçu,         870
30/08/2026 00h 17' 48" Ping reçu, 866
30/08/2026 00h 17' 44" cPing.
30/08/2026 00h 17' 41" Ping reçu,         865
30/08/2026 00h 17' 38" Ping reçu, 864
30/08/2026 00h 17' 32" Ping reçu, 863
30/08/2026 00h 17' 21" Ping reçu,         860
30/08/2026 00h 17' 16" Ping reçu, 859
30/08/2026 00h 17' 08" Ping reçu, 857
30/08/2026 00h 17' 03" Ping reçu, 856
30/08/2026 00h 16' 59" Ping reçu,         855
30/08/2026 00h 16' 55" Ping reçu, 854
30/08/2026 00h 16' 49" Enregistrement de l'éclairement (345.6 lux & 0 lux )
30/08/2026 00h 16' 48" cPing.
30/08/2026 00h 16' 46" Ping reçu, 852
30/08/2026 00h 16' 42" Ping reçu, 851
30/08/2026 00h 16' 39" Ping reçu,         850
30/08/2026 00h 16' 33" Ping reçu, 849
30/08/2026 00h 16' 30" Ping reçu, 848
30/08/2026 00h 16' 24" Ping reçu, 847
30/08/2026 00h 16' 21" Ping reçu, 846
30/08/2026 00h 16' 18" Ping reçu,         845
30/08/2026 00h 16' 09" Ping reçu, 843
30/08/2026 00h 16' 05" Ping reçu, 842
30/08/2026 00h 16' 00" Enregistrement de la température (19,455 °C)
30/08/2026 00h 16' 00" Ping reçu, 841
30/08/2026 00h 15' 56" Enregistrement de la Pression atmosphérique (1027,035 hPa)
30/08/2026 00h 15' 56" Ping reçu,         840
30/08/2026 00h 15' 51" ERR. Ther. 1 HS.
30/08/2026 00h 15' 51" cPing.
30/08/2026 00h 15' 51" ERR. Ther. 14 HS.
30/08/2026 00h 15' 51" Ping reçu, 839
30/08/2026 00h 15' 46" Ping reçu, 838
30/08/2026 00h 15' 42" Ping reçu, 837
30/08/2026 00h 15' 38" Ping reçu, 836
30/08/2026 00h 15' 33" Ping reçu,         835
30/08/2026 00h 15' 29" Ping reçu, 834
30/08/2026 00h 15' 25" Ping reçu, 833
30/08/2026 00h 15' 21" Ping reçu, 832
30/08/2026 00h 15' 18" Ping reçu, 831
30/08/2026 00h 15' 14" Ping reçu,         830
30/08/2026 00h 15' 09" Ping reçu, 829
30/08/2026 00h 15' 01" Ping reçu, 827
30/08/2026 00h 14' 56" cPing.
30/08/2026 00h 14' 52" Ping reçu,         825
30/08/2026 00h 14' 47" Ping reçu, 1
30/08/2026 00h 14' 47" Ping reçu, 824
30/08/2026 00h 14' 39" Ping reçu, 822
30/08/2026 00h 14' 35" Ping reçu, 821
30/08/2026 00h 14' 35" On a tout sauvé !
30/08/2026 00h 14' 30" Enregistrement de l'éclairement (345.6 lux & 0 lux )
30/08/2026 00h 14' 30" Ping reçu,         820
30/08/2026 00h 14' 26" Ping reçu, 819
30/08/2026 00h 14' 08" Ping reçu,         815
30/08/2026 00h 13' 59" cPing.
30/08/2026 00h 13' 57" Ping reçu, 812
30/08/2026 00h 13' 53" Ping reçu, 811
30/08/2026 00h 13' 49" Ping reçu,         810
30/08/2026 00h 13' 45" Ping reçu, 809
30/08/2026 00h 13' 32" Ping reçu, 806
30/08/2026 00h 13' 23" Ping reçu, 804
30/08/2026 00h 13' 19" Ping reçu, 803
30/08/2026 00h 13' 06" Ping reçu,         800
30/08/2026 00h 13' 06" Enregistrement de la hauteur d'eau (783,910 mm @ 99,8%)
30/08/2026 00h 13' 05" Enregistrement des paramètres du vent (49.1° @ 0 m/s)
30/08/2026 00h 13' 04" cPing.
30/08/2026 00h 13' 00" Ping reçu, 799
30/08/2026 00h 12' 51" Ping reçu, 797
30/08/2026 00h 12' 35" Ping reçu, 793
30/08/2026 00h 12' 32" Ping reçu, 792
30/08/2026 00h 12' 23" Ping reçu,         790
30/08/2026 00h 12' 19" Ping reçu, 789
30/08/2026 00h 12' 16" Enregistrement de l'éclairement (345.6 lux & 0 lux )
30/08/2026 00h 12' 15" Ping reçu, 788
30/08/2026 00h 12' 11" Ping reçu, 787
30/08/2026 00h 12' 07" cPing.
30/08/2026 00h 11' 54" ERR. Ther. 1 HS.
30/08/2026 00h 11' 54" ERR. Ther. 14 HS.
30/08/2026 00h 11' 53" Ping reçu, 783
30/08/2026 00h 11' 49" Ping reçu, 782
30/08/2026 00h 11' 45" Ping reçu, 781
30/08/2026 00h 11' 36" Ping reçu, 779
30/08/2026 00h 11' 33" Ping reçu, 778
30/08/2026 00h 11' 29" Ping reçu, 777
30/08/2026 00h 11' 24" Ping reçu, 776
30/08/2026 00h 11' 20" Ping reçu,         775
30/08/2026 00h 11' 12" Ping reçu, 773
30/08/2026 00h 11' 12" cPing.
30/08/2026 00h 11' 08" Enregistrement de l'éclairement (345.6 lux & 0 lux )
30/08/2026 00h 11' 08" Ping reçu, 772
30/08/2026 00h 10' 59" Ping reçu,         770
30/08/2026 00h 10' 54" Ping reçu, 769
30/08/2026 00h 10' 50" Ping reçu, 768
30/08/2026 00h 10' 50" End Kal lux. Rapport=2.580650
30/08/2026 00h 10' 45" Ping reçu, 767
30/08/2026 00h 10' 41" Ping reçu, 766
30/08/2026 00h 10' 37" Ping reçu,         765
30/08/2026 00h 10' 33" Enregistrement de l'Arduino : (23,3 °C)
30/08/2026 00h 10' 31" Ping reçu, 764
30/08/2026 00h 10' 27" Ping reçu, 763
30/08/2026 00h 10' 15" cPing.
30/08/2026 00h 10' 14" Ping reçu,         760
30/08/2026 00h 10' 09" Ping reçu, 759
30/08/2026 00h 10' 05" Ping reçu, 758
30/08/2026 00h 09' 57" Ping reçu, 756
30/08/2026 00h 09' 33" Ping reçu,         750
30/08/2026 00h 09' 29" Ping reçu, 749
30/08/2026 00h 09' 24" Ping reçu, 748
30/08/2026 00h 09' 20" Ping reçu, 747
30/08/2026 00h 09' 20" cPing.
30/08/2026 00h 09' 11" Ping reçu,         745
30/08/2026 00h 09' 07" Ping reçu, 744
30/08/2026 00h 09' 03" Ping reçu, 743
30/08/2026 00h 09' 00" Ping reçu, 742
30/08/2026 00h 08' 56" Ping reçu, 741
30/08/2026 00h 08' 53" Enregistrement de l'éclairement (345.6 lux & 0 lux )
30/08/2026 00h 08' 52" Ping reçu,         740
30/08/2026 00h 08' 48" Ping reçu, 739
30/08/2026 00h 08' 39" Ping reçu, 737
30/08/2026 00h 08' 35" Ping reçu, 736
30/08/2026 00h 08' 30" Ping reçu,         735
30/08/2026 00h 08' 24" cPing.
30/08/2026 00h 08' 22" Ping reçu, 733
30/08/2026 00h 08' 15" Ping reçu, 731
30/08/2026 00h 07' 59" ERR. Ther. 14 HS.
30/08/2026 00h 07' 58" Ping reçu, 727
30/08/2026 00h 07' 54" Ping reçu, 726
30/08/2026 00h 07' 49" Ping reçu,         725
30/08/2026 00h 07' 45" Ping reçu, 724
30/08/2026 00h 07' 41" Ping reçu, 723
30/08/2026 00h 07' 37" Ping reçu, 722
30/08/2026 00h 07' 32" Ping reçu, 721
30/08/2026 00h 07' 28" Ping reçu,         720
30/08/2026 00h 07' 27" Enregistrement de la Pression atmosphérique (1027,027 hPa)
30/08/2026 00h 07' 27" cPing.
30/08/2026 00h 07' 23" Ping reçu, 719
30/08/2026 00h 07' 18" Ping reçu, 718
30/08/2026 00h 07' 14" Ping reçu, 717
30/08/2026 00h 07' 09" Ping reçu, 716
30/08/2026 00h 07' 05" Ping reçu,         715
30/08/2026 00h 06' 54" Ping reçu, 712
30/08/2026 00h 06' 50" Ping reçu, 711
30/08/2026 00h 06' 44" Ping reçu,         710
30/08/2026 00h 06' 41" Ping reçu, 709
30/08/2026 00h 06' 39" Enregistrement de l'éclairement (345.6 lux & 0 lux )
30/08/2026 00h 06' 38" Ping reçu, 708
30/08/2026 00h 06' 30" cPing.
30/08/2026 00h 06' 29" Ping reçu, 706
30/08/2026 00h 06' 20" Ping reçu, 704
30/08/2026 00h 06' 15" Ping reçu, 703
30/08/2026 00h 06' 11" Ping reçu, 702
30/08/2026 00h 06' 06" Ping reçu, 701
30/08/2026 00h 06' 02" Ping reçu,         700
30/08/2026 00h 05' 53" Ping reçu, 698
30/08/2026 00h 05' 45" Ping reçu, 696
30/08/2026 00h 05' 42" Ping reçu,         695
30/08/2026 00h 05' 38" Ping reçu, 694
30/08/2026 00h 05' 35" cPing.
30/08/2026 00h 05' 34" Ping reçu, 693
30/08/2026 00h 05' 29" Enregistrement de l'éclairement (345.6 lux & 0 lux )
30/08/2026 00h 05' 21" Ping reçu, 691
30/08/2026 00h 05' 17" Ping reçu,         690
30/08/2026 00h 05' 09" Ping reçu, 688
30/08/2026 00h 05' 06" Ping reçu, 687
30/08/2026 00h 05' 02" Ping reçu, 686
30/08/2026 00h 04' 53" Ping reçu, 684
30/08/2026 00h 04' 44" Ping reçu, 682
30/08/2026 00h 04' 41" Ping reçu, 681
30/08/2026 00h 04' 39" cPing.
30/08/2026 00h 04' 36" Ping reçu,         680
30/08/2026 00h 04' 32" Ping reçu, 679
30/08/2026 00h 04' 27" Ping reçu, 678
30/08/2026 00h 04' 23" Enregistrement de l'éclairement (345.6 lux & 0 lux )
30/08/2026 00h 04' 15" Ping reçu,         675
30/08/2026 00h 04' 12" Ping reçu, 674
30/08/2026 00h 04' 03" Ping reçu, 672
30/08/2026 00h 04' 00" ERR. Ther. 1 HS.
30/08/2026 00h 04' 00" ERR. Ther. 14 HS.
30/08/2026 00h 03' 59" Ping reçu, 671
30/08/2026 00h 03' 55" Ping reçu,         670
30/08/2026 00h 03' 42" cPing.
30/08/2026 00h 03' 41" Ping reçu, 667
30/08/2026 00h 03' 29" Ping reçu, 664
30/08/2026 00h 03' 24" Ping reçu, 663
30/08/2026 00h 03' 16" Ping reçu, 661
30/08/2026 00h 03' 14" Enregistrement de l'éclairement (345.6 lux & 0 lux )
30/08/2026 00h 03' 12" Ping reçu,         660
30/08/2026 00h 03' 03" Ping reçu, 658
30/08/2026 00h 03' 00" Ping reçu, 657
30/08/2026 00h 02' 54" Ping reçu, 656
30/08/2026 00h 02' 54" Start Kal lux.
30/08/2026 00h 02' 51" Ping reçu,         655
30/08/2026 00h 02' 47" Ping reçu, 654
30/08/2026 00h 02' 47" cPing.
30/08/2026 00h 02' 38" Ping reçu, 652
30/08/2026 00h 02' 30" Ping reçu,         650
30/08/2026 00h 02' 26" Ping reçu, 649
30/08/2026 00h 02' 21" Ping reçu, 648
30/08/2026 00h 02' 17" Ping reçu, 647
30/08/2026 00h 02' 08" Ping reçu,         645
30/08/2026 00h 02' 03" Ping reçu, 644
30/08/2026 00h 01' 59" Ping reçu, 643
30/08/2026 00h 01' 55" Ping reçu, 642
30/08/2026 00h 01' 51" Ping reçu, 641
30/08/2026 00h 01' 50" cPing.
30/08/2026 00h 01' 49" Pressions pluviométriques (32,07 & 64,00)
30/08/2026 00h 01' 37" Ping reçu, 638
30/08/2026 00h 01' 33" Ping reçu, 637
30/08/2026 00h 01' 30" Ping reçu, 636
30/08/2026 00h 01' 22" Ping reçu, 634
30/08/2026 00h 01' 17" Ping reçu, 633
30/08/2026 00h 01' 13" Ping reçu, 632
30/08/2026 00h 01' 09" Ping reçu, 631
30/08/2026 00h 01' 05" Ping reçu,         630
30/08/2026 00h 01' 00" Ping reçu, 629
30/08/2026 00h 00' 57" Enregistrement de l'éclairement (345.6 lux & 0 lux )
30/08/2026 00h 00' 55" cPing.
30/08/2026 00h 00' 52" Enregistrement de la température (19,607 °C)
30/08/2026 00h 00' 50" Enregistrement de la Pression atmosphérique (1027,199 hPa)
30/08/2026 00h 00' 50" Enregistrement de l'humidité (92,83 %)
30/08/2026 00h 00' 32" Ping reçu, 622
30/08/2026 00h 00' 27" Ping reçu, 621
30/08/2026 00h 00' 24" Ping reçu,         620
30/08/2026 00h 00' 23" Ping reçu, 1
30/08/2026 00h 00' 20" Ping reçu, 619
30/08/2026 00h 00' 15" Ping reçu, 618
30/08/2026 00h 00' 11" Ping reçu, 617
30/08/2026 00h 00' 06" Ping reçu, 616
30/08/2026 00h 00' 02" ERR. Ther. 1 HS.
30/08/2026 00h 00' 02" ERR. Ther. 14 HS.
30/08/2026 00h 00' 01" SD Card. STATION/20260830.TXT
30/08/2026 00h 00' 01" SD Card. URL/20260830.TXT
30/08/2026 00h 00' 00" Enregistrement de minuit (346 lux & 0 lux )
30/08/2026 00h 00' 00" Enregistrement de minuit (19.5 °C)
30/08/2026 00h 00' 00" Enregistrement de minuit (102702.6 Pa)
30/08/2026 00h 00' 00" Enregistrement de minuit (783.9 mm)
30/08/2026 00h 00' 00" Enregistrement de minuit (99.9 %)
30/08/2026 00h 00' 00" On a tout sauvé !
30/08/2026 00h 00' 00" Il est minuit. Je vois le serveur disponible. Il faut stocker.